<?xml version='1.0' encoding='UTF-8'?><gpx version="1.1" creator="JPX - https://github.com/jenetics/jpx" xmlns="http://www.topografix.com/GPX/1/1"><trk><trkseg><trkpt lat="40.2843651" lon="9.6335857"><ele>41.0</ele><time>2026-04-07T08:49:38.345Z</time></trkpt><trkpt lat="40.2843089" lon="9.6336335"><ele>41.0</ele><time>2026-04-07T08:49:42.344Z</time></trkpt><trkpt lat="40.28425" lon="9.6336008"><ele>41.0</ele><time>2026-04-07T08:49:44.345Z</time></trkpt><trkpt lat="40.2841949" lon="9.6335495"><ele>41.0</ele><time>2026-04-07T08:49:46.345Z</time></trkpt><trkpt lat="40.284125" lon="9.6334945"><ele>41.0</ele><time>2026-04-07T08:49:51.345Z</time></trkpt><trkpt lat="40.2841147" lon="9.6333563"><ele>41.0</ele><time>2026-04-07T08:49:53.345Z</time></trkpt><trkpt lat="40.2841289" lon="9.6332683"><ele>41.0</ele><time>2026-04-07T08:49:54.345Z</time></trkpt><trkpt lat="40.2841444" lon="9.6331718"><ele>41.0</ele><time>2026-04-07T08:49:55.345Z</time></trkpt><trkpt lat="40.2841628" lon="9.6330638"><ele>41.0</ele><time>2026-04-07T08:49:56.344Z</time></trkpt><trkpt lat="40.2841764" lon="9.6329459"><ele>41.0</ele><time>2026-04-07T08:49:57.345Z</time></trkpt><trkpt lat="40.2841953" lon="9.6328147"><ele>41.0</ele><time>2026-04-07T08:49:58.345Z</time></trkpt><trkpt lat="40.2842135" lon="9.6326924"><ele>41.0</ele><time>2026-04-07T08:49:59.345Z</time></trkpt><trkpt lat="40.2842294" lon="9.6325672"><ele>42.199999999999996</ele><time>2026-04-07T08:50:00.345Z</time></trkpt><trkpt lat="40.284251" lon="9.6324403"><ele>43.4</ele><time>2026-04-07T08:50:01.345Z</time></trkpt><trkpt lat="40.2842708" lon="9.6323113"><ele>44.6</ele><time>2026-04-07T08:50:02.344Z</time></trkpt><trkpt lat="40.2842873" lon="9.6321798"><ele>45.8</ele><time>2026-04-07T08:50:03.345Z</time></trkpt><trkpt lat="40.2843033" lon="9.6320454"><ele>47.0</ele><time>2026-04-07T08:50:04.345Z</time></trkpt><trkpt lat="40.2843185" lon="9.6319187"><ele>48.2</ele><time>2026-04-07T08:50:05.345Z</time></trkpt><trkpt lat="40.28434" lon="9.6317887"><ele>49.400000000000006</ele><time>2026-04-07T08:50:06.345Z</time></trkpt><trkpt lat="40.2843564" lon="9.631656"><ele>50.599999999999994</ele><time>2026-04-07T08:50:07.345Z</time></trkpt><trkpt lat="40.2843707" lon="9.6315239"><ele>51.8</ele><time>2026-04-07T08:50:08.344Z</time></trkpt><trkpt lat="40.2843799" lon="9.6313924"><ele>53.0</ele><time>2026-04-07T08:50:09.345Z</time></trkpt><trkpt lat="40.2843711" lon="9.6312676"><ele>53.00000000000001</ele><time>2026-04-07T08:50:10.344Z</time></trkpt><trkpt lat="40.284346" lon="9.6311608"><ele>53.0</ele><time>2026-04-07T08:50:11.345Z</time></trkpt><trkpt lat="40.2843317" lon="9.6310769"><ele>53.0</ele><time>2026-04-07T08:50:12.345Z</time></trkpt><trkpt lat="40.2843658" lon="9.6309483"><ele>53.0</ele><time>2026-04-07T08:50:14.345Z</time></trkpt><trkpt lat="40.2844759" lon="9.6309316"><ele>53.00000000000001</ele><time>2026-04-07T08:50:16.345Z</time></trkpt><trkpt lat="40.2845503" lon="9.6309577"><ele>53.0</ele><time>2026-04-07T08:50:17.345Z</time></trkpt><trkpt lat="40.2846383" lon="9.6309795"><ele>53.8</ele><time>2026-04-07T08:50:18.345Z</time></trkpt><trkpt lat="40.2847286" lon="9.6310003"><ele>54.599999999999994</ele><time>2026-04-07T08:50:19.345Z</time></trkpt><trkpt lat="40.2848342" lon="9.6310265"><ele>55.400000000000006</ele><time>2026-04-07T08:50:20.345Z</time></trkpt><trkpt lat="40.2849416" lon="9.6310534"><ele>56.2</ele><time>2026-04-07T08:50:21.345Z</time></trkpt><trkpt lat="40.2850411" lon="9.6310654"><ele>57.0</ele><time>2026-04-07T08:50:22.344Z</time></trkpt><trkpt lat="40.2851193" lon="9.6310783"><ele>56.833333333333336</ele><time>2026-04-07T08:50:23.344Z</time></trkpt><trkpt lat="40.2852237" lon="9.6311008"><ele>56.66666666666667</ele><time>2026-04-07T08:50:25.345Z</time></trkpt><trkpt lat="40.2852936" lon="9.6311279"><ele>56.5</ele><time>2026-04-07T08:50:28.345Z</time></trkpt><trkpt lat="40.28537" lon="9.6312356"><ele>56.333333333333336</ele><time>2026-04-07T08:50:30.345Z</time></trkpt><trkpt lat="40.2854242" lon="9.6313121"><ele>56.16666666666667</ele><time>2026-04-07T08:50:31.345Z</time></trkpt><trkpt lat="40.2854792" lon="9.6313804"><ele>56.0</ele><time>2026-04-07T08:50:32.344Z</time></trkpt><trkpt lat="40.2855338" lon="9.6314477"><ele>56.00000000000001</ele><time>2026-04-07T08:50:33.345Z</time></trkpt><trkpt lat="40.2855932" lon="9.6315192"><ele>56.0</ele><time>2026-04-07T08:50:34.344Z</time></trkpt><trkpt lat="40.2856553" lon="9.6315941"><ele>56.0</ele><time>2026-04-07T08:50:35.344Z</time></trkpt><trkpt lat="40.2857246" lon="9.6316649"><ele>56.0</ele><time>2026-04-07T08:50:36.345Z</time></trkpt><trkpt lat="40.2857927" lon="9.631737"><ele>56.00000000000001</ele><time>2026-04-07T08:50:37.344Z</time></trkpt><trkpt lat="40.2858526" lon="9.6318105"><ele>56.0</ele><time>2026-04-07T08:50:38.345Z</time></trkpt><trkpt lat="40.2859149" lon="9.6318888"><ele>56.00000000000001</ele><time>2026-04-07T08:50:39.345Z</time></trkpt><trkpt lat="40.2859804" lon="9.6319597"><ele>56.0</ele><time>2026-04-07T08:50:40.344Z</time></trkpt><trkpt lat="40.2860405" lon="9.6320338"><ele>56.0</ele><time>2026-04-07T08:50:41.345Z</time></trkpt><trkpt lat="40.286105" lon="9.6321061"><ele>56.0</ele><time>2026-04-07T08:50:42.345Z</time></trkpt><trkpt lat="40.286162" lon="9.632181"><ele>56.00000000000001</ele><time>2026-04-07T08:50:43.345Z</time></trkpt><trkpt lat="40.2862266" lon="9.6322606"><ele>56.0</ele><time>2026-04-07T08:50:44.345Z</time></trkpt><trkpt lat="40.2863544" lon="9.6324057"><ele>56.00000000000001</ele><time>2026-04-07T08:50:46.345Z</time></trkpt><trkpt lat="40.2864139" lon="9.6324799"><ele>56.0</ele><time>2026-04-07T08:50:47.345Z</time></trkpt><trkpt lat="40.2864731" lon="9.6325539"><ele>56.0</ele><time>2026-04-07T08:50:48.345Z</time></trkpt><trkpt lat="40.2865312" lon="9.632633"><ele>56.0</ele><time>2026-04-07T08:50:49.344Z</time></trkpt><trkpt lat="40.2865875" lon="9.6327119"><ele>56.00000000000001</ele><time>2026-04-07T08:50:50.344Z</time></trkpt><trkpt lat="40.2866494" lon="9.6327862"><ele>56.0</ele><time>2026-04-07T08:50:51.344Z</time></trkpt><trkpt lat="40.2867117" lon="9.6328649"><ele>56.66666666666667</ele><time>2026-04-07T08:50:52.345Z</time></trkpt><trkpt lat="40.2867759" lon="9.6329358"><ele>57.333333333333336</ele><time>2026-04-07T08:50:53.345Z</time></trkpt><trkpt lat="40.2868379" lon="9.6330141"><ele>58.0</ele><time>2026-04-07T08:50:54.345Z</time></trkpt><trkpt lat="40.2868999" lon="9.6330955"><ele>58.66666666666667</ele><time>2026-04-07T08:50:55.345Z</time></trkpt><trkpt lat="40.2869654" lon="9.6331751"><ele>59.333333333333336</ele><time>2026-04-07T08:50:56.345Z</time></trkpt><trkpt lat="40.2870312" lon="9.6332557"><ele>60.0</ele><time>2026-04-07T08:50:57.345Z</time></trkpt><trkpt lat="40.2870974" lon="9.6333383"><ele>60.0</ele><time>2026-04-07T08:50:58.345Z</time></trkpt><trkpt lat="40.2871638" lon="9.6334193"><ele>60.0</ele><time>2026-04-07T08:50:59.344Z</time></trkpt><trkpt lat="40.28723" lon="9.6335013"><ele>60.0</ele><time>2026-04-07T08:51:00.344Z</time></trkpt><trkpt lat="40.2872917" lon="9.6335749"><ele>60.0</ele><time>2026-04-07T08:51:01.344Z</time></trkpt><trkpt lat="40.2873591" lon="9.6336398"><ele>60.0</ele><time>2026-04-07T08:51:02.344Z</time></trkpt><trkpt lat="40.2874275" lon="9.633692"><ele>60.0</ele><time>2026-04-07T08:51:03.345Z</time></trkpt><trkpt lat="40.2875002" lon="9.6337333"><ele>59.85714285714286</ele><time>2026-04-07T08:51:04.344Z</time></trkpt><trkpt lat="40.2875734" lon="9.6337656"><ele>59.71428571428571</ele><time>2026-04-07T08:51:05.344Z</time></trkpt><trkpt lat="40.2876503" lon="9.6337847"><ele>59.57142857142857</ele><time>2026-04-07T08:51:06.345Z</time></trkpt><trkpt lat="40.2877227" lon="9.6338003"><ele>59.42857142857143</ele><time>2026-04-07T08:51:07.345Z</time></trkpt><trkpt lat="40.2877891" lon="9.6338106"><ele>59.28571428571429</ele><time>2026-04-07T08:51:08.345Z</time></trkpt><trkpt lat="40.2878546" lon="9.6338215"><ele>59.14285714285714</ele><time>2026-04-07T08:51:09.345Z</time></trkpt><trkpt lat="40.2879197" lon="9.6338318"><ele>59.0</ele><time>2026-04-07T08:51:10.344Z</time></trkpt><trkpt lat="40.2879923" lon="9.6338307"><ele>59.00000000000001</ele><time>2026-04-07T08:51:11.345Z</time></trkpt><trkpt lat="40.2880644" lon="9.6338302"><ele>59.0</ele><time>2026-04-07T08:51:12.345Z</time></trkpt><trkpt lat="40.2881461" lon="9.633835"><ele>59.0</ele><time>2026-04-07T08:51:13.344Z</time></trkpt><trkpt lat="40.2882286" lon="9.6338414"><ele>59.0</ele><time>2026-04-07T08:51:14.345Z</time></trkpt><trkpt lat="40.2883162" lon="9.6338566"><ele>59.00000000000001</ele><time>2026-04-07T08:51:15.345Z</time></trkpt><trkpt lat="40.288394" lon="9.6338889"><ele>59.0</ele><time>2026-04-07T08:51:16.344Z</time></trkpt><trkpt lat="40.2884716" lon="9.6339404"><ele>60.800000000000004</ele><time>2026-04-07T08:51:17.345Z</time></trkpt><trkpt lat="40.2885422" lon="9.6340098"><ele>62.60000000000001</ele><time>2026-04-07T08:51:18.345Z</time></trkpt><trkpt lat="40.2886099" lon="9.6340892"><ele>64.4</ele><time>2026-04-07T08:51:19.344Z</time></trkpt><trkpt lat="40.2886764" lon="9.6341726"><ele>66.2</ele><time>2026-04-07T08:51:20.345Z</time></trkpt><trkpt lat="40.2887468" lon="9.6342547"><ele>68.0</ele><time>2026-04-07T08:51:21.345Z</time></trkpt><trkpt lat="40.288816" lon="9.6343466"><ele>68.0</ele><time>2026-04-07T08:51:22.345Z</time></trkpt><trkpt lat="40.2888859" lon="9.6344377"><ele>68.0</ele><time>2026-04-07T08:51:23.345Z</time></trkpt><trkpt lat="40.288956" lon="9.6345321"><ele>68.0</ele><time>2026-04-07T08:51:24.345Z</time></trkpt><trkpt lat="40.2890314" lon="9.6346297"><ele>68.0</ele><time>2026-04-07T08:51:25.345Z</time></trkpt><trkpt lat="40.2891045" lon="9.6347289"><ele>68.0</ele><time>2026-04-07T08:51:26.345Z</time></trkpt><trkpt lat="40.2891713" lon="9.6348285"><ele>70.0</ele><time>2026-04-07T08:51:27.345Z</time></trkpt><trkpt lat="40.2892318" lon="9.6349231"><ele>72.0</ele><time>2026-04-07T08:51:28.345Z</time></trkpt><trkpt lat="40.2892957" lon="9.6350175"><ele>74.0</ele><time>2026-04-07T08:51:29.344Z</time></trkpt><trkpt lat="40.2893533" lon="9.6351073"><ele>76.0</ele><time>2026-04-07T08:51:30.344Z</time></trkpt><trkpt lat="40.2894102" lon="9.6351902"><ele>78.0</ele><time>2026-04-07T08:51:31.345Z</time></trkpt><trkpt lat="40.2894706" lon="9.635273"><ele>77.8</ele><time>2026-04-07T08:51:32.345Z</time></trkpt><trkpt lat="40.2895315" lon="9.6353582"><ele>77.6</ele><time>2026-04-07T08:51:33.345Z</time></trkpt><trkpt lat="40.289594" lon="9.6354547"><ele>77.4</ele><time>2026-04-07T08:51:34.345Z</time></trkpt><trkpt lat="40.2896601" lon="9.6355497"><ele>77.2</ele><time>2026-04-07T08:51:35.344Z</time></trkpt><trkpt lat="40.2897271" lon="9.6356489"><ele>77.0</ele><time>2026-04-07T08:51:36.345Z</time></trkpt><trkpt lat="40.2897848" lon="9.6357429"><ele>77.0</ele><time>2026-04-07T08:51:37.344Z</time></trkpt><trkpt lat="40.2898383" lon="9.6358409"><ele>77.0</ele><time>2026-04-07T08:51:38.344Z</time></trkpt><trkpt lat="40.2898871" lon="9.6359434"><ele>77.0</ele><time>2026-04-07T08:51:39.344Z</time></trkpt><trkpt lat="40.2899264" lon="9.6360385"><ele>77.0</ele><time>2026-04-07T08:51:40.345Z</time></trkpt><trkpt lat="40.2899531" lon="9.6361322"><ele>77.0</ele><time>2026-04-07T08:51:41.345Z</time></trkpt><trkpt lat="40.2899641" lon="9.6362282"><ele>77.0</ele><time>2026-04-07T08:51:42.345Z</time></trkpt><trkpt lat="40.289955" lon="9.6363306"><ele>78.4</ele><time>2026-04-07T08:51:43.345Z</time></trkpt><trkpt lat="40.2899309" lon="9.6364374"><ele>79.80000000000001</ele><time>2026-04-07T08:51:44.344Z</time></trkpt><trkpt lat="40.2898881" lon="9.6365351"><ele>81.2</ele><time>2026-04-07T08:51:45.344Z</time></trkpt><trkpt lat="40.2898365" lon="9.6366343"><ele>82.60000000000001</ele><time>2026-04-07T08:51:46.345Z</time></trkpt><trkpt lat="40.2897823" lon="9.6367383"><ele>84.0</ele><time>2026-04-07T08:51:47.345Z</time></trkpt><trkpt lat="40.2897241" lon="9.6368383"><ele>84.4</ele><time>2026-04-07T08:51:48.344Z</time></trkpt><trkpt lat="40.2896593" lon="9.63694"><ele>84.80000000000001</ele><time>2026-04-07T08:51:49.345Z</time></trkpt><trkpt lat="40.2895898" lon="9.6370384"><ele>85.19999999999999</ele><time>2026-04-07T08:51:50.345Z</time></trkpt><trkpt lat="40.2895089" lon="9.6371298"><ele>85.6</ele><time>2026-04-07T08:51:51.345Z</time></trkpt><trkpt lat="40.2894232" lon="9.6372202"><ele>86.0</ele><time>2026-04-07T08:51:52.344Z</time></trkpt><trkpt lat="40.2893362" lon="9.6373062"><ele>86.0</ele><time>2026-04-07T08:51:53.345Z</time></trkpt><trkpt lat="40.2892596" lon="9.6373889"><ele>86.0</ele><time>2026-04-07T08:51:54.344Z</time></trkpt><trkpt lat="40.2891863" lon="9.6374815"><ele>86.0</ele><time>2026-04-07T08:51:55.344Z</time></trkpt><trkpt lat="40.289127" lon="9.6375655"><ele>86.0</ele><time>2026-04-07T08:51:56.345Z</time></trkpt><trkpt lat="40.2890855" lon="9.6376513"><ele>86.0</ele><time>2026-04-07T08:51:57.344Z</time></trkpt><trkpt lat="40.2890701" lon="9.6377457"><ele>86.0</ele><time>2026-04-07T08:51:58.344Z</time></trkpt><trkpt lat="40.2890729" lon="9.6378439"><ele>87.66666666666667</ele><time>2026-04-07T08:51:59.344Z</time></trkpt><trkpt lat="40.289102" lon="9.6379356"><ele>89.33333333333334</ele><time>2026-04-07T08:52:00.344Z</time></trkpt><trkpt lat="40.2891425" lon="9.6380215"><ele>91.0</ele><time>2026-04-07T08:52:01.345Z</time></trkpt><trkpt lat="40.2891946" lon="9.6381054"><ele>92.66666666666667</ele><time>2026-04-07T08:52:02.344Z</time></trkpt><trkpt lat="40.2892537" lon="9.6381916"><ele>94.33333333333333</ele><time>2026-04-07T08:52:03.344Z</time></trkpt><trkpt lat="40.2893108" lon="9.6382852"><ele>96.0</ele><time>2026-04-07T08:52:04.345Z</time></trkpt><trkpt lat="40.2893717" lon="9.6383807"><ele>96.0</ele><time>2026-04-07T08:52:05.344Z</time></trkpt><trkpt lat="40.2894347" lon="9.6384874"><ele>96.0</ele><time>2026-04-07T08:52:06.345Z</time></trkpt><trkpt lat="40.2894988" lon="9.6385945"><ele>96.0</ele><time>2026-04-07T08:52:07.345Z</time></trkpt><trkpt lat="40.2895642" lon="9.6387076"><ele>96.0</ele><time>2026-04-07T08:52:08.344Z</time></trkpt><trkpt lat="40.2896309" lon="9.6388199"><ele>96.0</ele><time>2026-04-07T08:52:09.345Z</time></trkpt><trkpt lat="40.2896984" lon="9.6389278"><ele>99.0</ele><time>2026-04-07T08:52:10.344Z</time></trkpt><trkpt lat="40.2897668" lon="9.6390375"><ele>102.0</ele><time>2026-04-07T08:52:11.345Z</time></trkpt><trkpt lat="40.2898408" lon="9.6391464"><ele>105.0</ele><time>2026-04-07T08:52:12.345Z</time></trkpt><trkpt lat="40.2899119" lon="9.6392532"><ele>108.0</ele><time>2026-04-07T08:52:13.345Z</time></trkpt><trkpt lat="40.2899749" lon="9.6393706"><ele>111.0</ele><time>2026-04-07T08:52:14.344Z</time></trkpt><trkpt lat="40.2900423" lon="9.6394838"><ele>111.0</ele><time>2026-04-07T08:52:15.345Z</time></trkpt><trkpt lat="40.2901094" lon="9.6395913"><ele>111.0</ele><time>2026-04-07T08:52:16.345Z</time></trkpt><trkpt lat="40.2901743" lon="9.6396997"><ele>111.0</ele><time>2026-04-07T08:52:17.345Z</time></trkpt><trkpt lat="40.2902335" lon="9.6398073"><ele>111.0</ele><time>2026-04-07T08:52:18.345Z</time></trkpt><trkpt lat="40.2902858" lon="9.6399168"><ele>111.0</ele><time>2026-04-07T08:52:19.344Z</time></trkpt><trkpt lat="40.2903235" lon="9.6400296"><ele>111.0</ele><time>2026-04-07T08:52:20.345Z</time></trkpt><trkpt lat="40.2903585" lon="9.6401423"><ele>111.0</ele><time>2026-04-07T08:52:21.345Z</time></trkpt><trkpt lat="40.2903842" lon="9.6402569"><ele>111.0</ele><time>2026-04-07T08:52:22.345Z</time></trkpt><trkpt lat="40.290408" lon="9.640373"><ele>111.0</ele><time>2026-04-07T08:52:23.345Z</time></trkpt><trkpt lat="40.2904389" lon="9.6404642"><ele>111.0</ele><time>2026-04-07T08:52:24.345Z</time></trkpt><trkpt lat="40.2904766" lon="9.6405481"><ele>111.0</ele><time>2026-04-07T08:52:25.344Z</time></trkpt><trkpt lat="40.2905658" lon="9.6406168"><ele>114.16666666666667</ele><time>2026-04-07T08:52:27.345Z</time></trkpt><trkpt lat="40.2906294" lon="9.6405306"><ele>117.33333333333334</ele><time>2026-04-07T08:52:29.345Z</time></trkpt><trkpt lat="40.2906259" lon="9.6403739"><ele>120.5</ele><time>2026-04-07T08:52:31.345Z</time></trkpt><trkpt lat="40.290632" lon="9.6402882"><ele>123.66666666666667</ele><time>2026-04-07T08:52:32.344Z</time></trkpt><trkpt lat="40.2906431" lon="9.6402062"><ele>126.83333333333334</ele><time>2026-04-07T08:52:33.344Z</time></trkpt><trkpt lat="40.290653" lon="9.640124"><ele>130.0</ele><time>2026-04-07T08:52:34.345Z</time></trkpt><trkpt lat="40.2906675" lon="9.6400422"><ele>131.0</ele><time>2026-04-07T08:52:35.344Z</time></trkpt><trkpt lat="40.2906856" lon="9.6399568"><ele>132.0</ele><time>2026-04-07T08:52:36.345Z</time></trkpt><trkpt lat="40.2906973" lon="9.6398714"><ele>133.0</ele><time>2026-04-07T08:52:37.345Z</time></trkpt><trkpt lat="40.2907089" lon="9.6397861"><ele>134.0</ele><time>2026-04-07T08:52:38.345Z</time></trkpt><trkpt lat="40.2907199" lon="9.6397041"><ele>135.0</ele><time>2026-04-07T08:52:39.345Z</time></trkpt><trkpt lat="40.2907451" lon="9.6395475"><ele>136.0</ele><time>2026-04-07T08:52:41.345Z</time></trkpt><trkpt lat="40.2907585" lon="9.6394609"><ele>135.99999999999997</ele><time>2026-04-07T08:52:42.344Z</time></trkpt><trkpt lat="40.2907721" lon="9.6393706"><ele>136.0</ele><time>2026-04-07T08:52:43.345Z</time></trkpt><trkpt lat="40.2907829" lon="9.6392846"><ele>136.0</ele><time>2026-04-07T08:52:44.345Z</time></trkpt><trkpt lat="40.2907977" lon="9.6391999"><ele>136.0</ele><time>2026-04-07T08:52:45.345Z</time></trkpt><trkpt lat="40.290814" lon="9.6391184"><ele>136.0</ele><time>2026-04-07T08:52:46.345Z</time></trkpt><trkpt lat="40.2908277" lon="9.6390355"><ele>135.99999999999997</ele><time>2026-04-07T08:52:47.344Z</time></trkpt><trkpt lat="40.2908399" lon="9.6389522"><ele>136.0</ele><time>2026-04-07T08:52:48.344Z</time></trkpt><trkpt lat="40.2908507" lon="9.6388656"><ele>135.99999999999997</ele><time>2026-04-07T08:52:49.345Z</time></trkpt><trkpt lat="40.2908664" lon="9.6387785"><ele>136.0</ele><time>2026-04-07T08:52:50.344Z</time></trkpt><trkpt lat="40.2908822" lon="9.6386888"><ele>136.0</ele><time>2026-04-07T08:52:51.345Z</time></trkpt><trkpt lat="40.2909016" lon="9.6385957"><ele>136.0</ele><time>2026-04-07T08:52:52.345Z</time></trkpt><trkpt lat="40.2909237" lon="9.6385085"><ele>136.0</ele><time>2026-04-07T08:52:53.345Z</time></trkpt><trkpt lat="40.2909517" lon="9.6384191"><ele>135.99999999999997</ele><time>2026-04-07T08:52:54.345Z</time></trkpt><trkpt lat="40.2909814" lon="9.6383308"><ele>136.0</ele><time>2026-04-07T08:52:55.344Z</time></trkpt><trkpt lat="40.291018" lon="9.6382429"><ele>135.6</ele><time>2026-04-07T08:52:56.345Z</time></trkpt><trkpt lat="40.291063" lon="9.6381537"><ele>135.2</ele><time>2026-04-07T08:52:57.344Z</time></trkpt><trkpt lat="40.2911117" lon="9.6380634"><ele>134.8</ele><time>2026-04-07T08:52:58.344Z</time></trkpt><trkpt lat="40.2911692" lon="9.6379651"><ele>134.4</ele><time>2026-04-07T08:52:59.345Z</time></trkpt><trkpt lat="40.2912393" lon="9.637869"><ele>134.0</ele><time>2026-04-07T08:53:00.344Z</time></trkpt><trkpt lat="40.2913172" lon="9.6377771"><ele>131.6</ele><time>2026-04-07T08:53:01.344Z</time></trkpt><trkpt lat="40.2914043" lon="9.6376959"><ele>129.2</ele><time>2026-04-07T08:53:02.344Z</time></trkpt><trkpt lat="40.2914891" lon="9.637627"><ele>126.79999999999998</ele><time>2026-04-07T08:53:03.345Z</time></trkpt><trkpt lat="40.29157" lon="9.6375684"><ele>124.39999999999999</ele><time>2026-04-07T08:53:04.345Z</time></trkpt><trkpt lat="40.2916525" lon="9.6375199"><ele>122.0</ele><time>2026-04-07T08:53:05.344Z</time></trkpt><trkpt lat="40.291737" lon="9.6374888"><ele>125.42857142857142</ele><time>2026-04-07T08:53:06.345Z</time></trkpt><trkpt lat="40.2918085" lon="9.6374718"><ele>128.85714285714286</ele><time>2026-04-07T08:53:07.345Z</time></trkpt><trkpt lat="40.2918757" lon="9.6374698"><ele>132.28571428571428</ele><time>2026-04-07T08:53:08.344Z</time></trkpt><trkpt lat="40.2919425" lon="9.6374735"><ele>135.71428571428572</ele><time>2026-04-07T08:53:09.344Z</time></trkpt><trkpt lat="40.2920064" lon="9.6374796"><ele>139.14285714285714</ele><time>2026-04-07T08:53:10.344Z</time></trkpt><trkpt lat="40.2920701" lon="9.6374908"><ele>142.57142857142856</ele><time>2026-04-07T08:53:11.344Z</time></trkpt><trkpt lat="40.2921335" lon="9.6374971"><ele>146.0</ele><time>2026-04-07T08:53:12.345Z</time></trkpt><trkpt lat="40.2921988" lon="9.6375091"><ele>148.8</ele><time>2026-04-07T08:53:13.345Z</time></trkpt><trkpt lat="40.2923287" lon="9.6375177"><ele>151.6</ele><time>2026-04-07T08:53:15.345Z</time></trkpt><trkpt lat="40.2923959" lon="9.6375224"><ele>154.4</ele><time>2026-04-07T08:53:16.344Z</time></trkpt><trkpt lat="40.2925022" lon="9.6375194"><ele>157.2</ele><time>2026-04-07T08:53:18.345Z</time></trkpt><trkpt lat="40.2925825" lon="9.6375081"><ele>160.0</ele><time>2026-04-07T08:53:20.345Z</time></trkpt><trkpt lat="40.2926786" lon="9.637494"><ele>160.0</ele><time>2026-04-07T08:53:22.345Z</time></trkpt><trkpt lat="40.2927893" lon="9.6374682"><ele>160.0</ele><time>2026-04-07T08:53:24.345Z</time></trkpt><trkpt lat="40.2929143" lon="9.6374502"><ele>160.0</ele><time>2026-04-07T08:53:26.345Z</time></trkpt><trkpt lat="40.2930369" lon="9.6374291"><ele>160.0</ele><time>2026-04-07T08:53:28.345Z</time></trkpt><trkpt lat="40.2931601" lon="9.6374182"><ele>161.875</ele><time>2026-04-07T08:53:30.345Z</time></trkpt><trkpt lat="40.2932227" lon="9.6374274"><ele>163.75</ele><time>2026-04-07T08:53:31.345Z</time></trkpt><trkpt lat="40.293285" lon="9.6374421"><ele>165.625</ele><time>2026-04-07T08:53:32.344Z</time></trkpt><trkpt lat="40.2933425" lon="9.6374758"><ele>167.5</ele><time>2026-04-07T08:53:33.345Z</time></trkpt><trkpt lat="40.2933942" lon="9.6375259"><ele>169.375</ele><time>2026-04-07T08:53:34.345Z</time></trkpt><trkpt lat="40.2934473" lon="9.6375762"><ele>171.25</ele><time>2026-04-07T08:53:35.345Z</time></trkpt><trkpt lat="40.2935043" lon="9.6376191"><ele>173.125</ele><time>2026-04-07T08:53:36.345Z</time></trkpt><trkpt lat="40.2935639" lon="9.637652"><ele>175.0</ele><time>2026-04-07T08:53:37.344Z</time></trkpt><trkpt lat="40.2936917" lon="9.6376545"><ele>175.0</ele><time>2026-04-07T08:53:39.345Z</time></trkpt><trkpt lat="40.2937562" lon="9.6376339"><ele>175.0</ele><time>2026-04-07T08:53:40.345Z</time></trkpt><trkpt lat="40.293817" lon="9.6376011"><ele>175.0</ele><time>2026-04-07T08:53:41.344Z</time></trkpt><trkpt lat="40.2938658" lon="9.6375487"><ele>175.0</ele><time>2026-04-07T08:53:42.345Z</time></trkpt><trkpt lat="40.2939082" lon="9.637485"><ele>175.0</ele><time>2026-04-07T08:53:43.345Z</time></trkpt><trkpt lat="40.2939462" lon="9.6374157"><ele>175.0</ele><time>2026-04-07T08:53:44.344Z</time></trkpt><trkpt lat="40.2939926" lon="9.637349"><ele>175.0</ele><time>2026-04-07T08:53:45.345Z</time></trkpt><trkpt lat="40.2940483" lon="9.6372911"><ele>178.0</ele><time>2026-04-07T08:53:46.345Z</time></trkpt><trkpt lat="40.2941149" lon="9.637244"><ele>181.0</ele><time>2026-04-07T08:53:47.345Z</time></trkpt><trkpt lat="40.2941892" lon="9.6372061"><ele>184.0</ele><time>2026-04-07T08:53:48.344Z</time></trkpt><trkpt lat="40.294275" lon="9.6371712"><ele>187.0</ele><time>2026-04-07T08:53:49.345Z</time></trkpt><trkpt lat="40.2943663" lon="9.6371401"><ele>189.99999999999997</ele><time>2026-04-07T08:53:50.345Z</time></trkpt><trkpt lat="40.2944477" lon="9.6371122"><ele>193.0</ele><time>2026-04-07T08:53:51.345Z</time></trkpt><trkpt lat="40.2945362" lon="9.6370769"><ele>192.99999999999997</ele><time>2026-04-07T08:53:52.344Z</time></trkpt><trkpt lat="40.2946079" lon="9.6370493"><ele>193.0</ele><time>2026-04-07T08:53:53.344Z</time></trkpt><trkpt lat="40.2946822" lon="9.6370213"><ele>193.0</ele><time>2026-04-07T08:53:54.345Z</time></trkpt><trkpt lat="40.2947655" lon="9.6370099"><ele>193.0</ele><time>2026-04-07T08:53:55.345Z</time></trkpt><trkpt lat="40.2948496" lon="9.6370076"><ele>192.99999999999997</ele><time>2026-04-07T08:53:56.344Z</time></trkpt><trkpt lat="40.2949339" lon="9.6370058"><ele>193.0</ele><time>2026-04-07T08:53:57.345Z</time></trkpt><trkpt lat="40.2950175" lon="9.6369964"><ele>190.66666666666666</ele><time>2026-04-07T08:53:58.345Z</time></trkpt><trkpt lat="40.2950976" lon="9.636975"><ele>188.33333333333331</ele><time>2026-04-07T08:53:59.345Z</time></trkpt><trkpt lat="40.2951699" lon="9.6369423"><ele>186.0</ele><time>2026-04-07T08:54:00.345Z</time></trkpt><trkpt lat="40.295239" lon="9.6368988"><ele>183.66666666666666</ele><time>2026-04-07T08:54:01.345Z</time></trkpt><trkpt lat="40.2953361" lon="9.6368181"><ele>181.33333333333331</ele><time>2026-04-07T08:54:03.345Z</time></trkpt><trkpt lat="40.2954207" lon="9.6367648"><ele>179.0</ele><time>2026-04-07T08:54:05.344Z</time></trkpt><trkpt lat="40.2955113" lon="9.6367259"><ele>184.75</ele><time>2026-04-07T08:54:07.344Z</time></trkpt><trkpt lat="40.295618" lon="9.6367175"><ele>190.5</ele><time>2026-04-07T08:54:09.345Z</time></trkpt><trkpt lat="40.2957293" lon="9.6367528"><ele>196.25</ele><time>2026-04-07T08:54:11.345Z</time></trkpt><trkpt lat="40.2958474" lon="9.6367988"><ele>202.0</ele><time>2026-04-07T08:54:13.345Z</time></trkpt><trkpt lat="40.2959725" lon="9.6367909"><ele>202.0</ele><time>2026-04-07T08:54:15.344Z</time></trkpt><trkpt lat="40.2960357" lon="9.6367531"><ele>202.0</ele><time>2026-04-07T08:54:16.345Z</time></trkpt><trkpt lat="40.2960947" lon="9.6366987"><ele>202.0</ele><time>2026-04-07T08:54:17.344Z</time></trkpt><trkpt lat="40.296146" lon="9.6366334"><ele>202.0</ele><time>2026-04-07T08:54:18.345Z</time></trkpt><trkpt lat="40.2961917" lon="9.6365631"><ele>202.0</ele><time>2026-04-07T08:54:19.345Z</time></trkpt><trkpt lat="40.2962348" lon="9.6364874"><ele>202.0</ele><time>2026-04-07T08:54:20.344Z</time></trkpt><trkpt lat="40.2962725" lon="9.636408"><ele>202.0</ele><time>2026-04-07T08:54:21.345Z</time></trkpt><trkpt lat="40.296303" lon="9.6363274"><ele>202.0</ele><time>2026-04-07T08:54:22.345Z</time></trkpt><trkpt lat="40.2963212" lon="9.6362434"><ele>202.0</ele><time>2026-04-07T08:54:23.345Z</time></trkpt><trkpt lat="40.2963299" lon="9.6361601"><ele>202.0</ele><time>2026-04-07T08:54:24.345Z</time></trkpt><trkpt lat="40.2963433" lon="9.6360739"><ele>202.0</ele><time>2026-04-07T08:54:25.344Z</time></trkpt><trkpt lat="40.2963657" lon="9.6359868"><ele>202.0</ele><time>2026-04-07T08:54:26.344Z</time></trkpt><trkpt lat="40.2964068" lon="9.6359111"><ele>202.0</ele><time>2026-04-07T08:54:27.345Z</time></trkpt><trkpt lat="40.2964613" lon="9.635847"><ele>202.0</ele><time>2026-04-07T08:54:28.345Z</time></trkpt><trkpt lat="40.2965197" lon="9.6357858"><ele>204.33333333333331</ele><time>2026-04-07T08:54:29.345Z</time></trkpt><trkpt lat="40.2965779" lon="9.6357212"><ele>206.66666666666666</ele><time>2026-04-07T08:54:30.344Z</time></trkpt><trkpt lat="40.2966299" lon="9.6356491"><ele>209.0</ele><time>2026-04-07T08:54:31.345Z</time></trkpt><trkpt lat="40.2966822" lon="9.6355808"><ele>211.33333333333331</ele><time>2026-04-07T08:54:32.345Z</time></trkpt><trkpt lat="40.2967373" lon="9.6355019"><ele>213.66666666666666</ele><time>2026-04-07T08:54:33.344Z</time></trkpt><trkpt lat="40.2967898" lon="9.6354195"><ele>216.0</ele><time>2026-04-07T08:54:34.345Z</time></trkpt><trkpt lat="40.2968436" lon="9.6353327"><ele>213.33333333333334</ele><time>2026-04-07T08:54:35.345Z</time></trkpt><trkpt lat="40.2968947" lon="9.635244"><ele>210.66666666666669</ele><time>2026-04-07T08:54:36.344Z</time></trkpt><trkpt lat="40.2969483" lon="9.6351544"><ele>208.0</ele><time>2026-04-07T08:54:37.345Z</time></trkpt><trkpt lat="40.2970026" lon="9.6350688"><ele>205.33333333333334</ele><time>2026-04-07T08:54:38.345Z</time></trkpt><trkpt lat="40.2970593" lon="9.6349768"><ele>202.66666666666669</ele><time>2026-04-07T08:54:39.345Z</time></trkpt><trkpt lat="40.2971167" lon="9.634889"><ele>200.0</ele><time>2026-04-07T08:54:40.345Z</time></trkpt><trkpt lat="40.2971729" lon="9.6347956"><ele>200.00000000000003</ele><time>2026-04-07T08:54:41.345Z</time></trkpt><trkpt lat="40.2972273" lon="9.634704"><ele>200.0</ele><time>2026-04-07T08:54:42.345Z</time></trkpt><trkpt lat="40.2972856" lon="9.6346132"><ele>200.0</ele><time>2026-04-07T08:54:43.344Z</time></trkpt><trkpt lat="40.2973424" lon="9.6345226"><ele>200.0</ele><time>2026-04-07T08:54:44.344Z</time></trkpt><trkpt lat="40.297399" lon="9.6344336"><ele>200.00000000000003</ele><time>2026-04-07T08:54:45.345Z</time></trkpt><trkpt lat="40.2974608" lon="9.6343473"><ele>200.0</ele><time>2026-04-07T08:54:46.345Z</time></trkpt><trkpt lat="40.2975262" lon="9.6342678"><ele>205.66666666666669</ele><time>2026-04-07T08:54:47.344Z</time></trkpt><trkpt lat="40.2975969" lon="9.6341961"><ele>211.33333333333334</ele><time>2026-04-07T08:54:48.345Z</time></trkpt><trkpt lat="40.2976653" lon="9.6341209"><ele>217.0</ele><time>2026-04-07T08:54:49.345Z</time></trkpt><trkpt lat="40.2977266" lon="9.6340385"><ele>222.66666666666669</ele><time>2026-04-07T08:54:50.345Z</time></trkpt><trkpt lat="40.2977726" lon="9.6339543"><ele>228.33333333333334</ele><time>2026-04-07T08:54:51.345Z</time></trkpt><trkpt lat="40.2978109" lon="9.6338736"><ele>234.0</ele><time>2026-04-07T08:54:52.345Z</time></trkpt><trkpt lat="40.2978567" lon="9.6337602"><ele>234.0</ele><time>2026-04-07T08:54:54.344Z</time></trkpt><trkpt lat="40.2979359" lon="9.6337526"><ele>234.0</ele><time>2026-04-07T08:54:56.344Z</time></trkpt><trkpt lat="40.2979455" lon="9.6338825"><ele>234.0</ele><time>2026-04-07T08:54:58.344Z</time></trkpt><trkpt lat="40.2979237" lon="9.633965"><ele>234.0</ele><time>2026-04-07T08:54:59.344Z</time></trkpt><trkpt lat="40.2978975" lon="9.6340621"><ele>234.0</ele><time>2026-04-07T08:55:00.345Z</time></trkpt><trkpt lat="40.2978614" lon="9.6341657"><ele>234.0</ele><time>2026-04-07T08:55:01.344Z</time></trkpt><trkpt lat="40.2978274" lon="9.6342763"><ele>234.0</ele><time>2026-04-07T08:55:02.345Z</time></trkpt><trkpt lat="40.2977969" lon="9.6343785"><ele>234.0</ele><time>2026-04-07T08:55:03.345Z</time></trkpt><trkpt lat="40.2977671" lon="9.6344841"><ele>234.0</ele><time>2026-04-07T08:55:04.344Z</time></trkpt><trkpt lat="40.2977359" lon="9.6345903"><ele>234.0</ele><time>2026-04-07T08:55:05.345Z</time></trkpt><trkpt lat="40.297709" lon="9.6347003"><ele>234.0</ele><time>2026-04-07T08:55:06.345Z</time></trkpt><trkpt lat="40.2976809" lon="9.6348072"><ele>234.0</ele><time>2026-04-07T08:55:07.344Z</time></trkpt><trkpt lat="40.2976559" lon="9.634919"><ele>235.33333333333334</ele><time>2026-04-07T08:55:08.344Z</time></trkpt><trkpt lat="40.2976339" lon="9.6350274"><ele>236.66666666666669</ele><time>2026-04-07T08:55:09.344Z</time></trkpt><trkpt lat="40.2976074" lon="9.635129"><ele>238.0</ele><time>2026-04-07T08:55:10.345Z</time></trkpt><trkpt lat="40.2975782" lon="9.6352274"><ele>239.33333333333334</ele><time>2026-04-07T08:55:11.345Z</time></trkpt><trkpt lat="40.2975464" lon="9.6353252"><ele>240.66666666666669</ele><time>2026-04-07T08:55:12.345Z</time></trkpt><trkpt lat="40.2975122" lon="9.6354195"><ele>242.0</ele><time>2026-04-07T08:55:13.345Z</time></trkpt><trkpt lat="40.297478" lon="9.6355101"><ele>246.00000000000003</ele><time>2026-04-07T08:55:14.345Z</time></trkpt><trkpt lat="40.2974285" lon="9.6356263"><ele>250.0</ele><time>2026-04-07T08:55:16.345Z</time></trkpt><trkpt lat="40.2973855" lon="9.6357208"><ele>254.0</ele><time>2026-04-07T08:55:18.344Z</time></trkpt><trkpt lat="40.2973791" lon="9.6358194"><ele>258.0</ele><time>2026-04-07T08:55:21.344Z</time></trkpt><trkpt lat="40.2974586" lon="9.6358146"><ele>262.0</ele><time>2026-04-07T08:55:24.344Z</time></trkpt><trkpt lat="40.2975026" lon="9.6357412"><ele>266.0</ele><time>2026-04-07T08:55:26.345Z</time></trkpt><trkpt lat="40.2975477" lon="9.6356358"><ele>266.0</ele><time>2026-04-07T08:55:28.344Z</time></trkpt><trkpt lat="40.297624" lon="9.6355177"><ele>266.0</ele><time>2026-04-07T08:55:30.344Z</time></trkpt><trkpt lat="40.2976725" lon="9.6354553"><ele>266.0</ele><time>2026-04-07T08:55:31.344Z</time></trkpt><trkpt lat="40.2977209" lon="9.6353889"><ele>266.0</ele><time>2026-04-07T08:55:32.345Z</time></trkpt><trkpt lat="40.2977759" lon="9.635317"><ele>266.0</ele><time>2026-04-07T08:55:33.345Z</time></trkpt><trkpt lat="40.2978399" lon="9.6352409"><ele>266.0</ele><time>2026-04-07T08:55:34.344Z</time></trkpt><trkpt lat="40.297902" lon="9.6351689"><ele>262.0</ele><time>2026-04-07T08:55:35.344Z</time></trkpt><trkpt lat="40.297964" lon="9.6350993"><ele>258.0</ele><time>2026-04-07T08:55:36.344Z</time></trkpt><trkpt lat="40.2980285" lon="9.635025"><ele>254.0</ele><time>2026-04-07T08:55:37.344Z</time></trkpt><trkpt lat="40.2980956" lon="9.6349567"><ele>250.0</ele><time>2026-04-07T08:55:38.345Z</time></trkpt><trkpt lat="40.2981608" lon="9.6348785"><ele>246.00000000000003</ele><time>2026-04-07T08:55:39.345Z</time></trkpt><trkpt lat="40.2982265" lon="9.6348006"><ele>242.0</ele><time>2026-04-07T08:55:40.345Z</time></trkpt><trkpt lat="40.2982855" lon="9.6347223"><ele>246.42857142857142</ele><time>2026-04-07T08:55:41.345Z</time></trkpt><trkpt lat="40.2983308" lon="9.6346455"><ele>250.85714285714283</ele><time>2026-04-07T08:55:42.345Z</time></trkpt><trkpt lat="40.298374" lon="9.6345687"><ele>255.28571428571428</ele><time>2026-04-07T08:55:43.345Z</time></trkpt><trkpt lat="40.2984079" lon="9.634495"><ele>259.7142857142857</ele><time>2026-04-07T08:55:44.345Z</time></trkpt><trkpt lat="40.2984417" lon="9.634421"><ele>264.1428571428571</ele><time>2026-04-07T08:55:45.345Z</time></trkpt><trkpt lat="40.2984781" lon="9.6343529"><ele>268.57142857142856</ele><time>2026-04-07T08:55:46.345Z</time></trkpt><trkpt lat="40.298519" lon="9.634282"><ele>273.0</ele><time>2026-04-07T08:55:47.345Z</time></trkpt><trkpt lat="40.2985598" lon="9.6342068"><ele>273.0</ele><time>2026-04-07T08:55:48.345Z</time></trkpt><trkpt lat="40.2986045" lon="9.6341298"><ele>273.0</ele><time>2026-04-07T08:55:49.345Z</time></trkpt><trkpt lat="40.2986527" lon="9.6340511"><ele>273.0</ele><time>2026-04-07T08:55:50.344Z</time></trkpt><trkpt lat="40.2987047" lon="9.6339712"><ele>273.0</ele><time>2026-04-07T08:55:51.345Z</time></trkpt><trkpt lat="40.2987592" lon="9.6338917"><ele>273.0</ele><time>2026-04-07T08:55:52.345Z</time></trkpt><trkpt lat="40.2988117" lon="9.6338105"><ele>273.0</ele><time>2026-04-07T08:55:53.344Z</time></trkpt><trkpt lat="40.2988528" lon="9.6337309"><ele>274.1666666666667</ele><time>2026-04-07T08:55:54.345Z</time></trkpt><trkpt lat="40.298887" lon="9.6336332"><ele>275.3333333333333</ele><time>2026-04-07T08:55:56.345Z</time></trkpt><trkpt lat="40.29892" lon="9.6335546"><ele>276.5</ele><time>2026-04-07T08:56:00.344Z</time></trkpt><trkpt lat="40.2989379" lon="9.6334104"><ele>277.66666666666663</ele><time>2026-04-07T09:03:34.345Z</time></trkpt><trkpt lat="40.2989744" lon="9.6333374"><ele>278.8333333333333</ele><time>2026-04-07T09:03:35.344Z</time></trkpt><trkpt lat="40.2990262" lon="9.6332721"><ele>280.0</ele><time>2026-04-07T09:03:36.345Z</time></trkpt><trkpt lat="40.2991236" lon="9.633183"><ele>286.5</ele><time>2026-04-07T09:03:38.344Z</time></trkpt><trkpt lat="40.2992072" lon="9.6330829"><ele>293.0</ele><time>2026-04-07T09:03:40.345Z</time></trkpt><trkpt lat="40.2992843" lon="9.6329826"><ele>299.5</ele><time>2026-04-07T09:03:42.345Z</time></trkpt><trkpt lat="40.2993636" lon="9.6328678"><ele>306.0</ele><time>2026-04-07T09:03:44.344Z</time></trkpt><trkpt lat="40.2994383" lon="9.6327507"><ele>307.75</ele><time>2026-04-07T09:03:46.344Z</time></trkpt><trkpt lat="40.299505" lon="9.6326158"><ele>309.5</ele><time>2026-04-07T09:03:48.344Z</time></trkpt><trkpt lat="40.2995654" lon="9.6324756"><ele>311.25</ele><time>2026-04-07T09:03:50.345Z</time></trkpt><trkpt lat="40.2996248" lon="9.6323335"><ele>313.0</ele><time>2026-04-07T09:03:52.345Z</time></trkpt><trkpt lat="40.2996834" lon="9.6322083"><ele>313.0</ele><time>2026-04-07T09:03:54.345Z</time></trkpt><trkpt lat="40.2997674" lon="9.6322141"><ele>313.0</ele><time>2026-04-07T09:03:56.345Z</time></trkpt><trkpt lat="40.2997837" lon="9.6323255"><ele>313.0</ele><time>2026-04-07T09:03:58.345Z</time></trkpt><trkpt lat="40.2997508" lon="9.6324752"><ele>313.0</ele><time>2026-04-07T09:04:00.344Z</time></trkpt><trkpt lat="40.2997074" lon="9.6326161"><ele>313.0</ele><time>2026-04-07T09:04:02.344Z</time></trkpt><trkpt lat="40.299653" lon="9.6327364"><ele>312.66666666666663</ele><time>2026-04-07T09:04:04.345Z</time></trkpt><trkpt lat="40.2996091" lon="9.6328174"><ele>312.3333333333333</ele><time>2026-04-07T09:04:06.345Z</time></trkpt><trkpt lat="40.2996232" lon="9.6329252"><ele>312.0</ele><time>2026-04-07T09:04:09.345Z</time></trkpt><trkpt lat="40.299701" lon="9.6328763"><ele>311.6666666666667</ele><time>2026-04-07T09:04:12.345Z</time></trkpt><trkpt lat="40.2997547" lon="9.6328133"><ele>311.33333333333337</ele><time>2026-04-07T09:04:14.345Z</time></trkpt><trkpt lat="40.2998201" lon="9.6327825"><ele>311.0</ele><time>2026-04-07T09:04:16.345Z</time></trkpt><trkpt lat="40.299883" lon="9.6328206"><ele>311.0</ele><time>2026-04-07T09:04:18.345Z</time></trkpt><trkpt lat="40.2999105" lon="9.632918"><ele>311.0</ele><time>2026-04-07T09:04:20.344Z</time></trkpt><trkpt lat="40.2999091" lon="9.6330311"><ele>311.0</ele><time>2026-04-07T09:04:22.344Z</time></trkpt><trkpt lat="40.2998811" lon="9.6331421"><ele>311.0</ele><time>2026-04-07T09:04:24.344Z</time></trkpt><trkpt lat="40.2998575" lon="9.6332513"><ele>311.0</ele><time>2026-04-07T09:04:26.345Z</time></trkpt><trkpt lat="40.2998361" lon="9.6333817"><ele>311.0</ele><time>2026-04-07T09:04:28.345Z</time></trkpt><trkpt lat="40.2998349" lon="9.6335385"><ele>312.6</ele><time>2026-04-07T09:04:30.345Z</time></trkpt><trkpt lat="40.2998288" lon="9.6336921"><ele>314.20000000000005</ele><time>2026-04-07T09:04:32.344Z</time></trkpt><trkpt lat="40.2998071" lon="9.6338386"><ele>315.79999999999995</ele><time>2026-04-07T09:04:34.344Z</time></trkpt><trkpt lat="40.299791" lon="9.6339512"><ele>317.4</ele><time>2026-04-07T09:04:36.344Z</time></trkpt><trkpt lat="40.2998377" lon="9.634029"><ele>319.0</ele><time>2026-04-07T09:04:38.344Z</time></trkpt><trkpt lat="40.2998992" lon="9.6339433"><ele>319.0</ele><time>2026-04-07T09:04:41.344Z</time></trkpt><trkpt lat="40.2999097" lon="9.6338235"><ele>319.0</ele><time>2026-04-07T09:04:43.344Z</time></trkpt><trkpt lat="40.299926" lon="9.6337002"><ele>319.0</ele><time>2026-04-07T09:04:45.344Z</time></trkpt><trkpt lat="40.2999493" lon="9.6335755"><ele>319.0</ele><time>2026-04-07T09:04:47.344Z</time></trkpt><trkpt lat="40.2999799" lon="9.6334503"><ele>319.0</ele><time>2026-04-07T09:04:49.345Z</time></trkpt><trkpt lat="40.3000185" lon="9.6333214"><ele>319.6</ele><time>2026-04-07T09:04:51.345Z</time></trkpt><trkpt lat="40.3000491" lon="9.6331907"><ele>320.2</ele><time>2026-04-07T09:04:53.345Z</time></trkpt><trkpt lat="40.3000992" lon="9.6330624"><ele>320.8</ele><time>2026-04-07T09:04:55.345Z</time></trkpt><trkpt lat="40.3001573" lon="9.6329311"><ele>321.40000000000003</ele><time>2026-04-07T09:04:57.345Z</time></trkpt><trkpt lat="40.3002179" lon="9.6328058"><ele>322.0</ele><time>2026-04-07T09:04:59.345Z</time></trkpt><trkpt lat="40.3002899" lon="9.6326883"><ele>322.0</ele><time>2026-04-07T09:05:01.345Z</time></trkpt><trkpt lat="40.3003686" lon="9.6325737"><ele>322.0</ele><time>2026-04-07T09:05:03.344Z</time></trkpt><trkpt lat="40.3004662" lon="9.6324455"><ele>322.0</ele><time>2026-04-07T09:05:05.345Z</time></trkpt><trkpt lat="40.3005257" lon="9.6323756"><ele>322.0</ele><time>2026-04-07T09:05:06.345Z</time></trkpt><trkpt lat="40.3005927" lon="9.6322992"><ele>322.0</ele><time>2026-04-07T09:05:07.345Z</time></trkpt><trkpt lat="40.3006546" lon="9.6322235"><ele>319.0</ele><time>2026-04-07T09:05:08.345Z</time></trkpt><trkpt lat="40.3007124" lon="9.6321495"><ele>316.0</ele><time>2026-04-07T09:05:09.345Z</time></trkpt><trkpt lat="40.300768" lon="9.6320711"><ele>313.0</ele><time>2026-04-07T09:05:10.345Z</time></trkpt><trkpt lat="40.3008237" lon="9.6319991"><ele>310.0</ele><time>2026-04-07T09:05:11.345Z</time></trkpt><trkpt lat="40.3008775" lon="9.6319293"><ele>307.0</ele><time>2026-04-07T09:05:12.344Z</time></trkpt><trkpt lat="40.3009331" lon="9.631858"><ele>304.0</ele><time>2026-04-07T09:05:13.345Z</time></trkpt><trkpt lat="40.3009836" lon="9.6317861"><ele>304.0</ele><time>2026-04-07T09:05:14.345Z</time></trkpt><trkpt lat="40.3010326" lon="9.6317208"><ele>304.0</ele><time>2026-04-07T09:05:15.345Z</time></trkpt><trkpt lat="40.3010821" lon="9.6316529"><ele>304.0</ele><time>2026-04-07T09:05:16.344Z</time></trkpt><trkpt lat="40.3011257" lon="9.6315801"><ele>304.0</ele><time>2026-04-07T09:05:17.344Z</time></trkpt><trkpt lat="40.3011699" lon="9.6315027"><ele>304.0</ele><time>2026-04-07T09:05:18.345Z</time></trkpt><trkpt lat="40.3012121" lon="9.6314342"><ele>304.0</ele><time>2026-04-07T09:05:19.344Z</time></trkpt><trkpt lat="40.3012502" lon="9.6313626"><ele>304.0</ele><time>2026-04-07T09:05:20.345Z</time></trkpt><trkpt lat="40.3012881" lon="9.6312883"><ele>304.0</ele><time>2026-04-07T09:05:21.345Z</time></trkpt><trkpt lat="40.3013213" lon="9.6312178"><ele>304.0</ele><time>2026-04-07T09:05:22.345Z</time></trkpt><trkpt lat="40.3013549" lon="9.6311458"><ele>304.0</ele><time>2026-04-07T09:05:23.345Z</time></trkpt><trkpt lat="40.3013851" lon="9.6310704"><ele>304.0</ele><time>2026-04-07T09:05:24.345Z</time></trkpt><trkpt lat="40.3014133" lon="9.6309947"><ele>304.0</ele><time>2026-04-07T09:05:25.345Z</time></trkpt><trkpt lat="40.3014688" lon="9.6308494"><ele>304.0</ele><time>2026-04-07T09:05:27.345Z</time></trkpt><trkpt lat="40.3015005" lon="9.6307746"><ele>304.0</ele><time>2026-04-07T09:05:28.345Z</time></trkpt><trkpt lat="40.301528" lon="9.6306981"><ele>299.16666666666663</ele><time>2026-04-07T09:05:29.345Z</time></trkpt><trkpt lat="40.3015558" lon="9.6306232"><ele>294.3333333333333</ele><time>2026-04-07T09:05:30.345Z</time></trkpt><trkpt lat="40.3015854" lon="9.6305429"><ele>289.5</ele><time>2026-04-07T09:05:31.344Z</time></trkpt><trkpt lat="40.3016412" lon="9.6303933"><ele>284.6666666666667</ele><time>2026-04-07T09:05:33.345Z</time></trkpt><trkpt lat="40.3016745" lon="9.6303209"><ele>279.83333333333337</ele><time>2026-04-07T09:05:34.344Z</time></trkpt><trkpt lat="40.3017142" lon="9.63025"><ele>275.0</ele><time>2026-04-07T09:05:35.345Z</time></trkpt><trkpt lat="40.3017578" lon="9.6301806"><ele>275.0</ele><time>2026-04-07T09:05:36.344Z</time></trkpt><trkpt lat="40.3018039" lon="9.630117"><ele>275.0</ele><time>2026-04-07T09:05:37.345Z</time></trkpt><trkpt lat="40.3018469" lon="9.6300529"><ele>275.0</ele><time>2026-04-07T09:05:38.344Z</time></trkpt><trkpt lat="40.3018888" lon="9.6299895"><ele>275.0</ele><time>2026-04-07T09:05:39.345Z</time></trkpt><trkpt lat="40.3019303" lon="9.62992"><ele>275.0</ele><time>2026-04-07T09:05:40.345Z</time></trkpt><trkpt lat="40.3019657" lon="9.6298516"><ele>275.0</ele><time>2026-04-07T09:05:41.344Z</time></trkpt><trkpt lat="40.3020033" lon="9.6297825"><ele>275.0</ele><time>2026-04-07T09:05:42.344Z</time></trkpt><trkpt lat="40.3020325" lon="9.6297072"><ele>275.0</ele><time>2026-04-07T09:05:43.345Z</time></trkpt><trkpt lat="40.3020679" lon="9.6296343"><ele>275.0</ele><time>2026-04-07T09:05:44.344Z</time></trkpt><trkpt lat="40.3021018" lon="9.6295629"><ele>275.0</ele><time>2026-04-07T09:05:45.344Z</time></trkpt><trkpt lat="40.3021414" lon="9.6294849"><ele>275.0</ele><time>2026-04-07T09:05:46.344Z</time></trkpt><trkpt lat="40.3021769" lon="9.6294028"><ele>275.0</ele><time>2026-04-07T09:05:47.345Z</time></trkpt><trkpt lat="40.3022134" lon="9.6293196"><ele>275.0</ele><time>2026-04-07T09:05:48.344Z</time></trkpt><trkpt lat="40.302254" lon="9.6292309"><ele>275.0</ele><time>2026-04-07T09:05:49.344Z</time></trkpt><trkpt lat="40.3022934" lon="9.6291447"><ele>269.4</ele><time>2026-04-07T09:05:50.345Z</time></trkpt><trkpt lat="40.3023677" lon="9.6290021"><ele>263.8</ele><time>2026-04-07T09:05:52.345Z</time></trkpt><trkpt lat="40.3023905" lon="9.6289148"><ele>258.2</ele><time>2026-04-07T09:05:53.344Z</time></trkpt><trkpt lat="40.3024132" lon="9.6287574"><ele>252.6</ele><time>2026-04-07T09:05:55.345Z</time></trkpt><trkpt lat="40.3024269" lon="9.628675"><ele>247.0</ele><time>2026-04-07T09:05:56.345Z</time></trkpt><trkpt lat="40.3024186" lon="9.6285929"><ele>246.99999999999997</ele><time>2026-04-07T09:05:57.344Z</time></trkpt><trkpt lat="40.3024274" lon="9.628507"><ele>247.0</ele><time>2026-04-07T09:05:58.344Z</time></trkpt><trkpt lat="40.3024411" lon="9.6284251"><ele>247.0</ele><time>2026-04-07T09:05:59.344Z</time></trkpt><trkpt lat="40.3024483" lon="9.6283425"><ele>247.0</ele><time>2026-04-07T09:06:00.345Z</time></trkpt><trkpt lat="40.3024657" lon="9.6281888"><ele>246.99999999999997</ele><time>2026-04-07T09:06:02.345Z</time></trkpt><trkpt lat="40.3024673" lon="9.6280522"><ele>247.0</ele><time>2026-04-07T09:06:04.345Z</time></trkpt><trkpt lat="40.3024455" lon="9.6279369"><ele>246.99999999999997</ele><time>2026-04-07T09:06:06.344Z</time></trkpt><trkpt lat="40.3024506" lon="9.6278339"><ele>247.0</ele><time>2026-04-07T09:06:08.345Z</time></trkpt><trkpt lat="40.302534" lon="9.6278194"><ele>247.0</ele><time>2026-04-07T09:06:11.344Z</time></trkpt><trkpt lat="40.3025651" lon="9.6279003"><ele>247.0</ele><time>2026-04-07T09:06:13.344Z</time></trkpt><trkpt lat="40.3025874" lon="9.6280179"><ele>246.99999999999997</ele><time>2026-04-07T09:06:15.344Z</time></trkpt><trkpt lat="40.3026244" lon="9.6281445"><ele>247.0</ele><time>2026-04-07T09:06:17.345Z</time></trkpt><trkpt lat="40.3026524" lon="9.6282868"><ele>246.99999999999997</ele><time>2026-04-07T09:06:19.344Z</time></trkpt><trkpt lat="40.302673" lon="9.628451"><ele>247.0</ele><time>2026-04-07T09:06:21.345Z</time></trkpt><trkpt lat="40.3026825" lon="9.6285349"><ele>247.0</ele><time>2026-04-07T09:06:22.345Z</time></trkpt><trkpt lat="40.3026924" lon="9.6286213"><ele>247.0</ele><time>2026-04-07T09:06:23.344Z</time></trkpt><trkpt lat="40.3027082" lon="9.628786"><ele>246.99999999999997</ele><time>2026-04-07T09:06:25.344Z</time></trkpt><trkpt lat="40.3027115" lon="9.6288693"><ele>247.0</ele><time>2026-04-07T09:06:26.344Z</time></trkpt><trkpt lat="40.302713" lon="9.6289553"><ele>246.57142857142858</ele><time>2026-04-07T09:06:27.345Z</time></trkpt><trkpt lat="40.3027134" lon="9.6290415"><ele>246.1428571428571</ele><time>2026-04-07T09:06:28.345Z</time></trkpt><trkpt lat="40.3027163" lon="9.6291252"><ele>245.7142857142857</ele><time>2026-04-07T09:06:29.344Z</time></trkpt><trkpt lat="40.3027113" lon="9.6292088"><ele>245.28571428571428</ele><time>2026-04-07T09:06:30.344Z</time></trkpt><trkpt lat="40.3027049" lon="9.6292962"><ele>244.85714285714283</ele><time>2026-04-07T09:06:31.344Z</time></trkpt><trkpt lat="40.3026976" lon="9.629385"><ele>244.4285714285714</ele><time>2026-04-07T09:06:32.344Z</time></trkpt><trkpt lat="40.3026858" lon="9.6294747"><ele>243.99999999999997</ele><time>2026-04-07T09:06:33.345Z</time></trkpt><trkpt lat="40.3026776" lon="9.6295674"><ele>243.57142857142856</ele><time>2026-04-07T09:06:34.345Z</time></trkpt><trkpt lat="40.3026694" lon="9.6296598"><ele>243.14285714285714</ele><time>2026-04-07T09:06:35.345Z</time></trkpt><trkpt lat="40.3026677" lon="9.6297549"><ele>242.71428571428572</ele><time>2026-04-07T09:06:36.345Z</time></trkpt><trkpt lat="40.3026631" lon="9.6298512"><ele>242.28571428571428</ele><time>2026-04-07T09:06:37.345Z</time></trkpt><trkpt lat="40.3026628" lon="9.6299516"><ele>241.8571428571429</ele><time>2026-04-07T09:06:38.344Z</time></trkpt><trkpt lat="40.3026525" lon="9.630045"><ele>241.42857142857144</ele><time>2026-04-07T09:06:39.344Z</time></trkpt><trkpt lat="40.3026412" lon="9.6301274"><ele>241.0</ele><time>2026-04-07T09:06:40.345Z</time></trkpt><trkpt lat="40.3026287" lon="9.6302148"><ele>240.85714285714286</ele><time>2026-04-07T09:06:41.345Z</time></trkpt><trkpt lat="40.3026134" lon="9.6303093"><ele>240.71428571428572</ele><time>2026-04-07T09:06:42.344Z</time></trkpt><trkpt lat="40.3026009" lon="9.6303991"><ele>240.57142857142858</ele><time>2026-04-07T09:06:43.344Z</time></trkpt><trkpt lat="40.3025907" lon="9.6304943"><ele>240.42857142857144</ele><time>2026-04-07T09:06:44.344Z</time></trkpt><trkpt lat="40.302576" lon="9.630585"><ele>240.28571428571428</ele><time>2026-04-07T09:06:45.345Z</time></trkpt><trkpt lat="40.3025602" lon="9.6306786"><ele>240.14285714285717</ele><time>2026-04-07T09:06:46.344Z</time></trkpt><trkpt lat="40.302544" lon="9.6307766"><ele>240.0</ele><time>2026-04-07T09:06:47.344Z</time></trkpt><trkpt lat="40.3025295" lon="9.6308726"><ele>240.0</ele><time>2026-04-07T09:06:48.345Z</time></trkpt><trkpt lat="40.3025156" lon="9.6309692"><ele>240.0</ele><time>2026-04-07T09:06:49.344Z</time></trkpt><trkpt lat="40.3025089" lon="9.6310698"><ele>240.0</ele><time>2026-04-07T09:06:50.345Z</time></trkpt><trkpt lat="40.3025042" lon="9.6311678"><ele>240.0</ele><time>2026-04-07T09:06:51.345Z</time></trkpt><trkpt lat="40.3025022" lon="9.631267"><ele>240.0</ele><time>2026-04-07T09:06:52.344Z</time></trkpt><trkpt lat="40.3025045" lon="9.6313681"><ele>240.0</ele><time>2026-04-07T09:06:53.344Z</time></trkpt><trkpt lat="40.3025076" lon="9.6314649"><ele>239.4</ele><time>2026-04-07T09:06:54.345Z</time></trkpt><trkpt lat="40.3025163" lon="9.6315594"><ele>238.8</ele><time>2026-04-07T09:06:55.345Z</time></trkpt><trkpt lat="40.3025331" lon="9.6317141"><ele>238.2</ele><time>2026-04-07T09:06:57.344Z</time></trkpt><trkpt lat="40.3026047" lon="9.6318243"><ele>237.6</ele><time>2026-04-07T09:06:59.345Z</time></trkpt><trkpt lat="40.3027258" lon="9.631861"><ele>237.0</ele><time>2026-04-07T09:07:01.345Z</time></trkpt><trkpt lat="40.3028032" lon="9.6318477"><ele>237.0</ele><time>2026-04-07T09:07:02.345Z</time></trkpt><trkpt lat="40.3028842" lon="9.6318241"><ele>237.0</ele><time>2026-04-07T09:07:03.345Z</time></trkpt><trkpt lat="40.3029665" lon="9.6317907"><ele>237.0</ele><time>2026-04-07T09:07:04.345Z</time></trkpt><trkpt lat="40.3030529" lon="9.6317558"><ele>237.0</ele><time>2026-04-07T09:07:05.344Z</time></trkpt><trkpt lat="40.303144" lon="9.6317158"><ele>237.0</ele><time>2026-04-07T09:07:06.345Z</time></trkpt><trkpt lat="40.3032323" lon="9.6316707"><ele>234.8</ele><time>2026-04-07T09:07:07.345Z</time></trkpt><trkpt lat="40.3033229" lon="9.6316271"><ele>232.6</ele><time>2026-04-07T09:07:08.345Z</time></trkpt><trkpt lat="40.3034119" lon="9.6315815"><ele>230.40000000000003</ele><time>2026-04-07T09:07:09.345Z</time></trkpt><trkpt lat="40.3034987" lon="9.6315375"><ele>228.20000000000002</ele><time>2026-04-07T09:07:10.344Z</time></trkpt><trkpt lat="40.3035799" lon="9.6314967"><ele>226.0</ele><time>2026-04-07T09:07:11.344Z</time></trkpt><trkpt lat="40.3036644" lon="9.6314616"><ele>225.99999999999997</ele><time>2026-04-07T09:07:12.344Z</time></trkpt><trkpt lat="40.3037471" lon="9.6314417"><ele>226.0</ele><time>2026-04-07T09:07:13.345Z</time></trkpt><trkpt lat="40.3038308" lon="9.6314261"><ele>226.0</ele><time>2026-04-07T09:07:14.345Z</time></trkpt><trkpt lat="40.3039181" lon="9.6314208"><ele>226.0</ele><time>2026-04-07T09:07:15.345Z</time></trkpt><trkpt lat="40.3040074" lon="9.6314181"><ele>225.99999999999997</ele><time>2026-04-07T09:07:16.344Z</time></trkpt><trkpt lat="40.3040993" lon="9.6314093"><ele>226.0</ele><time>2026-04-07T09:07:17.344Z</time></trkpt><trkpt lat="40.3041831" lon="9.6313869"><ele>225.60000000000002</ele><time>2026-04-07T09:07:18.345Z</time></trkpt><trkpt lat="40.30427" lon="9.6313563"><ele>225.20000000000002</ele><time>2026-04-07T09:07:19.345Z</time></trkpt><trkpt lat="40.3043537" lon="9.6313106"><ele>224.79999999999998</ele><time>2026-04-07T09:07:20.345Z</time></trkpt><trkpt lat="40.3044382" lon="9.6312653"><ele>224.39999999999998</ele><time>2026-04-07T09:07:21.345Z</time></trkpt><trkpt lat="40.3045267" lon="9.6312262"><ele>224.0</ele><time>2026-04-07T09:07:22.345Z</time></trkpt><trkpt lat="40.3046189" lon="9.631187"><ele>221.6</ele><time>2026-04-07T09:07:23.345Z</time></trkpt><trkpt lat="40.3047083" lon="9.6311402"><ele>219.2</ele><time>2026-04-07T09:07:24.345Z</time></trkpt><trkpt lat="40.3047965" lon="9.6310934"><ele>216.79999999999998</ele><time>2026-04-07T09:07:25.345Z</time></trkpt><trkpt lat="40.3048801" lon="9.6310516"><ele>214.39999999999998</ele><time>2026-04-07T09:07:26.345Z</time></trkpt><trkpt lat="40.3049632" lon="9.6310043"><ele>212.0</ele><time>2026-04-07T09:07:27.345Z</time></trkpt><trkpt lat="40.3050453" lon="9.6309478"><ele>211.2</ele><time>2026-04-07T09:07:28.345Z</time></trkpt><trkpt lat="40.3051287" lon="9.6309019"><ele>210.39999999999998</ele><time>2026-04-07T09:07:29.344Z</time></trkpt><trkpt lat="40.3052129" lon="9.6308532"><ele>209.60000000000002</ele><time>2026-04-07T09:07:30.345Z</time></trkpt><trkpt lat="40.3052979" lon="9.6308034"><ele>208.8</ele><time>2026-04-07T09:07:31.345Z</time></trkpt><trkpt lat="40.3053771" lon="9.6307533"><ele>208.0</ele><time>2026-04-07T09:07:32.345Z</time></trkpt><trkpt lat="40.3054542" lon="9.6306968"><ele>207.99999999999997</ele><time>2026-04-07T09:07:33.345Z</time></trkpt><trkpt lat="40.3055363" lon="9.6306429"><ele>208.0</ele><time>2026-04-07T09:07:34.345Z</time></trkpt><trkpt lat="40.3056135" lon="9.630594"><ele>208.0</ele><time>2026-04-07T09:07:35.345Z</time></trkpt><trkpt lat="40.3056925" lon="9.6305441"><ele>208.0</ele><time>2026-04-07T09:07:36.345Z</time></trkpt><trkpt lat="40.3057746" lon="9.6304976"><ele>207.99999999999997</ele><time>2026-04-07T09:07:37.344Z</time></trkpt><trkpt lat="40.3058595" lon="9.6304511"><ele>208.0</ele><time>2026-04-07T09:07:38.345Z</time></trkpt><trkpt lat="40.3059427" lon="9.6304056"><ele>206.4</ele><time>2026-04-07T09:07:39.345Z</time></trkpt><trkpt lat="40.3060292" lon="9.630364"><ele>204.8</ele><time>2026-04-07T09:07:40.345Z</time></trkpt><trkpt lat="40.3061164" lon="9.630326"><ele>203.2</ele><time>2026-04-07T09:07:41.344Z</time></trkpt><trkpt lat="40.3062055" lon="9.6302926"><ele>201.6</ele><time>2026-04-07T09:07:42.344Z</time></trkpt><trkpt lat="40.306291" lon="9.630256"><ele>200.0</ele><time>2026-04-07T09:07:43.345Z</time></trkpt><trkpt lat="40.3063797" lon="9.6302216"><ele>197.33333333333334</ele><time>2026-04-07T09:07:44.345Z</time></trkpt><trkpt lat="40.3064692" lon="9.630187"><ele>194.66666666666669</ele><time>2026-04-07T09:07:45.345Z</time></trkpt><trkpt lat="40.3065554" lon="9.630151"><ele>192.0</ele><time>2026-04-07T09:07:46.345Z</time></trkpt><trkpt lat="40.3066436" lon="9.6301136"><ele>189.33333333333334</ele><time>2026-04-07T09:07:47.345Z</time></trkpt><trkpt lat="40.3067278" lon="9.6300819"><ele>186.66666666666669</ele><time>2026-04-07T09:07:48.344Z</time></trkpt><trkpt lat="40.306808" lon="9.6300511"><ele>184.0</ele><time>2026-04-07T09:07:49.345Z</time></trkpt><trkpt lat="40.3068869" lon="9.6300117"><ele>184.0</ele><time>2026-04-07T09:07:50.345Z</time></trkpt><trkpt lat="40.3069669" lon="9.6299747"><ele>184.0</ele><time>2026-04-07T09:07:51.345Z</time></trkpt><trkpt lat="40.3070441" lon="9.6299432"><ele>184.0</ele><time>2026-04-07T09:07:52.345Z</time></trkpt><trkpt lat="40.3071236" lon="9.6299145"><ele>184.0</ele><time>2026-04-07T09:07:53.345Z</time></trkpt><trkpt lat="40.3072034" lon="9.6298954"><ele>184.0</ele><time>2026-04-07T09:07:54.345Z</time></trkpt><trkpt lat="40.3072878" lon="9.6298997"><ele>184.0</ele><time>2026-04-07T09:07:55.344Z</time></trkpt><trkpt lat="40.3073644" lon="9.6299272"><ele>183.5</ele><time>2026-04-07T09:07:56.345Z</time></trkpt><trkpt lat="40.3074304" lon="9.6299779"><ele>183.0</ele><time>2026-04-07T09:07:57.345Z</time></trkpt><trkpt lat="40.3074887" lon="9.6300444"><ele>182.5</ele><time>2026-04-07T09:07:58.345Z</time></trkpt><trkpt lat="40.3075425" lon="9.6301233"><ele>182.0</ele><time>2026-04-07T09:07:59.344Z</time></trkpt><trkpt lat="40.3075872" lon="9.6302147"><ele>181.5</ele><time>2026-04-07T09:08:00.344Z</time></trkpt><trkpt lat="40.3076375" lon="9.6303048"><ele>181.0</ele><time>2026-04-07T09:08:01.345Z</time></trkpt><trkpt lat="40.3076911" lon="9.6303898"><ele>181.0</ele><time>2026-04-07T09:08:02.345Z</time></trkpt><trkpt lat="40.3077583" lon="9.6304635"><ele>181.0</ele><time>2026-04-07T09:08:03.345Z</time></trkpt><trkpt lat="40.3078262" lon="9.6305325"><ele>181.0</ele><time>2026-04-07T09:08:04.345Z</time></trkpt><trkpt lat="40.3078911" lon="9.6305946"><ele>181.0</ele><time>2026-04-07T09:08:05.345Z</time></trkpt><trkpt lat="40.3079704" lon="9.6306476"><ele>181.0</ele><time>2026-04-07T09:08:06.345Z</time></trkpt><trkpt lat="40.308056" lon="9.6306891"><ele>181.0</ele><time>2026-04-07T09:08:07.345Z</time></trkpt><trkpt lat="40.308142" lon="9.6307282"><ele>179.20000000000002</ele><time>2026-04-07T09:08:08.344Z</time></trkpt><trkpt lat="40.3082292" lon="9.6307666"><ele>177.4</ele><time>2026-04-07T09:08:09.345Z</time></trkpt><trkpt lat="40.3083181" lon="9.6308009"><ele>175.6</ele><time>2026-04-07T09:08:10.344Z</time></trkpt><trkpt lat="40.3084076" lon="9.6308317"><ele>173.8</ele><time>2026-04-07T09:08:11.345Z</time></trkpt><trkpt lat="40.3084983" lon="9.630857"><ele>172.0</ele><time>2026-04-07T09:08:12.345Z</time></trkpt><trkpt lat="40.3085846" lon="9.6308841"><ele>172.0</ele><time>2026-04-07T09:08:13.344Z</time></trkpt><trkpt lat="40.3086746" lon="9.6309153"><ele>172.0</ele><time>2026-04-07T09:08:14.345Z</time></trkpt><trkpt lat="40.3087645" lon="9.6309411"><ele>172.0</ele><time>2026-04-07T09:08:15.345Z</time></trkpt><trkpt lat="40.3088541" lon="9.6309721"><ele>172.0</ele><time>2026-04-07T09:08:16.345Z</time></trkpt><trkpt lat="40.3089422" lon="9.6310061"><ele>172.0</ele><time>2026-04-07T09:08:17.345Z</time></trkpt><trkpt lat="40.3090337" lon="9.6310363"><ele>173.33333333333334</ele><time>2026-04-07T09:08:18.344Z</time></trkpt><trkpt lat="40.3091251" lon="9.6310669"><ele>174.66666666666669</ele><time>2026-04-07T09:08:19.345Z</time></trkpt><trkpt lat="40.3092089" lon="9.631097"><ele>176.0</ele><time>2026-04-07T09:08:20.345Z</time></trkpt><trkpt lat="40.3092933" lon="9.6311309"><ele>177.33333333333334</ele><time>2026-04-07T09:08:21.344Z</time></trkpt><trkpt lat="40.3093796" lon="9.631165"><ele>178.66666666666666</ele><time>2026-04-07T09:08:22.345Z</time></trkpt><trkpt lat="40.3094643" lon="9.6311939"><ele>180.0</ele><time>2026-04-07T09:08:23.345Z</time></trkpt><trkpt lat="40.3095517" lon="9.6312222"><ele>180.0</ele><time>2026-04-07T09:08:24.345Z</time></trkpt><trkpt lat="40.3096372" lon="9.6312407"><ele>180.0</ele><time>2026-04-07T09:08:25.344Z</time></trkpt><trkpt lat="40.3097276" lon="9.6312582"><ele>180.0</ele><time>2026-04-07T09:08:26.344Z</time></trkpt><trkpt lat="40.309815" lon="9.6312867"><ele>180.0</ele><time>2026-04-07T09:08:27.345Z</time></trkpt><trkpt lat="40.3099065" lon="9.6313053"><ele>180.0</ele><time>2026-04-07T09:08:28.345Z</time></trkpt><trkpt lat="40.3099968" lon="9.6313203"><ele>178.16666666666666</ele><time>2026-04-07T09:08:29.345Z</time></trkpt><trkpt lat="40.3100833" lon="9.6313463"><ele>176.33333333333334</ele><time>2026-04-07T09:08:30.345Z</time></trkpt><trkpt lat="40.3101718" lon="9.6313711"><ele>174.5</ele><time>2026-04-07T09:08:31.345Z</time></trkpt><trkpt lat="40.3102583" lon="9.6314133"><ele>172.66666666666669</ele><time>2026-04-07T09:08:32.345Z</time></trkpt><trkpt lat="40.3103415" lon="9.631453"><ele>170.83333333333334</ele><time>2026-04-07T09:08:33.345Z</time></trkpt><trkpt lat="40.3104215" lon="9.6315054"><ele>169.0</ele><time>2026-04-07T09:08:34.345Z</time></trkpt><trkpt lat="40.310496" lon="9.6315532"><ele>166.5</ele><time>2026-04-07T09:08:35.345Z</time></trkpt><trkpt lat="40.310575" lon="9.6316023"><ele>164.0</ele><time>2026-04-07T09:08:36.345Z</time></trkpt><trkpt lat="40.3106538" lon="9.6316493"><ele>161.5</ele><time>2026-04-07T09:08:37.344Z</time></trkpt><trkpt lat="40.3107315" lon="9.6316877"><ele>159.0</ele><time>2026-04-07T09:08:38.345Z</time></trkpt><trkpt lat="40.3108146" lon="9.6317265"><ele>156.5</ele><time>2026-04-07T09:08:39.345Z</time></trkpt><trkpt lat="40.3108982" lon="9.6317635"><ele>154.0</ele><time>2026-04-07T09:08:40.344Z</time></trkpt><trkpt lat="40.3109871" lon="9.6317918"><ele>154.0</ele><time>2026-04-07T09:08:41.345Z</time></trkpt><trkpt lat="40.3110835" lon="9.6318041"><ele>154.0</ele><time>2026-04-07T09:08:42.345Z</time></trkpt><trkpt lat="40.3111792" lon="9.6317964"><ele>154.0</ele><time>2026-04-07T09:08:43.344Z</time></trkpt><trkpt lat="40.3112736" lon="9.6317811"><ele>154.0</ele><time>2026-04-07T09:08:44.345Z</time></trkpt><trkpt lat="40.3113697" lon="9.6317557"><ele>154.0</ele><time>2026-04-07T09:08:45.345Z</time></trkpt><trkpt lat="40.3114729" lon="9.6317334"><ele>152.6</ele><time>2026-04-07T09:08:46.344Z</time></trkpt><trkpt lat="40.3115779" lon="9.6317213"><ele>151.2</ele><time>2026-04-07T09:08:47.345Z</time></trkpt><trkpt lat="40.3116769" lon="9.6317182"><ele>149.79999999999998</ele><time>2026-04-07T09:08:48.344Z</time></trkpt><trkpt lat="40.3117708" lon="9.6317293"><ele>148.4</ele><time>2026-04-07T09:08:49.345Z</time></trkpt><trkpt lat="40.3118671" lon="9.6317345"><ele>147.0</ele><time>2026-04-07T09:08:50.345Z</time></trkpt><trkpt lat="40.3119631" lon="9.63172"><ele>147.0</ele><time>2026-04-07T09:08:51.344Z</time></trkpt><trkpt lat="40.3120522" lon="9.6316792"><ele>147.0</ele><time>2026-04-07T09:08:52.345Z</time></trkpt><trkpt lat="40.3121377" lon="9.6316234"><ele>147.0</ele><time>2026-04-07T09:08:53.344Z</time></trkpt><trkpt lat="40.3122225" lon="9.631564"><ele>147.0</ele><time>2026-04-07T09:08:54.344Z</time></trkpt><trkpt lat="40.3123204" lon="9.6315013"><ele>147.0</ele><time>2026-04-07T09:08:55.345Z</time></trkpt><trkpt lat="40.3124191" lon="9.6314311"><ele>145.25</ele><time>2026-04-07T09:08:56.345Z</time></trkpt><trkpt lat="40.3125207" lon="9.6313599"><ele>143.5</ele><time>2026-04-07T09:08:57.344Z</time></trkpt><trkpt lat="40.3126174" lon="9.6312755"><ele>141.75</ele><time>2026-04-07T09:08:58.345Z</time></trkpt><trkpt lat="40.3127073" lon="9.6311694"><ele>140.0</ele><time>2026-04-07T09:08:59.345Z</time></trkpt><trkpt lat="40.312784" lon="9.6310595"><ele>140.0</ele><time>2026-04-07T09:09:00.345Z</time></trkpt><trkpt lat="40.3128634" lon="9.6309571"><ele>140.0</ele><time>2026-04-07T09:09:01.344Z</time></trkpt><trkpt lat="40.3129388" lon="9.6308609"><ele>140.0</ele><time>2026-04-07T09:09:02.345Z</time></trkpt><trkpt lat="40.3130089" lon="9.6307695"><ele>140.0</ele><time>2026-04-07T09:09:03.345Z</time></trkpt><trkpt lat="40.3130784" lon="9.6306959"><ele>140.0</ele><time>2026-04-07T09:09:04.344Z</time></trkpt><trkpt lat="40.313152" lon="9.6306258"><ele>139.8</ele><time>2026-04-07T09:09:05.345Z</time></trkpt><trkpt lat="40.3132387" lon="9.6305688"><ele>139.6</ele><time>2026-04-07T09:09:06.345Z</time></trkpt><trkpt lat="40.3133328" lon="9.6305278"><ele>139.4</ele><time>2026-04-07T09:09:07.345Z</time></trkpt><trkpt lat="40.3134327" lon="9.6305048"><ele>139.2</ele><time>2026-04-07T09:09:08.344Z</time></trkpt><trkpt lat="40.3135217" lon="9.6305012"><ele>139.0</ele><time>2026-04-07T09:09:09.345Z</time></trkpt><trkpt lat="40.3136041" lon="9.6305141"><ele>139.0</ele><time>2026-04-07T09:09:10.345Z</time></trkpt><trkpt lat="40.3136792" lon="9.6305633"><ele>139.0</ele><time>2026-04-07T09:09:11.345Z</time></trkpt><trkpt lat="40.3137488" lon="9.6306306"><ele>139.0</ele><time>2026-04-07T09:09:12.345Z</time></trkpt><trkpt lat="40.3138156" lon="9.6306958"><ele>139.0</ele><time>2026-04-07T09:09:13.345Z</time></trkpt><trkpt lat="40.3138735" lon="9.6307484"><ele>139.0</ele><time>2026-04-07T09:09:14.344Z</time></trkpt><trkpt lat="40.3139411" lon="9.6307973"><ele>139.0</ele><time>2026-04-07T09:09:15.345Z</time></trkpt><trkpt lat="40.314016" lon="9.6308225"><ele>140.66666666666669</ele><time>2026-04-07T09:09:16.345Z</time></trkpt><trkpt lat="40.3140923" lon="9.6308268"><ele>142.33333333333334</ele><time>2026-04-07T09:09:17.345Z</time></trkpt><trkpt lat="40.3141689" lon="9.6308088"><ele>144.0</ele><time>2026-04-07T09:09:18.345Z</time></trkpt><trkpt lat="40.3142466" lon="9.6307812"><ele>145.66666666666666</ele><time>2026-04-07T09:09:19.345Z</time></trkpt><trkpt lat="40.3143207" lon="9.6307603"><ele>147.33333333333331</ele><time>2026-04-07T09:09:20.344Z</time></trkpt><trkpt lat="40.3144066" lon="9.6307608"><ele>149.0</ele><time>2026-04-07T09:09:21.344Z</time></trkpt><trkpt lat="40.3144895" lon="9.6307866"><ele>149.0</ele><time>2026-04-07T09:09:22.345Z</time></trkpt><trkpt lat="40.3145671" lon="9.6308326"><ele>149.0</ele><time>2026-04-07T09:09:23.345Z</time></trkpt><trkpt lat="40.3146395" lon="9.6308881"><ele>149.0</ele><time>2026-04-07T09:09:24.345Z</time></trkpt><trkpt lat="40.3147072" lon="9.6309532"><ele>149.0</ele><time>2026-04-07T09:09:25.345Z</time></trkpt><trkpt lat="40.3147661" lon="9.6310295"><ele>149.0</ele><time>2026-04-07T09:09:26.345Z</time></trkpt><trkpt lat="40.3148078" lon="9.6311213"><ele>149.0</ele><time>2026-04-07T09:09:27.345Z</time></trkpt><trkpt lat="40.314824" lon="9.6312271"><ele>150.0</ele><time>2026-04-07T09:09:28.345Z</time></trkpt><trkpt lat="40.3148321" lon="9.6313303"><ele>151.0</ele><time>2026-04-07T09:09:29.345Z</time></trkpt><trkpt lat="40.3148474" lon="9.6314382"><ele>152.0</ele><time>2026-04-07T09:09:30.345Z</time></trkpt><trkpt lat="40.3148676" lon="9.6315464"><ele>153.0</ele><time>2026-04-07T09:09:31.345Z</time></trkpt><trkpt lat="40.314901" lon="9.6316583"><ele>154.0</ele><time>2026-04-07T09:09:32.345Z</time></trkpt><trkpt lat="40.3149398" lon="9.6317604"><ele>155.0</ele><time>2026-04-07T09:09:33.345Z</time></trkpt><trkpt lat="40.3149773" lon="9.6318693"><ele>153.6</ele><time>2026-04-07T09:09:34.345Z</time></trkpt><trkpt lat="40.3150166" lon="9.6319765"><ele>152.2</ele><time>2026-04-07T09:09:35.345Z</time></trkpt><trkpt lat="40.3150573" lon="9.632097"><ele>150.8</ele><time>2026-04-07T09:09:36.345Z</time></trkpt><trkpt lat="40.3151076" lon="9.6322178"><ele>149.4</ele><time>2026-04-07T09:09:37.345Z</time></trkpt><trkpt lat="40.3151621" lon="9.6323341"><ele>148.0</ele><time>2026-04-07T09:09:38.345Z</time></trkpt><trkpt lat="40.3152227" lon="9.6324464"><ele>148.0</ele><time>2026-04-07T09:09:39.344Z</time></trkpt><trkpt lat="40.3152786" lon="9.6325564"><ele>148.0</ele><time>2026-04-07T09:09:40.344Z</time></trkpt><trkpt lat="40.3153285" lon="9.6326747"><ele>148.0</ele><time>2026-04-07T09:09:41.345Z</time></trkpt><trkpt lat="40.3153651" lon="9.6328028"><ele>148.0</ele><time>2026-04-07T09:09:42.345Z</time></trkpt><trkpt lat="40.3154054" lon="9.6329344"><ele>148.0</ele><time>2026-04-07T09:09:43.344Z</time></trkpt><trkpt lat="40.3154525" lon="9.6330647"><ele>147.20000000000002</ele><time>2026-04-07T09:09:44.345Z</time></trkpt><trkpt lat="40.3155085" lon="9.6331897"><ele>146.4</ele><time>2026-04-07T09:09:45.344Z</time></trkpt><trkpt lat="40.3155733" lon="9.6332999"><ele>145.60000000000002</ele><time>2026-04-07T09:09:46.345Z</time></trkpt><trkpt lat="40.3156499" lon="9.6333931"><ele>144.8</ele><time>2026-04-07T09:09:47.345Z</time></trkpt><trkpt lat="40.3157331" lon="9.6334764"><ele>144.0</ele><time>2026-04-07T09:09:48.345Z</time></trkpt><trkpt lat="40.3158136" lon="9.6335615"><ele>146.4</ele><time>2026-04-07T09:09:49.345Z</time></trkpt><trkpt lat="40.3158956" lon="9.6336483"><ele>148.8</ele><time>2026-04-07T09:09:50.344Z</time></trkpt><trkpt lat="40.315985" lon="9.6337118"><ele>151.2</ele><time>2026-04-07T09:09:51.344Z</time></trkpt><trkpt lat="40.3160853" lon="9.6337588"><ele>153.6</ele><time>2026-04-07T09:09:52.345Z</time></trkpt><trkpt lat="40.3161855" lon="9.6337928"><ele>156.0</ele><time>2026-04-07T09:09:53.345Z</time></trkpt><trkpt lat="40.3162888" lon="9.6338238"><ele>156.0</ele><time>2026-04-07T09:09:54.344Z</time></trkpt><trkpt lat="40.3163885" lon="9.6338553"><ele>156.0</ele><time>2026-04-07T09:09:55.345Z</time></trkpt><trkpt lat="40.3164886" lon="9.6338816"><ele>156.0</ele><time>2026-04-07T09:09:56.345Z</time></trkpt><trkpt lat="40.3165873" lon="9.6338972"><ele>156.0</ele><time>2026-04-07T09:09:57.345Z</time></trkpt><trkpt lat="40.3166896" lon="9.6339068"><ele>156.0</ele><time>2026-04-07T09:09:58.344Z</time></trkpt><trkpt lat="40.316783" lon="9.6339067"><ele>156.8</ele><time>2026-04-07T09:09:59.345Z</time></trkpt><trkpt lat="40.3168716" lon="9.6339027"><ele>157.6</ele><time>2026-04-07T09:10:00.345Z</time></trkpt><trkpt lat="40.3169635" lon="9.6338924"><ele>158.4</ele><time>2026-04-07T09:10:01.345Z</time></trkpt><trkpt lat="40.3170598" lon="9.6338891"><ele>159.2</ele><time>2026-04-07T09:10:02.344Z</time></trkpt><trkpt lat="40.3171558" lon="9.6338796"><ele>160.0</ele><time>2026-04-07T09:10:03.345Z</time></trkpt><trkpt lat="40.3172535" lon="9.6338738"><ele>160.0</ele><time>2026-04-07T09:10:04.345Z</time></trkpt><trkpt lat="40.3173524" lon="9.6338675"><ele>160.0</ele><time>2026-04-07T09:10:05.345Z</time></trkpt><trkpt lat="40.3174491" lon="9.6338585"><ele>160.0</ele><time>2026-04-07T09:10:06.345Z</time></trkpt><trkpt lat="40.3175504" lon="9.6338486"><ele>160.0</ele><time>2026-04-07T09:10:07.344Z</time></trkpt><trkpt lat="40.3176509" lon="9.6338377"><ele>160.0</ele><time>2026-04-07T09:10:08.345Z</time></trkpt><trkpt lat="40.3177463" lon="9.6338276"><ele>160.0</ele><time>2026-04-07T09:10:09.344Z</time></trkpt><trkpt lat="40.3178371" lon="9.6338184"><ele>160.0</ele><time>2026-04-07T09:10:10.345Z</time></trkpt><trkpt lat="40.3179237" lon="9.6338076"><ele>160.0</ele><time>2026-04-07T09:10:11.345Z</time></trkpt><trkpt lat="40.3180074" lon="9.6337987"><ele>160.0</ele><time>2026-04-07T09:10:12.344Z</time></trkpt><trkpt lat="40.318088" lon="9.6337938"><ele>160.0</ele><time>2026-04-07T09:10:13.345Z</time></trkpt><trkpt lat="40.3181688" lon="9.6337858"><ele>160.0</ele><time>2026-04-07T09:10:14.345Z</time></trkpt><trkpt lat="40.3182477" lon="9.6337832"><ele>160.16666666666669</ele><time>2026-04-07T09:10:15.345Z</time></trkpt><trkpt lat="40.318329" lon="9.6337753"><ele>160.33333333333334</ele><time>2026-04-07T09:10:16.345Z</time></trkpt><trkpt lat="40.3184074" lon="9.6337586"><ele>160.5</ele><time>2026-04-07T09:10:17.344Z</time></trkpt><trkpt lat="40.3184804" lon="9.6337265"><ele>160.66666666666666</ele><time>2026-04-07T09:10:18.344Z</time></trkpt><trkpt lat="40.3185547" lon="9.6336814"><ele>160.83333333333331</ele><time>2026-04-07T09:10:19.344Z</time></trkpt><trkpt lat="40.3186244" lon="9.6336152"><ele>161.0</ele><time>2026-04-07T09:10:20.345Z</time></trkpt><trkpt lat="40.3186939" lon="9.6335411"><ele>161.0</ele><time>2026-04-07T09:10:21.345Z</time></trkpt><trkpt lat="40.31877" lon="9.6334592"><ele>161.0</ele><time>2026-04-07T09:10:22.344Z</time></trkpt><trkpt lat="40.3188458" lon="9.6333712"><ele>161.0</ele><time>2026-04-07T09:10:23.345Z</time></trkpt><trkpt lat="40.3189253" lon="9.633279"><ele>161.0</ele><time>2026-04-07T09:10:24.345Z</time></trkpt><trkpt lat="40.3190044" lon="9.6331833"><ele>161.0</ele><time>2026-04-07T09:10:25.345Z</time></trkpt><trkpt lat="40.3190874" lon="9.6330947"><ele>159.8</ele><time>2026-04-07T09:10:26.345Z</time></trkpt><trkpt lat="40.3191688" lon="9.6330016"><ele>158.60000000000002</ele><time>2026-04-07T09:10:27.344Z</time></trkpt><trkpt lat="40.3192509" lon="9.6329081"><ele>157.4</ele><time>2026-04-07T09:10:28.345Z</time></trkpt><trkpt lat="40.3193332" lon="9.6328113"><ele>156.2</ele><time>2026-04-07T09:10:29.345Z</time></trkpt><trkpt lat="40.3194145" lon="9.6327133"><ele>155.0</ele><time>2026-04-07T09:10:30.345Z</time></trkpt><trkpt lat="40.3194981" lon="9.6326185"><ele>155.0</ele><time>2026-04-07T09:10:31.345Z</time></trkpt><trkpt lat="40.3195794" lon="9.6325167"><ele>155.0</ele><time>2026-04-07T09:10:32.345Z</time></trkpt><trkpt lat="40.3196639" lon="9.6324135"><ele>155.0</ele><time>2026-04-07T09:10:33.344Z</time></trkpt><trkpt lat="40.3197483" lon="9.6323146"><ele>155.0</ele><time>2026-04-07T09:10:34.345Z</time></trkpt><trkpt lat="40.319835" lon="9.6322181"><ele>154.8</ele><time>2026-04-07T09:10:35.344Z</time></trkpt><trkpt lat="40.3199136" lon="9.6321256"><ele>154.6</ele><time>2026-04-07T09:10:36.345Z</time></trkpt><trkpt lat="40.3199716" lon="9.6320157"><ele>154.4</ele><time>2026-04-07T09:10:37.345Z</time></trkpt><trkpt lat="40.320009" lon="9.6318929"><ele>154.2</ele><time>2026-04-07T09:10:38.344Z</time></trkpt><trkpt lat="40.3200273" lon="9.6317699"><ele>154.0</ele><time>2026-04-07T09:10:39.345Z</time></trkpt><trkpt lat="40.3200443" lon="9.6316417"><ele>154.0</ele><time>2026-04-07T09:10:40.345Z</time></trkpt><trkpt lat="40.3200587" lon="9.6315266"><ele>154.0</ele><time>2026-04-07T09:10:41.344Z</time></trkpt><trkpt lat="40.3200915" lon="9.6314216"><ele>154.0</ele><time>2026-04-07T09:10:42.344Z</time></trkpt><trkpt lat="40.3201394" lon="9.6313375"><ele>154.0</ele><time>2026-04-07T09:10:43.345Z</time></trkpt><trkpt lat="40.3202004" lon="9.6312696"><ele>154.0</ele><time>2026-04-07T09:10:44.345Z</time></trkpt><trkpt lat="40.3202678" lon="9.6312009"><ele>154.0</ele><time>2026-04-07T09:10:45.344Z</time></trkpt><trkpt lat="40.32034" lon="9.6311258"><ele>154.6</ele><time>2026-04-07T09:10:46.344Z</time></trkpt><trkpt lat="40.3204175" lon="9.631045"><ele>155.2</ele><time>2026-04-07T09:10:47.345Z</time></trkpt><trkpt lat="40.3204959" lon="9.630957"><ele>155.79999999999998</ele><time>2026-04-07T09:10:48.345Z</time></trkpt><trkpt lat="40.3205687" lon="9.6308712"><ele>156.4</ele><time>2026-04-07T09:10:49.345Z</time></trkpt><trkpt lat="40.3206368" lon="9.6307854"><ele>157.0</ele><time>2026-04-07T09:10:50.345Z</time></trkpt><trkpt lat="40.3207108" lon="9.6307036"><ele>157.0</ele><time>2026-04-07T09:10:51.344Z</time></trkpt><trkpt lat="40.3207972" lon="9.6306395"><ele>157.0</ele><time>2026-04-07T09:10:52.344Z</time></trkpt><trkpt lat="40.3208977" lon="9.6305966"><ele>157.0</ele><time>2026-04-07T09:10:53.345Z</time></trkpt><trkpt lat="40.3209975" lon="9.6305597"><ele>157.0</ele><time>2026-04-07T09:10:54.345Z</time></trkpt><trkpt lat="40.3211025" lon="9.6305209"><ele>157.0</ele><time>2026-04-07T09:10:55.345Z</time></trkpt><trkpt lat="40.3212094" lon="9.6304815"><ele>157.0</ele><time>2026-04-07T09:10:56.345Z</time></trkpt><trkpt lat="40.3213099" lon="9.6304329"><ele>157.0</ele><time>2026-04-07T09:10:57.344Z</time></trkpt><trkpt lat="40.3214063" lon="9.6303669"><ele>157.0</ele><time>2026-04-07T09:10:58.345Z</time></trkpt><trkpt lat="40.3214895" lon="9.6302744"><ele>157.0</ele><time>2026-04-07T09:10:59.344Z</time></trkpt><trkpt lat="40.3215571" lon="9.6301507"><ele>157.0</ele><time>2026-04-07T09:11:00.345Z</time></trkpt><trkpt lat="40.3216154" lon="9.6300158"><ele>157.0</ele><time>2026-04-07T09:11:01.345Z</time></trkpt><trkpt lat="40.3216723" lon="9.6298603"><ele>157.0</ele><time>2026-04-07T09:11:02.345Z</time></trkpt><trkpt lat="40.3217325" lon="9.6297161"><ele>157.0</ele><time>2026-04-07T09:11:03.344Z</time></trkpt><trkpt lat="40.3217838" lon="9.6295872"><ele>157.0</ele><time>2026-04-07T09:11:04.345Z</time></trkpt><trkpt lat="40.3218284" lon="9.6294696"><ele>157.8</ele><time>2026-04-07T09:11:05.345Z</time></trkpt><trkpt lat="40.3218581" lon="9.6293464"><ele>158.6</ele><time>2026-04-07T09:11:06.345Z</time></trkpt><trkpt lat="40.3218638" lon="9.6292245"><ele>159.4</ele><time>2026-04-07T09:11:07.345Z</time></trkpt><trkpt lat="40.3218497" lon="9.6291"><ele>160.20000000000002</ele><time>2026-04-07T09:11:08.345Z</time></trkpt><trkpt lat="40.3218275" lon="9.6289664"><ele>161.0</ele><time>2026-04-07T09:11:09.345Z</time></trkpt><trkpt lat="40.3218054" lon="9.6288321"><ele>161.0</ele><time>2026-04-07T09:11:10.345Z</time></trkpt><trkpt lat="40.3217834" lon="9.6286946"><ele>161.0</ele><time>2026-04-07T09:11:11.344Z</time></trkpt><trkpt lat="40.321762" lon="9.6285535"><ele>161.0</ele><time>2026-04-07T09:11:12.345Z</time></trkpt><trkpt lat="40.3217474" lon="9.628404"><ele>161.0</ele><time>2026-04-07T09:11:13.345Z</time></trkpt><trkpt lat="40.3217315" lon="9.6282473"><ele>161.25</ele><time>2026-04-07T09:11:14.344Z</time></trkpt><trkpt lat="40.321719" lon="9.6280874"><ele>161.5</ele><time>2026-04-07T09:11:15.345Z</time></trkpt><trkpt lat="40.3217058" lon="9.6279259"><ele>161.75</ele><time>2026-04-07T09:11:16.345Z</time></trkpt><trkpt lat="40.3216915" lon="9.6277621"><ele>162.0</ele><time>2026-04-07T09:11:17.345Z</time></trkpt><trkpt lat="40.3216797" lon="9.6275951"><ele>162.25</ele><time>2026-04-07T09:11:18.345Z</time></trkpt><trkpt lat="40.3216666" lon="9.6274345"><ele>162.5</ele><time>2026-04-07T09:11:19.345Z</time></trkpt><trkpt lat="40.3216535" lon="9.6272797"><ele>162.75</ele><time>2026-04-07T09:11:20.345Z</time></trkpt><trkpt lat="40.321642" lon="9.6271228"><ele>163.0</ele><time>2026-04-07T09:11:21.345Z</time></trkpt><trkpt lat="40.3216282" lon="9.6269682"><ele>163.75</ele><time>2026-04-07T09:11:22.345Z</time></trkpt><trkpt lat="40.3216153" lon="9.6268123"><ele>164.5</ele><time>2026-04-07T09:11:23.345Z</time></trkpt><trkpt lat="40.3215989" lon="9.6266589"><ele>165.25</ele><time>2026-04-07T09:11:24.345Z</time></trkpt><trkpt lat="40.3215893" lon="9.6265007"><ele>166.0</ele><time>2026-04-07T09:11:25.345Z</time></trkpt><trkpt lat="40.3215774" lon="9.6263444"><ele>166.0</ele><time>2026-04-07T09:11:26.345Z</time></trkpt><trkpt lat="40.3215644" lon="9.6261862"><ele>166.0</ele><time>2026-04-07T09:11:27.344Z</time></trkpt><trkpt lat="40.321548" lon="9.6260285"><ele>166.0</ele><time>2026-04-07T09:11:28.344Z</time></trkpt><trkpt lat="40.3215364" lon="9.6258681"><ele>166.0</ele><time>2026-04-07T09:11:29.345Z</time></trkpt><trkpt lat="40.3215219" lon="9.6257145"><ele>166.25</ele><time>2026-04-07T09:11:30.345Z</time></trkpt><trkpt lat="40.3215115" lon="9.625561"><ele>166.5</ele><time>2026-04-07T09:11:31.345Z</time></trkpt><trkpt lat="40.3215002" lon="9.6254046"><ele>166.75</ele><time>2026-04-07T09:11:32.345Z</time></trkpt><trkpt lat="40.3214898" lon="9.6252495"><ele>167.0</ele><time>2026-04-07T09:11:33.345Z</time></trkpt><trkpt lat="40.3214782" lon="9.6250918"><ele>167.25</ele><time>2026-04-07T09:11:34.345Z</time></trkpt><trkpt lat="40.321464" lon="9.6249348"><ele>167.5</ele><time>2026-04-07T09:11:35.345Z</time></trkpt><trkpt lat="40.3214524" lon="9.6247711"><ele>167.75</ele><time>2026-04-07T09:11:36.345Z</time></trkpt><trkpt lat="40.321438" lon="9.6246121"><ele>168.0</ele><time>2026-04-07T09:11:37.345Z</time></trkpt><trkpt lat="40.3214204" lon="9.6244524"><ele>170.0</ele><time>2026-04-07T09:11:38.345Z</time></trkpt><trkpt lat="40.3213926" lon="9.6242957"><ele>172.0</ele><time>2026-04-07T09:11:39.345Z</time></trkpt><trkpt lat="40.3213557" lon="9.6241419"><ele>174.0</ele><time>2026-04-07T09:11:40.345Z</time></trkpt><trkpt lat="40.3213083" lon="9.6239948"><ele>176.0</ele><time>2026-04-07T09:11:41.344Z</time></trkpt><trkpt lat="40.3212597" lon="9.6238344"><ele>176.0</ele><time>2026-04-07T09:11:42.344Z</time></trkpt><trkpt lat="40.3212187" lon="9.6236652"><ele>176.0</ele><time>2026-04-07T09:11:43.344Z</time></trkpt><trkpt lat="40.3211879" lon="9.6234976"><ele>176.0</ele><time>2026-04-07T09:11:44.344Z</time></trkpt><trkpt lat="40.3211634" lon="9.623347"><ele>176.0</ele><time>2026-04-07T09:11:45.345Z</time></trkpt><trkpt lat="40.3211549" lon="9.6232146"><ele>175.66666666666666</ele><time>2026-04-07T09:11:46.345Z</time></trkpt><trkpt lat="40.3211625" lon="9.6230902"><ele>175.33333333333331</ele><time>2026-04-07T09:11:47.345Z</time></trkpt><trkpt lat="40.3211952" lon="9.6229907"><ele>175.0</ele><time>2026-04-07T09:11:48.344Z</time></trkpt><trkpt lat="40.3212631" lon="9.6229169"><ele>174.66666666666666</ele><time>2026-04-07T09:11:49.345Z</time></trkpt><trkpt lat="40.3213401" lon="9.6228575"><ele>174.33333333333334</ele><time>2026-04-07T09:11:50.345Z</time></trkpt><trkpt lat="40.321405" lon="9.6227931"><ele>174.0</ele><time>2026-04-07T09:11:51.345Z</time></trkpt><trkpt lat="40.3214662" lon="9.6227273"><ele>173.33333333333334</ele><time>2026-04-07T09:11:52.345Z</time></trkpt><trkpt lat="40.3215148" lon="9.6226568"><ele>172.66666666666666</ele><time>2026-04-07T09:11:53.345Z</time></trkpt><trkpt lat="40.3215423" lon="9.6225704"><ele>172.0</ele><time>2026-04-07T09:11:54.345Z</time></trkpt><trkpt lat="40.3215481" lon="9.622474"><ele>171.33333333333331</ele><time>2026-04-07T09:11:55.345Z</time></trkpt><trkpt lat="40.3215491" lon="9.6223416"><ele>170.66666666666666</ele><time>2026-04-07T09:11:56.345Z</time></trkpt><trkpt lat="40.3215435" lon="9.6222019"><ele>170.0</ele><time>2026-04-07T09:11:57.345Z</time></trkpt><trkpt lat="40.3215367" lon="9.6220605"><ele>171.0</ele><time>2026-04-07T09:11:58.345Z</time></trkpt><trkpt lat="40.3215283" lon="9.6219079"><ele>172.0</ele><time>2026-04-07T09:11:59.345Z</time></trkpt><trkpt lat="40.3215192" lon="9.6217459"><ele>173.0</ele><time>2026-04-07T09:12:00.345Z</time></trkpt><trkpt lat="40.3215188" lon="9.6215805"><ele>174.0</ele><time>2026-04-07T09:12:01.345Z</time></trkpt><trkpt lat="40.3215196" lon="9.6214321"><ele>174.0</ele><time>2026-04-07T09:12:02.345Z</time></trkpt><trkpt lat="40.3215078" lon="9.6213013"><ele>174.0</ele><time>2026-04-07T09:12:03.345Z</time></trkpt><trkpt lat="40.3214919" lon="9.6211817"><ele>174.0</ele><time>2026-04-07T09:12:04.345Z</time></trkpt><trkpt lat="40.3214758" lon="9.6210693"><ele>174.0</ele><time>2026-04-07T09:12:05.344Z</time></trkpt><trkpt lat="40.321453" lon="9.6209664"><ele>174.0</ele><time>2026-04-07T09:12:06.345Z</time></trkpt><trkpt lat="40.3214355" lon="9.6208706"><ele>174.0</ele><time>2026-04-07T09:12:07.345Z</time></trkpt><trkpt lat="40.3214162" lon="9.620783"><ele>174.2</ele><time>2026-04-07T09:12:08.345Z</time></trkpt><trkpt lat="40.3213973" lon="9.6207004"><ele>174.39999999999998</ele><time>2026-04-07T09:12:09.345Z</time></trkpt><trkpt lat="40.3213547" lon="9.6205523"><ele>174.6</ele><time>2026-04-07T09:12:11.344Z</time></trkpt><trkpt lat="40.32131" lon="9.6204164"><ele>174.8</ele><time>2026-04-07T09:12:13.345Z</time></trkpt><trkpt lat="40.3212551" lon="9.6202904"><ele>175.0</ele><time>2026-04-07T09:12:15.345Z</time></trkpt><trkpt lat="40.3212102" lon="9.6201487"><ele>175.0</ele><time>2026-04-07T09:12:17.345Z</time></trkpt><trkpt lat="40.3211894" lon="9.6199775"><ele>175.0</ele><time>2026-04-07T09:12:19.345Z</time></trkpt><trkpt lat="40.3211894" lon="9.6198778"><ele>175.0</ele><time>2026-04-07T09:12:20.345Z</time></trkpt><trkpt lat="40.3211942" lon="9.6197696"><ele>175.0</ele><time>2026-04-07T09:12:21.345Z</time></trkpt><trkpt lat="40.3212002" lon="9.6196516"><ele>175.0</ele><time>2026-04-07T09:12:22.345Z</time></trkpt><trkpt lat="40.3212073" lon="9.6195232"><ele>173.6</ele><time>2026-04-07T09:12:23.345Z</time></trkpt><trkpt lat="40.321215" lon="9.6193916"><ele>172.2</ele><time>2026-04-07T09:12:24.344Z</time></trkpt><trkpt lat="40.3212209" lon="9.6192659"><ele>170.8</ele><time>2026-04-07T09:12:25.344Z</time></trkpt><trkpt lat="40.3212396" lon="9.6191499"><ele>169.4</ele><time>2026-04-07T09:12:26.345Z</time></trkpt><trkpt lat="40.3212673" lon="9.6190402"><ele>168.0</ele><time>2026-04-07T09:12:27.345Z</time></trkpt><trkpt lat="40.3212849" lon="9.6189322"><ele>168.0</ele><time>2026-04-07T09:12:28.344Z</time></trkpt><trkpt lat="40.3212888" lon="9.6188255"><ele>168.0</ele><time>2026-04-07T09:12:29.345Z</time></trkpt><trkpt lat="40.3212845" lon="9.6187244"><ele>168.0</ele><time>2026-04-07T09:12:30.344Z</time></trkpt><trkpt lat="40.3212681" lon="9.6186234"><ele>168.0</ele><time>2026-04-07T09:12:31.345Z</time></trkpt><trkpt lat="40.3212563" lon="9.6185158"><ele>168.0</ele><time>2026-04-07T09:12:32.345Z</time></trkpt><trkpt lat="40.3212475" lon="9.6184079"><ele>168.0</ele><time>2026-04-07T09:12:33.345Z</time></trkpt><trkpt lat="40.321255" lon="9.6182901"><ele>168.0</ele><time>2026-04-07T09:12:34.345Z</time></trkpt><trkpt lat="40.321256" lon="9.6181655"><ele>168.0</ele><time>2026-04-07T09:12:35.345Z</time></trkpt><trkpt lat="40.3212574" lon="9.6180378"><ele>168.0</ele><time>2026-04-07T09:12:36.344Z</time></trkpt><trkpt lat="40.3212619" lon="9.6179086"><ele>168.0</ele><time>2026-04-07T09:12:37.345Z</time></trkpt><trkpt lat="40.3212633" lon="9.6177782"><ele>168.0</ele><time>2026-04-07T09:12:38.343Z</time></trkpt><trkpt lat="40.3212666" lon="9.6176626"><ele>167.66666666666666</ele><time>2026-04-07T09:12:39.344Z</time></trkpt><trkpt lat="40.3212702" lon="9.6175554"><ele>167.33333333333334</ele><time>2026-04-07T09:12:40.345Z</time></trkpt><trkpt lat="40.3212713" lon="9.6174551"><ele>167.0</ele><time>2026-04-07T09:12:41.345Z</time></trkpt><trkpt lat="40.3212728" lon="9.6173602"><ele>166.66666666666669</ele><time>2026-04-07T09:12:42.345Z</time></trkpt><trkpt lat="40.3212706" lon="9.6172526"><ele>166.33333333333334</ele><time>2026-04-07T09:12:43.345Z</time></trkpt><trkpt lat="40.3212797" lon="9.6171293"><ele>166.0</ele><time>2026-04-07T09:12:44.345Z</time></trkpt><trkpt lat="40.3212849" lon="9.616993"><ele>166.5</ele><time>2026-04-07T09:12:45.345Z</time></trkpt><trkpt lat="40.3212954" lon="9.6168332"><ele>167.0</ele><time>2026-04-07T09:12:46.345Z</time></trkpt><trkpt lat="40.3213113" lon="9.6166563"><ele>167.5</ele><time>2026-04-07T09:12:47.344Z</time></trkpt><trkpt lat="40.3213312" lon="9.6164663"><ele>168.0</ele><time>2026-04-07T09:12:48.345Z</time></trkpt><trkpt lat="40.3213543" lon="9.616269"><ele>171.5</ele><time>2026-04-07T09:12:49.344Z</time></trkpt><trkpt lat="40.3213807" lon="9.6160911"><ele>175.0</ele><time>2026-04-07T09:12:50.345Z</time></trkpt><trkpt lat="40.3214297" lon="9.6159164"><ele>178.5</ele><time>2026-04-07T09:12:51.345Z</time></trkpt><trkpt lat="40.3214987" lon="9.6157556"><ele>182.0</ele><time>2026-04-07T09:12:52.345Z</time></trkpt><trkpt lat="40.3215664" lon="9.6155927"><ele>182.0</ele><time>2026-04-07T09:12:53.344Z</time></trkpt><trkpt lat="40.3216047" lon="9.6154142"><ele>182.0</ele><time>2026-04-07T09:12:54.344Z</time></trkpt><trkpt lat="40.3216368" lon="9.6152379"><ele>182.0</ele><time>2026-04-07T09:12:55.345Z</time></trkpt><trkpt lat="40.3216511" lon="9.615062"><ele>182.0</ele><time>2026-04-07T09:12:56.345Z</time></trkpt><trkpt lat="40.32166" lon="9.6148859"><ele>183.5</ele><time>2026-04-07T09:12:57.345Z</time></trkpt><trkpt lat="40.3216645" lon="9.614712"><ele>185.0</ele><time>2026-04-07T09:12:58.345Z</time></trkpt><trkpt lat="40.3216655" lon="9.6145372"><ele>186.5</ele><time>2026-04-07T09:12:59.345Z</time></trkpt><trkpt lat="40.3216636" lon="9.614364"><ele>188.0</ele><time>2026-04-07T09:13:00.344Z</time></trkpt><trkpt lat="40.3216575" lon="9.6141858"><ele>189.75</ele><time>2026-04-07T09:13:01.345Z</time></trkpt><trkpt lat="40.3216544" lon="9.6140101"><ele>191.5</ele><time>2026-04-07T09:13:02.345Z</time></trkpt><trkpt lat="40.321674" lon="9.613824"><ele>193.25</ele><time>2026-04-07T09:13:03.345Z</time></trkpt><trkpt lat="40.3216925" lon="9.6136498"><ele>195.0</ele><time>2026-04-07T09:13:04.345Z</time></trkpt><trkpt lat="40.3217071" lon="9.6134882"><ele>196.5</ele><time>2026-04-07T09:13:05.345Z</time></trkpt><trkpt lat="40.3217271" lon="9.6133315"><ele>198.0</ele><time>2026-04-07T09:13:06.345Z</time></trkpt><trkpt lat="40.3217389" lon="9.6131768"><ele>199.5</ele><time>2026-04-07T09:13:07.345Z</time></trkpt><trkpt lat="40.3217413" lon="9.6130248"><ele>201.0</ele><time>2026-04-07T09:13:08.345Z</time></trkpt><trkpt lat="40.3217323" lon="9.6128746"><ele>202.75</ele><time>2026-04-07T09:13:09.344Z</time></trkpt><trkpt lat="40.3217176" lon="9.612726"><ele>204.5</ele><time>2026-04-07T09:13:10.345Z</time></trkpt><trkpt lat="40.3216986" lon="9.6125767"><ele>206.25</ele><time>2026-04-07T09:13:11.345Z</time></trkpt><trkpt lat="40.3216701" lon="9.6124271"><ele>208.0</ele><time>2026-04-07T09:13:12.345Z</time></trkpt><trkpt lat="40.3216325" lon="9.6122847"><ele>208.0</ele><time>2026-04-07T09:13:13.344Z</time></trkpt><trkpt lat="40.3215937" lon="9.6121389"><ele>208.0</ele><time>2026-04-07T09:13:14.345Z</time></trkpt><trkpt lat="40.321554" lon="9.6119926"><ele>208.0</ele><time>2026-04-07T09:13:15.345Z</time></trkpt><trkpt lat="40.3215134" lon="9.6118515"><ele>208.0</ele><time>2026-04-07T09:13:16.345Z</time></trkpt><trkpt lat="40.3214724" lon="9.6117121"><ele>208.8</ele><time>2026-04-07T09:13:17.345Z</time></trkpt><trkpt lat="40.3214327" lon="9.6115755"><ele>209.60000000000002</ele><time>2026-04-07T09:13:18.344Z</time></trkpt><trkpt lat="40.3214031" lon="9.6114502"><ele>210.39999999999998</ele><time>2026-04-07T09:13:19.344Z</time></trkpt><trkpt lat="40.3213817" lon="9.6113269"><ele>211.2</ele><time>2026-04-07T09:13:20.344Z</time></trkpt><trkpt lat="40.3213627" lon="9.6112021"><ele>212.0</ele><time>2026-04-07T09:13:21.344Z</time></trkpt><trkpt lat="40.3213571" lon="9.6110799"><ele>213.6</ele><time>2026-04-07T09:13:22.345Z</time></trkpt><trkpt lat="40.3213608" lon="9.6109498"><ele>215.2</ele><time>2026-04-07T09:13:23.345Z</time></trkpt><trkpt lat="40.3213675" lon="9.6108098"><ele>216.8</ele><time>2026-04-07T09:13:24.345Z</time></trkpt><trkpt lat="40.3213729" lon="9.6106651"><ele>218.4</ele><time>2026-04-07T09:13:25.345Z</time></trkpt><trkpt lat="40.3213778" lon="9.6105206"><ele>220.0</ele><time>2026-04-07T09:13:26.345Z</time></trkpt><trkpt lat="40.3213814" lon="9.6103675"><ele>219.0</ele><time>2026-04-07T09:13:27.345Z</time></trkpt><trkpt lat="40.3213843" lon="9.6102136"><ele>218.0</ele><time>2026-04-07T09:13:28.345Z</time></trkpt><trkpt lat="40.3213863" lon="9.6100572"><ele>217.0</ele><time>2026-04-07T09:13:29.345Z</time></trkpt><trkpt lat="40.3213895" lon="9.6098946"><ele>216.0</ele><time>2026-04-07T09:13:30.345Z</time></trkpt><trkpt lat="40.3213922" lon="9.6097305"><ele>215.25</ele><time>2026-04-07T09:13:31.345Z</time></trkpt><trkpt lat="40.321399" lon="9.6095653"><ele>214.5</ele><time>2026-04-07T09:13:32.344Z</time></trkpt><trkpt lat="40.321407" lon="9.6094128"><ele>213.75</ele><time>2026-04-07T09:13:33.344Z</time></trkpt><trkpt lat="40.3214128" lon="9.6092683"><ele>213.0</ele><time>2026-04-07T09:13:34.345Z</time></trkpt><trkpt lat="40.3214132" lon="9.6091221"><ele>212.0</ele><time>2026-04-07T09:13:35.345Z</time></trkpt><trkpt lat="40.3214189" lon="9.6089723"><ele>211.0</ele><time>2026-04-07T09:13:36.345Z</time></trkpt><trkpt lat="40.321428" lon="9.6088189"><ele>210.0</ele><time>2026-04-07T09:13:37.345Z</time></trkpt><trkpt lat="40.3214328" lon="9.6086667"><ele>209.0</ele><time>2026-04-07T09:13:38.344Z</time></trkpt><trkpt lat="40.3214371" lon="9.6085101"><ele>209.0</ele><time>2026-04-07T09:13:39.344Z</time></trkpt><trkpt lat="40.3214457" lon="9.6083447"><ele>209.0</ele><time>2026-04-07T09:13:40.345Z</time></trkpt><trkpt lat="40.3214552" lon="9.6081879"><ele>209.0</ele><time>2026-04-07T09:13:41.345Z</time></trkpt><trkpt lat="40.3214551" lon="9.6080327"><ele>209.0</ele><time>2026-04-07T09:13:42.345Z</time></trkpt><trkpt lat="40.321457" lon="9.6078809"><ele>209.5</ele><time>2026-04-07T09:13:43.344Z</time></trkpt><trkpt lat="40.321458" lon="9.6077277"><ele>210.0</ele><time>2026-04-07T09:13:44.344Z</time></trkpt><trkpt lat="40.3214632" lon="9.6075782"><ele>210.5</ele><time>2026-04-07T09:13:45.345Z</time></trkpt><trkpt lat="40.3214687" lon="9.6074319"><ele>211.0</ele><time>2026-04-07T09:13:46.345Z</time></trkpt><trkpt lat="40.3214714" lon="9.6072853"><ele>211.0</ele><time>2026-04-07T09:13:47.345Z</time></trkpt><trkpt lat="40.3214781" lon="9.6071327"><ele>211.0</ele><time>2026-04-07T09:13:48.345Z</time></trkpt><trkpt lat="40.3214802" lon="9.6069792"><ele>211.0</ele><time>2026-04-07T09:13:49.344Z</time></trkpt><trkpt lat="40.3214879" lon="9.6068252"><ele>211.0</ele><time>2026-04-07T09:13:50.345Z</time></trkpt><trkpt lat="40.321491" lon="9.6066751"><ele>211.5</ele><time>2026-04-07T09:13:51.344Z</time></trkpt><trkpt lat="40.3214936" lon="9.606521"><ele>212.0</ele><time>2026-04-07T09:13:52.344Z</time></trkpt><trkpt lat="40.3214963" lon="9.6063673"><ele>212.5</ele><time>2026-04-07T09:13:53.344Z</time></trkpt><trkpt lat="40.3214979" lon="9.6062102"><ele>213.0</ele><time>2026-04-07T09:13:54.344Z</time></trkpt><trkpt lat="40.3215034" lon="9.6060499"><ele>213.75</ele><time>2026-04-07T09:13:55.345Z</time></trkpt><trkpt lat="40.3215081" lon="9.6058904"><ele>214.5</ele><time>2026-04-07T09:13:56.345Z</time></trkpt><trkpt lat="40.3215254" lon="9.6057307"><ele>215.25</ele><time>2026-04-07T09:13:57.345Z</time></trkpt><trkpt lat="40.3215475" lon="9.6055718"><ele>216.0</ele><time>2026-04-07T09:13:58.345Z</time></trkpt><trkpt lat="40.3215847" lon="9.6054167"><ele>217.0</ele><time>2026-04-07T09:13:59.345Z</time></trkpt><trkpt lat="40.3216306" lon="9.6052609"><ele>218.0</ele><time>2026-04-07T09:14:00.345Z</time></trkpt><trkpt lat="40.3216803" lon="9.6051074"><ele>219.0</ele><time>2026-04-07T09:14:01.345Z</time></trkpt><trkpt lat="40.3217298" lon="9.6049501"><ele>220.0</ele><time>2026-04-07T09:14:02.344Z</time></trkpt><trkpt lat="40.3217782" lon="9.604801"><ele>220.0</ele><time>2026-04-07T09:14:03.345Z</time></trkpt><trkpt lat="40.3218268" lon="9.6046591"><ele>220.0</ele><time>2026-04-07T09:14:04.345Z</time></trkpt><trkpt lat="40.3218757" lon="9.6045138"><ele>220.0</ele><time>2026-04-07T09:14:05.344Z</time></trkpt><trkpt lat="40.3219212" lon="9.6043736"><ele>220.0</ele><time>2026-04-07T09:14:06.345Z</time></trkpt><trkpt lat="40.321953" lon="9.6042364"><ele>220.4</ele><time>2026-04-07T09:14:07.344Z</time></trkpt><trkpt lat="40.3219822" lon="9.6040965"><ele>220.8</ele><time>2026-04-07T09:14:08.344Z</time></trkpt><trkpt lat="40.3220051" lon="9.6039545"><ele>221.2</ele><time>2026-04-07T09:14:09.344Z</time></trkpt><trkpt lat="40.3220233" lon="9.6038126"><ele>221.6</ele><time>2026-04-07T09:14:10.345Z</time></trkpt><trkpt lat="40.3220362" lon="9.603674"><ele>222.0</ele><time>2026-04-07T09:14:11.345Z</time></trkpt><trkpt lat="40.3220458" lon="9.6035317"><ele>223.8</ele><time>2026-04-07T09:14:12.344Z</time></trkpt><trkpt lat="40.3220545" lon="9.6033918"><ele>225.6</ele><time>2026-04-07T09:14:13.344Z</time></trkpt><trkpt lat="40.3220598" lon="9.6032513"><ele>227.40000000000003</ele><time>2026-04-07T09:14:14.345Z</time></trkpt><trkpt lat="40.3220593" lon="9.6031124"><ele>229.20000000000002</ele><time>2026-04-07T09:14:15.345Z</time></trkpt><trkpt lat="40.3220582" lon="9.6029782"><ele>231.0</ele><time>2026-04-07T09:14:16.344Z</time></trkpt><trkpt lat="40.3220433" lon="9.6028523"><ele>231.8</ele><time>2026-04-07T09:14:17.344Z</time></trkpt><trkpt lat="40.3220217" lon="9.602726"><ele>232.60000000000002</ele><time>2026-04-07T09:14:18.345Z</time></trkpt><trkpt lat="40.3219952" lon="9.6025946"><ele>233.4</ele><time>2026-04-07T09:14:19.345Z</time></trkpt><trkpt lat="40.3219606" lon="9.6024682"><ele>234.2</ele><time>2026-04-07T09:14:20.345Z</time></trkpt><trkpt lat="40.3219205" lon="9.6023405"><ele>235.0</ele><time>2026-04-07T09:14:21.345Z</time></trkpt><trkpt lat="40.321865" lon="9.6022198"><ele>235.0</ele><time>2026-04-07T09:14:22.345Z</time></trkpt><trkpt lat="40.3218034" lon="9.6020995"><ele>235.0</ele><time>2026-04-07T09:14:23.344Z</time></trkpt><trkpt lat="40.321735" lon="9.6019854"><ele>235.0</ele><time>2026-04-07T09:14:24.344Z</time></trkpt><trkpt lat="40.3216637" lon="9.6018687"><ele>235.0</ele><time>2026-04-07T09:14:25.345Z</time></trkpt><trkpt lat="40.3215963" lon="9.6017551"><ele>235.0</ele><time>2026-04-07T09:14:26.345Z</time></trkpt><trkpt lat="40.3215201" lon="9.6016479"><ele>235.75</ele><time>2026-04-07T09:14:27.345Z</time></trkpt><trkpt lat="40.3214401" lon="9.6015411"><ele>236.5</ele><time>2026-04-07T09:14:28.345Z</time></trkpt><trkpt lat="40.3213582" lon="9.6014338"><ele>237.25</ele><time>2026-04-07T09:14:29.344Z</time></trkpt><trkpt lat="40.3212716" lon="9.6013344"><ele>238.0</ele><time>2026-04-07T09:14:30.344Z</time></trkpt><trkpt lat="40.3211847" lon="9.6012339"><ele>240.25</ele><time>2026-04-07T09:14:31.345Z</time></trkpt><trkpt lat="40.3210986" lon="9.6011321"><ele>242.5</ele><time>2026-04-07T09:14:32.344Z</time></trkpt><trkpt lat="40.3210136" lon="9.6010265"><ele>244.75</ele><time>2026-04-07T09:14:33.344Z</time></trkpt><trkpt lat="40.3209304" lon="9.6009192"><ele>247.0</ele><time>2026-04-07T09:14:34.345Z</time></trkpt><trkpt lat="40.3208516" lon="9.6007983"><ele>247.0</ele><time>2026-04-07T09:14:35.345Z</time></trkpt><trkpt lat="40.3207697" lon="9.6006798"><ele>247.0</ele><time>2026-04-07T09:14:36.345Z</time></trkpt><trkpt lat="40.3206835" lon="9.6005729"><ele>247.0</ele><time>2026-04-07T09:14:37.344Z</time></trkpt><trkpt lat="40.3205995" lon="9.6004776"><ele>247.0</ele><time>2026-04-07T09:14:38.345Z</time></trkpt><trkpt lat="40.3205085" lon="9.6003846"><ele>247.5</ele><time>2026-04-07T09:14:39.345Z</time></trkpt><trkpt lat="40.3204086" lon="9.6003037"><ele>248.0</ele><time>2026-04-07T09:14:40.344Z</time></trkpt><trkpt lat="40.320308" lon="9.6002221"><ele>248.5</ele><time>2026-04-07T09:14:41.345Z</time></trkpt><trkpt lat="40.3202106" lon="9.6001464"><ele>249.0</ele><time>2026-04-07T09:14:42.344Z</time></trkpt><trkpt lat="40.3201151" lon="9.6000501"><ele>249.0</ele><time>2026-04-07T09:14:43.345Z</time></trkpt><trkpt lat="40.3200305" lon="9.5999376"><ele>249.0</ele><time>2026-04-07T09:14:44.344Z</time></trkpt><trkpt lat="40.319958" lon="9.5998113"><ele>249.0</ele><time>2026-04-07T09:14:45.345Z</time></trkpt><trkpt lat="40.3198951" lon="9.5996702"><ele>249.0</ele><time>2026-04-07T09:14:46.345Z</time></trkpt><trkpt lat="40.3198438" lon="9.5995135"><ele>248.25</ele><time>2026-04-07T09:14:47.344Z</time></trkpt><trkpt lat="40.3197955" lon="9.5993478"><ele>247.5</ele><time>2026-04-07T09:14:48.345Z</time></trkpt><trkpt lat="40.3197509" lon="9.5991798"><ele>246.75</ele><time>2026-04-07T09:14:49.345Z</time></trkpt><trkpt lat="40.3197071" lon="9.5990037"><ele>246.0</ele><time>2026-04-07T09:14:50.345Z</time></trkpt><trkpt lat="40.3196632" lon="9.5988293"><ele>249.5</ele><time>2026-04-07T09:14:51.345Z</time></trkpt><trkpt lat="40.3196335" lon="9.598644"><ele>253.0</ele><time>2026-04-07T09:14:52.344Z</time></trkpt><trkpt lat="40.3196177" lon="9.5984528"><ele>256.5</ele><time>2026-04-07T09:14:53.345Z</time></trkpt><trkpt lat="40.31961" lon="9.5982609"><ele>260.0</ele><time>2026-04-07T09:14:54.345Z</time></trkpt><trkpt lat="40.3196037" lon="9.5980749"><ele>260.0</ele><time>2026-04-07T09:14:55.344Z</time></trkpt><trkpt lat="40.3196039" lon="9.5978895"><ele>260.0</ele><time>2026-04-07T09:14:56.344Z</time></trkpt><trkpt lat="40.319618" lon="9.5977051"><ele>260.0</ele><time>2026-04-07T09:14:57.345Z</time></trkpt><trkpt lat="40.3196417" lon="9.5975355"><ele>260.0</ele><time>2026-04-07T09:14:58.345Z</time></trkpt><trkpt lat="40.3196758" lon="9.5973974"><ele>258.0</ele><time>2026-04-07T09:14:59.344Z</time></trkpt><trkpt lat="40.3197337" lon="9.5972738"><ele>256.0</ele><time>2026-04-07T09:15:00.345Z</time></trkpt><trkpt lat="40.3198079" lon="9.5971715"><ele>254.0</ele><time>2026-04-07T09:15:01.345Z</time></trkpt><trkpt lat="40.3198924" lon="9.5970673"><ele>252.0</ele><time>2026-04-07T09:15:02.344Z</time></trkpt><trkpt lat="40.3199592" lon="9.5969369"><ele>252.0</ele><time>2026-04-07T09:15:03.345Z</time></trkpt><trkpt lat="40.3200119" lon="9.5967869"><ele>252.0</ele><time>2026-04-07T09:15:04.345Z</time></trkpt><trkpt lat="40.320051" lon="9.5966332"><ele>252.0</ele><time>2026-04-07T09:15:05.344Z</time></trkpt><trkpt lat="40.3200846" lon="9.5964741"><ele>252.0</ele><time>2026-04-07T09:15:06.345Z</time></trkpt><trkpt lat="40.3201132" lon="9.5963077"><ele>252.25</ele><time>2026-04-07T09:15:07.345Z</time></trkpt><trkpt lat="40.3201303" lon="9.5961407"><ele>252.5</ele><time>2026-04-07T09:15:08.345Z</time></trkpt><trkpt lat="40.3201412" lon="9.5959838"><ele>252.75</ele><time>2026-04-07T09:15:09.345Z</time></trkpt><trkpt lat="40.3201572" lon="9.5958363"><ele>253.0</ele><time>2026-04-07T09:15:10.344Z</time></trkpt><trkpt lat="40.3201866" lon="9.5956903"><ele>253.0</ele><time>2026-04-07T09:15:11.345Z</time></trkpt><trkpt lat="40.3202277" lon="9.5955584"><ele>253.0</ele><time>2026-04-07T09:15:12.345Z</time></trkpt><trkpt lat="40.3202798" lon="9.5954307"><ele>253.0</ele><time>2026-04-07T09:15:13.345Z</time></trkpt><trkpt lat="40.3203332" lon="9.5953083"><ele>253.0</ele><time>2026-04-07T09:15:14.345Z</time></trkpt><trkpt lat="40.3203948" lon="9.5951871"><ele>253.0</ele><time>2026-04-07T09:15:15.345Z</time></trkpt><trkpt lat="40.320452" lon="9.5950667"><ele>253.0</ele><time>2026-04-07T09:15:16.344Z</time></trkpt><trkpt lat="40.3205093" lon="9.594942"><ele>253.0</ele><time>2026-04-07T09:15:17.345Z</time></trkpt><trkpt lat="40.3205621" lon="9.5948143"><ele>253.0</ele><time>2026-04-07T09:15:18.344Z</time></trkpt><trkpt lat="40.3206094" lon="9.5946772"><ele>253.0</ele><time>2026-04-07T09:15:19.345Z</time></trkpt><trkpt lat="40.3206549" lon="9.5945381"><ele>253.5</ele><time>2026-04-07T09:15:20.345Z</time></trkpt><trkpt lat="40.3207005" lon="9.5943955"><ele>254.0</ele><time>2026-04-07T09:15:21.345Z</time></trkpt><trkpt lat="40.3207391" lon="9.5942464"><ele>254.5</ele><time>2026-04-07T09:15:22.345Z</time></trkpt><trkpt lat="40.3207803" lon="9.594097"><ele>255.0</ele><time>2026-04-07T09:15:23.345Z</time></trkpt><trkpt lat="40.3208212" lon="9.5939406"><ele>255.0</ele><time>2026-04-07T09:15:24.345Z</time></trkpt><trkpt lat="40.3208623" lon="9.5937822"><ele>255.0</ele><time>2026-04-07T09:15:25.344Z</time></trkpt><trkpt lat="40.3209063" lon="9.5936224"><ele>255.0</ele><time>2026-04-07T09:15:26.345Z</time></trkpt><trkpt lat="40.3209489" lon="9.5934605"><ele>255.0</ele><time>2026-04-07T09:15:27.345Z</time></trkpt><trkpt lat="40.3209933" lon="9.5932931"><ele>255.75</ele><time>2026-04-07T09:15:28.345Z</time></trkpt><trkpt lat="40.3210379" lon="9.5931278"><ele>256.5</ele><time>2026-04-07T09:15:29.345Z</time></trkpt><trkpt lat="40.3210839" lon="9.5929638"><ele>257.25</ele><time>2026-04-07T09:15:30.344Z</time></trkpt><trkpt lat="40.3211346" lon="9.5927982"><ele>258.0</ele><time>2026-04-07T09:15:31.344Z</time></trkpt><trkpt lat="40.3211839" lon="9.5926288"><ele>258.25</ele><time>2026-04-07T09:15:32.345Z</time></trkpt><trkpt lat="40.3212336" lon="9.5924551"><ele>258.5</ele><time>2026-04-07T09:15:33.345Z</time></trkpt><trkpt lat="40.3212753" lon="9.5922918"><ele>258.75</ele><time>2026-04-07T09:15:34.345Z</time></trkpt><trkpt lat="40.3213078" lon="9.5921408"><ele>259.0</ele><time>2026-04-07T09:15:35.345Z</time></trkpt><trkpt lat="40.3213305" lon="9.5919993"><ele>259.0</ele><time>2026-04-07T09:15:36.345Z</time></trkpt><trkpt lat="40.3213507" lon="9.591875"><ele>259.0</ele><time>2026-04-07T09:15:37.345Z</time></trkpt><trkpt lat="40.3213657" lon="9.5917545"><ele>259.0</ele><time>2026-04-07T09:15:38.344Z</time></trkpt><trkpt lat="40.3213789" lon="9.5916476"><ele>259.0</ele><time>2026-04-07T09:15:39.345Z</time></trkpt><trkpt lat="40.3213964" lon="9.5915438"><ele>259.0</ele><time>2026-04-07T09:15:40.344Z</time></trkpt><trkpt lat="40.3214159" lon="9.5914482"><ele>259.0</ele><time>2026-04-07T09:15:41.345Z</time></trkpt><trkpt lat="40.3214378" lon="9.5913554"><ele>258.5</ele><time>2026-04-07T09:15:42.344Z</time></trkpt><trkpt lat="40.3214593" lon="9.5912628"><ele>258.0</ele><time>2026-04-07T09:15:43.344Z</time></trkpt><trkpt lat="40.3214806" lon="9.5911751"><ele>257.5</ele><time>2026-04-07T09:15:44.345Z</time></trkpt><trkpt lat="40.3215178" lon="9.5910424"><ele>257.0</ele><time>2026-04-07T09:15:46.345Z</time></trkpt><trkpt lat="40.3215459" lon="9.5909653"><ele>256.5</ele><time>2026-04-07T09:15:49.344Z</time></trkpt><trkpt lat="40.3215118" lon="9.5908534"><ele>256.0</ele><time>2026-04-07T09:16:09.344Z</time></trkpt><trkpt lat="40.3214604" lon="9.5907894"><ele>256.0</ele><time>2026-04-07T09:16:10.345Z</time></trkpt><trkpt lat="40.3214009" lon="9.5907049"><ele>256.0</ele><time>2026-04-07T09:16:11.344Z</time></trkpt><trkpt lat="40.3213379" lon="9.5906267"><ele>256.0</ele><time>2026-04-07T09:16:12.345Z</time></trkpt><trkpt lat="40.3212723" lon="9.5905448"><ele>256.0</ele><time>2026-04-07T09:16:13.345Z</time></trkpt><trkpt lat="40.3211978" lon="9.5904628"><ele>256.0</ele><time>2026-04-07T09:16:14.344Z</time></trkpt><trkpt lat="40.3211191" lon="9.5903737"><ele>256.25</ele><time>2026-04-07T09:16:15.345Z</time></trkpt><trkpt lat="40.3210379" lon="9.5902774"><ele>256.5</ele><time>2026-04-07T09:16:16.344Z</time></trkpt><trkpt lat="40.3209534" lon="9.5901763"><ele>256.75</ele><time>2026-04-07T09:16:17.345Z</time></trkpt><trkpt lat="40.320864" lon="9.5900761"><ele>257.0</ele><time>2026-04-07T09:16:18.345Z</time></trkpt><trkpt lat="40.3207799" lon="9.5899792"><ele>257.0</ele><time>2026-04-07T09:16:19.345Z</time></trkpt><trkpt lat="40.3206982" lon="9.589879"><ele>257.0</ele><time>2026-04-07T09:16:20.345Z</time></trkpt><trkpt lat="40.3206126" lon="9.5897833"><ele>257.0</ele><time>2026-04-07T09:16:21.345Z</time></trkpt><trkpt lat="40.3205296" lon="9.5896752"><ele>257.0</ele><time>2026-04-07T09:16:22.345Z</time></trkpt><trkpt lat="40.320454" lon="9.5895512"><ele>257.0</ele><time>2026-04-07T09:16:23.345Z</time></trkpt><trkpt lat="40.3203817" lon="9.5894207"><ele>257.0</ele><time>2026-04-07T09:16:24.345Z</time></trkpt><trkpt lat="40.3203207" lon="9.5892805"><ele>257.0</ele><time>2026-04-07T09:16:25.345Z</time></trkpt><trkpt lat="40.3202675" lon="9.5891324"><ele>257.0</ele><time>2026-04-07T09:16:26.345Z</time></trkpt><trkpt lat="40.3202158" lon="9.5889803"><ele>257.0</ele><time>2026-04-07T09:16:27.345Z</time></trkpt><trkpt lat="40.3201687" lon="9.588823"><ele>257.0</ele><time>2026-04-07T09:16:28.344Z</time></trkpt><trkpt lat="40.3201212" lon="9.5886645"><ele>257.0</ele><time>2026-04-07T09:16:29.344Z</time></trkpt><trkpt lat="40.3200742" lon="9.5885051"><ele>257.0</ele><time>2026-04-07T09:16:30.344Z</time></trkpt><trkpt lat="40.3200322" lon="9.5883401"><ele>257.25</ele><time>2026-04-07T09:16:31.344Z</time></trkpt><trkpt lat="40.3199948" lon="9.5881728"><ele>257.5</ele><time>2026-04-07T09:16:32.344Z</time></trkpt><trkpt lat="40.3199737" lon="9.5879965"><ele>257.75</ele><time>2026-04-07T09:16:33.344Z</time></trkpt><trkpt lat="40.319961" lon="9.5878191"><ele>258.0</ele><time>2026-04-07T09:16:34.344Z</time></trkpt><trkpt lat="40.3199577" lon="9.5876432"><ele>258.0</ele><time>2026-04-07T09:16:35.345Z</time></trkpt><trkpt lat="40.3199611" lon="9.5874696"><ele>258.0</ele><time>2026-04-07T09:16:36.344Z</time></trkpt><trkpt lat="40.3199695" lon="9.5872935"><ele>258.0</ele><time>2026-04-07T09:16:37.344Z</time></trkpt><trkpt lat="40.3199732" lon="9.5871201"><ele>258.0</ele><time>2026-04-07T09:16:38.345Z</time></trkpt><trkpt lat="40.319958" lon="9.5869514"><ele>258.0</ele><time>2026-04-07T09:16:39.344Z</time></trkpt><trkpt lat="40.3199432" lon="9.5867879"><ele>258.0</ele><time>2026-04-07T09:16:40.345Z</time></trkpt><trkpt lat="40.3199142" lon="9.5866321"><ele>258.0</ele><time>2026-04-07T09:16:41.345Z</time></trkpt><trkpt lat="40.3198881" lon="9.5864945"><ele>258.0</ele><time>2026-04-07T09:16:42.345Z</time></trkpt><trkpt lat="40.319877" lon="9.5863806"><ele>258.0</ele><time>2026-04-07T09:16:43.345Z</time></trkpt><trkpt lat="40.3198884" lon="9.5862823"><ele>258.0</ele><time>2026-04-07T09:16:44.345Z</time></trkpt><trkpt lat="40.3199208" lon="9.5861967"><ele>258.0</ele><time>2026-04-07T09:16:45.344Z</time></trkpt><trkpt lat="40.3199676" lon="9.5861231"><ele>258.0</ele><time>2026-04-07T09:16:46.345Z</time></trkpt><trkpt lat="40.3200242" lon="9.5860704"><ele>258.0</ele><time>2026-04-07T09:16:47.344Z</time></trkpt><trkpt lat="40.3200951" lon="9.5860355"><ele>258.0</ele><time>2026-04-07T09:16:48.345Z</time></trkpt><trkpt lat="40.3201771" lon="9.5860263"><ele>258.0</ele><time>2026-04-07T09:16:49.345Z</time></trkpt><trkpt lat="40.3202664" lon="9.5860336"><ele>258.2</ele><time>2026-04-07T09:16:50.344Z</time></trkpt><trkpt lat="40.320364" lon="9.5860455"><ele>258.4</ele><time>2026-04-07T09:16:51.345Z</time></trkpt><trkpt lat="40.3204695" lon="9.5860557"><ele>258.59999999999997</ele><time>2026-04-07T09:16:52.344Z</time></trkpt><trkpt lat="40.3205829" lon="9.5860668"><ele>258.8</ele><time>2026-04-07T09:16:53.344Z</time></trkpt><trkpt lat="40.320701" lon="9.5860851"><ele>259.0</ele><time>2026-04-07T09:16:54.345Z</time></trkpt><trkpt lat="40.3208172" lon="9.5861095"><ele>259.5</ele><time>2026-04-07T09:16:55.345Z</time></trkpt><trkpt lat="40.3209427" lon="9.5861341"><ele>260.0</ele><time>2026-04-07T09:16:56.344Z</time></trkpt><trkpt lat="40.3210681" lon="9.5861606"><ele>260.5</ele><time>2026-04-07T09:16:57.345Z</time></trkpt><trkpt lat="40.3211909" lon="9.5862042"><ele>261.0</ele><time>2026-04-07T09:16:58.345Z</time></trkpt><trkpt lat="40.3213129" lon="9.5862592"><ele>260.75</ele><time>2026-04-07T09:16:59.344Z</time></trkpt><trkpt lat="40.3214361" lon="9.5863275"><ele>260.5</ele><time>2026-04-07T09:17:00.345Z</time></trkpt><trkpt lat="40.3215579" lon="9.5864079"><ele>260.25</ele><time>2026-04-07T09:17:01.345Z</time></trkpt><trkpt lat="40.3216726" lon="9.5864802"><ele>260.0</ele><time>2026-04-07T09:17:02.345Z</time></trkpt><trkpt lat="40.3217853" lon="9.586549"><ele>260.0</ele><time>2026-04-07T09:17:03.344Z</time></trkpt><trkpt lat="40.3218998" lon="9.5866252"><ele>260.0</ele><time>2026-04-07T09:17:04.345Z</time></trkpt><trkpt lat="40.3220144" lon="9.5866985"><ele>260.0</ele><time>2026-04-07T09:17:05.345Z</time></trkpt><trkpt lat="40.3221359" lon="9.5867715"><ele>260.0</ele><time>2026-04-07T09:17:06.344Z</time></trkpt><trkpt lat="40.3222572" lon="9.5868452"><ele>259.75</ele><time>2026-04-07T09:17:07.345Z</time></trkpt><trkpt lat="40.3223788" lon="9.5869228"><ele>259.5</ele><time>2026-04-07T09:17:08.345Z</time></trkpt><trkpt lat="40.3225046" lon="9.5869974"><ele>259.25</ele><time>2026-04-07T09:17:09.344Z</time></trkpt><trkpt lat="40.3226331" lon="9.5870619"><ele>259.0</ele><time>2026-04-07T09:17:10.344Z</time></trkpt><trkpt lat="40.3227702" lon="9.587104"><ele>258.75</ele><time>2026-04-07T09:17:11.344Z</time></trkpt><trkpt lat="40.3229089" lon="9.5871232"><ele>258.5</ele><time>2026-04-07T09:17:12.345Z</time></trkpt><trkpt lat="40.3230495" lon="9.5871344"><ele>258.25</ele><time>2026-04-07T09:17:13.345Z</time></trkpt><trkpt lat="40.3231933" lon="9.5871431"><ele>258.0</ele><time>2026-04-07T09:17:14.345Z</time></trkpt><trkpt lat="40.3233374" lon="9.5871546"><ele>258.0</ele><time>2026-04-07T09:17:15.344Z</time></trkpt><trkpt lat="40.3234838" lon="9.5871613"><ele>258.0</ele><time>2026-04-07T09:17:16.345Z</time></trkpt><trkpt lat="40.3236151" lon="9.5871671"><ele>258.0</ele><time>2026-04-07T09:17:17.345Z</time></trkpt><trkpt lat="40.323747" lon="9.5871734"><ele>258.0</ele><time>2026-04-07T09:17:18.345Z</time></trkpt><trkpt lat="40.323875" lon="9.5871801"><ele>257.75</ele><time>2026-04-07T09:17:19.344Z</time></trkpt><trkpt lat="40.3240017" lon="9.587189"><ele>257.5</ele><time>2026-04-07T09:17:20.344Z</time></trkpt><trkpt lat="40.3241275" lon="9.5871938"><ele>257.25</ele><time>2026-04-07T09:17:21.345Z</time></trkpt><trkpt lat="40.3242502" lon="9.5871946"><ele>257.0</ele><time>2026-04-07T09:17:22.345Z</time></trkpt><trkpt lat="40.3243718" lon="9.5871991"><ele>257.0</ele><time>2026-04-07T09:17:23.344Z</time></trkpt><trkpt lat="40.3244964" lon="9.5871992"><ele>257.0</ele><time>2026-04-07T09:17:24.344Z</time></trkpt><trkpt lat="40.3246198" lon="9.587196"><ele>257.0</ele><time>2026-04-07T09:17:25.344Z</time></trkpt><trkpt lat="40.3247412" lon="9.5871873"><ele>257.0</ele><time>2026-04-07T09:17:26.344Z</time></trkpt><trkpt lat="40.3248678" lon="9.5871821"><ele>256.5</ele><time>2026-04-07T09:17:27.344Z</time></trkpt><trkpt lat="40.3249929" lon="9.5871706"><ele>256.0</ele><time>2026-04-07T09:17:28.345Z</time></trkpt><trkpt lat="40.3251151" lon="9.5871577"><ele>255.5</ele><time>2026-04-07T09:17:29.344Z</time></trkpt><trkpt lat="40.3252395" lon="9.5871464"><ele>255.0</ele><time>2026-04-07T09:17:30.345Z</time></trkpt><trkpt lat="40.3253649" lon="9.587132"><ele>255.0</ele><time>2026-04-07T09:17:31.345Z</time></trkpt><trkpt lat="40.3254908" lon="9.5871155"><ele>255.0</ele><time>2026-04-07T09:17:32.345Z</time></trkpt><trkpt lat="40.3256176" lon="9.5871012"><ele>255.0</ele><time>2026-04-07T09:17:33.345Z</time></trkpt><trkpt lat="40.3257424" lon="9.5870832"><ele>255.0</ele><time>2026-04-07T09:17:34.345Z</time></trkpt><trkpt lat="40.3258685" lon="9.5870686"><ele>254.25</ele><time>2026-04-07T09:17:35.345Z</time></trkpt><trkpt lat="40.3259937" lon="9.587054"><ele>253.5</ele><time>2026-04-07T09:17:36.345Z</time></trkpt><trkpt lat="40.3261157" lon="9.5870412"><ele>252.75</ele><time>2026-04-07T09:17:37.344Z</time></trkpt><trkpt lat="40.3262329" lon="9.5870284"><ele>252.0</ele><time>2026-04-07T09:17:38.345Z</time></trkpt><trkpt lat="40.3263483" lon="9.58702"><ele>251.8</ele><time>2026-04-07T09:17:39.345Z</time></trkpt><trkpt lat="40.3264568" lon="9.5870123"><ele>251.6</ele><time>2026-04-07T09:17:40.345Z</time></trkpt><trkpt lat="40.3265638" lon="9.5870008"><ele>251.40000000000003</ele><time>2026-04-07T09:17:41.344Z</time></trkpt><trkpt lat="40.3266725" lon="9.5869937"><ele>251.20000000000002</ele><time>2026-04-07T09:17:42.345Z</time></trkpt><trkpt lat="40.32678" lon="9.5869828"><ele>251.0</ele><time>2026-04-07T09:17:43.345Z</time></trkpt><trkpt lat="40.3268868" lon="9.586968"><ele>251.0</ele><time>2026-04-07T09:17:44.345Z</time></trkpt><trkpt lat="40.32699" lon="9.5869588"><ele>251.00000000000003</ele><time>2026-04-07T09:17:45.345Z</time></trkpt><trkpt lat="40.3270913" lon="9.5869526"><ele>251.00000000000003</ele><time>2026-04-07T09:17:46.345Z</time></trkpt><trkpt lat="40.3271928" lon="9.586952"><ele>251.0</ele><time>2026-04-07T09:17:47.345Z</time></trkpt><trkpt lat="40.3272934" lon="9.5869759"><ele>251.0</ele><time>2026-04-07T09:17:48.345Z</time></trkpt><trkpt lat="40.3273863" lon="9.5870152"><ele>250.4</ele><time>2026-04-07T09:17:49.344Z</time></trkpt><trkpt lat="40.3274791" lon="9.5870659"><ele>249.8</ele><time>2026-04-07T09:17:50.345Z</time></trkpt><trkpt lat="40.3275678" lon="9.5871247"><ele>249.20000000000002</ele><time>2026-04-07T09:17:51.344Z</time></trkpt><trkpt lat="40.3276535" lon="9.5871878"><ele>248.60000000000002</ele><time>2026-04-07T09:17:52.345Z</time></trkpt><trkpt lat="40.3277302" lon="9.5872451"><ele>248.0</ele><time>2026-04-07T09:17:53.345Z</time></trkpt><trkpt lat="40.3278147" lon="9.5872992"><ele>248.0</ele><time>2026-04-07T09:17:55.344Z</time></trkpt><trkpt lat="40.3278853" lon="9.5873357"><ele>248.0</ele><time>2026-04-07T09:20:04.345Z</time></trkpt><trkpt lat="40.327971" lon="9.5873916"><ele>248.0</ele><time>2026-04-07T09:20:07.344Z</time></trkpt><trkpt lat="40.3280892" lon="9.5874681"><ele>248.0</ele><time>2026-04-07T09:20:09.345Z</time></trkpt><trkpt lat="40.328161" lon="9.5875236"><ele>248.0</ele><time>2026-04-07T09:20:10.345Z</time></trkpt><trkpt lat="40.3282364" lon="9.5875853"><ele>248.0</ele><time>2026-04-07T09:20:11.345Z</time></trkpt><trkpt lat="40.3283181" lon="9.5876503"><ele>248.0</ele><time>2026-04-07T09:20:12.345Z</time></trkpt><trkpt lat="40.3284076" lon="9.5877283"><ele>248.0</ele><time>2026-04-07T09:20:13.345Z</time></trkpt><trkpt lat="40.328501" lon="9.5878155"><ele>248.0</ele><time>2026-04-07T09:20:14.345Z</time></trkpt><trkpt lat="40.328597" lon="9.5879052"><ele>248.0</ele><time>2026-04-07T09:20:15.345Z</time></trkpt><trkpt lat="40.3286994" lon="9.5879961"><ele>247.25</ele><time>2026-04-07T09:20:16.344Z</time></trkpt><trkpt lat="40.3288047" lon="9.5880925"><ele>246.5</ele><time>2026-04-07T09:20:17.345Z</time></trkpt><trkpt lat="40.328908" lon="9.5881908"><ele>245.75</ele><time>2026-04-07T09:20:18.344Z</time></trkpt><trkpt lat="40.3290069" lon="9.5882892"><ele>245.0</ele><time>2026-04-07T09:20:19.345Z</time></trkpt><trkpt lat="40.3291078" lon="9.5883857"><ele>245.0</ele><time>2026-04-07T09:20:20.345Z</time></trkpt><trkpt lat="40.3292128" lon="9.5884835"><ele>245.0</ele><time>2026-04-07T09:20:21.345Z</time></trkpt><trkpt lat="40.3293217" lon="9.5885764"><ele>245.0</ele><time>2026-04-07T09:20:22.345Z</time></trkpt><trkpt lat="40.3294364" lon="9.5886618"><ele>245.0</ele><time>2026-04-07T09:20:23.344Z</time></trkpt><trkpt lat="40.3295608" lon="9.588739"><ele>244.75</ele><time>2026-04-07T09:20:24.345Z</time></trkpt><trkpt lat="40.329696" lon="9.5887958"><ele>244.5</ele><time>2026-04-07T09:20:25.344Z</time></trkpt><trkpt lat="40.3298384" lon="9.5888364"><ele>244.25</ele><time>2026-04-07T09:20:26.345Z</time></trkpt><trkpt lat="40.3299814" lon="9.5888551"><ele>244.0</ele><time>2026-04-07T09:20:27.345Z</time></trkpt><trkpt lat="40.3301281" lon="9.5888703"><ele>244.0</ele><time>2026-04-07T09:20:28.344Z</time></trkpt><trkpt lat="40.3302787" lon="9.5888839"><ele>244.0</ele><time>2026-04-07T09:20:29.345Z</time></trkpt><trkpt lat="40.3304387" lon="9.5888958"><ele>244.0</ele><time>2026-04-07T09:20:30.345Z</time></trkpt><trkpt lat="40.3306049" lon="9.5889071"><ele>243.33333333333331</ele><time>2026-04-07T09:20:31.345Z</time></trkpt><trkpt lat="40.3307732" lon="9.588919"><ele>242.66666666666669</ele><time>2026-04-07T09:20:32.344Z</time></trkpt><trkpt lat="40.3309493" lon="9.5889337"><ele>242.0</ele><time>2026-04-07T09:20:33.345Z</time></trkpt><trkpt lat="40.3311297" lon="9.5889483"><ele>242.0</ele><time>2026-04-07T09:20:34.345Z</time></trkpt><trkpt lat="40.3313095" lon="9.588962"><ele>242.0</ele><time>2026-04-07T09:20:35.345Z</time></trkpt><trkpt lat="40.3314897" lon="9.588976"><ele>242.0</ele><time>2026-04-07T09:20:36.344Z</time></trkpt><trkpt lat="40.3316691" lon="9.5889907"><ele>241.0</ele><time>2026-04-07T09:20:37.345Z</time></trkpt><trkpt lat="40.3318506" lon="9.589001"><ele>240.0</ele><time>2026-04-07T09:20:38.345Z</time></trkpt><trkpt lat="40.3320262" lon="9.5890128"><ele>239.0</ele><time>2026-04-07T09:20:39.345Z</time></trkpt><trkpt lat="40.3322085" lon="9.589028"><ele>239.33333333333334</ele><time>2026-04-07T09:20:40.344Z</time></trkpt><trkpt lat="40.3323915" lon="9.5890426"><ele>239.66666666666669</ele><time>2026-04-07T09:20:41.344Z</time></trkpt><trkpt lat="40.3325759" lon="9.5890561"><ele>240.0</ele><time>2026-04-07T09:20:42.345Z</time></trkpt><trkpt lat="40.3327608" lon="9.5890714"><ele>240.0</ele><time>2026-04-07T09:20:43.345Z</time></trkpt><trkpt lat="40.3329492" lon="9.5890811"><ele>240.0</ele><time>2026-04-07T09:20:44.345Z</time></trkpt><trkpt lat="40.3331397" lon="9.5890923"><ele>240.0</ele><time>2026-04-07T09:20:45.344Z</time></trkpt><trkpt lat="40.3333334" lon="9.5891095"><ele>240.0</ele><time>2026-04-07T09:20:46.344Z</time></trkpt><trkpt lat="40.3335286" lon="9.5891221"><ele>240.0</ele><time>2026-04-07T09:20:47.345Z</time></trkpt><trkpt lat="40.333727" lon="9.5891297"><ele>240.0</ele><time>2026-04-07T09:20:48.345Z</time></trkpt><trkpt lat="40.3339291" lon="9.5891292"><ele>239.66666666666669</ele><time>2026-04-07T09:20:49.345Z</time></trkpt><trkpt lat="40.3341335" lon="9.5891282"><ele>239.33333333333334</ele><time>2026-04-07T09:20:50.344Z</time></trkpt><trkpt lat="40.3343414" lon="9.5891243"><ele>239.0</ele><time>2026-04-07T09:20:51.344Z</time></trkpt><trkpt lat="40.3345398" lon="9.5891206"><ele>238.0</ele><time>2026-04-07T09:20:52.345Z</time></trkpt><trkpt lat="40.3347287" lon="9.5891143"><ele>237.0</ele><time>2026-04-07T09:20:53.345Z</time></trkpt><trkpt lat="40.3349093" lon="9.5891129"><ele>236.0</ele><time>2026-04-07T09:20:54.345Z</time></trkpt><trkpt lat="40.3350925" lon="9.5891162"><ele>236.0</ele><time>2026-04-07T09:20:55.345Z</time></trkpt><trkpt lat="40.3352728" lon="9.5891203"><ele>236.0</ele><time>2026-04-07T09:20:56.345Z</time></trkpt><trkpt lat="40.3354508" lon="9.5891394"><ele>236.0</ele><time>2026-04-07T09:20:57.344Z</time></trkpt><trkpt lat="40.3356285" lon="9.5891782"><ele>235.0</ele><time>2026-04-07T09:20:58.345Z</time></trkpt><trkpt lat="40.3358084" lon="9.5892276"><ele>234.0</ele><time>2026-04-07T09:20:59.345Z</time></trkpt><trkpt lat="40.335982" lon="9.5892871"><ele>233.0</ele><time>2026-04-07T09:21:00.345Z</time></trkpt><trkpt lat="40.3361592" lon="9.5893489"><ele>233.0</ele><time>2026-04-07T09:21:01.345Z</time></trkpt><trkpt lat="40.3363361" lon="9.5894103"><ele>233.0</ele><time>2026-04-07T09:21:02.345Z</time></trkpt><trkpt lat="40.3365138" lon="9.5894732"><ele>233.0</ele><time>2026-04-07T09:21:03.345Z</time></trkpt><trkpt lat="40.3366906" lon="9.5895377"><ele>231.66666666666669</ele><time>2026-04-07T09:21:04.345Z</time></trkpt><trkpt lat="40.3368647" lon="9.5896175"><ele>230.33333333333331</ele><time>2026-04-07T09:21:05.345Z</time></trkpt><trkpt lat="40.337035" lon="9.5897205"><ele>229.0</ele><time>2026-04-07T09:21:06.345Z</time></trkpt><trkpt lat="40.3372002" lon="9.5898339"><ele>228.66666666666666</ele><time>2026-04-07T09:21:07.345Z</time></trkpt><trkpt lat="40.3373586" lon="9.5899656"><ele>228.33333333333331</ele><time>2026-04-07T09:21:08.344Z</time></trkpt><trkpt lat="40.3375165" lon="9.5901033"><ele>228.0</ele><time>2026-04-07T09:21:09.345Z</time></trkpt><trkpt lat="40.3376769" lon="9.5902413"><ele>227.66666666666669</ele><time>2026-04-07T09:21:10.344Z</time></trkpt><trkpt lat="40.3378389" lon="9.5903754"><ele>227.33333333333334</ele><time>2026-04-07T09:21:11.345Z</time></trkpt><trkpt lat="40.3379974" lon="9.5905078"><ele>227.0</ele><time>2026-04-07T09:21:12.344Z</time></trkpt><trkpt lat="40.3381586" lon="9.5906474"><ele>226.33333333333334</ele><time>2026-04-07T09:21:13.344Z</time></trkpt><trkpt lat="40.3383193" lon="9.5907838"><ele>225.66666666666669</ele><time>2026-04-07T09:21:14.345Z</time></trkpt><trkpt lat="40.3384788" lon="9.5909177"><ele>225.0</ele><time>2026-04-07T09:21:15.344Z</time></trkpt><trkpt lat="40.3386367" lon="9.5910554"><ele>225.0</ele><time>2026-04-07T09:21:16.345Z</time></trkpt><trkpt lat="40.3387966" lon="9.59119"><ele>225.0</ele><time>2026-04-07T09:21:17.344Z</time></trkpt><trkpt lat="40.3389516" lon="9.5913221"><ele>225.0</ele><time>2026-04-07T09:21:18.345Z</time></trkpt><trkpt lat="40.339103" lon="9.5914573"><ele>225.33333333333331</ele><time>2026-04-07T09:21:19.345Z</time></trkpt><trkpt lat="40.3392548" lon="9.5915884"><ele>225.66666666666666</ele><time>2026-04-07T09:21:20.345Z</time></trkpt><trkpt lat="40.3394066" lon="9.5917176"><ele>226.0</ele><time>2026-04-07T09:21:21.345Z</time></trkpt><trkpt lat="40.3395564" lon="9.5918461"><ele>226.0</ele><time>2026-04-07T09:21:22.344Z</time></trkpt><trkpt lat="40.3397038" lon="9.591976"><ele>226.0</ele><time>2026-04-07T09:21:23.345Z</time></trkpt><trkpt lat="40.3398438" lon="9.5921148"><ele>226.0</ele><time>2026-04-07T09:21:24.345Z</time></trkpt><trkpt lat="40.3399789" lon="9.5922591"><ele>227.0</ele><time>2026-04-07T09:21:25.345Z</time></trkpt><trkpt lat="40.3401058" lon="9.5924096"><ele>228.0</ele><time>2026-04-07T09:21:26.345Z</time></trkpt><trkpt lat="40.3402257" lon="9.5925663"><ele>229.0</ele><time>2026-04-07T09:21:27.345Z</time></trkpt><trkpt lat="40.3403366" lon="9.5927288"><ele>230.0</ele><time>2026-04-07T09:21:28.344Z</time></trkpt><trkpt lat="40.3404486" lon="9.5928853"><ele>231.0</ele><time>2026-04-07T09:21:29.345Z</time></trkpt><trkpt lat="40.3405709" lon="9.5930277"><ele>232.0</ele><time>2026-04-07T09:21:30.345Z</time></trkpt><trkpt lat="40.340708" lon="9.5931435"><ele>233.33333333333331</ele><time>2026-04-07T09:21:31.345Z</time></trkpt><trkpt lat="40.340862" lon="9.5932235"><ele>234.66666666666669</ele><time>2026-04-07T09:21:32.345Z</time></trkpt><trkpt lat="40.341027" lon="9.5932694"><ele>236.0</ele><time>2026-04-07T09:21:33.345Z</time></trkpt><trkpt lat="40.3412018" lon="9.5932639"><ele>236.0</ele><time>2026-04-07T09:21:34.344Z</time></trkpt><trkpt lat="40.3413783" lon="9.5932166"><ele>236.0</ele><time>2026-04-07T09:21:35.344Z</time></trkpt><trkpt lat="40.3415575" lon="9.5931468"><ele>236.0</ele><time>2026-04-07T09:21:36.344Z</time></trkpt><trkpt lat="40.341735" lon="9.5930706"><ele>236.66666666666669</ele><time>2026-04-07T09:21:37.345Z</time></trkpt><trkpt lat="40.3419118" lon="9.5929897"><ele>237.33333333333331</ele><time>2026-04-07T09:21:38.345Z</time></trkpt><trkpt lat="40.3420891" lon="9.5929144"><ele>238.0</ele><time>2026-04-07T09:21:39.344Z</time></trkpt><trkpt lat="40.3422701" lon="9.5928429"><ele>237.66666666666666</ele><time>2026-04-07T09:21:40.345Z</time></trkpt><trkpt lat="40.3424551" lon="9.5928058"><ele>237.33333333333331</ele><time>2026-04-07T09:21:41.344Z</time></trkpt><trkpt lat="40.3426555" lon="9.5928035"><ele>237.0</ele><time>2026-04-07T09:21:42.344Z</time></trkpt><trkpt lat="40.342855" lon="9.5928345"><ele>238.0</ele><time>2026-04-07T09:21:43.345Z</time></trkpt><trkpt lat="40.3430569" lon="9.592895"><ele>239.0</ele><time>2026-04-07T09:21:44.344Z</time></trkpt><trkpt lat="40.343262" lon="9.592966"><ele>240.0</ele><time>2026-04-07T09:21:45.345Z</time></trkpt><trkpt lat="40.3434735" lon="9.593038"><ele>240.0</ele><time>2026-04-07T09:21:46.345Z</time></trkpt><trkpt lat="40.3436843" lon="9.5931153"><ele>240.0</ele><time>2026-04-07T09:21:47.345Z</time></trkpt><trkpt lat="40.3439015" lon="9.5931888"><ele>240.0</ele><time>2026-04-07T09:21:48.345Z</time></trkpt><trkpt lat="40.3441137" lon="9.5932633"><ele>239.66666666666669</ele><time>2026-04-07T09:21:49.345Z</time></trkpt><trkpt lat="40.3443243" lon="9.5933319"><ele>239.33333333333334</ele><time>2026-04-07T09:21:50.344Z</time></trkpt><trkpt lat="40.3445342" lon="9.5934082"><ele>239.0</ele><time>2026-04-07T09:21:51.345Z</time></trkpt><trkpt lat="40.3447441" lon="9.5934834"><ele>239.0</ele><time>2026-04-07T09:21:52.344Z</time></trkpt><trkpt lat="40.3449499" lon="9.5935569"><ele>239.0</ele><time>2026-04-07T09:21:53.344Z</time></trkpt><trkpt lat="40.3451562" lon="9.5936312"><ele>239.0</ele><time>2026-04-07T09:21:54.344Z</time></trkpt><trkpt lat="40.3453595" lon="9.5937017"><ele>241.0</ele><time>2026-04-07T09:21:55.345Z</time></trkpt><trkpt lat="40.3455624" lon="9.5937738"><ele>243.0</ele><time>2026-04-07T09:21:56.345Z</time></trkpt><trkpt lat="40.3457645" lon="9.59385"><ele>245.0</ele><time>2026-04-07T09:21:57.344Z</time></trkpt><trkpt lat="40.3459639" lon="9.5939183"><ele>245.0</ele><time>2026-04-07T09:21:58.345Z</time></trkpt><trkpt lat="40.3461612" lon="9.5939866"><ele>245.0</ele><time>2026-04-07T09:21:59.345Z</time></trkpt><trkpt lat="40.3463563" lon="9.5940552"><ele>245.0</ele><time>2026-04-07T09:22:00.345Z</time></trkpt><trkpt lat="40.3465529" lon="9.5941258"><ele>246.0</ele><time>2026-04-07T09:22:01.345Z</time></trkpt><trkpt lat="40.3467478" lon="9.5941913"><ele>247.0</ele><time>2026-04-07T09:22:02.345Z</time></trkpt><trkpt lat="40.346945" lon="9.5942621"><ele>248.0</ele><time>2026-04-07T09:22:03.344Z</time></trkpt><trkpt lat="40.3471405" lon="9.5943316"><ele>249.0</ele><time>2026-04-07T09:22:04.345Z</time></trkpt><trkpt lat="40.347339" lon="9.5944053"><ele>250.0</ele><time>2026-04-07T09:22:05.345Z</time></trkpt><trkpt lat="40.3475304" lon="9.594473"><ele>251.0</ele><time>2026-04-07T09:22:06.345Z</time></trkpt><trkpt lat="40.3477203" lon="9.5945493"><ele>252.0</ele><time>2026-04-07T09:22:07.345Z</time></trkpt><trkpt lat="40.3479091" lon="9.5946556"><ele>253.0</ele><time>2026-04-07T09:22:08.345Z</time></trkpt><trkpt lat="40.3480877" lon="9.5947832"><ele>254.0</ele><time>2026-04-07T09:22:09.344Z</time></trkpt><trkpt lat="40.3482615" lon="9.5949254"><ele>254.0</ele><time>2026-04-07T09:22:10.344Z</time></trkpt><trkpt lat="40.3484325" lon="9.5950762"><ele>254.0</ele><time>2026-04-07T09:22:11.345Z</time></trkpt><trkpt lat="40.348592" lon="9.5952387"><ele>254.0</ele><time>2026-04-07T09:22:12.345Z</time></trkpt><trkpt lat="40.3487467" lon="9.5953969"><ele>255.66666666666669</ele><time>2026-04-07T09:22:13.345Z</time></trkpt><trkpt lat="40.3488976" lon="9.5955367"><ele>257.3333333333333</ele><time>2026-04-07T09:22:14.345Z</time></trkpt><trkpt lat="40.3490433" lon="9.5956677"><ele>259.0</ele><time>2026-04-07T09:22:15.345Z</time></trkpt><trkpt lat="40.3491789" lon="9.5957903"><ele>259.0</ele><time>2026-04-07T09:22:16.345Z</time></trkpt><trkpt lat="40.3493082" lon="9.5959115"><ele>259.0</ele><time>2026-04-07T09:22:17.345Z</time></trkpt><trkpt lat="40.3494251" lon="9.5960266"><ele>259.0</ele><time>2026-04-07T09:22:18.345Z</time></trkpt><trkpt lat="40.3495437" lon="9.5961372"><ele>258.66666666666663</ele><time>2026-04-07T09:22:19.345Z</time></trkpt><trkpt lat="40.3496663" lon="9.5962513"><ele>258.3333333333333</ele><time>2026-04-07T09:22:20.345Z</time></trkpt><trkpt lat="40.3497918" lon="9.59637"><ele>258.0</ele><time>2026-04-07T09:22:21.344Z</time></trkpt><trkpt lat="40.3499268" lon="9.5964965"><ele>258.0</ele><time>2026-04-07T09:22:22.345Z</time></trkpt><trkpt lat="40.3500695" lon="9.5966314"><ele>258.0</ele><time>2026-04-07T09:22:23.345Z</time></trkpt><trkpt lat="40.3502186" lon="9.5967715"><ele>258.0</ele><time>2026-04-07T09:22:24.344Z</time></trkpt><trkpt lat="40.3503739" lon="9.5969193"><ele>259.6666666666667</ele><time>2026-04-07T09:22:25.344Z</time></trkpt><trkpt lat="40.3505342" lon="9.5970693"><ele>261.33333333333337</ele><time>2026-04-07T09:22:26.344Z</time></trkpt><trkpt lat="40.3506998" lon="9.5972277"><ele>263.0</ele><time>2026-04-07T09:22:27.345Z</time></trkpt><trkpt lat="40.3508704" lon="9.5973887"><ele>263.0</ele><time>2026-04-07T09:22:28.344Z</time></trkpt><trkpt lat="40.351044" lon="9.597554"><ele>263.0</ele><time>2026-04-07T09:22:29.344Z</time></trkpt><trkpt lat="40.3512269" lon="9.5977176"><ele>263.0</ele><time>2026-04-07T09:22:30.344Z</time></trkpt><trkpt lat="40.3514104" lon="9.5978875"><ele>263.5</ele><time>2026-04-07T09:22:31.345Z</time></trkpt><trkpt lat="40.3515961" lon="9.5980582"><ele>264.0</ele><time>2026-04-07T09:22:32.345Z</time></trkpt><trkpt lat="40.3517784" lon="9.5982345"><ele>264.0</ele><time>2026-04-07T09:22:33.345Z</time></trkpt><trkpt lat="40.3519624" lon="9.5984102"><ele>264.0</ele><time>2026-04-07T09:22:34.345Z</time></trkpt><trkpt lat="40.3521478" lon="9.5985918"><ele>265.0</ele><time>2026-04-07T09:22:35.345Z</time></trkpt><trkpt lat="40.3523296" lon="9.5987928"><ele>266.0</ele><time>2026-04-07T09:22:36.344Z</time></trkpt><trkpt lat="40.3524952" lon="9.5990221"><ele>266.0</ele><time>2026-04-07T09:22:37.345Z</time></trkpt><trkpt lat="40.3526384" lon="9.5992787"><ele>266.0</ele><time>2026-04-07T09:22:38.345Z</time></trkpt><trkpt lat="40.3527683" lon="9.5995376"><ele>267.6666666666667</ele><time>2026-04-07T09:22:39.345Z</time></trkpt><trkpt lat="40.3528863" lon="9.5997839"><ele>269.3333333333333</ele><time>2026-04-07T09:22:40.344Z</time></trkpt><trkpt lat="40.3529986" lon="9.5999985"><ele>271.0</ele><time>2026-04-07T09:22:41.345Z</time></trkpt><trkpt lat="40.3531135" lon="9.6001698"><ele>271.0</ele><time>2026-04-07T09:22:42.345Z</time></trkpt><trkpt lat="40.3532485" lon="9.6003028"><ele>271.0</ele><time>2026-04-07T09:22:43.345Z</time></trkpt><trkpt lat="40.3534085" lon="9.600382"><ele>271.0</ele><time>2026-04-07T09:22:44.345Z</time></trkpt><trkpt lat="40.3535894" lon="9.6004324"><ele>272.66666666666663</ele><time>2026-04-07T09:22:45.345Z</time></trkpt><trkpt lat="40.3537823" lon="9.6004745"><ele>274.3333333333333</ele><time>2026-04-07T09:22:46.344Z</time></trkpt><trkpt lat="40.35398" lon="9.6005207"><ele>276.0</ele><time>2026-04-07T09:22:47.345Z</time></trkpt><trkpt lat="40.3541778" lon="9.6005706"><ele>276.0</ele><time>2026-04-07T09:22:48.345Z</time></trkpt><trkpt lat="40.3543826" lon="9.6006488"><ele>276.0</ele><time>2026-04-07T09:22:49.345Z</time></trkpt><trkpt lat="40.3545825" lon="9.6007576"><ele>276.0</ele><time>2026-04-07T09:22:50.345Z</time></trkpt><trkpt lat="40.3547684" lon="9.6008868"><ele>275.0</ele><time>2026-04-07T09:22:51.345Z</time></trkpt><trkpt lat="40.3549461" lon="9.6010116"><ele>274.0</ele><time>2026-04-07T09:22:52.345Z</time></trkpt><trkpt lat="40.3551355" lon="9.6011064"><ele>273.0</ele><time>2026-04-07T09:22:53.344Z</time></trkpt><trkpt lat="40.3553342" lon="9.6011556"><ele>272.0</ele><time>2026-04-07T09:22:54.345Z</time></trkpt><trkpt lat="40.3555481" lon="9.6011648"><ele>271.0</ele><time>2026-04-07T09:22:55.345Z</time></trkpt><trkpt lat="40.3557669" lon="9.6011595"><ele>270.0</ele><time>2026-04-07T09:22:56.345Z</time></trkpt><trkpt lat="40.3559895" lon="9.6011486"><ele>270.0</ele><time>2026-04-07T09:22:57.345Z</time></trkpt><trkpt lat="40.356218" lon="9.6011391"><ele>270.0</ele><time>2026-04-07T09:22:58.344Z</time></trkpt><trkpt lat="40.3564412" lon="9.6011347"><ele>268.6666666666667</ele><time>2026-04-07T09:22:59.345Z</time></trkpt><trkpt lat="40.3566547" lon="9.6011276"><ele>267.33333333333337</ele><time>2026-04-07T09:23:00.345Z</time></trkpt><trkpt lat="40.3568497" lon="9.6011286"><ele>266.0</ele><time>2026-04-07T09:23:01.345Z</time></trkpt><trkpt lat="40.3570061" lon="9.6011627"><ele>267.0</ele><time>2026-04-07T09:23:02.345Z</time></trkpt><trkpt lat="40.3571386" lon="9.6012393"><ele>268.0</ele><time>2026-04-07T09:23:03.345Z</time></trkpt><trkpt lat="40.3572373" lon="9.6013757"><ele>269.0</ele><time>2026-04-07T09:23:04.344Z</time></trkpt><trkpt lat="40.3572976" lon="9.6015514"><ele>270.0</ele><time>2026-04-07T09:23:05.345Z</time></trkpt><trkpt lat="40.3573267" lon="9.6017316"><ele>268.0</ele><time>2026-04-07T09:23:06.345Z</time></trkpt><trkpt lat="40.3573636" lon="9.6019079"><ele>266.0</ele><time>2026-04-07T09:23:07.344Z</time></trkpt><trkpt lat="40.357433" lon="9.6020661"><ele>264.0</ele><time>2026-04-07T09:23:08.344Z</time></trkpt><trkpt lat="40.3575307" lon="9.6021896"><ele>262.0</ele><time>2026-04-07T09:23:09.345Z</time></trkpt><trkpt lat="40.3576529" lon="9.602279"><ele>262.0</ele><time>2026-04-07T09:23:10.345Z</time></trkpt><trkpt lat="40.3577842" lon="9.6023563"><ele>262.0</ele><time>2026-04-07T09:23:11.345Z</time></trkpt><trkpt lat="40.3579208" lon="9.6024345"><ele>262.0</ele><time>2026-04-07T09:23:12.344Z</time></trkpt><trkpt lat="40.3580587" lon="9.6025084"><ele>262.0</ele><time>2026-04-07T09:23:13.345Z</time></trkpt><trkpt lat="40.3581932" lon="9.6025923"><ele>261.0</ele><time>2026-04-07T09:23:14.345Z</time></trkpt><trkpt lat="40.3583126" lon="9.6026865"><ele>260.0</ele><time>2026-04-07T09:23:15.345Z</time></trkpt><trkpt lat="40.3584285" lon="9.6028107"><ele>259.0</ele><time>2026-04-07T09:23:16.345Z</time></trkpt><trkpt lat="40.3585262" lon="9.6029464"><ele>258.0</ele><time>2026-04-07T09:23:17.345Z</time></trkpt><trkpt lat="40.3586116" lon="9.6030961"><ele>258.0</ele><time>2026-04-07T09:23:18.345Z</time></trkpt><trkpt lat="40.3586934" lon="9.6032467"><ele>258.0</ele><time>2026-04-07T09:23:19.345Z</time></trkpt><trkpt lat="40.3587746" lon="9.6033992"><ele>258.0</ele><time>2026-04-07T09:23:20.345Z</time></trkpt><trkpt lat="40.3588579" lon="9.6035582"><ele>258.0</ele><time>2026-04-07T09:23:21.345Z</time></trkpt><trkpt lat="40.3589417" lon="9.6037211"><ele>252.66666666666669</ele><time>2026-04-07T09:23:22.344Z</time></trkpt><trkpt lat="40.3590247" lon="9.6038909"><ele>247.33333333333334</ele><time>2026-04-07T09:23:23.344Z</time></trkpt><trkpt lat="40.3591056" lon="9.6040694"><ele>242.0</ele><time>2026-04-07T09:23:24.344Z</time></trkpt><trkpt lat="40.3591819" lon="9.6042565"><ele>242.0</ele><time>2026-04-07T09:23:25.344Z</time></trkpt><trkpt lat="40.3592551" lon="9.6044491"><ele>242.0</ele><time>2026-04-07T09:23:26.344Z</time></trkpt><trkpt lat="40.3593267" lon="9.6046478"><ele>242.0</ele><time>2026-04-07T09:23:27.345Z</time></trkpt><trkpt lat="40.3594006" lon="9.6048591"><ele>243.0</ele><time>2026-04-07T09:23:28.344Z</time></trkpt><trkpt lat="40.3594787" lon="9.605066"><ele>244.0</ele><time>2026-04-07T09:23:29.344Z</time></trkpt><trkpt lat="40.3595652" lon="9.605271"><ele>245.0</ele><time>2026-04-07T09:23:30.344Z</time></trkpt><trkpt lat="40.3596776" lon="9.605464"><ele>241.33333333333334</ele><time>2026-04-07T09:23:31.344Z</time></trkpt><trkpt lat="40.3598063" lon="9.6056435"><ele>237.66666666666669</ele><time>2026-04-07T09:23:32.345Z</time></trkpt><trkpt lat="40.3599415" lon="9.6058091"><ele>234.0</ele><time>2026-04-07T09:23:33.345Z</time></trkpt><trkpt lat="40.3600734" lon="9.6059724"><ele>234.0</ele><time>2026-04-07T09:23:34.345Z</time></trkpt><trkpt lat="40.3601994" lon="9.6061399"><ele>234.0</ele><time>2026-04-07T09:23:35.344Z</time></trkpt><trkpt lat="40.3603255" lon="9.6062999"><ele>234.0</ele><time>2026-04-07T09:23:36.344Z</time></trkpt><trkpt lat="40.3604542" lon="9.6064591"><ele>231.0</ele><time>2026-04-07T09:23:37.345Z</time></trkpt><trkpt lat="40.3605791" lon="9.6066176"><ele>228.0</ele><time>2026-04-07T09:23:38.345Z</time></trkpt><trkpt lat="40.3607053" lon="9.6067681"><ele>225.0</ele><time>2026-04-07T09:23:39.345Z</time></trkpt><trkpt lat="40.3608244" lon="9.6069183"><ele>226.66666666666669</ele><time>2026-04-07T09:23:40.345Z</time></trkpt><trkpt lat="40.3609441" lon="9.6070751"><ele>228.33333333333334</ele><time>2026-04-07T09:23:41.345Z</time></trkpt><trkpt lat="40.3610616" lon="9.6072326"><ele>230.0</ele><time>2026-04-07T09:23:42.344Z</time></trkpt><trkpt lat="40.3611881" lon="9.6073902"><ele>230.0</ele><time>2026-04-07T09:23:43.345Z</time></trkpt><trkpt lat="40.3613143" lon="9.6075487"><ele>230.0</ele><time>2026-04-07T09:23:44.345Z</time></trkpt><trkpt lat="40.361447" lon="9.607715"><ele>230.0</ele><time>2026-04-07T09:23:45.345Z</time></trkpt><trkpt lat="40.3615877" lon="9.6078771"><ele>226.0</ele><time>2026-04-07T09:23:46.345Z</time></trkpt><trkpt lat="40.3617399" lon="9.6080189"><ele>222.0</ele><time>2026-04-07T09:23:47.345Z</time></trkpt><trkpt lat="40.361911" lon="9.6081342"><ele>218.0</ele><time>2026-04-07T09:23:48.345Z</time></trkpt><trkpt lat="40.3620969" lon="9.6082246"><ele>216.0</ele><time>2026-04-07T09:23:49.345Z</time></trkpt><trkpt lat="40.3622904" lon="9.608288"><ele>214.0</ele><time>2026-04-07T09:23:50.345Z</time></trkpt><trkpt lat="40.3624906" lon="9.6083392"><ele>212.0</ele><time>2026-04-07T09:23:51.345Z</time></trkpt><trkpt lat="40.362699" lon="9.6083861"><ele>212.0</ele><time>2026-04-07T09:23:52.344Z</time></trkpt><trkpt lat="40.3629118" lon="9.6084377"><ele>212.0</ele><time>2026-04-07T09:23:53.345Z</time></trkpt><trkpt lat="40.363127" lon="9.6084855"><ele>212.0</ele><time>2026-04-07T09:23:54.345Z</time></trkpt><trkpt lat="40.3633434" lon="9.6085354"><ele>209.66666666666669</ele><time>2026-04-07T09:23:55.344Z</time></trkpt><trkpt lat="40.363562" lon="9.6085844"><ele>207.33333333333331</ele><time>2026-04-07T09:23:56.345Z</time></trkpt><trkpt lat="40.3637832" lon="9.6086386"><ele>205.0</ele><time>2026-04-07T09:23:57.345Z</time></trkpt><trkpt lat="40.3640075" lon="9.6086885"><ele>202.5</ele><time>2026-04-07T09:23:58.345Z</time></trkpt><trkpt lat="40.3642314" lon="9.608741"><ele>200.0</ele><time>2026-04-07T09:23:59.345Z</time></trkpt><trkpt lat="40.3644554" lon="9.6087913"><ele>200.0</ele><time>2026-04-07T09:24:00.345Z</time></trkpt><trkpt lat="40.3646792" lon="9.6088443"><ele>200.0</ele><time>2026-04-07T09:24:01.345Z</time></trkpt><trkpt lat="40.364897" lon="9.6088971"><ele>200.0</ele><time>2026-04-07T09:24:02.345Z</time></trkpt><trkpt lat="40.365107" lon="9.6089456"><ele>198.33333333333334</ele><time>2026-04-07T09:24:03.345Z</time></trkpt><trkpt lat="40.3653108" lon="9.6089953"><ele>196.66666666666669</ele><time>2026-04-07T09:24:04.344Z</time></trkpt><trkpt lat="40.3655133" lon="9.609044"><ele>195.0</ele><time>2026-04-07T09:24:05.345Z</time></trkpt><trkpt lat="40.3657219" lon="9.6090929"><ele>193.33333333333334</ele><time>2026-04-07T09:24:06.345Z</time></trkpt><trkpt lat="40.3659292" lon="9.6091375"><ele>191.66666666666669</ele><time>2026-04-07T09:24:07.345Z</time></trkpt><trkpt lat="40.366143" lon="9.6091821"><ele>190.0</ele><time>2026-04-07T09:24:08.344Z</time></trkpt><trkpt lat="40.3663557" lon="9.6092263"><ele>189.33333333333334</ele><time>2026-04-07T09:24:09.344Z</time></trkpt><trkpt lat="40.3665668" lon="9.6092785"><ele>188.66666666666666</ele><time>2026-04-07T09:24:10.345Z</time></trkpt><trkpt lat="40.366776" lon="9.6093306"><ele>188.0</ele><time>2026-04-07T09:24:11.345Z</time></trkpt><trkpt lat="40.3669845" lon="9.6093813"><ele>188.0</ele><time>2026-04-07T09:24:12.345Z</time></trkpt><trkpt lat="40.3671922" lon="9.6094314"><ele>188.0</ele><time>2026-04-07T09:24:13.345Z</time></trkpt><trkpt lat="40.3674021" lon="9.6094788"><ele>188.0</ele><time>2026-04-07T09:24:14.345Z</time></trkpt><trkpt lat="40.36761" lon="9.6095266"><ele>186.0</ele><time>2026-04-07T09:24:15.344Z</time></trkpt><trkpt lat="40.3678134" lon="9.6095731"><ele>184.0</ele><time>2026-04-07T09:24:16.345Z</time></trkpt><trkpt lat="40.3680165" lon="9.6096225"><ele>182.0</ele><time>2026-04-07T09:24:17.344Z</time></trkpt><trkpt lat="40.368218" lon="9.6096707"><ele>181.0</ele><time>2026-04-07T09:24:18.345Z</time></trkpt><trkpt lat="40.3684191" lon="9.6097167"><ele>180.0</ele><time>2026-04-07T09:24:19.345Z</time></trkpt><trkpt lat="40.3686243" lon="9.6097666"><ele>179.0</ele><time>2026-04-07T09:24:20.345Z</time></trkpt><trkpt lat="40.3688237" lon="9.6098149"><ele>178.33333333333331</ele><time>2026-04-07T09:24:21.345Z</time></trkpt><trkpt lat="40.3690232" lon="9.6098604"><ele>177.66666666666666</ele><time>2026-04-07T09:24:22.344Z</time></trkpt><trkpt lat="40.3692205" lon="9.6099071"><ele>177.0</ele><time>2026-04-07T09:24:23.345Z</time></trkpt><trkpt lat="40.3694166" lon="9.609954"><ele>177.0</ele><time>2026-04-07T09:24:24.344Z</time></trkpt><trkpt lat="40.3696144" lon="9.6100004"><ele>177.0</ele><time>2026-04-07T09:24:25.344Z</time></trkpt><trkpt lat="40.3698107" lon="9.6100471"><ele>177.0</ele><time>2026-04-07T09:24:26.345Z</time></trkpt><trkpt lat="40.3700111" lon="9.6100919"><ele>176.33333333333334</ele><time>2026-04-07T09:24:27.345Z</time></trkpt><trkpt lat="40.3702181" lon="9.6101386"><ele>175.66666666666669</ele><time>2026-04-07T09:24:28.345Z</time></trkpt><trkpt lat="40.3704261" lon="9.6101843"><ele>175.0</ele><time>2026-04-07T09:24:29.345Z</time></trkpt><trkpt lat="40.3706306" lon="9.6102323"><ele>174.66666666666669</ele><time>2026-04-07T09:24:30.345Z</time></trkpt><trkpt lat="40.3708325" lon="9.6102762"><ele>174.33333333333334</ele><time>2026-04-07T09:24:31.345Z</time></trkpt><trkpt lat="40.3710311" lon="9.6103214"><ele>174.0</ele><time>2026-04-07T09:24:32.345Z</time></trkpt><trkpt lat="40.3712212" lon="9.6103493"><ele>173.66666666666666</ele><time>2026-04-07T09:24:33.345Z</time></trkpt><trkpt lat="40.3714004" lon="9.6103479"><ele>173.33333333333331</ele><time>2026-04-07T09:24:34.344Z</time></trkpt><trkpt lat="40.3715637" lon="9.6103105"><ele>173.0</ele><time>2026-04-07T09:24:35.345Z</time></trkpt><trkpt lat="40.3717216" lon="9.6102423"><ele>173.0</ele><time>2026-04-07T09:24:36.345Z</time></trkpt><trkpt lat="40.3718701" lon="9.6101423"><ele>173.0</ele><time>2026-04-07T09:24:37.345Z</time></trkpt><trkpt lat="40.3720117" lon="9.6100315"><ele>173.0</ele><time>2026-04-07T09:24:38.345Z</time></trkpt><trkpt lat="40.3721471" lon="9.6099119"><ele>171.33333333333331</ele><time>2026-04-07T09:24:39.344Z</time></trkpt><trkpt lat="40.3722798" lon="9.6097942"><ele>169.66666666666666</ele><time>2026-04-07T09:24:40.345Z</time></trkpt><trkpt lat="40.372411" lon="9.6096819"><ele>168.0</ele><time>2026-04-07T09:24:41.344Z</time></trkpt><trkpt lat="40.3725414" lon="9.6095715"><ele>168.0</ele><time>2026-04-07T09:24:42.344Z</time></trkpt><trkpt lat="40.3726719" lon="9.6094589"><ele>168.0</ele><time>2026-04-07T09:24:43.345Z</time></trkpt><trkpt lat="40.3727995" lon="9.6093498"><ele>168.0</ele><time>2026-04-07T09:24:44.344Z</time></trkpt><trkpt lat="40.3729384" lon="9.6092465"><ele>166.0</ele><time>2026-04-07T09:24:45.344Z</time></trkpt><trkpt lat="40.3730901" lon="9.6091772"><ele>164.0</ele><time>2026-04-07T09:24:46.345Z</time></trkpt><trkpt lat="40.3732458" lon="9.6091377"><ele>162.0</ele><time>2026-04-07T09:24:47.345Z</time></trkpt><trkpt lat="40.3734005" lon="9.6091317"><ele>162.0</ele><time>2026-04-07T09:24:48.345Z</time></trkpt><trkpt lat="40.373559" lon="9.6091497"><ele>162.0</ele><time>2026-04-07T09:24:49.345Z</time></trkpt><trkpt lat="40.3737135" lon="9.6091746"><ele>162.0</ele><time>2026-04-07T09:24:50.345Z</time></trkpt><trkpt lat="40.3738688" lon="9.6091996"><ele>158.0</ele><time>2026-04-07T09:24:51.345Z</time></trkpt><trkpt lat="40.3740244" lon="9.6092248"><ele>154.0</ele><time>2026-04-07T09:24:52.345Z</time></trkpt><trkpt lat="40.3741841" lon="9.6092567"><ele>150.0</ele><time>2026-04-07T09:24:53.344Z</time></trkpt><trkpt lat="40.3743427" lon="9.6092869"><ele>150.0</ele><time>2026-04-07T09:24:54.345Z</time></trkpt><trkpt lat="40.3744974" lon="9.6093175"><ele>150.0</ele><time>2026-04-07T09:24:55.344Z</time></trkpt><trkpt lat="40.3746442" lon="9.6093486"><ele>150.0</ele><time>2026-04-07T09:24:56.344Z</time></trkpt><trkpt lat="40.3747631" lon="9.6094059"><ele>150.0</ele><time>2026-04-07T09:24:57.345Z</time></trkpt><trkpt lat="40.3748638" lon="9.609499"><ele>146.0</ele><time>2026-04-07T09:24:58.345Z</time></trkpt><trkpt lat="40.3749307" lon="9.6096228"><ele>142.0</ele><time>2026-04-07T09:24:59.345Z</time></trkpt><trkpt lat="40.3749613" lon="9.6097729"><ele>138.0</ele><time>2026-04-07T09:25:00.344Z</time></trkpt><trkpt lat="40.3749529" lon="9.6099267"><ele>134.0</ele><time>2026-04-07T09:25:01.344Z</time></trkpt><trkpt lat="40.3748978" lon="9.610066"><ele>134.0</ele><time>2026-04-07T09:25:02.344Z</time></trkpt><trkpt lat="40.374812" lon="9.6101779"><ele>134.0</ele><time>2026-04-07T09:25:03.345Z</time></trkpt><trkpt lat="40.3747012" lon="9.610262"><ele>134.0</ele><time>2026-04-07T09:25:04.345Z</time></trkpt><trkpt lat="40.3745823" lon="9.6103448"><ele>134.0</ele><time>2026-04-07T09:25:05.344Z</time></trkpt><trkpt lat="40.3744578" lon="9.6104283"><ele>131.75</ele><time>2026-04-07T09:25:06.345Z</time></trkpt><trkpt lat="40.3743296" lon="9.6105089"><ele>129.5</ele><time>2026-04-07T09:25:07.345Z</time></trkpt><trkpt lat="40.374198" lon="9.6105897"><ele>127.25</ele><time>2026-04-07T09:25:08.345Z</time></trkpt><trkpt lat="40.3740681" lon="9.6106711"><ele>125.0</ele><time>2026-04-07T09:25:09.345Z</time></trkpt><trkpt lat="40.3739388" lon="9.6107717"><ele>124.66666666666666</ele><time>2026-04-07T09:25:10.345Z</time></trkpt><trkpt lat="40.3738121" lon="9.6109067"><ele>124.33333333333334</ele><time>2026-04-07T09:25:11.345Z</time></trkpt><trkpt lat="40.3736958" lon="9.6110737"><ele>124.0</ele><time>2026-04-07T09:25:12.345Z</time></trkpt><trkpt lat="40.3735973" lon="9.6112605"><ele>124.0</ele><time>2026-04-07T09:25:13.345Z</time></trkpt><trkpt lat="40.3735039" lon="9.6114731"><ele>124.0</ele><time>2026-04-07T09:25:14.344Z</time></trkpt><trkpt lat="40.3734112" lon="9.6116949"><ele>124.0</ele><time>2026-04-07T09:25:15.345Z</time></trkpt><trkpt lat="40.373319" lon="9.611906"><ele>119.0</ele><time>2026-04-07T09:25:16.344Z</time></trkpt><trkpt lat="40.3732295" lon="9.6121123"><ele>114.0</ele><time>2026-04-07T09:25:17.344Z</time></trkpt><trkpt lat="40.3731422" lon="9.6123065"><ele>109.0</ele><time>2026-04-07T09:25:18.345Z</time></trkpt><trkpt lat="40.373062" lon="9.6124913"><ele>113.66666666666667</ele><time>2026-04-07T09:25:19.345Z</time></trkpt><trkpt lat="40.3729913" lon="9.6126703"><ele>118.33333333333334</ele><time>2026-04-07T09:25:20.344Z</time></trkpt><trkpt lat="40.3729287" lon="9.6128473"><ele>123.0</ele><time>2026-04-07T09:25:21.345Z</time></trkpt><trkpt lat="40.3728704" lon="9.6130251"><ele>123.0</ele><time>2026-04-07T09:25:22.345Z</time></trkpt><trkpt lat="40.3728179" lon="9.6132075"><ele>123.0</ele><time>2026-04-07T09:25:23.345Z</time></trkpt><trkpt lat="40.3727707" lon="9.613396"><ele>123.0</ele><time>2026-04-07T09:25:24.345Z</time></trkpt><trkpt lat="40.3727319" lon="9.6135876"><ele>120.75</ele><time>2026-04-07T09:25:25.345Z</time></trkpt><trkpt lat="40.3726991" lon="9.6137803"><ele>118.5</ele><time>2026-04-07T09:25:26.345Z</time></trkpt><trkpt lat="40.3726719" lon="9.6139663"><ele>116.25</ele><time>2026-04-07T09:25:27.344Z</time></trkpt><trkpt lat="40.3726519" lon="9.6141546"><ele>114.0</ele><time>2026-04-07T09:25:28.344Z</time></trkpt><trkpt lat="40.3726359" lon="9.6143246"><ele>114.0</ele><time>2026-04-07T09:25:29.345Z</time></trkpt><trkpt lat="40.3726177" lon="9.6144847"><ele>114.0</ele><time>2026-04-07T09:25:30.345Z</time></trkpt><trkpt lat="40.3726028" lon="9.6146382"><ele>114.0</ele><time>2026-04-07T09:25:31.345Z</time></trkpt><trkpt lat="40.3725909" lon="9.6147825"><ele>114.0</ele><time>2026-04-07T09:25:32.344Z</time></trkpt><trkpt lat="40.3725941" lon="9.6149225"><ele>113.0</ele><time>2026-04-07T09:25:33.344Z</time></trkpt><trkpt lat="40.3726214" lon="9.6150508"><ele>112.0</ele><time>2026-04-07T09:25:34.345Z</time></trkpt><trkpt lat="40.3726747" lon="9.6151618"><ele>111.0</ele><time>2026-04-07T09:25:35.345Z</time></trkpt><trkpt lat="40.372749" lon="9.6152487"><ele>110.0</ele><time>2026-04-07T09:25:36.345Z</time></trkpt><trkpt lat="40.3728324" lon="9.6153122"><ele>109.0</ele><time>2026-04-07T09:25:37.345Z</time></trkpt><trkpt lat="40.3729278" lon="9.6153457"><ele>106.4</ele><time>2026-04-07T09:25:38.345Z</time></trkpt><trkpt lat="40.3730284" lon="9.6153376"><ele>103.80000000000001</ele><time>2026-04-07T09:25:39.345Z</time></trkpt><trkpt lat="40.3731333" lon="9.6152926"><ele>101.19999999999999</ele><time>2026-04-07T09:25:40.345Z</time></trkpt><trkpt lat="40.37323" lon="9.615206"><ele>98.6</ele><time>2026-04-07T09:25:41.345Z</time></trkpt><trkpt lat="40.3733004" lon="9.6150774"><ele>96.0</ele><time>2026-04-07T09:25:42.344Z</time></trkpt><trkpt lat="40.3733522" lon="9.6149106"><ele>96.0</ele><time>2026-04-07T09:25:43.345Z</time></trkpt><trkpt lat="40.3733998" lon="9.6147273"><ele>96.0</ele><time>2026-04-07T09:25:44.345Z</time></trkpt><trkpt lat="40.3734457" lon="9.6145439"><ele>96.0</ele><time>2026-04-07T09:25:45.345Z</time></trkpt><trkpt lat="40.3734861" lon="9.614368"><ele>96.0</ele><time>2026-04-07T09:25:46.344Z</time></trkpt><trkpt lat="40.3735288" lon="9.6141903"><ele>96.25</ele><time>2026-04-07T09:25:47.344Z</time></trkpt><trkpt lat="40.3735701" lon="9.6140175"><ele>96.5</ele><time>2026-04-07T09:25:48.345Z</time></trkpt><trkpt lat="40.3736141" lon="9.6138516"><ele>96.75</ele><time>2026-04-07T09:25:49.344Z</time></trkpt><trkpt lat="40.373663" lon="9.6136848"><ele>97.0</ele><time>2026-04-07T09:25:50.344Z</time></trkpt><trkpt lat="40.3737267" lon="9.6135247"><ele>97.75</ele><time>2026-04-07T09:25:51.345Z</time></trkpt><trkpt lat="40.3738047" lon="9.6133736"><ele>98.5</ele><time>2026-04-07T09:25:52.344Z</time></trkpt><trkpt lat="40.3738957" lon="9.6132346"><ele>99.25</ele><time>2026-04-07T09:25:53.345Z</time></trkpt><trkpt lat="40.373997" lon="9.6131135"><ele>100.0</ele><time>2026-04-07T09:25:54.345Z</time></trkpt><trkpt lat="40.3741016" lon="9.6129956"><ele>98.0</ele><time>2026-04-07T09:25:55.344Z</time></trkpt><trkpt lat="40.3742161" lon="9.6128922"><ele>96.0</ele><time>2026-04-07T09:25:56.345Z</time></trkpt><trkpt lat="40.374333" lon="9.6127903"><ele>94.0</ele><time>2026-04-07T09:25:57.345Z</time></trkpt><trkpt lat="40.3744487" lon="9.612691"><ele>92.0</ele><time>2026-04-07T09:25:58.344Z</time></trkpt><trkpt lat="40.3745628" lon="9.6125897"><ele>92.0</ele><time>2026-04-07T09:25:59.344Z</time></trkpt><trkpt lat="40.374674" lon="9.6124895"><ele>92.0</ele><time>2026-04-07T09:26:00.345Z</time></trkpt><trkpt lat="40.374784" lon="9.6123924"><ele>92.0</ele><time>2026-04-07T09:26:01.344Z</time></trkpt><trkpt lat="40.3748917" lon="9.6123003"><ele>92.0</ele><time>2026-04-07T09:26:02.344Z</time></trkpt><trkpt lat="40.3750019" lon="9.6122107"><ele>91.75</ele><time>2026-04-07T09:26:03.344Z</time></trkpt><trkpt lat="40.3751077" lon="9.6121201"><ele>91.5</ele><time>2026-04-07T09:26:04.344Z</time></trkpt><trkpt lat="40.375215" lon="9.6120352"><ele>91.25</ele><time>2026-04-07T09:26:05.345Z</time></trkpt><trkpt lat="40.3753281" lon="9.6119595"><ele>91.0</ele><time>2026-04-07T09:26:06.344Z</time></trkpt><trkpt lat="40.3754445" lon="9.6119023"><ele>87.75</ele><time>2026-04-07T09:26:07.345Z</time></trkpt><trkpt lat="40.3755644" lon="9.6118734"><ele>84.5</ele><time>2026-04-07T09:26:08.345Z</time></trkpt><trkpt lat="40.3756864" lon="9.611861"><ele>81.25</ele><time>2026-04-07T09:26:09.344Z</time></trkpt><trkpt lat="40.3758055" lon="9.6118314"><ele>78.0</ele><time>2026-04-07T09:26:10.344Z</time></trkpt><trkpt lat="40.3759163" lon="9.6117777"><ele>78.0</ele><time>2026-04-07T09:26:11.345Z</time></trkpt><trkpt lat="40.3760141" lon="9.6116979"><ele>78.0</ele><time>2026-04-07T09:26:12.345Z</time></trkpt><trkpt lat="40.376103" lon="9.6115989"><ele>78.0</ele><time>2026-04-07T09:26:13.345Z</time></trkpt><trkpt lat="40.3761909" lon="9.6114921"><ele>78.0</ele><time>2026-04-07T09:26:14.345Z</time></trkpt><trkpt lat="40.3762874" lon="9.6113971"><ele>74.25</ele><time>2026-04-07T09:26:15.344Z</time></trkpt><trkpt lat="40.3763964" lon="9.6113365"><ele>70.5</ele><time>2026-04-07T09:26:16.345Z</time></trkpt><trkpt lat="40.3765053" lon="9.611301"><ele>66.75</ele><time>2026-04-07T09:26:17.345Z</time></trkpt><trkpt lat="40.3766169" lon="9.6112768"><ele>63.0</ele><time>2026-04-07T09:26:18.345Z</time></trkpt><trkpt lat="40.3767318" lon="9.6112601"><ele>63.0</ele><time>2026-04-07T09:26:19.345Z</time></trkpt><trkpt lat="40.376846" lon="9.6112419"><ele>63.0</ele><time>2026-04-07T09:26:20.345Z</time></trkpt><trkpt lat="40.3769581" lon="9.6112191"><ele>63.0</ele><time>2026-04-07T09:26:21.345Z</time></trkpt><trkpt lat="40.3770712" lon="9.6111947"><ele>63.0</ele><time>2026-04-07T09:26:22.344Z</time></trkpt><trkpt lat="40.3771772" lon="9.6111543"><ele>61.25</ele><time>2026-04-07T09:26:23.345Z</time></trkpt><trkpt lat="40.3772781" lon="9.6110903"><ele>59.5</ele><time>2026-04-07T09:26:24.344Z</time></trkpt><trkpt lat="40.3773691" lon="9.611007"><ele>57.75</ele><time>2026-04-07T09:26:25.345Z</time></trkpt><trkpt lat="40.3774491" lon="9.6109029"><ele>56.0</ele><time>2026-04-07T09:26:26.345Z</time></trkpt><trkpt lat="40.3775115" lon="9.6107775"><ele>56.0</ele><time>2026-04-07T09:26:27.344Z</time></trkpt><trkpt lat="40.377563" lon="9.6106409"><ele>56.0</ele><time>2026-04-07T09:26:28.345Z</time></trkpt><trkpt lat="40.3776102" lon="9.6104933"><ele>56.0</ele><time>2026-04-07T09:26:29.344Z</time></trkpt><trkpt lat="40.3776547" lon="9.6103446"><ele>56.0</ele><time>2026-04-07T09:26:30.345Z</time></trkpt><trkpt lat="40.377698" lon="9.6101916"><ele>57.25</ele><time>2026-04-07T09:26:31.345Z</time></trkpt><trkpt lat="40.3777382" lon="9.6100381"><ele>58.5</ele><time>2026-04-07T09:26:32.345Z</time></trkpt><trkpt lat="40.3777638" lon="9.6098855"><ele>59.75</ele><time>2026-04-07T09:26:33.345Z</time></trkpt><trkpt lat="40.3777772" lon="9.6097512"><ele>61.0</ele><time>2026-04-07T09:26:34.345Z</time></trkpt><trkpt lat="40.3777918" lon="9.6096153"><ele>60.8</ele><time>2026-04-07T09:26:35.345Z</time></trkpt><trkpt lat="40.3778119" lon="9.6094775"><ele>60.599999999999994</ele><time>2026-04-07T09:26:36.344Z</time></trkpt><trkpt lat="40.3778465" lon="9.6093469"><ele>60.4</ele><time>2026-04-07T09:26:37.344Z</time></trkpt><trkpt lat="40.3779035" lon="9.6092381"><ele>60.2</ele><time>2026-04-07T09:26:38.344Z</time></trkpt><trkpt lat="40.3779844" lon="9.6091495"><ele>60.0</ele><time>2026-04-07T09:26:39.345Z</time></trkpt><trkpt lat="40.378074" lon="9.6090881"><ele>56.8</ele><time>2026-04-07T09:26:40.345Z</time></trkpt><trkpt lat="40.3781752" lon="9.6090472"><ele>53.6</ele><time>2026-04-07T09:26:41.345Z</time></trkpt><trkpt lat="40.3782747" lon="9.6090284"><ele>50.400000000000006</ele><time>2026-04-07T09:26:42.344Z</time></trkpt><trkpt lat="40.3783777" lon="9.6090245"><ele>47.2</ele><time>2026-04-07T09:26:43.345Z</time></trkpt><trkpt lat="40.3784839" lon="9.6090127"><ele>44.0</ele><time>2026-04-07T09:26:44.345Z</time></trkpt><trkpt lat="40.3785897" lon="9.6089932"><ele>44.0</ele><time>2026-04-07T09:26:45.345Z</time></trkpt><trkpt lat="40.3786955" lon="9.6089654"><ele>44.0</ele><time>2026-04-07T09:26:46.344Z</time></trkpt><trkpt lat="40.3787888" lon="9.6089026"><ele>44.0</ele><time>2026-04-07T09:26:47.344Z</time></trkpt><trkpt lat="40.3788698" lon="9.6088113"><ele>44.0</ele><time>2026-04-07T09:26:48.344Z</time></trkpt><trkpt lat="40.3789364" lon="9.6087094"><ele>44.0</ele><time>2026-04-07T09:26:49.344Z</time></trkpt><trkpt lat="40.3789957" lon="9.6086006"><ele>42.800000000000004</ele><time>2026-04-07T09:26:50.345Z</time></trkpt><trkpt lat="40.3790524" lon="9.6084871"><ele>41.6</ele><time>2026-04-07T09:26:51.345Z</time></trkpt><trkpt lat="40.3791053" lon="9.6083759"><ele>40.4</ele><time>2026-04-07T09:26:52.345Z</time></trkpt><trkpt lat="40.3791614" lon="9.608272"><ele>39.2</ele><time>2026-04-07T09:26:53.345Z</time></trkpt><trkpt lat="40.3792237" lon="9.6081696"><ele>38.0</ele><time>2026-04-07T09:26:54.345Z</time></trkpt><trkpt lat="40.3793007" lon="9.608084"><ele>38.0</ele><time>2026-04-07T09:26:55.344Z</time></trkpt><trkpt lat="40.3793927" lon="9.6080113"><ele>38.0</ele><time>2026-04-07T09:26:56.345Z</time></trkpt><trkpt lat="40.3794947" lon="9.6079472"><ele>38.0</ele><time>2026-04-07T09:26:57.344Z</time></trkpt><trkpt lat="40.3795989" lon="9.6078883"><ele>38.0</ele><time>2026-04-07T09:26:58.344Z</time></trkpt><trkpt lat="40.3796998" lon="9.6078283"><ele>38.0</ele><time>2026-04-07T09:26:59.345Z</time></trkpt><trkpt lat="40.3797978" lon="9.6077722"><ele>36.8</ele><time>2026-04-07T09:27:00.345Z</time></trkpt><trkpt lat="40.3798934" lon="9.6077125"><ele>35.599999999999994</ele><time>2026-04-07T09:27:01.345Z</time></trkpt><trkpt lat="40.3799831" lon="9.6076587"><ele>34.400000000000006</ele><time>2026-04-07T09:27:02.345Z</time></trkpt><trkpt lat="40.3800697" lon="9.6076057"><ele>33.2</ele><time>2026-04-07T09:27:03.345Z</time></trkpt><trkpt lat="40.3801547" lon="9.6075516"><ele>32.0</ele><time>2026-04-07T09:27:04.345Z</time></trkpt><trkpt lat="40.3802362" lon="9.6075004"><ele>32.0</ele><time>2026-04-07T09:27:05.344Z</time></trkpt><trkpt lat="40.3803169" lon="9.6074387"><ele>32.0</ele><time>2026-04-07T09:27:06.345Z</time></trkpt><trkpt lat="40.3803912" lon="9.6073685"><ele>32.0</ele><time>2026-04-07T09:27:07.345Z</time></trkpt><trkpt lat="40.3804622" lon="9.6072943"><ele>32.0</ele><time>2026-04-07T09:27:08.345Z</time></trkpt><trkpt lat="40.3805354" lon="9.6072193"><ele>32.0</ele><time>2026-04-07T09:27:09.345Z</time></trkpt><trkpt lat="40.3806046" lon="9.6071417"><ele>31.166666666666664</ele><time>2026-04-07T09:27:10.344Z</time></trkpt><trkpt lat="40.3806739" lon="9.6070644"><ele>30.333333333333332</ele><time>2026-04-07T09:27:11.345Z</time></trkpt><trkpt lat="40.3807443" lon="9.6069944"><ele>29.5</ele><time>2026-04-07T09:27:12.344Z</time></trkpt><trkpt lat="40.3808024" lon="9.606927"><ele>28.666666666666664</ele><time>2026-04-07T09:27:13.344Z</time></trkpt><trkpt lat="40.3808594" lon="9.6068654"><ele>27.833333333333332</ele><time>2026-04-07T09:27:14.345Z</time></trkpt><trkpt lat="40.3809097" lon="9.6068146"><ele>27.0</ele><time>2026-04-07T09:27:15.344Z</time></trkpt><trkpt lat="40.3810145" lon="9.6067355"><ele>27.0</ele><time>2026-04-07T09:27:17.345Z</time></trkpt><trkpt lat="40.3810753" lon="9.6067103"><ele>27.0</ele><time>2026-04-07T09:27:18.344Z</time></trkpt><trkpt lat="40.3811957" lon="9.6066934"><ele>27.0</ele><time>2026-04-07T09:27:20.345Z</time></trkpt><trkpt lat="40.3813064" lon="9.6067201"><ele>27.0</ele><time>2026-04-07T09:27:22.345Z</time></trkpt><trkpt lat="40.3813697" lon="9.6067547"><ele>27.0</ele><time>2026-04-07T09:27:23.344Z</time></trkpt><trkpt lat="40.3814376" lon="9.606801"><ele>27.0</ele><time>2026-04-07T09:27:24.345Z</time></trkpt><trkpt lat="40.3815022" lon="9.6068683"><ele>26.5</ele><time>2026-04-07T09:27:25.345Z</time></trkpt><trkpt lat="40.3815694" lon="9.6069387"><ele>26.0</ele><time>2026-04-07T09:27:26.345Z</time></trkpt><trkpt lat="40.381637" lon="9.6070123"><ele>25.5</ele><time>2026-04-07T09:27:27.345Z</time></trkpt><trkpt lat="40.3817039" lon="9.6070924"><ele>25.0</ele><time>2026-04-07T09:27:28.345Z</time></trkpt><trkpt lat="40.381769" lon="9.6071724"><ele>24.5</ele><time>2026-04-07T09:27:29.344Z</time></trkpt><trkpt lat="40.3818361" lon="9.6072508"><ele>24.0</ele><time>2026-04-07T09:27:30.345Z</time></trkpt><trkpt lat="40.3819036" lon="9.6073314"><ele>24.0</ele><time>2026-04-07T09:27:31.345Z</time></trkpt><trkpt lat="40.3819714" lon="9.6074101"><ele>24.0</ele><time>2026-04-07T09:27:32.344Z</time></trkpt><trkpt lat="40.3820393" lon="9.6074918"><ele>24.0</ele><time>2026-04-07T09:27:33.345Z</time></trkpt><trkpt lat="40.3821151" lon="9.6075793"><ele>24.0</ele><time>2026-04-07T09:27:34.345Z</time></trkpt><trkpt lat="40.3821931" lon="9.6076681"><ele>24.0</ele><time>2026-04-07T09:27:35.345Z</time></trkpt><trkpt lat="40.3822759" lon="9.6077621"><ele>23.2</ele><time>2026-04-07T09:27:36.344Z</time></trkpt><trkpt lat="40.3823554" lon="9.6078491"><ele>22.4</ele><time>2026-04-07T09:27:37.344Z</time></trkpt><trkpt lat="40.382438" lon="9.607934"><ele>21.6</ele><time>2026-04-07T09:27:38.344Z</time></trkpt><trkpt lat="40.3825155" lon="9.6080168"><ele>20.8</ele><time>2026-04-07T09:27:39.345Z</time></trkpt><trkpt lat="40.382595" lon="9.6081004"><ele>20.0</ele><time>2026-04-07T09:27:40.345Z</time></trkpt><trkpt lat="40.3826797" lon="9.6081839"><ele>20.0</ele><time>2026-04-07T09:27:41.345Z</time></trkpt><trkpt lat="40.3827671" lon="9.608269"><ele>20.0</ele><time>2026-04-07T09:27:42.345Z</time></trkpt><trkpt lat="40.3828597" lon="9.6083579"><ele>20.0</ele><time>2026-04-07T09:27:43.345Z</time></trkpt><trkpt lat="40.3829501" lon="9.6084511"><ele>20.0</ele><time>2026-04-07T09:27:44.345Z</time></trkpt><trkpt lat="40.3830448" lon="9.6085403"><ele>19.4</ele><time>2026-04-07T09:27:45.344Z</time></trkpt><trkpt lat="40.3831333" lon="9.6086261"><ele>18.8</ele><time>2026-04-07T09:27:46.344Z</time></trkpt><trkpt lat="40.383221" lon="9.6087132"><ele>18.2</ele><time>2026-04-07T09:27:47.345Z</time></trkpt><trkpt lat="40.3833104" lon="9.6087982"><ele>17.6</ele><time>2026-04-07T09:27:48.345Z</time></trkpt><trkpt lat="40.3834015" lon="9.6088849"><ele>17.0</ele><time>2026-04-07T09:27:49.345Z</time></trkpt><trkpt lat="40.383491" lon="9.6089716"><ele>17.0</ele><time>2026-04-07T09:27:50.345Z</time></trkpt><trkpt lat="40.3835807" lon="9.6090646"><ele>17.0</ele><time>2026-04-07T09:27:51.345Z</time></trkpt><trkpt lat="40.3836747" lon="9.6091559"><ele>17.0</ele><time>2026-04-07T09:27:52.344Z</time></trkpt><trkpt lat="40.3837683" lon="9.6092514"><ele>17.0</ele><time>2026-04-07T09:27:53.344Z</time></trkpt><trkpt lat="40.383869" lon="9.6093422"><ele>16.75</ele><time>2026-04-07T09:27:54.345Z</time></trkpt><trkpt lat="40.3839668" lon="9.6094353"><ele>16.5</ele><time>2026-04-07T09:27:55.345Z</time></trkpt><trkpt lat="40.3840717" lon="9.6095285"><ele>16.25</ele><time>2026-04-07T09:27:56.344Z</time></trkpt><trkpt lat="40.3841736" lon="9.6096297"><ele>16.0</ele><time>2026-04-07T09:27:57.345Z</time></trkpt><trkpt lat="40.3842826" lon="9.6097353"><ele>16.0</ele><time>2026-04-07T09:27:58.345Z</time></trkpt><trkpt lat="40.3843901" lon="9.6098405"><ele>16.0</ele><time>2026-04-07T09:27:59.345Z</time></trkpt><trkpt lat="40.384504" lon="9.6099483"><ele>16.0</ele><time>2026-04-07T09:28:00.345Z</time></trkpt><trkpt lat="40.3846117" lon="9.6100483"><ele>16.0</ele><time>2026-04-07T09:28:01.345Z</time></trkpt><trkpt lat="40.3847213" lon="9.6101519"><ele>16.25</ele><time>2026-04-07T09:28:02.345Z</time></trkpt><trkpt lat="40.3848268" lon="9.6102544"><ele>16.5</ele><time>2026-04-07T09:28:03.344Z</time></trkpt><trkpt lat="40.3849278" lon="9.610354"><ele>16.75</ele><time>2026-04-07T09:28:04.344Z</time></trkpt><trkpt lat="40.3850268" lon="9.6104527"><ele>17.0</ele><time>2026-04-07T09:28:05.345Z</time></trkpt><trkpt lat="40.385124" lon="9.6105518"><ele>17.0</ele><time>2026-04-07T09:28:06.344Z</time></trkpt><trkpt lat="40.3852163" lon="9.6106359"><ele>17.0</ele><time>2026-04-07T09:28:07.345Z</time></trkpt><trkpt lat="40.3853059" lon="9.6107212"><ele>17.0</ele><time>2026-04-07T09:28:08.345Z</time></trkpt><trkpt lat="40.3853887" lon="9.610802"><ele>17.0</ele><time>2026-04-07T09:28:09.345Z</time></trkpt><trkpt lat="40.3854637" lon="9.6108782"><ele>17.0</ele><time>2026-04-07T09:28:10.345Z</time></trkpt><trkpt lat="40.3855349" lon="9.6109514"><ele>16.833333333333336</ele><time>2026-04-07T09:28:11.345Z</time></trkpt><trkpt lat="40.3856039" lon="9.6110198"><ele>16.666666666666668</ele><time>2026-04-07T09:28:12.344Z</time></trkpt><trkpt lat="40.3856719" lon="9.6110786"><ele>16.5</ele><time>2026-04-07T09:28:13.345Z</time></trkpt><trkpt lat="40.3857343" lon="9.61114"><ele>16.333333333333332</ele><time>2026-04-07T09:28:14.345Z</time></trkpt><trkpt lat="40.385799" lon="9.6112043"><ele>16.166666666666664</ele><time>2026-04-07T09:28:15.344Z</time></trkpt><trkpt lat="40.3858653" lon="9.6112661"><ele>16.0</ele><time>2026-04-07T09:28:16.345Z</time></trkpt><trkpt lat="40.3859265" lon="9.6113274"><ele>16.0</ele><time>2026-04-07T09:28:17.345Z</time></trkpt><trkpt lat="40.3859817" lon="9.6113797"><ele>16.0</ele><time>2026-04-07T09:28:18.345Z</time></trkpt><trkpt lat="40.3860375" lon="9.6114331"><ele>16.0</ele><time>2026-04-07T09:28:19.345Z</time></trkpt><trkpt lat="40.3861309" lon="9.6115287"><ele>16.0</ele><time>2026-04-07T09:28:21.345Z</time></trkpt><trkpt lat="40.3862202" lon="9.611615"><ele>16.0</ele><time>2026-04-07T09:28:23.345Z</time></trkpt><trkpt lat="40.3862993" lon="9.6117013"><ele>16.0</ele><time>2026-04-07T09:28:25.344Z</time></trkpt><trkpt lat="40.3863742" lon="9.6117797"><ele>16.0</ele><time>2026-04-07T09:28:27.345Z</time></trkpt><trkpt lat="40.3864502" lon="9.6118666"><ele>16.0</ele><time>2026-04-07T09:28:29.345Z</time></trkpt><trkpt lat="40.3865294" lon="9.6119486"><ele>16.0</ele><time>2026-04-07T09:28:31.344Z</time></trkpt><trkpt lat="40.386616" lon="9.6120305"><ele>16.0</ele><time>2026-04-07T09:28:33.345Z</time></trkpt><trkpt lat="40.3867074" lon="9.6121349"><ele>15.999999999999998</ele><time>2026-04-07T09:28:35.344Z</time></trkpt><trkpt lat="40.3867646" lon="9.6122082"><ele>16.0</ele><time>2026-04-07T09:28:37.345Z</time></trkpt><trkpt lat="40.3868185" lon="9.6122814"><ele>16.0</ele><time>2026-04-07T09:28:45.345Z</time></trkpt><trkpt lat="40.3868978" lon="9.6123731"><ele>16.0</ele><time>2026-04-07T09:28:47.344Z</time></trkpt><trkpt lat="40.3869448" lon="9.6124388"><ele>15.999999999999998</ele><time>2026-04-07T09:28:48.345Z</time></trkpt><trkpt lat="40.3869878" lon="9.6125"><ele>16.0</ele><time>2026-04-07T09:28:49.345Z</time></trkpt><trkpt lat="40.3870323" lon="9.6125644"><ele>15.999999999999998</ele><time>2026-04-07T09:28:50.345Z</time></trkpt><trkpt lat="40.3870839" lon="9.6126277"><ele>16.0</ele><time>2026-04-07T09:28:51.345Z</time></trkpt><trkpt lat="40.387137" lon="9.6127014"><ele>16.0</ele><time>2026-04-07T09:28:52.345Z</time></trkpt><trkpt lat="40.3871904" lon="9.6127794"><ele>16.0</ele><time>2026-04-07T09:28:53.344Z</time></trkpt><trkpt lat="40.3872443" lon="9.6128603"><ele>15.999999999999998</ele><time>2026-04-07T09:28:54.345Z</time></trkpt><trkpt lat="40.3872974" lon="9.6129548"><ele>16.0</ele><time>2026-04-07T09:28:55.344Z</time></trkpt><trkpt lat="40.3873485" lon="9.6130614"><ele>16.2</ele><time>2026-04-07T09:28:56.345Z</time></trkpt><trkpt lat="40.3874036" lon="9.613164"><ele>16.400000000000002</ele><time>2026-04-07T09:28:57.344Z</time></trkpt><trkpt lat="40.3874658" lon="9.6132751"><ele>16.6</ele><time>2026-04-07T09:28:58.345Z</time></trkpt><trkpt lat="40.3875246" lon="9.6133949"><ele>16.8</ele><time>2026-04-07T09:28:59.345Z</time></trkpt><trkpt lat="40.3875842" lon="9.6135226"><ele>17.0</ele><time>2026-04-07T09:29:00.344Z</time></trkpt><trkpt lat="40.3876482" lon="9.613654"><ele>17.5</ele><time>2026-04-07T09:29:01.345Z</time></trkpt><trkpt lat="40.3877057" lon="9.613796"><ele>18.0</ele><time>2026-04-07T09:29:02.344Z</time></trkpt><trkpt lat="40.3877667" lon="9.6139367"><ele>18.5</ele><time>2026-04-07T09:29:03.345Z</time></trkpt><trkpt lat="40.3878257" lon="9.6140801"><ele>19.0</ele><time>2026-04-07T09:29:04.345Z</time></trkpt><trkpt lat="40.3878857" lon="9.6142222"><ele>19.0</ele><time>2026-04-07T09:29:05.345Z</time></trkpt><trkpt lat="40.3879393" lon="9.6143721"><ele>19.0</ele><time>2026-04-07T09:29:06.345Z</time></trkpt><trkpt lat="40.3879905" lon="9.6145238"><ele>19.0</ele><time>2026-04-07T09:29:07.345Z</time></trkpt><trkpt lat="40.3880396" lon="9.6146591"><ele>19.0</ele><time>2026-04-07T09:29:08.344Z</time></trkpt><trkpt lat="40.3880819" lon="9.6147942"><ele>18.75</ele><time>2026-04-07T09:29:09.344Z</time></trkpt><trkpt lat="40.3881211" lon="9.6149314"><ele>18.5</ele><time>2026-04-07T09:29:10.345Z</time></trkpt><trkpt lat="40.3881604" lon="9.6150672"><ele>18.25</ele><time>2026-04-07T09:29:11.344Z</time></trkpt><trkpt lat="40.3882005" lon="9.6152064"><ele>18.0</ele><time>2026-04-07T09:29:12.345Z</time></trkpt><trkpt lat="40.3882395" lon="9.6153537"><ele>18.0</ele><time>2026-04-07T09:29:13.345Z</time></trkpt><trkpt lat="40.388278" lon="9.6155079"><ele>18.0</ele><time>2026-04-07T09:29:14.345Z</time></trkpt><trkpt lat="40.3883168" lon="9.6156643"><ele>18.0</ele><time>2026-04-07T09:29:15.345Z</time></trkpt><trkpt lat="40.3883611" lon="9.6158191"><ele>18.0</ele><time>2026-04-07T09:29:16.345Z</time></trkpt><trkpt lat="40.3884124" lon="9.6159736"><ele>18.0</ele><time>2026-04-07T09:29:17.345Z</time></trkpt><trkpt lat="40.3884559" lon="9.6161215"><ele>18.0</ele><time>2026-04-07T09:29:18.344Z</time></trkpt><trkpt lat="40.388497" lon="9.616275"><ele>18.0</ele><time>2026-04-07T09:29:19.345Z</time></trkpt><trkpt lat="40.38854" lon="9.6164317"><ele>18.0</ele><time>2026-04-07T09:29:20.345Z</time></trkpt><trkpt lat="40.3885906" lon="9.6165933"><ele>18.25</ele><time>2026-04-07T09:29:21.345Z</time></trkpt><trkpt lat="40.3886409" lon="9.6167607"><ele>18.5</ele><time>2026-04-07T09:29:22.345Z</time></trkpt><trkpt lat="40.388685" lon="9.6169357"><ele>18.75</ele><time>2026-04-07T09:29:23.345Z</time></trkpt><trkpt lat="40.3887332" lon="9.6171096"><ele>19.0</ele><time>2026-04-07T09:29:24.344Z</time></trkpt><trkpt lat="40.3887936" lon="9.6172862"><ele>17.5</ele><time>2026-04-07T09:29:25.344Z</time></trkpt><trkpt lat="40.3888518" lon="9.6174612"><ele>16.0</ele><time>2026-04-07T09:29:26.345Z</time></trkpt><trkpt lat="40.3889098" lon="9.6176389"><ele>14.5</ele><time>2026-04-07T09:29:27.345Z</time></trkpt><trkpt lat="40.3889723" lon="9.6178092"><ele>13.0</ele><time>2026-04-07T09:29:28.345Z</time></trkpt><trkpt lat="40.3890389" lon="9.6179769"><ele>13.0</ele><time>2026-04-07T09:29:29.345Z</time></trkpt><trkpt lat="40.3891134" lon="9.6181425"><ele>13.0</ele><time>2026-04-07T09:29:30.345Z</time></trkpt><trkpt lat="40.3891813" lon="9.6183168"><ele>13.0</ele><time>2026-04-07T09:29:31.345Z</time></trkpt><trkpt lat="40.3892569" lon="9.6184932"><ele>13.0</ele><time>2026-04-07T09:29:32.345Z</time></trkpt><trkpt lat="40.389339" lon="9.6186686"><ele>13.0</ele><time>2026-04-07T09:29:33.345Z</time></trkpt><trkpt lat="40.389423" lon="9.6188542"><ele>13.0</ele><time>2026-04-07T09:29:34.345Z</time></trkpt><trkpt lat="40.3895084" lon="9.6190389"><ele>13.0</ele><time>2026-04-07T09:29:35.345Z</time></trkpt><trkpt lat="40.3895942" lon="9.6192291"><ele>13.0</ele><time>2026-04-07T09:29:36.344Z</time></trkpt><trkpt lat="40.3896805" lon="9.6194268"><ele>13.0</ele><time>2026-04-07T09:29:37.345Z</time></trkpt><trkpt lat="40.3897684" lon="9.6196236"><ele>12.666666666666666</ele><time>2026-04-07T09:29:38.344Z</time></trkpt><trkpt lat="40.3898574" lon="9.6198255"><ele>12.333333333333332</ele><time>2026-04-07T09:29:39.345Z</time></trkpt><trkpt lat="40.3899496" lon="9.6200275"><ele>12.0</ele><time>2026-04-07T09:29:40.344Z</time></trkpt><trkpt lat="40.3900366" lon="9.6202176"><ele>11.666666666666666</ele><time>2026-04-07T09:29:41.344Z</time></trkpt><trkpt lat="40.390125" lon="9.620408"><ele>11.333333333333332</ele><time>2026-04-07T09:29:42.344Z</time></trkpt><trkpt lat="40.3902108" lon="9.6205989"><ele>11.0</ele><time>2026-04-07T09:29:43.344Z</time></trkpt><trkpt lat="40.3902963" lon="9.6207913"><ele>11.0</ele><time>2026-04-07T09:29:44.344Z</time></trkpt><trkpt lat="40.3903852" lon="9.6209859"><ele>11.0</ele><time>2026-04-07T09:29:45.345Z</time></trkpt><trkpt lat="40.3904735" lon="9.6211801"><ele>11.0</ele><time>2026-04-07T09:29:46.344Z</time></trkpt><trkpt lat="40.3905629" lon="9.621382"><ele>10.666666666666666</ele><time>2026-04-07T09:29:47.344Z</time></trkpt><trkpt lat="40.3906546" lon="9.6215816"><ele>10.333333333333334</ele><time>2026-04-07T09:29:48.345Z</time></trkpt><trkpt lat="40.3907494" lon="9.6217847"><ele>10.0</ele><time>2026-04-07T09:29:49.345Z</time></trkpt><trkpt lat="40.390843" lon="9.621992"><ele>11.0</ele><time>2026-04-07T09:29:50.344Z</time></trkpt><trkpt lat="40.3909384" lon="9.6222"><ele>12.0</ele><time>2026-04-07T09:29:51.345Z</time></trkpt><trkpt lat="40.3910333" lon="9.622414"><ele>13.0</ele><time>2026-04-07T09:29:52.345Z</time></trkpt><trkpt lat="40.3911268" lon="9.6226203"><ele>12.666666666666666</ele><time>2026-04-07T09:29:53.345Z</time></trkpt><trkpt lat="40.391216" lon="9.6228176"><ele>12.333333333333332</ele><time>2026-04-07T09:29:54.345Z</time></trkpt><trkpt lat="40.391304" lon="9.6230103"><ele>12.0</ele><time>2026-04-07T09:29:55.345Z</time></trkpt><trkpt lat="40.3913889" lon="9.6232046"><ele>12.0</ele><time>2026-04-07T09:29:56.344Z</time></trkpt><trkpt lat="40.391478" lon="9.6233968"><ele>12.0</ele><time>2026-04-07T09:29:57.345Z</time></trkpt><trkpt lat="40.3915695" lon="9.623591"><ele>12.0</ele><time>2026-04-07T09:29:58.345Z</time></trkpt><trkpt lat="40.3916598" lon="9.6237856"><ele>12.0</ele><time>2026-04-07T09:29:59.344Z</time></trkpt><trkpt lat="40.3917505" lon="9.6239832"><ele>12.0</ele><time>2026-04-07T09:30:00.344Z</time></trkpt><trkpt lat="40.3918399" lon="9.624184"><ele>12.0</ele><time>2026-04-07T09:30:01.344Z</time></trkpt><trkpt lat="40.3919299" lon="9.6243819"><ele>11.0</ele><time>2026-04-07T09:30:02.345Z</time></trkpt><trkpt lat="40.3920207" lon="9.624586"><ele>10.0</ele><time>2026-04-07T09:30:03.344Z</time></trkpt><trkpt lat="40.392111" lon="9.6247975"><ele>9.0</ele><time>2026-04-07T09:30:04.345Z</time></trkpt><trkpt lat="40.3922036" lon="9.625008"><ele>9.0</ele><time>2026-04-07T09:30:05.345Z</time></trkpt><trkpt lat="40.3922973" lon="9.6252151"><ele>9.0</ele><time>2026-04-07T09:30:06.344Z</time></trkpt><trkpt lat="40.392392" lon="9.6254174"><ele>9.0</ele><time>2026-04-07T09:30:07.345Z</time></trkpt><trkpt lat="40.3924882" lon="9.6256162"><ele>9.0</ele><time>2026-04-07T09:30:08.344Z</time></trkpt><trkpt lat="40.3925801" lon="9.6258138"><ele>9.0</ele><time>2026-04-07T09:30:09.345Z</time></trkpt><trkpt lat="40.3926674" lon="9.6260109"><ele>9.0</ele><time>2026-04-07T09:30:10.344Z</time></trkpt><trkpt lat="40.3927537" lon="9.6262053"><ele>9.0</ele><time>2026-04-07T09:30:11.345Z</time></trkpt><trkpt lat="40.3928395" lon="9.6263957"><ele>9.0</ele><time>2026-04-07T09:30:12.345Z</time></trkpt><trkpt lat="40.3929265" lon="9.6265839"><ele>9.0</ele><time>2026-04-07T09:30:13.345Z</time></trkpt><trkpt lat="40.3930121" lon="9.6267706"><ele>9.0</ele><time>2026-04-07T09:30:14.344Z</time></trkpt><trkpt lat="40.3931017" lon="9.626966"><ele>9.0</ele><time>2026-04-07T09:30:15.345Z</time></trkpt><trkpt lat="40.3931912" lon="9.6271618"><ele>9.0</ele><time>2026-04-07T09:30:16.344Z</time></trkpt><trkpt lat="40.3932817" lon="9.6273602"><ele>9.333333333333334</ele><time>2026-04-07T09:30:17.345Z</time></trkpt><trkpt lat="40.3933765" lon="9.6275586"><ele>9.666666666666668</ele><time>2026-04-07T09:30:18.345Z</time></trkpt><trkpt lat="40.3934681" lon="9.6277607"><ele>10.0</ele><time>2026-04-07T09:30:19.344Z</time></trkpt><trkpt lat="40.3935634" lon="9.6279658"><ele>9.333333333333334</ele><time>2026-04-07T09:30:20.345Z</time></trkpt><trkpt lat="40.3936574" lon="9.6281698"><ele>8.666666666666666</ele><time>2026-04-07T09:30:21.345Z</time></trkpt><trkpt lat="40.39375" lon="9.6283764"><ele>8.0</ele><time>2026-04-07T09:30:22.345Z</time></trkpt><trkpt lat="40.3938435" lon="9.6285858"><ele>8.333333333333332</ele><time>2026-04-07T09:30:23.344Z</time></trkpt><trkpt lat="40.3939361" lon="9.6287958"><ele>8.666666666666666</ele><time>2026-04-07T09:30:24.345Z</time></trkpt><trkpt lat="40.3940266" lon="9.6290078"><ele>9.0</ele><time>2026-04-07T09:30:25.345Z</time></trkpt><trkpt lat="40.3941127" lon="9.6292196"><ele>9.0</ele><time>2026-04-07T09:30:26.345Z</time></trkpt><trkpt lat="40.3941965" lon="9.6294425"><ele>9.0</ele><time>2026-04-07T09:30:27.345Z</time></trkpt><trkpt lat="40.3942727" lon="9.6296644"><ele>9.0</ele><time>2026-04-07T09:30:28.345Z</time></trkpt><trkpt lat="40.394343" lon="9.6298888"><ele>10.333333333333332</ele><time>2026-04-07T09:30:29.344Z</time></trkpt><trkpt lat="40.3944037" lon="9.630114"><ele>11.666666666666666</ele><time>2026-04-07T09:30:30.345Z</time></trkpt><trkpt lat="40.3944619" lon="9.6303349"><ele>13.0</ele><time>2026-04-07T09:30:31.345Z</time></trkpt><trkpt lat="40.3945139" lon="9.6305536"><ele>13.333333333333332</ele><time>2026-04-07T09:30:32.345Z</time></trkpt><trkpt lat="40.394561" lon="9.6307652"><ele>13.666666666666668</ele><time>2026-04-07T09:30:33.344Z</time></trkpt><trkpt lat="40.3946005" lon="9.6309807"><ele>14.0</ele><time>2026-04-07T09:30:34.345Z</time></trkpt><trkpt lat="40.394639" lon="9.6311942"><ele>12.333333333333334</ele><time>2026-04-07T09:30:35.345Z</time></trkpt><trkpt lat="40.3946717" lon="9.6313969"><ele>10.666666666666668</ele><time>2026-04-07T09:30:36.345Z</time></trkpt><trkpt lat="40.3947051" lon="9.631596"><ele>9.0</ele><time>2026-04-07T09:30:37.345Z</time></trkpt><trkpt lat="40.3947341" lon="9.6317832"><ele>9.0</ele><time>2026-04-07T09:30:38.345Z</time></trkpt><trkpt lat="40.3947599" lon="9.6319546"><ele>9.0</ele><time>2026-04-07T09:30:39.345Z</time></trkpt><trkpt lat="40.3947855" lon="9.6321107"><ele>9.0</ele><time>2026-04-07T09:30:40.345Z</time></trkpt><trkpt lat="40.3948084" lon="9.632255"><ele>9.0</ele><time>2026-04-07T09:30:41.345Z</time></trkpt><trkpt lat="40.39483" lon="9.6323834"><ele>9.0</ele><time>2026-04-07T09:30:42.345Z</time></trkpt><trkpt lat="40.39485" lon="9.6325045"><ele>9.0</ele><time>2026-04-07T09:30:43.344Z</time></trkpt><trkpt lat="40.3948706" lon="9.6326062"><ele>9.0</ele><time>2026-04-07T09:30:44.344Z</time></trkpt><trkpt lat="40.3948885" lon="9.6326935"><ele>9.0</ele><time>2026-04-07T09:30:45.345Z</time></trkpt><trkpt lat="40.3948627" lon="9.6328217"><ele>9.0</ele><time>2026-04-07T09:30:47.345Z</time></trkpt><trkpt lat="40.3948104" lon="9.6328992"><ele>9.0</ele><time>2026-04-07T09:30:50.345Z</time></trkpt><trkpt lat="40.3947961" lon="9.6329819"><ele>9.142857142857144</ele><time>2026-04-07T09:30:54.345Z</time></trkpt><trkpt lat="40.3947932" lon="9.633088"><ele>9.285714285714286</ele><time>2026-04-07T09:33:53.345Z</time></trkpt><trkpt lat="40.3947308" lon="9.633147"><ele>9.428571428571429</ele><time>2026-04-07T09:33:57.345Z</time></trkpt><trkpt lat="40.3946592" lon="9.6331524"><ele>9.571428571428573</ele><time>2026-04-07T09:34:00.344Z</time></trkpt><trkpt lat="40.3945967" lon="9.6331356"><ele>9.714285714285715</ele><time>2026-04-07T09:36:42.345Z</time></trkpt><trkpt lat="40.3945922" lon="9.633048"><ele>9.857142857142858</ele><time>2026-04-07T09:36:44.345Z</time></trkpt><trkpt lat="40.3946363" lon="9.6329791"><ele>10.0</ele><time>2026-04-07T09:36:46.345Z</time></trkpt><trkpt lat="40.3946997" lon="9.6329308"><ele>10.0</ele><time>2026-04-07T09:36:48.345Z</time></trkpt><trkpt lat="40.3947604" lon="9.6328956"><ele>10.0</ele><time>2026-04-07T09:36:50.345Z</time></trkpt><trkpt lat="40.3948331" lon="9.6328762"><ele>10.0</ele><time>2026-04-07T09:36:53.344Z</time></trkpt><trkpt lat="40.3949073" lon="9.6328584"><ele>10.0</ele><time>2026-04-07T09:37:18.345Z</time></trkpt><trkpt lat="40.3949481" lon="9.6327888"><ele>10.0</ele><time>2026-04-07T09:37:20.345Z</time></trkpt><trkpt lat="40.3949492" lon="9.6326835"><ele>10.0</ele><time>2026-04-07T09:37:22.345Z</time></trkpt><trkpt lat="40.3949148" lon="9.6326106"><ele>10.0</ele><time>2026-04-07T09:37:23.344Z</time></trkpt><trkpt lat="40.3948922" lon="9.6324546"><ele>9.833333333333334</ele><time>2026-04-07T09:37:25.344Z</time></trkpt><trkpt lat="40.3948763" lon="9.6323633"><ele>9.666666666666668</ele><time>2026-04-07T09:37:26.344Z</time></trkpt><trkpt lat="40.3948595" lon="9.632272"><ele>9.5</ele><time>2026-04-07T09:37:27.345Z</time></trkpt><trkpt lat="40.3948453" lon="9.6321731"><ele>9.333333333333334</ele><time>2026-04-07T09:37:28.345Z</time></trkpt><trkpt lat="40.3948277" lon="9.6320723"><ele>9.166666666666666</ele><time>2026-04-07T09:37:29.344Z</time></trkpt><trkpt lat="40.3948106" lon="9.631964"><ele>9.0</ele><time>2026-04-07T09:37:30.344Z</time></trkpt><trkpt lat="40.3947903" lon="9.6318539"><ele>9.0</ele><time>2026-04-07T09:37:31.345Z</time></trkpt><trkpt lat="40.3947708" lon="9.631737"><ele>9.0</ele><time>2026-04-07T09:37:32.345Z</time></trkpt><trkpt lat="40.3947553" lon="9.6316258"><ele>9.0</ele><time>2026-04-07T09:37:33.345Z</time></trkpt><trkpt lat="40.3947349" lon="9.6315277"><ele>9.0</ele><time>2026-04-07T09:37:34.344Z</time></trkpt><trkpt lat="40.3947179" lon="9.6314217"><ele>9.0</ele><time>2026-04-07T09:37:35.345Z</time></trkpt><trkpt lat="40.3946969" lon="9.6313136"><ele>9.0</ele><time>2026-04-07T09:37:36.345Z</time></trkpt><trkpt lat="40.394682" lon="9.6312028"><ele>10.0</ele><time>2026-04-07T09:37:37.345Z</time></trkpt><trkpt lat="40.3946573" lon="9.6310841"><ele>11.0</ele><time>2026-04-07T09:37:38.345Z</time></trkpt><trkpt lat="40.3946344" lon="9.6309573"><ele>11.999999999999998</ele><time>2026-04-07T09:37:39.345Z</time></trkpt><trkpt lat="40.3946079" lon="9.630823"><ele>13.0</ele><time>2026-04-07T09:37:40.344Z</time></trkpt><trkpt lat="40.3945799" lon="9.6306833"><ele>14.0</ele><time>2026-04-07T09:37:41.344Z</time></trkpt><trkpt lat="40.3945457" lon="9.6305322"><ele>14.0</ele><time>2026-04-07T09:37:42.345Z</time></trkpt><trkpt lat="40.3945081" lon="9.630372"><ele>14.0</ele><time>2026-04-07T09:37:43.344Z</time></trkpt><trkpt lat="40.3944583" lon="9.6301829"><ele>14.0</ele><time>2026-04-07T09:37:44.344Z</time></trkpt><trkpt lat="40.3943939" lon="9.6299671"><ele>13.666666666666668</ele><time>2026-04-07T09:37:45.345Z</time></trkpt><trkpt lat="40.3943188" lon="9.6297258"><ele>13.333333333333332</ele><time>2026-04-07T09:37:46.344Z</time></trkpt><trkpt lat="40.3942309" lon="9.6294719"><ele>13.0</ele><time>2026-04-07T09:37:47.344Z</time></trkpt><trkpt lat="40.3941318" lon="9.6292165"><ele>11.666666666666666</ele><time>2026-04-07T09:37:48.345Z</time></trkpt><trkpt lat="40.3940285" lon="9.6289659"><ele>10.333333333333332</ele><time>2026-04-07T09:37:49.345Z</time></trkpt><trkpt lat="40.3939264" lon="9.6287274"><ele>9.0</ele><time>2026-04-07T09:37:50.345Z</time></trkpt><trkpt lat="40.3938261" lon="9.628502"><ele>8.666666666666666</ele><time>2026-04-07T09:37:51.345Z</time></trkpt><trkpt lat="40.39373" lon="9.6282927"><ele>8.333333333333332</ele><time>2026-04-07T09:37:52.344Z</time></trkpt><trkpt lat="40.39364" lon="9.6280951"><ele>8.0</ele><time>2026-04-07T09:37:53.345Z</time></trkpt><trkpt lat="40.393558" lon="9.6279078"><ele>8.5</ele><time>2026-04-07T09:37:54.345Z</time></trkpt><trkpt lat="40.3934813" lon="9.6277374"><ele>9.0</ele><time>2026-04-07T09:37:55.345Z</time></trkpt><trkpt lat="40.3934046" lon="9.6275778"><ele>9.5</ele><time>2026-04-07T09:37:56.344Z</time></trkpt><trkpt lat="40.3933429" lon="9.6274452"><ele>10.0</ele><time>2026-04-07T09:37:57.344Z</time></trkpt><trkpt lat="40.3932883" lon="9.6273261"><ele>10.0</ele><time>2026-04-07T09:37:58.345Z</time></trkpt><trkpt lat="40.3932337" lon="9.6272027"><ele>10.0</ele><time>2026-04-07T09:37:59.345Z</time></trkpt><trkpt lat="40.3931754" lon="9.6270643"><ele>10.0</ele><time>2026-04-07T09:38:00.345Z</time></trkpt><trkpt lat="40.3931111" lon="9.6269239"><ele>10.0</ele><time>2026-04-07T09:38:01.345Z</time></trkpt><trkpt lat="40.3930454" lon="9.626767"><ele>10.0</ele><time>2026-04-07T09:38:02.345Z</time></trkpt><trkpt lat="40.3929703" lon="9.6265997"><ele>10.0</ele><time>2026-04-07T09:38:03.345Z</time></trkpt><trkpt lat="40.3928869" lon="9.6264219"><ele>10.0</ele><time>2026-04-07T09:38:04.344Z</time></trkpt><trkpt lat="40.3928033" lon="9.6262356"><ele>9.666666666666668</ele><time>2026-04-07T09:38:05.345Z</time></trkpt><trkpt lat="40.3927171" lon="9.6260426"><ele>9.333333333333334</ele><time>2026-04-07T09:38:06.345Z</time></trkpt><trkpt lat="40.3926253" lon="9.6258375"><ele>9.0</ele><time>2026-04-07T09:38:07.345Z</time></trkpt><trkpt lat="40.3925329" lon="9.6256301"><ele>9.0</ele><time>2026-04-07T09:38:08.344Z</time></trkpt><trkpt lat="40.3924382" lon="9.6254225"><ele>9.0</ele><time>2026-04-07T09:38:09.345Z</time></trkpt><trkpt lat="40.3923459" lon="9.6252237"><ele>9.0</ele><time>2026-04-07T09:38:10.344Z</time></trkpt><trkpt lat="40.3922534" lon="9.6250199"><ele>9.0</ele><time>2026-04-07T09:38:11.345Z</time></trkpt><trkpt lat="40.3921675" lon="9.6248194"><ele>9.0</ele><time>2026-04-07T09:38:12.345Z</time></trkpt><trkpt lat="40.3920773" lon="9.6246188"><ele>9.0</ele><time>2026-04-07T09:38:13.344Z</time></trkpt><trkpt lat="40.3919912" lon="9.6244181"><ele>10.0</ele><time>2026-04-07T09:38:14.345Z</time></trkpt><trkpt lat="40.3919003" lon="9.6242198"><ele>11.0</ele><time>2026-04-07T09:38:15.345Z</time></trkpt><trkpt lat="40.3918094" lon="9.6240194"><ele>12.0</ele><time>2026-04-07T09:38:16.345Z</time></trkpt><trkpt lat="40.3917184" lon="9.6238179"><ele>11.666666666666666</ele><time>2026-04-07T09:38:17.345Z</time></trkpt><trkpt lat="40.3916249" lon="9.6236174"><ele>11.333333333333332</ele><time>2026-04-07T09:38:18.345Z</time></trkpt><trkpt lat="40.3915313" lon="9.6234123"><ele>11.0</ele><time>2026-04-07T09:38:19.344Z</time></trkpt><trkpt lat="40.3914398" lon="9.6232025"><ele>11.0</ele><time>2026-04-07T09:38:20.345Z</time></trkpt><trkpt lat="40.3913497" lon="9.6229933"><ele>11.0</ele><time>2026-04-07T09:38:21.345Z</time></trkpt><trkpt lat="40.3912581" lon="9.622786"><ele>11.0</ele><time>2026-04-07T09:38:22.344Z</time></trkpt><trkpt lat="40.391163" lon="9.6225796"><ele>10.666666666666666</ele><time>2026-04-07T09:38:23.344Z</time></trkpt><trkpt lat="40.3910663" lon="9.6223739"><ele>10.333333333333334</ele><time>2026-04-07T09:38:24.344Z</time></trkpt><trkpt lat="40.3909705" lon="9.6221669"><ele>10.0</ele><time>2026-04-07T09:38:25.345Z</time></trkpt><trkpt lat="40.3908749" lon="9.6219553"><ele>10.0</ele><time>2026-04-07T09:38:26.345Z</time></trkpt><trkpt lat="40.3907792" lon="9.6217413"><ele>10.0</ele><time>2026-04-07T09:38:27.344Z</time></trkpt><trkpt lat="40.3906823" lon="9.6215273"><ele>10.0</ele><time>2026-04-07T09:38:28.345Z</time></trkpt><trkpt lat="40.3905855" lon="9.6213158"><ele>10.333333333333334</ele><time>2026-04-07T09:38:29.345Z</time></trkpt><trkpt lat="40.3904879" lon="9.6211"><ele>10.666666666666666</ele><time>2026-04-07T09:38:30.344Z</time></trkpt><trkpt lat="40.3903906" lon="9.6208841"><ele>11.0</ele><time>2026-04-07T09:38:31.345Z</time></trkpt><trkpt lat="40.3902925" lon="9.6206729"><ele>11.0</ele><time>2026-04-07T09:38:32.344Z</time></trkpt><trkpt lat="40.3901962" lon="9.6204628"><ele>11.0</ele><time>2026-04-07T09:38:33.345Z</time></trkpt><trkpt lat="40.3901001" lon="9.6202496"><ele>11.0</ele><time>2026-04-07T09:38:34.345Z</time></trkpt><trkpt lat="40.3900044" lon="9.6200363"><ele>11.333333333333332</ele><time>2026-04-07T09:38:35.345Z</time></trkpt><trkpt lat="40.3899094" lon="9.6198287"><ele>11.666666666666666</ele><time>2026-04-07T09:38:36.344Z</time></trkpt><trkpt lat="40.3898181" lon="9.6196306"><ele>12.0</ele><time>2026-04-07T09:38:37.345Z</time></trkpt><trkpt lat="40.3897298" lon="9.6194367"><ele>12.333333333333332</ele><time>2026-04-07T09:38:38.344Z</time></trkpt><trkpt lat="40.3896428" lon="9.6192492"><ele>12.666666666666666</ele><time>2026-04-07T09:38:39.344Z</time></trkpt><trkpt lat="40.3895577" lon="9.6190625"><ele>13.0</ele><time>2026-04-07T09:38:40.344Z</time></trkpt><trkpt lat="40.3894756" lon="9.618876"><ele>13.0</ele><time>2026-04-07T09:38:41.344Z</time></trkpt><trkpt lat="40.3893953" lon="9.6186955"><ele>13.0</ele><time>2026-04-07T09:38:42.344Z</time></trkpt><trkpt lat="40.3893121" lon="9.6185157"><ele>13.0</ele><time>2026-04-07T09:38:43.344Z</time></trkpt><trkpt lat="40.389233" lon="9.6183511"><ele>13.0</ele><time>2026-04-07T09:38:44.345Z</time></trkpt><trkpt lat="40.3891611" lon="9.618203"><ele>13.0</ele><time>2026-04-07T09:38:45.345Z</time></trkpt><trkpt lat="40.3890981" lon="9.6180579"><ele>13.0</ele><time>2026-04-07T09:38:46.345Z</time></trkpt><trkpt lat="40.3890408" lon="9.6179223"><ele>13.0</ele><time>2026-04-07T09:38:47.344Z</time></trkpt><trkpt lat="40.3889931" lon="9.6177976"><ele>12.833333333333332</ele><time>2026-04-07T09:38:48.344Z</time></trkpt><trkpt lat="40.3889509" lon="9.6176877"><ele>12.666666666666666</ele><time>2026-04-07T09:38:49.345Z</time></trkpt><trkpt lat="40.3889148" lon="9.6175855"><ele>12.5</ele><time>2026-04-07T09:38:50.345Z</time></trkpt><trkpt lat="40.3888834" lon="9.6174921"><ele>12.333333333333332</ele><time>2026-04-07T09:38:51.344Z</time></trkpt><trkpt lat="40.3888563" lon="9.6174005"><ele>12.166666666666666</ele><time>2026-04-07T09:38:52.345Z</time></trkpt><trkpt lat="40.3888281" lon="9.6173062"><ele>12.0</ele><time>2026-04-07T09:38:53.345Z</time></trkpt><trkpt lat="40.3887952" lon="9.6172096"><ele>13.166666666666666</ele><time>2026-04-07T09:38:54.345Z</time></trkpt><trkpt lat="40.3887656" lon="9.6171038"><ele>14.333333333333332</ele><time>2026-04-07T09:38:55.344Z</time></trkpt><trkpt lat="40.3887381" lon="9.6170084"><ele>15.5</ele><time>2026-04-07T09:38:56.345Z</time></trkpt><trkpt lat="40.3887147" lon="9.61692"><ele>16.666666666666664</ele><time>2026-04-07T09:38:57.344Z</time></trkpt><trkpt lat="40.3886908" lon="9.6168364"><ele>17.833333333333332</ele><time>2026-04-07T09:38:58.345Z</time></trkpt><trkpt lat="40.3886462" lon="9.6166853"><ele>19.0</ele><time>2026-04-07T09:39:00.344Z</time></trkpt><trkpt lat="40.3885988" lon="9.6165477"><ele>19.0</ele><time>2026-04-07T09:39:02.345Z</time></trkpt><trkpt lat="40.3885545" lon="9.6163991"><ele>19.0</ele><time>2026-04-07T09:39:04.344Z</time></trkpt><trkpt lat="40.3885283" lon="9.6163216"><ele>19.0</ele><time>2026-04-07T09:39:05.344Z</time></trkpt><trkpt lat="40.388502" lon="9.6162382"><ele>19.0</ele><time>2026-04-07T09:39:06.345Z</time></trkpt><trkpt lat="40.3884778" lon="9.6161503"><ele>19.0</ele><time>2026-04-07T09:39:07.345Z</time></trkpt><trkpt lat="40.3884522" lon="9.6160593"><ele>19.0</ele><time>2026-04-07T09:39:08.344Z</time></trkpt><trkpt lat="40.3884297" lon="9.615968"><ele>18.857142857142858</ele><time>2026-04-07T09:39:09.345Z</time></trkpt><trkpt lat="40.3884031" lon="9.6158774"><ele>18.714285714285715</ele><time>2026-04-07T09:39:10.345Z</time></trkpt><trkpt lat="40.3883739" lon="9.6157866"><ele>18.571428571428573</ele><time>2026-04-07T09:39:11.345Z</time></trkpt><trkpt lat="40.3883509" lon="9.6156883"><ele>18.42857142857143</ele><time>2026-04-07T09:39:12.345Z</time></trkpt><trkpt lat="40.3883254" lon="9.6156008"><ele>18.285714285714285</ele><time>2026-04-07T09:39:13.345Z</time></trkpt><trkpt lat="40.3883021" lon="9.6155125"><ele>18.142857142857146</ele><time>2026-04-07T09:39:14.345Z</time></trkpt><trkpt lat="40.3882774" lon="9.6154249"><ele>18.0</ele><time>2026-04-07T09:39:15.344Z</time></trkpt><trkpt lat="40.3882547" lon="9.6153424"><ele>17.6</ele><time>2026-04-07T09:39:16.344Z</time></trkpt><trkpt lat="40.3882107" lon="9.615204"><ele>17.200000000000003</ele><time>2026-04-07T09:39:18.345Z</time></trkpt><trkpt lat="40.3881717" lon="9.6150801"><ele>16.8</ele><time>2026-04-07T09:39:20.344Z</time></trkpt><trkpt lat="40.3881333" lon="9.6149532"><ele>16.400000000000002</ele><time>2026-04-07T09:39:22.345Z</time></trkpt><trkpt lat="40.3880991" lon="9.6148232"><ele>16.0</ele><time>2026-04-07T09:39:24.345Z</time></trkpt><trkpt lat="40.3880673" lon="9.6147001"><ele>15.999999999999998</ele><time>2026-04-07T09:39:26.345Z</time></trkpt><trkpt lat="40.3880336" lon="9.6145559"><ele>16.0</ele><time>2026-04-07T09:39:28.344Z</time></trkpt><trkpt lat="40.3880075" lon="9.6144777"><ele>16.0</ele><time>2026-04-07T09:39:29.345Z</time></trkpt><trkpt lat="40.3879768" lon="9.6143933"><ele>16.0</ele><time>2026-04-07T09:39:30.344Z</time></trkpt><trkpt lat="40.3879484" lon="9.6143132"><ele>15.999999999999998</ele><time>2026-04-07T09:39:31.345Z</time></trkpt><trkpt lat="40.3879199" lon="9.6142332"><ele>16.0</ele><time>2026-04-07T09:39:32.345Z</time></trkpt><trkpt lat="40.3878871" lon="9.6141479"><ele>16.166666666666664</ele><time>2026-04-07T09:39:33.345Z</time></trkpt><trkpt lat="40.3878532" lon="9.6140602"><ele>16.333333333333332</ele><time>2026-04-07T09:39:34.344Z</time></trkpt><trkpt lat="40.3878155" lon="9.613969"><ele>16.5</ele><time>2026-04-07T09:39:35.345Z</time></trkpt><trkpt lat="40.3877769" lon="9.6138749"><ele>16.666666666666668</ele><time>2026-04-07T09:39:36.344Z</time></trkpt><trkpt lat="40.3877358" lon="9.6137867"><ele>16.833333333333336</ele><time>2026-04-07T09:39:37.345Z</time></trkpt><trkpt lat="40.3876966" lon="9.6136998"><ele>17.0</ele><time>2026-04-07T09:39:38.344Z</time></trkpt><trkpt lat="40.3876614" lon="9.6136118"><ele>17.0</ele><time>2026-04-07T09:39:39.345Z</time></trkpt><trkpt lat="40.387618" lon="9.6135209"><ele>17.0</ele><time>2026-04-07T09:39:40.344Z</time></trkpt><trkpt lat="40.3875762" lon="9.6134282"><ele>17.0</ele><time>2026-04-07T09:39:41.345Z</time></trkpt><trkpt lat="40.3875327" lon="9.613336"><ele>17.0</ele><time>2026-04-07T09:39:42.344Z</time></trkpt><trkpt lat="40.3874848" lon="9.6132483"><ele>17.0</ele><time>2026-04-07T09:39:43.344Z</time></trkpt><trkpt lat="40.3874353" lon="9.6131621"><ele>17.0</ele><time>2026-04-07T09:39:44.345Z</time></trkpt><trkpt lat="40.3873852" lon="9.6130806"><ele>16.999999999999996</ele><time>2026-04-07T09:39:45.344Z</time></trkpt><trkpt lat="40.3873402" lon="9.6130011"><ele>17.0</ele><time>2026-04-07T09:39:46.345Z</time></trkpt><trkpt lat="40.3872948" lon="9.6129232"><ele>17.0</ele><time>2026-04-07T09:39:47.345Z</time></trkpt><trkpt lat="40.3872473" lon="9.6128462"><ele>17.0</ele><time>2026-04-07T09:39:48.344Z</time></trkpt><trkpt lat="40.3871963" lon="9.6127781"><ele>17.0</ele><time>2026-04-07T09:39:49.344Z</time></trkpt><trkpt lat="40.3871528" lon="9.6127091"><ele>16.999999999999996</ele><time>2026-04-07T09:39:50.344Z</time></trkpt><trkpt lat="40.3871066" lon="9.6126398"><ele>17.0</ele><time>2026-04-07T09:39:51.345Z</time></trkpt><trkpt lat="40.3870591" lon="9.6125761"><ele>16.0</ele><time>2026-04-07T09:39:52.345Z</time></trkpt><trkpt lat="40.3870109" lon="9.6125134"><ele>16.0</ele><time>2026-04-07T09:39:53.345Z</time></trkpt><trkpt lat="40.3869676" lon="9.6124525"><ele>16.0</ele><time>2026-04-07T09:39:54.344Z</time></trkpt><trkpt lat="40.386898" lon="9.6123527"><ele>16.0</ele><time>2026-04-07T09:39:56.345Z</time></trkpt><trkpt lat="40.3868712" lon="9.6122678"><ele>16.0</ele><time>2026-04-07T09:39:58.345Z</time></trkpt></trkseg><trkseg><trkpt lat="40.3868001" lon="9.6122025"><ele>16.0</ele><time>2026-04-07T09:58:57.346Z</time></trkpt><trkpt lat="40.3867969" lon="9.6122999"><ele>16.0</ele><time>2026-04-07T09:59:02.346Z</time></trkpt><trkpt lat="40.3868721" lon="9.6123714"><ele>16.0</ele><time>2026-04-07T09:59:04.346Z</time></trkpt><trkpt lat="40.3869451" lon="9.6124715"><ele>16.0</ele><time>2026-04-07T09:59:06.346Z</time></trkpt><trkpt lat="40.3870204" lon="9.6125755"><ele>16.0</ele><time>2026-04-07T09:59:08.345Z</time></trkpt><trkpt lat="40.3870694" lon="9.6126436"><ele>15.999999999999998</ele><time>2026-04-07T09:59:09.346Z</time></trkpt><trkpt lat="40.3871213" lon="9.6127213"><ele>16.0</ele><time>2026-04-07T09:59:10.346Z</time></trkpt><trkpt lat="40.3871772" lon="9.6128092"><ele>16.0</ele><time>2026-04-07T09:59:11.346Z</time></trkpt><trkpt lat="40.3872364" lon="9.6128901"><ele>16.0</ele><time>2026-04-07T09:59:12.346Z</time></trkpt><trkpt lat="40.3872915" lon="9.6129762"><ele>15.999999999999998</ele><time>2026-04-07T09:59:13.346Z</time></trkpt><trkpt lat="40.3873402" lon="9.6130614"><ele>16.0</ele><time>2026-04-07T09:59:14.345Z</time></trkpt><trkpt lat="40.3873887" lon="9.6131481"><ele>16.166666666666664</ele><time>2026-04-07T09:59:15.346Z</time></trkpt><trkpt lat="40.3874328" lon="9.6132358"><ele>16.333333333333332</ele><time>2026-04-07T09:59:16.346Z</time></trkpt><trkpt lat="40.3874777" lon="9.6133253"><ele>16.5</ele><time>2026-04-07T09:59:17.346Z</time></trkpt><trkpt lat="40.3875201" lon="9.6134223"><ele>16.666666666666668</ele><time>2026-04-07T09:59:18.346Z</time></trkpt><trkpt lat="40.3875652" lon="9.6135167"><ele>16.833333333333336</ele><time>2026-04-07T09:59:19.346Z</time></trkpt><trkpt lat="40.3876173" lon="9.6136165"><ele>17.0</ele><time>2026-04-07T09:59:20.346Z</time></trkpt><trkpt lat="40.3876599" lon="9.6137214"><ele>17.333333333333336</ele><time>2026-04-07T09:59:21.346Z</time></trkpt><trkpt lat="40.3877021" lon="9.6138144"><ele>17.666666666666668</ele><time>2026-04-07T09:59:22.345Z</time></trkpt><trkpt lat="40.3877423" lon="9.6139098"><ele>18.0</ele><time>2026-04-07T09:59:23.345Z</time></trkpt><trkpt lat="40.387776" lon="9.613993"><ele>18.333333333333332</ele><time>2026-04-07T09:59:24.346Z</time></trkpt><trkpt lat="40.3878268" lon="9.6141354"><ele>18.666666666666664</ele><time>2026-04-07T09:59:26.346Z</time></trkpt><trkpt lat="40.3878604" lon="9.6142155"><ele>19.0</ele><time>2026-04-07T09:59:27.346Z</time></trkpt><trkpt lat="40.3878957" lon="9.6142994"><ele>19.0</ele><time>2026-04-07T09:59:28.346Z</time></trkpt><trkpt lat="40.3879464" lon="9.6144285"><ele>19.0</ele><time>2026-04-07T09:59:30.346Z</time></trkpt><trkpt lat="40.3880194" lon="9.6144676"><ele>19.0</ele><time>2026-04-07T09:59:32.345Z</time></trkpt><trkpt lat="40.3880844" lon="9.6144025"><ele>19.0</ele><time>2026-04-07T09:59:34.346Z</time></trkpt><trkpt lat="40.3881604" lon="9.6142736"><ele>19.0</ele><time>2026-04-07T09:59:36.345Z</time></trkpt><trkpt lat="40.3882166" lon="9.6141875"><ele>18.0</ele><time>2026-04-07T09:59:37.345Z</time></trkpt><trkpt lat="40.3882736" lon="9.6141039"><ele>17.0</ele><time>2026-04-07T09:59:38.346Z</time></trkpt><trkpt lat="40.3883383" lon="9.6140171"><ele>15.999999999999998</ele><time>2026-04-07T09:59:39.346Z</time></trkpt><trkpt lat="40.3884036" lon="9.613921"><ele>15.0</ele><time>2026-04-07T09:59:40.346Z</time></trkpt><trkpt lat="40.3884677" lon="9.6138141"><ele>14.0</ele><time>2026-04-07T09:59:41.346Z</time></trkpt><trkpt lat="40.3885411" lon="9.6137035"><ele>13.6</ele><time>2026-04-07T09:59:42.346Z</time></trkpt><trkpt lat="40.3886108" lon="9.6135891"><ele>13.2</ele><time>2026-04-07T09:59:43.346Z</time></trkpt><trkpt lat="40.3886833" lon="9.6134715"><ele>12.799999999999999</ele><time>2026-04-07T09:59:44.346Z</time></trkpt><trkpt lat="40.388753" lon="9.6133598"><ele>12.399999999999999</ele><time>2026-04-07T09:59:45.346Z</time></trkpt><trkpt lat="40.3888144" lon="9.613248"><ele>12.0</ele><time>2026-04-07T09:59:46.346Z</time></trkpt><trkpt lat="40.388872" lon="9.613147"><ele>12.0</ele><time>2026-04-07T09:59:47.346Z</time></trkpt><trkpt lat="40.3889317" lon="9.6130568"><ele>12.0</ele><time>2026-04-07T09:59:48.345Z</time></trkpt><trkpt lat="40.3889855" lon="9.6129726"><ele>12.0</ele><time>2026-04-07T09:59:49.346Z</time></trkpt><trkpt lat="40.3890423" lon="9.6128981"><ele>12.0</ele><time>2026-04-07T09:59:50.345Z</time></trkpt><trkpt lat="40.3891026" lon="9.6128178"><ele>12.0</ele><time>2026-04-07T09:59:51.346Z</time></trkpt><trkpt lat="40.3891674" lon="9.6127437"><ele>12.0</ele><time>2026-04-07T09:59:52.346Z</time></trkpt><trkpt lat="40.3892342" lon="9.6126681"><ele>12.0</ele><time>2026-04-07T09:59:53.346Z</time></trkpt><trkpt lat="40.389297" lon="9.6125899"><ele>12.0</ele><time>2026-04-07T09:59:54.345Z</time></trkpt><trkpt lat="40.3893613" lon="9.612512"><ele>12.0</ele><time>2026-04-07T09:59:55.346Z</time></trkpt><trkpt lat="40.3894212" lon="9.6124392"><ele>12.0</ele><time>2026-04-07T09:59:56.346Z</time></trkpt><trkpt lat="40.389475" lon="9.6123704"><ele>12.0</ele><time>2026-04-07T09:59:57.346Z</time></trkpt><trkpt lat="40.3895222" lon="9.6123074"><ele>12.0</ele><time>2026-04-07T09:59:58.346Z</time></trkpt><trkpt lat="40.3895686" lon="9.6122482"><ele>12.0</ele><time>2026-04-07T09:59:59.345Z</time></trkpt><trkpt lat="40.389607" lon="9.612099"><ele>12.0</ele><time>2026-04-07T10:00:01.346Z</time></trkpt><trkpt lat="40.389594" lon="9.6119994"><ele>12.0</ele><time>2026-04-07T10:00:02.346Z</time></trkpt><trkpt lat="40.3895893" lon="9.6119019"><ele>12.0</ele><time>2026-04-07T10:00:03.345Z</time></trkpt><trkpt lat="40.389609" lon="9.6118069"><ele>12.0</ele><time>2026-04-07T10:00:04.346Z</time></trkpt><trkpt lat="40.3896558" lon="9.6117228"><ele>12.0</ele><time>2026-04-07T10:00:05.346Z</time></trkpt><trkpt lat="40.3897115" lon="9.6116284"><ele>11.2</ele><time>2026-04-07T10:00:06.346Z</time></trkpt><trkpt lat="40.3897714" lon="9.6115362"><ele>10.399999999999999</ele><time>2026-04-07T10:00:07.346Z</time></trkpt><trkpt lat="40.3898314" lon="9.6114335"><ele>9.600000000000001</ele><time>2026-04-07T10:00:08.346Z</time></trkpt><trkpt lat="40.3898955" lon="9.6113337"><ele>8.8</ele><time>2026-04-07T10:00:09.345Z</time></trkpt><trkpt lat="40.3899616" lon="9.6112315"><ele>8.0</ele><time>2026-04-07T10:00:10.346Z</time></trkpt><trkpt lat="40.3900299" lon="9.6111297"><ele>8.0</ele><time>2026-04-07T10:00:11.345Z</time></trkpt><trkpt lat="40.3901031" lon="9.6110202"><ele>8.0</ele><time>2026-04-07T10:00:12.346Z</time></trkpt><trkpt lat="40.3901747" lon="9.610902"><ele>8.0</ele><time>2026-04-07T10:00:13.346Z</time></trkpt><trkpt lat="40.3902533" lon="9.6107757"><ele>8.0</ele><time>2026-04-07T10:00:14.346Z</time></trkpt><trkpt lat="40.3903378" lon="9.6106426"><ele>8.0</ele><time>2026-04-07T10:00:15.345Z</time></trkpt><trkpt lat="40.3904288" lon="9.6104987"><ele>8.0</ele><time>2026-04-07T10:00:16.346Z</time></trkpt><trkpt lat="40.3905261" lon="9.6103546"><ele>8.0</ele><time>2026-04-07T10:00:17.346Z</time></trkpt><trkpt lat="40.3906263" lon="9.6102076"><ele>8.0</ele><time>2026-04-07T10:00:18.345Z</time></trkpt><trkpt lat="40.3907307" lon="9.6100551"><ele>9.333333333333332</ele><time>2026-04-07T10:00:19.346Z</time></trkpt><trkpt lat="40.3908382" lon="9.6099018"><ele>10.666666666666666</ele><time>2026-04-07T10:00:20.346Z</time></trkpt><trkpt lat="40.390947" lon="9.609753"><ele>12.0</ele><time>2026-04-07T10:00:21.346Z</time></trkpt><trkpt lat="40.3910559" lon="9.6096032"><ele>11.666666666666666</ele><time>2026-04-07T10:00:22.346Z</time></trkpt><trkpt lat="40.3911707" lon="9.6094565"><ele>11.333333333333332</ele><time>2026-04-07T10:00:23.346Z</time></trkpt><trkpt lat="40.3912879" lon="9.6093082"><ele>11.0</ele><time>2026-04-07T10:00:24.346Z</time></trkpt><trkpt lat="40.39141" lon="9.6091605"><ele>11.0</ele><time>2026-04-07T10:00:25.346Z</time></trkpt><trkpt lat="40.3915346" lon="9.6090116"><ele>11.0</ele><time>2026-04-07T10:00:26.346Z</time></trkpt><trkpt lat="40.3916611" lon="9.608861"><ele>11.0</ele><time>2026-04-07T10:00:27.345Z</time></trkpt><trkpt lat="40.391793" lon="9.6087134"><ele>11.0</ele><time>2026-04-07T10:00:28.345Z</time></trkpt><trkpt lat="40.3919285" lon="9.6085687"><ele>11.0</ele><time>2026-04-07T10:00:29.346Z</time></trkpt><trkpt lat="40.3920681" lon="9.6084226"><ele>11.0</ele><time>2026-04-07T10:00:30.346Z</time></trkpt><trkpt lat="40.3922061" lon="9.6082804"><ele>11.333333333333332</ele><time>2026-04-07T10:00:31.345Z</time></trkpt><trkpt lat="40.392351" lon="9.6081395"><ele>11.666666666666666</ele><time>2026-04-07T10:00:32.345Z</time></trkpt><trkpt lat="40.3924956" lon="9.6079991"><ele>12.0</ele><time>2026-04-07T10:00:33.345Z</time></trkpt><trkpt lat="40.3926405" lon="9.6078652"><ele>11.333333333333334</ele><time>2026-04-07T10:00:34.346Z</time></trkpt><trkpt lat="40.39279" lon="9.6077338"><ele>10.666666666666668</ele><time>2026-04-07T10:00:35.346Z</time></trkpt><trkpt lat="40.392935" lon="9.6076022"><ele>10.0</ele><time>2026-04-07T10:00:36.346Z</time></trkpt><trkpt lat="40.3930781" lon="9.6074737"><ele>10.0</ele><time>2026-04-07T10:00:37.345Z</time></trkpt><trkpt lat="40.3932223" lon="9.6073572"><ele>10.0</ele><time>2026-04-07T10:00:38.346Z</time></trkpt><trkpt lat="40.3933677" lon="9.6072317"><ele>10.0</ele><time>2026-04-07T10:00:39.346Z</time></trkpt><trkpt lat="40.3935144" lon="9.6071025"><ele>10.333333333333334</ele><time>2026-04-07T10:00:40.345Z</time></trkpt><trkpt lat="40.3936627" lon="9.6069677"><ele>10.666666666666666</ele><time>2026-04-07T10:00:41.346Z</time></trkpt><trkpt lat="40.3938145" lon="9.6068363"><ele>11.0</ele><time>2026-04-07T10:00:42.346Z</time></trkpt><trkpt lat="40.3939636" lon="9.6067068"><ele>11.0</ele><time>2026-04-07T10:00:43.345Z</time></trkpt><trkpt lat="40.3941153" lon="9.6065787"><ele>11.0</ele><time>2026-04-07T10:00:44.346Z</time></trkpt><trkpt lat="40.3942663" lon="9.6064392"><ele>11.0</ele><time>2026-04-07T10:00:45.345Z</time></trkpt><trkpt lat="40.3944179" lon="9.6063102"><ele>11.0</ele><time>2026-04-07T10:00:46.346Z</time></trkpt><trkpt lat="40.3945719" lon="9.6061742"><ele>11.0</ele><time>2026-04-07T10:00:47.346Z</time></trkpt><trkpt lat="40.3947259" lon="9.6060395"><ele>11.0</ele><time>2026-04-07T10:00:48.345Z</time></trkpt><trkpt lat="40.3948746" lon="9.6059129"><ele>11.333333333333332</ele><time>2026-04-07T10:00:49.346Z</time></trkpt><trkpt lat="40.395027" lon="9.6057876"><ele>11.666666666666666</ele><time>2026-04-07T10:00:50.346Z</time></trkpt><trkpt lat="40.3951816" lon="9.6056627"><ele>12.0</ele><time>2026-04-07T10:00:51.346Z</time></trkpt><trkpt lat="40.3953416" lon="9.60554"><ele>12.0</ele><time>2026-04-07T10:00:52.346Z</time></trkpt><trkpt lat="40.3955015" lon="9.605423"><ele>12.0</ele><time>2026-04-07T10:00:53.345Z</time></trkpt><trkpt lat="40.3956657" lon="9.6053082"><ele>12.0</ele><time>2026-04-07T10:00:54.345Z</time></trkpt><trkpt lat="40.3958337" lon="9.605209"><ele>12.0</ele><time>2026-04-07T10:00:55.345Z</time></trkpt><trkpt lat="40.3960022" lon="9.6050945"><ele>12.0</ele><time>2026-04-07T10:00:56.346Z</time></trkpt><trkpt lat="40.3961752" lon="9.6049746"><ele>12.0</ele><time>2026-04-07T10:00:57.346Z</time></trkpt><trkpt lat="40.3963481" lon="9.6048558"><ele>12.0</ele><time>2026-04-07T10:00:58.346Z</time></trkpt><trkpt lat="40.3965213" lon="9.6047296"><ele>12.0</ele><time>2026-04-07T10:00:59.346Z</time></trkpt><trkpt lat="40.3966947" lon="9.6046037"><ele>12.0</ele><time>2026-04-07T10:01:00.346Z</time></trkpt><trkpt lat="40.3968656" lon="9.604468"><ele>12.0</ele><time>2026-04-07T10:01:01.346Z</time></trkpt><trkpt lat="40.3970345" lon="9.6043234"><ele>12.0</ele><time>2026-04-07T10:01:02.345Z</time></trkpt><trkpt lat="40.3972031" lon="9.6041724"><ele>12.0</ele><time>2026-04-07T10:01:03.346Z</time></trkpt><trkpt lat="40.3973652" lon="9.6040129"><ele>12.0</ele><time>2026-04-07T10:01:04.346Z</time></trkpt><trkpt lat="40.3975218" lon="9.6038437"><ele>12.0</ele><time>2026-04-07T10:01:05.346Z</time></trkpt><trkpt lat="40.3976809" lon="9.603676"><ele>12.0</ele><time>2026-04-07T10:01:06.346Z</time></trkpt><trkpt lat="40.3978342" lon="9.6035018"><ele>12.0</ele><time>2026-04-07T10:01:07.345Z</time></trkpt><trkpt lat="40.397979" lon="9.6033207"><ele>12.0</ele><time>2026-04-07T10:01:08.346Z</time></trkpt><trkpt lat="40.3981244" lon="9.6031374"><ele>12.0</ele><time>2026-04-07T10:01:09.346Z</time></trkpt><trkpt lat="40.3982622" lon="9.6029486"><ele>12.333333333333332</ele><time>2026-04-07T10:01:10.346Z</time></trkpt><trkpt lat="40.398397" lon="9.6027533"><ele>12.666666666666666</ele><time>2026-04-07T10:01:11.346Z</time></trkpt><trkpt lat="40.3985239" lon="9.6025512"><ele>13.0</ele><time>2026-04-07T10:01:12.346Z</time></trkpt><trkpt lat="40.3986482" lon="9.6023421"><ele>13.0</ele><time>2026-04-07T10:01:13.346Z</time></trkpt><trkpt lat="40.3987641" lon="9.6021306"><ele>13.0</ele><time>2026-04-07T10:01:14.346Z</time></trkpt><trkpt lat="40.3988874" lon="9.601928"><ele>13.0</ele><time>2026-04-07T10:01:15.346Z</time></trkpt><trkpt lat="40.3990055" lon="9.6017293"><ele>14.333333333333332</ele><time>2026-04-07T10:01:16.345Z</time></trkpt><trkpt lat="40.3991104" lon="9.6015111"><ele>15.666666666666668</ele><time>2026-04-07T10:01:17.346Z</time></trkpt><trkpt lat="40.3992246" lon="9.601301"><ele>17.0</ele><time>2026-04-07T10:01:18.346Z</time></trkpt><trkpt lat="40.3993508" lon="9.6010986"><ele>17.666666666666668</ele><time>2026-04-07T10:01:19.345Z</time></trkpt><trkpt lat="40.3994689" lon="9.6008984"><ele>18.333333333333332</ele><time>2026-04-07T10:01:20.346Z</time></trkpt><trkpt lat="40.3995774" lon="9.6006966"><ele>19.0</ele><time>2026-04-07T10:01:21.346Z</time></trkpt><trkpt lat="40.3996868" lon="9.6004956"><ele>21.0</ele><time>2026-04-07T10:01:22.346Z</time></trkpt><trkpt lat="40.3997932" lon="9.6002936"><ele>23.0</ele><time>2026-04-07T10:01:23.346Z</time></trkpt><trkpt lat="40.3998986" lon="9.6000981"><ele>25.0</ele><time>2026-04-07T10:01:24.346Z</time></trkpt><trkpt lat="40.4000169" lon="9.5999159"><ele>25.0</ele><time>2026-04-07T10:01:25.346Z</time></trkpt><trkpt lat="40.4001334" lon="9.5997349"><ele>25.0</ele><time>2026-04-07T10:01:26.346Z</time></trkpt><trkpt lat="40.4002349" lon="9.5995591"><ele>25.0</ele><time>2026-04-07T10:01:27.346Z</time></trkpt><trkpt lat="40.4003284" lon="9.5993982"><ele>24.75</ele><time>2026-04-07T10:01:28.345Z</time></trkpt><trkpt lat="40.4004169" lon="9.5992442"><ele>24.5</ele><time>2026-04-07T10:01:29.345Z</time></trkpt><trkpt lat="40.4004986" lon="9.5991011"><ele>24.25</ele><time>2026-04-07T10:01:30.345Z</time></trkpt><trkpt lat="40.4005703" lon="9.5989626"><ele>24.0</ele><time>2026-04-07T10:01:31.346Z</time></trkpt><trkpt lat="40.4006338" lon="9.5988319"><ele>24.0</ele><time>2026-04-07T10:01:32.346Z</time></trkpt><trkpt lat="40.4006951" lon="9.5987119"><ele>24.0</ele><time>2026-04-07T10:01:33.345Z</time></trkpt><trkpt lat="40.4007573" lon="9.598611"><ele>24.0</ele><time>2026-04-07T10:01:34.346Z</time></trkpt><trkpt lat="40.4008192" lon="9.5985286"><ele>24.0</ele><time>2026-04-07T10:01:35.346Z</time></trkpt><trkpt lat="40.4008815" lon="9.598468"><ele>24.0</ele><time>2026-04-07T10:01:36.346Z</time></trkpt><trkpt lat="40.4009512" lon="9.5984326"><ele>24.0</ele><time>2026-04-07T10:01:37.346Z</time></trkpt><trkpt lat="40.4010357" lon="9.5984413"><ele>23.5</ele><time>2026-04-07T10:01:38.346Z</time></trkpt><trkpt lat="40.4011366" lon="9.5984934"><ele>23.0</ele><time>2026-04-07T10:01:39.346Z</time></trkpt><trkpt lat="40.4012389" lon="9.5985732"><ele>22.5</ele><time>2026-04-07T10:01:40.345Z</time></trkpt><trkpt lat="40.4013494" lon="9.5986609"><ele>22.0</ele><time>2026-04-07T10:01:41.346Z</time></trkpt><trkpt lat="40.4014668" lon="9.5987622"><ele>23.333333333333332</ele><time>2026-04-07T10:01:42.346Z</time></trkpt><trkpt lat="40.4015832" lon="9.598887"><ele>24.666666666666664</ele><time>2026-04-07T10:01:43.346Z</time></trkpt><trkpt lat="40.4017029" lon="9.5990257"><ele>26.0</ele><time>2026-04-07T10:01:44.345Z</time></trkpt><trkpt lat="40.4018202" lon="9.5991825"><ele>26.0</ele><time>2026-04-07T10:01:45.346Z</time></trkpt><trkpt lat="40.4019303" lon="9.5993504"><ele>26.0</ele><time>2026-04-07T10:01:46.345Z</time></trkpt><trkpt lat="40.4020402" lon="9.5995309"><ele>26.0</ele><time>2026-04-07T10:01:47.345Z</time></trkpt><trkpt lat="40.4021438" lon="9.5997195"><ele>24.0</ele><time>2026-04-07T10:01:48.345Z</time></trkpt><trkpt lat="40.4022459" lon="9.5999203"><ele>22.0</ele><time>2026-04-07T10:01:49.346Z</time></trkpt><trkpt lat="40.4023418" lon="9.6001331"><ele>20.0</ele><time>2026-04-07T10:01:50.346Z</time></trkpt><trkpt lat="40.4024247" lon="9.6003606"><ele>20.0</ele><time>2026-04-07T10:01:51.346Z</time></trkpt><trkpt lat="40.4024977" lon="9.6005983"><ele>20.0</ele><time>2026-04-07T10:01:52.346Z</time></trkpt><trkpt lat="40.4025494" lon="9.6008496"><ele>20.0</ele><time>2026-04-07T10:01:53.346Z</time></trkpt><trkpt lat="40.4025971" lon="9.6011061"><ele>20.333333333333336</ele><time>2026-04-07T10:01:54.346Z</time></trkpt><trkpt lat="40.4026473" lon="9.6013572"><ele>20.666666666666668</ele><time>2026-04-07T10:01:55.346Z</time></trkpt><trkpt lat="40.402696" lon="9.6016162"><ele>21.0</ele><time>2026-04-07T10:01:56.346Z</time></trkpt><trkpt lat="40.4027426" lon="9.6018783"><ele>21.666666666666668</ele><time>2026-04-07T10:01:57.346Z</time></trkpt><trkpt lat="40.4027897" lon="9.6021439"><ele>22.333333333333336</ele><time>2026-04-07T10:01:58.345Z</time></trkpt><trkpt lat="40.4028383" lon="9.6024075"><ele>23.0</ele><time>2026-04-07T10:01:59.345Z</time></trkpt><trkpt lat="40.4028894" lon="9.6026628"><ele>23.333333333333336</ele><time>2026-04-07T10:02:00.346Z</time></trkpt><trkpt lat="40.4029408" lon="9.6029302"><ele>23.666666666666668</ele><time>2026-04-07T10:02:01.346Z</time></trkpt><trkpt lat="40.4029921" lon="9.6031996"><ele>24.0</ele><time>2026-04-07T10:02:02.346Z</time></trkpt><trkpt lat="40.4030469" lon="9.6034615"><ele>23.666666666666668</ele><time>2026-04-07T10:02:03.345Z</time></trkpt><trkpt lat="40.4031102" lon="9.603728"><ele>23.333333333333336</ele><time>2026-04-07T10:02:04.346Z</time></trkpt><trkpt lat="40.4031825" lon="9.6039938"><ele>23.0</ele><time>2026-04-07T10:02:05.346Z</time></trkpt><trkpt lat="40.4032592" lon="9.6042602"><ele>23.0</ele><time>2026-04-07T10:02:06.345Z</time></trkpt><trkpt lat="40.4033413" lon="9.6045183"><ele>23.0</ele><time>2026-04-07T10:02:07.345Z</time></trkpt><trkpt lat="40.4034228" lon="9.6047614"><ele>23.0</ele><time>2026-04-07T10:02:08.345Z</time></trkpt><trkpt lat="40.4035024" lon="9.6049863"><ele>23.0</ele><time>2026-04-07T10:02:09.345Z</time></trkpt><trkpt lat="40.4035795" lon="9.6051942"><ele>23.0</ele><time>2026-04-07T10:02:10.346Z</time></trkpt><trkpt lat="40.4036471" lon="9.6053697"><ele>23.0</ele><time>2026-04-07T10:02:11.346Z</time></trkpt><trkpt lat="40.4037059" lon="9.6055166"><ele>23.4</ele><time>2026-04-07T10:02:12.345Z</time></trkpt><trkpt lat="40.4037545" lon="9.6056351"><ele>23.799999999999997</ele><time>2026-04-07T10:02:13.346Z</time></trkpt><trkpt lat="40.4037931" lon="9.6057334"><ele>24.2</ele><time>2026-04-07T10:02:14.346Z</time></trkpt><trkpt lat="40.4038336" lon="9.6058255"><ele>24.6</ele><time>2026-04-07T10:02:15.345Z</time></trkpt><trkpt lat="40.403871" lon="9.605933"><ele>25.0</ele><time>2026-04-07T10:02:16.346Z</time></trkpt><trkpt lat="40.4039116" lon="9.6060456"><ele>25.5</ele><time>2026-04-07T10:02:17.346Z</time></trkpt><trkpt lat="40.4039565" lon="9.6061671"><ele>26.0</ele><time>2026-04-07T10:02:18.346Z</time></trkpt><trkpt lat="40.4040078" lon="9.6063008"><ele>26.5</ele><time>2026-04-07T10:02:19.345Z</time></trkpt><trkpt lat="40.4040658" lon="9.6064367"><ele>27.0</ele><time>2026-04-07T10:02:20.345Z</time></trkpt><trkpt lat="40.4041265" lon="9.6065778"><ele>27.0</ele><time>2026-04-07T10:02:21.346Z</time></trkpt><trkpt lat="40.404185" lon="9.6067273"><ele>27.0</ele><time>2026-04-07T10:02:22.346Z</time></trkpt><trkpt lat="40.4042457" lon="9.6068788"><ele>27.0</ele><time>2026-04-07T10:02:23.346Z</time></trkpt><trkpt lat="40.4043068" lon="9.6070411"><ele>27.0</ele><time>2026-04-07T10:02:24.346Z</time></trkpt><trkpt lat="40.4043701" lon="9.6072031"><ele>27.0</ele><time>2026-04-07T10:02:25.345Z</time></trkpt><trkpt lat="40.4044308" lon="9.6073628"><ele>27.0</ele><time>2026-04-07T10:02:26.346Z</time></trkpt><trkpt lat="40.4044925" lon="9.607516"><ele>27.0</ele><time>2026-04-07T10:02:27.345Z</time></trkpt><trkpt lat="40.4045439" lon="9.6076555"><ele>27.0</ele><time>2026-04-07T10:02:28.346Z</time></trkpt><trkpt lat="40.4045905" lon="9.6077885"><ele>26.8</ele><time>2026-04-07T10:02:29.345Z</time></trkpt><trkpt lat="40.4046315" lon="9.6079258"><ele>26.6</ele><time>2026-04-07T10:02:30.346Z</time></trkpt><trkpt lat="40.4046676" lon="9.6080667"><ele>26.400000000000002</ele><time>2026-04-07T10:02:31.345Z</time></trkpt><trkpt lat="40.4047056" lon="9.6081996"><ele>26.200000000000003</ele><time>2026-04-07T10:02:32.346Z</time></trkpt><trkpt lat="40.4047412" lon="9.6083326"><ele>26.0</ele><time>2026-04-07T10:02:33.346Z</time></trkpt><trkpt lat="40.4047834" lon="9.6084684"><ele>26.0</ele><time>2026-04-07T10:02:34.346Z</time></trkpt><trkpt lat="40.4048256" lon="9.6086049"><ele>26.0</ele><time>2026-04-07T10:02:35.346Z</time></trkpt><trkpt lat="40.4048654" lon="9.6087468"><ele>26.0</ele><time>2026-04-07T10:02:36.346Z</time></trkpt><trkpt lat="40.4049092" lon="9.6088833"><ele>26.0</ele><time>2026-04-07T10:02:37.346Z</time></trkpt><trkpt lat="40.4049644" lon="9.6090071"><ele>26.0</ele><time>2026-04-07T10:02:38.346Z</time></trkpt><trkpt lat="40.405031" lon="9.6091262"><ele>26.0</ele><time>2026-04-07T10:02:39.345Z</time></trkpt><trkpt lat="40.4051025" lon="9.6092343"><ele>26.0</ele><time>2026-04-07T10:02:40.346Z</time></trkpt><trkpt lat="40.4051767" lon="9.6093412"><ele>26.0</ele><time>2026-04-07T10:02:41.346Z</time></trkpt><trkpt lat="40.4052511" lon="9.6094612"><ele>26.0</ele><time>2026-04-07T10:02:42.346Z</time></trkpt><trkpt lat="40.4053119" lon="9.6095858"><ele>25.8</ele><time>2026-04-07T10:02:43.345Z</time></trkpt><trkpt lat="40.4053489" lon="9.6097147"><ele>25.6</ele><time>2026-04-07T10:02:44.346Z</time></trkpt><trkpt lat="40.4053643" lon="9.6098514"><ele>25.4</ele><time>2026-04-07T10:02:45.346Z</time></trkpt><trkpt lat="40.4053704" lon="9.6099899"><ele>25.2</ele><time>2026-04-07T10:02:46.346Z</time></trkpt><trkpt lat="40.4053709" lon="9.6101276"><ele>25.0</ele><time>2026-04-07T10:02:47.346Z</time></trkpt><trkpt lat="40.4053676" lon="9.610274"><ele>25.0</ele><time>2026-04-07T10:02:48.346Z</time></trkpt><trkpt lat="40.4053668" lon="9.6104153"><ele>25.0</ele><time>2026-04-07T10:02:49.346Z</time></trkpt><trkpt lat="40.4053613" lon="9.6105578"><ele>25.0</ele><time>2026-04-07T10:02:50.345Z</time></trkpt><trkpt lat="40.4053528" lon="9.6107009"><ele>25.0</ele><time>2026-04-07T10:02:51.346Z</time></trkpt><trkpt lat="40.4053517" lon="9.6108452"><ele>25.0</ele><time>2026-04-07T10:02:52.345Z</time></trkpt><trkpt lat="40.4053516" lon="9.6109923"><ele>25.0</ele><time>2026-04-07T10:02:53.346Z</time></trkpt><trkpt lat="40.4053657" lon="9.6111382"><ele>25.0</ele><time>2026-04-07T10:02:54.346Z</time></trkpt><trkpt lat="40.4054151" lon="9.6112752"><ele>25.0</ele><time>2026-04-07T10:02:55.345Z</time></trkpt><trkpt lat="40.4054863" lon="9.6114054"><ele>25.0</ele><time>2026-04-07T10:02:56.346Z</time></trkpt><trkpt lat="40.4055623" lon="9.6115292"><ele>24.75</ele><time>2026-04-07T10:02:57.346Z</time></trkpt><trkpt lat="40.4056463" lon="9.6116535"><ele>24.5</ele><time>2026-04-07T10:02:58.346Z</time></trkpt><trkpt lat="40.4057273" lon="9.6117758"><ele>24.25</ele><time>2026-04-07T10:02:59.346Z</time></trkpt><trkpt lat="40.405814" lon="9.6119044"><ele>24.0</ele><time>2026-04-07T10:03:00.345Z</time></trkpt><trkpt lat="40.405896" lon="9.6120279"><ele>23.25</ele><time>2026-04-07T10:03:01.345Z</time></trkpt><trkpt lat="40.4059749" lon="9.6121515"><ele>22.5</ele><time>2026-04-07T10:03:02.345Z</time></trkpt><trkpt lat="40.4060574" lon="9.6122723"><ele>21.75</ele><time>2026-04-07T10:03:03.346Z</time></trkpt><trkpt lat="40.4061331" lon="9.612401"><ele>21.0</ele><time>2026-04-07T10:03:04.345Z</time></trkpt><trkpt lat="40.4062163" lon="9.6125258"><ele>21.0</ele><time>2026-04-07T10:03:05.346Z</time></trkpt><trkpt lat="40.4063135" lon="9.6126475"><ele>21.0</ele><time>2026-04-07T10:03:06.345Z</time></trkpt><trkpt lat="40.4064232" lon="9.6127496"><ele>21.0</ele><time>2026-04-07T10:03:07.345Z</time></trkpt><trkpt lat="40.4065438" lon="9.6128332"><ele>21.0</ele><time>2026-04-07T10:03:08.346Z</time></trkpt><trkpt lat="40.4066709" lon="9.6128966"><ele>22.25</ele><time>2026-04-07T10:03:09.345Z</time></trkpt><trkpt lat="40.4067993" lon="9.6129466"><ele>23.5</ele><time>2026-04-07T10:03:10.346Z</time></trkpt><trkpt lat="40.406927" lon="9.6129971"><ele>24.75</ele><time>2026-04-07T10:03:11.345Z</time></trkpt><trkpt lat="40.4070447" lon="9.6130378"><ele>26.0</ele><time>2026-04-07T10:03:12.346Z</time></trkpt><trkpt lat="40.4071578" lon="9.6130736"><ele>25.8</ele><time>2026-04-07T10:03:13.345Z</time></trkpt><trkpt lat="40.4072627" lon="9.6131056"><ele>25.6</ele><time>2026-04-07T10:03:14.346Z</time></trkpt><trkpt lat="40.4073575" lon="9.6131389"><ele>25.4</ele><time>2026-04-07T10:03:15.346Z</time></trkpt><trkpt lat="40.4074474" lon="9.6131751"><ele>25.2</ele><time>2026-04-07T10:03:16.346Z</time></trkpt><trkpt lat="40.4075316" lon="9.6132171"><ele>25.0</ele><time>2026-04-07T10:03:17.346Z</time></trkpt><trkpt lat="40.4076088" lon="9.6132718"><ele>25.0</ele><time>2026-04-07T10:03:18.346Z</time></trkpt><trkpt lat="40.4076708" lon="9.6133299"><ele>25.0</ele><time>2026-04-07T10:03:19.346Z</time></trkpt><trkpt lat="40.4077709" lon="9.6134056"><ele>25.0</ele><time>2026-04-07T10:03:21.346Z</time></trkpt><trkpt lat="40.4078587" lon="9.613367"><ele>25.0</ele><time>2026-04-07T10:03:23.345Z</time></trkpt><trkpt lat="40.4078764" lon="9.6132077"><ele>25.0</ele><time>2026-04-07T10:03:25.345Z</time></trkpt><trkpt lat="40.4078607" lon="9.6130991"><ele>25.0</ele><time>2026-04-07T10:03:26.346Z</time></trkpt><trkpt lat="40.4078475" lon="9.612973"><ele>25.0</ele><time>2026-04-07T10:03:27.345Z</time></trkpt><trkpt lat="40.4078268" lon="9.6128394"><ele>25.0</ele><time>2026-04-07T10:03:28.346Z</time></trkpt><trkpt lat="40.4078029" lon="9.6127031"><ele>25.0</ele><time>2026-04-07T10:03:29.346Z</time></trkpt><trkpt lat="40.4077795" lon="9.6125641"><ele>25.0</ele><time>2026-04-07T10:03:30.346Z</time></trkpt><trkpt lat="40.4077557" lon="9.6124266"><ele>25.0</ele><time>2026-04-07T10:03:31.346Z</time></trkpt><trkpt lat="40.4077337" lon="9.6122824"><ele>25.0</ele><time>2026-04-07T10:03:32.346Z</time></trkpt><trkpt lat="40.4077132" lon="9.6121572"><ele>25.0</ele><time>2026-04-07T10:03:33.346Z</time></trkpt><trkpt lat="40.4076908" lon="9.6120402"><ele>25.0</ele><time>2026-04-07T10:03:34.346Z</time></trkpt><trkpt lat="40.4076718" lon="9.6119469"><ele>25.0</ele><time>2026-04-07T10:03:35.346Z</time></trkpt><trkpt lat="40.4076548" lon="9.6117937"><ele>25.500000000000004</ele><time>2026-04-07T10:03:37.346Z</time></trkpt><trkpt lat="40.4077103" lon="9.6116683"><ele>26.0</ele><time>2026-04-07T10:03:39.346Z</time></trkpt><trkpt lat="40.4077466" lon="9.6115953"><ele>26.5</ele><time>2026-04-07T10:03:40.346Z</time></trkpt><trkpt lat="40.4077886" lon="9.6115175"><ele>27.0</ele><time>2026-04-07T10:03:41.346Z</time></trkpt><trkpt lat="40.4078322" lon="9.6114475"><ele>27.500000000000004</ele><time>2026-04-07T10:03:42.345Z</time></trkpt><trkpt lat="40.4079089" lon="9.6113863"><ele>28.0</ele><time>2026-04-07T10:03:44.346Z</time></trkpt><trkpt lat="40.40801" lon="9.6114397"><ele>28.000000000000004</ele><time>2026-04-07T10:03:46.346Z</time></trkpt><trkpt lat="40.4080727" lon="9.6114785"><ele>28.0</ele><time>2026-04-07T10:03:47.346Z</time></trkpt><trkpt lat="40.4081348" lon="9.611514"><ele>28.0</ele><time>2026-04-07T10:03:48.346Z</time></trkpt><trkpt lat="40.4081969" lon="9.6115452"><ele>28.0</ele><time>2026-04-07T10:03:49.345Z</time></trkpt><trkpt lat="40.408257" lon="9.6115716"><ele>28.000000000000004</ele><time>2026-04-07T10:03:50.346Z</time></trkpt><trkpt lat="40.4083696" lon="9.6116496"><ele>28.0</ele><time>2026-04-07T10:03:52.346Z</time></trkpt><trkpt lat="40.4084636" lon="9.6117255"><ele>28.0</ele><time>2026-04-07T10:03:54.346Z</time></trkpt><trkpt lat="40.4085263" lon="9.6117584"><ele>27.999999999999996</ele><time>2026-04-07T10:03:56.345Z</time></trkpt><trkpt lat="40.4084414" lon="9.6116664"><ele>27.999999999999996</ele><time>2026-04-07T10:04:02.346Z</time></trkpt><trkpt lat="40.40835" lon="9.6116138"><ele>28.0</ele><time>2026-04-07T10:04:04.346Z</time></trkpt><trkpt lat="40.4082622" lon="9.6115624"><ele>28.0</ele><time>2026-04-07T10:04:06.346Z</time></trkpt><trkpt lat="40.40815" lon="9.6115144"><ele>28.0</ele><time>2026-04-07T10:04:08.346Z</time></trkpt><trkpt lat="40.4080362" lon="9.6114568"><ele>27.999999999999996</ele><time>2026-04-07T10:04:10.346Z</time></trkpt><trkpt lat="40.4079519" lon="9.6113976"><ele>27.999999999999996</ele><time>2026-04-07T10:04:12.346Z</time></trkpt><trkpt lat="40.4079145" lon="9.6113216"><ele>28.0</ele><time>2026-04-07T10:04:14.346Z</time></trkpt><trkpt lat="40.407826" lon="9.6112651"><ele>28.0</ele><time>2026-04-07T10:04:17.346Z</time></trkpt><trkpt lat="40.4077374" lon="9.6112562"><ele>28.0</ele><time>2026-04-07T10:04:19.346Z</time></trkpt><trkpt lat="40.4076201" lon="9.6112543"><ele>27.999999999999996</ele><time>2026-04-07T10:04:21.346Z</time></trkpt><trkpt lat="40.4075515" lon="9.6112476"><ele>27.999999999999996</ele><time>2026-04-07T10:04:22.346Z</time></trkpt><trkpt lat="40.4074392" lon="9.6112374"><ele>28.0</ele><time>2026-04-07T10:04:24.345Z</time></trkpt><trkpt lat="40.4073501" lon="9.6112297"><ele>28.0</ele><time>2026-04-07T10:04:26.345Z</time></trkpt><trkpt lat="40.4072814" lon="9.6112115"><ele>28.000000000000004</ele><time>2026-04-07T10:04:28.346Z</time></trkpt><trkpt lat="40.4072196" lon="9.6112679"><ele>28.0</ele><time>2026-04-07T10:04:31.345Z</time></trkpt><trkpt lat="40.4072185" lon="9.6113867"><ele>28.0</ele><time>2026-04-07T10:04:34.346Z</time></trkpt><trkpt lat="40.4072585" lon="9.6114533"><ele>28.0</ele><time>2026-04-07T10:04:36.346Z</time></trkpt><trkpt lat="40.4072953" lon="9.6115384"><ele>28.000000000000004</ele><time>2026-04-07T10:04:39.346Z</time></trkpt><trkpt lat="40.4072739" lon="9.6116302"><ele>28.0</ele><time>2026-04-07T10:04:41.346Z</time></trkpt><trkpt lat="40.4072562" lon="9.6117492"><ele>28.000000000000004</ele><time>2026-04-07T10:04:43.346Z</time></trkpt><trkpt lat="40.407267" lon="9.6118655"><ele>28.0</ele><time>2026-04-07T10:04:45.345Z</time></trkpt><trkpt lat="40.4072848" lon="9.611986"><ele>28.0</ele><time>2026-04-07T10:04:47.346Z</time></trkpt><trkpt lat="40.4073024" lon="9.6120867"><ele>28.0</ele><time>2026-04-07T10:04:49.345Z</time></trkpt><trkpt lat="40.4072947" lon="9.6121927"><ele>28.000000000000004</ele><time>2026-04-07T10:04:51.345Z</time></trkpt><trkpt lat="40.4072319" lon="9.6122496"><ele>28.0</ele><time>2026-04-07T10:04:53.345Z</time></trkpt><trkpt lat="40.4071403" lon="9.6122471"><ele>26.833333333333336</ele><time>2026-04-07T10:04:55.346Z</time></trkpt><trkpt lat="40.4070397" lon="9.6122034"><ele>25.666666666666668</ele><time>2026-04-07T10:04:57.346Z</time></trkpt><trkpt lat="40.4069704" lon="9.6121723"><ele>24.5</ele><time>2026-04-07T10:04:59.346Z</time></trkpt><trkpt lat="40.4068917" lon="9.612192"><ele>23.333333333333336</ele><time>2026-04-07T10:05:02.346Z</time></trkpt><trkpt lat="40.4068711" lon="9.6123144"><ele>22.166666666666668</ele><time>2026-04-07T10:05:04.346Z</time></trkpt><trkpt lat="40.4068614" lon="9.6124013"><ele>21.0</ele><time>2026-04-07T10:05:05.346Z</time></trkpt><trkpt lat="40.406851" lon="9.6125064"><ele>21.0</ele><time>2026-04-07T10:05:06.345Z</time></trkpt><trkpt lat="40.4068506" lon="9.6126059"><ele>21.0</ele><time>2026-04-07T10:05:07.346Z</time></trkpt><trkpt lat="40.4068479" lon="9.6127065"><ele>21.0</ele><time>2026-04-07T10:05:08.345Z</time></trkpt><trkpt lat="40.4068431" lon="9.6128415"><ele>21.0</ele><time>2026-04-07T10:05:10.345Z</time></trkpt><trkpt lat="40.4068843" lon="9.6129551"><ele>21.0</ele><time>2026-04-07T10:05:13.345Z</time></trkpt><trkpt lat="40.4069866" lon="9.6130043"><ele>21.666666666666668</ele><time>2026-04-07T10:05:15.346Z</time></trkpt><trkpt lat="40.4070533" lon="9.6130315"><ele>22.333333333333336</ele><time>2026-04-07T10:05:16.346Z</time></trkpt><trkpt lat="40.4071312" lon="9.6130569"><ele>23.0</ele><time>2026-04-07T10:05:17.345Z</time></trkpt><trkpt lat="40.4072173" lon="9.6130839"><ele>23.666666666666668</ele><time>2026-04-07T10:05:18.346Z</time></trkpt><trkpt lat="40.4073137" lon="9.6131118"><ele>24.333333333333336</ele><time>2026-04-07T10:05:19.346Z</time></trkpt><trkpt lat="40.4074075" lon="9.6131442"><ele>25.0</ele><time>2026-04-07T10:05:20.345Z</time></trkpt><trkpt lat="40.407489" lon="9.6131832"><ele>25.000000000000004</ele><time>2026-04-07T10:05:21.346Z</time></trkpt><trkpt lat="40.4075618" lon="9.6132281"><ele>25.0</ele><time>2026-04-07T10:05:22.346Z</time></trkpt><trkpt lat="40.4076326" lon="9.6132836"><ele>25.0</ele><time>2026-04-07T10:05:23.345Z</time></trkpt><trkpt lat="40.4076996" lon="9.6133505"><ele>25.0</ele><time>2026-04-07T10:05:24.346Z</time></trkpt><trkpt lat="40.4077763" lon="9.613424"><ele>25.000000000000004</ele><time>2026-04-07T10:05:25.346Z</time></trkpt><trkpt lat="40.4078482" lon="9.613509"><ele>25.0</ele><time>2026-04-07T10:05:26.345Z</time></trkpt><trkpt lat="40.4079028" lon="9.613615"><ele>25.8</ele><time>2026-04-07T10:05:27.345Z</time></trkpt><trkpt lat="40.4079397" lon="9.6137274"><ele>26.6</ele><time>2026-04-07T10:05:28.346Z</time></trkpt><trkpt lat="40.4079702" lon="9.6138504"><ele>27.4</ele><time>2026-04-07T10:05:29.346Z</time></trkpt><trkpt lat="40.4079956" lon="9.6139803"><ele>28.2</ele><time>2026-04-07T10:05:30.346Z</time></trkpt><trkpt lat="40.4080154" lon="9.6141159"><ele>29.0</ele><time>2026-04-07T10:05:31.346Z</time></trkpt><trkpt lat="40.4080397" lon="9.6142521"><ele>29.0</ele><time>2026-04-07T10:05:32.346Z</time></trkpt><trkpt lat="40.4080676" lon="9.6143823"><ele>29.0</ele><time>2026-04-07T10:05:33.345Z</time></trkpt><trkpt lat="40.4080871" lon="9.6145063"><ele>29.0</ele><time>2026-04-07T10:05:34.345Z</time></trkpt><trkpt lat="40.4081056" lon="9.6146317"><ele>29.0</ele><time>2026-04-07T10:05:35.346Z</time></trkpt><trkpt lat="40.4081231" lon="9.6147478"><ele>29.0</ele><time>2026-04-07T10:05:36.346Z</time></trkpt><trkpt lat="40.4081418" lon="9.6148659"><ele>29.799999999999997</ele><time>2026-04-07T10:05:37.346Z</time></trkpt><trkpt lat="40.4081602" lon="9.6149876"><ele>30.599999999999998</ele><time>2026-04-07T10:05:38.345Z</time></trkpt><trkpt lat="40.4081828" lon="9.6151134"><ele>31.4</ele><time>2026-04-07T10:05:39.346Z</time></trkpt><trkpt lat="40.40821" lon="9.6152461"><ele>32.199999999999996</ele><time>2026-04-07T10:05:40.346Z</time></trkpt><trkpt lat="40.4082328" lon="9.6153805"><ele>33.0</ele><time>2026-04-07T10:05:41.345Z</time></trkpt><trkpt lat="40.4082502" lon="9.6155051"><ele>33.4</ele><time>2026-04-07T10:05:42.346Z</time></trkpt><trkpt lat="40.4082655" lon="9.6156104"><ele>33.8</ele><time>2026-04-07T10:05:43.345Z</time></trkpt><trkpt lat="40.4083149" lon="9.6157263"><ele>34.2</ele><time>2026-04-07T10:05:45.346Z</time></trkpt><trkpt lat="40.4084004" lon="9.6157439"><ele>34.6</ele><time>2026-04-07T10:05:48.346Z</time></trkpt><trkpt lat="40.4084919" lon="9.6156617"><ele>35.0</ele><time>2026-04-07T10:05:50.346Z</time></trkpt><trkpt lat="40.4085495" lon="9.6156109"><ele>35.0</ele><time>2026-04-07T10:05:51.346Z</time></trkpt><trkpt lat="40.408612" lon="9.6155485"><ele>35.0</ele><time>2026-04-07T10:05:52.345Z</time></trkpt><trkpt lat="40.4086758" lon="9.6154738"><ele>35.0</ele><time>2026-04-07T10:05:53.346Z</time></trkpt><trkpt lat="40.4087354" lon="9.6154057"><ele>35.0</ele><time>2026-04-07T10:05:54.346Z</time></trkpt><trkpt lat="40.4088029" lon="9.6153425"><ele>35.0</ele><time>2026-04-07T10:05:55.345Z</time></trkpt><trkpt lat="40.4088736" lon="9.6152896"><ele>35.0</ele><time>2026-04-07T10:05:56.346Z</time></trkpt><trkpt lat="40.4089405" lon="9.6152457"><ele>35.0</ele><time>2026-04-07T10:05:57.346Z</time></trkpt><trkpt lat="40.409004" lon="9.6152246"><ele>35.0</ele><time>2026-04-07T10:05:58.346Z</time></trkpt><trkpt lat="40.4091078" lon="9.6153068"><ele>35.0</ele><time>2026-04-07T10:06:00.346Z</time></trkpt><trkpt lat="40.4091531" lon="9.6154049"><ele>35.0</ele><time>2026-04-07T10:06:01.345Z</time></trkpt><trkpt lat="40.4091974" lon="9.6155066"><ele>35.0</ele><time>2026-04-07T10:06:02.345Z</time></trkpt><trkpt lat="40.4092333" lon="9.6155841"><ele>35.0</ele><time>2026-04-07T10:06:03.346Z</time></trkpt><trkpt lat="40.4093162" lon="9.6156613"><ele>35.0</ele><time>2026-04-07T10:06:05.346Z</time></trkpt><trkpt lat="40.409427" lon="9.6156385"><ele>35.0</ele><time>2026-04-07T10:06:07.345Z</time></trkpt><trkpt lat="40.409484" lon="9.6155765"><ele>35.0</ele><time>2026-04-07T10:06:08.346Z</time></trkpt><trkpt lat="40.4095334" lon="9.6154964"><ele>35.0</ele><time>2026-04-07T10:06:09.346Z</time></trkpt><trkpt lat="40.4095962" lon="9.6154311"><ele>35.0</ele><time>2026-04-07T10:06:10.346Z</time></trkpt><trkpt lat="40.4096716" lon="9.6153832"><ele>35.0</ele><time>2026-04-07T10:06:11.345Z</time></trkpt><trkpt lat="40.4097542" lon="9.6153521"><ele>34.2</ele><time>2026-04-07T10:06:12.345Z</time></trkpt><trkpt lat="40.4098484" lon="9.6153437"><ele>33.4</ele><time>2026-04-07T10:06:13.346Z</time></trkpt><trkpt lat="40.4099541" lon="9.6153608"><ele>32.6</ele><time>2026-04-07T10:06:14.346Z</time></trkpt><trkpt lat="40.4100652" lon="9.6153991"><ele>31.8</ele><time>2026-04-07T10:06:15.346Z</time></trkpt><trkpt lat="40.4101815" lon="9.6154561"><ele>31.0</ele><time>2026-04-07T10:06:16.346Z</time></trkpt><trkpt lat="40.4103007" lon="9.6155321"><ele>31.0</ele><time>2026-04-07T10:06:17.346Z</time></trkpt><trkpt lat="40.4104297" lon="9.6155919"><ele>31.0</ele><time>2026-04-07T10:06:18.345Z</time></trkpt><trkpt lat="40.4105873" lon="9.6156525"><ele>31.0</ele><time>2026-04-07T10:06:19.346Z</time></trkpt><trkpt lat="40.410764" lon="9.6157168"><ele>31.25</ele><time>2026-04-07T10:06:20.345Z</time></trkpt><trkpt lat="40.410922" lon="9.6157613"><ele>31.5</ele><time>2026-04-07T10:06:21.346Z</time></trkpt><trkpt lat="40.4110601" lon="9.6158056"><ele>31.75</ele><time>2026-04-07T10:06:22.346Z</time></trkpt><trkpt lat="40.4111784" lon="9.615859"><ele>32.0</ele><time>2026-04-07T10:06:23.346Z</time></trkpt><trkpt lat="40.4113125" lon="9.6158976"><ele>33.2</ele><time>2026-04-07T10:06:24.346Z</time></trkpt><trkpt lat="40.4114431" lon="9.6159302"><ele>34.400000000000006</ele><time>2026-04-07T10:06:25.345Z</time></trkpt><trkpt lat="40.4115511" lon="9.6159623"><ele>35.599999999999994</ele><time>2026-04-07T10:06:26.345Z</time></trkpt><trkpt lat="40.4116378" lon="9.6159892"><ele>36.8</ele><time>2026-04-07T10:06:27.346Z</time></trkpt><trkpt lat="40.4117115" lon="9.6160213"><ele>38.0</ele><time>2026-04-07T10:06:28.346Z</time></trkpt><trkpt lat="40.4117726" lon="9.6160718"><ele>38.0</ele><time>2026-04-07T10:06:29.345Z</time></trkpt><trkpt lat="40.4118321" lon="9.6161291"><ele>38.0</ele><time>2026-04-07T10:06:30.346Z</time></trkpt><trkpt lat="40.4118887" lon="9.6161994"><ele>38.0</ele><time>2026-04-07T10:06:31.345Z</time></trkpt><trkpt lat="40.4119372" lon="9.6162747"><ele>38.0</ele><time>2026-04-07T10:06:32.345Z</time></trkpt><trkpt lat="40.4119937" lon="9.6163577"><ele>38.0</ele><time>2026-04-07T10:06:33.345Z</time></trkpt><trkpt lat="40.4120514" lon="9.6164454"><ele>38.0</ele><time>2026-04-07T10:06:34.346Z</time></trkpt><trkpt lat="40.4121114" lon="9.6165346"><ele>37.8</ele><time>2026-04-07T10:06:35.346Z</time></trkpt><trkpt lat="40.412175" lon="9.6166219"><ele>37.599999999999994</ele><time>2026-04-07T10:06:36.346Z</time></trkpt><trkpt lat="40.4122417" lon="9.6167107"><ele>37.400000000000006</ele><time>2026-04-07T10:06:37.346Z</time></trkpt><trkpt lat="40.4123098" lon="9.6167949"><ele>37.2</ele><time>2026-04-07T10:06:38.346Z</time></trkpt><trkpt lat="40.4123765" lon="9.6168838"><ele>37.0</ele><time>2026-04-07T10:06:39.346Z</time></trkpt><trkpt lat="40.4124363" lon="9.6169573"><ele>36.800000000000004</ele><time>2026-04-07T10:06:40.345Z</time></trkpt><trkpt lat="40.4124878" lon="9.617034"><ele>36.6</ele><time>2026-04-07T10:06:41.346Z</time></trkpt><trkpt lat="40.4125451" lon="9.6171288"><ele>36.400000000000006</ele><time>2026-04-07T10:06:42.345Z</time></trkpt><trkpt lat="40.4126141" lon="9.617235"><ele>36.2</ele><time>2026-04-07T10:06:43.345Z</time></trkpt><trkpt lat="40.4126867" lon="9.6173265"><ele>36.0</ele><time>2026-04-07T10:06:44.346Z</time></trkpt><trkpt lat="40.412762" lon="9.6174105"><ele>36.0</ele><time>2026-04-07T10:06:45.345Z</time></trkpt><trkpt lat="40.4128401" lon="9.6174722"><ele>36.0</ele><time>2026-04-07T10:06:46.346Z</time></trkpt><trkpt lat="40.4129315" lon="9.6175167"><ele>36.0</ele><time>2026-04-07T10:06:47.346Z</time></trkpt><trkpt lat="40.4130252" lon="9.6175612"><ele>36.0</ele><time>2026-04-07T10:06:48.346Z</time></trkpt><trkpt lat="40.4131225" lon="9.6176069"><ele>36.0</ele><time>2026-04-07T10:06:49.345Z</time></trkpt><trkpt lat="40.4132246" lon="9.6176531"><ele>35.666666666666664</ele><time>2026-04-07T10:06:50.346Z</time></trkpt><trkpt lat="40.4133256" lon="9.6176999"><ele>35.333333333333336</ele><time>2026-04-07T10:06:51.346Z</time></trkpt><trkpt lat="40.4134203" lon="9.6177514"><ele>35.0</ele><time>2026-04-07T10:06:52.345Z</time></trkpt><trkpt lat="40.4135023" lon="9.6177929"><ele>34.66666666666667</ele><time>2026-04-07T10:06:53.345Z</time></trkpt><trkpt lat="40.4135707" lon="9.6178328"><ele>34.333333333333336</ele><time>2026-04-07T10:06:54.346Z</time></trkpt><trkpt lat="40.413631" lon="9.6178683"><ele>34.0</ele><time>2026-04-07T10:06:55.345Z</time></trkpt><trkpt lat="40.4137379" lon="9.6179185"><ele>35.0</ele><time>2026-04-07T10:06:57.346Z</time></trkpt><trkpt lat="40.413822" lon="9.6178762"><ele>36.0</ele><time>2026-04-07T10:06:59.345Z</time></trkpt><trkpt lat="40.4139254" lon="9.6177662"><ele>37.0</ele><time>2026-04-07T10:07:01.346Z</time></trkpt><trkpt lat="40.4139975" lon="9.617738"><ele>38.0</ele><time>2026-04-07T10:07:02.345Z</time></trkpt><trkpt lat="40.4140758" lon="9.6177321"><ele>39.0</ele><time>2026-04-07T10:07:03.346Z</time></trkpt><trkpt lat="40.41416" lon="9.6177256"><ele>39.0</ele><time>2026-04-07T10:07:04.346Z</time></trkpt><trkpt lat="40.4142473" lon="9.6177213"><ele>39.0</ele><time>2026-04-07T10:07:05.346Z</time></trkpt><trkpt lat="40.4143189" lon="9.6177386"><ele>39.0</ele><time>2026-04-07T10:07:06.345Z</time></trkpt><trkpt lat="40.4143989" lon="9.6177717"><ele>39.0</ele><time>2026-04-07T10:07:07.345Z</time></trkpt><trkpt lat="40.4144752" lon="9.617813"><ele>39.0</ele><time>2026-04-07T10:07:08.345Z</time></trkpt><trkpt lat="40.4145514" lon="9.6178578"><ele>39.0</ele><time>2026-04-07T10:07:09.346Z</time></trkpt><trkpt lat="40.4146289" lon="9.6179012"><ele>40.0</ele><time>2026-04-07T10:07:10.346Z</time></trkpt><trkpt lat="40.4147026" lon="9.6179376"><ele>41.0</ele><time>2026-04-07T10:07:11.346Z</time></trkpt><trkpt lat="40.4147776" lon="9.6179788"><ele>42.0</ele><time>2026-04-07T10:07:12.345Z</time></trkpt><trkpt lat="40.4148382" lon="9.6180336"><ele>43.0</ele><time>2026-04-07T10:07:13.345Z</time></trkpt><trkpt lat="40.4148785" lon="9.6181072"><ele>44.0</ele><time>2026-04-07T10:07:14.346Z</time></trkpt><trkpt lat="40.4149184" lon="9.6181839"><ele>45.0</ele><time>2026-04-07T10:07:15.346Z</time></trkpt><trkpt lat="40.4149619" lon="9.6182591"><ele>46.0</ele><time>2026-04-07T10:07:16.346Z</time></trkpt><trkpt lat="40.4150208" lon="9.6183276"><ele>46.0</ele><time>2026-04-07T10:07:17.345Z</time></trkpt><trkpt lat="40.4150845" lon="9.6183893"><ele>46.0</ele><time>2026-04-07T10:07:18.346Z</time></trkpt><trkpt lat="40.415146" lon="9.6184478"><ele>46.0</ele><time>2026-04-07T10:07:19.346Z</time></trkpt><trkpt lat="40.4152112" lon="9.6184967"><ele>46.0</ele><time>2026-04-07T10:07:20.346Z</time></trkpt><trkpt lat="40.4152768" lon="9.618544"><ele>46.0</ele><time>2026-04-07T10:07:21.346Z</time></trkpt><trkpt lat="40.4153407" lon="9.6185862"><ele>46.0</ele><time>2026-04-07T10:07:22.346Z</time></trkpt><trkpt lat="40.415402" lon="9.6186296"><ele>46.0</ele><time>2026-04-07T10:07:23.346Z</time></trkpt><trkpt lat="40.4154581" lon="9.6186721"><ele>46.0</ele><time>2026-04-07T10:07:24.345Z</time></trkpt><trkpt lat="40.4155625" lon="9.6187496"><ele>46.0</ele><time>2026-04-07T10:07:26.345Z</time></trkpt><trkpt lat="40.4156611" lon="9.6188262"><ele>46.0</ele><time>2026-04-07T10:07:28.346Z</time></trkpt><trkpt lat="40.4157761" lon="9.6188799"><ele>46.0</ele><time>2026-04-07T10:07:30.346Z</time></trkpt><trkpt lat="40.4158953" lon="9.618946"><ele>46.0</ele><time>2026-04-07T10:07:32.346Z</time></trkpt><trkpt lat="40.41596" lon="9.6189749"><ele>46.0</ele><time>2026-04-07T10:07:33.346Z</time></trkpt><trkpt lat="40.4160261" lon="9.6190012"><ele>46.0</ele><time>2026-04-07T10:07:34.346Z</time></trkpt><trkpt lat="40.4160937" lon="9.6190257"><ele>46.0</ele><time>2026-04-07T10:07:35.346Z</time></trkpt><trkpt lat="40.4161622" lon="9.6190495"><ele>46.0</ele><time>2026-04-07T10:07:36.345Z</time></trkpt><trkpt lat="40.4162754" lon="9.6190661"><ele>46.0</ele><time>2026-04-07T10:07:38.346Z</time></trkpt><trkpt lat="40.4163925" lon="9.619098"><ele>46.599999999999994</ele><time>2026-04-07T10:07:40.346Z</time></trkpt><trkpt lat="40.4165104" lon="9.6191453"><ele>47.2</ele><time>2026-04-07T10:07:42.346Z</time></trkpt><trkpt lat="40.4166294" lon="9.6192089"><ele>47.8</ele><time>2026-04-07T10:07:44.346Z</time></trkpt><trkpt lat="40.4166969" lon="9.6192398"><ele>48.400000000000006</ele><time>2026-04-07T10:07:45.346Z</time></trkpt><trkpt lat="40.4167623" lon="9.6192729"><ele>49.0</ele><time>2026-04-07T10:07:46.346Z</time></trkpt><trkpt lat="40.4168273" lon="9.6193078"><ele>49.0</ele><time>2026-04-07T10:07:47.346Z</time></trkpt><trkpt lat="40.416894" lon="9.6193425"><ele>49.0</ele><time>2026-04-07T10:07:48.345Z</time></trkpt><trkpt lat="40.416963" lon="9.6193743"><ele>49.0</ele><time>2026-04-07T10:07:49.345Z</time></trkpt><trkpt lat="40.4170283" lon="9.6194075"><ele>49.0</ele><time>2026-04-07T10:07:50.346Z</time></trkpt><trkpt lat="40.4171408" lon="9.6194676"><ele>49.0</ele><time>2026-04-07T10:07:52.346Z</time></trkpt><trkpt lat="40.4172416" lon="9.6195409"><ele>49.2</ele><time>2026-04-07T10:07:54.346Z</time></trkpt><trkpt lat="40.4173157" lon="9.6196717"><ele>49.400000000000006</ele><time>2026-04-07T10:07:56.346Z</time></trkpt><trkpt lat="40.4173628" lon="9.6197909"><ele>49.6</ele><time>2026-04-07T10:07:58.346Z</time></trkpt><trkpt lat="40.417436" lon="9.6198422"><ele>49.8</ele><time>2026-04-07T10:08:00.346Z</time></trkpt><trkpt lat="40.4175383" lon="9.6198633"><ele>50.0</ele><time>2026-04-07T10:08:02.345Z</time></trkpt><trkpt lat="40.4176589" lon="9.6198854"><ele>50.00000000000001</ele><time>2026-04-07T10:08:04.346Z</time></trkpt><trkpt lat="40.4177244" lon="9.6198851"><ele>50.0</ele><time>2026-04-07T10:08:05.346Z</time></trkpt><trkpt lat="40.4177923" lon="9.6198929"><ele>50.0</ele><time>2026-04-07T10:08:06.346Z</time></trkpt><trkpt lat="40.4179013" lon="9.6199099"><ele>50.0</ele><time>2026-04-07T10:08:08.346Z</time></trkpt><trkpt lat="40.4179855" lon="9.6199183"><ele>50.00000000000001</ele><time>2026-04-07T10:08:10.346Z</time></trkpt><trkpt lat="40.4180544" lon="9.6200019"><ele>50.0</ele><time>2026-04-07T10:08:13.345Z</time></trkpt><trkpt lat="40.4180863" lon="9.6201487"><ele>50.28571428571429</ele><time>2026-04-07T10:08:15.346Z</time></trkpt><trkpt lat="40.4181095" lon="9.6202317"><ele>50.57142857142857</ele><time>2026-04-07T10:08:16.346Z</time></trkpt><trkpt lat="40.4181287" lon="9.6203185"><ele>50.85714285714286</ele><time>2026-04-07T10:08:17.346Z</time></trkpt><trkpt lat="40.4181511" lon="9.6204069"><ele>51.142857142857146</ele><time>2026-04-07T10:08:18.345Z</time></trkpt><trkpt lat="40.4181742" lon="9.6205002"><ele>51.42857142857143</ele><time>2026-04-07T10:08:19.345Z</time></trkpt><trkpt lat="40.4181975" lon="9.6205838"><ele>51.714285714285715</ele><time>2026-04-07T10:08:20.346Z</time></trkpt><trkpt lat="40.418222" lon="9.6206679"><ele>52.0</ele><time>2026-04-07T10:08:21.346Z</time></trkpt><trkpt lat="40.4182593" lon="9.6207884"><ele>52.0</ele><time>2026-04-07T10:08:23.346Z</time></trkpt><trkpt lat="40.4183099" lon="9.620839"><ele>52.0</ele><time>2026-04-07T10:08:26.346Z</time></trkpt><trkpt lat="40.4183952" lon="9.6207991"><ele>52.0</ele><time>2026-04-07T10:08:29.345Z</time></trkpt><trkpt lat="40.4185181" lon="9.6207126"><ele>52.0</ele><time>2026-04-07T10:08:31.346Z</time></trkpt><trkpt lat="40.4186025" lon="9.6206789"><ele>52.0</ele><time>2026-04-07T10:08:32.346Z</time></trkpt><trkpt lat="40.4186849" lon="9.6206474"><ele>52.0</ele><time>2026-04-07T10:08:33.346Z</time></trkpt><trkpt lat="40.4187702" lon="9.6206158"><ele>52.0</ele><time>2026-04-07T10:08:34.346Z</time></trkpt><trkpt lat="40.4188557" lon="9.6205859"><ele>52.0</ele><time>2026-04-07T10:08:35.345Z</time></trkpt><trkpt lat="40.4189422" lon="9.6205618"><ele>52.0</ele><time>2026-04-07T10:08:36.346Z</time></trkpt><trkpt lat="40.419033" lon="9.6205358"><ele>52.0</ele><time>2026-04-07T10:08:37.345Z</time></trkpt><trkpt lat="40.4191285" lon="9.6205119"><ele>52.2</ele><time>2026-04-07T10:08:38.346Z</time></trkpt><trkpt lat="40.4192278" lon="9.6204939"><ele>52.400000000000006</ele><time>2026-04-07T10:08:39.346Z</time></trkpt><trkpt lat="40.4193257" lon="9.6204766"><ele>52.599999999999994</ele><time>2026-04-07T10:08:40.346Z</time></trkpt><trkpt lat="40.419424" lon="9.6204618"><ele>52.8</ele><time>2026-04-07T10:08:41.346Z</time></trkpt><trkpt lat="40.419521" lon="9.6204506"><ele>53.0</ele><time>2026-04-07T10:08:42.346Z</time></trkpt><trkpt lat="40.4196185" lon="9.6204445"><ele>54.0</ele><time>2026-04-07T10:08:43.345Z</time></trkpt><trkpt lat="40.4197154" lon="9.6204381"><ele>55.0</ele><time>2026-04-07T10:08:44.345Z</time></trkpt><trkpt lat="40.4198119" lon="9.6204264"><ele>56.0</ele><time>2026-04-07T10:08:45.346Z</time></trkpt><trkpt lat="40.4199068" lon="9.6203948"><ele>57.0</ele><time>2026-04-07T10:08:46.346Z</time></trkpt><trkpt lat="40.4199988" lon="9.6203382"><ele>58.0</ele><time>2026-04-07T10:08:47.346Z</time></trkpt><trkpt lat="40.420092" lon="9.6202792"><ele>58.4</ele><time>2026-04-07T10:08:48.346Z</time></trkpt><trkpt lat="40.4201914" lon="9.6202281"><ele>58.8</ele><time>2026-04-07T10:08:49.345Z</time></trkpt><trkpt lat="40.4202854" lon="9.6201784"><ele>59.2</ele><time>2026-04-07T10:08:50.345Z</time></trkpt><trkpt lat="40.420373" lon="9.6201289"><ele>59.6</ele><time>2026-04-07T10:08:51.346Z</time></trkpt><trkpt lat="40.42046" lon="9.6200824"><ele>60.0</ele><time>2026-04-07T10:08:52.346Z</time></trkpt><trkpt lat="40.420553" lon="9.6200633"><ele>60.8</ele><time>2026-04-07T10:08:53.345Z</time></trkpt><trkpt lat="40.4206452" lon="9.6200679"><ele>61.6</ele><time>2026-04-07T10:08:54.345Z</time></trkpt><trkpt lat="40.4207057" lon="9.6200932"><ele>62.400000000000006</ele><time>2026-04-07T10:08:55.345Z</time></trkpt><trkpt lat="40.4207959" lon="9.6200957"><ele>63.2</ele><time>2026-04-07T10:08:57.346Z</time></trkpt><trkpt lat="40.4209129" lon="9.6200326"><ele>64.0</ele><time>2026-04-07T10:08:59.346Z</time></trkpt><trkpt lat="40.4209825" lon="9.6199753"><ele>64.0</ele><time>2026-04-07T10:09:00.346Z</time></trkpt><trkpt lat="40.421064" lon="9.6199179"><ele>64.0</ele><time>2026-04-07T10:09:01.346Z</time></trkpt><trkpt lat="40.4211354" lon="9.6198721"><ele>64.0</ele><time>2026-04-07T10:09:02.346Z</time></trkpt><trkpt lat="40.4212343" lon="9.619825"><ele>64.0</ele><time>2026-04-07T10:09:04.346Z</time></trkpt><trkpt lat="40.4213498" lon="9.6198297"><ele>64.0</ele><time>2026-04-07T10:09:07.346Z</time></trkpt><trkpt lat="40.421423" lon="9.6197983"><ele>64.66666666666666</ele><time>2026-04-07T10:09:08.346Z</time></trkpt><trkpt lat="40.4215044" lon="9.6197656"><ele>65.33333333333333</ele><time>2026-04-07T10:09:09.345Z</time></trkpt><trkpt lat="40.4215743" lon="9.6197401"><ele>66.0</ele><time>2026-04-07T10:09:10.346Z</time></trkpt><trkpt lat="40.4216448" lon="9.6197126"><ele>66.66666666666667</ele><time>2026-04-07T10:09:11.346Z</time></trkpt><trkpt lat="40.4217231" lon="9.6196886"><ele>67.33333333333334</ele><time>2026-04-07T10:09:12.346Z</time></trkpt><trkpt lat="40.421806" lon="9.6196634"><ele>68.0</ele><time>2026-04-07T10:09:13.346Z</time></trkpt><trkpt lat="40.4218891" lon="9.6196101"><ele>68.0</ele><time>2026-04-07T10:09:14.346Z</time></trkpt><trkpt lat="40.4219833" lon="9.6195552"><ele>68.0</ele><time>2026-04-07T10:09:15.346Z</time></trkpt><trkpt lat="40.4220933" lon="9.6195035"><ele>68.0</ele><time>2026-04-07T10:09:16.345Z</time></trkpt><trkpt lat="40.4222142" lon="9.619445"><ele>68.0</ele><time>2026-04-07T10:09:17.345Z</time></trkpt><trkpt lat="40.4223429" lon="9.6193901"><ele>70.33333333333334</ele><time>2026-04-07T10:09:18.346Z</time></trkpt><trkpt lat="40.4224808" lon="9.6193402"><ele>72.66666666666667</ele><time>2026-04-07T10:09:19.346Z</time></trkpt><trkpt lat="40.4226292" lon="9.6192953"><ele>75.0</ele><time>2026-04-07T10:09:20.345Z</time></trkpt><trkpt lat="40.422782" lon="9.6192498"><ele>75.0</ele><time>2026-04-07T10:09:21.346Z</time></trkpt><trkpt lat="40.4229395" lon="9.6192004"><ele>75.0</ele><time>2026-04-07T10:09:22.346Z</time></trkpt><trkpt lat="40.4230989" lon="9.6191514"><ele>75.0</ele><time>2026-04-07T10:09:23.346Z</time></trkpt><trkpt lat="40.4232425" lon="9.6191138"><ele>74.75</ele><time>2026-04-07T10:09:24.346Z</time></trkpt><trkpt lat="40.4233758" lon="9.6190793"><ele>74.5</ele><time>2026-04-07T10:09:25.345Z</time></trkpt><trkpt lat="40.4234975" lon="9.6190478"><ele>74.25</ele><time>2026-04-07T10:09:26.346Z</time></trkpt><trkpt lat="40.4236146" lon="9.6190176"><ele>74.0</ele><time>2026-04-07T10:09:27.346Z</time></trkpt><trkpt lat="40.4237291" lon="9.6189837"><ele>75.5</ele><time>2026-04-07T10:09:28.346Z</time></trkpt><trkpt lat="40.4238409" lon="9.6189544"><ele>77.0</ele><time>2026-04-07T10:09:29.346Z</time></trkpt><trkpt lat="40.4239554" lon="9.6189309"><ele>78.5</ele><time>2026-04-07T10:09:30.346Z</time></trkpt><trkpt lat="40.4240698" lon="9.6189063"><ele>80.0</ele><time>2026-04-07T10:09:31.345Z</time></trkpt><trkpt lat="40.4241817" lon="9.6188761"><ele>80.0</ele><time>2026-04-07T10:09:32.346Z</time></trkpt><trkpt lat="40.4242977" lon="9.6188485"><ele>80.0</ele><time>2026-04-07T10:09:33.346Z</time></trkpt><trkpt lat="40.4244084" lon="9.6188282"><ele>80.0</ele><time>2026-04-07T10:09:34.346Z</time></trkpt><trkpt lat="40.4245189" lon="9.6188096"><ele>80.0</ele><time>2026-04-07T10:09:35.345Z</time></trkpt><trkpt lat="40.4246306" lon="9.6187954"><ele>78.75</ele><time>2026-04-07T10:09:36.345Z</time></trkpt><trkpt lat="40.4247442" lon="9.6187917"><ele>77.5</ele><time>2026-04-07T10:09:37.346Z</time></trkpt><trkpt lat="40.4248582" lon="9.6188148"><ele>76.25</ele><time>2026-04-07T10:09:38.346Z</time></trkpt><trkpt lat="40.4249681" lon="9.6188627"><ele>75.0</ele><time>2026-04-07T10:09:39.346Z</time></trkpt><trkpt lat="40.4250709" lon="9.6189288"><ele>75.0</ele><time>2026-04-07T10:09:40.345Z</time></trkpt><trkpt lat="40.4251762" lon="9.6189989"><ele>75.0</ele><time>2026-04-07T10:09:41.345Z</time></trkpt><trkpt lat="40.4252831" lon="9.6190675"><ele>75.0</ele><time>2026-04-07T10:09:42.346Z</time></trkpt><trkpt lat="40.4253948" lon="9.6191153"><ele>75.0</ele><time>2026-04-07T10:09:43.345Z</time></trkpt><trkpt lat="40.4255138" lon="9.6191352"><ele>75.25</ele><time>2026-04-07T10:09:44.346Z</time></trkpt><trkpt lat="40.4256338" lon="9.6191296"><ele>75.5</ele><time>2026-04-07T10:09:45.346Z</time></trkpt><trkpt lat="40.425756" lon="9.6191115"><ele>75.75</ele><time>2026-04-07T10:09:46.346Z</time></trkpt><trkpt lat="40.4258826" lon="9.6190877"><ele>76.0</ele><time>2026-04-07T10:09:47.346Z</time></trkpt><trkpt lat="40.4260045" lon="9.6190573"><ele>76.0</ele><time>2026-04-07T10:09:48.345Z</time></trkpt><trkpt lat="40.4261293" lon="9.6190271"><ele>76.0</ele><time>2026-04-07T10:09:49.345Z</time></trkpt><trkpt lat="40.4262534" lon="9.6189952"><ele>76.0</ele><time>2026-04-07T10:09:50.346Z</time></trkpt><trkpt lat="40.4263788" lon="9.6189644"><ele>76.0</ele><time>2026-04-07T10:09:51.345Z</time></trkpt><trkpt lat="40.4265036" lon="9.618934"><ele>76.5</ele><time>2026-04-07T10:09:52.346Z</time></trkpt><trkpt lat="40.4266278" lon="9.6189012"><ele>77.0</ele><time>2026-04-07T10:09:53.346Z</time></trkpt><trkpt lat="40.4267494" lon="9.6188453"><ele>77.5</ele><time>2026-04-07T10:09:54.346Z</time></trkpt><trkpt lat="40.4268708" lon="9.6187759"><ele>78.0</ele><time>2026-04-07T10:09:55.346Z</time></trkpt><trkpt lat="40.4269904" lon="9.6187008"><ele>81.75</ele><time>2026-04-07T10:09:56.346Z</time></trkpt><trkpt lat="40.4271133" lon="9.6186285"><ele>85.5</ele><time>2026-04-07T10:09:57.345Z</time></trkpt><trkpt lat="40.4272381" lon="9.6185686"><ele>89.25</ele><time>2026-04-07T10:09:58.346Z</time></trkpt><trkpt lat="40.4273711" lon="9.6185281"><ele>93.0</ele><time>2026-04-07T10:09:59.346Z</time></trkpt><trkpt lat="40.4275082" lon="9.6185021"><ele>93.25</ele><time>2026-04-07T10:10:00.346Z</time></trkpt><trkpt lat="40.4276468" lon="9.6184862"><ele>93.5</ele><time>2026-04-07T10:10:01.346Z</time></trkpt><trkpt lat="40.42779" lon="9.6184843"><ele>93.75</ele><time>2026-04-07T10:10:02.346Z</time></trkpt><trkpt lat="40.4279286" lon="9.6184989"><ele>94.0</ele><time>2026-04-07T10:10:03.346Z</time></trkpt><trkpt lat="40.4280701" lon="9.6185139"><ele>94.0</ele><time>2026-04-07T10:10:04.346Z</time></trkpt><trkpt lat="40.4282126" lon="9.6185211"><ele>94.0</ele><time>2026-04-07T10:10:05.345Z</time></trkpt><trkpt lat="40.4283554" lon="9.6185344"><ele>94.0</ele><time>2026-04-07T10:10:06.346Z</time></trkpt><trkpt lat="40.4284944" lon="9.6185455"><ele>94.0</ele><time>2026-04-07T10:10:07.346Z</time></trkpt><trkpt lat="40.4286276" lon="9.6185585"><ele>94.0</ele><time>2026-04-07T10:10:08.346Z</time></trkpt><trkpt lat="40.4287569" lon="9.6185856"><ele>94.0</ele><time>2026-04-07T10:10:09.346Z</time></trkpt><trkpt lat="40.42888" lon="9.6186355"><ele>94.0</ele><time>2026-04-07T10:10:10.346Z</time></trkpt><trkpt lat="40.4289997" lon="9.6187052"><ele>94.0</ele><time>2026-04-07T10:10:11.346Z</time></trkpt><trkpt lat="40.4291164" lon="9.6187851"><ele>94.75</ele><time>2026-04-07T10:10:12.346Z</time></trkpt><trkpt lat="40.4292396" lon="9.6188565"><ele>95.5</ele><time>2026-04-07T10:10:13.346Z</time></trkpt><trkpt lat="40.4293585" lon="9.6189294"><ele>96.25</ele><time>2026-04-07T10:10:14.346Z</time></trkpt><trkpt lat="40.4294808" lon="9.6189831"><ele>97.0</ele><time>2026-04-07T10:10:15.346Z</time></trkpt><trkpt lat="40.4296102" lon="9.6190031"><ele>99.5</ele><time>2026-04-07T10:10:16.346Z</time></trkpt><trkpt lat="40.4297337" lon="9.6189942"><ele>102.0</ele><time>2026-04-07T10:10:17.346Z</time></trkpt><trkpt lat="40.4298516" lon="9.6189459"><ele>104.5</ele><time>2026-04-07T10:10:18.346Z</time></trkpt><trkpt lat="40.4299708" lon="9.6188819"><ele>107.0</ele><time>2026-04-07T10:10:19.345Z</time></trkpt><trkpt lat="40.4300858" lon="9.6188122"><ele>107.0</ele><time>2026-04-07T10:10:20.346Z</time></trkpt><trkpt lat="40.4301944" lon="9.6187499"><ele>107.0</ele><time>2026-04-07T10:10:21.346Z</time></trkpt><trkpt lat="40.4303043" lon="9.6186933"><ele>107.0</ele><time>2026-04-07T10:10:22.345Z</time></trkpt><trkpt lat="40.4304092" lon="9.6186419"><ele>107.0</ele><time>2026-04-07T10:10:23.346Z</time></trkpt><trkpt lat="40.430518" lon="9.618591"><ele>109.0</ele><time>2026-04-07T10:10:24.345Z</time></trkpt><trkpt lat="40.4306307" lon="9.6185479"><ele>111.0</ele><time>2026-04-07T10:10:25.346Z</time></trkpt><trkpt lat="40.4307428" lon="9.6185093"><ele>113.0</ele><time>2026-04-07T10:10:26.346Z</time></trkpt><trkpt lat="40.4308578" lon="9.6184681"><ele>115.0</ele><time>2026-04-07T10:10:27.346Z</time></trkpt><trkpt lat="40.4309742" lon="9.6184244"><ele>115.0</ele><time>2026-04-07T10:10:28.346Z</time></trkpt><trkpt lat="40.4310925" lon="9.618386"><ele>115.0</ele><time>2026-04-07T10:10:29.346Z</time></trkpt><trkpt lat="40.4312142" lon="9.618356"><ele>115.0</ele><time>2026-04-07T10:10:30.346Z</time></trkpt><trkpt lat="40.4313387" lon="9.618325"><ele>115.0</ele><time>2026-04-07T10:10:31.346Z</time></trkpt><trkpt lat="40.4314661" lon="9.6182926"><ele>118.25</ele><time>2026-04-07T10:10:32.346Z</time></trkpt><trkpt lat="40.4315923" lon="9.6182561"><ele>121.5</ele><time>2026-04-07T10:10:33.345Z</time></trkpt><trkpt lat="40.4317242" lon="9.6182136"><ele>124.75</ele><time>2026-04-07T10:10:34.346Z</time></trkpt><trkpt lat="40.4318553" lon="9.6181724"><ele>128.0</ele><time>2026-04-07T10:10:35.346Z</time></trkpt><trkpt lat="40.4319845" lon="9.6181398"><ele>128.0</ele><time>2026-04-07T10:10:36.346Z</time></trkpt><trkpt lat="40.4321116" lon="9.6181135"><ele>128.0</ele><time>2026-04-07T10:10:37.346Z</time></trkpt><trkpt lat="40.4322384" lon="9.6180979"><ele>128.0</ele><time>2026-04-07T10:10:38.346Z</time></trkpt><trkpt lat="40.4323633" lon="9.6180843"><ele>128.0</ele><time>2026-04-07T10:10:39.346Z</time></trkpt><trkpt lat="40.4324929" lon="9.6180697"><ele>128.0</ele><time>2026-04-07T10:10:40.346Z</time></trkpt><trkpt lat="40.4326254" lon="9.6180551"><ele>128.0</ele><time>2026-04-07T10:10:41.346Z</time></trkpt><trkpt lat="40.4327575" lon="9.6180408"><ele>128.0</ele><time>2026-04-07T10:10:42.346Z</time></trkpt><trkpt lat="40.432886" lon="9.618029"><ele>128.0</ele><time>2026-04-07T10:10:43.345Z</time></trkpt><trkpt lat="40.4330086" lon="9.6180232"><ele>127.25</ele><time>2026-04-07T10:10:44.346Z</time></trkpt><trkpt lat="40.4331313" lon="9.6180104"><ele>126.5</ele><time>2026-04-07T10:10:45.345Z</time></trkpt><trkpt lat="40.4332507" lon="9.6179993"><ele>125.75</ele><time>2026-04-07T10:10:46.346Z</time></trkpt><trkpt lat="40.4333752" lon="9.6179906"><ele>125.0</ele><time>2026-04-07T10:10:47.345Z</time></trkpt><trkpt lat="40.4335005" lon="9.6179781"><ele>125.0</ele><time>2026-04-07T10:10:48.345Z</time></trkpt><trkpt lat="40.4336297" lon="9.6179724"><ele>125.0</ele><time>2026-04-07T10:10:49.345Z</time></trkpt><trkpt lat="40.4337629" lon="9.6179686"><ele>125.0</ele><time>2026-04-07T10:10:50.345Z</time></trkpt><trkpt lat="40.4338972" lon="9.6179618"><ele>125.0</ele><time>2026-04-07T10:10:51.346Z</time></trkpt><trkpt lat="40.4340277" lon="9.6179573"><ele>126.25</ele><time>2026-04-07T10:10:52.346Z</time></trkpt><trkpt lat="40.4341563" lon="9.6179517"><ele>127.5</ele><time>2026-04-07T10:10:53.345Z</time></trkpt><trkpt lat="40.434284" lon="9.6179437"><ele>128.75</ele><time>2026-04-07T10:10:54.346Z</time></trkpt><trkpt lat="40.4344098" lon="9.617934"><ele>130.0</ele><time>2026-04-07T10:10:55.346Z</time></trkpt><trkpt lat="40.434539" lon="9.6179272"><ele>128.0</ele><time>2026-04-07T10:10:56.346Z</time></trkpt><trkpt lat="40.4346696" lon="9.6179157"><ele>126.0</ele><time>2026-04-07T10:10:57.345Z</time></trkpt><trkpt lat="40.4347985" lon="9.6179077"><ele>124.0</ele><time>2026-04-07T10:10:58.345Z</time></trkpt><trkpt lat="40.4349287" lon="9.617901"><ele>122.0</ele><time>2026-04-07T10:10:59.345Z</time></trkpt><trkpt lat="40.4350569" lon="9.6178939"><ele>122.0</ele><time>2026-04-07T10:11:00.346Z</time></trkpt><trkpt lat="40.4351857" lon="9.6178807"><ele>122.0</ele><time>2026-04-07T10:11:01.345Z</time></trkpt><trkpt lat="40.4353127" lon="9.6178704"><ele>122.0</ele><time>2026-04-07T10:11:02.346Z</time></trkpt><trkpt lat="40.4354366" lon="9.6178617"><ele>122.0</ele><time>2026-04-07T10:11:03.345Z</time></trkpt><trkpt lat="40.4355603" lon="9.6178509"><ele>120.5</ele><time>2026-04-07T10:11:04.346Z</time></trkpt><trkpt lat="40.435694" lon="9.617842"><ele>119.0</ele><time>2026-04-07T10:11:05.346Z</time></trkpt><trkpt lat="40.4358306" lon="9.6178309"><ele>117.5</ele><time>2026-04-07T10:11:06.345Z</time></trkpt><trkpt lat="40.4359711" lon="9.6178249"><ele>116.0</ele><time>2026-04-07T10:11:07.346Z</time></trkpt><trkpt lat="40.436115" lon="9.6178154"><ele>116.0</ele><time>2026-04-07T10:11:08.345Z</time></trkpt><trkpt lat="40.4362601" lon="9.6178032"><ele>116.0</ele><time>2026-04-07T10:11:09.346Z</time></trkpt><trkpt lat="40.4364094" lon="9.6177963"><ele>116.0</ele><time>2026-04-07T10:11:10.346Z</time></trkpt><trkpt lat="40.4365592" lon="9.617787"><ele>116.0</ele><time>2026-04-07T10:11:11.346Z</time></trkpt><trkpt lat="40.4367122" lon="9.6177743"><ele>115.0</ele><time>2026-04-07T10:11:12.346Z</time></trkpt><trkpt lat="40.4368612" lon="9.617764"><ele>114.0</ele><time>2026-04-07T10:11:13.345Z</time></trkpt><trkpt lat="40.4370024" lon="9.6177569"><ele>113.0</ele><time>2026-04-07T10:11:14.346Z</time></trkpt><trkpt lat="40.4371432" lon="9.6177484"><ele>112.0</ele><time>2026-04-07T10:11:15.345Z</time></trkpt><trkpt lat="40.4372841" lon="9.6177342"><ele>112.0</ele><time>2026-04-07T10:11:16.346Z</time></trkpt><trkpt lat="40.4374265" lon="9.6177248"><ele>112.0</ele><time>2026-04-07T10:11:17.346Z</time></trkpt><trkpt lat="40.4375651" lon="9.6177168"><ele>112.0</ele><time>2026-04-07T10:11:18.346Z</time></trkpt><trkpt lat="40.4377063" lon="9.6177139"><ele>112.0</ele><time>2026-04-07T10:11:19.346Z</time></trkpt><trkpt lat="40.4378468" lon="9.6177071"><ele>112.75</ele><time>2026-04-07T10:11:20.346Z</time></trkpt><trkpt lat="40.4379898" lon="9.6177055"><ele>113.5</ele><time>2026-04-07T10:11:21.345Z</time></trkpt><trkpt lat="40.4381283" lon="9.6177086"><ele>114.25</ele><time>2026-04-07T10:11:22.346Z</time></trkpt><trkpt lat="40.4382699" lon="9.6177122"><ele>115.0</ele><time>2026-04-07T10:11:23.346Z</time></trkpt><trkpt lat="40.4384128" lon="9.6177208"><ele>115.0</ele><time>2026-04-07T10:11:24.346Z</time></trkpt><trkpt lat="40.4385585" lon="9.6177417"><ele>115.0</ele><time>2026-04-07T10:11:25.346Z</time></trkpt><trkpt lat="40.4387074" lon="9.6177583"><ele>115.0</ele><time>2026-04-07T10:11:26.346Z</time></trkpt><trkpt lat="40.4388569" lon="9.6177723"><ele>115.0</ele><time>2026-04-07T10:11:27.346Z</time></trkpt><trkpt lat="40.4390103" lon="9.6177914"><ele>115.33333333333334</ele><time>2026-04-07T10:11:28.345Z</time></trkpt><trkpt lat="40.4391621" lon="9.6178071"><ele>115.66666666666666</ele><time>2026-04-07T10:11:29.346Z</time></trkpt><trkpt lat="40.4393194" lon="9.6178269"><ele>116.0</ele><time>2026-04-07T10:11:30.346Z</time></trkpt><trkpt lat="40.4394758" lon="9.6178481"><ele>117.0</ele><time>2026-04-07T10:11:31.346Z</time></trkpt><trkpt lat="40.4396316" lon="9.6178666"><ele>118.0</ele><time>2026-04-07T10:11:32.346Z</time></trkpt><trkpt lat="40.439785" lon="9.6178782"><ele>119.0</ele><time>2026-04-07T10:11:33.346Z</time></trkpt><trkpt lat="40.4399334" lon="9.6178914"><ele>119.25</ele><time>2026-04-07T10:11:34.346Z</time></trkpt><trkpt lat="40.4400788" lon="9.6179125"><ele>119.5</ele><time>2026-04-07T10:11:35.346Z</time></trkpt><trkpt lat="40.4402221" lon="9.6179283"><ele>119.75</ele><time>2026-04-07T10:11:36.345Z</time></trkpt><trkpt lat="40.4403589" lon="9.6179502"><ele>120.0</ele><time>2026-04-07T10:11:37.345Z</time></trkpt><trkpt lat="40.4404999" lon="9.6179816"><ele>120.0</ele><time>2026-04-07T10:11:38.345Z</time></trkpt><trkpt lat="40.4406398" lon="9.6180296"><ele>120.0</ele><time>2026-04-07T10:11:39.346Z</time></trkpt><trkpt lat="40.4407813" lon="9.618096"><ele>120.0</ele><time>2026-04-07T10:11:40.346Z</time></trkpt><trkpt lat="40.4409243" lon="9.6181584"><ele>120.0</ele><time>2026-04-07T10:11:41.346Z</time></trkpt><trkpt lat="40.4410675" lon="9.6182246"><ele>120.0</ele><time>2026-04-07T10:11:42.346Z</time></trkpt><trkpt lat="40.4412116" lon="9.6182904"><ele>120.0</ele><time>2026-04-07T10:11:43.346Z</time></trkpt><trkpt lat="40.4413557" lon="9.6183572"><ele>120.0</ele><time>2026-04-07T10:11:44.345Z</time></trkpt><trkpt lat="40.4415005" lon="9.618419"><ele>120.5</ele><time>2026-04-07T10:11:45.345Z</time></trkpt><trkpt lat="40.4416417" lon="9.6184856"><ele>121.0</ele><time>2026-04-07T10:11:46.346Z</time></trkpt><trkpt lat="40.4417823" lon="9.6185506"><ele>121.5</ele><time>2026-04-07T10:11:47.346Z</time></trkpt><trkpt lat="40.4419197" lon="9.6186192"><ele>122.0</ele><time>2026-04-07T10:11:48.346Z</time></trkpt><trkpt lat="40.4420582" lon="9.6186876"><ele>124.0</ele><time>2026-04-07T10:11:49.346Z</time></trkpt><trkpt lat="40.4421964" lon="9.6187504"><ele>126.0</ele><time>2026-04-07T10:11:50.346Z</time></trkpt><trkpt lat="40.4423341" lon="9.6188225"><ele>128.0</ele><time>2026-04-07T10:11:51.345Z</time></trkpt><trkpt lat="40.4424685" lon="9.6189026"><ele>130.0</ele><time>2026-04-07T10:11:52.346Z</time></trkpt><trkpt lat="40.4425914" lon="9.6189991"><ele>130.0</ele><time>2026-04-07T10:11:53.346Z</time></trkpt><trkpt lat="40.4426992" lon="9.6191139"><ele>130.0</ele><time>2026-04-07T10:11:54.346Z</time></trkpt><trkpt lat="40.4427896" lon="9.6192434"><ele>130.0</ele><time>2026-04-07T10:11:55.345Z</time></trkpt><trkpt lat="40.4428719" lon="9.6193822"><ele>130.0</ele><time>2026-04-07T10:11:56.346Z</time></trkpt><trkpt lat="40.4429517" lon="9.6195275"><ele>133.5</ele><time>2026-04-07T10:11:57.345Z</time></trkpt><trkpt lat="40.4430313" lon="9.6196696"><ele>137.0</ele><time>2026-04-07T10:11:58.345Z</time></trkpt><trkpt lat="40.4431141" lon="9.6198192"><ele>140.5</ele><time>2026-04-07T10:11:59.346Z</time></trkpt><trkpt lat="40.4431962" lon="9.6199696"><ele>144.0</ele><time>2026-04-07T10:12:00.346Z</time></trkpt><trkpt lat="40.4432802" lon="9.6201165"><ele>144.0</ele><time>2026-04-07T10:12:01.346Z</time></trkpt><trkpt lat="40.4433637" lon="9.6202625"><ele>144.0</ele><time>2026-04-07T10:12:02.345Z</time></trkpt><trkpt lat="40.4434454" lon="9.6204061"><ele>144.0</ele><time>2026-04-07T10:12:03.346Z</time></trkpt><trkpt lat="40.4435262" lon="9.6205517"><ele>144.0</ele><time>2026-04-07T10:12:04.345Z</time></trkpt><trkpt lat="40.4436079" lon="9.620694"><ele>143.75</ele><time>2026-04-07T10:12:05.346Z</time></trkpt><trkpt lat="40.4436945" lon="9.6208236"><ele>143.5</ele><time>2026-04-07T10:12:06.346Z</time></trkpt><trkpt lat="40.4437862" lon="9.6209466"><ele>143.25</ele><time>2026-04-07T10:12:07.346Z</time></trkpt><trkpt lat="40.4438915" lon="9.621046"><ele>143.0</ele><time>2026-04-07T10:12:08.345Z</time></trkpt><trkpt lat="40.4440081" lon="9.6211272"><ele>143.75</ele><time>2026-04-07T10:12:09.346Z</time></trkpt><trkpt lat="40.4441316" lon="9.621199"><ele>144.5</ele><time>2026-04-07T10:12:10.346Z</time></trkpt><trkpt lat="40.4442558" lon="9.6212686"><ele>145.25</ele><time>2026-04-07T10:12:11.345Z</time></trkpt><trkpt lat="40.4443862" lon="9.6213356"><ele>146.0</ele><time>2026-04-07T10:12:12.345Z</time></trkpt><trkpt lat="40.4445196" lon="9.6214072"><ele>146.25</ele><time>2026-04-07T10:12:13.346Z</time></trkpt><trkpt lat="40.4446519" lon="9.6214814"><ele>146.5</ele><time>2026-04-07T10:12:14.346Z</time></trkpt><trkpt lat="40.4447873" lon="9.6215544"><ele>146.75</ele><time>2026-04-07T10:12:15.346Z</time></trkpt><trkpt lat="40.4449188" lon="9.6216246"><ele>147.0</ele><time>2026-04-07T10:12:16.345Z</time></trkpt><trkpt lat="40.4450411" lon="9.6216943"><ele>147.0</ele><time>2026-04-07T10:12:17.346Z</time></trkpt><trkpt lat="40.445164" lon="9.6217623"><ele>147.0</ele><time>2026-04-07T10:12:18.346Z</time></trkpt><trkpt lat="40.4452908" lon="9.6218316"><ele>147.0</ele><time>2026-04-07T10:12:19.345Z</time></trkpt><trkpt lat="40.4454155" lon="9.6219032"><ele>147.0</ele><time>2026-04-07T10:12:20.345Z</time></trkpt><trkpt lat="40.4455329" lon="9.621987"><ele>143.5</ele><time>2026-04-07T10:12:21.346Z</time></trkpt><trkpt lat="40.4456425" lon="9.6220815"><ele>140.0</ele><time>2026-04-07T10:12:22.346Z</time></trkpt><trkpt lat="40.4457477" lon="9.6221858"><ele>136.5</ele><time>2026-04-07T10:12:23.346Z</time></trkpt><trkpt lat="40.4458523" lon="9.6222892"><ele>133.0</ele><time>2026-04-07T10:12:24.346Z</time></trkpt><trkpt lat="40.4459553" lon="9.6223971"><ele>133.0</ele><time>2026-04-07T10:12:25.346Z</time></trkpt><trkpt lat="40.4460559" lon="9.6225126"><ele>133.0</ele><time>2026-04-07T10:12:26.346Z</time></trkpt><trkpt lat="40.4461504" lon="9.6226357"><ele>133.0</ele><time>2026-04-07T10:12:27.346Z</time></trkpt><trkpt lat="40.4462389" lon="9.6227707"><ele>133.0</ele><time>2026-04-07T10:12:28.346Z</time></trkpt><trkpt lat="40.4463203" lon="9.622915"><ele>132.25</ele><time>2026-04-07T10:12:29.345Z</time></trkpt><trkpt lat="40.4463931" lon="9.6230621"><ele>131.5</ele><time>2026-04-07T10:12:30.346Z</time></trkpt><trkpt lat="40.4464544" lon="9.6232079"><ele>130.75</ele><time>2026-04-07T10:12:31.346Z</time></trkpt><trkpt lat="40.4465121" lon="9.6233439"><ele>130.0</ele><time>2026-04-07T10:12:32.345Z</time></trkpt><trkpt lat="40.4465703" lon="9.6234737"><ele>130.0</ele><time>2026-04-07T10:12:33.345Z</time></trkpt><trkpt lat="40.4466279" lon="9.6236063"><ele>130.0</ele><time>2026-04-07T10:12:34.346Z</time></trkpt><trkpt lat="40.4466991" lon="9.623715"><ele>130.0</ele><time>2026-04-07T10:12:35.345Z</time></trkpt><trkpt lat="40.4467797" lon="9.623799"><ele>130.0</ele><time>2026-04-07T10:12:36.346Z</time></trkpt><trkpt lat="40.446884" lon="9.623847"><ele>130.0</ele><time>2026-04-07T10:12:37.346Z</time></trkpt><trkpt lat="40.4469978" lon="9.6238676"><ele>128.75</ele><time>2026-04-07T10:12:38.346Z</time></trkpt><trkpt lat="40.4471182" lon="9.6238746"><ele>127.5</ele><time>2026-04-07T10:12:39.346Z</time></trkpt><trkpt lat="40.4472472" lon="9.6238808"><ele>126.25</ele><time>2026-04-07T10:12:40.345Z</time></trkpt><trkpt lat="40.4473733" lon="9.623891"><ele>125.0</ele><time>2026-04-07T10:12:41.345Z</time></trkpt><trkpt lat="40.4474971" lon="9.6238977"><ele>125.0</ele><time>2026-04-07T10:12:42.346Z</time></trkpt><trkpt lat="40.4476186" lon="9.623904"><ele>125.0</ele><time>2026-04-07T10:12:43.346Z</time></trkpt><trkpt lat="40.4477386" lon="9.6239071"><ele>125.0</ele><time>2026-04-07T10:12:44.346Z</time></trkpt><trkpt lat="40.4478549" lon="9.6239114"><ele>125.0</ele><time>2026-04-07T10:12:45.346Z</time></trkpt><trkpt lat="40.4479704" lon="9.6239175"><ele>124.75</ele><time>2026-04-07T10:12:46.345Z</time></trkpt><trkpt lat="40.4480838" lon="9.6239278"><ele>124.5</ele><time>2026-04-07T10:12:47.346Z</time></trkpt><trkpt lat="40.4481952" lon="9.623939"><ele>124.25</ele><time>2026-04-07T10:12:48.346Z</time></trkpt><trkpt lat="40.4483075" lon="9.6239508"><ele>124.0</ele><time>2026-04-07T10:12:49.345Z</time></trkpt><trkpt lat="40.4484211" lon="9.6239641"><ele>124.0</ele><time>2026-04-07T10:12:50.345Z</time></trkpt><trkpt lat="40.4485362" lon="9.6239839"><ele>124.0</ele><time>2026-04-07T10:12:51.346Z</time></trkpt><trkpt lat="40.4486516" lon="9.6240137"><ele>124.0</ele><time>2026-04-07T10:12:52.345Z</time></trkpt><trkpt lat="40.4487686" lon="9.6240587"><ele>124.0</ele><time>2026-04-07T10:12:53.346Z</time></trkpt><trkpt lat="40.4488875" lon="9.6241072"><ele>124.25</ele><time>2026-04-07T10:12:54.346Z</time></trkpt><trkpt lat="40.4490069" lon="9.6241582"><ele>124.5</ele><time>2026-04-07T10:12:55.345Z</time></trkpt><trkpt lat="40.4491276" lon="9.6242045"><ele>124.75</ele><time>2026-04-07T10:12:56.345Z</time></trkpt><trkpt lat="40.4492436" lon="9.6242542"><ele>125.0</ele><time>2026-04-07T10:12:57.345Z</time></trkpt><trkpt lat="40.4493583" lon="9.6243057"><ele>125.0</ele><time>2026-04-07T10:12:58.345Z</time></trkpt><trkpt lat="40.449465" lon="9.6243539"><ele>125.0</ele><time>2026-04-07T10:12:59.346Z</time></trkpt><trkpt lat="40.4495688" lon="9.6244081"><ele>125.0</ele><time>2026-04-07T10:13:00.346Z</time></trkpt><trkpt lat="40.4496593" lon="9.6244891"><ele>125.0</ele><time>2026-04-07T10:13:01.345Z</time></trkpt><trkpt lat="40.4497261" lon="9.6246011"><ele>125.0</ele><time>2026-04-07T10:13:02.346Z</time></trkpt><trkpt lat="40.4497601" lon="9.6247334"><ele>128.5</ele><time>2026-04-07T10:13:03.346Z</time></trkpt><trkpt lat="40.4497843" lon="9.6248782"><ele>132.0</ele><time>2026-04-07T10:13:04.345Z</time></trkpt><trkpt lat="40.4498045" lon="9.6250356"><ele>135.5</ele><time>2026-04-07T10:13:05.346Z</time></trkpt><trkpt lat="40.4498259" lon="9.6251987"><ele>139.0</ele><time>2026-04-07T10:13:06.346Z</time></trkpt><trkpt lat="40.4498484" lon="9.6253575"><ele>139.5</ele><time>2026-04-07T10:13:07.345Z</time></trkpt><trkpt lat="40.4498713" lon="9.6255147"><ele>140.0</ele><time>2026-04-07T10:13:08.346Z</time></trkpt><trkpt lat="40.4498955" lon="9.6256723"><ele>140.5</ele><time>2026-04-07T10:13:09.346Z</time></trkpt><trkpt lat="40.4499166" lon="9.6258284"><ele>141.0</ele><time>2026-04-07T10:13:10.346Z</time></trkpt><trkpt lat="40.4499407" lon="9.6259815"><ele>141.0</ele><time>2026-04-07T10:13:11.346Z</time></trkpt><trkpt lat="40.4499623" lon="9.6261272"><ele>141.0</ele><time>2026-04-07T10:13:12.346Z</time></trkpt><trkpt lat="40.4499887" lon="9.626271"><ele>141.0</ele><time>2026-04-07T10:13:13.345Z</time></trkpt><trkpt lat="40.4500338" lon="9.626408"><ele>141.0</ele><time>2026-04-07T10:13:14.345Z</time></trkpt><trkpt lat="40.4501048" lon="9.6265261"><ele>141.75</ele><time>2026-04-07T10:13:15.346Z</time></trkpt><trkpt lat="40.4501952" lon="9.6266212"><ele>142.5</ele><time>2026-04-07T10:13:16.346Z</time></trkpt><trkpt lat="40.4503006" lon="9.6266809"><ele>143.25</ele><time>2026-04-07T10:13:17.346Z</time></trkpt><trkpt lat="40.4504156" lon="9.6267116"><ele>144.0</ele><time>2026-04-07T10:13:18.346Z</time></trkpt><trkpt lat="40.4505332" lon="9.6267267"><ele>146.75</ele><time>2026-04-07T10:13:19.346Z</time></trkpt><trkpt lat="40.4506566" lon="9.6267369"><ele>149.5</ele><time>2026-04-07T10:13:20.346Z</time></trkpt><trkpt lat="40.4507764" lon="9.6267467"><ele>152.25</ele><time>2026-04-07T10:13:21.346Z</time></trkpt><trkpt lat="40.4508891" lon="9.6267531"><ele>155.0</ele><time>2026-04-07T10:13:22.346Z</time></trkpt><trkpt lat="40.4510083" lon="9.6267629"><ele>155.0</ele><time>2026-04-07T10:13:23.345Z</time></trkpt><trkpt lat="40.4511224" lon="9.6267707"><ele>155.0</ele><time>2026-04-07T10:13:24.346Z</time></trkpt><trkpt lat="40.4512374" lon="9.6267864"><ele>155.0</ele><time>2026-04-07T10:13:25.345Z</time></trkpt><trkpt lat="40.4513525" lon="9.6268042"><ele>155.0</ele><time>2026-04-07T10:13:26.346Z</time></trkpt><trkpt lat="40.451472" lon="9.6268273"><ele>156.5</ele><time>2026-04-07T10:13:27.345Z</time></trkpt><trkpt lat="40.4515909" lon="9.6268505"><ele>158.0</ele><time>2026-04-07T10:13:28.346Z</time></trkpt><trkpt lat="40.4517045" lon="9.6268774"><ele>159.5</ele><time>2026-04-07T10:13:29.345Z</time></trkpt><trkpt lat="40.4518228" lon="9.6269053"><ele>161.0</ele><time>2026-04-07T10:13:30.346Z</time></trkpt><trkpt lat="40.4519457" lon="9.6269326"><ele>161.0</ele><time>2026-04-07T10:13:31.346Z</time></trkpt><trkpt lat="40.4520673" lon="9.6269564"><ele>161.0</ele><time>2026-04-07T10:13:32.346Z</time></trkpt><trkpt lat="40.4521866" lon="9.6269853"><ele>161.0</ele><time>2026-04-07T10:13:33.345Z</time></trkpt><trkpt lat="40.4523051" lon="9.627017"><ele>161.0</ele><time>2026-04-07T10:13:34.345Z</time></trkpt><trkpt lat="40.4524255" lon="9.627042"><ele>163.0</ele><time>2026-04-07T10:13:35.346Z</time></trkpt><trkpt lat="40.4525503" lon="9.6270676"><ele>165.0</ele><time>2026-04-07T10:13:36.346Z</time></trkpt><trkpt lat="40.4526761" lon="9.6270975"><ele>167.0</ele><time>2026-04-07T10:13:37.346Z</time></trkpt><trkpt lat="40.4528047" lon="9.627125"><ele>169.0</ele><time>2026-04-07T10:13:38.346Z</time></trkpt><trkpt lat="40.452931" lon="9.6271549"><ele>172.5</ele><time>2026-04-07T10:13:39.345Z</time></trkpt><trkpt lat="40.4530601" lon="9.62718"><ele>176.0</ele><time>2026-04-07T10:13:40.345Z</time></trkpt><trkpt lat="40.4531904" lon="9.6272087"><ele>179.5</ele><time>2026-04-07T10:13:41.345Z</time></trkpt><trkpt lat="40.4533177" lon="9.6272406"><ele>183.0</ele><time>2026-04-07T10:13:42.346Z</time></trkpt><trkpt lat="40.4534476" lon="9.6272697"><ele>183.0</ele><time>2026-04-07T10:13:43.346Z</time></trkpt><trkpt lat="40.4535805" lon="9.6272975"><ele>183.0</ele><time>2026-04-07T10:13:44.345Z</time></trkpt><trkpt lat="40.4537126" lon="9.627321"><ele>183.0</ele><time>2026-04-07T10:13:45.346Z</time></trkpt><trkpt lat="40.4538452" lon="9.6273453"><ele>183.0</ele><time>2026-04-07T10:13:46.346Z</time></trkpt><trkpt lat="40.4539807" lon="9.6273592"><ele>185.75</ele><time>2026-04-07T10:13:47.345Z</time></trkpt><trkpt lat="40.4541177" lon="9.627368"><ele>188.5</ele><time>2026-04-07T10:13:48.346Z</time></trkpt><trkpt lat="40.4542583" lon="9.6273692"><ele>191.25</ele><time>2026-04-07T10:13:49.346Z</time></trkpt><trkpt lat="40.4544002" lon="9.6273662"><ele>194.0</ele><time>2026-04-07T10:13:50.346Z</time></trkpt><trkpt lat="40.4545449" lon="9.6273614"><ele>196.75</ele><time>2026-04-07T10:13:51.345Z</time></trkpt><trkpt lat="40.4546917" lon="9.6273566"><ele>199.5</ele><time>2026-04-07T10:13:52.346Z</time></trkpt><trkpt lat="40.4548406" lon="9.6273547"><ele>202.25</ele><time>2026-04-07T10:13:53.345Z</time></trkpt><trkpt lat="40.454987" lon="9.6273541"><ele>205.0</ele><time>2026-04-07T10:13:54.346Z</time></trkpt><trkpt lat="40.4551312" lon="9.6273473"><ele>205.0</ele><time>2026-04-07T10:13:55.345Z</time></trkpt><trkpt lat="40.4552708" lon="9.6273451"><ele>205.0</ele><time>2026-04-07T10:13:56.346Z</time></trkpt><trkpt lat="40.4554132" lon="9.627342"><ele>205.0</ele><time>2026-04-07T10:13:57.346Z</time></trkpt><trkpt lat="40.455555" lon="9.6273334"><ele>205.0</ele><time>2026-04-07T10:13:58.345Z</time></trkpt><trkpt lat="40.4556961" lon="9.6273208"><ele>207.0</ele><time>2026-04-07T10:13:59.345Z</time></trkpt><trkpt lat="40.4558396" lon="9.6273102"><ele>209.0</ele><time>2026-04-07T10:14:00.346Z</time></trkpt><trkpt lat="40.4559847" lon="9.6272954"><ele>211.0</ele><time>2026-04-07T10:14:01.346Z</time></trkpt><trkpt lat="40.456128" lon="9.6272764"><ele>213.0</ele><time>2026-04-07T10:14:02.346Z</time></trkpt><trkpt lat="40.4562736" lon="9.6272575"><ele>213.5</ele><time>2026-04-07T10:14:03.346Z</time></trkpt><trkpt lat="40.456419" lon="9.627247"><ele>214.0</ele><time>2026-04-07T10:14:04.346Z</time></trkpt><trkpt lat="40.4565645" lon="9.6272322"><ele>214.5</ele><time>2026-04-07T10:14:05.346Z</time></trkpt><trkpt lat="40.4567048" lon="9.6272199"><ele>215.0</ele><time>2026-04-07T10:14:06.346Z</time></trkpt><trkpt lat="40.4568453" lon="9.6271986"><ele>215.0</ele><time>2026-04-07T10:14:07.346Z</time></trkpt><trkpt lat="40.4569838" lon="9.6271632"><ele>215.0</ele><time>2026-04-07T10:14:08.345Z</time></trkpt><trkpt lat="40.4571234" lon="9.627111"><ele>215.0</ele><time>2026-04-07T10:14:09.346Z</time></trkpt><trkpt lat="40.4572563" lon="9.6270388"><ele>215.0</ele><time>2026-04-07T10:14:10.346Z</time></trkpt><trkpt lat="40.4573868" lon="9.626964"><ele>218.25</ele><time>2026-04-07T10:14:11.346Z</time></trkpt><trkpt lat="40.4575108" lon="9.6268858"><ele>221.5</ele><time>2026-04-07T10:14:12.345Z</time></trkpt><trkpt lat="40.4576372" lon="9.6268059"><ele>224.75</ele><time>2026-04-07T10:14:13.346Z</time></trkpt><trkpt lat="40.4577636" lon="9.6267305"><ele>228.0</ele><time>2026-04-07T10:14:14.345Z</time></trkpt><trkpt lat="40.4578923" lon="9.626654"><ele>228.25</ele><time>2026-04-07T10:14:15.346Z</time></trkpt><trkpt lat="40.4580225" lon="9.6265792"><ele>228.5</ele><time>2026-04-07T10:14:16.346Z</time></trkpt><trkpt lat="40.4581485" lon="9.6265001"><ele>228.75</ele><time>2026-04-07T10:14:17.346Z</time></trkpt><trkpt lat="40.458276" lon="9.626423"><ele>229.0</ele><time>2026-04-07T10:14:18.346Z</time></trkpt><trkpt lat="40.4584031" lon="9.6263481"><ele>229.0</ele><time>2026-04-07T10:14:19.345Z</time></trkpt><trkpt lat="40.4585303" lon="9.6262697"><ele>229.0</ele><time>2026-04-07T10:14:20.346Z</time></trkpt><trkpt lat="40.4586464" lon="9.6261958"><ele>229.0</ele><time>2026-04-07T10:14:21.346Z</time></trkpt><trkpt lat="40.4587645" lon="9.6261172"><ele>229.0</ele><time>2026-04-07T10:14:22.345Z</time></trkpt><trkpt lat="40.4588789" lon="9.6260326"><ele>232.0</ele><time>2026-04-07T10:14:23.346Z</time></trkpt><trkpt lat="40.458986" lon="9.6259377"><ele>235.0</ele><time>2026-04-07T10:14:24.346Z</time></trkpt><trkpt lat="40.4590872" lon="9.6258379"><ele>238.0</ele><time>2026-04-07T10:14:25.346Z</time></trkpt><trkpt lat="40.4591817" lon="9.6257375"><ele>241.0</ele><time>2026-04-07T10:14:26.346Z</time></trkpt><trkpt lat="40.4592848" lon="9.6256603"><ele>241.0</ele><time>2026-04-07T10:14:27.345Z</time></trkpt><trkpt lat="40.4593949" lon="9.6256034"><ele>241.00000000000003</ele><time>2026-04-07T10:14:28.346Z</time></trkpt><trkpt lat="40.4595062" lon="9.6255818"><ele>241.00000000000003</ele><time>2026-04-07T10:14:29.346Z</time></trkpt><trkpt lat="40.4596016" lon="9.6255865"><ele>241.0</ele><time>2026-04-07T10:14:30.346Z</time></trkpt><trkpt lat="40.4596865" lon="9.6256178"><ele>241.0</ele><time>2026-04-07T10:14:31.346Z</time></trkpt><trkpt lat="40.4597853" lon="9.6256521"><ele>241.75</ele><time>2026-04-07T10:14:32.346Z</time></trkpt><trkpt lat="40.4598899" lon="9.6257067"><ele>242.5</ele><time>2026-04-07T10:14:33.346Z</time></trkpt><trkpt lat="40.4599982" lon="9.6257916"><ele>243.25</ele><time>2026-04-07T10:14:34.346Z</time></trkpt><trkpt lat="40.4601184" lon="9.6258803"><ele>244.0</ele><time>2026-04-07T10:14:35.346Z</time></trkpt><trkpt lat="40.4602436" lon="9.6259779"><ele>244.0</ele><time>2026-04-07T10:14:36.345Z</time></trkpt><trkpt lat="40.4603771" lon="9.6260738"><ele>244.0</ele><time>2026-04-07T10:14:37.346Z</time></trkpt><trkpt lat="40.4605101" lon="9.6261694"><ele>244.0</ele><time>2026-04-07T10:14:38.345Z</time></trkpt><trkpt lat="40.4606464" lon="9.6262661"><ele>247.0</ele><time>2026-04-07T10:14:39.346Z</time></trkpt><trkpt lat="40.4607791" lon="9.6263633"><ele>250.0</ele><time>2026-04-07T10:14:40.346Z</time></trkpt><trkpt lat="40.4609051" lon="9.62647"><ele>253.0</ele><time>2026-04-07T10:14:41.346Z</time></trkpt><trkpt lat="40.4610311" lon="9.626584"><ele>253.0</ele><time>2026-04-07T10:14:42.346Z</time></trkpt><trkpt lat="40.4611522" lon="9.6267014"><ele>253.0</ele><time>2026-04-07T10:14:43.345Z</time></trkpt><trkpt lat="40.4612651" lon="9.6268169"><ele>253.0</ele><time>2026-04-07T10:14:44.346Z</time></trkpt><trkpt lat="40.4613797" lon="9.6269262"><ele>253.0</ele><time>2026-04-07T10:14:45.346Z</time></trkpt><trkpt lat="40.4614897" lon="9.6270428"><ele>256.0</ele><time>2026-04-07T10:14:46.346Z</time></trkpt><trkpt lat="40.4616014" lon="9.6271533"><ele>259.0</ele><time>2026-04-07T10:14:47.345Z</time></trkpt><trkpt lat="40.4617148" lon="9.627254"><ele>262.0</ele><time>2026-04-07T10:14:48.346Z</time></trkpt><trkpt lat="40.4618389" lon="9.6273371"><ele>265.0</ele><time>2026-04-07T10:14:49.346Z</time></trkpt><trkpt lat="40.4619714" lon="9.6273965"><ele>265.0</ele><time>2026-04-07T10:14:50.346Z</time></trkpt><trkpt lat="40.4621116" lon="9.6274542"><ele>265.0</ele><time>2026-04-07T10:14:51.346Z</time></trkpt><trkpt lat="40.4622494" lon="9.6275082"><ele>265.0</ele><time>2026-04-07T10:14:52.346Z</time></trkpt><trkpt lat="40.4623872" lon="9.6275625"><ele>265.0</ele><time>2026-04-07T10:14:53.346Z</time></trkpt><trkpt lat="40.4625203" lon="9.6276142"><ele>266.5</ele><time>2026-04-07T10:14:54.346Z</time></trkpt><trkpt lat="40.4626581" lon="9.6276609"><ele>268.0</ele><time>2026-04-07T10:14:55.346Z</time></trkpt><trkpt lat="40.4627906" lon="9.6277111"><ele>269.5</ele><time>2026-04-07T10:14:56.346Z</time></trkpt><trkpt lat="40.4629247" lon="9.6277543"><ele>271.0</ele><time>2026-04-07T10:14:57.346Z</time></trkpt><trkpt lat="40.4630546" lon="9.6278075"><ele>271.5</ele><time>2026-04-07T10:14:58.346Z</time></trkpt><trkpt lat="40.463188" lon="9.6278652"><ele>272.0</ele><time>2026-04-07T10:14:59.346Z</time></trkpt><trkpt lat="40.4633183" lon="9.6279278"><ele>272.5</ele><time>2026-04-07T10:15:00.345Z</time></trkpt><trkpt lat="40.4634472" lon="9.6280077"><ele>273.0</ele><time>2026-04-07T10:15:01.345Z</time></trkpt><trkpt lat="40.463564" lon="9.6281179"><ele>273.0</ele><time>2026-04-07T10:15:02.346Z</time></trkpt><trkpt lat="40.4636592" lon="9.6282531"><ele>273.0</ele><time>2026-04-07T10:15:03.346Z</time></trkpt><trkpt lat="40.4637333" lon="9.6284063"><ele>273.0</ele><time>2026-04-07T10:15:04.345Z</time></trkpt><trkpt lat="40.4637981" lon="9.6285702"><ele>273.0</ele><time>2026-04-07T10:15:05.345Z</time></trkpt><trkpt lat="40.4638578" lon="9.628736"><ele>276.2</ele><time>2026-04-07T10:15:06.346Z</time></trkpt><trkpt lat="40.4639023" lon="9.6288896"><ele>279.4</ele><time>2026-04-07T10:15:07.345Z</time></trkpt><trkpt lat="40.4639527" lon="9.6290231"><ele>282.59999999999997</ele><time>2026-04-07T10:15:08.346Z</time></trkpt><trkpt lat="40.464018" lon="9.6291389"><ele>285.8</ele><time>2026-04-07T10:15:09.346Z</time></trkpt><trkpt lat="40.4640981" lon="9.6292197"><ele>289.0</ele><time>2026-04-07T10:15:10.346Z</time></trkpt><trkpt lat="40.4641971" lon="9.6292655"><ele>289.0</ele><time>2026-04-07T10:15:11.346Z</time></trkpt><trkpt lat="40.4643068" lon="9.6292737"><ele>289.0</ele><time>2026-04-07T10:15:12.345Z</time></trkpt><trkpt lat="40.4644133" lon="9.6292377"><ele>289.0</ele><time>2026-04-07T10:15:13.345Z</time></trkpt><trkpt lat="40.4645195" lon="9.6291776"><ele>289.0</ele><time>2026-04-07T10:15:14.346Z</time></trkpt><trkpt lat="40.4646266" lon="9.6291118"><ele>290.0</ele><time>2026-04-07T10:15:15.346Z</time></trkpt><trkpt lat="40.4647387" lon="9.6290454"><ele>291.0</ele><time>2026-04-07T10:15:16.346Z</time></trkpt><trkpt lat="40.4648528" lon="9.6289796"><ele>292.0</ele><time>2026-04-07T10:15:17.345Z</time></trkpt><trkpt lat="40.4649709" lon="9.628916"><ele>293.0</ele><time>2026-04-07T10:15:18.346Z</time></trkpt><trkpt lat="40.4650853" lon="9.6288485"><ele>293.0</ele><time>2026-04-07T10:15:19.346Z</time></trkpt><trkpt lat="40.4651997" lon="9.6287771"><ele>293.0</ele><time>2026-04-07T10:15:20.346Z</time></trkpt><trkpt lat="40.4653151" lon="9.6287056"><ele>293.0</ele><time>2026-04-07T10:15:21.346Z</time></trkpt><trkpt lat="40.4654399" lon="9.6286396"><ele>293.0</ele><time>2026-04-07T10:15:22.345Z</time></trkpt><trkpt lat="40.4655699" lon="9.6285915"><ele>296.75</ele><time>2026-04-07T10:15:23.345Z</time></trkpt><trkpt lat="40.4657052" lon="9.6285601"><ele>300.5</ele><time>2026-04-07T10:15:24.345Z</time></trkpt><trkpt lat="40.4658415" lon="9.6285629"><ele>304.25</ele><time>2026-04-07T10:15:25.346Z</time></trkpt><trkpt lat="40.4659755" lon="9.6285828"><ele>308.0</ele><time>2026-04-07T10:15:26.346Z</time></trkpt><trkpt lat="40.4661161" lon="9.6286097"><ele>308.0</ele><time>2026-04-07T10:15:27.345Z</time></trkpt><trkpt lat="40.4662574" lon="9.6286345"><ele>308.0</ele><time>2026-04-07T10:15:28.346Z</time></trkpt><trkpt lat="40.4663972" lon="9.6286589"><ele>308.0</ele><time>2026-04-07T10:15:29.345Z</time></trkpt><trkpt lat="40.4665298" lon="9.6286793"><ele>308.0</ele><time>2026-04-07T10:15:30.346Z</time></trkpt><trkpt lat="40.4666518" lon="9.6287059"><ele>309.0</ele><time>2026-04-07T10:15:31.346Z</time></trkpt><trkpt lat="40.4667711" lon="9.6287302"><ele>310.0</ele><time>2026-04-07T10:15:32.345Z</time></trkpt><trkpt lat="40.4668848" lon="9.6287718"><ele>311.0</ele><time>2026-04-07T10:15:33.346Z</time></trkpt><trkpt lat="40.4669857" lon="9.6288514"><ele>312.0</ele><time>2026-04-07T10:15:34.345Z</time></trkpt><trkpt lat="40.4670809" lon="9.6289332"><ele>314.4</ele><time>2026-04-07T10:15:35.345Z</time></trkpt><trkpt lat="40.4671595" lon="9.6290348"><ele>316.79999999999995</ele><time>2026-04-07T10:15:36.346Z</time></trkpt><trkpt lat="40.4672093" lon="9.6291715"><ele>319.2</ele><time>2026-04-07T10:15:37.346Z</time></trkpt><trkpt lat="40.4672345" lon="9.6293088"><ele>321.59999999999997</ele><time>2026-04-07T10:15:38.346Z</time></trkpt><trkpt lat="40.4672404" lon="9.6294466"><ele>324.0</ele><time>2026-04-07T10:15:39.345Z</time></trkpt><trkpt lat="40.4672669" lon="9.6295661"><ele>324.0</ele><time>2026-04-07T10:15:40.346Z</time></trkpt><trkpt lat="40.4673153" lon="9.6296804"><ele>324.0</ele><time>2026-04-07T10:15:41.346Z</time></trkpt><trkpt lat="40.4673873" lon="9.6297718"><ele>324.0</ele><time>2026-04-07T10:15:42.346Z</time></trkpt><trkpt lat="40.4674802" lon="9.6298251"><ele>324.0</ele><time>2026-04-07T10:15:43.346Z</time></trkpt><trkpt lat="40.4675849" lon="9.6298555"><ele>324.0</ele><time>2026-04-07T10:15:44.346Z</time></trkpt><trkpt lat="40.4676956" lon="9.6298863"><ele>324.0</ele><time>2026-04-07T10:15:45.346Z</time></trkpt><trkpt lat="40.4678121" lon="9.6299141"><ele>324.0</ele><time>2026-04-07T10:15:46.346Z</time></trkpt><trkpt lat="40.4679307" lon="9.6299434"><ele>324.0</ele><time>2026-04-07T10:15:47.346Z</time></trkpt><trkpt lat="40.4680521" lon="9.6299688"><ele>324.0</ele><time>2026-04-07T10:15:48.345Z</time></trkpt><trkpt lat="40.4681779" lon="9.6299878"><ele>327.0</ele><time>2026-04-07T10:15:49.346Z</time></trkpt><trkpt lat="40.4683034" lon="9.6299947"><ele>330.0</ele><time>2026-04-07T10:15:50.346Z</time></trkpt><trkpt lat="40.4684319" lon="9.6299878"><ele>333.0</ele><time>2026-04-07T10:15:51.346Z</time></trkpt><trkpt lat="40.4685639" lon="9.6299731"><ele>336.0</ele><time>2026-04-07T10:15:52.346Z</time></trkpt><trkpt lat="40.468697" lon="9.6299571"><ele>335.75</ele><time>2026-04-07T10:15:53.346Z</time></trkpt><trkpt lat="40.4688255" lon="9.6299409"><ele>335.5</ele><time>2026-04-07T10:15:54.346Z</time></trkpt><trkpt lat="40.4689562" lon="9.6299165"><ele>335.25</ele><time>2026-04-07T10:15:55.346Z</time></trkpt><trkpt lat="40.4690859" lon="9.629891"><ele>335.0</ele><time>2026-04-07T10:15:56.345Z</time></trkpt><trkpt lat="40.4692196" lon="9.6298619"><ele>335.0</ele><time>2026-04-07T10:15:57.346Z</time></trkpt><trkpt lat="40.4693572" lon="9.6298315"><ele>335.0</ele><time>2026-04-07T10:15:58.345Z</time></trkpt><trkpt lat="40.4694989" lon="9.6298043"><ele>335.0</ele><time>2026-04-07T10:15:59.345Z</time></trkpt><trkpt lat="40.4696387" lon="9.6297848"><ele>335.0</ele><time>2026-04-07T10:16:00.346Z</time></trkpt><trkpt lat="40.4697771" lon="9.6297731"><ele>335.0</ele><time>2026-04-07T10:16:01.345Z</time></trkpt><trkpt lat="40.4699219" lon="9.6297701"><ele>335.0</ele><time>2026-04-07T10:16:02.345Z</time></trkpt><trkpt lat="40.4700646" lon="9.6297722"><ele>335.0</ele><time>2026-04-07T10:16:03.346Z</time></trkpt><trkpt lat="40.4702073" lon="9.6297761"><ele>335.0</ele><time>2026-04-07T10:16:04.346Z</time></trkpt><trkpt lat="40.4703436" lon="9.6297892"><ele>337.25</ele><time>2026-04-07T10:16:05.345Z</time></trkpt><trkpt lat="40.4704702" lon="9.6298223"><ele>339.5</ele><time>2026-04-07T10:16:06.346Z</time></trkpt><trkpt lat="40.4705985" lon="9.6298726"><ele>341.75</ele><time>2026-04-07T10:16:07.346Z</time></trkpt><trkpt lat="40.4707227" lon="9.6299336"><ele>344.0</ele><time>2026-04-07T10:16:08.346Z</time></trkpt><trkpt lat="40.4708483" lon="9.6299996"><ele>344.0</ele><time>2026-04-07T10:16:09.345Z</time></trkpt><trkpt lat="40.4709758" lon="9.6300699"><ele>344.0</ele><time>2026-04-07T10:16:10.346Z</time></trkpt><trkpt lat="40.4711028" lon="9.6301348"><ele>344.0</ele><time>2026-04-07T10:16:11.345Z</time></trkpt><trkpt lat="40.4712269" lon="9.6302049"><ele>344.0</ele><time>2026-04-07T10:16:12.346Z</time></trkpt><trkpt lat="40.4713484" lon="9.6302761"><ele>343.75</ele><time>2026-04-07T10:16:13.345Z</time></trkpt><trkpt lat="40.4714543" lon="9.6303528"><ele>343.5</ele><time>2026-04-07T10:16:14.346Z</time></trkpt><trkpt lat="40.4715518" lon="9.630436"><ele>343.25</ele><time>2026-04-07T10:16:15.346Z</time></trkpt><trkpt lat="40.4716398" lon="9.630527"><ele>343.0</ele><time>2026-04-07T10:16:16.346Z</time></trkpt><trkpt lat="40.4717195" lon="9.6306352"><ele>343.0</ele><time>2026-04-07T10:16:17.346Z</time></trkpt><trkpt lat="40.471795" lon="9.6307518"><ele>343.0</ele><time>2026-04-07T10:16:18.346Z</time></trkpt><trkpt lat="40.4718802" lon="9.6308639"><ele>343.0</ele><time>2026-04-07T10:16:19.346Z</time></trkpt><trkpt lat="40.471972" lon="9.6309718"><ele>343.0</ele><time>2026-04-07T10:16:20.346Z</time></trkpt><trkpt lat="40.472074" lon="9.6310617"><ele>345.5</ele><time>2026-04-07T10:16:21.346Z</time></trkpt><trkpt lat="40.4721842" lon="9.6311187"><ele>348.0</ele><time>2026-04-07T10:16:22.346Z</time></trkpt><trkpt lat="40.472301" lon="9.6311568"><ele>350.5</ele><time>2026-04-07T10:16:23.345Z</time></trkpt><trkpt lat="40.4724193" lon="9.631195"><ele>353.0</ele><time>2026-04-07T10:16:24.345Z</time></trkpt><trkpt lat="40.4725344" lon="9.6312471"><ele>354.25</ele><time>2026-04-07T10:16:25.345Z</time></trkpt><trkpt lat="40.4726439" lon="9.6313127"><ele>355.5</ele><time>2026-04-07T10:16:26.346Z</time></trkpt><trkpt lat="40.4727499" lon="9.6313892"><ele>356.75</ele><time>2026-04-07T10:16:27.346Z</time></trkpt><trkpt lat="40.4728542" lon="9.6314808"><ele>358.0</ele><time>2026-04-07T10:16:28.346Z</time></trkpt><trkpt lat="40.4729632" lon="9.6315838"><ele>359.0</ele><time>2026-04-07T10:16:29.345Z</time></trkpt><trkpt lat="40.4730746" lon="9.6316829"><ele>360.0</ele><time>2026-04-07T10:16:30.346Z</time></trkpt><trkpt lat="40.4731894" lon="9.6317839"><ele>361.0</ele><time>2026-04-07T10:16:31.346Z</time></trkpt><trkpt lat="40.4733119" lon="9.6318742"><ele>362.0</ele><time>2026-04-07T10:16:32.346Z</time></trkpt><trkpt lat="40.4734397" lon="9.631961"><ele>364.25</ele><time>2026-04-07T10:16:33.345Z</time></trkpt><trkpt lat="40.4735661" lon="9.6320474"><ele>366.5</ele><time>2026-04-07T10:16:34.346Z</time></trkpt><trkpt lat="40.4736936" lon="9.6321329"><ele>368.75</ele><time>2026-04-07T10:16:35.346Z</time></trkpt><trkpt lat="40.4738227" lon="9.6322246"><ele>371.0</ele><time>2026-04-07T10:16:36.346Z</time></trkpt><trkpt lat="40.4739492" lon="9.6323136"><ele>371.0</ele><time>2026-04-07T10:16:37.346Z</time></trkpt><trkpt lat="40.4740789" lon="9.6324046"><ele>371.0</ele><time>2026-04-07T10:16:38.346Z</time></trkpt><trkpt lat="40.4742058" lon="9.6324928"><ele>371.0</ele><time>2026-04-07T10:16:39.346Z</time></trkpt><trkpt lat="40.4743336" lon="9.6325809"><ele>371.0</ele><time>2026-04-07T10:16:40.346Z</time></trkpt><trkpt lat="40.4744597" lon="9.6326725"><ele>371.0</ele><time>2026-04-07T10:16:41.346Z</time></trkpt><trkpt lat="40.4745899" lon="9.6327663"><ele>371.0</ele><time>2026-04-07T10:16:42.345Z</time></trkpt><trkpt lat="40.4747207" lon="9.6328586"><ele>371.0</ele><time>2026-04-07T10:16:43.345Z</time></trkpt><trkpt lat="40.4748476" lon="9.632946"><ele>371.0</ele><time>2026-04-07T10:16:44.346Z</time></trkpt><trkpt lat="40.4749707" lon="9.6330317"><ele>375.75</ele><time>2026-04-07T10:16:45.346Z</time></trkpt><trkpt lat="40.4750951" lon="9.6331153"><ele>380.5</ele><time>2026-04-07T10:16:46.346Z</time></trkpt><trkpt lat="40.4752199" lon="9.6331896"><ele>385.25</ele><time>2026-04-07T10:16:47.346Z</time></trkpt><trkpt lat="40.4753487" lon="9.6332507"><ele>390.0</ele><time>2026-04-07T10:16:48.345Z</time></trkpt><trkpt lat="40.4754797" lon="9.633305"><ele>390.0</ele><time>2026-04-07T10:16:49.346Z</time></trkpt><trkpt lat="40.4756146" lon="9.6333645"><ele>390.0</ele><time>2026-04-07T10:16:50.346Z</time></trkpt><trkpt lat="40.4757498" lon="9.6334282"><ele>390.0</ele><time>2026-04-07T10:16:51.345Z</time></trkpt><trkpt lat="40.4758832" lon="9.6335031"><ele>390.0</ele><time>2026-04-07T10:16:52.346Z</time></trkpt><trkpt lat="40.476016" lon="9.6335903"><ele>396.33333333333337</ele><time>2026-04-07T10:16:53.346Z</time></trkpt><trkpt lat="40.476147" lon="9.6336825"><ele>402.6666666666667</ele><time>2026-04-07T10:16:54.346Z</time></trkpt><trkpt lat="40.4762795" lon="9.6337794"><ele>409.0</ele><time>2026-04-07T10:16:55.345Z</time></trkpt><trkpt lat="40.4764099" lon="9.6338763"><ele>409.0</ele><time>2026-04-07T10:16:56.346Z</time></trkpt><trkpt lat="40.4765437" lon="9.6339673"><ele>409.0</ele><time>2026-04-07T10:16:57.346Z</time></trkpt><trkpt lat="40.4766747" lon="9.6340569"><ele>409.0</ele><time>2026-04-07T10:16:58.346Z</time></trkpt><trkpt lat="40.4768136" lon="9.6341416"><ele>409.0</ele><time>2026-04-07T10:16:59.346Z</time></trkpt><trkpt lat="40.476954" lon="9.6342135"><ele>409.0</ele><time>2026-04-07T10:17:00.346Z</time></trkpt><trkpt lat="40.4770953" lon="9.6342687"><ele>409.0</ele><time>2026-04-07T10:17:01.346Z</time></trkpt><trkpt lat="40.4772406" lon="9.6343042"><ele>409.0</ele><time>2026-04-07T10:17:02.345Z</time></trkpt><trkpt lat="40.4773798" lon="9.63433"><ele>409.5</ele><time>2026-04-07T10:17:03.345Z</time></trkpt><trkpt lat="40.4775084" lon="9.6343646"><ele>410.0</ele><time>2026-04-07T10:17:04.346Z</time></trkpt><trkpt lat="40.4776321" lon="9.6344268"><ele>410.5</ele><time>2026-04-07T10:17:05.345Z</time></trkpt><trkpt lat="40.4777481" lon="9.6345215"><ele>411.0</ele><time>2026-04-07T10:17:06.346Z</time></trkpt><trkpt lat="40.4778605" lon="9.6346279"><ele>415.75</ele><time>2026-04-07T10:17:07.346Z</time></trkpt><trkpt lat="40.4779785" lon="9.634731"><ele>420.5</ele><time>2026-04-07T10:17:08.346Z</time></trkpt><trkpt lat="40.4781093" lon="9.6348238"><ele>425.25</ele><time>2026-04-07T10:17:09.346Z</time></trkpt><trkpt lat="40.4782397" lon="9.6349076"><ele>430.0</ele><time>2026-04-07T10:17:10.346Z</time></trkpt><trkpt lat="40.4783744" lon="9.63499"><ele>430.0</ele><time>2026-04-07T10:17:11.346Z</time></trkpt><trkpt lat="40.478506" lon="9.6350729"><ele>430.0</ele><time>2026-04-07T10:17:12.346Z</time></trkpt><trkpt lat="40.47864" lon="9.6351495"><ele>430.0</ele><time>2026-04-07T10:17:13.346Z</time></trkpt><trkpt lat="40.478774" lon="9.635227"><ele>430.0</ele><time>2026-04-07T10:17:14.346Z</time></trkpt><trkpt lat="40.4789106" lon="9.6352965"><ele>434.75</ele><time>2026-04-07T10:17:15.345Z</time></trkpt><trkpt lat="40.4790429" lon="9.6353607"><ele>439.5</ele><time>2026-04-07T10:17:16.346Z</time></trkpt><trkpt lat="40.4791761" lon="9.6354186"><ele>444.25</ele><time>2026-04-07T10:17:17.346Z</time></trkpt><trkpt lat="40.4793091" lon="9.6354774"><ele>449.0</ele><time>2026-04-07T10:17:18.345Z</time></trkpt><trkpt lat="40.4794421" lon="9.6355326"><ele>449.0</ele><time>2026-04-07T10:17:19.345Z</time></trkpt><trkpt lat="40.4795624" lon="9.6355857"><ele>449.0</ele><time>2026-04-07T10:17:20.346Z</time></trkpt><trkpt lat="40.4796743" lon="9.6356339"><ele>449.0</ele><time>2026-04-07T10:17:21.346Z</time></trkpt><trkpt lat="40.4797722" lon="9.6356741"><ele>449.0</ele><time>2026-04-07T10:17:22.346Z</time></trkpt><trkpt lat="40.4798466" lon="9.6357161"><ele>449.0</ele><time>2026-04-07T10:17:23.346Z</time></trkpt><trkpt lat="40.479897" lon="9.6357803"><ele>449.0</ele><time>2026-04-07T10:17:24.346Z</time></trkpt><trkpt lat="40.4799116" lon="9.6358638"><ele>449.0</ele><time>2026-04-07T10:17:25.345Z</time></trkpt><trkpt lat="40.4798246" lon="9.635989"><ele>449.0</ele><time>2026-04-07T10:17:27.346Z</time></trkpt><trkpt lat="40.4797412" lon="9.6360321"><ele>449.0</ele><time>2026-04-07T10:17:28.346Z</time></trkpt><trkpt lat="40.4796476" lon="9.6360585"><ele>449.0</ele><time>2026-04-07T10:17:29.346Z</time></trkpt><trkpt lat="40.4795425" lon="9.6360788"><ele>449.0</ele><time>2026-04-07T10:17:30.346Z</time></trkpt><trkpt lat="40.4794315" lon="9.6360954"><ele>449.0</ele><time>2026-04-07T10:17:31.346Z</time></trkpt><trkpt lat="40.4793111" lon="9.6361057"><ele>449.0</ele><time>2026-04-07T10:17:32.346Z</time></trkpt><trkpt lat="40.4791828" lon="9.636126"><ele>449.0</ele><time>2026-04-07T10:17:33.346Z</time></trkpt><trkpt lat="40.4790547" lon="9.6361533"><ele>455.25</ele><time>2026-04-07T10:17:34.345Z</time></trkpt><trkpt lat="40.4789215" lon="9.6361775"><ele>461.5</ele><time>2026-04-07T10:17:35.346Z</time></trkpt><trkpt lat="40.4787893" lon="9.6361986"><ele>467.75</ele><time>2026-04-07T10:17:36.346Z</time></trkpt><trkpt lat="40.4786584" lon="9.6362145"><ele>474.0</ele><time>2026-04-07T10:17:37.346Z</time></trkpt><trkpt lat="40.4785246" lon="9.6362309"><ele>474.5</ele><time>2026-04-07T10:17:38.345Z</time></trkpt><trkpt lat="40.4783897" lon="9.6362394"><ele>475.0</ele><time>2026-04-07T10:17:39.345Z</time></trkpt><trkpt lat="40.4782528" lon="9.6362415"><ele>475.5</ele><time>2026-04-07T10:17:40.345Z</time></trkpt><trkpt lat="40.4781112" lon="9.6362343"><ele>476.0</ele><time>2026-04-07T10:17:41.346Z</time></trkpt><trkpt lat="40.4779697" lon="9.6362193"><ele>477.0</ele><time>2026-04-07T10:17:42.346Z</time></trkpt><trkpt lat="40.4778275" lon="9.6362104"><ele>478.0</ele><time>2026-04-07T10:17:43.346Z</time></trkpt><trkpt lat="40.4776823" lon="9.6362049"><ele>479.0</ele><time>2026-04-07T10:17:44.345Z</time></trkpt><trkpt lat="40.4775351" lon="9.6362038"><ele>480.0</ele><time>2026-04-07T10:17:45.346Z</time></trkpt><trkpt lat="40.4773835" lon="9.6362088"><ele>480.0</ele><time>2026-04-07T10:17:46.346Z</time></trkpt><trkpt lat="40.4772285" lon="9.6362151"><ele>480.0</ele><time>2026-04-07T10:17:47.346Z</time></trkpt><trkpt lat="40.4770746" lon="9.6362155"><ele>480.0</ele><time>2026-04-07T10:17:48.346Z</time></trkpt><trkpt lat="40.4769243" lon="9.6362145"><ele>482.5</ele><time>2026-04-07T10:17:49.345Z</time></trkpt><trkpt lat="40.4767853" lon="9.636199"><ele>485.0</ele><time>2026-04-07T10:17:50.345Z</time></trkpt><trkpt lat="40.4766412" lon="9.6361804"><ele>487.5</ele><time>2026-04-07T10:17:51.346Z</time></trkpt><trkpt lat="40.4765024" lon="9.636169"><ele>490.0</ele><time>2026-04-07T10:17:52.345Z</time></trkpt><trkpt lat="40.4763625" lon="9.6361626"><ele>492.25</ele><time>2026-04-07T10:17:53.346Z</time></trkpt><trkpt lat="40.4762204" lon="9.6361678"><ele>494.5</ele><time>2026-04-07T10:17:54.346Z</time></trkpt><trkpt lat="40.4760801" lon="9.6361761"><ele>496.75</ele><time>2026-04-07T10:17:55.346Z</time></trkpt><trkpt lat="40.4759374" lon="9.6361999"><ele>499.0</ele><time>2026-04-07T10:17:56.346Z</time></trkpt><trkpt lat="40.4757922" lon="9.6362334"><ele>499.0</ele><time>2026-04-07T10:17:57.345Z</time></trkpt><trkpt lat="40.4756515" lon="9.6362752"><ele>499.0</ele><time>2026-04-07T10:17:58.346Z</time></trkpt><trkpt lat="40.4755124" lon="9.6363073"><ele>499.0</ele><time>2026-04-07T10:17:59.346Z</time></trkpt><trkpt lat="40.4753787" lon="9.6363224"><ele>499.0</ele><time>2026-04-07T10:18:00.345Z</time></trkpt><trkpt lat="40.47525" lon="9.6363232"><ele>499.25</ele><time>2026-04-07T10:18:01.346Z</time></trkpt><trkpt lat="40.4751201" lon="9.6363196"><ele>499.5</ele><time>2026-04-07T10:18:02.346Z</time></trkpt><trkpt lat="40.4749925" lon="9.6363143"><ele>499.75</ele><time>2026-04-07T10:18:03.346Z</time></trkpt><trkpt lat="40.4748646" lon="9.6363083"><ele>500.0</ele><time>2026-04-07T10:18:04.345Z</time></trkpt><trkpt lat="40.4747275" lon="9.6362934"><ele>500.25</ele><time>2026-04-07T10:18:05.346Z</time></trkpt><trkpt lat="40.4745902" lon="9.6362846"><ele>500.5</ele><time>2026-04-07T10:18:06.346Z</time></trkpt><trkpt lat="40.4744696" lon="9.6362724"><ele>500.75</ele><time>2026-04-07T10:18:07.346Z</time></trkpt><trkpt lat="40.4743525" lon="9.6362656"><ele>501.0</ele><time>2026-04-07T10:18:08.346Z</time></trkpt><trkpt lat="40.4742387" lon="9.6362629"><ele>501.0</ele><time>2026-04-07T10:18:09.346Z</time></trkpt><trkpt lat="40.4741235" lon="9.6362747"><ele>501.0</ele><time>2026-04-07T10:18:10.346Z</time></trkpt><trkpt lat="40.4740118" lon="9.6362848"><ele>501.0</ele><time>2026-04-07T10:18:11.346Z</time></trkpt><trkpt lat="40.4739163" lon="9.6363163"><ele>501.0</ele><time>2026-04-07T10:18:12.346Z</time></trkpt><trkpt lat="40.4738507" lon="9.6363749"><ele>501.0</ele><time>2026-04-07T10:18:13.346Z</time></trkpt><trkpt lat="40.4738081" lon="9.6365312"><ele>501.0</ele><time>2026-04-07T10:18:15.346Z</time></trkpt><trkpt lat="40.4738264" lon="9.6366151"><ele>501.0</ele><time>2026-04-07T10:18:16.346Z</time></trkpt><trkpt lat="40.4738733" lon="9.6366814"><ele>501.0</ele><time>2026-04-07T10:18:17.346Z</time></trkpt><trkpt lat="40.4739406" lon="9.6367192"><ele>501.0</ele><time>2026-04-07T10:18:18.346Z</time></trkpt><trkpt lat="40.4740187" lon="9.6367387"><ele>501.0</ele><time>2026-04-07T10:18:19.346Z</time></trkpt><trkpt lat="40.4741024" lon="9.6367269"><ele>501.0</ele><time>2026-04-07T10:18:20.345Z</time></trkpt><trkpt lat="40.4741938" lon="9.6366998"><ele>501.0</ele><time>2026-04-07T10:18:21.346Z</time></trkpt><trkpt lat="40.4742896" lon="9.6366795"><ele>501.0</ele><time>2026-04-07T10:18:22.345Z</time></trkpt><trkpt lat="40.474395" lon="9.6366765"><ele>501.0</ele><time>2026-04-07T10:18:23.345Z</time></trkpt><trkpt lat="40.4745069" lon="9.6366948"><ele>501.0</ele><time>2026-04-07T10:18:24.346Z</time></trkpt><trkpt lat="40.4746217" lon="9.6367303"><ele>501.0</ele><time>2026-04-07T10:18:25.345Z</time></trkpt><trkpt lat="40.4747432" lon="9.6367659"><ele>500.75</ele><time>2026-04-07T10:18:26.346Z</time></trkpt><trkpt lat="40.4748589" lon="9.6368088"><ele>500.5</ele><time>2026-04-07T10:18:27.346Z</time></trkpt><trkpt lat="40.4749658" lon="9.6368416"><ele>500.25</ele><time>2026-04-07T10:18:28.346Z</time></trkpt><trkpt lat="40.4750761" lon="9.6368778"><ele>500.0</ele><time>2026-04-07T10:18:29.346Z</time></trkpt><trkpt lat="40.4751857" lon="9.6369139"><ele>500.0</ele><time>2026-04-07T10:18:30.346Z</time></trkpt><trkpt lat="40.4752958" lon="9.6369506"><ele>500.0</ele><time>2026-04-07T10:18:31.345Z</time></trkpt><trkpt lat="40.4754039" lon="9.6369817"><ele>500.0</ele><time>2026-04-07T10:18:32.345Z</time></trkpt><trkpt lat="40.4755135" lon="9.63702"><ele>500.0</ele><time>2026-04-07T10:18:33.346Z</time></trkpt><trkpt lat="40.4756213" lon="9.6370668"><ele>502.5</ele><time>2026-04-07T10:18:34.345Z</time></trkpt><trkpt lat="40.4757314" lon="9.6371328"><ele>505.0</ele><time>2026-04-07T10:18:35.346Z</time></trkpt><trkpt lat="40.475838" lon="9.6372116"><ele>507.5</ele><time>2026-04-07T10:18:36.345Z</time></trkpt><trkpt lat="40.4759453" lon="9.6372999"><ele>510.0</ele><time>2026-04-07T10:18:37.346Z</time></trkpt><trkpt lat="40.4760559" lon="9.6373902"><ele>510.0</ele><time>2026-04-07T10:18:38.346Z</time></trkpt><trkpt lat="40.4761694" lon="9.6374852"><ele>510.0</ele><time>2026-04-07T10:18:39.345Z</time></trkpt><trkpt lat="40.4762862" lon="9.6375877"><ele>510.0</ele><time>2026-04-07T10:18:40.345Z</time></trkpt><trkpt lat="40.4764103" lon="9.6376905"><ele>510.0</ele><time>2026-04-07T10:18:41.345Z</time></trkpt><trkpt lat="40.4765315" lon="9.6377909"><ele>508.0</ele><time>2026-04-07T10:18:42.345Z</time></trkpt><trkpt lat="40.4766491" lon="9.6378938"><ele>506.0</ele><time>2026-04-07T10:18:43.346Z</time></trkpt><trkpt lat="40.4767724" lon="9.6379929"><ele>504.0</ele><time>2026-04-07T10:18:44.346Z</time></trkpt><trkpt lat="40.4769075" lon="9.6380675"><ele>502.0</ele><time>2026-04-07T10:18:45.345Z</time></trkpt><trkpt lat="40.4770442" lon="9.6381341"><ele>503.25</ele><time>2026-04-07T10:18:46.346Z</time></trkpt><trkpt lat="40.4771838" lon="9.6381945"><ele>504.5</ele><time>2026-04-07T10:18:47.345Z</time></trkpt><trkpt lat="40.4773191" lon="9.6382425"><ele>505.75</ele><time>2026-04-07T10:18:48.346Z</time></trkpt><trkpt lat="40.4774355" lon="9.6382824"><ele>507.0</ele><time>2026-04-07T10:18:49.346Z</time></trkpt><trkpt lat="40.4775561" lon="9.6383285"><ele>507.0</ele><time>2026-04-07T10:18:50.346Z</time></trkpt><trkpt lat="40.4776766" lon="9.6383731"><ele>507.0</ele><time>2026-04-07T10:18:51.346Z</time></trkpt><trkpt lat="40.4777933" lon="9.6384187"><ele>507.0</ele><time>2026-04-07T10:18:52.345Z</time></trkpt><trkpt lat="40.477909" lon="9.6384576"><ele>507.0</ele><time>2026-04-07T10:18:53.345Z</time></trkpt><trkpt lat="40.4780263" lon="9.6385043"><ele>507.5</ele><time>2026-04-07T10:18:54.345Z</time></trkpt><trkpt lat="40.4781436" lon="9.6385521"><ele>508.0</ele><time>2026-04-07T10:18:55.345Z</time></trkpt><trkpt lat="40.4782616" lon="9.6385941"><ele>508.5</ele><time>2026-04-07T10:18:56.346Z</time></trkpt><trkpt lat="40.4783816" lon="9.6386362"><ele>509.0</ele><time>2026-04-07T10:18:57.346Z</time></trkpt><trkpt lat="40.4785009" lon="9.6386758"><ele>508.25</ele><time>2026-04-07T10:18:58.346Z</time></trkpt><trkpt lat="40.4786237" lon="9.6386912"><ele>507.5</ele><time>2026-04-07T10:18:59.346Z</time></trkpt><trkpt lat="40.4787471" lon="9.6386907"><ele>506.75</ele><time>2026-04-07T10:19:00.346Z</time></trkpt><trkpt lat="40.4788705" lon="9.6386816"><ele>506.0</ele><time>2026-04-07T10:19:01.346Z</time></trkpt><trkpt lat="40.4789971" lon="9.6386562"><ele>508.25</ele><time>2026-04-07T10:19:02.346Z</time></trkpt><trkpt lat="40.4791225" lon="9.6386276"><ele>510.5</ele><time>2026-04-07T10:19:03.346Z</time></trkpt><trkpt lat="40.4792483" lon="9.6385968"><ele>512.75</ele><time>2026-04-07T10:19:04.345Z</time></trkpt><trkpt lat="40.4793769" lon="9.6385618"><ele>515.0</ele><time>2026-04-07T10:19:05.346Z</time></trkpt><trkpt lat="40.4795051" lon="9.6385305"><ele>517.5</ele><time>2026-04-07T10:19:06.346Z</time></trkpt><trkpt lat="40.4796345" lon="9.6385013"><ele>520.0</ele><time>2026-04-07T10:19:07.346Z</time></trkpt><trkpt lat="40.4797624" lon="9.6384823"><ele>522.5</ele><time>2026-04-07T10:19:08.345Z</time></trkpt><trkpt lat="40.4798875" lon="9.638482"><ele>525.0</ele><time>2026-04-07T10:19:09.346Z</time></trkpt><trkpt lat="40.4800086" lon="9.638502"><ele>525.0</ele><time>2026-04-07T10:19:10.346Z</time></trkpt><trkpt lat="40.4801293" lon="9.6385459"><ele>525.0</ele><time>2026-04-07T10:19:11.346Z</time></trkpt><trkpt lat="40.4802375" lon="9.6386098"><ele>525.0</ele><time>2026-04-07T10:19:12.345Z</time></trkpt><trkpt lat="40.4803477" lon="9.6386736"><ele>525.0</ele><time>2026-04-07T10:19:13.346Z</time></trkpt><trkpt lat="40.4804554" lon="9.638737"><ele>526.25</ele><time>2026-04-07T10:19:14.346Z</time></trkpt><trkpt lat="40.480563" lon="9.638798"><ele>527.5</ele><time>2026-04-07T10:19:15.345Z</time></trkpt><trkpt lat="40.4806701" lon="9.6388633"><ele>528.75</ele><time>2026-04-07T10:19:16.345Z</time></trkpt><trkpt lat="40.4807802" lon="9.6389252"><ele>530.0</ele><time>2026-04-07T10:19:17.346Z</time></trkpt><trkpt lat="40.4808926" lon="9.6389777"><ele>530.0</ele><time>2026-04-07T10:19:18.346Z</time></trkpt><trkpt lat="40.4810052" lon="9.6390099"><ele>530.0</ele><time>2026-04-07T10:19:19.346Z</time></trkpt><trkpt lat="40.4811216" lon="9.6390129"><ele>530.0</ele><time>2026-04-07T10:19:20.346Z</time></trkpt><trkpt lat="40.4812378" lon="9.6389901"><ele>530.0</ele><time>2026-04-07T10:19:21.346Z</time></trkpt><trkpt lat="40.4813437" lon="9.6389331"><ele>530.25</ele><time>2026-04-07T10:19:22.345Z</time></trkpt><trkpt lat="40.4814412" lon="9.6388464"><ele>530.5</ele><time>2026-04-07T10:19:23.345Z</time></trkpt><trkpt lat="40.481534" lon="9.6387439"><ele>530.75</ele><time>2026-04-07T10:19:24.346Z</time></trkpt><trkpt lat="40.481632" lon="9.638643"><ele>531.0</ele><time>2026-04-07T10:19:25.346Z</time></trkpt><trkpt lat="40.4817418" lon="9.6385599"><ele>533.25</ele><time>2026-04-07T10:19:26.346Z</time></trkpt><trkpt lat="40.4818601" lon="9.638497"><ele>535.5</ele><time>2026-04-07T10:19:27.345Z</time></trkpt><trkpt lat="40.4819902" lon="9.6384824"><ele>537.75</ele><time>2026-04-07T10:19:28.346Z</time></trkpt><trkpt lat="40.4821232" lon="9.6385024"><ele>540.0</ele><time>2026-04-07T10:19:29.345Z</time></trkpt><trkpt lat="40.4822564" lon="9.6385361"><ele>538.5</ele><time>2026-04-07T10:19:30.346Z</time></trkpt><trkpt lat="40.48239" lon="9.638578"><ele>537.0</ele><time>2026-04-07T10:19:31.345Z</time></trkpt><trkpt lat="40.4825215" lon="9.6386356"><ele>535.5</ele><time>2026-04-07T10:19:32.345Z</time></trkpt><trkpt lat="40.4826554" lon="9.6387002"><ele>534.0</ele><time>2026-04-07T10:19:33.346Z</time></trkpt><trkpt lat="40.4827886" lon="9.6387701"><ele>534.0</ele><time>2026-04-07T10:19:34.345Z</time></trkpt><trkpt lat="40.482921" lon="9.6388441"><ele>534.0</ele><time>2026-04-07T10:19:35.346Z</time></trkpt><trkpt lat="40.483053" lon="9.6389155"><ele>534.0</ele><time>2026-04-07T10:19:36.346Z</time></trkpt><trkpt lat="40.4831847" lon="9.6389811"><ele>534.0</ele><time>2026-04-07T10:19:37.346Z</time></trkpt><trkpt lat="40.4833139" lon="9.6390447"><ele>537.75</ele><time>2026-04-07T10:19:38.346Z</time></trkpt><trkpt lat="40.4834473" lon="9.6390871"><ele>541.5</ele><time>2026-04-07T10:19:39.345Z</time></trkpt><trkpt lat="40.4835844" lon="9.6391303"><ele>545.25</ele><time>2026-04-07T10:19:40.345Z</time></trkpt><trkpt lat="40.48372" lon="9.6391721"><ele>549.0</ele><time>2026-04-07T10:19:41.345Z</time></trkpt><trkpt lat="40.4838648" lon="9.6392034"><ele>552.0</ele><time>2026-04-07T10:19:42.346Z</time></trkpt><trkpt lat="40.4840105" lon="9.6392345"><ele>555.0</ele><time>2026-04-07T10:19:43.346Z</time></trkpt><trkpt lat="40.4841591" lon="9.639263"><ele>558.0</ele><time>2026-04-07T10:19:44.345Z</time></trkpt><trkpt lat="40.484303" lon="9.6392948"><ele>561.0</ele><time>2026-04-07T10:19:45.345Z</time></trkpt><trkpt lat="40.4844335" lon="9.639335"><ele>561.0</ele><time>2026-04-07T10:19:46.345Z</time></trkpt><trkpt lat="40.4845605" lon="9.6393803"><ele>561.0</ele><time>2026-04-07T10:19:47.346Z</time></trkpt><trkpt lat="40.4846746" lon="9.6394437"><ele>561.0</ele><time>2026-04-07T10:19:48.346Z</time></trkpt><trkpt lat="40.4847681" lon="9.6395227"><ele>561.0</ele><time>2026-04-07T10:19:49.346Z</time></trkpt><trkpt lat="40.4848436" lon="9.6396215"><ele>559.8</ele><time>2026-04-07T10:19:50.346Z</time></trkpt><trkpt lat="40.484908" lon="9.6397236"><ele>558.6</ele><time>2026-04-07T10:19:51.346Z</time></trkpt><trkpt lat="40.4849584" lon="9.6398256"><ele>557.4</ele><time>2026-04-07T10:19:52.346Z</time></trkpt><trkpt lat="40.4849991" lon="9.6399352"><ele>556.2</ele><time>2026-04-07T10:19:53.346Z</time></trkpt><trkpt lat="40.4850315" lon="9.6400456"><ele>555.0</ele><time>2026-04-07T10:19:54.346Z</time></trkpt><trkpt lat="40.485053" lon="9.6401526"><ele>555.0</ele><time>2026-04-07T10:19:55.345Z</time></trkpt><trkpt lat="40.4850731" lon="9.640249"><ele>555.0</ele><time>2026-04-07T10:19:56.346Z</time></trkpt><trkpt lat="40.4850925" lon="9.6403371"><ele>555.0</ele><time>2026-04-07T10:19:57.346Z</time></trkpt><trkpt lat="40.4851267" lon="9.6404722"><ele>555.0</ele><time>2026-04-07T10:19:59.346Z</time></trkpt><trkpt lat="40.4851357" lon="9.6405614"><ele>555.0</ele><time>2026-04-07T10:20:02.346Z</time></trkpt><trkpt lat="40.4851464" lon="9.640649"><ele>555.0</ele><time>2026-04-07T10:21:31.346Z</time></trkpt><trkpt lat="40.485169" lon="9.6408343"><ele>555.0</ele><time>2026-04-07T10:21:33.346Z</time></trkpt><trkpt lat="40.4851872" lon="9.640966"><ele>555.0</ele><time>2026-04-07T10:21:34.345Z</time></trkpt><trkpt lat="40.4852082" lon="9.6411148"><ele>555.0</ele><time>2026-04-07T10:21:35.346Z</time></trkpt><trkpt lat="40.4852408" lon="9.6412803"><ele>555.0</ele><time>2026-04-07T10:21:36.346Z</time></trkpt><trkpt lat="40.485278" lon="9.6414384"><ele>557.5</ele><time>2026-04-07T10:21:37.346Z</time></trkpt><trkpt lat="40.4853126" lon="9.6416004"><ele>560.0</ele><time>2026-04-07T10:21:38.345Z</time></trkpt><trkpt lat="40.485346" lon="9.6417525"><ele>562.5</ele><time>2026-04-07T10:21:39.346Z</time></trkpt><trkpt lat="40.4853789" lon="9.6418881"><ele>565.0</ele><time>2026-04-07T10:21:40.345Z</time></trkpt><trkpt lat="40.4854087" lon="9.6420164"><ele>566.1666666666667</ele><time>2026-04-07T10:21:41.345Z</time></trkpt><trkpt lat="40.4854315" lon="9.6421467"><ele>567.3333333333334</ele><time>2026-04-07T10:21:42.346Z</time></trkpt><trkpt lat="40.4854401" lon="9.6422642"><ele>568.5</ele><time>2026-04-07T10:21:43.346Z</time></trkpt><trkpt lat="40.4854372" lon="9.6423743"><ele>569.6666666666666</ele><time>2026-04-07T10:21:44.345Z</time></trkpt><trkpt lat="40.485423" lon="9.6424838"><ele>570.8333333333333</ele><time>2026-04-07T10:21:45.345Z</time></trkpt><trkpt lat="40.485394" lon="9.6425881"><ele>572.0</ele><time>2026-04-07T10:21:46.345Z</time></trkpt><trkpt lat="40.485354" lon="9.642692"><ele>572.8000000000001</ele><time>2026-04-07T10:21:47.345Z</time></trkpt><trkpt lat="40.4853136" lon="9.6428092"><ele>573.6</ele><time>2026-04-07T10:21:48.346Z</time></trkpt><trkpt lat="40.4852893" lon="9.6429215"><ele>574.4000000000001</ele><time>2026-04-07T10:21:49.346Z</time></trkpt><trkpt lat="40.4852791" lon="9.6430308"><ele>575.2</ele><time>2026-04-07T10:21:50.345Z</time></trkpt><trkpt lat="40.4852905" lon="9.6431546"><ele>576.0</ele><time>2026-04-07T10:21:51.345Z</time></trkpt><trkpt lat="40.4853337" lon="9.6432972"><ele>576.0</ele><time>2026-04-07T10:21:52.345Z</time></trkpt><trkpt lat="40.485401" lon="9.6434726"><ele>576.0</ele><time>2026-04-07T10:21:53.346Z</time></trkpt><trkpt lat="40.4854694" lon="9.6436441"><ele>576.0</ele><time>2026-04-07T10:21:54.346Z</time></trkpt><trkpt lat="40.4855341" lon="9.6437991"><ele>576.0</ele><time>2026-04-07T10:21:55.346Z</time></trkpt><trkpt lat="40.4855978" lon="9.6439458"><ele>574.5</ele><time>2026-04-07T10:21:56.345Z</time></trkpt><trkpt lat="40.4856638" lon="9.644084"><ele>573.0</ele><time>2026-04-07T10:21:57.345Z</time></trkpt><trkpt lat="40.4857276" lon="9.6442231"><ele>571.5</ele><time>2026-04-07T10:21:58.346Z</time></trkpt><trkpt lat="40.4857935" lon="9.6443591"><ele>570.0</ele><time>2026-04-07T10:21:59.345Z</time></trkpt><trkpt lat="40.485856" lon="9.6445009"><ele>573.75</ele><time>2026-04-07T10:22:00.345Z</time></trkpt><trkpt lat="40.4859198" lon="9.6446388"><ele>577.5</ele><time>2026-04-07T10:22:01.345Z</time></trkpt><trkpt lat="40.4859798" lon="9.6447821"><ele>581.25</ele><time>2026-04-07T10:22:02.346Z</time></trkpt><trkpt lat="40.4860373" lon="9.6449296"><ele>585.0</ele><time>2026-04-07T10:22:03.345Z</time></trkpt><trkpt lat="40.4861013" lon="9.6450767"><ele>585.0</ele><time>2026-04-07T10:22:04.346Z</time></trkpt><trkpt lat="40.4861641" lon="9.6452202"><ele>585.0</ele><time>2026-04-07T10:22:05.346Z</time></trkpt><trkpt lat="40.4862286" lon="9.6453564"><ele>585.0</ele><time>2026-04-07T10:22:06.346Z</time></trkpt><trkpt lat="40.4862843" lon="9.6454774"><ele>585.0</ele><time>2026-04-07T10:22:07.345Z</time></trkpt><trkpt lat="40.4863349" lon="9.645594"><ele>584.2</ele><time>2026-04-07T10:22:08.346Z</time></trkpt><trkpt lat="40.4863756" lon="9.6457171"><ele>583.4</ele><time>2026-04-07T10:22:09.346Z</time></trkpt><trkpt lat="40.4864094" lon="9.6458473"><ele>582.6</ele><time>2026-04-07T10:22:10.346Z</time></trkpt><trkpt lat="40.486443" lon="9.6459758"><ele>581.8</ele><time>2026-04-07T10:22:11.345Z</time></trkpt><trkpt lat="40.4864693" lon="9.6461098"><ele>581.0</ele><time>2026-04-07T10:22:12.346Z</time></trkpt><trkpt lat="40.4864933" lon="9.6462424"><ele>581.0</ele><time>2026-04-07T10:22:13.346Z</time></trkpt><trkpt lat="40.4865134" lon="9.6463737"><ele>581.0</ele><time>2026-04-07T10:22:14.346Z</time></trkpt><trkpt lat="40.4865262" lon="9.6464952"><ele>581.0</ele><time>2026-04-07T10:22:15.346Z</time></trkpt><trkpt lat="40.4865375" lon="9.6466074"><ele>581.0</ele><time>2026-04-07T10:22:16.346Z</time></trkpt><trkpt lat="40.4865492" lon="9.6467055"><ele>581.0</ele><time>2026-04-07T10:22:17.345Z</time></trkpt><trkpt lat="40.4865438" lon="9.6468034"><ele>581.0</ele><time>2026-04-07T10:22:18.346Z</time></trkpt><trkpt lat="40.4865369" lon="9.6468936"><ele>581.8333333333333</ele><time>2026-04-07T10:22:19.346Z</time></trkpt><trkpt lat="40.4865266" lon="9.6469837"><ele>582.6666666666666</ele><time>2026-04-07T10:22:20.346Z</time></trkpt><trkpt lat="40.4865102" lon="9.6470688"><ele>583.5</ele><time>2026-04-07T10:22:21.346Z</time></trkpt><trkpt lat="40.4864893" lon="9.6471571"><ele>584.3333333333334</ele><time>2026-04-07T10:22:22.345Z</time></trkpt><trkpt lat="40.4864644" lon="9.6472935"><ele>585.1666666666667</ele><time>2026-04-07T10:22:24.346Z</time></trkpt><trkpt lat="40.4865127" lon="9.647411"><ele>586.0</ele><time>2026-04-07T10:22:26.345Z</time></trkpt><trkpt lat="40.4866084" lon="9.6474873"><ele>585.9999999999999</ele><time>2026-04-07T10:22:28.346Z</time></trkpt><trkpt lat="40.4866734" lon="9.6475236"><ele>586.0</ele><time>2026-04-07T10:22:29.346Z</time></trkpt><trkpt lat="40.4867418" lon="9.6475568"><ele>586.0</ele><time>2026-04-07T10:22:30.345Z</time></trkpt><trkpt lat="40.4868096" lon="9.6475834"><ele>586.0</ele><time>2026-04-07T10:22:31.346Z</time></trkpt><trkpt lat="40.4868811" lon="9.6476157"><ele>586.0</ele><time>2026-04-07T10:22:32.346Z</time></trkpt><trkpt lat="40.4869519" lon="9.6476445"><ele>585.9999999999999</ele><time>2026-04-07T10:22:33.346Z</time></trkpt><trkpt lat="40.487021" lon="9.6476662"><ele>586.0</ele><time>2026-04-07T10:22:34.346Z</time></trkpt><trkpt lat="40.4870894" lon="9.6476893"><ele>586.6666666666667</ele><time>2026-04-07T10:22:35.346Z</time></trkpt><trkpt lat="40.4871615" lon="9.6477113"><ele>587.3333333333334</ele><time>2026-04-07T10:22:36.346Z</time></trkpt><trkpt lat="40.4872313" lon="9.6477345"><ele>588.0</ele><time>2026-04-07T10:22:37.346Z</time></trkpt><trkpt lat="40.4873001" lon="9.647765"><ele>588.6666666666666</ele><time>2026-04-07T10:22:38.346Z</time></trkpt><trkpt lat="40.4873732" lon="9.6477996"><ele>589.3333333333333</ele><time>2026-04-07T10:22:39.346Z</time></trkpt><trkpt lat="40.4874442" lon="9.6478378"><ele>590.0</ele><time>2026-04-07T10:22:40.346Z</time></trkpt><trkpt lat="40.4875164" lon="9.6478867"><ele>590.0</ele><time>2026-04-07T10:22:41.345Z</time></trkpt><trkpt lat="40.4875874" lon="9.6479379"><ele>590.0</ele><time>2026-04-07T10:22:42.346Z</time></trkpt><trkpt lat="40.4876616" lon="9.6480004"><ele>590.0</ele><time>2026-04-07T10:22:43.346Z</time></trkpt><trkpt lat="40.4877324" lon="9.6480629"><ele>590.0</ele><time>2026-04-07T10:22:44.345Z</time></trkpt><trkpt lat="40.4878013" lon="9.6481257"><ele>590.0</ele><time>2026-04-07T10:22:45.346Z</time></trkpt><trkpt lat="40.487867" lon="9.6482005"><ele>590.0</ele><time>2026-04-07T10:22:46.345Z</time></trkpt><trkpt lat="40.4879252" lon="9.6482861"><ele>589.2</ele><time>2026-04-07T10:22:47.346Z</time></trkpt><trkpt lat="40.4879659" lon="9.6483895"><ele>588.4</ele><time>2026-04-07T10:22:48.346Z</time></trkpt><trkpt lat="40.4879944" lon="9.6485189"><ele>587.6</ele><time>2026-04-07T10:22:49.345Z</time></trkpt><trkpt lat="40.4880167" lon="9.648655"><ele>586.8</ele><time>2026-04-07T10:22:50.346Z</time></trkpt><trkpt lat="40.4880458" lon="9.648794"><ele>586.0</ele><time>2026-04-07T10:22:51.346Z</time></trkpt><trkpt lat="40.4880815" lon="9.6489315"><ele>586.0</ele><time>2026-04-07T10:22:52.345Z</time></trkpt><trkpt lat="40.4881429" lon="9.6490541"><ele>586.0</ele><time>2026-04-07T10:22:53.346Z</time></trkpt><trkpt lat="40.488218" lon="9.649149"><ele>586.0</ele><time>2026-04-07T10:22:54.346Z</time></trkpt><trkpt lat="40.4883042" lon="9.6492225"><ele>586.0</ele><time>2026-04-07T10:22:55.346Z</time></trkpt><trkpt lat="40.488399" lon="9.6492838"><ele>586.0</ele><time>2026-04-07T10:22:56.345Z</time></trkpt><trkpt lat="40.4885057" lon="9.6493334"><ele>586.0</ele><time>2026-04-07T10:22:57.345Z</time></trkpt><trkpt lat="40.4886204" lon="9.6493569"><ele>586.0</ele><time>2026-04-07T10:22:58.346Z</time></trkpt><trkpt lat="40.4887327" lon="9.6493606"><ele>586.0</ele><time>2026-04-07T10:22:59.346Z</time></trkpt><trkpt lat="40.4888435" lon="9.6493722"><ele>586.0</ele><time>2026-04-07T10:23:00.345Z</time></trkpt><trkpt lat="40.4889433" lon="9.6494144"><ele>586.0</ele><time>2026-04-07T10:23:01.346Z</time></trkpt><trkpt lat="40.4890099" lon="9.6494598"><ele>586.0</ele><time>2026-04-07T10:23:02.345Z</time></trkpt><trkpt lat="40.4890707" lon="9.6495339"><ele>586.0</ele><time>2026-04-07T10:23:03.346Z</time></trkpt><trkpt lat="40.4891281" lon="9.649626"><ele>586.0</ele><time>2026-04-07T10:23:04.346Z</time></trkpt><trkpt lat="40.4891841" lon="9.6497228"><ele>586.0</ele><time>2026-04-07T10:23:05.346Z</time></trkpt><trkpt lat="40.489233" lon="9.6498095"><ele>586.0</ele><time>2026-04-07T10:23:06.345Z</time></trkpt><trkpt lat="40.4892755" lon="9.6498915"><ele>586.0</ele><time>2026-04-07T10:23:07.346Z</time></trkpt><trkpt lat="40.489317" lon="9.6499652"><ele>586.0</ele><time>2026-04-07T10:23:08.346Z</time></trkpt><trkpt lat="40.4893554" lon="9.6500354"><ele>586.0</ele><time>2026-04-07T10:23:09.346Z</time></trkpt><trkpt lat="40.4894273" lon="9.6501546"><ele>586.0</ele><time>2026-04-07T10:23:11.345Z</time></trkpt><trkpt lat="40.4894808" lon="9.6502554"><ele>586.0</ele><time>2026-04-07T10:23:13.345Z</time></trkpt><trkpt lat="40.4895339" lon="9.6503573"><ele>586.0</ele><time>2026-04-07T10:23:15.345Z</time></trkpt><trkpt lat="40.4895987" lon="9.6504646"><ele>586.8333333333334</ele><time>2026-04-07T10:23:17.346Z</time></trkpt><trkpt lat="40.4896767" lon="9.6505737"><ele>587.6666666666667</ele><time>2026-04-07T10:23:19.346Z</time></trkpt><trkpt lat="40.48978" lon="9.6506511"><ele>588.5</ele><time>2026-04-07T10:23:21.346Z</time></trkpt><trkpt lat="40.4898462" lon="9.6506837"><ele>589.3333333333334</ele><time>2026-04-07T10:23:22.345Z</time></trkpt><trkpt lat="40.4899121" lon="9.6507095"><ele>590.1666666666666</ele><time>2026-04-07T10:23:23.346Z</time></trkpt><trkpt lat="40.4899788" lon="9.6507318"><ele>591.0</ele><time>2026-04-07T10:23:24.346Z</time></trkpt><trkpt lat="40.4900502" lon="9.6507384"><ele>591.0</ele><time>2026-04-07T10:23:25.346Z</time></trkpt><trkpt lat="40.4901193" lon="9.6507388"><ele>591.0</ele><time>2026-04-07T10:23:26.346Z</time></trkpt><trkpt lat="40.4901895" lon="9.650732"><ele>591.0</ele><time>2026-04-07T10:23:27.346Z</time></trkpt><trkpt lat="40.4902612" lon="9.6507227"><ele>591.0</ele><time>2026-04-07T10:23:28.346Z</time></trkpt><trkpt lat="40.4903295" lon="9.6507188"><ele>591.0</ele><time>2026-04-07T10:23:29.346Z</time></trkpt><trkpt lat="40.4903947" lon="9.6507254"><ele>591.0</ele><time>2026-04-07T10:23:30.346Z</time></trkpt><trkpt lat="40.4905169" lon="9.6507288"><ele>589.5</ele><time>2026-04-07T10:23:32.346Z</time></trkpt><trkpt lat="40.4906448" lon="9.6507592"><ele>588.0</ele><time>2026-04-07T10:23:34.346Z</time></trkpt><trkpt lat="40.4907104" lon="9.6507821"><ele>586.5</ele><time>2026-04-07T10:23:35.346Z</time></trkpt><trkpt lat="40.4907793" lon="9.6508112"><ele>585.0</ele><time>2026-04-07T10:23:36.346Z</time></trkpt><trkpt lat="40.4908466" lon="9.6508486"><ele>583.5</ele><time>2026-04-07T10:23:37.345Z</time></trkpt><trkpt lat="40.4909132" lon="9.6508823"><ele>582.0</ele><time>2026-04-07T10:23:38.346Z</time></trkpt><trkpt lat="40.4909787" lon="9.6509185"><ele>582.0</ele><time>2026-04-07T10:23:39.346Z</time></trkpt><trkpt lat="40.4910513" lon="9.6509524"><ele>582.0</ele><time>2026-04-07T10:23:40.346Z</time></trkpt><trkpt lat="40.4911218" lon="9.6509897"><ele>582.0</ele><time>2026-04-07T10:23:41.346Z</time></trkpt><trkpt lat="40.4911949" lon="9.6510314"><ele>582.0</ele><time>2026-04-07T10:23:42.345Z</time></trkpt><trkpt lat="40.4912638" lon="9.6510779"><ele>582.0</ele><time>2026-04-07T10:23:43.345Z</time></trkpt><trkpt lat="40.4913193" lon="9.6511422"><ele>582.0</ele><time>2026-04-07T10:23:44.346Z</time></trkpt><trkpt lat="40.4913641" lon="9.6512214"><ele>583.5</ele><time>2026-04-07T10:23:45.346Z</time></trkpt><trkpt lat="40.4914202" lon="9.6512804"><ele>585.0</ele><time>2026-04-07T10:23:46.346Z</time></trkpt><trkpt lat="40.4914868" lon="9.6513234"><ele>586.5</ele><time>2026-04-07T10:23:47.345Z</time></trkpt><trkpt lat="40.4915611" lon="9.6513407"><ele>588.0</ele><time>2026-04-07T10:23:48.346Z</time></trkpt><trkpt lat="40.4916448" lon="9.6513537"><ele>589.5</ele><time>2026-04-07T10:23:49.346Z</time></trkpt><trkpt lat="40.491733" lon="9.6513621"><ele>591.0</ele><time>2026-04-07T10:23:50.346Z</time></trkpt><trkpt lat="40.4918212" lon="9.6513718"><ele>591.0</ele><time>2026-04-07T10:23:51.346Z</time></trkpt><trkpt lat="40.4919132" lon="9.6513837"><ele>591.0</ele><time>2026-04-07T10:23:52.346Z</time></trkpt><trkpt lat="40.4920081" lon="9.6513966"><ele>591.0</ele><time>2026-04-07T10:23:53.346Z</time></trkpt><trkpt lat="40.4921032" lon="9.6514022"><ele>591.0</ele><time>2026-04-07T10:23:54.345Z</time></trkpt><trkpt lat="40.4921982" lon="9.6514122"><ele>591.0</ele><time>2026-04-07T10:23:55.346Z</time></trkpt><trkpt lat="40.4922925" lon="9.6514239"><ele>588.8</ele><time>2026-04-07T10:23:56.345Z</time></trkpt><trkpt lat="40.4923899" lon="9.6514374"><ele>586.6</ele><time>2026-04-07T10:23:57.345Z</time></trkpt><trkpt lat="40.4924834" lon="9.6514486"><ele>584.4</ele><time>2026-04-07T10:23:58.346Z</time></trkpt><trkpt lat="40.4925787" lon="9.6514664"><ele>582.2</ele><time>2026-04-07T10:23:59.345Z</time></trkpt><trkpt lat="40.4926696" lon="9.651484"><ele>580.0</ele><time>2026-04-07T10:24:00.345Z</time></trkpt><trkpt lat="40.492752" lon="9.6515081"><ele>580.0</ele><time>2026-04-07T10:24:01.346Z</time></trkpt><trkpt lat="40.4928355" lon="9.6515332"><ele>580.0</ele><time>2026-04-07T10:24:02.346Z</time></trkpt><trkpt lat="40.4929166" lon="9.6515563"><ele>580.0</ele><time>2026-04-07T10:24:03.346Z</time></trkpt><trkpt lat="40.4929957" lon="9.6515818"><ele>580.0</ele><time>2026-04-07T10:24:04.345Z</time></trkpt><trkpt lat="40.4930803" lon="9.6516046"><ele>580.0</ele><time>2026-04-07T10:24:05.346Z</time></trkpt><trkpt lat="40.4931658" lon="9.6516261"><ele>580.0</ele><time>2026-04-07T10:24:06.346Z</time></trkpt><trkpt lat="40.4932486" lon="9.6516376"><ele>577.5</ele><time>2026-04-07T10:24:07.346Z</time></trkpt><trkpt lat="40.4933197" lon="9.6516356"><ele>575.0</ele><time>2026-04-07T10:24:08.346Z</time></trkpt><trkpt lat="40.4934129" lon="9.6515833"><ele>572.5</ele><time>2026-04-07T10:24:10.346Z</time></trkpt><trkpt lat="40.4934373" lon="9.6515013"><ele>570.0</ele><time>2026-04-07T10:24:12.345Z</time></trkpt><trkpt lat="40.4934234" lon="9.6513999"><ele>567.5</ele><time>2026-04-07T10:24:14.346Z</time></trkpt><trkpt lat="40.493358" lon="9.6513143"><ele>565.0</ele><time>2026-04-07T10:24:16.346Z</time></trkpt><trkpt lat="40.4932376" lon="9.6512642"><ele>565.0</ele><time>2026-04-07T10:24:18.346Z</time></trkpt><trkpt lat="40.4931643" lon="9.6512398"><ele>565.0</ele><time>2026-04-07T10:24:19.346Z</time></trkpt><trkpt lat="40.4930829" lon="9.6512092"><ele>565.0</ele><time>2026-04-07T10:24:20.346Z</time></trkpt><trkpt lat="40.493005" lon="9.6511783"><ele>565.0</ele><time>2026-04-07T10:24:21.346Z</time></trkpt><trkpt lat="40.4929245" lon="9.651155"><ele>565.0</ele><time>2026-04-07T10:24:22.345Z</time></trkpt><trkpt lat="40.4928452" lon="9.6511362"><ele>565.0</ele><time>2026-04-07T10:24:23.346Z</time></trkpt><trkpt lat="40.4927675" lon="9.6511101"><ele>562.1666666666667</ele><time>2026-04-07T10:24:24.345Z</time></trkpt><trkpt lat="40.4926977" lon="9.6510611"><ele>559.3333333333334</ele><time>2026-04-07T10:24:25.346Z</time></trkpt><trkpt lat="40.4926406" lon="9.6509917"><ele>556.5</ele><time>2026-04-07T10:24:26.346Z</time></trkpt><trkpt lat="40.4926002" lon="9.6509059"><ele>553.6666666666666</ele><time>2026-04-07T10:24:27.346Z</time></trkpt><trkpt lat="40.4925857" lon="9.6508105"><ele>550.8333333333333</ele><time>2026-04-07T10:24:28.346Z</time></trkpt><trkpt lat="40.4925809" lon="9.6507241"><ele>548.0</ele><time>2026-04-07T10:24:29.346Z</time></trkpt><trkpt lat="40.4926307" lon="9.6506049"><ele>548.0</ele><time>2026-04-07T10:24:31.345Z</time></trkpt><trkpt lat="40.4927435" lon="9.6505826"><ele>548.0</ele><time>2026-04-07T10:24:33.346Z</time></trkpt><trkpt lat="40.4928636" lon="9.6506154"><ele>548.0</ele><time>2026-04-07T10:24:35.345Z</time></trkpt><trkpt lat="40.4929249" lon="9.6506395"><ele>548.0</ele><time>2026-04-07T10:24:36.346Z</time></trkpt><trkpt lat="40.493041" lon="9.6506914"><ele>548.0</ele><time>2026-04-07T10:24:38.346Z</time></trkpt><trkpt lat="40.4931535" lon="9.650734"><ele>545.0</ele><time>2026-04-07T10:24:40.345Z</time></trkpt><trkpt lat="40.4932584" lon="9.6507844"><ele>542.0</ele><time>2026-04-07T10:24:42.345Z</time></trkpt><trkpt lat="40.4933625" lon="9.65082"><ele>539.0</ele><time>2026-04-07T10:24:44.346Z</time></trkpt><trkpt lat="40.4934637" lon="9.6508612"><ele>536.0</ele><time>2026-04-07T10:24:46.346Z</time></trkpt><trkpt lat="40.4935766" lon="9.6509015"><ele>533.0</ele><time>2026-04-07T10:24:48.346Z</time></trkpt><trkpt lat="40.4936969" lon="9.6509418"><ele>531.1666666666666</ele><time>2026-04-07T10:24:50.346Z</time></trkpt><trkpt lat="40.4938187" lon="9.6509909"><ele>529.3333333333333</ele><time>2026-04-07T10:24:52.346Z</time></trkpt><trkpt lat="40.4938841" lon="9.6510089"><ele>527.5</ele><time>2026-04-07T10:24:53.346Z</time></trkpt><trkpt lat="40.4939491" lon="9.6510247"><ele>525.6666666666666</ele><time>2026-04-07T10:24:54.345Z</time></trkpt><trkpt lat="40.4940161" lon="9.6510376"><ele>523.8333333333334</ele><time>2026-04-07T10:24:55.345Z</time></trkpt><trkpt lat="40.4940803" lon="9.6510501"><ele>522.0</ele><time>2026-04-07T10:24:56.345Z</time></trkpt><trkpt lat="40.4941436" lon="9.6510558"><ele>522.0</ele><time>2026-04-07T10:24:57.345Z</time></trkpt><trkpt lat="40.4942692" lon="9.6510633"><ele>522.0</ele><time>2026-04-07T10:24:59.346Z</time></trkpt><trkpt lat="40.4943321" lon="9.6510774"><ele>522.0</ele><time>2026-04-07T10:25:00.346Z</time></trkpt><trkpt lat="40.4944539" lon="9.6510901"><ele>522.0</ele><time>2026-04-07T10:25:02.346Z</time></trkpt><trkpt lat="40.4945232" lon="9.6510982"><ele>522.0</ele><time>2026-04-07T10:25:03.345Z</time></trkpt><trkpt lat="40.4945863" lon="9.6511076"><ele>522.0</ele><time>2026-04-07T10:25:04.346Z</time></trkpt><trkpt lat="40.4946522" lon="9.6510963"><ele>521.6</ele><time>2026-04-07T10:25:05.346Z</time></trkpt><trkpt lat="40.4947139" lon="9.6510715"><ele>521.2</ele><time>2026-04-07T10:25:06.346Z</time></trkpt><trkpt lat="40.4947772" lon="9.6510293"><ele>520.8</ele><time>2026-04-07T10:25:07.346Z</time></trkpt><trkpt lat="40.494858" lon="9.6509292"><ele>520.4</ele><time>2026-04-07T10:25:09.345Z</time></trkpt><trkpt lat="40.4948534" lon="9.6508062"><ele>520.0</ele><time>2026-04-07T10:25:11.346Z</time></trkpt><trkpt lat="40.4947648" lon="9.6507043"><ele>520.0</ele><time>2026-04-07T10:25:13.345Z</time></trkpt><trkpt lat="40.4946527" lon="9.6506388"><ele>520.0</ele><time>2026-04-07T10:25:15.346Z</time></trkpt><trkpt lat="40.4945898" lon="9.6506133"><ele>520.0</ele><time>2026-04-07T10:25:16.346Z</time></trkpt><trkpt lat="40.4945286" lon="9.6505831"><ele>520.0</ele><time>2026-04-07T10:25:17.345Z</time></trkpt><trkpt lat="40.4944633" lon="9.6505467"><ele>520.0</ele><time>2026-04-07T10:25:18.346Z</time></trkpt><trkpt lat="40.4944001" lon="9.6505128"><ele>520.0</ele><time>2026-04-07T10:25:19.346Z</time></trkpt><trkpt lat="40.4943303" lon="9.6504777"><ele>520.3333333333334</ele><time>2026-04-07T10:25:20.346Z</time></trkpt><trkpt lat="40.4942572" lon="9.6504484"><ele>520.6666666666667</ele><time>2026-04-07T10:25:21.345Z</time></trkpt><trkpt lat="40.4941864" lon="9.6504094"><ele>521.0</ele><time>2026-04-07T10:25:22.346Z</time></trkpt><trkpt lat="40.4941176" lon="9.6503577"><ele>521.3333333333334</ele><time>2026-04-07T10:25:23.346Z</time></trkpt><trkpt lat="40.4940552" lon="9.6502922"><ele>521.6666666666666</ele><time>2026-04-07T10:25:24.345Z</time></trkpt><trkpt lat="40.4940054" lon="9.6502099"><ele>522.0</ele><time>2026-04-07T10:25:25.345Z</time></trkpt><trkpt lat="40.4939761" lon="9.6501143"><ele>519.8571428571429</ele><time>2026-04-07T10:25:26.346Z</time></trkpt><trkpt lat="40.4939716" lon="9.6500162"><ele>517.7142857142857</ele><time>2026-04-07T10:25:27.346Z</time></trkpt><trkpt lat="40.4939905" lon="9.6499224"><ele>515.5714285714286</ele><time>2026-04-07T10:25:28.346Z</time></trkpt><trkpt lat="40.4940363" lon="9.649845"><ele>513.4285714285714</ele><time>2026-04-07T10:25:29.345Z</time></trkpt><trkpt lat="40.4940899" lon="9.6497822"><ele>511.28571428571433</ele><time>2026-04-07T10:25:30.346Z</time></trkpt><trkpt lat="40.4941569" lon="9.6497381"><ele>509.1428571428571</ele><time>2026-04-07T10:25:31.346Z</time></trkpt><trkpt lat="40.4942312" lon="9.6497338"><ele>507.0</ele><time>2026-04-07T10:25:32.346Z</time></trkpt><trkpt lat="40.4943087" lon="9.6497529"><ele>507.0</ele><time>2026-04-07T10:25:33.346Z</time></trkpt><trkpt lat="40.4943842" lon="9.6498018"><ele>507.0</ele><time>2026-04-07T10:25:34.346Z</time></trkpt><trkpt lat="40.4944558" lon="9.6498521"><ele>507.0</ele><time>2026-04-07T10:25:35.346Z</time></trkpt><trkpt lat="40.4945277" lon="9.6499053"><ele>507.0</ele><time>2026-04-07T10:25:36.346Z</time></trkpt><trkpt lat="40.4946" lon="9.6499597"><ele>507.0</ele><time>2026-04-07T10:25:37.346Z</time></trkpt><trkpt lat="40.49467" lon="9.6500131"><ele>507.0</ele><time>2026-04-07T10:25:38.346Z</time></trkpt><trkpt lat="40.4947366" lon="9.6500668"><ele>509.1666666666667</ele><time>2026-04-07T10:25:39.345Z</time></trkpt><trkpt lat="40.4948034" lon="9.6501233"><ele>511.33333333333337</ele><time>2026-04-07T10:25:40.346Z</time></trkpt><trkpt lat="40.4948707" lon="9.6501728"><ele>513.5</ele><time>2026-04-07T10:25:41.346Z</time></trkpt><trkpt lat="40.4949365" lon="9.6502203"><ele>515.6666666666667</ele><time>2026-04-07T10:25:42.346Z</time></trkpt><trkpt lat="40.4949966" lon="9.6502806"><ele>517.8333333333334</ele><time>2026-04-07T10:25:43.346Z</time></trkpt><trkpt lat="40.4950692" lon="9.6503356"><ele>520.0</ele><time>2026-04-07T10:25:44.346Z</time></trkpt><trkpt lat="40.4951504" lon="9.6503779"><ele>520.0</ele><time>2026-04-07T10:25:45.346Z</time></trkpt><trkpt lat="40.4952394" lon="9.6504145"><ele>520.0</ele><time>2026-04-07T10:25:46.345Z</time></trkpt><trkpt lat="40.4953332" lon="9.6504405"><ele>520.0</ele><time>2026-04-07T10:25:47.345Z</time></trkpt><trkpt lat="40.4954341" lon="9.6504701"><ele>520.0</ele><time>2026-04-07T10:25:48.346Z</time></trkpt><trkpt lat="40.4955398" lon="9.6505019"><ele>520.0</ele><time>2026-04-07T10:25:49.346Z</time></trkpt><trkpt lat="40.495644" lon="9.6505289"><ele>516.4</ele><time>2026-04-07T10:25:50.346Z</time></trkpt><trkpt lat="40.4957459" lon="9.6505529"><ele>512.8</ele><time>2026-04-07T10:25:51.345Z</time></trkpt><trkpt lat="40.4958476" lon="9.6505759"><ele>509.20000000000005</ele><time>2026-04-07T10:25:52.346Z</time></trkpt><trkpt lat="40.4959409" lon="9.6505955"><ele>505.6</ele><time>2026-04-07T10:25:53.346Z</time></trkpt><trkpt lat="40.496038" lon="9.6506074"><ele>502.0</ele><time>2026-04-07T10:25:54.346Z</time></trkpt><trkpt lat="40.4961364" lon="9.6506231"><ele>502.0</ele><time>2026-04-07T10:25:55.346Z</time></trkpt><trkpt lat="40.4962278" lon="9.6506375"><ele>502.00000000000006</ele><time>2026-04-07T10:25:56.345Z</time></trkpt><trkpt lat="40.4963172" lon="9.6506553"><ele>502.00000000000006</ele><time>2026-04-07T10:25:57.346Z</time></trkpt><trkpt lat="40.4964167" lon="9.650674"><ele>502.0</ele><time>2026-04-07T10:25:58.346Z</time></trkpt><trkpt lat="40.4965124" lon="9.6506932"><ele>502.0</ele><time>2026-04-07T10:25:59.345Z</time></trkpt><trkpt lat="40.4966049" lon="9.6507118"><ele>497.40000000000003</ele><time>2026-04-07T10:26:00.346Z</time></trkpt><trkpt lat="40.4966999" lon="9.650735"><ele>492.80000000000007</ele><time>2026-04-07T10:26:01.346Z</time></trkpt><trkpt lat="40.4967969" lon="9.650767"><ele>488.2</ele><time>2026-04-07T10:26:02.346Z</time></trkpt><trkpt lat="40.4968926" lon="9.6508035"><ele>483.6</ele><time>2026-04-07T10:26:03.345Z</time></trkpt><trkpt lat="40.4969866" lon="9.6508402"><ele>479.0</ele><time>2026-04-07T10:26:04.346Z</time></trkpt><trkpt lat="40.4970816" lon="9.6508738"><ele>477.16666666666663</ele><time>2026-04-07T10:26:05.346Z</time></trkpt><trkpt lat="40.4971701" lon="9.6508992"><ele>475.3333333333333</ele><time>2026-04-07T10:26:06.345Z</time></trkpt><trkpt lat="40.4972545" lon="9.650931"><ele>473.5</ele><time>2026-04-07T10:26:07.346Z</time></trkpt><trkpt lat="40.4973263" lon="9.6509765"><ele>471.66666666666663</ele><time>2026-04-07T10:26:08.346Z</time></trkpt><trkpt lat="40.4973845" lon="9.6510413"><ele>469.8333333333333</ele><time>2026-04-07T10:26:09.346Z</time></trkpt><trkpt lat="40.4974314" lon="9.6511195"><ele>468.0</ele><time>2026-04-07T10:26:10.346Z</time></trkpt><trkpt lat="40.4974688" lon="9.6512028"><ele>468.0</ele><time>2026-04-07T10:26:11.345Z</time></trkpt><trkpt lat="40.4974994" lon="9.6512944"><ele>468.0</ele><time>2026-04-07T10:26:12.346Z</time></trkpt><trkpt lat="40.4975291" lon="9.6513834"><ele>468.0</ele><time>2026-04-07T10:26:13.345Z</time></trkpt><trkpt lat="40.4975572" lon="9.6514788"><ele>468.0</ele><time>2026-04-07T10:26:14.346Z</time></trkpt><trkpt lat="40.4975808" lon="9.6515748"><ele>468.0</ele><time>2026-04-07T10:26:15.346Z</time></trkpt><trkpt lat="40.4975972" lon="9.6516721"><ele>468.0</ele><time>2026-04-07T10:26:16.346Z</time></trkpt><trkpt lat="40.4976134" lon="9.6517723"><ele>468.0</ele><time>2026-04-07T10:26:17.346Z</time></trkpt><trkpt lat="40.4976237" lon="9.6518722"><ele>468.0</ele><time>2026-04-07T10:26:18.346Z</time></trkpt><trkpt lat="40.4976322" lon="9.6519802"><ele>468.0</ele><time>2026-04-07T10:26:19.346Z</time></trkpt><trkpt lat="40.4976484" lon="9.6520941"><ele>468.0</ele><time>2026-04-07T10:26:20.345Z</time></trkpt><trkpt lat="40.4976478" lon="9.6522106"><ele>468.0</ele><time>2026-04-07T10:26:21.346Z</time></trkpt><trkpt lat="40.4976522" lon="9.6523253"><ele>468.0</ele><time>2026-04-07T10:26:22.346Z</time></trkpt><trkpt lat="40.4976608" lon="9.6524347"><ele>467.8333333333333</ele><time>2026-04-07T10:26:23.345Z</time></trkpt><trkpt lat="40.4976798" lon="9.6525439"><ele>467.66666666666663</ele><time>2026-04-07T10:26:24.346Z</time></trkpt><trkpt lat="40.4976984" lon="9.6526476"><ele>467.5</ele><time>2026-04-07T10:26:25.346Z</time></trkpt><trkpt lat="40.497729" lon="9.6527543"><ele>467.3333333333333</ele><time>2026-04-07T10:26:26.345Z</time></trkpt><trkpt lat="40.4977634" lon="9.6528518"><ele>467.16666666666663</ele><time>2026-04-07T10:26:27.346Z</time></trkpt><trkpt lat="40.4977995" lon="9.6529443"><ele>467.0</ele><time>2026-04-07T10:26:28.346Z</time></trkpt><trkpt lat="40.4978573" lon="9.6530276"><ele>468.5714285714285</ele><time>2026-04-07T10:26:29.346Z</time></trkpt><trkpt lat="40.4979099" lon="9.6530991"><ele>470.1428571428571</ele><time>2026-04-07T10:26:30.346Z</time></trkpt><trkpt lat="40.497966" lon="9.6531728"><ele>471.7142857142857</ele><time>2026-04-07T10:26:31.346Z</time></trkpt><trkpt lat="40.4980291" lon="9.6532371"><ele>473.2857142857143</ele><time>2026-04-07T10:26:32.346Z</time></trkpt><trkpt lat="40.4980877" lon="9.6532986"><ele>474.8571428571429</ele><time>2026-04-07T10:26:33.345Z</time></trkpt><trkpt lat="40.4981407" lon="9.6533617"><ele>476.4285714285715</ele><time>2026-04-07T10:26:34.346Z</time></trkpt><trkpt lat="40.4981898" lon="9.6534174"><ele>478.00000000000006</ele><time>2026-04-07T10:26:35.346Z</time></trkpt><trkpt lat="40.4982459" lon="9.6534764"><ele>476.4</ele><time>2026-04-07T10:26:36.346Z</time></trkpt><trkpt lat="40.4982982" lon="9.6535272"><ele>474.79999999999995</ele><time>2026-04-07T10:26:37.346Z</time></trkpt><trkpt lat="40.4983586" lon="9.6535723"><ele>473.2</ele><time>2026-04-07T10:26:38.346Z</time></trkpt><trkpt lat="40.4984733" lon="9.6536373"><ele>471.6</ele><time>2026-04-07T10:26:40.345Z</time></trkpt><trkpt lat="40.4985763" lon="9.653689"><ele>470.0</ele><time>2026-04-07T10:26:42.345Z</time></trkpt><trkpt lat="40.4986627" lon="9.6537128"><ele>465.6</ele><time>2026-04-07T10:26:44.346Z</time></trkpt><trkpt lat="40.4987606" lon="9.6537361"><ele>461.2</ele><time>2026-04-07T10:26:46.346Z</time></trkpt><trkpt lat="40.4988628" lon="9.6537542"><ele>456.79999999999995</ele><time>2026-04-07T10:26:48.346Z</time></trkpt><trkpt lat="40.4989674" lon="9.6537644"><ele>452.4</ele><time>2026-04-07T10:26:50.346Z</time></trkpt><trkpt lat="40.4990712" lon="9.653781"><ele>448.0</ele><time>2026-04-07T10:26:52.346Z</time></trkpt><trkpt lat="40.4991788" lon="9.6538187"><ele>448.0</ele><time>2026-04-07T10:26:54.346Z</time></trkpt><trkpt lat="40.4992859" lon="9.6538507"><ele>447.99999999999994</ele><time>2026-04-07T10:26:56.346Z</time></trkpt><trkpt lat="40.4993921" lon="9.6538999"><ele>447.99999999999994</ele><time>2026-04-07T10:26:58.345Z</time></trkpt><trkpt lat="40.4994966" lon="9.6539454"><ele>448.0</ele><time>2026-04-07T10:27:00.345Z</time></trkpt><trkpt lat="40.499597" lon="9.6539941"><ele>448.0</ele><time>2026-04-07T10:27:02.346Z</time></trkpt><trkpt lat="40.4996974" lon="9.6540464"><ele>443.2</ele><time>2026-04-07T10:27:04.346Z</time></trkpt><trkpt lat="40.4997982" lon="9.6540754"><ele>438.4</ele><time>2026-04-07T10:27:06.345Z</time></trkpt><trkpt lat="40.4999023" lon="9.6541106"><ele>433.59999999999997</ele><time>2026-04-07T10:27:08.346Z</time></trkpt><trkpt lat="40.5000023" lon="9.6541461"><ele>428.79999999999995</ele><time>2026-04-07T10:27:10.346Z</time></trkpt><trkpt lat="40.5001013" lon="9.6541901"><ele>424.0</ele><time>2026-04-07T10:27:12.345Z</time></trkpt><trkpt lat="40.5001887" lon="9.654245"><ele>424.0</ele><time>2026-04-07T10:27:14.346Z</time></trkpt><trkpt lat="40.5002531" lon="9.6542945"><ele>424.0</ele><time>2026-04-07T10:27:16.345Z</time></trkpt><trkpt lat="40.5003117" lon="9.6543582"><ele>424.0</ele><time>2026-04-07T10:27:19.346Z</time></trkpt><trkpt lat="40.500366" lon="9.6544089"><ele>424.0</ele><time>2026-04-07T10:27:21.346Z</time></trkpt><trkpt lat="40.5004232" lon="9.6544511"><ele>424.0</ele><time>2026-04-07T10:27:23.346Z</time></trkpt><trkpt lat="40.5004904" lon="9.65449"><ele>424.0</ele><time>2026-04-07T10:27:25.346Z</time></trkpt><trkpt lat="40.5005632" lon="9.6545526"><ele>424.0</ele><time>2026-04-07T10:27:27.346Z</time></trkpt><trkpt lat="40.5006369" lon="9.6546216"><ele>422.79999999999995</ele><time>2026-04-07T10:27:29.345Z</time></trkpt><trkpt lat="40.5007172" lon="9.6547123"><ele>421.59999999999997</ele><time>2026-04-07T10:27:31.346Z</time></trkpt><trkpt lat="40.5008064" lon="9.6547903"><ele>420.4</ele><time>2026-04-07T10:27:33.346Z</time></trkpt><trkpt lat="40.5009094" lon="9.6548944"><ele>419.2</ele><time>2026-04-07T10:27:35.345Z</time></trkpt><trkpt lat="40.5009686" lon="9.6549466"><ele>418.0</ele><time>2026-04-07T10:27:36.345Z</time></trkpt><trkpt lat="40.5010276" lon="9.6550085"><ele>418.00000000000006</ele><time>2026-04-07T10:27:37.346Z</time></trkpt><trkpt lat="40.5010821" lon="9.6550824"><ele>418.0</ele><time>2026-04-07T10:27:38.345Z</time></trkpt><trkpt lat="40.5011391" lon="9.655164"><ele>418.0</ele><time>2026-04-07T10:27:39.346Z</time></trkpt><trkpt lat="40.5011857" lon="9.6552481"><ele>418.0</ele><time>2026-04-07T10:27:40.346Z</time></trkpt><trkpt lat="40.501228" lon="9.6553306"><ele>418.00000000000006</ele><time>2026-04-07T10:27:41.346Z</time></trkpt><trkpt lat="40.5012671" lon="9.6554173"><ele>418.0</ele><time>2026-04-07T10:27:42.345Z</time></trkpt><trkpt lat="40.5012989" lon="9.6555112"><ele>414.85714285714283</ele><time>2026-04-07T10:27:43.346Z</time></trkpt><trkpt lat="40.5013243" lon="9.6556002"><ele>411.71428571428567</ele><time>2026-04-07T10:27:44.346Z</time></trkpt><trkpt lat="40.5013446" lon="9.6556948"><ele>408.57142857142856</ele><time>2026-04-07T10:27:45.346Z</time></trkpt><trkpt lat="40.5013615" lon="9.6557882"><ele>405.42857142857144</ele><time>2026-04-07T10:27:46.346Z</time></trkpt><trkpt lat="40.501375" lon="9.6558815"><ele>402.2857142857143</ele><time>2026-04-07T10:27:47.346Z</time></trkpt><trkpt lat="40.5013895" lon="9.6559675"><ele>399.14285714285717</ele><time>2026-04-07T10:27:48.346Z</time></trkpt><trkpt lat="40.5014005" lon="9.6560517"><ele>396.0</ele><time>2026-04-07T10:27:49.345Z</time></trkpt><trkpt lat="40.5014105" lon="9.656134"><ele>396.0</ele><time>2026-04-07T10:27:50.345Z</time></trkpt><trkpt lat="40.5014324" lon="9.6562897"><ele>396.0</ele><time>2026-04-07T10:27:52.346Z</time></trkpt><trkpt lat="40.5014464" lon="9.656371"><ele>396.0</ele><time>2026-04-07T10:27:53.345Z</time></trkpt><trkpt lat="40.5014671" lon="9.6565335"><ele>396.0</ele><time>2026-04-07T10:27:55.345Z</time></trkpt><trkpt lat="40.5014776" lon="9.6566155"><ele>396.0</ele><time>2026-04-07T10:27:56.346Z</time></trkpt><trkpt lat="40.5014888" lon="9.6566974"><ele>396.0</ele><time>2026-04-07T10:27:57.346Z</time></trkpt><trkpt lat="40.5015071" lon="9.6568571"><ele>396.75</ele><time>2026-04-07T10:27:59.345Z</time></trkpt><trkpt lat="40.5015294" lon="9.6570212"><ele>397.5</ele><time>2026-04-07T10:28:01.346Z</time></trkpt><trkpt lat="40.5015572" lon="9.6571628"><ele>398.25</ele><time>2026-04-07T10:28:03.346Z</time></trkpt><trkpt lat="40.501623" lon="9.6572815"><ele>399.0</ele><time>2026-04-07T10:28:05.346Z</time></trkpt><trkpt lat="40.5017219" lon="9.6573676"><ele>399.0</ele><time>2026-04-07T10:28:07.346Z</time></trkpt><trkpt lat="40.5018388" lon="9.6574325"><ele>399.0</ele><time>2026-04-07T10:28:09.346Z</time></trkpt><trkpt lat="40.5019022" lon="9.6574593"><ele>399.0</ele><time>2026-04-07T10:28:10.345Z</time></trkpt><trkpt lat="40.5019662" lon="9.6574781"><ele>399.0</ele><time>2026-04-07T10:28:11.346Z</time></trkpt><trkpt lat="40.502029" lon="9.657491"><ele>399.0</ele><time>2026-04-07T10:28:12.346Z</time></trkpt><trkpt lat="40.5020921" lon="9.6575112"><ele>399.0</ele><time>2026-04-07T10:28:13.345Z</time></trkpt><trkpt lat="40.5022132" lon="9.6575293"><ele>396.6</ele><time>2026-04-07T10:28:15.346Z</time></trkpt><trkpt lat="40.5023178" lon="9.6574825"><ele>394.2</ele><time>2026-04-07T10:28:17.346Z</time></trkpt><trkpt lat="40.5023957" lon="9.6574042"><ele>391.8</ele><time>2026-04-07T10:28:19.346Z</time></trkpt><trkpt lat="40.5024512" lon="9.6572914"><ele>389.40000000000003</ele><time>2026-04-07T10:28:21.346Z</time></trkpt><trkpt lat="40.5024912" lon="9.6571631"><ele>387.0</ele><time>2026-04-07T10:28:23.346Z</time></trkpt><trkpt lat="40.502525" lon="9.6570317"><ele>385.8</ele><time>2026-04-07T10:28:25.346Z</time></trkpt><trkpt lat="40.5025622" lon="9.6568985"><ele>384.6</ele><time>2026-04-07T10:28:27.345Z</time></trkpt><trkpt lat="40.5025874" lon="9.6567684"><ele>383.40000000000003</ele><time>2026-04-07T10:28:29.345Z</time></trkpt><trkpt lat="40.5026159" lon="9.6566329"><ele>382.20000000000005</ele><time>2026-04-07T10:28:31.345Z</time></trkpt><trkpt lat="40.5026298" lon="9.6564946"><ele>381.0</ele><time>2026-04-07T10:28:33.346Z</time></trkpt><trkpt lat="40.5026244" lon="9.6563623"><ele>381.0</ele><time>2026-04-07T10:28:35.345Z</time></trkpt><trkpt lat="40.5026027" lon="9.6562274"><ele>381.0</ele><time>2026-04-07T10:28:37.346Z</time></trkpt><trkpt lat="40.5025514" lon="9.6561049"><ele>381.0</ele><time>2026-04-07T10:28:39.346Z</time></trkpt><trkpt lat="40.5024899" lon="9.6559898"><ele>381.0</ele><time>2026-04-07T10:28:41.345Z</time></trkpt><trkpt lat="40.5024282" lon="9.6558706"><ele>381.0</ele><time>2026-04-07T10:28:43.346Z</time></trkpt><trkpt lat="40.5023678" lon="9.6557593"><ele>379.8</ele><time>2026-04-07T10:28:45.346Z</time></trkpt><trkpt lat="40.5023144" lon="9.6556413"><ele>378.6</ele><time>2026-04-07T10:28:47.346Z</time></trkpt><trkpt lat="40.502265" lon="9.6555213"><ele>377.4</ele><time>2026-04-07T10:28:49.346Z</time></trkpt><trkpt lat="40.5022238" lon="9.65539"><ele>376.2</ele><time>2026-04-07T10:28:51.346Z</time></trkpt><trkpt lat="40.5021965" lon="9.6552633"><ele>375.0</ele><time>2026-04-07T10:28:53.346Z</time></trkpt><trkpt lat="40.502171" lon="9.6551343"><ele>377.0</ele><time>2026-04-07T10:28:55.346Z</time></trkpt><trkpt lat="40.5021517" lon="9.6550055"><ele>379.0</ele><time>2026-04-07T10:28:57.346Z</time></trkpt><trkpt lat="40.502132" lon="9.654875"><ele>381.0</ele><time>2026-04-07T10:28:59.346Z</time></trkpt><trkpt lat="40.5021078" lon="9.6547474"><ele>383.0</ele><time>2026-04-07T10:29:01.346Z</time></trkpt><trkpt lat="40.5020854" lon="9.6546135"><ele>385.0</ele><time>2026-04-07T10:29:03.345Z</time></trkpt><trkpt lat="40.5020496" lon="9.6544589"><ele>381.2</ele><time>2026-04-07T10:29:05.346Z</time></trkpt><trkpt lat="40.5020279" lon="9.6543769"><ele>377.4</ele><time>2026-04-07T10:29:06.346Z</time></trkpt><trkpt lat="40.501984" lon="9.6542299"><ele>373.6</ele><time>2026-04-07T10:29:08.345Z</time></trkpt><trkpt lat="40.5019329" lon="9.654101"><ele>369.8</ele><time>2026-04-07T10:29:10.346Z</time></trkpt><trkpt lat="40.5018757" lon="9.6539799"><ele>366.0</ele><time>2026-04-07T10:29:12.346Z</time></trkpt><trkpt lat="40.5018059" lon="9.6538552"><ele>366.0</ele><time>2026-04-07T10:29:14.346Z</time></trkpt><trkpt lat="40.5017338" lon="9.6537401"><ele>366.0</ele><time>2026-04-07T10:29:16.346Z</time></trkpt><trkpt lat="40.5016927" lon="9.6536772"><ele>366.0</ele><time>2026-04-07T10:29:17.346Z</time></trkpt><trkpt lat="40.5016641" lon="9.6535331"><ele>366.0</ele><time>2026-04-07T10:29:19.345Z</time></trkpt><trkpt lat="40.5017221" lon="9.6534246"><ele>366.0</ele><time>2026-04-07T10:29:21.346Z</time></trkpt><trkpt lat="40.5018257" lon="9.6533954"><ele>366.0</ele><time>2026-04-07T10:29:23.346Z</time></trkpt><trkpt lat="40.5019282" lon="9.6534388"><ele>366.0</ele><time>2026-04-07T10:29:25.345Z</time></trkpt><trkpt lat="40.5020022" lon="9.653537"><ele>366.0</ele><time>2026-04-07T10:29:27.346Z</time></trkpt><trkpt lat="40.502071" lon="9.6536623"><ele>366.0</ele><time>2026-04-07T10:29:29.346Z</time></trkpt><trkpt lat="40.5021381" lon="9.653795"><ele>362.6666666666667</ele><time>2026-04-07T10:29:31.346Z</time></trkpt><trkpt lat="40.5021754" lon="9.6538665"><ele>359.3333333333333</ele><time>2026-04-07T10:29:32.346Z</time></trkpt><trkpt lat="40.5022221" lon="9.6539483"><ele>356.0</ele><time>2026-04-07T10:29:33.346Z</time></trkpt><trkpt lat="40.5022766" lon="9.6540342"><ele>352.66666666666663</ele><time>2026-04-07T10:29:34.346Z</time></trkpt><trkpt lat="40.5023462" lon="9.654116"><ele>349.3333333333333</ele><time>2026-04-07T10:29:35.345Z</time></trkpt><trkpt lat="40.5024154" lon="9.654191"><ele>346.0</ele><time>2026-04-07T10:29:36.346Z</time></trkpt><trkpt lat="40.5024892" lon="9.6542523"><ele>346.0</ele><time>2026-04-07T10:29:37.345Z</time></trkpt><trkpt lat="40.5025674" lon="9.6542863"><ele>346.0</ele><time>2026-04-07T10:29:38.346Z</time></trkpt><trkpt lat="40.5026445" lon="9.654295"><ele>346.0</ele><time>2026-04-07T10:29:39.345Z</time></trkpt><trkpt lat="40.5027166" lon="9.6542691"><ele>346.0</ele><time>2026-04-07T10:29:40.346Z</time></trkpt><trkpt lat="40.502775" lon="9.6542248"><ele>346.0</ele><time>2026-04-07T10:29:41.346Z</time></trkpt><trkpt lat="40.5028205" lon="9.6541536"><ele>346.0</ele><time>2026-04-07T10:29:42.346Z</time></trkpt><trkpt lat="40.5028425" lon="9.6540644"><ele>346.0</ele><time>2026-04-07T10:29:43.345Z</time></trkpt><trkpt lat="40.502847" lon="9.6539609"><ele>346.0</ele><time>2026-04-07T10:29:44.346Z</time></trkpt><trkpt lat="40.5028482" lon="9.6538523"><ele>346.0</ele><time>2026-04-07T10:29:45.346Z</time></trkpt><trkpt lat="40.5028445" lon="9.6537412"><ele>346.0</ele><time>2026-04-07T10:29:46.346Z</time></trkpt><trkpt lat="40.5028287" lon="9.6536422"><ele>346.0</ele><time>2026-04-07T10:29:47.346Z</time></trkpt><trkpt lat="40.5028046" lon="9.653552"><ele>346.0</ele><time>2026-04-07T10:29:48.346Z</time></trkpt><trkpt lat="40.5027771" lon="9.653469"><ele>346.0</ele><time>2026-04-07T10:29:49.345Z</time></trkpt><trkpt lat="40.5027393" lon="9.6534014"><ele>346.0</ele><time>2026-04-07T10:29:50.345Z</time></trkpt><trkpt lat="40.5026439" lon="9.6532875"><ele>344.2857142857143</ele><time>2026-04-07T10:29:52.346Z</time></trkpt><trkpt lat="40.5025935" lon="9.6532321"><ele>342.5714285714286</ele><time>2026-04-07T10:29:53.345Z</time></trkpt><trkpt lat="40.5025333" lon="9.6531773"><ele>340.8571428571429</ele><time>2026-04-07T10:29:54.345Z</time></trkpt><trkpt lat="40.5024712" lon="9.6531161"><ele>339.1428571428571</ele><time>2026-04-07T10:29:55.345Z</time></trkpt><trkpt lat="40.5024112" lon="9.6530623"><ele>337.42857142857144</ele><time>2026-04-07T10:29:56.346Z</time></trkpt><trkpt lat="40.5023556" lon="9.6530076"><ele>335.7142857142857</ele><time>2026-04-07T10:29:57.346Z</time></trkpt><trkpt lat="40.502303" lon="9.6529571"><ele>334.0</ele><time>2026-04-07T10:29:58.346Z</time></trkpt><trkpt lat="40.5022514" lon="9.6529083"><ele>334.0</ele><time>2026-04-07T10:29:59.346Z</time></trkpt><trkpt lat="40.5021495" lon="9.6528172"><ele>334.0</ele><time>2026-04-07T10:30:01.346Z</time></trkpt><trkpt lat="40.5020986" lon="9.6527654"><ele>334.0</ele><time>2026-04-07T10:30:02.346Z</time></trkpt><trkpt lat="40.5020458" lon="9.6527147"><ele>334.0</ele><time>2026-04-07T10:30:03.346Z</time></trkpt><trkpt lat="40.5019891" lon="9.6526572"><ele>334.0</ele><time>2026-04-07T10:30:04.346Z</time></trkpt><trkpt lat="40.5019302" lon="9.6525869"><ele>334.0</ele><time>2026-04-07T10:30:05.346Z</time></trkpt><trkpt lat="40.5018811" lon="9.6525012"><ele>333.0</ele><time>2026-04-07T10:30:06.345Z</time></trkpt><trkpt lat="40.5018468" lon="9.6524125"><ele>332.0</ele><time>2026-04-07T10:30:07.346Z</time></trkpt><trkpt lat="40.5018228" lon="9.6523191"><ele>331.0</ele><time>2026-04-07T10:30:08.346Z</time></trkpt><trkpt lat="40.5018141" lon="9.6522306"><ele>330.0</ele><time>2026-04-07T10:30:09.346Z</time></trkpt><trkpt lat="40.5018053" lon="9.6521404"><ele>329.0</ele><time>2026-04-07T10:30:10.346Z</time></trkpt><trkpt lat="40.5017945" lon="9.6520426"><ele>328.0</ele><time>2026-04-07T10:30:11.346Z</time></trkpt><trkpt lat="40.5017763" lon="9.6519497"><ele>327.0</ele><time>2026-04-07T10:30:12.345Z</time></trkpt><trkpt lat="40.5017475" lon="9.6518559"><ele>325.0</ele><time>2026-04-07T10:30:13.346Z</time></trkpt><trkpt lat="40.5017177" lon="9.6517676"><ele>323.0</ele><time>2026-04-07T10:30:14.346Z</time></trkpt><trkpt lat="40.5016923" lon="9.6516733"><ele>321.0</ele><time>2026-04-07T10:30:15.346Z</time></trkpt><trkpt lat="40.5016624" lon="9.6515774"><ele>319.0</ele><time>2026-04-07T10:30:16.346Z</time></trkpt><trkpt lat="40.5016367" lon="9.6514837"><ele>317.0</ele><time>2026-04-07T10:30:17.346Z</time></trkpt><trkpt lat="40.5016055" lon="9.6513938"><ele>315.0</ele><time>2026-04-07T10:30:18.345Z</time></trkpt><trkpt lat="40.501572" lon="9.6513012"><ele>315.0</ele><time>2026-04-07T10:30:19.346Z</time></trkpt><trkpt lat="40.5015387" lon="9.6512103"><ele>315.0</ele><time>2026-04-07T10:30:20.346Z</time></trkpt><trkpt lat="40.5015067" lon="9.6511209"><ele>315.0</ele><time>2026-04-07T10:30:21.346Z</time></trkpt><trkpt lat="40.5014725" lon="9.6510356"><ele>315.0</ele><time>2026-04-07T10:30:22.346Z</time></trkpt><trkpt lat="40.5014381" lon="9.6509585"><ele>315.0</ele><time>2026-04-07T10:30:23.345Z</time></trkpt><trkpt lat="40.5013862" lon="9.6508389"><ele>315.0</ele><time>2026-04-07T10:30:25.345Z</time></trkpt><trkpt lat="40.5013337" lon="9.650742"><ele>313.0</ele><time>2026-04-07T10:30:27.346Z</time></trkpt><trkpt lat="40.5013091" lon="9.6506269"><ele>311.0</ele><time>2026-04-07T10:30:29.346Z</time></trkpt><trkpt lat="40.5013557" lon="9.6505166"><ele>309.0</ele><time>2026-04-07T10:30:31.345Z</time></trkpt><trkpt lat="40.5014498" lon="9.65043"><ele>307.0</ele><time>2026-04-07T10:30:33.346Z</time></trkpt><trkpt lat="40.5015109" lon="9.6503804"><ele>305.0</ele><time>2026-04-07T10:30:34.346Z</time></trkpt><trkpt lat="40.5015746" lon="9.6503189"><ele>304.1666666666667</ele><time>2026-04-07T10:30:35.345Z</time></trkpt><trkpt lat="40.5016412" lon="9.6502492"><ele>303.33333333333337</ele><time>2026-04-07T10:30:36.346Z</time></trkpt><trkpt lat="40.5017092" lon="9.6501723"><ele>302.5</ele><time>2026-04-07T10:30:37.346Z</time></trkpt><trkpt lat="40.5017695" lon="9.6500967"><ele>301.6666666666667</ele><time>2026-04-07T10:30:38.346Z</time></trkpt><trkpt lat="40.5018286" lon="9.6500233"><ele>300.8333333333333</ele><time>2026-04-07T10:30:39.346Z</time></trkpt><trkpt lat="40.5018872" lon="9.6499448"><ele>300.0</ele><time>2026-04-07T10:30:40.346Z</time></trkpt><trkpt lat="40.5019358" lon="9.6498664"><ele>300.0</ele><time>2026-04-07T10:30:41.345Z</time></trkpt><trkpt lat="40.501968" lon="9.6497772"><ele>300.0</ele><time>2026-04-07T10:30:42.345Z</time></trkpt><trkpt lat="40.5019868" lon="9.649684"><ele>300.0</ele><time>2026-04-07T10:30:43.346Z</time></trkpt><trkpt lat="40.5019959" lon="9.6495891"><ele>300.0</ele><time>2026-04-07T10:30:44.346Z</time></trkpt><trkpt lat="40.5020062" lon="9.6494901"><ele>300.0</ele><time>2026-04-07T10:30:45.345Z</time></trkpt><trkpt lat="40.5020155" lon="9.6493838"><ele>300.0</ele><time>2026-04-07T10:30:46.346Z</time></trkpt><trkpt lat="40.5020237" lon="9.6492759"><ele>299.2857142857143</ele><time>2026-04-07T10:30:47.345Z</time></trkpt><trkpt lat="40.5020384" lon="9.6491779"><ele>298.57142857142856</ele><time>2026-04-07T10:30:48.346Z</time></trkpt><trkpt lat="40.5020637" lon="9.6490845"><ele>297.8571428571429</ele><time>2026-04-07T10:30:49.345Z</time></trkpt><trkpt lat="40.5020975" lon="9.6489972"><ele>297.1428571428571</ele><time>2026-04-07T10:30:50.346Z</time></trkpt><trkpt lat="40.5021353" lon="9.6489157"><ele>296.42857142857144</ele><time>2026-04-07T10:30:51.346Z</time></trkpt><trkpt lat="40.5021839" lon="9.6488488"><ele>295.7142857142857</ele><time>2026-04-07T10:30:52.346Z</time></trkpt><trkpt lat="40.5022392" lon="9.6487953"><ele>295.0</ele><time>2026-04-07T10:30:53.346Z</time></trkpt><trkpt lat="40.5022984" lon="9.6487585"><ele>292.3333333333333</ele><time>2026-04-07T10:30:54.345Z</time></trkpt><trkpt lat="40.5023623" lon="9.6487348"><ele>289.66666666666663</ele><time>2026-04-07T10:30:55.346Z</time></trkpt><trkpt lat="40.5024343" lon="9.6487188"><ele>287.0</ele><time>2026-04-07T10:30:56.346Z</time></trkpt><trkpt lat="40.5025133" lon="9.648713"><ele>284.3333333333333</ele><time>2026-04-07T10:30:57.345Z</time></trkpt><trkpt lat="40.5025993" lon="9.6487139"><ele>281.6666666666667</ele><time>2026-04-07T10:30:58.345Z</time></trkpt><trkpt lat="40.5026808" lon="9.648714"><ele>279.0</ele><time>2026-04-07T10:30:59.345Z</time></trkpt><trkpt lat="40.5027595" lon="9.6487151"><ele>278.99999999999994</ele><time>2026-04-07T10:31:00.346Z</time></trkpt><trkpt lat="40.5028362" lon="9.6487145"><ele>279.0</ele><time>2026-04-07T10:31:01.346Z</time></trkpt><trkpt lat="40.5029131" lon="9.6487124"><ele>279.0</ele><time>2026-04-07T10:31:02.345Z</time></trkpt><trkpt lat="40.5029814" lon="9.6487167"><ele>279.0</ele><time>2026-04-07T10:31:03.346Z</time></trkpt><trkpt lat="40.5030529" lon="9.6487245"><ele>279.0</ele><time>2026-04-07T10:31:04.345Z</time></trkpt><trkpt lat="40.5031219" lon="9.6487306"><ele>278.99999999999994</ele><time>2026-04-07T10:31:05.346Z</time></trkpt><trkpt lat="40.5031954" lon="9.6487374"><ele>279.0</ele><time>2026-04-07T10:31:06.346Z</time></trkpt><trkpt lat="40.5032712" lon="9.6487519"><ele>276.8333333333333</ele><time>2026-04-07T10:31:07.346Z</time></trkpt><trkpt lat="40.5033494" lon="9.6487712"><ele>274.6666666666667</ele><time>2026-04-07T10:31:08.346Z</time></trkpt><trkpt lat="40.5034258" lon="9.648801"><ele>272.5</ele><time>2026-04-07T10:31:09.346Z</time></trkpt><trkpt lat="40.5035101" lon="9.6488286"><ele>270.33333333333337</ele><time>2026-04-07T10:31:10.345Z</time></trkpt><trkpt lat="40.5035964" lon="9.648858"><ele>268.1666666666667</ele><time>2026-04-07T10:31:11.345Z</time></trkpt><trkpt lat="40.5036854" lon="9.6488908"><ele>266.0</ele><time>2026-04-07T10:31:12.346Z</time></trkpt><trkpt lat="40.5037735" lon="9.6489217"><ele>263.6</ele><time>2026-04-07T10:31:13.346Z</time></trkpt><trkpt lat="40.5038606" lon="9.6489461"><ele>261.20000000000005</ele><time>2026-04-07T10:31:14.345Z</time></trkpt><trkpt lat="40.50395" lon="9.6489627"><ele>258.79999999999995</ele><time>2026-04-07T10:31:15.346Z</time></trkpt><trkpt lat="40.5040417" lon="9.6489649"><ele>256.4</ele><time>2026-04-07T10:31:16.346Z</time></trkpt><trkpt lat="40.5041324" lon="9.648945"><ele>254.0</ele><time>2026-04-07T10:31:17.345Z</time></trkpt><trkpt lat="40.5042202" lon="9.6489029"><ele>254.00000000000003</ele><time>2026-04-07T10:31:18.345Z</time></trkpt><trkpt lat="40.5042919" lon="9.6488359"><ele>254.0</ele><time>2026-04-07T10:31:19.346Z</time></trkpt><trkpt lat="40.5043461" lon="9.6487453"><ele>254.0</ele><time>2026-04-07T10:31:20.345Z</time></trkpt><trkpt lat="40.5043827" lon="9.6486414"><ele>254.0</ele><time>2026-04-07T10:31:21.346Z</time></trkpt><trkpt lat="40.5044144" lon="9.6485302"><ele>254.00000000000003</ele><time>2026-04-07T10:31:22.346Z</time></trkpt><trkpt lat="40.5044437" lon="9.6484143"><ele>254.0</ele><time>2026-04-07T10:31:23.346Z</time></trkpt><trkpt lat="40.5044706" lon="9.6482913"><ele>254.2</ele><time>2026-04-07T10:31:24.346Z</time></trkpt><trkpt lat="40.5044942" lon="9.6481627"><ele>254.39999999999998</ele><time>2026-04-07T10:31:25.346Z</time></trkpt><trkpt lat="40.5045087" lon="9.6480272"><ele>254.6</ele><time>2026-04-07T10:31:26.345Z</time></trkpt><trkpt lat="40.50452" lon="9.6478983"><ele>254.8</ele><time>2026-04-07T10:31:27.345Z</time></trkpt><trkpt lat="40.5045299" lon="9.6477716"><ele>255.0</ele><time>2026-04-07T10:31:28.346Z</time></trkpt><trkpt lat="40.5045302" lon="9.6476502"><ele>253.4</ele><time>2026-04-07T10:31:29.346Z</time></trkpt><trkpt lat="40.504521" lon="9.6475259"><ele>251.8</ele><time>2026-04-07T10:31:30.345Z</time></trkpt><trkpt lat="40.5044976" lon="9.6473961"><ele>250.2</ele><time>2026-04-07T10:31:31.345Z</time></trkpt><trkpt lat="40.5044623" lon="9.6472704"><ele>248.6</ele><time>2026-04-07T10:31:32.346Z</time></trkpt><trkpt lat="40.5044141" lon="9.6471542"><ele>247.0</ele><time>2026-04-07T10:31:33.346Z</time></trkpt><trkpt lat="40.5043547" lon="9.6470441"><ele>245.2</ele><time>2026-04-07T10:31:34.346Z</time></trkpt><trkpt lat="40.5042863" lon="9.6469493"><ele>243.39999999999998</ele><time>2026-04-07T10:31:35.346Z</time></trkpt><trkpt lat="40.5042136" lon="9.6468729"><ele>241.60000000000002</ele><time>2026-04-07T10:31:36.346Z</time></trkpt><trkpt lat="40.5041346" lon="9.6468284"><ele>239.8</ele><time>2026-04-07T10:31:37.346Z</time></trkpt><trkpt lat="40.5040473" lon="9.6468107"><ele>238.0</ele><time>2026-04-07T10:31:38.346Z</time></trkpt><trkpt lat="40.5039597" lon="9.6468028"><ele>237.99999999999997</ele><time>2026-04-07T10:31:39.346Z</time></trkpt><trkpt lat="40.5038714" lon="9.6468065"><ele>238.0</ele><time>2026-04-07T10:31:40.346Z</time></trkpt><trkpt lat="40.5037849" lon="9.6468089"><ele>238.0</ele><time>2026-04-07T10:31:41.345Z</time></trkpt><trkpt lat="40.5036974" lon="9.646809"><ele>238.0</ele><time>2026-04-07T10:31:42.346Z</time></trkpt><trkpt lat="40.5036088" lon="9.6468024"><ele>237.99999999999997</ele><time>2026-04-07T10:31:43.345Z</time></trkpt><trkpt lat="40.5035216" lon="9.6467822"><ele>238.0</ele><time>2026-04-07T10:31:44.346Z</time></trkpt><trkpt lat="40.5034491" lon="9.6467396"><ele>237.49999999999997</ele><time>2026-04-07T10:31:45.346Z</time></trkpt><trkpt lat="40.5033878" lon="9.6466771"><ele>237.0</ele><time>2026-04-07T10:31:46.345Z</time></trkpt><trkpt lat="40.5033396" lon="9.6465978"><ele>236.5</ele><time>2026-04-07T10:31:47.346Z</time></trkpt><trkpt lat="40.5033029" lon="9.6465079"><ele>236.0</ele><time>2026-04-07T10:31:48.346Z</time></trkpt><trkpt lat="40.5032707" lon="9.646409"><ele>235.49999999999997</ele><time>2026-04-07T10:31:49.346Z</time></trkpt><trkpt lat="40.5032362" lon="9.6463087"><ele>235.0</ele><time>2026-04-07T10:31:50.346Z</time></trkpt><trkpt lat="40.5032077" lon="9.6462058"><ele>232.66666666666666</ele><time>2026-04-07T10:31:51.345Z</time></trkpt><trkpt lat="40.5031784" lon="9.6461042"><ele>230.33333333333331</ele><time>2026-04-07T10:31:52.346Z</time></trkpt><trkpt lat="40.5031512" lon="9.6460013"><ele>228.0</ele><time>2026-04-07T10:31:53.345Z</time></trkpt><trkpt lat="40.5031215" lon="9.6458969"><ele>225.66666666666669</ele><time>2026-04-07T10:31:54.346Z</time></trkpt><trkpt lat="40.5030915" lon="9.6457944"><ele>223.33333333333334</ele><time>2026-04-07T10:31:55.345Z</time></trkpt><trkpt lat="40.503059" lon="9.6456914"><ele>221.0</ele><time>2026-04-07T10:31:56.346Z</time></trkpt><trkpt lat="40.5030278" lon="9.6455833"><ele>221.0</ele><time>2026-04-07T10:31:57.346Z</time></trkpt><trkpt lat="40.502997" lon="9.6454764"><ele>221.00000000000003</ele><time>2026-04-07T10:31:58.346Z</time></trkpt><trkpt lat="40.5029648" lon="9.6453646"><ele>221.00000000000003</ele><time>2026-04-07T10:31:59.346Z</time></trkpt><trkpt lat="40.5029319" lon="9.6452469"><ele>221.0</ele><time>2026-04-07T10:32:00.346Z</time></trkpt><trkpt lat="40.5028941" lon="9.6451232"><ele>221.0</ele><time>2026-04-07T10:32:01.345Z</time></trkpt><trkpt lat="40.5028506" lon="9.6449958"><ele>222.0</ele><time>2026-04-07T10:32:02.346Z</time></trkpt><trkpt lat="40.5027988" lon="9.644862"><ele>223.0</ele><time>2026-04-07T10:32:03.345Z</time></trkpt><trkpt lat="40.5027411" lon="9.6447279"><ele>224.0</ele><time>2026-04-07T10:32:04.346Z</time></trkpt><trkpt lat="40.5026796" lon="9.6445893"><ele>225.0</ele><time>2026-04-07T10:32:05.346Z</time></trkpt><trkpt lat="40.5026142" lon="9.6444437"><ele>219.25</ele><time>2026-04-07T10:32:06.346Z</time></trkpt><trkpt lat="40.5025472" lon="9.6442946"><ele>213.5</ele><time>2026-04-07T10:32:07.345Z</time></trkpt><trkpt lat="40.5024812" lon="9.6441445"><ele>207.75</ele><time>2026-04-07T10:32:08.345Z</time></trkpt><trkpt lat="40.5024193" lon="9.6439985"><ele>202.0</ele><time>2026-04-07T10:32:09.345Z</time></trkpt><trkpt lat="40.5023599" lon="9.6438575"><ele>202.0</ele><time>2026-04-07T10:32:10.345Z</time></trkpt><trkpt lat="40.5022998" lon="9.6437263"><ele>202.0</ele><time>2026-04-07T10:32:11.346Z</time></trkpt><trkpt lat="40.5022538" lon="9.6436071"><ele>202.0</ele><time>2026-04-07T10:32:12.346Z</time></trkpt><trkpt lat="40.502216" lon="9.6435031"><ele>202.0</ele><time>2026-04-07T10:32:13.345Z</time></trkpt><trkpt lat="40.5021825" lon="9.6433974"><ele>202.0</ele><time>2026-04-07T10:32:14.346Z</time></trkpt><trkpt lat="40.5021416" lon="9.6432965"><ele>202.83333333333331</ele><time>2026-04-07T10:32:15.346Z</time></trkpt><trkpt lat="40.5020984" lon="9.6431991"><ele>203.66666666666666</ele><time>2026-04-07T10:32:16.345Z</time></trkpt><trkpt lat="40.5020493" lon="9.6431083"><ele>204.5</ele><time>2026-04-07T10:32:17.345Z</time></trkpt><trkpt lat="40.5019978" lon="9.6430306"><ele>205.33333333333331</ele><time>2026-04-07T10:32:18.346Z</time></trkpt><trkpt lat="40.5019452" lon="9.6429431"><ele>206.16666666666666</ele><time>2026-04-07T10:32:19.346Z</time></trkpt><trkpt lat="40.5018941" lon="9.6428563"><ele>207.0</ele><time>2026-04-07T10:32:20.345Z</time></trkpt><trkpt lat="40.5018419" lon="9.6427685"><ele>203.5</ele><time>2026-04-07T10:32:21.345Z</time></trkpt><trkpt lat="40.5017869" lon="9.6426826"><ele>200.0</ele><time>2026-04-07T10:32:22.345Z</time></trkpt><trkpt lat="40.5017324" lon="9.6425983"><ele>196.5</ele><time>2026-04-07T10:32:23.346Z</time></trkpt><trkpt lat="40.5016789" lon="9.6425121"><ele>193.0</ele><time>2026-04-07T10:32:24.346Z</time></trkpt><trkpt lat="40.5016276" lon="9.642425"><ele>189.5</ele><time>2026-04-07T10:32:25.346Z</time></trkpt><trkpt lat="40.5015812" lon="9.6423363"><ele>186.0</ele><time>2026-04-07T10:32:26.346Z</time></trkpt><trkpt lat="40.5015434" lon="9.6422407"><ele>186.0</ele><time>2026-04-07T10:32:27.346Z</time></trkpt><trkpt lat="40.5015134" lon="9.6421447"><ele>186.0</ele><time>2026-04-07T10:32:28.346Z</time></trkpt><trkpt lat="40.5014936" lon="9.6420443"><ele>186.0</ele><time>2026-04-07T10:32:29.346Z</time></trkpt><trkpt lat="40.5014707" lon="9.6419415"><ele>186.0</ele><time>2026-04-07T10:32:30.346Z</time></trkpt><trkpt lat="40.5014566" lon="9.641836"><ele>186.0</ele><time>2026-04-07T10:32:31.345Z</time></trkpt><trkpt lat="40.5014419" lon="9.6417337"><ele>186.0</ele><time>2026-04-07T10:32:32.346Z</time></trkpt><trkpt lat="40.5014279" lon="9.6416299"><ele>184.57142857142858</ele><time>2026-04-07T10:32:33.346Z</time></trkpt><trkpt lat="40.5014202" lon="9.6415262"><ele>183.14285714285714</ele><time>2026-04-07T10:32:34.346Z</time></trkpt><trkpt lat="40.5014114" lon="9.6414251"><ele>181.71428571428572</ele><time>2026-04-07T10:32:35.346Z</time></trkpt><trkpt lat="40.5014167" lon="9.641334"><ele>180.28571428571428</ele><time>2026-04-07T10:32:36.346Z</time></trkpt><trkpt lat="40.5014387" lon="9.6412515"><ele>178.85714285714286</ele><time>2026-04-07T10:32:37.345Z</time></trkpt><trkpt lat="40.5014798" lon="9.6411831"><ele>177.42857142857144</ele><time>2026-04-07T10:32:38.345Z</time></trkpt><trkpt lat="40.5015368" lon="9.641142"><ele>176.0</ele><time>2026-04-07T10:32:39.345Z</time></trkpt><trkpt lat="40.5016013" lon="9.6411338"><ele>176.0</ele><time>2026-04-07T10:32:40.345Z</time></trkpt><trkpt lat="40.5016691" lon="9.6411484"><ele>176.0</ele><time>2026-04-07T10:32:41.346Z</time></trkpt><trkpt lat="40.5017331" lon="9.6411811"><ele>176.0</ele><time>2026-04-07T10:32:42.346Z</time></trkpt><trkpt lat="40.5017936" lon="9.6412312"><ele>176.0</ele><time>2026-04-07T10:32:43.346Z</time></trkpt><trkpt lat="40.5018589" lon="9.6412799"><ele>176.0</ele><time>2026-04-07T10:32:44.346Z</time></trkpt><trkpt lat="40.5019209" lon="9.6413274"><ele>176.0</ele><time>2026-04-07T10:32:45.345Z</time></trkpt><trkpt lat="40.5019865" lon="9.6413748"><ele>176.0</ele><time>2026-04-07T10:32:46.345Z</time></trkpt><trkpt lat="40.5020515" lon="9.641423"><ele>174.42857142857144</ele><time>2026-04-07T10:32:47.345Z</time></trkpt><trkpt lat="40.5021165" lon="9.6414669"><ele>172.85714285714286</ele><time>2026-04-07T10:32:48.345Z</time></trkpt><trkpt lat="40.5021849" lon="9.6415102"><ele>171.28571428571428</ele><time>2026-04-07T10:32:49.346Z</time></trkpt><trkpt lat="40.5022465" lon="9.6415447"><ele>169.71428571428572</ele><time>2026-04-07T10:32:50.346Z</time></trkpt><trkpt lat="40.5023068" lon="9.6415902"><ele>168.14285714285714</ele><time>2026-04-07T10:32:51.346Z</time></trkpt><trkpt lat="40.5023656" lon="9.6416269"><ele>166.57142857142858</ele><time>2026-04-07T10:32:52.346Z</time></trkpt><trkpt lat="40.5024296" lon="9.6416605"><ele>165.0</ele><time>2026-04-07T10:32:53.346Z</time></trkpt><trkpt lat="40.5024922" lon="9.6417001"><ele>165.00000000000003</ele><time>2026-04-07T10:32:54.346Z</time></trkpt><trkpt lat="40.5025514" lon="9.6417356"><ele>165.0</ele><time>2026-04-07T10:32:55.346Z</time></trkpt><trkpt lat="40.5026111" lon="9.6417731"><ele>165.0</ele><time>2026-04-07T10:32:56.345Z</time></trkpt><trkpt lat="40.50267" lon="9.6418105"><ele>165.0</ele><time>2026-04-07T10:32:57.346Z</time></trkpt><trkpt lat="40.5027294" lon="9.64184"><ele>165.0</ele><time>2026-04-07T10:32:58.346Z</time></trkpt><trkpt lat="40.5027899" lon="9.64187"><ele>165.00000000000003</ele><time>2026-04-07T10:32:59.346Z</time></trkpt><trkpt lat="40.5028492" lon="9.6419"><ele>165.0</ele><time>2026-04-07T10:33:00.346Z</time></trkpt><trkpt lat="40.5029642" lon="9.6419662"><ele>165.33333333333334</ele><time>2026-04-07T10:33:02.346Z</time></trkpt><trkpt lat="40.503081" lon="9.6420126"><ele>165.66666666666666</ele><time>2026-04-07T10:33:04.345Z</time></trkpt><trkpt lat="40.5031443" lon="9.6420206"><ele>166.0</ele><time>2026-04-07T10:33:05.346Z</time></trkpt><trkpt lat="40.5032085" lon="9.6420091"><ele>166.33333333333331</ele><time>2026-04-07T10:33:06.346Z</time></trkpt><trkpt lat="40.5033207" lon="9.6419347"><ele>166.66666666666666</ele><time>2026-04-07T10:33:08.346Z</time></trkpt><trkpt lat="40.5033662" lon="9.6418735"><ele>167.0</ele><time>2026-04-07T10:33:09.345Z</time></trkpt><trkpt lat="40.5034165" lon="9.6418205"><ele>166.0</ele><time>2026-04-07T10:33:10.346Z</time></trkpt><trkpt lat="40.5034696" lon="9.6417651"><ele>165.0</ele><time>2026-04-07T10:33:11.346Z</time></trkpt><trkpt lat="40.5035245" lon="9.6417174"><ele>164.0</ele><time>2026-04-07T10:33:12.346Z</time></trkpt><trkpt lat="40.5035841" lon="9.6416806"><ele>163.0</ele><time>2026-04-07T10:33:13.345Z</time></trkpt><trkpt lat="40.5036432" lon="9.6416432"><ele>162.0</ele><time>2026-04-07T10:33:14.346Z</time></trkpt><trkpt lat="40.503704" lon="9.6416137"><ele>161.0</ele><time>2026-04-07T10:33:15.345Z</time></trkpt><trkpt lat="40.5037693" lon="9.6415824"><ele>160.0</ele><time>2026-04-07T10:33:16.345Z</time></trkpt><trkpt lat="40.5038307" lon="9.6415528"><ele>158.4</ele><time>2026-04-07T10:33:17.346Z</time></trkpt><trkpt lat="40.5038922" lon="9.6415277"><ele>156.8</ele><time>2026-04-07T10:33:18.345Z</time></trkpt><trkpt lat="40.5040028" lon="9.6414758"><ele>155.2</ele><time>2026-04-07T10:33:20.346Z</time></trkpt><trkpt lat="40.5040965" lon="9.6414323"><ele>153.6</ele><time>2026-04-07T10:33:22.346Z</time></trkpt><trkpt lat="40.5041847" lon="9.6413953"><ele>152.0</ele><time>2026-04-07T10:33:24.345Z</time></trkpt><trkpt lat="40.5042722" lon="9.6413659"><ele>152.0</ele><time>2026-04-07T10:33:26.346Z</time></trkpt><trkpt lat="40.5043643" lon="9.641316"><ele>152.0</ele><time>2026-04-07T10:33:28.346Z</time></trkpt><trkpt lat="40.5044528" lon="9.6412645"><ele>152.0</ele><time>2026-04-07T10:33:30.345Z</time></trkpt><trkpt lat="40.5045343" lon="9.6411884"><ele>152.0</ele><time>2026-04-07T10:33:32.345Z</time></trkpt><trkpt lat="40.5046164" lon="9.6410921"><ele>152.0</ele><time>2026-04-07T10:33:34.346Z</time></trkpt><trkpt lat="40.5046967" lon="9.6409874"><ele>150.2</ele><time>2026-04-07T10:33:36.346Z</time></trkpt><trkpt lat="40.5047848" lon="9.640877"><ele>148.39999999999998</ele><time>2026-04-07T10:33:38.345Z</time></trkpt><trkpt lat="40.5048722" lon="9.6407891"><ele>146.60000000000002</ele><time>2026-04-07T10:33:40.346Z</time></trkpt><trkpt lat="40.5049478" lon="9.6406901"><ele>144.8</ele><time>2026-04-07T10:33:42.346Z</time></trkpt><trkpt lat="40.5050252" lon="9.6405985"><ele>143.0</ele><time>2026-04-07T10:33:44.345Z</time></trkpt><trkpt lat="40.5051059" lon="9.6405082"><ele>143.0</ele><time>2026-04-07T10:33:46.345Z</time></trkpt><trkpt lat="40.5051986" lon="9.6404206"><ele>143.0</ele><time>2026-04-07T10:33:48.345Z</time></trkpt><trkpt lat="40.5052883" lon="9.6403231"><ele>143.0</ele><time>2026-04-07T10:33:50.345Z</time></trkpt><trkpt lat="40.5053883" lon="9.6402179"><ele>143.0</ele><time>2026-04-07T10:33:52.346Z</time></trkpt><trkpt lat="40.5054458" lon="9.6401651"><ele>143.0</ele><time>2026-04-07T10:33:53.345Z</time></trkpt><trkpt lat="40.505506" lon="9.6401135"><ele>142.16666666666666</ele><time>2026-04-07T10:33:54.346Z</time></trkpt><trkpt lat="40.5055696" lon="9.6400617"><ele>141.33333333333331</ele><time>2026-04-07T10:33:55.346Z</time></trkpt><trkpt lat="40.5056349" lon="9.6400119"><ele>140.5</ele><time>2026-04-07T10:33:56.345Z</time></trkpt><trkpt lat="40.5057058" lon="9.639963"><ele>139.66666666666666</ele><time>2026-04-07T10:33:57.346Z</time></trkpt><trkpt lat="40.5057752" lon="9.6399089"><ele>138.83333333333334</ele><time>2026-04-07T10:33:58.345Z</time></trkpt><trkpt lat="40.5058429" lon="9.6398582"><ele>138.0</ele><time>2026-04-07T10:33:59.346Z</time></trkpt><trkpt lat="40.5059081" lon="9.6398108"><ele>138.0</ele><time>2026-04-07T10:34:00.346Z</time></trkpt><trkpt lat="40.5059703" lon="9.639763"><ele>138.0</ele><time>2026-04-07T10:34:01.346Z</time></trkpt><trkpt lat="40.50603" lon="9.639715"><ele>138.0</ele><time>2026-04-07T10:34:02.345Z</time></trkpt><trkpt lat="40.5060911" lon="9.6396647"><ele>138.0</ele><time>2026-04-07T10:34:03.345Z</time></trkpt><trkpt lat="40.5061585" lon="9.6396193"><ele>138.0</ele><time>2026-04-07T10:34:04.345Z</time></trkpt><trkpt lat="40.5062249" lon="9.6395697"><ele>138.0</ele><time>2026-04-07T10:34:05.346Z</time></trkpt><trkpt lat="40.5062949" lon="9.6395187"><ele>138.0</ele><time>2026-04-07T10:34:06.346Z</time></trkpt><trkpt lat="40.5063693" lon="9.6394723"><ele>136.83333333333334</ele><time>2026-04-07T10:34:07.346Z</time></trkpt><trkpt lat="40.5064395" lon="9.6394138"><ele>135.66666666666666</ele><time>2026-04-07T10:34:08.345Z</time></trkpt><trkpt lat="40.5065135" lon="9.6393523"><ele>134.5</ele><time>2026-04-07T10:34:09.345Z</time></trkpt><trkpt lat="40.506591" lon="9.6392953"><ele>133.33333333333331</ele><time>2026-04-07T10:34:10.346Z</time></trkpt><trkpt lat="40.5066716" lon="9.6392398"><ele>132.16666666666666</ele><time>2026-04-07T10:34:11.346Z</time></trkpt><trkpt lat="40.5067486" lon="9.6391821"><ele>131.0</ele><time>2026-04-07T10:34:12.345Z</time></trkpt><trkpt lat="40.5068285" lon="9.6391243"><ele>131.0</ele><time>2026-04-07T10:34:13.346Z</time></trkpt><trkpt lat="40.5069077" lon="9.6390667"><ele>131.0</ele><time>2026-04-07T10:34:14.345Z</time></trkpt><trkpt lat="40.5069843" lon="9.6390072"><ele>131.0</ele><time>2026-04-07T10:34:15.345Z</time></trkpt><trkpt lat="40.5070556" lon="9.6389579"><ele>131.0</ele><time>2026-04-07T10:34:16.346Z</time></trkpt><trkpt lat="40.5071169" lon="9.6389117"><ele>131.0</ele><time>2026-04-07T10:34:17.346Z</time></trkpt><trkpt lat="40.5071758" lon="9.6388717"><ele>131.0</ele><time>2026-04-07T10:34:18.345Z</time></trkpt><trkpt lat="40.507232" lon="9.638824"><ele>130.28571428571428</ele><time>2026-04-07T10:34:19.345Z</time></trkpt><trkpt lat="40.5072911" lon="9.6387777"><ele>129.57142857142858</ele><time>2026-04-07T10:34:20.346Z</time></trkpt><trkpt lat="40.5073516" lon="9.6387336"><ele>128.85714285714286</ele><time>2026-04-07T10:34:21.346Z</time></trkpt><trkpt lat="40.5074147" lon="9.6386872"><ele>128.14285714285714</ele><time>2026-04-07T10:34:22.346Z</time></trkpt><trkpt lat="40.50748" lon="9.6386387"><ele>127.42857142857143</ele><time>2026-04-07T10:34:23.346Z</time></trkpt><trkpt lat="40.5075457" lon="9.6385904"><ele>126.71428571428572</ele><time>2026-04-07T10:34:24.345Z</time></trkpt><trkpt lat="40.5076085" lon="9.6385402"><ele>126.0</ele><time>2026-04-07T10:34:25.346Z</time></trkpt><trkpt lat="40.5076717" lon="9.6384911"><ele>126.0</ele><time>2026-04-07T10:34:26.346Z</time></trkpt><trkpt lat="40.5077344" lon="9.6384437"><ele>126.0</ele><time>2026-04-07T10:34:27.346Z</time></trkpt><trkpt lat="40.5077935" lon="9.638397"><ele>126.0</ele><time>2026-04-07T10:34:28.346Z</time></trkpt><trkpt lat="40.5078878" lon="9.6383099"><ele>126.0</ele><time>2026-04-07T10:34:30.346Z</time></trkpt><trkpt lat="40.5079662" lon="9.6382485"><ele>126.0</ele><time>2026-04-07T10:34:32.346Z</time></trkpt><trkpt lat="40.5080426" lon="9.6381742"><ele>126.0</ele><time>2026-04-07T10:34:34.346Z</time></trkpt><trkpt lat="40.5081205" lon="9.6381003"><ele>124.83333333333333</ele><time>2026-04-07T10:34:36.346Z</time></trkpt><trkpt lat="40.5081996" lon="9.6379956"><ele>123.66666666666666</ele><time>2026-04-07T10:34:38.345Z</time></trkpt><trkpt lat="40.5082664" lon="9.6378604"><ele>122.5</ele><time>2026-04-07T10:34:40.346Z</time></trkpt><trkpt lat="40.5082956" lon="9.637779"><ele>121.33333333333333</ele><time>2026-04-07T10:34:41.346Z</time></trkpt><trkpt lat="40.5083216" lon="9.6376921"><ele>120.16666666666666</ele><time>2026-04-07T10:34:42.346Z</time></trkpt><trkpt lat="40.5083429" lon="9.6375987"><ele>119.0</ele><time>2026-04-07T10:34:43.345Z</time></trkpt><trkpt lat="40.5083617" lon="9.6375009"><ele>118.49999999999999</ele><time>2026-04-07T10:34:44.346Z</time></trkpt><trkpt lat="40.5083819" lon="9.6374029"><ele>118.0</ele><time>2026-04-07T10:34:45.346Z</time></trkpt><trkpt lat="40.508402" lon="9.6373016"><ele>117.5</ele><time>2026-04-07T10:34:46.346Z</time></trkpt><trkpt lat="40.5084239" lon="9.6371975"><ele>117.0</ele><time>2026-04-07T10:34:47.345Z</time></trkpt><trkpt lat="40.5084444" lon="9.6370946"><ele>116.49999999999999</ele><time>2026-04-07T10:34:48.346Z</time></trkpt><trkpt lat="40.5084646" lon="9.6370031"><ele>116.0</ele><time>2026-04-07T10:34:49.345Z</time></trkpt><trkpt lat="40.5084794" lon="9.6369185"><ele>115.0</ele><time>2026-04-07T10:34:50.346Z</time></trkpt><trkpt lat="40.5084976" lon="9.6367579"><ele>114.0</ele><time>2026-04-07T10:34:52.346Z</time></trkpt><trkpt lat="40.5084926" lon="9.636604"><ele>113.0</ele><time>2026-04-07T10:34:54.346Z</time></trkpt><trkpt lat="40.5084716" lon="9.636444"><ele>112.0</ele><time>2026-04-07T10:34:56.346Z</time></trkpt><trkpt lat="40.5084567" lon="9.636361"><ele>111.0</ele><time>2026-04-07T10:34:57.346Z</time></trkpt><trkpt lat="40.5084302" lon="9.6362813"><ele>111.0</ele><time>2026-04-07T10:34:58.346Z</time></trkpt><trkpt lat="40.5084031" lon="9.6362004"><ele>111.0</ele><time>2026-04-07T10:34:59.346Z</time></trkpt><trkpt lat="40.5083744" lon="9.6361185"><ele>111.0</ele><time>2026-04-07T10:35:00.346Z</time></trkpt><trkpt lat="40.5083427" lon="9.6360331"><ele>111.0</ele><time>2026-04-07T10:35:01.346Z</time></trkpt><trkpt lat="40.5083138" lon="9.6359433"><ele>111.0</ele><time>2026-04-07T10:35:02.345Z</time></trkpt><trkpt lat="40.5082843" lon="9.6358525"><ele>111.0</ele><time>2026-04-07T10:35:03.345Z</time></trkpt><trkpt lat="40.5082552" lon="9.6357579"><ele>111.0</ele><time>2026-04-07T10:35:04.346Z</time></trkpt><trkpt lat="40.5082228" lon="9.6356656"><ele>111.16666666666667</ele><time>2026-04-07T10:35:05.346Z</time></trkpt><trkpt lat="40.5081895" lon="9.6355711"><ele>111.33333333333334</ele><time>2026-04-07T10:35:06.346Z</time></trkpt><trkpt lat="40.5081601" lon="9.635485"><ele>111.5</ele><time>2026-04-07T10:35:07.346Z</time></trkpt><trkpt lat="40.5081107" lon="9.6353536"><ele>111.66666666666667</ele><time>2026-04-07T10:35:09.346Z</time></trkpt><trkpt lat="40.5080742" lon="9.6352555"><ele>111.83333333333334</ele><time>2026-04-07T10:35:11.346Z</time></trkpt><trkpt lat="40.5080196" lon="9.6351505"><ele>112.0</ele><time>2026-04-07T10:35:14.346Z</time></trkpt><trkpt lat="40.5079891" lon="9.6350425"><ele>112.75</ele><time>2026-04-07T10:35:16.346Z</time></trkpt><trkpt lat="40.5079402" lon="9.6349027"><ele>113.5</ele><time>2026-04-07T10:35:18.346Z</time></trkpt><trkpt lat="40.5078925" lon="9.6347666"><ele>114.25</ele><time>2026-04-07T10:35:20.346Z</time></trkpt><trkpt lat="40.5078528" lon="9.6346358"><ele>115.0</ele><time>2026-04-07T10:35:22.345Z</time></trkpt><trkpt lat="40.5077997" lon="9.6345019"><ele>115.50000000000001</ele><time>2026-04-07T10:35:24.346Z</time></trkpt><trkpt lat="40.5077506" lon="9.6343558"><ele>116.0</ele><time>2026-04-07T10:35:26.346Z</time></trkpt><trkpt lat="40.5077216" lon="9.6342807"><ele>116.5</ele><time>2026-04-07T10:35:27.346Z</time></trkpt><trkpt lat="40.5076945" lon="9.6341986"><ele>117.0</ele><time>2026-04-07T10:35:28.346Z</time></trkpt><trkpt lat="40.5076649" lon="9.6341116"><ele>117.50000000000001</ele><time>2026-04-07T10:35:29.345Z</time></trkpt><trkpt lat="40.5076398" lon="9.6340189"><ele>118.0</ele><time>2026-04-07T10:35:30.346Z</time></trkpt><trkpt lat="40.5076102" lon="9.6339224"><ele>118.00000000000001</ele><time>2026-04-07T10:35:31.346Z</time></trkpt><trkpt lat="40.5075791" lon="9.6338272"><ele>118.0</ele><time>2026-04-07T10:35:32.346Z</time></trkpt><trkpt lat="40.507554" lon="9.6337234"><ele>118.0</ele><time>2026-04-07T10:35:33.346Z</time></trkpt><trkpt lat="40.5075403" lon="9.633614"><ele>118.0</ele><time>2026-04-07T10:35:34.345Z</time></trkpt><trkpt lat="40.5075433" lon="9.6335017"><ele>118.00000000000001</ele><time>2026-04-07T10:35:35.345Z</time></trkpt><trkpt lat="40.5075636" lon="9.6333878"><ele>118.0</ele><time>2026-04-07T10:35:36.346Z</time></trkpt><trkpt lat="40.5076014" lon="9.6332774"><ele>117.0</ele><time>2026-04-07T10:35:37.346Z</time></trkpt><trkpt lat="40.5076522" lon="9.6331717"><ele>116.00000000000001</ele><time>2026-04-07T10:35:38.346Z</time></trkpt><trkpt lat="40.5077116" lon="9.6330622"><ele>115.00000000000001</ele><time>2026-04-07T10:35:39.345Z</time></trkpt><trkpt lat="40.507778" lon="9.6329547"><ele>114.0</ele><time>2026-04-07T10:35:40.346Z</time></trkpt><trkpt lat="40.5078488" lon="9.6328416"><ele>113.0</ele><time>2026-04-07T10:35:41.345Z</time></trkpt><trkpt lat="40.5079186" lon="9.6327295"><ele>111.4</ele><time>2026-04-07T10:35:42.346Z</time></trkpt><trkpt lat="40.507986" lon="9.6326152"><ele>109.80000000000001</ele><time>2026-04-07T10:35:43.346Z</time></trkpt><trkpt lat="40.5080506" lon="9.6325008"><ele>108.2</ele><time>2026-04-07T10:35:44.345Z</time></trkpt><trkpt lat="40.5081287" lon="9.6323964"><ele>106.6</ele><time>2026-04-07T10:35:45.346Z</time></trkpt><trkpt lat="40.5082077" lon="9.6322892"><ele>105.0</ele><time>2026-04-07T10:35:46.346Z</time></trkpt><trkpt lat="40.5082894" lon="9.6321811"><ele>105.0</ele><time>2026-04-07T10:35:47.345Z</time></trkpt><trkpt lat="40.5083731" lon="9.6320722"><ele>105.0</ele><time>2026-04-07T10:35:48.346Z</time></trkpt><trkpt lat="40.5084545" lon="9.6319733"><ele>105.0</ele><time>2026-04-07T10:35:49.346Z</time></trkpt><trkpt lat="40.5085285" lon="9.6318739"><ele>105.0</ele><time>2026-04-07T10:35:50.346Z</time></trkpt><trkpt lat="40.5086075" lon="9.6317739"><ele>105.0</ele><time>2026-04-07T10:35:51.346Z</time></trkpt><trkpt lat="40.5086877" lon="9.6316656"><ele>102.5</ele><time>2026-04-07T10:35:52.346Z</time></trkpt><trkpt lat="40.5087679" lon="9.6315509"><ele>100.0</ele><time>2026-04-07T10:35:53.346Z</time></trkpt><trkpt lat="40.5088497" lon="9.6314463"><ele>97.5</ele><time>2026-04-07T10:35:54.346Z</time></trkpt><trkpt lat="40.5089342" lon="9.6313446"><ele>95.0</ele><time>2026-04-07T10:35:55.346Z</time></trkpt><trkpt lat="40.5090181" lon="9.6312447"><ele>95.0</ele><time>2026-04-07T10:35:56.346Z</time></trkpt><trkpt lat="40.5091008" lon="9.6311491"><ele>95.0</ele><time>2026-04-07T10:35:57.346Z</time></trkpt><trkpt lat="40.5091837" lon="9.6310536"><ele>95.0</ele><time>2026-04-07T10:35:58.346Z</time></trkpt><trkpt lat="40.5092605" lon="9.6309557"><ele>95.0</ele><time>2026-04-07T10:35:59.346Z</time></trkpt><trkpt lat="40.5093335" lon="9.6308591"><ele>95.0</ele><time>2026-04-07T10:36:00.346Z</time></trkpt><trkpt lat="40.509406" lon="9.6307648"><ele>94.6</ele><time>2026-04-07T10:36:01.346Z</time></trkpt><trkpt lat="40.5094842" lon="9.6306671"><ele>94.2</ele><time>2026-04-07T10:36:02.346Z</time></trkpt><trkpt lat="40.5095634" lon="9.6305701"><ele>93.80000000000001</ele><time>2026-04-07T10:36:03.346Z</time></trkpt><trkpt lat="40.5096416" lon="9.6304757"><ele>93.4</ele><time>2026-04-07T10:36:04.345Z</time></trkpt><trkpt lat="40.509718" lon="9.6303838"><ele>93.0</ele><time>2026-04-07T10:36:05.345Z</time></trkpt><trkpt lat="40.5097945" lon="9.6302894"><ele>91.60000000000001</ele><time>2026-04-07T10:36:06.346Z</time></trkpt><trkpt lat="40.5098708" lon="9.630192"><ele>90.2</ele><time>2026-04-07T10:36:07.346Z</time></trkpt><trkpt lat="40.5099505" lon="9.630097"><ele>88.8</ele><time>2026-04-07T10:36:08.345Z</time></trkpt><trkpt lat="40.5100268" lon="9.6300047"><ele>87.4</ele><time>2026-04-07T10:36:09.346Z</time></trkpt><trkpt lat="40.5100975" lon="9.6299147"><ele>86.0</ele><time>2026-04-07T10:36:10.346Z</time></trkpt><trkpt lat="40.5101672" lon="9.629831"><ele>86.0</ele><time>2026-04-07T10:36:11.346Z</time></trkpt><trkpt lat="40.5102241" lon="9.6297601"><ele>86.0</ele><time>2026-04-07T10:36:12.345Z</time></trkpt><trkpt lat="40.5102984" lon="9.6296692"><ele>86.0</ele><time>2026-04-07T10:36:14.345Z</time></trkpt><trkpt lat="40.5103923" lon="9.6296071"><ele>86.0</ele><time>2026-04-07T10:36:17.345Z</time></trkpt><trkpt lat="40.5105239" lon="9.6296353"><ele>86.0</ele><time>2026-04-07T10:36:19.346Z</time></trkpt><trkpt lat="40.510615" lon="9.6296655"><ele>86.0</ele><time>2026-04-07T10:36:20.346Z</time></trkpt><trkpt lat="40.5107221" lon="9.629697"><ele>86.0</ele><time>2026-04-07T10:36:21.345Z</time></trkpt><trkpt lat="40.5108426" lon="9.6297364"><ele>86.0</ele><time>2026-04-07T10:36:22.346Z</time></trkpt><trkpt lat="40.5109675" lon="9.629791"><ele>86.0</ele><time>2026-04-07T10:36:23.346Z</time></trkpt><trkpt lat="40.511099" lon="9.6298558"><ele>86.0</ele><time>2026-04-07T10:36:24.345Z</time></trkpt><trkpt lat="40.5112363" lon="9.6299329"><ele>86.0</ele><time>2026-04-07T10:36:25.345Z</time></trkpt><trkpt lat="40.5113816" lon="9.6300193"><ele>86.0</ele><time>2026-04-07T10:36:26.345Z</time></trkpt><trkpt lat="40.5115301" lon="9.6301081"><ele>86.33333333333334</ele><time>2026-04-07T10:36:27.346Z</time></trkpt><trkpt lat="40.5116834" lon="9.6301985"><ele>86.66666666666667</ele><time>2026-04-07T10:36:28.346Z</time></trkpt><trkpt lat="40.5118414" lon="9.6302919"><ele>87.0</ele><time>2026-04-07T10:36:29.346Z</time></trkpt><trkpt lat="40.5120053" lon="9.6303831"><ele>86.33333333333333</ele><time>2026-04-07T10:36:30.346Z</time></trkpt><trkpt lat="40.5121736" lon="9.6304671"><ele>85.66666666666666</ele><time>2026-04-07T10:36:31.346Z</time></trkpt><trkpt lat="40.5123497" lon="9.6305366"><ele>85.0</ele><time>2026-04-07T10:36:32.345Z</time></trkpt><trkpt lat="40.5125318" lon="9.6305945"><ele>85.0</ele><time>2026-04-07T10:36:33.346Z</time></trkpt><trkpt lat="40.5127203" lon="9.6306351"><ele>85.0</ele><time>2026-04-07T10:36:34.345Z</time></trkpt><trkpt lat="40.5129139" lon="9.6306629"><ele>85.0</ele><time>2026-04-07T10:36:35.346Z</time></trkpt><trkpt lat="40.5131148" lon="9.6306851"><ele>84.33333333333333</ele><time>2026-04-07T10:36:36.345Z</time></trkpt><trkpt lat="40.5133045" lon="9.6307012"><ele>83.66666666666667</ele><time>2026-04-07T10:36:37.345Z</time></trkpt><trkpt lat="40.5134859" lon="9.6307144"><ele>83.0</ele><time>2026-04-07T10:36:38.346Z</time></trkpt><trkpt lat="40.5136558" lon="9.6307274"><ele>82.33333333333334</ele><time>2026-04-07T10:36:39.346Z</time></trkpt><trkpt lat="40.5138168" lon="9.6307432"><ele>81.66666666666667</ele><time>2026-04-07T10:36:40.346Z</time></trkpt><trkpt lat="40.513968" lon="9.6307561"><ele>81.0</ele><time>2026-04-07T10:36:41.346Z</time></trkpt><trkpt lat="40.514112" lon="9.6307662"><ele>81.0</ele><time>2026-04-07T10:36:42.345Z</time></trkpt><trkpt lat="40.5142466" lon="9.6307838"><ele>81.0</ele><time>2026-04-07T10:36:43.345Z</time></trkpt><trkpt lat="40.5143709" lon="9.6307942"><ele>81.0</ele><time>2026-04-07T10:36:44.346Z</time></trkpt><trkpt lat="40.5144925" lon="9.6308058"><ele>81.0</ele><time>2026-04-07T10:36:45.346Z</time></trkpt><trkpt lat="40.5146017" lon="9.6308176"><ele>81.25</ele><time>2026-04-07T10:36:46.345Z</time></trkpt><trkpt lat="40.5147079" lon="9.6308332"><ele>81.5</ele><time>2026-04-07T10:36:47.346Z</time></trkpt><trkpt lat="40.5148237" lon="9.6308438"><ele>81.75</ele><time>2026-04-07T10:36:48.346Z</time></trkpt><trkpt lat="40.5149428" lon="9.6308526"><ele>82.0</ele><time>2026-04-07T10:36:49.345Z</time></trkpt><trkpt lat="40.515071" lon="9.6308626"><ele>82.0</ele><time>2026-04-07T10:36:50.346Z</time></trkpt><trkpt lat="40.5152033" lon="9.630874"><ele>82.0</ele><time>2026-04-07T10:36:51.345Z</time></trkpt><trkpt lat="40.5153459" lon="9.6308875"><ele>82.0</ele><time>2026-04-07T10:36:52.346Z</time></trkpt><trkpt lat="40.51549" lon="9.6309004"><ele>82.0</ele><time>2026-04-07T10:36:53.346Z</time></trkpt><trkpt lat="40.5156441" lon="9.6309164"><ele>81.66666666666666</ele><time>2026-04-07T10:36:54.346Z</time></trkpt><trkpt lat="40.5158047" lon="9.6309214"><ele>81.33333333333333</ele><time>2026-04-07T10:36:55.346Z</time></trkpt><trkpt lat="40.5159713" lon="9.630912"><ele>81.0</ele><time>2026-04-07T10:36:56.346Z</time></trkpt><trkpt lat="40.5161438" lon="9.6308948"><ele>80.0</ele><time>2026-04-07T10:36:57.346Z</time></trkpt><trkpt lat="40.5163266" lon="9.6308728"><ele>79.0</ele><time>2026-04-07T10:36:58.345Z</time></trkpt><trkpt lat="40.5165155" lon="9.6308505"><ele>78.0</ele><time>2026-04-07T10:36:59.345Z</time></trkpt><trkpt lat="40.5167064" lon="9.6308335"><ele>78.0</ele><time>2026-04-07T10:37:00.346Z</time></trkpt><trkpt lat="40.5168962" lon="9.6308116"><ele>78.0</ele><time>2026-04-07T10:37:01.346Z</time></trkpt><trkpt lat="40.5170929" lon="9.6307861"><ele>78.0</ele><time>2026-04-07T10:37:02.346Z</time></trkpt><trkpt lat="40.5172964" lon="9.6307625"><ele>77.33333333333333</ele><time>2026-04-07T10:37:03.346Z</time></trkpt><trkpt lat="40.5175049" lon="9.6307418"><ele>76.66666666666666</ele><time>2026-04-07T10:37:04.346Z</time></trkpt><trkpt lat="40.5177065" lon="9.6307146"><ele>76.0</ele><time>2026-04-07T10:37:05.346Z</time></trkpt><trkpt lat="40.5178969" lon="9.6306901"><ele>75.33333333333333</ele><time>2026-04-07T10:37:06.346Z</time></trkpt><trkpt lat="40.5180803" lon="9.6306634"><ele>74.66666666666667</ele><time>2026-04-07T10:37:07.346Z</time></trkpt><trkpt lat="40.5182628" lon="9.630647"><ele>74.0</ele><time>2026-04-07T10:37:08.345Z</time></trkpt><trkpt lat="40.5184389" lon="9.6306318"><ele>74.0</ele><time>2026-04-07T10:37:09.346Z</time></trkpt><trkpt lat="40.5186133" lon="9.6306074"><ele>74.0</ele><time>2026-04-07T10:37:10.346Z</time></trkpt><trkpt lat="40.5187854" lon="9.6305811"><ele>74.0</ele><time>2026-04-07T10:37:11.346Z</time></trkpt><trkpt lat="40.5189543" lon="9.6305618"><ele>73.33333333333334</ele><time>2026-04-07T10:37:12.346Z</time></trkpt><trkpt lat="40.5191174" lon="9.6305443"><ele>72.66666666666667</ele><time>2026-04-07T10:37:13.346Z</time></trkpt><trkpt lat="40.5192658" lon="9.6305462"><ele>72.0</ele><time>2026-04-07T10:37:14.346Z</time></trkpt><trkpt lat="40.5194078" lon="9.6305797"><ele>72.0</ele><time>2026-04-07T10:37:15.346Z</time></trkpt><trkpt lat="40.5195472" lon="9.6306478"><ele>72.0</ele><time>2026-04-07T10:37:16.346Z</time></trkpt><trkpt lat="40.5196914" lon="9.6307302"><ele>72.0</ele><time>2026-04-07T10:37:17.345Z</time></trkpt><trkpt lat="40.5198424" lon="9.6308196"><ele>73.0</ele><time>2026-04-07T10:37:18.346Z</time></trkpt><trkpt lat="40.5199918" lon="9.6309044"><ele>74.0</ele><time>2026-04-07T10:37:19.346Z</time></trkpt><trkpt lat="40.5201565" lon="9.6309931"><ele>75.0</ele><time>2026-04-07T10:37:20.346Z</time></trkpt><trkpt lat="40.5203219" lon="9.6310843"><ele>73.66666666666667</ele><time>2026-04-07T10:37:21.346Z</time></trkpt><trkpt lat="40.5204947" lon="9.6311789"><ele>72.33333333333334</ele><time>2026-04-07T10:37:22.346Z</time></trkpt><trkpt lat="40.5206751" lon="9.631284"><ele>71.0</ele><time>2026-04-07T10:37:23.346Z</time></trkpt><trkpt lat="40.5208585" lon="9.6313964"><ele>71.0</ele><time>2026-04-07T10:37:24.346Z</time></trkpt><trkpt lat="40.5210337" lon="9.6315062"><ele>71.0</ele><time>2026-04-07T10:37:25.346Z</time></trkpt><trkpt lat="40.5212021" lon="9.6316171"><ele>71.0</ele><time>2026-04-07T10:37:26.346Z</time></trkpt><trkpt lat="40.5213765" lon="9.6317447"><ele>69.66666666666667</ele><time>2026-04-07T10:37:27.346Z</time></trkpt><trkpt lat="40.5215498" lon="9.6318783"><ele>68.33333333333333</ele><time>2026-04-07T10:37:28.346Z</time></trkpt><trkpt lat="40.5217182" lon="9.6320334"><ele>67.0</ele><time>2026-04-07T10:37:29.346Z</time></trkpt><trkpt lat="40.5218866" lon="9.6321982"><ele>67.0</ele><time>2026-04-07T10:37:30.345Z</time></trkpt><trkpt lat="40.522058" lon="9.6323642"><ele>67.0</ele><time>2026-04-07T10:37:31.345Z</time></trkpt><trkpt lat="40.5222279" lon="9.6325336"><ele>67.0</ele><time>2026-04-07T10:37:32.346Z</time></trkpt><trkpt lat="40.522401" lon="9.6327085"><ele>68.0</ele><time>2026-04-07T10:37:33.345Z</time></trkpt><trkpt lat="40.5225793" lon="9.6328849"><ele>69.0</ele><time>2026-04-07T10:37:34.346Z</time></trkpt><trkpt lat="40.5227615" lon="9.6330673"><ele>69.5</ele><time>2026-04-07T10:37:35.345Z</time></trkpt><trkpt lat="40.5229496" lon="9.6332516"><ele>70.0</ele><time>2026-04-07T10:37:36.346Z</time></trkpt><trkpt lat="40.5231363" lon="9.633446"><ele>68.5</ele><time>2026-04-07T10:37:37.346Z</time></trkpt><trkpt lat="40.5233307" lon="9.6336426"><ele>67.0</ele><time>2026-04-07T10:37:38.346Z</time></trkpt><trkpt lat="40.5235346" lon="9.633848"><ele>68.5</ele><time>2026-04-07T10:37:39.345Z</time></trkpt><trkpt lat="40.5237591" lon="9.6340714"><ele>70.0</ele><time>2026-04-07T10:37:40.346Z</time></trkpt><trkpt lat="40.5239965" lon="9.6343138"><ele>68.0</ele><time>2026-04-07T10:37:41.346Z</time></trkpt><trkpt lat="40.5242445" lon="9.6345676"><ele>66.0</ele><time>2026-04-07T10:37:42.345Z</time></trkpt><trkpt lat="40.5245062" lon="9.6348277"><ele>66.0</ele><time>2026-04-07T10:37:43.346Z</time></trkpt><trkpt lat="40.5247676" lon="9.6350896"><ele>66.0</ele><time>2026-04-07T10:37:44.346Z</time></trkpt><trkpt lat="40.5250128" lon="9.6353321"><ele>66.0</ele><time>2026-04-07T10:37:45.346Z</time></trkpt><trkpt lat="40.5252459" lon="9.6355605"><ele>66.0</ele><time>2026-04-07T10:37:46.345Z</time></trkpt><trkpt lat="40.5254645" lon="9.6357776"><ele>65.5</ele><time>2026-04-07T10:37:47.346Z</time></trkpt><trkpt lat="40.5256604" lon="9.6359764"><ele>65.0</ele><time>2026-04-07T10:37:48.346Z</time></trkpt><trkpt lat="40.5258417" lon="9.636152"><ele>65.0</ele><time>2026-04-07T10:37:49.346Z</time></trkpt><trkpt lat="40.5260037" lon="9.6363145"><ele>65.0</ele><time>2026-04-07T10:37:50.346Z</time></trkpt><trkpt lat="40.5261431" lon="9.6364638"><ele>65.0</ele><time>2026-04-07T10:37:51.346Z</time></trkpt><trkpt lat="40.5262758" lon="9.6365987"><ele>63.66666666666667</ele><time>2026-04-07T10:37:52.346Z</time></trkpt><trkpt lat="40.5264038" lon="9.6367247"><ele>62.33333333333333</ele><time>2026-04-07T10:37:53.346Z</time></trkpt><trkpt lat="40.5265245" lon="9.6368429"><ele>61.0</ele><time>2026-04-07T10:37:54.346Z</time></trkpt><trkpt lat="40.5266455" lon="9.6369626"><ele>61.0</ele><time>2026-04-07T10:37:55.346Z</time></trkpt><trkpt lat="40.5267592" lon="9.6370837"><ele>61.0</ele><time>2026-04-07T10:37:56.346Z</time></trkpt><trkpt lat="40.5268736" lon="9.6372014"><ele>61.0</ele><time>2026-04-07T10:37:57.346Z</time></trkpt><trkpt lat="40.5269851" lon="9.637315"><ele>61.0</ele><time>2026-04-07T10:37:58.346Z</time></trkpt><trkpt lat="40.5270973" lon="9.637432"><ele>60.33333333333333</ele><time>2026-04-07T10:37:59.346Z</time></trkpt><trkpt lat="40.527213" lon="9.6375507"><ele>59.66666666666667</ele><time>2026-04-07T10:38:00.346Z</time></trkpt><trkpt lat="40.5273359" lon="9.6376683"><ele>59.0</ele><time>2026-04-07T10:38:01.346Z</time></trkpt><trkpt lat="40.5274644" lon="9.63779"><ele>59.0</ele><time>2026-04-07T10:38:02.346Z</time></trkpt><trkpt lat="40.5275938" lon="9.6379223"><ele>59.0</ele><time>2026-04-07T10:38:03.346Z</time></trkpt><trkpt lat="40.5277247" lon="9.6380532"><ele>59.0</ele><time>2026-04-07T10:38:04.346Z</time></trkpt><trkpt lat="40.5278545" lon="9.6381847"><ele>58.333333333333336</ele><time>2026-04-07T10:38:05.346Z</time></trkpt><trkpt lat="40.5279854" lon="9.6383163"><ele>57.66666666666667</ele><time>2026-04-07T10:38:06.345Z</time></trkpt><trkpt lat="40.5281163" lon="9.6384494"><ele>57.0</ele><time>2026-04-07T10:38:07.346Z</time></trkpt><trkpt lat="40.5282444" lon="9.6385833"><ele>57.33333333333333</ele><time>2026-04-07T10:38:08.346Z</time></trkpt><trkpt lat="40.5283723" lon="9.6387113"><ele>57.666666666666664</ele><time>2026-04-07T10:38:09.346Z</time></trkpt><trkpt lat="40.5285056" lon="9.6388456"><ele>58.0</ele><time>2026-04-07T10:38:10.346Z</time></trkpt><trkpt lat="40.5286405" lon="9.6389801"><ele>58.0</ele><time>2026-04-07T10:38:11.345Z</time></trkpt><trkpt lat="40.5287798" lon="9.6391208"><ele>58.0</ele><time>2026-04-07T10:38:12.346Z</time></trkpt><trkpt lat="40.5289195" lon="9.6392591"><ele>58.0</ele><time>2026-04-07T10:38:13.346Z</time></trkpt><trkpt lat="40.5290556" lon="9.6394018"><ele>57.0</ele><time>2026-04-07T10:38:14.345Z</time></trkpt><trkpt lat="40.5291819" lon="9.6395657"><ele>56.0</ele><time>2026-04-07T10:38:15.346Z</time></trkpt><trkpt lat="40.5292945" lon="9.6397499"><ele>55.0</ele><time>2026-04-07T10:38:16.346Z</time></trkpt><trkpt lat="40.5294061" lon="9.6399377"><ele>55.0</ele><time>2026-04-07T10:38:17.346Z</time></trkpt><trkpt lat="40.5295178" lon="9.6401293"><ele>55.0</ele><time>2026-04-07T10:38:18.346Z</time></trkpt><trkpt lat="40.5296312" lon="9.6403259"><ele>55.0</ele><time>2026-04-07T10:38:19.346Z</time></trkpt><trkpt lat="40.5297404" lon="9.6405186"><ele>57.666666666666664</ele><time>2026-04-07T10:38:20.346Z</time></trkpt><trkpt lat="40.5298458" lon="9.6407111"><ele>60.33333333333333</ele><time>2026-04-07T10:38:21.346Z</time></trkpt><trkpt lat="40.529959" lon="9.6409001"><ele>63.0</ele><time>2026-04-07T10:38:22.346Z</time></trkpt><trkpt lat="40.5300743" lon="9.6410965"><ele>63.33333333333333</ele><time>2026-04-07T10:38:23.346Z</time></trkpt><trkpt lat="40.5301842" lon="9.6412938"><ele>63.666666666666664</ele><time>2026-04-07T10:38:24.346Z</time></trkpt><trkpt lat="40.5302961" lon="9.6414925"><ele>64.0</ele><time>2026-04-07T10:38:25.346Z</time></trkpt><trkpt lat="40.5304086" lon="9.6416897"><ele>64.0</ele><time>2026-04-07T10:38:26.346Z</time></trkpt><trkpt lat="40.5305227" lon="9.6418869"><ele>64.0</ele><time>2026-04-07T10:38:27.346Z</time></trkpt><trkpt lat="40.5306378" lon="9.6420873"><ele>64.0</ele><time>2026-04-07T10:38:28.346Z</time></trkpt><trkpt lat="40.530756" lon="9.6422929"><ele>63.33333333333333</ele><time>2026-04-07T10:38:29.345Z</time></trkpt><trkpt lat="40.5308727" lon="9.642501"><ele>62.66666666666667</ele><time>2026-04-07T10:38:30.345Z</time></trkpt><trkpt lat="40.530991" lon="9.642713"><ele>62.0</ele><time>2026-04-07T10:38:31.346Z</time></trkpt><trkpt lat="40.5311107" lon="9.6429251"><ele>62.0</ele><time>2026-04-07T10:38:32.345Z</time></trkpt><trkpt lat="40.5312346" lon="9.6431375"><ele>62.0</ele><time>2026-04-07T10:38:33.345Z</time></trkpt><trkpt lat="40.5313548" lon="9.6433454"><ele>62.0</ele><time>2026-04-07T10:38:34.345Z</time></trkpt><trkpt lat="40.5314714" lon="9.6435584"><ele>61.0</ele><time>2026-04-07T10:38:35.346Z</time></trkpt><trkpt lat="40.5315919" lon="9.6437697"><ele>60.0</ele><time>2026-04-07T10:38:36.346Z</time></trkpt><trkpt lat="40.5317118" lon="9.643977"><ele>59.0</ele><time>2026-04-07T10:38:37.345Z</time></trkpt><trkpt lat="40.5318294" lon="9.6441794"><ele>59.0</ele><time>2026-04-07T10:38:38.346Z</time></trkpt><trkpt lat="40.5319482" lon="9.6443784"><ele>59.0</ele><time>2026-04-07T10:38:39.346Z</time></trkpt><trkpt lat="40.5320637" lon="9.6445867"><ele>59.0</ele><time>2026-04-07T10:38:40.346Z</time></trkpt><trkpt lat="40.5321802" lon="9.6447983"><ele>59.333333333333336</ele><time>2026-04-07T10:38:41.345Z</time></trkpt><trkpt lat="40.5322997" lon="9.6450123"><ele>59.66666666666667</ele><time>2026-04-07T10:38:42.346Z</time></trkpt><trkpt lat="40.532422" lon="9.6452268"><ele>60.0</ele><time>2026-04-07T10:38:43.346Z</time></trkpt><trkpt lat="40.5325435" lon="9.6454429"><ele>59.0</ele><time>2026-04-07T10:38:44.345Z</time></trkpt><trkpt lat="40.5326639" lon="9.6456575"><ele>58.0</ele><time>2026-04-07T10:38:45.346Z</time></trkpt><trkpt lat="40.5327849" lon="9.6458735"><ele>57.0</ele><time>2026-04-07T10:38:46.346Z</time></trkpt><trkpt lat="40.5329025" lon="9.6460875"><ele>58.66666666666667</ele><time>2026-04-07T10:38:47.345Z</time></trkpt><trkpt lat="40.5330223" lon="9.6462951"><ele>60.333333333333336</ele><time>2026-04-07T10:38:48.346Z</time></trkpt><trkpt lat="40.5331415" lon="9.6465001"><ele>62.0</ele><time>2026-04-07T10:38:49.345Z</time></trkpt><trkpt lat="40.5332585" lon="9.6467012"><ele>62.0</ele><time>2026-04-07T10:38:50.346Z</time></trkpt><trkpt lat="40.5333723" lon="9.6468936"><ele>62.0</ele><time>2026-04-07T10:38:51.346Z</time></trkpt><trkpt lat="40.5334842" lon="9.6470923"><ele>62.0</ele><time>2026-04-07T10:38:52.346Z</time></trkpt><trkpt lat="40.5335942" lon="9.6472866"><ele>63.0</ele><time>2026-04-07T10:38:53.345Z</time></trkpt><trkpt lat="40.5337085" lon="9.6474707"><ele>64.0</ele><time>2026-04-07T10:38:54.346Z</time></trkpt><trkpt lat="40.5338118" lon="9.6476605"><ele>65.0</ele><time>2026-04-07T10:38:55.346Z</time></trkpt><trkpt lat="40.5339209" lon="9.6478503"><ele>63.0</ele><time>2026-04-07T10:38:56.345Z</time></trkpt><trkpt lat="40.5340262" lon="9.6480416"><ele>61.0</ele><time>2026-04-07T10:38:57.346Z</time></trkpt><trkpt lat="40.534133" lon="9.648236"><ele>59.0</ele><time>2026-04-07T10:38:58.346Z</time></trkpt><trkpt lat="40.5342419" lon="9.6484269"><ele>59.0</ele><time>2026-04-07T10:38:59.346Z</time></trkpt><trkpt lat="40.534353" lon="9.6486257"><ele>59.0</ele><time>2026-04-07T10:39:00.346Z</time></trkpt><trkpt lat="40.5344679" lon="9.6488183"><ele>59.0</ele><time>2026-04-07T10:39:01.345Z</time></trkpt><trkpt lat="40.5345821" lon="9.6490188"><ele>59.333333333333336</ele><time>2026-04-07T10:39:02.345Z</time></trkpt><trkpt lat="40.5346963" lon="9.6492216"><ele>59.66666666666667</ele><time>2026-04-07T10:39:03.346Z</time></trkpt><trkpt lat="40.5348106" lon="9.6494272"><ele>60.0</ele><time>2026-04-07T10:39:04.346Z</time></trkpt><trkpt lat="40.5349294" lon="9.6496355"><ele>60.0</ele><time>2026-04-07T10:39:05.346Z</time></trkpt><trkpt lat="40.5350465" lon="9.6498458"><ele>60.0</ele><time>2026-04-07T10:39:06.345Z</time></trkpt><trkpt lat="40.5351676" lon="9.6500496"><ele>60.0</ele><time>2026-04-07T10:39:07.346Z</time></trkpt><trkpt lat="40.5352817" lon="9.6502528"><ele>61.0</ele><time>2026-04-07T10:39:08.345Z</time></trkpt><trkpt lat="40.5353931" lon="9.6504485"><ele>62.0</ele><time>2026-04-07T10:39:09.345Z</time></trkpt><trkpt lat="40.5355029" lon="9.6506375"><ele>63.0</ele><time>2026-04-07T10:39:10.346Z</time></trkpt><trkpt lat="40.535609" lon="9.6508246"><ele>63.0</ele><time>2026-04-07T10:39:11.346Z</time></trkpt><trkpt lat="40.5357199" lon="9.6510209"><ele>63.0</ele><time>2026-04-07T10:39:12.345Z</time></trkpt><trkpt lat="40.5358367" lon="9.6512181"><ele>63.0</ele><time>2026-04-07T10:39:13.346Z</time></trkpt><trkpt lat="40.5359615" lon="9.6514218"><ele>63.66666666666667</ele><time>2026-04-07T10:39:14.346Z</time></trkpt><trkpt lat="40.5360888" lon="9.6516375"><ele>64.33333333333334</ele><time>2026-04-07T10:39:15.346Z</time></trkpt><trkpt lat="40.5362204" lon="9.6518552"><ele>65.0</ele><time>2026-04-07T10:39:16.346Z</time></trkpt><trkpt lat="40.5363539" lon="9.6520837"><ele>63.0</ele><time>2026-04-07T10:39:17.346Z</time></trkpt><trkpt lat="40.5364875" lon="9.6523168"><ele>61.0</ele><time>2026-04-07T10:39:18.345Z</time></trkpt><trkpt lat="40.5366193" lon="9.6525547"><ele>59.0</ele><time>2026-04-07T10:39:19.345Z</time></trkpt><trkpt lat="40.536753" lon="9.652796"><ele>57.0</ele><time>2026-04-07T10:39:20.346Z</time></trkpt><trkpt lat="40.5368856" lon="9.6530424"><ele>55.0</ele><time>2026-04-07T10:39:21.346Z</time></trkpt><trkpt lat="40.5370198" lon="9.6532847"><ele>56.0</ele><time>2026-04-07T10:39:22.346Z</time></trkpt><trkpt lat="40.5371528" lon="9.6535338"><ele>57.0</ele><time>2026-04-07T10:39:23.346Z</time></trkpt><trkpt lat="40.5372899" lon="9.6537839"><ele>57.0</ele><time>2026-04-07T10:39:24.346Z</time></trkpt><trkpt lat="40.5374333" lon="9.6540352"><ele>57.0</ele><time>2026-04-07T10:39:25.345Z</time></trkpt><trkpt lat="40.5375767" lon="9.6542859"><ele>54.5</ele><time>2026-04-07T10:39:26.345Z</time></trkpt><trkpt lat="40.5377226" lon="9.6545402"><ele>52.0</ele><time>2026-04-07T10:39:27.346Z</time></trkpt><trkpt lat="40.537862" lon="9.6547963"><ele>54.5</ele><time>2026-04-07T10:39:28.346Z</time></trkpt><trkpt lat="40.5380065" lon="9.6550524"><ele>57.0</ele><time>2026-04-07T10:39:29.346Z</time></trkpt><trkpt lat="40.53815" lon="9.6553085"><ele>57.0</ele><time>2026-04-07T10:39:30.346Z</time></trkpt><trkpt lat="40.5382971" lon="9.6555613"><ele>57.0</ele><time>2026-04-07T10:39:31.345Z</time></trkpt><trkpt lat="40.5384415" lon="9.6558153"><ele>57.0</ele><time>2026-04-07T10:39:32.346Z</time></trkpt><trkpt lat="40.5385851" lon="9.6560648"><ele>57.0</ele><time>2026-04-07T10:39:33.346Z</time></trkpt><trkpt lat="40.5387276" lon="9.6563193"><ele>57.5</ele><time>2026-04-07T10:39:34.346Z</time></trkpt><trkpt lat="40.5388698" lon="9.6565709"><ele>58.0</ele><time>2026-04-07T10:39:35.346Z</time></trkpt><trkpt lat="40.5390099" lon="9.65682"><ele>56.5</ele><time>2026-04-07T10:39:36.346Z</time></trkpt><trkpt lat="40.5391503" lon="9.6570694"><ele>55.0</ele><time>2026-04-07T10:39:37.345Z</time></trkpt><trkpt lat="40.5392896" lon="9.6573083"><ele>55.0</ele><time>2026-04-07T10:39:38.346Z</time></trkpt><trkpt lat="40.5394241" lon="9.6575443"><ele>55.0</ele><time>2026-04-07T10:39:39.345Z</time></trkpt><trkpt lat="40.5395557" lon="9.6577774"><ele>55.0</ele><time>2026-04-07T10:39:40.346Z</time></trkpt><trkpt lat="40.5396873" lon="9.658009"><ele>55.666666666666664</ele><time>2026-04-07T10:39:41.346Z</time></trkpt><trkpt lat="40.5398221" lon="9.6582393"><ele>56.33333333333333</ele><time>2026-04-07T10:39:42.345Z</time></trkpt><trkpt lat="40.5399549" lon="9.6584715"><ele>57.0</ele><time>2026-04-07T10:39:43.345Z</time></trkpt><trkpt lat="40.5400907" lon="9.6587061"><ele>57.0</ele><time>2026-04-07T10:39:44.346Z</time></trkpt><trkpt lat="40.5402283" lon="9.6589433"><ele>57.0</ele><time>2026-04-07T10:39:45.345Z</time></trkpt><trkpt lat="40.5403663" lon="9.6591892"><ele>59.5</ele><time>2026-04-07T10:39:46.346Z</time></trkpt><trkpt lat="40.5405032" lon="9.6594338"><ele>62.0</ele><time>2026-04-07T10:39:47.346Z</time></trkpt><trkpt lat="40.5406423" lon="9.6596706"><ele>62.0</ele><time>2026-04-07T10:39:48.345Z</time></trkpt><trkpt lat="40.5407756" lon="9.6599045"><ele>62.0</ele><time>2026-04-07T10:39:49.346Z</time></trkpt><trkpt lat="40.5409102" lon="9.6601293"><ele>62.0</ele><time>2026-04-07T10:39:50.345Z</time></trkpt><trkpt lat="40.5410416" lon="9.6603593"><ele>62.66666666666667</ele><time>2026-04-07T10:39:51.346Z</time></trkpt><trkpt lat="40.5411689" lon="9.660577"><ele>63.33333333333333</ele><time>2026-04-07T10:39:52.346Z</time></trkpt><trkpt lat="40.5412895" lon="9.6607866"><ele>64.0</ele><time>2026-04-07T10:39:53.346Z</time></trkpt><trkpt lat="40.5414061" lon="9.6609868"><ele>62.0</ele><time>2026-04-07T10:39:54.346Z</time></trkpt><trkpt lat="40.5415176" lon="9.6611795"><ele>60.0</ele><time>2026-04-07T10:39:55.346Z</time></trkpt><trkpt lat="40.5416264" lon="9.6613682"><ele>58.0</ele><time>2026-04-07T10:39:56.345Z</time></trkpt><trkpt lat="40.541735" lon="9.6615587"><ele>58.0</ele><time>2026-04-07T10:39:57.345Z</time></trkpt><trkpt lat="40.5418453" lon="9.661753"><ele>58.0</ele><time>2026-04-07T10:39:58.346Z</time></trkpt><trkpt lat="40.541953" lon="9.6619494"><ele>58.0</ele><time>2026-04-07T10:39:59.346Z</time></trkpt><trkpt lat="40.5420652" lon="9.6621402"><ele>58.33333333333333</ele><time>2026-04-07T10:40:00.346Z</time></trkpt><trkpt lat="40.5421757" lon="9.6623308"><ele>58.66666666666667</ele><time>2026-04-07T10:40:01.346Z</time></trkpt><trkpt lat="40.5422859" lon="9.66252"><ele>59.0</ele><time>2026-04-07T10:40:02.346Z</time></trkpt><trkpt lat="40.5423924" lon="9.6627115"><ele>58.333333333333336</ele><time>2026-04-07T10:40:03.346Z</time></trkpt><trkpt lat="40.5425028" lon="9.6628966"><ele>57.66666666666667</ele><time>2026-04-07T10:40:04.346Z</time></trkpt><trkpt lat="40.542609" lon="9.6630796"><ele>57.0</ele><time>2026-04-07T10:40:05.345Z</time></trkpt><trkpt lat="40.5427096" lon="9.6632609"><ele>57.0</ele><time>2026-04-07T10:40:06.346Z</time></trkpt><trkpt lat="40.5428088" lon="9.6634434"><ele>57.0</ele><time>2026-04-07T10:40:07.345Z</time></trkpt><trkpt lat="40.5429052" lon="9.6636212"><ele>57.0</ele><time>2026-04-07T10:40:08.346Z</time></trkpt><trkpt lat="40.5429981" lon="9.6637861"><ele>56.0</ele><time>2026-04-07T10:40:09.346Z</time></trkpt><trkpt lat="40.5430903" lon="9.6639469"><ele>55.0</ele><time>2026-04-07T10:40:10.346Z</time></trkpt><trkpt lat="40.5431886" lon="9.6641184"><ele>54.0</ele><time>2026-04-07T10:40:11.345Z</time></trkpt><trkpt lat="40.5432937" lon="9.6642917"><ele>53.33333333333333</ele><time>2026-04-07T10:40:12.345Z</time></trkpt><trkpt lat="40.5434055" lon="9.6644732"><ele>52.666666666666664</ele><time>2026-04-07T10:40:13.346Z</time></trkpt><trkpt lat="40.5435267" lon="9.6646556"><ele>52.0</ele><time>2026-04-07T10:40:14.345Z</time></trkpt><trkpt lat="40.5436511" lon="9.6648479"><ele>52.33333333333333</ele><time>2026-04-07T10:40:15.346Z</time></trkpt><trkpt lat="40.5437826" lon="9.6650378"><ele>52.66666666666667</ele><time>2026-04-07T10:40:16.345Z</time></trkpt><trkpt lat="40.543921" lon="9.6652319"><ele>53.0</ele><time>2026-04-07T10:40:17.346Z</time></trkpt><trkpt lat="40.5440613" lon="9.6654288"><ele>51.0</ele><time>2026-04-07T10:40:18.346Z</time></trkpt><trkpt lat="40.5442012" lon="9.6656326"><ele>49.0</ele><time>2026-04-07T10:40:19.346Z</time></trkpt><trkpt lat="40.5443377" lon="9.6658342"><ele>47.0</ele><time>2026-04-07T10:40:20.346Z</time></trkpt><trkpt lat="40.5444759" lon="9.6660391"><ele>46.33333333333333</ele><time>2026-04-07T10:40:21.346Z</time></trkpt><trkpt lat="40.5446225" lon="9.6662439"><ele>45.666666666666664</ele><time>2026-04-07T10:40:22.346Z</time></trkpt><trkpt lat="40.5447679" lon="9.666449"><ele>45.0</ele><time>2026-04-07T10:40:23.345Z</time></trkpt><trkpt lat="40.5449122" lon="9.6666601"><ele>45.0</ele><time>2026-04-07T10:40:24.346Z</time></trkpt><trkpt lat="40.5450617" lon="9.6668746"><ele>45.0</ele><time>2026-04-07T10:40:25.346Z</time></trkpt><trkpt lat="40.5452099" lon="9.667091"><ele>45.0</ele><time>2026-04-07T10:40:26.346Z</time></trkpt><trkpt lat="40.5453663" lon="9.6673052"><ele>43.5</ele><time>2026-04-07T10:40:27.346Z</time></trkpt><trkpt lat="40.5455189" lon="9.6675192"><ele>42.0</ele><time>2026-04-07T10:40:28.345Z</time></trkpt><trkpt lat="40.5456738" lon="9.6677407"><ele>42.0</ele><time>2026-04-07T10:40:29.345Z</time></trkpt><trkpt lat="40.545828" lon="9.6679587"><ele>42.0</ele><time>2026-04-07T10:40:30.345Z</time></trkpt><trkpt lat="40.5459787" lon="9.668175"><ele>42.0</ele><time>2026-04-07T10:40:31.345Z</time></trkpt><trkpt lat="40.5461231" lon="9.6683846"><ele>42.0</ele><time>2026-04-07T10:40:32.345Z</time></trkpt><trkpt lat="40.5462598" lon="9.668581"><ele>42.0</ele><time>2026-04-07T10:40:33.345Z</time></trkpt><trkpt lat="40.5463915" lon="9.6687665"><ele>42.0</ele><time>2026-04-07T10:40:34.345Z</time></trkpt><trkpt lat="40.5465123" lon="9.6689362"><ele>41.666666666666664</ele><time>2026-04-07T10:40:35.345Z</time></trkpt><trkpt lat="40.5466292" lon="9.6690991"><ele>41.33333333333333</ele><time>2026-04-07T10:40:36.345Z</time></trkpt><trkpt lat="40.5467337" lon="9.6692551"><ele>41.0</ele><time>2026-04-07T10:40:37.346Z</time></trkpt><trkpt lat="40.546832" lon="9.6694085"><ele>40.33333333333333</ele><time>2026-04-07T10:40:38.346Z</time></trkpt><trkpt lat="40.5469301" lon="9.6695678"><ele>39.666666666666664</ele><time>2026-04-07T10:40:39.346Z</time></trkpt><trkpt lat="40.5470288" lon="9.6697448"><ele>39.0</ele><time>2026-04-07T10:40:40.346Z</time></trkpt><trkpt lat="40.5471282" lon="9.6699364"><ele>39.0</ele><time>2026-04-07T10:40:41.345Z</time></trkpt><trkpt lat="40.5472244" lon="9.6701392"><ele>39.0</ele><time>2026-04-07T10:40:42.345Z</time></trkpt><trkpt lat="40.5473206" lon="9.6703511"><ele>39.0</ele><time>2026-04-07T10:40:43.345Z</time></trkpt><trkpt lat="40.5474177" lon="9.6705735"><ele>37.333333333333336</ele><time>2026-04-07T10:40:44.345Z</time></trkpt><trkpt lat="40.5475201" lon="9.6707987"><ele>35.66666666666667</ele><time>2026-04-07T10:40:45.346Z</time></trkpt><trkpt lat="40.5476221" lon="9.6710238"><ele>34.0</ele><time>2026-04-07T10:40:46.346Z</time></trkpt><trkpt lat="40.5477227" lon="9.6712526"><ele>33.333333333333336</ele><time>2026-04-07T10:40:47.346Z</time></trkpt><trkpt lat="40.5478215" lon="9.6714732"><ele>32.666666666666664</ele><time>2026-04-07T10:40:48.346Z</time></trkpt><trkpt lat="40.5479127" lon="9.6716774"><ele>32.0</ele><time>2026-04-07T10:40:49.346Z</time></trkpt><trkpt lat="40.5479985" lon="9.6718711"><ele>32.5</ele><time>2026-04-07T10:40:50.345Z</time></trkpt><trkpt lat="40.5480727" lon="9.6720509"><ele>33.0</ele><time>2026-04-07T10:40:51.346Z</time></trkpt><trkpt lat="40.5481367" lon="9.6721974"><ele>33.5</ele><time>2026-04-07T10:40:52.346Z</time></trkpt><trkpt lat="40.5482041" lon="9.6723203"><ele>34.0</ele><time>2026-04-07T10:40:53.346Z</time></trkpt><trkpt lat="40.5482765" lon="9.6724145"><ele>34.0</ele><time>2026-04-07T10:40:54.346Z</time></trkpt><trkpt lat="40.548362" lon="9.6724663"><ele>34.0</ele><time>2026-04-07T10:40:55.345Z</time></trkpt><trkpt lat="40.5484567" lon="9.6724607"><ele>34.0</ele><time>2026-04-07T10:40:56.346Z</time></trkpt><trkpt lat="40.548525" lon="9.6724324"><ele>34.0</ele><time>2026-04-07T10:40:57.346Z</time></trkpt><trkpt lat="40.5485865" lon="9.6724125"><ele>34.0</ele><time>2026-04-07T10:40:59.346Z</time></trkpt><trkpt lat="40.5486537" lon="9.6724579"><ele>34.0</ele><time>2026-04-07T10:41:01.346Z</time></trkpt><trkpt lat="40.5486942" lon="9.6725407"><ele>34.0</ele><time>2026-04-07T10:41:02.346Z</time></trkpt><trkpt lat="40.5487511" lon="9.6726663"><ele>34.0</ele><time>2026-04-07T10:41:03.346Z</time></trkpt><trkpt lat="40.5488162" lon="9.6728163"><ele>34.0</ele><time>2026-04-07T10:41:04.346Z</time></trkpt><trkpt lat="40.5488963" lon="9.6729934"><ele>34.0</ele><time>2026-04-07T10:41:05.346Z</time></trkpt><trkpt lat="40.5489772" lon="9.6731843"><ele>34.0</ele><time>2026-04-07T10:41:06.346Z</time></trkpt><trkpt lat="40.5490588" lon="9.6733821"><ele>34.0</ele><time>2026-04-07T10:41:07.346Z</time></trkpt><trkpt lat="40.5491323" lon="9.6735655"><ele>34.0</ele><time>2026-04-07T10:41:08.345Z</time></trkpt><trkpt lat="40.5492029" lon="9.673736"><ele>33.6</ele><time>2026-04-07T10:41:09.346Z</time></trkpt><trkpt lat="40.5492657" lon="9.6738867"><ele>33.2</ele><time>2026-04-07T10:41:10.345Z</time></trkpt><trkpt lat="40.5493213" lon="9.6740248"><ele>32.800000000000004</ele><time>2026-04-07T10:41:11.346Z</time></trkpt><trkpt lat="40.5493718" lon="9.6741467"><ele>32.4</ele><time>2026-04-07T10:41:12.346Z</time></trkpt><trkpt lat="40.5494165" lon="9.6742518"><ele>32.0</ele><time>2026-04-07T10:41:13.346Z</time></trkpt><trkpt lat="40.5494668" lon="9.6743265"><ele>32.5</ele><time>2026-04-07T10:41:14.346Z</time></trkpt><trkpt lat="40.5495735" lon="9.6743861"><ele>33.0</ele><time>2026-04-07T10:41:16.346Z</time></trkpt><trkpt lat="40.5496379" lon="9.6743818"><ele>33.5</ele><time>2026-04-07T10:41:17.345Z</time></trkpt><trkpt lat="40.5497133" lon="9.674348"><ele>34.0</ele><time>2026-04-07T10:41:18.346Z</time></trkpt><trkpt lat="40.5497871" lon="9.6742904"><ele>34.5</ele><time>2026-04-07T10:41:19.346Z</time></trkpt><trkpt lat="40.5498545" lon="9.6742117"><ele>35.0</ele><time>2026-04-07T10:41:20.346Z</time></trkpt><trkpt lat="40.5499114" lon="9.6741305"><ele>35.0</ele><time>2026-04-07T10:41:21.346Z</time></trkpt><trkpt lat="40.5499661" lon="9.6740429"><ele>35.0</ele><time>2026-04-07T10:41:22.346Z</time></trkpt><trkpt lat="40.5500249" lon="9.6739404"><ele>35.0</ele><time>2026-04-07T10:41:23.346Z</time></trkpt><trkpt lat="40.5500944" lon="9.6738329"><ele>35.0</ele><time>2026-04-07T10:41:24.346Z</time></trkpt><trkpt lat="40.5501613" lon="9.6737183"><ele>35.0</ele><time>2026-04-07T10:41:25.345Z</time></trkpt><trkpt lat="40.5502312" lon="9.6736132"><ele>35.666666666666664</ele><time>2026-04-07T10:41:26.346Z</time></trkpt><trkpt lat="40.5502995" lon="9.6735477"><ele>36.33333333333333</ele><time>2026-04-07T10:41:27.346Z</time></trkpt><trkpt lat="40.5503655" lon="9.6735133"><ele>37.0</ele><time>2026-04-07T10:41:28.345Z</time></trkpt><trkpt lat="40.550434" lon="9.6735208"><ele>37.666666666666664</ele><time>2026-04-07T10:41:29.346Z</time></trkpt><trkpt lat="40.5505035" lon="9.6735745"><ele>38.333333333333336</ele><time>2026-04-07T10:41:30.346Z</time></trkpt><trkpt lat="40.550573" lon="9.6736542"><ele>39.0</ele><time>2026-04-07T10:41:31.346Z</time></trkpt><trkpt lat="40.5506491" lon="9.673741"><ele>39.166666666666664</ele><time>2026-04-07T10:41:32.346Z</time></trkpt><trkpt lat="40.5507176" lon="9.673822"><ele>39.333333333333336</ele><time>2026-04-07T10:41:33.346Z</time></trkpt><trkpt lat="40.5507811" lon="9.6739019"><ele>39.5</ele><time>2026-04-07T10:41:34.346Z</time></trkpt><trkpt lat="40.5508447" lon="9.6739722"><ele>39.66666666666667</ele><time>2026-04-07T10:41:35.346Z</time></trkpt><trkpt lat="40.5509003" lon="9.6740264"><ele>39.833333333333336</ele><time>2026-04-07T10:41:36.346Z</time></trkpt><trkpt lat="40.5509927" lon="9.6740937"><ele>40.0</ele><time>2026-04-07T10:41:38.346Z</time></trkpt><trkpt lat="40.551078" lon="9.6740805"><ele>40.0</ele><time>2026-04-07T10:41:40.346Z</time></trkpt><trkpt lat="40.5511578" lon="9.6739584"><ele>40.0</ele><time>2026-04-07T10:41:42.346Z</time></trkpt><trkpt lat="40.5512062" lon="9.6738719"><ele>40.0</ele><time>2026-04-07T10:41:43.345Z</time></trkpt><trkpt lat="40.5512632" lon="9.6737703"><ele>40.0</ele><time>2026-04-07T10:41:44.345Z</time></trkpt><trkpt lat="40.5513305" lon="9.6736676"><ele>40.0</ele><time>2026-04-07T10:41:45.345Z</time></trkpt><trkpt lat="40.5513941" lon="9.6735685"><ele>41.833333333333336</ele><time>2026-04-07T10:41:46.346Z</time></trkpt><trkpt lat="40.5514465" lon="9.6734902"><ele>43.66666666666667</ele><time>2026-04-07T10:41:47.346Z</time></trkpt><trkpt lat="40.5514911" lon="9.6734234"><ele>45.5</ele><time>2026-04-07T10:41:48.346Z</time></trkpt><trkpt lat="40.5515519" lon="9.6733393"><ele>47.333333333333336</ele><time>2026-04-07T10:41:50.345Z</time></trkpt><trkpt lat="40.5516328" lon="9.6733209"><ele>49.166666666666664</ele><time>2026-04-07T10:41:52.345Z</time></trkpt><trkpt lat="40.551707" lon="9.6733441"><ele>51.0</ele><time>2026-04-07T10:41:53.346Z</time></trkpt><trkpt lat="40.551795" lon="9.6734021"><ele>51.0</ele><time>2026-04-07T10:41:54.346Z</time></trkpt><trkpt lat="40.5519053" lon="9.6734666"><ele>51.0</ele><time>2026-04-07T10:41:55.346Z</time></trkpt><trkpt lat="40.552024" lon="9.6735377"><ele>51.0</ele><time>2026-04-07T10:41:56.346Z</time></trkpt><trkpt lat="40.5521484" lon="9.6736174"><ele>51.0</ele><time>2026-04-07T10:41:57.346Z</time></trkpt><trkpt lat="40.5522843" lon="9.6736973"><ele>51.33333333333333</ele><time>2026-04-07T10:41:58.345Z</time></trkpt><trkpt lat="40.552424" lon="9.6737818"><ele>51.666666666666664</ele><time>2026-04-07T10:41:59.346Z</time></trkpt><trkpt lat="40.5525726" lon="9.6738723"><ele>52.0</ele><time>2026-04-07T10:42:00.345Z</time></trkpt><trkpt lat="40.5527245" lon="9.6739693"><ele>53.33333333333333</ele><time>2026-04-07T10:42:01.346Z</time></trkpt><trkpt lat="40.5528771" lon="9.6740624"><ele>54.66666666666667</ele><time>2026-04-07T10:42:02.346Z</time></trkpt><trkpt lat="40.5530371" lon="9.6741508"><ele>56.0</ele><time>2026-04-07T10:42:03.346Z</time></trkpt><trkpt lat="40.553196" lon="9.6742423"><ele>56.0</ele><time>2026-04-07T10:42:04.345Z</time></trkpt><trkpt lat="40.5533598" lon="9.6743401"><ele>56.0</ele><time>2026-04-07T10:42:05.346Z</time></trkpt><trkpt lat="40.5535254" lon="9.6744422"><ele>56.0</ele><time>2026-04-07T10:42:06.346Z</time></trkpt><trkpt lat="40.5536913" lon="9.674544"><ele>56.66666666666667</ele><time>2026-04-07T10:42:07.346Z</time></trkpt><trkpt lat="40.5538635" lon="9.674643"><ele>57.33333333333333</ele><time>2026-04-07T10:42:08.346Z</time></trkpt><trkpt lat="40.554037" lon="9.6747453"><ele>58.0</ele><time>2026-04-07T10:42:09.346Z</time></trkpt><trkpt lat="40.5542122" lon="9.6748542"><ele>58.0</ele><time>2026-04-07T10:42:10.346Z</time></trkpt><trkpt lat="40.5543856" lon="9.6749621"><ele>58.0</ele><time>2026-04-07T10:42:11.346Z</time></trkpt><trkpt lat="40.5545612" lon="9.6750764"><ele>58.0</ele><time>2026-04-07T10:42:12.345Z</time></trkpt><trkpt lat="40.5547352" lon="9.675194"><ele>56.33333333333333</ele><time>2026-04-07T10:42:13.346Z</time></trkpt><trkpt lat="40.554917" lon="9.6753094"><ele>54.66666666666667</ele><time>2026-04-07T10:42:14.346Z</time></trkpt><trkpt lat="40.5550928" lon="9.6754174"><ele>53.0</ele><time>2026-04-07T10:42:15.346Z</time></trkpt><trkpt lat="40.5552724" lon="9.6755224"><ele>53.66666666666667</ele><time>2026-04-07T10:42:16.346Z</time></trkpt><trkpt lat="40.5554551" lon="9.6756272"><ele>54.33333333333333</ele><time>2026-04-07T10:42:17.345Z</time></trkpt><trkpt lat="40.5556381" lon="9.675731"><ele>55.0</ele><time>2026-04-07T10:42:18.345Z</time></trkpt><trkpt lat="40.5558234" lon="9.6758418"><ele>55.0</ele><time>2026-04-07T10:42:19.346Z</time></trkpt><trkpt lat="40.5560089" lon="9.6759491"><ele>55.0</ele><time>2026-04-07T10:42:20.346Z</time></trkpt><trkpt lat="40.5561976" lon="9.6760615"><ele>55.0</ele><time>2026-04-07T10:42:21.345Z</time></trkpt><trkpt lat="40.5563882" lon="9.6761708"><ele>53.666666666666664</ele><time>2026-04-07T10:42:22.346Z</time></trkpt><trkpt lat="40.5565844" lon="9.6762756"><ele>52.33333333333333</ele><time>2026-04-07T10:42:23.346Z</time></trkpt><trkpt lat="40.5567837" lon="9.6763741"><ele>51.0</ele><time>2026-04-07T10:42:24.346Z</time></trkpt><trkpt lat="40.5569875" lon="9.676492"><ele>51.0</ele><time>2026-04-07T10:42:25.346Z</time></trkpt><trkpt lat="40.5571944" lon="9.6766139"><ele>51.0</ele><time>2026-04-07T10:42:26.346Z</time></trkpt><trkpt lat="40.557401" lon="9.6767358"><ele>51.0</ele><time>2026-04-07T10:42:27.346Z</time></trkpt><trkpt lat="40.5576128" lon="9.6768587"><ele>51.0</ele><time>2026-04-07T10:42:28.346Z</time></trkpt><trkpt lat="40.5578252" lon="9.6769836"><ele>49.0</ele><time>2026-04-07T10:42:29.346Z</time></trkpt><trkpt lat="40.5580384" lon="9.6771082"><ele>47.0</ele><time>2026-04-07T10:42:30.346Z</time></trkpt><trkpt lat="40.558253" lon="9.6772345"><ele>47.0</ele><time>2026-04-07T10:42:31.345Z</time></trkpt><trkpt lat="40.5584643" lon="9.6773602"><ele>47.0</ele><time>2026-04-07T10:42:32.346Z</time></trkpt><trkpt lat="40.5586784" lon="9.677491"><ele>48.0</ele><time>2026-04-07T10:42:33.345Z</time></trkpt><trkpt lat="40.5588941" lon="9.6776144"><ele>49.0</ele><time>2026-04-07T10:42:34.346Z</time></trkpt><trkpt lat="40.5591075" lon="9.677741"><ele>46.5</ele><time>2026-04-07T10:42:35.346Z</time></trkpt><trkpt lat="40.5593212" lon="9.6778675"><ele>44.0</ele><time>2026-04-07T10:42:36.346Z</time></trkpt><trkpt lat="40.5595257" lon="9.6779858"><ele>44.666666666666664</ele><time>2026-04-07T10:42:37.346Z</time></trkpt><trkpt lat="40.5597282" lon="9.6781118"><ele>45.333333333333336</ele><time>2026-04-07T10:42:38.346Z</time></trkpt><trkpt lat="40.5599281" lon="9.6782278"><ele>46.0</ele><time>2026-04-07T10:42:39.345Z</time></trkpt><trkpt lat="40.5601148" lon="9.678339"><ele>46.0</ele><time>2026-04-07T10:42:40.346Z</time></trkpt><trkpt lat="40.5603052" lon="9.678438"><ele>46.0</ele><time>2026-04-07T10:42:41.346Z</time></trkpt><trkpt lat="40.560509" lon="9.6785029"><ele>46.0</ele><time>2026-04-07T10:42:42.346Z</time></trkpt><trkpt lat="40.5607135" lon="9.6785283"><ele>47.333333333333336</ele><time>2026-04-07T10:42:43.345Z</time></trkpt><trkpt lat="40.5609191" lon="9.6785198"><ele>48.66666666666667</ele><time>2026-04-07T10:42:44.346Z</time></trkpt><trkpt lat="40.5611099" lon="9.6784922"><ele>50.0</ele><time>2026-04-07T10:42:45.345Z</time></trkpt><trkpt lat="40.5612845" lon="9.6784546"><ele>50.333333333333336</ele><time>2026-04-07T10:42:46.346Z</time></trkpt><trkpt lat="40.5614435" lon="9.6783988"><ele>50.66666666666667</ele><time>2026-04-07T10:42:47.346Z</time></trkpt><trkpt lat="40.5615812" lon="9.6783198"><ele>51.0</ele><time>2026-04-07T10:42:48.345Z</time></trkpt><trkpt lat="40.5617175" lon="9.6782407"><ele>51.0</ele><time>2026-04-07T10:42:49.346Z</time></trkpt><trkpt lat="40.5618536" lon="9.6781893"><ele>51.0</ele><time>2026-04-07T10:42:50.346Z</time></trkpt><trkpt lat="40.5620058" lon="9.6781731"><ele>51.0</ele><time>2026-04-07T10:42:51.346Z</time></trkpt><trkpt lat="40.5621603" lon="9.678155"><ele>51.0</ele><time>2026-04-07T10:42:52.346Z</time></trkpt><trkpt lat="40.5623263" lon="9.6781324"><ele>50.66666666666667</ele><time>2026-04-07T10:42:53.346Z</time></trkpt><trkpt lat="40.5625001" lon="9.6780965"><ele>50.333333333333336</ele><time>2026-04-07T10:42:54.345Z</time></trkpt><trkpt lat="40.562682" lon="9.6780575"><ele>50.0</ele><time>2026-04-07T10:42:55.346Z</time></trkpt><trkpt lat="40.5628679" lon="9.6780084"><ele>50.66666666666667</ele><time>2026-04-07T10:42:56.346Z</time></trkpt><trkpt lat="40.563059" lon="9.6779532"><ele>51.33333333333333</ele><time>2026-04-07T10:42:57.345Z</time></trkpt><trkpt lat="40.5632446" lon="9.6779006"><ele>52.0</ele><time>2026-04-07T10:42:58.346Z</time></trkpt><trkpt lat="40.5634264" lon="9.6778517"><ele>52.0</ele><time>2026-04-07T10:42:59.346Z</time></trkpt><trkpt lat="40.5635965" lon="9.6778028"><ele>52.0</ele><time>2026-04-07T10:43:00.346Z</time></trkpt><trkpt lat="40.5637579" lon="9.6777536"><ele>52.0</ele><time>2026-04-07T10:43:01.345Z</time></trkpt><trkpt lat="40.5639149" lon="9.677716"><ele>53.75</ele><time>2026-04-07T10:43:02.346Z</time></trkpt><trkpt lat="40.5640645" lon="9.6777231"><ele>55.5</ele><time>2026-04-07T10:43:03.345Z</time></trkpt><trkpt lat="40.5642099" lon="9.677773"><ele>57.25</ele><time>2026-04-07T10:43:04.346Z</time></trkpt><trkpt lat="40.5643387" lon="9.6778625"><ele>59.0</ele><time>2026-04-07T10:43:05.346Z</time></trkpt><trkpt lat="40.5644389" lon="9.6779969"><ele>59.0</ele><time>2026-04-07T10:43:06.346Z</time></trkpt><trkpt lat="40.5645204" lon="9.6781514"><ele>59.0</ele><time>2026-04-07T10:43:07.346Z</time></trkpt><trkpt lat="40.5645827" lon="9.6783245"><ele>59.0</ele><time>2026-04-07T10:43:08.345Z</time></trkpt><trkpt lat="40.5646357" lon="9.6785028"><ele>59.0</ele><time>2026-04-07T10:43:09.346Z</time></trkpt><trkpt lat="40.5646816" lon="9.6786836"><ele>60.0</ele><time>2026-04-07T10:43:10.346Z</time></trkpt><trkpt lat="40.5647217" lon="9.678867"><ele>61.0</ele><time>2026-04-07T10:43:11.346Z</time></trkpt><trkpt lat="40.5647551" lon="9.679051"><ele>62.0</ele><time>2026-04-07T10:43:12.346Z</time></trkpt><trkpt lat="40.5647668" lon="9.6792258"><ele>63.0</ele><time>2026-04-07T10:43:13.346Z</time></trkpt><trkpt lat="40.5647597" lon="9.6793874"><ele>63.0</ele><time>2026-04-07T10:43:14.345Z</time></trkpt><trkpt lat="40.5647285" lon="9.6795393"><ele>63.0</ele><time>2026-04-07T10:43:15.346Z</time></trkpt><trkpt lat="40.5646947" lon="9.6796971"><ele>63.0</ele><time>2026-04-07T10:43:16.345Z</time></trkpt><trkpt lat="40.564666" lon="9.6798598"><ele>63.0</ele><time>2026-04-07T10:43:17.345Z</time></trkpt><trkpt lat="40.564658" lon="9.6800207"><ele>63.0</ele><time>2026-04-07T10:43:18.345Z</time></trkpt><trkpt lat="40.5646815" lon="9.6801807"><ele>63.0</ele><time>2026-04-07T10:43:19.346Z</time></trkpt><trkpt lat="40.5647393" lon="9.6803249"><ele>63.0</ele><time>2026-04-07T10:43:20.346Z</time></trkpt><trkpt lat="40.5648277" lon="9.6804508"><ele>63.0</ele><time>2026-04-07T10:43:21.346Z</time></trkpt><trkpt lat="40.5649399" lon="9.6805733"><ele>62.33333333333333</ele><time>2026-04-07T10:43:22.345Z</time></trkpt><trkpt lat="40.5650699" lon="9.6807012"><ele>61.666666666666664</ele><time>2026-04-07T10:43:23.346Z</time></trkpt><trkpt lat="40.5651831" lon="9.6808242"><ele>61.0</ele><time>2026-04-07T10:43:24.346Z</time></trkpt><trkpt lat="40.5652959" lon="9.6809687"><ele>62.0</ele><time>2026-04-07T10:43:25.346Z</time></trkpt><trkpt lat="40.5654036" lon="9.6811337"><ele>63.0</ele><time>2026-04-07T10:43:26.346Z</time></trkpt><trkpt lat="40.5655058" lon="9.6813262"><ele>64.0</ele><time>2026-04-07T10:43:27.346Z</time></trkpt><trkpt lat="40.565602" lon="9.6815251"><ele>64.0</ele><time>2026-04-07T10:43:28.346Z</time></trkpt><trkpt lat="40.5656913" lon="9.6817121"><ele>64.0</ele><time>2026-04-07T10:43:29.346Z</time></trkpt><trkpt lat="40.5657731" lon="9.6818926"><ele>64.0</ele><time>2026-04-07T10:43:30.346Z</time></trkpt><trkpt lat="40.5658478" lon="9.682057"><ele>62.75</ele><time>2026-04-07T10:43:31.345Z</time></trkpt><trkpt lat="40.5659026" lon="9.6822245"><ele>61.5</ele><time>2026-04-07T10:43:32.346Z</time></trkpt><trkpt lat="40.5659303" lon="9.6823943"><ele>60.25</ele><time>2026-04-07T10:43:33.346Z</time></trkpt><trkpt lat="40.5659361" lon="9.6825648"><ele>59.0</ele><time>2026-04-07T10:43:34.346Z</time></trkpt><trkpt lat="40.5659141" lon="9.6827532"><ele>57.333333333333336</ele><time>2026-04-07T10:43:35.346Z</time></trkpt><trkpt lat="40.5658633" lon="9.6829448"><ele>55.66666666666667</ele><time>2026-04-07T10:43:36.346Z</time></trkpt><trkpt lat="40.5657905" lon="9.6831294"><ele>54.0</ele><time>2026-04-07T10:43:37.346Z</time></trkpt><trkpt lat="40.5657099" lon="9.6832995"><ele>54.0</ele><time>2026-04-07T10:43:38.346Z</time></trkpt><trkpt lat="40.565645" lon="9.6834675"><ele>54.0</ele><time>2026-04-07T10:43:39.346Z</time></trkpt><trkpt lat="40.5656019" lon="9.6836354"><ele>54.0</ele><time>2026-04-07T10:43:40.346Z</time></trkpt><trkpt lat="40.5655924" lon="9.6838018"><ele>54.0</ele><time>2026-04-07T10:43:41.346Z</time></trkpt><trkpt lat="40.5656087" lon="9.6839787"><ele>54.75</ele><time>2026-04-07T10:43:42.346Z</time></trkpt><trkpt lat="40.5656546" lon="9.6841424"><ele>55.5</ele><time>2026-04-07T10:43:43.345Z</time></trkpt><trkpt lat="40.5657326" lon="9.6842938"><ele>56.25</ele><time>2026-04-07T10:43:44.346Z</time></trkpt><trkpt lat="40.5658327" lon="9.6844275"><ele>57.0</ele><time>2026-04-07T10:43:45.346Z</time></trkpt><trkpt lat="40.5659452" lon="9.6845483"><ele>58.33333333333333</ele><time>2026-04-07T10:43:46.345Z</time></trkpt><trkpt lat="40.566069" lon="9.6846625"><ele>59.666666666666664</ele><time>2026-04-07T10:43:47.346Z</time></trkpt><trkpt lat="40.566195" lon="9.6847831"><ele>61.0</ele><time>2026-04-07T10:43:48.346Z</time></trkpt><trkpt lat="40.5663314" lon="9.684885"><ele>61.666666666666664</ele><time>2026-04-07T10:43:49.346Z</time></trkpt><trkpt lat="40.5664816" lon="9.6849474"><ele>62.33333333333333</ele><time>2026-04-07T10:43:50.346Z</time></trkpt><trkpt lat="40.5666354" lon="9.6849734"><ele>63.0</ele><time>2026-04-07T10:43:51.346Z</time></trkpt><trkpt lat="40.5667954" lon="9.6849675"><ele>63.0</ele><time>2026-04-07T10:43:52.345Z</time></trkpt><trkpt lat="40.5669568" lon="9.6849407"><ele>63.0</ele><time>2026-04-07T10:43:53.346Z</time></trkpt><trkpt lat="40.5671149" lon="9.6849049"><ele>63.0</ele><time>2026-04-07T10:43:54.346Z</time></trkpt><trkpt lat="40.5672741" lon="9.6848682"><ele>65.0</ele><time>2026-04-07T10:43:55.346Z</time></trkpt><trkpt lat="40.5674297" lon="9.684832"><ele>67.0</ele><time>2026-04-07T10:43:56.346Z</time></trkpt><trkpt lat="40.5675803" lon="9.6847978"><ele>69.0</ele><time>2026-04-07T10:43:57.346Z</time></trkpt><trkpt lat="40.5677225" lon="9.6847653"><ele>69.0</ele><time>2026-04-07T10:43:58.345Z</time></trkpt><trkpt lat="40.5678597" lon="9.6847282"><ele>69.0</ele><time>2026-04-07T10:43:59.346Z</time></trkpt><trkpt lat="40.5679902" lon="9.6846915"><ele>69.0</ele><time>2026-04-07T10:44:00.346Z</time></trkpt><trkpt lat="40.5681176" lon="9.6846599"><ele>69.0</ele><time>2026-04-07T10:44:01.346Z</time></trkpt><trkpt lat="40.5682391" lon="9.6846246"><ele>70.2</ele><time>2026-04-07T10:44:02.346Z</time></trkpt><trkpt lat="40.5683587" lon="9.6845927"><ele>71.4</ele><time>2026-04-07T10:44:03.346Z</time></trkpt><trkpt lat="40.5684743" lon="9.6845666"><ele>72.6</ele><time>2026-04-07T10:44:04.346Z</time></trkpt><trkpt lat="40.5685846" lon="9.6845389"><ele>73.8</ele><time>2026-04-07T10:44:05.346Z</time></trkpt><trkpt lat="40.5686801" lon="9.6845136"><ele>75.0</ele><time>2026-04-07T10:44:06.345Z</time></trkpt><trkpt lat="40.5687742" lon="9.6844914"><ele>75.5</ele><time>2026-04-07T10:44:07.345Z</time></trkpt><trkpt lat="40.568864" lon="9.684466"><ele>76.0</ele><time>2026-04-07T10:44:08.346Z</time></trkpt><trkpt lat="40.5689432" lon="9.6844489"><ele>76.5</ele><time>2026-04-07T10:44:09.346Z</time></trkpt><trkpt lat="40.5690132" lon="9.6844389"><ele>77.0</ele><time>2026-04-07T10:44:10.346Z</time></trkpt><trkpt lat="40.5690881" lon="9.6844264"><ele>77.5</ele><time>2026-04-07T10:44:11.346Z</time></trkpt><trkpt lat="40.5691663" lon="9.6844213"><ele>78.0</ele><time>2026-04-07T10:44:12.346Z</time></trkpt><trkpt lat="40.5692491" lon="9.684423"><ele>78.0</ele><time>2026-04-07T10:44:13.346Z</time></trkpt><trkpt lat="40.5693429" lon="9.6844272"><ele>78.0</ele><time>2026-04-07T10:44:14.346Z</time></trkpt><trkpt lat="40.5694324" lon="9.6844348"><ele>78.0</ele><time>2026-04-07T10:44:15.346Z</time></trkpt><trkpt lat="40.5695238" lon="9.6844433"><ele>78.0</ele><time>2026-04-07T10:44:16.346Z</time></trkpt><trkpt lat="40.5696183" lon="9.6844482"><ele>78.0</ele><time>2026-04-07T10:44:17.345Z</time></trkpt><trkpt lat="40.5697119" lon="9.6844547"><ele>77.8</ele><time>2026-04-07T10:44:18.346Z</time></trkpt><trkpt lat="40.569806" lon="9.6844655"><ele>77.6</ele><time>2026-04-07T10:44:19.346Z</time></trkpt><trkpt lat="40.5698972" lon="9.6844739"><ele>77.4</ele><time>2026-04-07T10:44:20.346Z</time></trkpt><trkpt lat="40.5699881" lon="9.6844855"><ele>77.2</ele><time>2026-04-07T10:44:21.346Z</time></trkpt><trkpt lat="40.5700776" lon="9.6844946"><ele>77.0</ele><time>2026-04-07T10:44:22.346Z</time></trkpt><trkpt lat="40.5701673" lon="9.6845132"><ele>77.0</ele><time>2026-04-07T10:44:23.346Z</time></trkpt><trkpt lat="40.5702579" lon="9.6845369"><ele>77.0</ele><time>2026-04-07T10:44:24.346Z</time></trkpt><trkpt lat="40.5703543" lon="9.6845663"><ele>77.0</ele><time>2026-04-07T10:44:25.346Z</time></trkpt><trkpt lat="40.5704437" lon="9.6846128"><ele>77.0</ele><time>2026-04-07T10:44:26.346Z</time></trkpt><trkpt lat="40.5705288" lon="9.6846784"><ele>77.0</ele><time>2026-04-07T10:44:27.346Z</time></trkpt><trkpt lat="40.5706056" lon="9.6847607"><ele>77.0</ele><time>2026-04-07T10:44:28.346Z</time></trkpt><trkpt lat="40.5706777" lon="9.6848622"><ele>77.0</ele><time>2026-04-07T10:44:29.346Z</time></trkpt><trkpt lat="40.5707408" lon="9.6849568"><ele>77.0</ele><time>2026-04-07T10:44:30.346Z</time></trkpt><trkpt lat="40.5707977" lon="9.685053"><ele>77.0</ele><time>2026-04-07T10:44:31.345Z</time></trkpt><trkpt lat="40.5708397" lon="9.6851532"><ele>77.0</ele><time>2026-04-07T10:44:32.346Z</time></trkpt><trkpt lat="40.5708628" lon="9.68526"><ele>75.4</ele><time>2026-04-07T10:44:33.345Z</time></trkpt><trkpt lat="40.5708693" lon="9.68538"><ele>73.80000000000001</ele><time>2026-04-07T10:44:34.346Z</time></trkpt><trkpt lat="40.5708643" lon="9.6855083"><ele>72.2</ele><time>2026-04-07T10:44:35.346Z</time></trkpt><trkpt lat="40.5708599" lon="9.6856444"><ele>70.60000000000001</ele><time>2026-04-07T10:44:36.345Z</time></trkpt><trkpt lat="40.5708555" lon="9.6857864"><ele>69.0</ele><time>2026-04-07T10:44:37.345Z</time></trkpt><trkpt lat="40.5708471" lon="9.6859315"><ele>69.0</ele><time>2026-04-07T10:44:38.346Z</time></trkpt><trkpt lat="40.5708401" lon="9.6860805"><ele>69.0</ele><time>2026-04-07T10:44:39.345Z</time></trkpt><trkpt lat="40.5708389" lon="9.6862309"><ele>69.0</ele><time>2026-04-07T10:44:40.346Z</time></trkpt><trkpt lat="40.5708382" lon="9.6863818"><ele>69.0</ele><time>2026-04-07T10:44:41.346Z</time></trkpt><trkpt lat="40.5708469" lon="9.6865225"><ele>69.0</ele><time>2026-04-07T10:44:42.346Z</time></trkpt><trkpt lat="40.5708661" lon="9.6866566"><ele>67.75</ele><time>2026-04-07T10:44:43.346Z</time></trkpt><trkpt lat="40.5708961" lon="9.6867934"><ele>66.5</ele><time>2026-04-07T10:44:44.346Z</time></trkpt><trkpt lat="40.570936" lon="9.6869307"><ele>65.25</ele><time>2026-04-07T10:44:45.346Z</time></trkpt><trkpt lat="40.5709889" lon="9.6870686"><ele>64.0</ele><time>2026-04-07T10:44:46.346Z</time></trkpt><trkpt lat="40.5710403" lon="9.6872117"><ele>63.2</ele><time>2026-04-07T10:44:47.346Z</time></trkpt><trkpt lat="40.5710899" lon="9.687354"><ele>62.400000000000006</ele><time>2026-04-07T10:44:48.345Z</time></trkpt><trkpt lat="40.5711457" lon="9.6874881"><ele>61.6</ele><time>2026-04-07T10:44:49.345Z</time></trkpt><trkpt lat="40.5711988" lon="9.6876161"><ele>60.8</ele><time>2026-04-07T10:44:50.346Z</time></trkpt><trkpt lat="40.5712541" lon="9.6877239"><ele>60.0</ele><time>2026-04-07T10:44:51.345Z</time></trkpt><trkpt lat="40.5713124" lon="9.6878185"><ele>58.6</ele><time>2026-04-07T10:44:52.346Z</time></trkpt><trkpt lat="40.5713617" lon="9.6879099"><ele>57.2</ele><time>2026-04-07T10:44:53.346Z</time></trkpt><trkpt lat="40.5714262" lon="9.6880078"><ele>55.8</ele><time>2026-04-07T10:44:54.345Z</time></trkpt><trkpt lat="40.5714847" lon="9.6881133"><ele>54.4</ele><time>2026-04-07T10:44:55.346Z</time></trkpt><trkpt lat="40.5715422" lon="9.6882054"><ele>53.0</ele><time>2026-04-07T10:44:56.346Z</time></trkpt><trkpt lat="40.5715977" lon="9.688296"><ele>53.00000000000001</ele><time>2026-04-07T10:44:57.346Z</time></trkpt><trkpt lat="40.5716503" lon="9.688385"><ele>53.0</ele><time>2026-04-07T10:44:58.346Z</time></trkpt><trkpt lat="40.5717013" lon="9.6884725"><ele>53.0</ele><time>2026-04-07T10:44:59.345Z</time></trkpt><trkpt lat="40.5717545" lon="9.6885681"><ele>53.0</ele><time>2026-04-07T10:45:00.346Z</time></trkpt><trkpt lat="40.5718129" lon="9.6886592"><ele>53.00000000000001</ele><time>2026-04-07T10:45:01.345Z</time></trkpt><trkpt lat="40.5718637" lon="9.688752"><ele>53.0</ele><time>2026-04-07T10:45:02.346Z</time></trkpt><trkpt lat="40.5719127" lon="9.6888401"><ele>52.50000000000001</ele><time>2026-04-07T10:45:03.346Z</time></trkpt><trkpt lat="40.5719595" lon="9.6889282"><ele>52.0</ele><time>2026-04-07T10:45:04.346Z</time></trkpt><trkpt lat="40.5720152" lon="9.6890109"><ele>51.5</ele><time>2026-04-07T10:45:05.345Z</time></trkpt><trkpt lat="40.5720763" lon="9.6890845"><ele>51.0</ele><time>2026-04-07T10:45:06.346Z</time></trkpt><trkpt lat="40.5721409" lon="9.6891516"><ele>50.50000000000001</ele><time>2026-04-07T10:45:07.346Z</time></trkpt><trkpt lat="40.5721998" lon="9.6892036"><ele>50.0</ele><time>2026-04-07T10:45:08.346Z</time></trkpt><trkpt lat="40.5722552" lon="9.6892491"><ele>50.0</ele><time>2026-04-07T10:45:09.345Z</time></trkpt><trkpt lat="40.5723267" lon="9.6893717"><ele>50.0</ele><time>2026-04-07T10:45:11.346Z</time></trkpt><trkpt lat="40.5723522" lon="9.6895148"><ele>50.0</ele><time>2026-04-07T10:45:13.346Z</time></trkpt><trkpt lat="40.5724222" lon="9.6896051"><ele>50.0</ele><time>2026-04-07T10:45:15.346Z</time></trkpt><trkpt lat="40.5724867" lon="9.6895579"><ele>50.0</ele><time>2026-04-07T10:45:17.345Z</time></trkpt><trkpt lat="40.5724592" lon="9.6894598"><ele>49.66666666666667</ele><time>2026-04-07T10:45:19.346Z</time></trkpt><trkpt lat="40.5723761" lon="9.6894725"><ele>49.333333333333336</ele><time>2026-04-07T10:45:21.346Z</time></trkpt><trkpt lat="40.5723416" lon="9.6896036"><ele>49.0</ele><time>2026-04-07T10:45:23.346Z</time></trkpt><trkpt lat="40.5723383" lon="9.6896876"><ele>48.66666666666667</ele><time>2026-04-07T10:45:24.346Z</time></trkpt><trkpt lat="40.5723248" lon="9.6897831"><ele>48.333333333333336</ele><time>2026-04-07T10:45:25.345Z</time></trkpt><trkpt lat="40.5723009" lon="9.6898802"><ele>48.0</ele><time>2026-04-07T10:45:26.345Z</time></trkpt><trkpt lat="40.5722757" lon="9.6899991"><ele>48.0</ele><time>2026-04-07T10:45:27.345Z</time></trkpt><trkpt lat="40.5722514" lon="9.6901143"><ele>48.0</ele><time>2026-04-07T10:45:28.346Z</time></trkpt><trkpt lat="40.5722255" lon="9.690229"><ele>48.0</ele><time>2026-04-07T10:45:29.345Z</time></trkpt><trkpt lat="40.5721997" lon="9.6903517"><ele>48.0</ele><time>2026-04-07T10:45:30.346Z</time></trkpt><trkpt lat="40.5721698" lon="9.6904803"><ele>48.0</ele><time>2026-04-07T10:45:31.346Z</time></trkpt><trkpt lat="40.5721403" lon="9.6906156"><ele>48.2</ele><time>2026-04-07T10:45:32.346Z</time></trkpt><trkpt lat="40.5721096" lon="9.6907509"><ele>48.4</ele><time>2026-04-07T10:45:33.345Z</time></trkpt><trkpt lat="40.5720804" lon="9.6908925"><ele>48.6</ele><time>2026-04-07T10:45:34.346Z</time></trkpt><trkpt lat="40.5720451" lon="9.6910314"><ele>48.800000000000004</ele><time>2026-04-07T10:45:35.346Z</time></trkpt><trkpt lat="40.572015" lon="9.6911744"><ele>49.0</ele><time>2026-04-07T10:45:36.346Z</time></trkpt><trkpt lat="40.5719816" lon="9.6913157"><ele>46.75</ele><time>2026-04-07T10:45:37.346Z</time></trkpt><trkpt lat="40.5719461" lon="9.6914615"><ele>44.5</ele><time>2026-04-07T10:45:38.346Z</time></trkpt><trkpt lat="40.5719131" lon="9.691602"><ele>42.25</ele><time>2026-04-07T10:45:39.346Z</time></trkpt><trkpt lat="40.5718779" lon="9.6917445"><ele>40.0</ele><time>2026-04-07T10:45:40.346Z</time></trkpt><trkpt lat="40.5718474" lon="9.6918852"><ele>40.0</ele><time>2026-04-07T10:45:41.345Z</time></trkpt><trkpt lat="40.5718131" lon="9.6920261"><ele>40.0</ele><time>2026-04-07T10:45:42.345Z</time></trkpt><trkpt lat="40.5717862" lon="9.6921644"><ele>40.0</ele><time>2026-04-07T10:45:43.345Z</time></trkpt><trkpt lat="40.5717529" lon="9.6923051"><ele>40.0</ele><time>2026-04-07T10:45:44.345Z</time></trkpt><trkpt lat="40.5717219" lon="9.6924448"><ele>40.0</ele><time>2026-04-07T10:45:45.346Z</time></trkpt><trkpt lat="40.5716863" lon="9.6925816"><ele>40.0</ele><time>2026-04-07T10:45:46.345Z</time></trkpt><trkpt lat="40.5716548" lon="9.6927205"><ele>40.0</ele><time>2026-04-07T10:45:47.346Z</time></trkpt><trkpt lat="40.5716217" lon="9.6928559"><ele>40.0</ele><time>2026-04-07T10:45:48.346Z</time></trkpt><trkpt lat="40.5715922" lon="9.6929917"><ele>40.0</ele><time>2026-04-07T10:45:49.346Z</time></trkpt><trkpt lat="40.5715585" lon="9.6931324"><ele>40.0</ele><time>2026-04-07T10:45:50.346Z</time></trkpt><trkpt lat="40.5715266" lon="9.6932573"><ele>39.66666666666667</ele><time>2026-04-07T10:45:51.345Z</time></trkpt><trkpt lat="40.5714969" lon="9.6933767"><ele>39.333333333333336</ele><time>2026-04-07T10:45:52.346Z</time></trkpt><trkpt lat="40.5714664" lon="9.6934893"><ele>39.0</ele><time>2026-04-07T10:45:53.345Z</time></trkpt><trkpt lat="40.5714409" lon="9.6935967"><ele>38.666666666666664</ele><time>2026-04-07T10:45:54.346Z</time></trkpt><trkpt lat="40.5714173" lon="9.6937043"><ele>38.33333333333333</ele><time>2026-04-07T10:45:55.345Z</time></trkpt><trkpt lat="40.5713939" lon="9.6938132"><ele>38.0</ele><time>2026-04-07T10:45:56.345Z</time></trkpt><trkpt lat="40.571365" lon="9.6939272"><ele>38.0</ele><time>2026-04-07T10:45:57.346Z</time></trkpt><trkpt lat="40.5713375" lon="9.6940441"><ele>38.0</ele><time>2026-04-07T10:45:58.346Z</time></trkpt><trkpt lat="40.571315" lon="9.6941512"><ele>38.0</ele><time>2026-04-07T10:45:59.346Z</time></trkpt><trkpt lat="40.5712891" lon="9.6942574"><ele>38.0</ele><time>2026-04-07T10:46:00.345Z</time></trkpt><trkpt lat="40.5712662" lon="9.694361"><ele>38.0</ele><time>2026-04-07T10:46:01.345Z</time></trkpt><trkpt lat="40.5712396" lon="9.6944618"><ele>38.0</ele><time>2026-04-07T10:46:02.346Z</time></trkpt><trkpt lat="40.5712153" lon="9.6945682"><ele>38.166666666666664</ele><time>2026-04-07T10:46:03.345Z</time></trkpt><trkpt lat="40.5711945" lon="9.6946732"><ele>38.33333333333333</ele><time>2026-04-07T10:46:04.346Z</time></trkpt><trkpt lat="40.5711691" lon="9.6947845"><ele>38.5</ele><time>2026-04-07T10:46:05.346Z</time></trkpt><trkpt lat="40.5711403" lon="9.6948973"><ele>38.666666666666664</ele><time>2026-04-07T10:46:06.346Z</time></trkpt><trkpt lat="40.5711136" lon="9.6950107"><ele>38.833333333333336</ele><time>2026-04-07T10:46:07.345Z</time></trkpt><trkpt lat="40.5710859" lon="9.6951329"><ele>39.0</ele><time>2026-04-07T10:46:08.346Z</time></trkpt><trkpt lat="40.5710571" lon="9.6952609"><ele>37.2</ele><time>2026-04-07T10:46:09.346Z</time></trkpt><trkpt lat="40.5710255" lon="9.6953819"><ele>35.4</ele><time>2026-04-07T10:46:10.346Z</time></trkpt><trkpt lat="40.5709964" lon="9.6955029"><ele>33.6</ele><time>2026-04-07T10:46:11.345Z</time></trkpt><trkpt lat="40.5709682" lon="9.6956369"><ele>31.8</ele><time>2026-04-07T10:46:12.345Z</time></trkpt><trkpt lat="40.5709394" lon="9.6957615"><ele>30.0</ele><time>2026-04-07T10:46:13.346Z</time></trkpt><trkpt lat="40.5709078" lon="9.6958882"><ele>30.0</ele><time>2026-04-07T10:46:14.346Z</time></trkpt><trkpt lat="40.5708776" lon="9.6960113"><ele>30.0</ele><time>2026-04-07T10:46:15.346Z</time></trkpt><trkpt lat="40.5708457" lon="9.6961359"><ele>30.0</ele><time>2026-04-07T10:46:16.345Z</time></trkpt><trkpt lat="40.570816" lon="9.6962579"><ele>30.0</ele><time>2026-04-07T10:46:17.346Z</time></trkpt><trkpt lat="40.5707866" lon="9.6963852"><ele>30.0</ele><time>2026-04-07T10:46:18.346Z</time></trkpt><trkpt lat="40.5707565" lon="9.6965124"><ele>30.0</ele><time>2026-04-07T10:46:19.345Z</time></trkpt><trkpt lat="40.5707226" lon="9.6966479"><ele>30.0</ele><time>2026-04-07T10:46:20.346Z</time></trkpt><trkpt lat="40.570694" lon="9.6967755"><ele>30.0</ele><time>2026-04-07T10:46:21.345Z</time></trkpt><trkpt lat="40.5706607" lon="9.6969114"><ele>30.0</ele><time>2026-04-07T10:46:22.346Z</time></trkpt><trkpt lat="40.5706296" lon="9.6970543"><ele>30.0</ele><time>2026-04-07T10:46:23.346Z</time></trkpt><trkpt lat="40.5705974" lon="9.697196"><ele>29.6</ele><time>2026-04-07T10:46:24.346Z</time></trkpt><trkpt lat="40.5705684" lon="9.6973315"><ele>29.2</ele><time>2026-04-07T10:46:25.346Z</time></trkpt><trkpt lat="40.5705385" lon="9.6974675"><ele>28.799999999999997</ele><time>2026-04-07T10:46:26.346Z</time></trkpt><trkpt lat="40.5705063" lon="9.6976044"><ele>28.4</ele><time>2026-04-07T10:46:27.345Z</time></trkpt><trkpt lat="40.570483" lon="9.6977404"><ele>28.0</ele><time>2026-04-07T10:46:28.345Z</time></trkpt><trkpt lat="40.5704717" lon="9.6978651"><ele>27.500000000000004</ele><time>2026-04-07T10:46:29.346Z</time></trkpt><trkpt lat="40.5704687" lon="9.697986"><ele>27.0</ele><time>2026-04-07T10:46:30.346Z</time></trkpt><trkpt lat="40.5704786" lon="9.6980944"><ele>26.5</ele><time>2026-04-07T10:46:31.345Z</time></trkpt><trkpt lat="40.570492" lon="9.6981773"><ele>26.0</ele><time>2026-04-07T10:46:32.345Z</time></trkpt><trkpt lat="40.5705226" lon="9.6982825"><ele>25.500000000000004</ele><time>2026-04-07T10:46:34.346Z</time></trkpt><trkpt lat="40.5705897" lon="9.6983416"><ele>25.0</ele><time>2026-04-07T10:46:38.346Z</time></trkpt><trkpt lat="40.5706478" lon="9.6982941"><ele>25.0</ele><time>2026-04-07T10:46:40.346Z</time></trkpt><trkpt lat="40.5707021" lon="9.6981927"><ele>25.0</ele><time>2026-04-07T10:46:42.346Z</time></trkpt><trkpt lat="40.570757" lon="9.6980697"><ele>25.0</ele><time>2026-04-07T10:46:44.346Z</time></trkpt><trkpt lat="40.5707969" lon="9.6980004"><ele>25.0</ele><time>2026-04-07T10:46:45.346Z</time></trkpt><trkpt lat="40.5708344" lon="9.6979313"><ele>25.0</ele><time>2026-04-07T10:46:46.346Z</time></trkpt><trkpt lat="40.5709026" lon="9.6977959"><ele>25.6</ele><time>2026-04-07T10:46:48.346Z</time></trkpt><trkpt lat="40.5709716" lon="9.6976642"><ele>26.2</ele><time>2026-04-07T10:46:50.346Z</time></trkpt><trkpt lat="40.5710072" lon="9.6975958"><ele>26.799999999999997</ele><time>2026-04-07T10:46:51.346Z</time></trkpt><trkpt lat="40.5710674" lon="9.6974899"><ele>27.4</ele><time>2026-04-07T10:46:53.346Z</time></trkpt><trkpt lat="40.5711292" lon="9.6973797"><ele>28.0</ele><time>2026-04-07T10:46:55.346Z</time></trkpt><trkpt lat="40.5711934" lon="9.6972524"><ele>28.599999999999998</ele><time>2026-04-07T10:46:57.345Z</time></trkpt><trkpt lat="40.5712295" lon="9.6971841"><ele>29.199999999999996</ele><time>2026-04-07T10:46:58.346Z</time></trkpt><trkpt lat="40.5713136" lon="9.6970635"><ele>29.8</ele><time>2026-04-07T10:47:00.346Z</time></trkpt><trkpt lat="40.5713965" lon="9.6969522"><ele>30.4</ele><time>2026-04-07T10:47:02.346Z</time></trkpt><trkpt lat="40.5714867" lon="9.6968447"><ele>31.0</ele><time>2026-04-07T10:47:04.346Z</time></trkpt><trkpt lat="40.5715333" lon="9.6967886"><ele>31.500000000000004</ele><time>2026-04-07T10:47:05.346Z</time></trkpt><trkpt lat="40.5716304" lon="9.6966778"><ele>32.0</ele><time>2026-04-07T10:47:07.346Z</time></trkpt><trkpt lat="40.5717236" lon="9.6965746"><ele>32.5</ele><time>2026-04-07T10:47:09.346Z</time></trkpt><trkpt lat="40.571768" lon="9.6965156"><ele>33.0</ele><time>2026-04-07T10:47:10.346Z</time></trkpt><trkpt lat="40.5718205" lon="9.6964625"><ele>33.5</ele><time>2026-04-07T10:47:11.345Z</time></trkpt><trkpt lat="40.5718707" lon="9.696405"><ele>34.0</ele><time>2026-04-07T10:47:12.345Z</time></trkpt><trkpt lat="40.5719197" lon="9.6963425"><ele>34.0</ele><time>2026-04-07T10:47:13.346Z</time></trkpt><trkpt lat="40.5719684" lon="9.6962748"><ele>34.0</ele><time>2026-04-07T10:47:14.346Z</time></trkpt><trkpt lat="40.572018" lon="9.6961917"><ele>34.0</ele><time>2026-04-07T10:47:15.346Z</time></trkpt><trkpt lat="40.5720704" lon="9.6960992"><ele>34.0</ele><time>2026-04-07T10:47:16.346Z</time></trkpt><trkpt lat="40.5721231" lon="9.6960105"><ele>34.0</ele><time>2026-04-07T10:47:17.346Z</time></trkpt><trkpt lat="40.572175" lon="9.6959168"><ele>34.0</ele><time>2026-04-07T10:47:18.346Z</time></trkpt><trkpt lat="40.5722287" lon="9.6958293"><ele>34.5</ele><time>2026-04-07T10:47:19.345Z</time></trkpt><trkpt lat="40.5722834" lon="9.6957427"><ele>35.0</ele><time>2026-04-07T10:47:20.346Z</time></trkpt><trkpt lat="40.5723441" lon="9.6956646"><ele>35.5</ele><time>2026-04-07T10:47:21.346Z</time></trkpt><trkpt lat="40.5723992" lon="9.6955857"><ele>36.0</ele><time>2026-04-07T10:47:22.345Z</time></trkpt><trkpt lat="40.5724462" lon="9.695511"><ele>36.5</ele><time>2026-04-07T10:47:23.346Z</time></trkpt><trkpt lat="40.5725026" lon="9.6954476"><ele>37.0</ele><time>2026-04-07T10:47:24.346Z</time></trkpt><trkpt lat="40.572557" lon="9.6953943"><ele>37.0</ele><time>2026-04-07T10:47:25.345Z</time></trkpt><trkpt lat="40.5726436" lon="9.6953245"><ele>37.0</ele><time>2026-04-07T10:47:27.346Z</time></trkpt><trkpt lat="40.572695" lon="9.6952706"><ele>37.0</ele><time>2026-04-07T10:47:29.345Z</time></trkpt><trkpt lat="40.5727696" lon="9.6952073"><ele>37.0</ele><time>2026-04-07T10:47:32.346Z</time></trkpt><trkpt lat="40.5728167" lon="9.6951005"><ele>37.0</ele><time>2026-04-07T10:47:35.346Z</time></trkpt><trkpt lat="40.572854" lon="9.6950136"><ele>37.0</ele><time>2026-04-07T10:47:37.345Z</time></trkpt><trkpt lat="40.5729036" lon="9.6949409"><ele>37.6</ele><time>2026-04-07T10:47:39.346Z</time></trkpt><trkpt lat="40.5729691" lon="9.6948749"><ele>38.2</ele><time>2026-04-07T10:47:41.345Z</time></trkpt><trkpt lat="40.573058" lon="9.694853"><ele>38.8</ele><time>2026-04-07T10:47:43.346Z</time></trkpt><trkpt lat="40.5731601" lon="9.694852"><ele>39.4</ele><time>2026-04-07T10:47:45.346Z</time></trkpt><trkpt lat="40.5732462" lon="9.6948462"><ele>40.0</ele><time>2026-04-07T10:47:47.346Z</time></trkpt><trkpt lat="40.5733384" lon="9.6948247"><ele>40.0</ele><time>2026-04-07T10:47:49.345Z</time></trkpt><trkpt lat="40.5734421" lon="9.6948153"><ele>40.0</ele><time>2026-04-07T10:47:51.345Z</time></trkpt><trkpt lat="40.5735401" lon="9.6947945"><ele>40.0</ele><time>2026-04-07T10:47:53.345Z</time></trkpt><trkpt lat="40.5736217" lon="9.6947674"><ele>40.0</ele><time>2026-04-07T10:47:55.346Z</time></trkpt><trkpt lat="40.5736992" lon="9.6947585"><ele>40.0</ele><time>2026-04-07T10:47:57.346Z</time></trkpt><trkpt lat="40.5737649" lon="9.6947337"><ele>40.0</ele><time>2026-04-07T10:47:59.346Z</time></trkpt><trkpt lat="40.573869" lon="9.6947188"><ele>39.6</ele><time>2026-04-07T10:48:01.346Z</time></trkpt><trkpt lat="40.5739517" lon="9.6946805"><ele>39.2</ele><time>2026-04-07T10:48:03.346Z</time></trkpt><trkpt lat="40.5740476" lon="9.6946338"><ele>38.8</ele><time>2026-04-07T10:48:05.345Z</time></trkpt><trkpt lat="40.5741359" lon="9.6945948"><ele>38.4</ele><time>2026-04-07T10:48:07.346Z</time></trkpt><trkpt lat="40.5742546" lon="9.6945556"><ele>38.0</ele><time>2026-04-07T10:48:09.345Z</time></trkpt><trkpt lat="40.5743205" lon="9.6945368"><ele>38.0</ele><time>2026-04-07T10:48:10.346Z</time></trkpt><trkpt lat="40.5743916" lon="9.6945175"><ele>38.0</ele><time>2026-04-07T10:48:11.345Z</time></trkpt><trkpt lat="40.5744686" lon="9.6944954"><ele>38.0</ele><time>2026-04-07T10:48:12.346Z</time></trkpt><trkpt lat="40.5745562" lon="9.6944739"><ele>38.0</ele><time>2026-04-07T10:48:13.346Z</time></trkpt><trkpt lat="40.5746441" lon="9.6944487"><ele>38.0</ele><time>2026-04-07T10:48:14.345Z</time></trkpt><trkpt lat="40.5747366" lon="9.6944041"><ele>38.0</ele><time>2026-04-07T10:48:15.346Z</time></trkpt><trkpt lat="40.5748347" lon="9.6943556"><ele>37.4</ele><time>2026-04-07T10:48:16.345Z</time></trkpt><trkpt lat="40.5749297" lon="9.6943138"><ele>36.8</ele><time>2026-04-07T10:48:17.346Z</time></trkpt><trkpt lat="40.5750223" lon="9.694263"><ele>36.2</ele><time>2026-04-07T10:48:18.346Z</time></trkpt><trkpt lat="40.5751235" lon="9.6942075"><ele>35.6</ele><time>2026-04-07T10:48:19.346Z</time></trkpt><trkpt lat="40.5752237" lon="9.6941666"><ele>35.0</ele><time>2026-04-07T10:48:20.346Z</time></trkpt><trkpt lat="40.5753191" lon="9.6941174"><ele>34.2</ele><time>2026-04-07T10:48:21.346Z</time></trkpt><trkpt lat="40.5754168" lon="9.6940889"><ele>33.4</ele><time>2026-04-07T10:48:22.346Z</time></trkpt><trkpt lat="40.5754968" lon="9.6940301"><ele>32.6</ele><time>2026-04-07T10:48:23.345Z</time></trkpt><trkpt lat="40.5755785" lon="9.6939924"><ele>31.8</ele><time>2026-04-07T10:48:24.346Z</time></trkpt><trkpt lat="40.5756574" lon="9.6939438"><ele>31.0</ele><time>2026-04-07T10:48:25.346Z</time></trkpt><trkpt lat="40.5757366" lon="9.693903"><ele>31.000000000000004</ele><time>2026-04-07T10:48:26.346Z</time></trkpt><trkpt lat="40.5758111" lon="9.6938641"><ele>31.0</ele><time>2026-04-07T10:48:27.346Z</time></trkpt><trkpt lat="40.5758757" lon="9.6938346"><ele>31.0</ele><time>2026-04-07T10:48:28.346Z</time></trkpt><trkpt lat="40.5759629" lon="9.6937715"><ele>31.0</ele><time>2026-04-07T10:48:30.346Z</time></trkpt><trkpt lat="40.5760541" lon="9.6937157"><ele>31.000000000000004</ele><time>2026-04-07T10:48:32.346Z</time></trkpt><trkpt lat="40.5761192" lon="9.6936902"><ele>31.0</ele><time>2026-04-07T10:48:33.346Z</time></trkpt><trkpt lat="40.5761935" lon="9.6936618"><ele>31.25</ele><time>2026-04-07T10:48:34.345Z</time></trkpt><trkpt lat="40.5762745" lon="9.6936253"><ele>31.5</ele><time>2026-04-07T10:48:35.346Z</time></trkpt><trkpt lat="40.5763557" lon="9.6935874"><ele>31.75</ele><time>2026-04-07T10:48:36.346Z</time></trkpt><trkpt lat="40.5765087" lon="9.6935443"><ele>32.0</ele><time>2026-04-07T10:48:38.346Z</time></trkpt><trkpt lat="40.5766182" lon="9.6936161"><ele>31.999999999999996</ele><time>2026-04-07T10:48:40.346Z</time></trkpt><trkpt lat="40.5766608" lon="9.6936783"><ele>32.0</ele><time>2026-04-07T10:48:41.345Z</time></trkpt><trkpt lat="40.5766948" lon="9.6937578"><ele>32.0</ele><time>2026-04-07T10:48:42.346Z</time></trkpt><trkpt lat="40.5767417" lon="9.6938429"><ele>32.0</ele><time>2026-04-07T10:48:43.346Z</time></trkpt><trkpt lat="40.5767889" lon="9.6939424"><ele>31.999999999999996</ele><time>2026-04-07T10:48:44.345Z</time></trkpt><trkpt lat="40.5768358" lon="9.694049"><ele>32.0</ele><time>2026-04-07T10:48:45.345Z</time></trkpt><trkpt lat="40.5768853" lon="9.6941592"><ele>31.999999999999996</ele><time>2026-04-07T10:48:46.346Z</time></trkpt><trkpt lat="40.5769323" lon="9.6942684"><ele>32.0</ele><time>2026-04-07T10:48:47.345Z</time></trkpt><trkpt lat="40.5769746" lon="9.6943703"><ele>32.0</ele><time>2026-04-07T10:48:48.345Z</time></trkpt><trkpt lat="40.5770165" lon="9.6944683"><ele>32.0</ele><time>2026-04-07T10:48:49.346Z</time></trkpt><trkpt lat="40.5770523" lon="9.6945568"><ele>31.999999999999996</ele><time>2026-04-07T10:48:50.346Z</time></trkpt><trkpt lat="40.577088" lon="9.6946362"><ele>32.0</ele><time>2026-04-07T10:48:51.346Z</time></trkpt><trkpt lat="40.5771212" lon="9.6947089"><ele>32.800000000000004</ele><time>2026-04-07T10:48:52.345Z</time></trkpt><trkpt lat="40.5771672" lon="9.6948183"><ele>33.6</ele><time>2026-04-07T10:48:54.345Z</time></trkpt><trkpt lat="40.5772226" lon="9.6949272"><ele>34.400000000000006</ele><time>2026-04-07T10:48:56.345Z</time></trkpt><trkpt lat="40.5772853" lon="9.6950553"><ele>35.2</ele><time>2026-04-07T10:48:58.345Z</time></trkpt><trkpt lat="40.5773447" lon="9.6951861"><ele>36.0</ele><time>2026-04-07T10:49:00.346Z</time></trkpt><trkpt lat="40.5774096" lon="9.6953038"><ele>36.00000000000001</ele><time>2026-04-07T10:49:02.346Z</time></trkpt><trkpt lat="40.5774733" lon="9.6954288"><ele>36.0</ele><time>2026-04-07T10:49:04.346Z</time></trkpt><trkpt lat="40.5775056" lon="9.6955"><ele>36.0</ele><time>2026-04-07T10:49:05.345Z</time></trkpt><trkpt lat="40.5775383" lon="9.695572"><ele>36.0</ele><time>2026-04-07T10:49:06.346Z</time></trkpt><trkpt lat="40.577569" lon="9.69565"><ele>36.0</ele><time>2026-04-07T10:49:07.345Z</time></trkpt><trkpt lat="40.577593" lon="9.6957325"><ele>36.00000000000001</ele><time>2026-04-07T10:49:08.345Z</time></trkpt><trkpt lat="40.577613" lon="9.6958137"><ele>36.0</ele><time>2026-04-07T10:49:09.346Z</time></trkpt><trkpt lat="40.5776314" lon="9.6958965"><ele>36.0</ele><time>2026-04-07T10:49:10.345Z</time></trkpt><trkpt lat="40.5776719" lon="9.6960535"><ele>36.0</ele><time>2026-04-07T10:49:12.345Z</time></trkpt><trkpt lat="40.5776966" lon="9.6961306"><ele>36.0</ele><time>2026-04-07T10:49:13.346Z</time></trkpt><trkpt lat="40.5777099" lon="9.6962709"><ele>36.0</ele><time>2026-04-07T10:49:15.346Z</time></trkpt><trkpt lat="40.5777212" lon="9.6963662"><ele>36.0</ele><time>2026-04-07T10:49:18.346Z</time></trkpt><trkpt lat="40.5777557" lon="9.6964559"><ele>36.0</ele><time>2026-04-07T10:50:27.346Z</time></trkpt><trkpt lat="40.5778017" lon="9.6965583"><ele>36.666666666666664</ele><time>2026-04-07T10:50:29.346Z</time></trkpt><trkpt lat="40.5778664" lon="9.6966419"><ele>37.333333333333336</ele><time>2026-04-07T10:50:31.346Z</time></trkpt><trkpt lat="40.5779546" lon="9.6966117"><ele>38.0</ele><time>2026-04-07T10:50:33.346Z</time></trkpt><trkpt lat="40.577995" lon="9.6965391"><ele>38.66666666666667</ele><time>2026-04-07T10:50:34.346Z</time></trkpt><trkpt lat="40.578039" lon="9.6964504"><ele>39.333333333333336</ele><time>2026-04-07T10:50:35.346Z</time></trkpt><trkpt lat="40.5780939" lon="9.6963678"><ele>40.0</ele><time>2026-04-07T10:50:36.346Z</time></trkpt><trkpt lat="40.5781485" lon="9.696292"><ele>40.0</ele><time>2026-04-07T10:50:37.346Z</time></trkpt><trkpt lat="40.5782122" lon="9.6962184"><ele>40.0</ele><time>2026-04-07T10:50:38.345Z</time></trkpt><trkpt lat="40.5782783" lon="9.6961408"><ele>40.0</ele><time>2026-04-07T10:50:39.346Z</time></trkpt><trkpt lat="40.5783479" lon="9.6960655"><ele>40.0</ele><time>2026-04-07T10:50:40.345Z</time></trkpt><trkpt lat="40.5784196" lon="9.6959898"><ele>40.0</ele><time>2026-04-07T10:50:41.346Z</time></trkpt><trkpt lat="40.57849" lon="9.6959109"><ele>40.0</ele><time>2026-04-07T10:50:42.345Z</time></trkpt><trkpt lat="40.5785599" lon="9.6958301"><ele>40.0</ele><time>2026-04-07T10:50:43.345Z</time></trkpt><trkpt lat="40.5786315" lon="9.6957509"><ele>40.0</ele><time>2026-04-07T10:50:44.345Z</time></trkpt><trkpt lat="40.5787045" lon="9.6956743"><ele>40.0</ele><time>2026-04-07T10:50:45.345Z</time></trkpt><trkpt lat="40.5787769" lon="9.695597"><ele>40.0</ele><time>2026-04-07T10:50:46.346Z</time></trkpt><trkpt lat="40.5788506" lon="9.6955262"><ele>40.0</ele><time>2026-04-07T10:50:47.346Z</time></trkpt><trkpt lat="40.5789285" lon="9.695467"><ele>40.5</ele><time>2026-04-07T10:50:48.345Z</time></trkpt><trkpt lat="40.579109" lon="9.6954263"><ele>41.0</ele><time>2026-04-07T10:50:50.346Z</time></trkpt><trkpt lat="40.5792039" lon="9.6954507"><ele>41.5</ele><time>2026-04-07T10:50:51.346Z</time></trkpt><trkpt lat="40.5793041" lon="9.6954835"><ele>42.0</ele><time>2026-04-07T10:50:52.346Z</time></trkpt><trkpt lat="40.5794088" lon="9.6955173"><ele>42.6</ele><time>2026-04-07T10:50:53.346Z</time></trkpt><trkpt lat="40.5795188" lon="9.6955518"><ele>43.2</ele><time>2026-04-07T10:50:54.346Z</time></trkpt><trkpt lat="40.5796257" lon="9.6955827"><ele>43.8</ele><time>2026-04-07T10:50:55.346Z</time></trkpt><trkpt lat="40.5797243" lon="9.6956145"><ele>44.4</ele><time>2026-04-07T10:50:56.346Z</time></trkpt><trkpt lat="40.5798161" lon="9.6956432"><ele>45.0</ele><time>2026-04-07T10:50:57.346Z</time></trkpt><trkpt lat="40.5799139" lon="9.6956723"><ele>45.0</ele><time>2026-04-07T10:50:58.346Z</time></trkpt><trkpt lat="40.5800188" lon="9.695706"><ele>45.0</ele><time>2026-04-07T10:50:59.346Z</time></trkpt><trkpt lat="40.5801314" lon="9.6957502"><ele>45.0</ele><time>2026-04-07T10:51:00.346Z</time></trkpt><trkpt lat="40.5802491" lon="9.6957944"><ele>45.0</ele><time>2026-04-07T10:51:01.346Z</time></trkpt><trkpt lat="40.5803682" lon="9.6958383"><ele>46.25</ele><time>2026-04-07T10:51:02.346Z</time></trkpt><trkpt lat="40.5804907" lon="9.6958781"><ele>47.5</ele><time>2026-04-07T10:51:03.346Z</time></trkpt><trkpt lat="40.5806063" lon="9.6959273"><ele>48.75</ele><time>2026-04-07T10:51:04.345Z</time></trkpt><trkpt lat="40.5807389" lon="9.6959682"><ele>50.0</ele><time>2026-04-07T10:51:05.345Z</time></trkpt><trkpt lat="40.5808688" lon="9.6960024"><ele>50.0</ele><time>2026-04-07T10:51:06.346Z</time></trkpt><trkpt lat="40.5810023" lon="9.6960264"><ele>50.0</ele><time>2026-04-07T10:51:07.346Z</time></trkpt><trkpt lat="40.5811309" lon="9.6960148"><ele>50.0</ele><time>2026-04-07T10:51:08.346Z</time></trkpt><trkpt lat="40.581258" lon="9.6959802"><ele>50.0</ele><time>2026-04-07T10:51:09.345Z</time></trkpt><trkpt lat="40.5813885" lon="9.6959313"><ele>50.66666666666667</ele><time>2026-04-07T10:51:10.346Z</time></trkpt><trkpt lat="40.5816587" lon="9.695804"><ele>51.33333333333333</ele><time>2026-04-07T10:51:12.346Z</time></trkpt><trkpt lat="40.5818008" lon="9.6957298"><ele>52.0</ele><time>2026-04-07T10:51:13.346Z</time></trkpt><trkpt lat="40.5819495" lon="9.6956595"><ele>52.25</ele><time>2026-04-07T10:51:14.346Z</time></trkpt><trkpt lat="40.5820889" lon="9.6955913"><ele>52.5</ele><time>2026-04-07T10:51:15.345Z</time></trkpt><trkpt lat="40.5822242" lon="9.6955257"><ele>52.75</ele><time>2026-04-07T10:51:16.346Z</time></trkpt><trkpt lat="40.5823559" lon="9.6954637"><ele>53.0</ele><time>2026-04-07T10:51:17.346Z</time></trkpt><trkpt lat="40.5824865" lon="9.6953988"><ele>53.0</ele><time>2026-04-07T10:51:18.345Z</time></trkpt><trkpt lat="40.5826107" lon="9.6953277"><ele>53.0</ele><time>2026-04-07T10:51:19.346Z</time></trkpt><trkpt lat="40.5827296" lon="9.6952544"><ele>53.0</ele><time>2026-04-07T10:51:20.346Z</time></trkpt><trkpt lat="40.5828447" lon="9.6951665"><ele>53.0</ele><time>2026-04-07T10:51:21.346Z</time></trkpt><trkpt lat="40.5829554" lon="9.6950684"><ele>52.0</ele><time>2026-04-07T10:51:22.346Z</time></trkpt><trkpt lat="40.5830587" lon="9.6949547"><ele>51.0</ele><time>2026-04-07T10:51:23.346Z</time></trkpt><trkpt lat="40.5831667" lon="9.6948385"><ele>50.0</ele><time>2026-04-07T10:51:24.346Z</time></trkpt><trkpt lat="40.5832828" lon="9.6947225"><ele>49.0</ele><time>2026-04-07T10:51:25.346Z</time></trkpt><trkpt lat="40.5833993" lon="9.6946051"><ele>49.0</ele><time>2026-04-07T10:51:26.345Z</time></trkpt><trkpt lat="40.5835127" lon="9.694486"><ele>49.0</ele><time>2026-04-07T10:51:27.346Z</time></trkpt><trkpt lat="40.5836288" lon="9.6943664"><ele>49.0</ele><time>2026-04-07T10:51:28.345Z</time></trkpt><trkpt lat="40.5837451" lon="9.6942503"><ele>49.0</ele><time>2026-04-07T10:51:29.346Z</time></trkpt><trkpt lat="40.5838659" lon="9.6941377"><ele>47.666666666666664</ele><time>2026-04-07T10:51:30.346Z</time></trkpt><trkpt lat="40.583995" lon="9.6940251"><ele>46.33333333333333</ele><time>2026-04-07T10:51:31.346Z</time></trkpt><trkpt lat="40.5841257" lon="9.6939038"><ele>45.0</ele><time>2026-04-07T10:51:32.345Z</time></trkpt><trkpt lat="40.5842617" lon="9.6937792"><ele>45.0</ele><time>2026-04-07T10:51:33.346Z</time></trkpt><trkpt lat="40.584403" lon="9.6936566"><ele>45.0</ele><time>2026-04-07T10:51:34.346Z</time></trkpt><trkpt lat="40.5845475" lon="9.6935287"><ele>45.0</ele><time>2026-04-07T10:51:35.346Z</time></trkpt><trkpt lat="40.5846932" lon="9.6934028"><ele>44.0</ele><time>2026-04-07T10:51:36.346Z</time></trkpt><trkpt lat="40.5848421" lon="9.6932741"><ele>43.0</ele><time>2026-04-07T10:51:37.346Z</time></trkpt><trkpt lat="40.5849848" lon="9.6931462"><ele>42.0</ele><time>2026-04-07T10:51:38.346Z</time></trkpt><trkpt lat="40.5851271" lon="9.6930243"><ele>42.0</ele><time>2026-04-07T10:51:39.346Z</time></trkpt><trkpt lat="40.5852629" lon="9.6929065"><ele>42.0</ele><time>2026-04-07T10:51:40.346Z</time></trkpt><trkpt lat="40.5853911" lon="9.6928061"><ele>42.0</ele><time>2026-04-07T10:51:41.345Z</time></trkpt><trkpt lat="40.5855143" lon="9.6927388"><ele>42.0</ele><time>2026-04-07T10:51:42.346Z</time></trkpt><trkpt lat="40.5856225" lon="9.6926956"><ele>45.25</ele><time>2026-04-07T10:51:43.346Z</time></trkpt><trkpt lat="40.5857283" lon="9.6926583"><ele>48.5</ele><time>2026-04-07T10:51:44.346Z</time></trkpt><trkpt lat="40.5858395" lon="9.6926247"><ele>51.75</ele><time>2026-04-07T10:51:45.346Z</time></trkpt><trkpt lat="40.5859647" lon="9.692597"><ele>55.0</ele><time>2026-04-07T10:51:46.346Z</time></trkpt><trkpt lat="40.5860913" lon="9.6925647"><ele>54.5</ele><time>2026-04-07T10:51:47.346Z</time></trkpt><trkpt lat="40.5862139" lon="9.6925337"><ele>54.0</ele><time>2026-04-07T10:51:48.345Z</time></trkpt><trkpt lat="40.5863451" lon="9.6925031"><ele>53.5</ele><time>2026-04-07T10:51:49.346Z</time></trkpt><trkpt lat="40.586483" lon="9.6924686"><ele>53.0</ele><time>2026-04-07T10:51:50.346Z</time></trkpt><trkpt lat="40.5869144" lon="9.692356"><ele>52.25</ele><time>2026-04-07T10:51:53.346Z</time></trkpt><trkpt lat="40.5870636" lon="9.6923217"><ele>51.5</ele><time>2026-04-07T10:51:54.345Z</time></trkpt><trkpt lat="40.5872053" lon="9.6922945"><ele>50.75</ele><time>2026-04-07T10:51:55.345Z</time></trkpt><trkpt lat="40.587346" lon="9.6922835"><ele>50.0</ele><time>2026-04-07T10:51:56.346Z</time></trkpt><trkpt lat="40.5874857" lon="9.6922858"><ele>50.0</ele><time>2026-04-07T10:51:57.346Z</time></trkpt><trkpt lat="40.5876251" lon="9.6923118"><ele>50.0</ele><time>2026-04-07T10:51:58.346Z</time></trkpt><trkpt lat="40.5877613" lon="9.692368"><ele>50.0</ele><time>2026-04-07T10:51:59.346Z</time></trkpt><trkpt lat="40.5878988" lon="9.6924344"><ele>50.0</ele><time>2026-04-07T10:52:00.346Z</time></trkpt><trkpt lat="40.5880361" lon="9.6925205"><ele>49.0</ele><time>2026-04-07T10:52:01.346Z</time></trkpt><trkpt lat="40.5881791" lon="9.6926177"><ele>48.0</ele><time>2026-04-07T10:52:02.346Z</time></trkpt><trkpt lat="40.5883279" lon="9.6927178"><ele>47.0</ele><time>2026-04-07T10:52:03.345Z</time></trkpt><trkpt lat="40.5884849" lon="9.6928041"><ele>46.33333333333333</ele><time>2026-04-07T10:52:04.346Z</time></trkpt><trkpt lat="40.5886494" lon="9.6928903"><ele>45.666666666666664</ele><time>2026-04-07T10:52:05.346Z</time></trkpt><trkpt lat="40.588825" lon="9.6929652"><ele>45.0</ele><time>2026-04-07T10:52:06.346Z</time></trkpt><trkpt lat="40.5890127" lon="9.6930413"><ele>46.66666666666667</ele><time>2026-04-07T10:52:07.346Z</time></trkpt><trkpt lat="40.5892109" lon="9.6931151"><ele>48.333333333333336</ele><time>2026-04-07T10:52:08.346Z</time></trkpt><trkpt lat="40.5894131" lon="9.6931845"><ele>50.0</ele><time>2026-04-07T10:52:09.346Z</time></trkpt><trkpt lat="40.5896198" lon="9.6932439"><ele>50.0</ele><time>2026-04-07T10:52:10.345Z</time></trkpt><trkpt lat="40.5898318" lon="9.6932916"><ele>50.0</ele><time>2026-04-07T10:52:11.346Z</time></trkpt><trkpt lat="40.5900494" lon="9.6933353"><ele>50.0</ele><time>2026-04-07T10:52:12.346Z</time></trkpt><trkpt lat="40.5902589" lon="9.6933761"><ele>49.333333333333336</ele><time>2026-04-07T10:52:13.346Z</time></trkpt><trkpt lat="40.5904652" lon="9.6934192"><ele>48.66666666666667</ele><time>2026-04-07T10:52:14.346Z</time></trkpt><trkpt lat="40.5906711" lon="9.6934596"><ele>48.0</ele><time>2026-04-07T10:52:15.346Z</time></trkpt><trkpt lat="40.5908774" lon="9.6934992"><ele>48.0</ele><time>2026-04-07T10:52:16.345Z</time></trkpt><trkpt lat="40.5910808" lon="9.6935399"><ele>48.0</ele><time>2026-04-07T10:52:17.346Z</time></trkpt><trkpt lat="40.5912875" lon="9.6935805"><ele>48.0</ele><time>2026-04-07T10:52:18.346Z</time></trkpt><trkpt lat="40.5914942" lon="9.6936175"><ele>48.33333333333333</ele><time>2026-04-07T10:52:19.346Z</time></trkpt><trkpt lat="40.5917076" lon="9.6936572"><ele>48.666666666666664</ele><time>2026-04-07T10:52:20.346Z</time></trkpt><trkpt lat="40.5919216" lon="9.6937011"><ele>49.0</ele><time>2026-04-07T10:52:21.346Z</time></trkpt><trkpt lat="40.5921412" lon="9.6937399"><ele>49.0</ele><time>2026-04-07T10:52:22.346Z</time></trkpt><trkpt lat="40.5923615" lon="9.6937794"><ele>49.0</ele><time>2026-04-07T10:52:23.345Z</time></trkpt><trkpt lat="40.592581" lon="9.6938174"><ele>49.0</ele><time>2026-04-07T10:52:24.346Z</time></trkpt><trkpt lat="40.5928036" lon="9.6938525"><ele>49.33333333333333</ele><time>2026-04-07T10:52:25.346Z</time></trkpt><trkpt lat="40.593026" lon="9.6938817"><ele>49.66666666666667</ele><time>2026-04-07T10:52:26.346Z</time></trkpt><trkpt lat="40.5932479" lon="9.6939064"><ele>50.0</ele><time>2026-04-07T10:52:27.346Z</time></trkpt><trkpt lat="40.5934691" lon="9.6939322"><ele>49.66666666666667</ele><time>2026-04-07T10:52:28.346Z</time></trkpt><trkpt lat="40.5936919" lon="9.6939586"><ele>49.33333333333333</ele><time>2026-04-07T10:52:29.346Z</time></trkpt><trkpt lat="40.5939067" lon="9.6939836"><ele>49.0</ele><time>2026-04-07T10:52:30.345Z</time></trkpt><trkpt lat="40.5941237" lon="9.6940111"><ele>49.0</ele><time>2026-04-07T10:52:31.346Z</time></trkpt><trkpt lat="40.5943435" lon="9.6940368"><ele>49.0</ele><time>2026-04-07T10:52:32.346Z</time></trkpt><trkpt lat="40.5945612" lon="9.6940586"><ele>49.0</ele><time>2026-04-07T10:52:33.345Z</time></trkpt><trkpt lat="40.5947781" lon="9.6940812"><ele>50.0</ele><time>2026-04-07T10:52:34.346Z</time></trkpt><trkpt lat="40.5949967" lon="9.6941034"><ele>51.0</ele><time>2026-04-07T10:52:35.345Z</time></trkpt><trkpt lat="40.5952187" lon="9.6941291"><ele>52.0</ele><time>2026-04-07T10:52:36.345Z</time></trkpt><trkpt lat="40.5954356" lon="9.6941549"><ele>53.666666666666664</ele><time>2026-04-07T10:52:37.345Z</time></trkpt><trkpt lat="40.5956561" lon="9.6941782"><ele>55.33333333333333</ele><time>2026-04-07T10:52:38.346Z</time></trkpt><trkpt lat="40.5958805" lon="9.6942031"><ele>57.0</ele><time>2026-04-07T10:52:39.345Z</time></trkpt><trkpt lat="40.5961069" lon="9.6942266"><ele>55.5</ele><time>2026-04-07T10:52:40.346Z</time></trkpt><trkpt lat="40.5963345" lon="9.6942528"><ele>54.0</ele><time>2026-04-07T10:52:41.346Z</time></trkpt><trkpt lat="40.5965632" lon="9.6942737"><ele>54.0</ele><time>2026-04-07T10:52:42.346Z</time></trkpt><trkpt lat="40.5967914" lon="9.6943014"><ele>54.0</ele><time>2026-04-07T10:52:43.346Z</time></trkpt><trkpt lat="40.5970227" lon="9.6943248"><ele>53.0</ele><time>2026-04-07T10:52:44.346Z</time></trkpt><trkpt lat="40.5972535" lon="9.6943488"><ele>52.0</ele><time>2026-04-07T10:52:45.346Z</time></trkpt><trkpt lat="40.5974815" lon="9.6943717"><ele>52.0</ele><time>2026-04-07T10:52:46.346Z</time></trkpt><trkpt lat="40.5977076" lon="9.6943949"><ele>52.0</ele><time>2026-04-07T10:52:47.346Z</time></trkpt><trkpt lat="40.5979308" lon="9.6944207"><ele>49.0</ele><time>2026-04-07T10:52:48.342Z</time></trkpt><trkpt lat="40.5981529" lon="9.69445"><ele>46.0</ele><time>2026-04-07T10:52:49.346Z</time></trkpt><trkpt lat="40.5983784" lon="9.694475"><ele>43.0</ele><time>2026-04-07T10:52:50.346Z</time></trkpt><trkpt lat="40.5986027" lon="9.6945029"><ele>41.0</ele><time>2026-04-07T10:52:51.346Z</time></trkpt><trkpt lat="40.5988295" lon="9.6945305"><ele>39.0</ele><time>2026-04-07T10:52:52.346Z</time></trkpt><trkpt lat="40.599059" lon="9.6945556"><ele>39.0</ele><time>2026-04-07T10:52:53.346Z</time></trkpt><trkpt lat="40.5992903" lon="9.6945806"><ele>39.0</ele><time>2026-04-07T10:52:54.346Z</time></trkpt><trkpt lat="40.5995192" lon="9.6946059"><ele>38.0</ele><time>2026-04-07T10:52:55.346Z</time></trkpt><trkpt lat="40.5997511" lon="9.6946319"><ele>37.0</ele><time>2026-04-07T10:52:56.346Z</time></trkpt><trkpt lat="40.5999852" lon="9.694661"><ele>37.0</ele><time>2026-04-07T10:52:57.346Z</time></trkpt><trkpt lat="40.6002199" lon="9.6946972"><ele>37.0</ele><time>2026-04-07T10:52:58.346Z</time></trkpt><trkpt lat="40.6004506" lon="9.694735"><ele>36.0</ele><time>2026-04-07T10:52:59.346Z</time></trkpt><trkpt lat="40.6006815" lon="9.6947851"><ele>35.0</ele><time>2026-04-07T10:53:00.346Z</time></trkpt><trkpt lat="40.6009157" lon="9.694845"><ele>35.0</ele><time>2026-04-07T10:53:01.346Z</time></trkpt><trkpt lat="40.6011481" lon="9.6949063"><ele>35.0</ele><time>2026-04-07T10:53:02.345Z</time></trkpt><trkpt lat="40.6013805" lon="9.6949786"><ele>35.5</ele><time>2026-04-07T10:53:03.345Z</time></trkpt><trkpt lat="40.601606" lon="9.695053"><ele>36.0</ele><time>2026-04-07T10:53:04.346Z</time></trkpt><trkpt lat="40.6018264" lon="9.6951343"><ele>36.0</ele><time>2026-04-07T10:53:05.345Z</time></trkpt><trkpt lat="40.6020469" lon="9.6952279"><ele>36.0</ele><time>2026-04-07T10:53:06.346Z</time></trkpt><trkpt lat="40.6022652" lon="9.6953253"><ele>33.0</ele><time>2026-04-07T10:53:07.346Z</time></trkpt><trkpt lat="40.6024856" lon="9.695431"><ele>30.0</ele><time>2026-04-07T10:53:08.346Z</time></trkpt><trkpt lat="40.6026962" lon="9.6955498"><ele>31.5</ele><time>2026-04-07T10:53:09.345Z</time></trkpt><trkpt lat="40.6029069" lon="9.6956765"><ele>33.0</ele><time>2026-04-07T10:53:10.346Z</time></trkpt><trkpt lat="40.6031129" lon="9.6958087"><ele>33.0</ele><time>2026-04-07T10:53:11.346Z</time></trkpt><trkpt lat="40.6033192" lon="9.6959413"><ele>33.0</ele><time>2026-04-07T10:53:12.345Z</time></trkpt><trkpt lat="40.6035256" lon="9.6960822"><ele>33.0</ele><time>2026-04-07T10:53:13.346Z</time></trkpt><trkpt lat="40.6037269" lon="9.6962303"><ele>33.0</ele><time>2026-04-07T10:53:14.346Z</time></trkpt><trkpt lat="40.6039274" lon="9.696388"><ele>33.0</ele><time>2026-04-07T10:53:15.346Z</time></trkpt><trkpt lat="40.6041248" lon="9.6965536"><ele>33.0</ele><time>2026-04-07T10:53:16.345Z</time></trkpt><trkpt lat="40.6043186" lon="9.6967224"><ele>33.5</ele><time>2026-04-07T10:53:17.345Z</time></trkpt><trkpt lat="40.6045081" lon="9.6968972"><ele>34.0</ele><time>2026-04-07T10:53:18.346Z</time></trkpt><trkpt lat="40.6046871" lon="9.6970757"><ele>34.0</ele><time>2026-04-07T10:53:19.346Z</time></trkpt><trkpt lat="40.6048535" lon="9.6972517"><ele>34.0</ele><time>2026-04-07T10:53:20.345Z</time></trkpt><trkpt lat="40.605015" lon="9.6974283"><ele>34.0</ele><time>2026-04-07T10:53:21.346Z</time></trkpt><trkpt lat="40.60517" lon="9.6976067"><ele>34.333333333333336</ele><time>2026-04-07T10:53:22.346Z</time></trkpt><trkpt lat="40.6053273" lon="9.697788"><ele>34.666666666666664</ele><time>2026-04-07T10:53:23.346Z</time></trkpt><trkpt lat="40.605488" lon="9.6979688"><ele>35.0</ele><time>2026-04-07T10:53:24.346Z</time></trkpt><trkpt lat="40.605648" lon="9.6981516"><ele>35.0</ele><time>2026-04-07T10:53:25.346Z</time></trkpt><trkpt lat="40.6058069" lon="9.6983386"><ele>35.0</ele><time>2026-04-07T10:53:26.346Z</time></trkpt><trkpt lat="40.6059719" lon="9.6985329"><ele>35.0</ele><time>2026-04-07T10:53:27.345Z</time></trkpt><trkpt lat="40.6061354" lon="9.6987329"><ele>37.0</ele><time>2026-04-07T10:53:28.345Z</time></trkpt><trkpt lat="40.606306" lon="9.6989303"><ele>39.0</ele><time>2026-04-07T10:53:29.346Z</time></trkpt><trkpt lat="40.6064758" lon="9.6991328"><ele>39.0</ele><time>2026-04-07T10:53:30.346Z</time></trkpt><trkpt lat="40.6066487" lon="9.6993327"><ele>39.0</ele><time>2026-04-07T10:53:31.345Z</time></trkpt><trkpt lat="40.6068229" lon="9.6995363"><ele>38.5</ele><time>2026-04-07T10:53:32.345Z</time></trkpt><trkpt lat="40.6069975" lon="9.6997371"><ele>38.0</ele><time>2026-04-07T10:53:33.346Z</time></trkpt><trkpt lat="40.6071718" lon="9.6999394"><ele>38.0</ele><time>2026-04-07T10:53:34.346Z</time></trkpt><trkpt lat="40.6073515" lon="9.7001371"><ele>38.0</ele><time>2026-04-07T10:53:35.346Z</time></trkpt><trkpt lat="40.6075332" lon="9.7003381"><ele>39.0</ele><time>2026-04-07T10:53:36.346Z</time></trkpt><trkpt lat="40.6077184" lon="9.7005382"><ele>40.0</ele><time>2026-04-07T10:53:37.345Z</time></trkpt><trkpt lat="40.6079158" lon="9.7007355"><ele>40.0</ele><time>2026-04-07T10:53:38.346Z</time></trkpt><trkpt lat="40.6081172" lon="9.7009353"><ele>40.0</ele><time>2026-04-07T10:53:39.345Z</time></trkpt><trkpt lat="40.6083302" lon="9.7011237"><ele>40.0</ele><time>2026-04-07T10:53:40.346Z</time></trkpt><trkpt lat="40.6085427" lon="9.7013111"><ele>40.0</ele><time>2026-04-07T10:53:41.346Z</time></trkpt><trkpt lat="40.6087628" lon="9.701497"><ele>40.0</ele><time>2026-04-07T10:53:42.345Z</time></trkpt><trkpt lat="40.6089891" lon="9.7016809"><ele>40.0</ele><time>2026-04-07T10:53:43.346Z</time></trkpt><trkpt lat="40.6092168" lon="9.7018639"><ele>38.5</ele><time>2026-04-07T10:53:44.346Z</time></trkpt><trkpt lat="40.6094534" lon="9.7020351"><ele>37.0</ele><time>2026-04-07T10:53:45.345Z</time></trkpt><trkpt lat="40.6096883" lon="9.7021987"><ele>37.0</ele><time>2026-04-07T10:53:46.345Z</time></trkpt><trkpt lat="40.6099253" lon="9.7023543"><ele>37.0</ele><time>2026-04-07T10:53:47.345Z</time></trkpt><trkpt lat="40.610154" lon="9.7024981"><ele>37.5</ele><time>2026-04-07T10:53:48.346Z</time></trkpt><trkpt lat="40.6103773" lon="9.7026321"><ele>38.0</ele><time>2026-04-07T10:53:49.346Z</time></trkpt><trkpt lat="40.6105982" lon="9.7027593"><ele>36.5</ele><time>2026-04-07T10:53:50.346Z</time></trkpt><trkpt lat="40.61082" lon="9.7028879"><ele>35.0</ele><time>2026-04-07T10:53:51.346Z</time></trkpt><trkpt lat="40.6110435" lon="9.7030062"><ele>35.5</ele><time>2026-04-07T10:53:52.346Z</time></trkpt><trkpt lat="40.6112649" lon="9.7031251"><ele>36.0</ele><time>2026-04-07T10:53:53.346Z</time></trkpt><trkpt lat="40.6114906" lon="9.7032368"><ele>36.0</ele><time>2026-04-07T10:53:54.346Z</time></trkpt><trkpt lat="40.6117161" lon="9.7033458"><ele>36.0</ele><time>2026-04-07T10:53:55.345Z</time></trkpt><trkpt lat="40.611946" lon="9.7034518"><ele>37.0</ele><time>2026-04-07T10:53:56.345Z</time></trkpt><trkpt lat="40.6121746" lon="9.7035565"><ele>38.0</ele><time>2026-04-07T10:53:57.346Z</time></trkpt><trkpt lat="40.6124039" lon="9.7036661"><ele>36.0</ele><time>2026-04-07T10:53:58.346Z</time></trkpt><trkpt lat="40.6126322" lon="9.7037781"><ele>34.0</ele><time>2026-04-07T10:53:59.345Z</time></trkpt><trkpt lat="40.6128631" lon="9.7038902"><ele>34.0</ele><time>2026-04-07T10:54:00.346Z</time></trkpt><trkpt lat="40.6130973" lon="9.7040023"><ele>34.0</ele><time>2026-04-07T10:54:01.346Z</time></trkpt><trkpt lat="40.6133305" lon="9.7041176"><ele>34.0</ele><time>2026-04-07T10:54:02.345Z</time></trkpt><trkpt lat="40.613565" lon="9.7042317"><ele>34.0</ele><time>2026-04-07T10:54:03.346Z</time></trkpt><trkpt lat="40.6137999" lon="9.7043473"><ele>33.5</ele><time>2026-04-07T10:54:04.346Z</time></trkpt><trkpt lat="40.6140324" lon="9.7044575"><ele>33.0</ele><time>2026-04-07T10:54:05.346Z</time></trkpt><trkpt lat="40.6142743" lon="9.7045698"><ele>35.5</ele><time>2026-04-07T10:54:06.345Z</time></trkpt><trkpt lat="40.6145072" lon="9.7046815"><ele>38.0</ele><time>2026-04-07T10:54:07.346Z</time></trkpt><trkpt lat="40.6147404" lon="9.7048104"><ele>38.0</ele><time>2026-04-07T10:54:08.346Z</time></trkpt><trkpt lat="40.6149704" lon="9.7049496"><ele>38.0</ele><time>2026-04-07T10:54:09.345Z</time></trkpt><trkpt lat="40.6151985" lon="9.7051027"><ele>37.0</ele><time>2026-04-07T10:54:10.346Z</time></trkpt><trkpt lat="40.6154237" lon="9.7052679"><ele>36.0</ele><time>2026-04-07T10:54:11.346Z</time></trkpt><trkpt lat="40.6156441" lon="9.7054369"><ele>36.0</ele><time>2026-04-07T10:54:12.346Z</time></trkpt><trkpt lat="40.6158565" lon="9.7056055"><ele>36.0</ele><time>2026-04-07T10:54:13.346Z</time></trkpt><trkpt lat="40.6160659" lon="9.7057838"><ele>35.0</ele><time>2026-04-07T10:54:14.346Z</time></trkpt><trkpt lat="40.6162815" lon="9.7059558"><ele>34.0</ele><time>2026-04-07T10:54:15.346Z</time></trkpt><trkpt lat="40.6164915" lon="9.7061106"><ele>34.0</ele><time>2026-04-07T10:54:16.345Z</time></trkpt><trkpt lat="40.6166978" lon="9.7062616"><ele>34.0</ele><time>2026-04-07T10:54:17.346Z</time></trkpt><trkpt lat="40.6169034" lon="9.7064101"><ele>35.5</ele><time>2026-04-07T10:54:18.346Z</time></trkpt><trkpt lat="40.6171056" lon="9.7065605"><ele>37.0</ele><time>2026-04-07T10:54:19.346Z</time></trkpt><trkpt lat="40.6173083" lon="9.7067041"><ele>37.0</ele><time>2026-04-07T10:54:20.345Z</time></trkpt><trkpt lat="40.6175179" lon="9.7068476"><ele>37.0</ele><time>2026-04-07T10:54:21.345Z</time></trkpt><trkpt lat="40.6177278" lon="9.7069859"><ele>34.0</ele><time>2026-04-07T10:54:22.345Z</time></trkpt><trkpt lat="40.6179475" lon="9.7071182"><ele>31.0</ele><time>2026-04-07T10:54:23.346Z</time></trkpt><trkpt lat="40.6181714" lon="9.7072457"><ele>31.0</ele><time>2026-04-07T10:54:24.346Z</time></trkpt><trkpt lat="40.618404" lon="9.7073634"><ele>31.0</ele><time>2026-04-07T10:54:25.346Z</time></trkpt><trkpt lat="40.6186465" lon="9.7074687"><ele>30.5</ele><time>2026-04-07T10:54:26.346Z</time></trkpt><trkpt lat="40.6188935" lon="9.7075607"><ele>30.0</ele><time>2026-04-07T10:54:27.346Z</time></trkpt><trkpt lat="40.6191418" lon="9.7076382"><ele>30.0</ele><time>2026-04-07T10:54:28.346Z</time></trkpt><trkpt lat="40.6193989" lon="9.707708"><ele>30.0</ele><time>2026-04-07T10:54:29.345Z</time></trkpt><trkpt lat="40.6196538" lon="9.7077606"><ele>28.5</ele><time>2026-04-07T10:54:30.345Z</time></trkpt><trkpt lat="40.6199135" lon="9.7077989"><ele>27.0</ele><time>2026-04-07T10:54:31.345Z</time></trkpt><trkpt lat="40.6201718" lon="9.7078269"><ele>27.0</ele><time>2026-04-07T10:54:32.345Z</time></trkpt><trkpt lat="40.6204339" lon="9.7078412"><ele>27.0</ele><time>2026-04-07T10:54:33.346Z</time></trkpt><trkpt lat="40.6206948" lon="9.7078426"><ele>27.0</ele><time>2026-04-07T10:54:34.346Z</time></trkpt><trkpt lat="40.6209582" lon="9.7078285"><ele>27.0</ele><time>2026-04-07T10:54:35.346Z</time></trkpt><trkpt lat="40.6212187" lon="9.7077954"><ele>25.5</ele><time>2026-04-07T10:54:36.345Z</time></trkpt><trkpt lat="40.6214669" lon="9.707751"><ele>24.0</ele><time>2026-04-07T10:54:37.346Z</time></trkpt><trkpt lat="40.6217041" lon="9.7077036"><ele>27.0</ele><time>2026-04-07T10:54:38.345Z</time></trkpt><trkpt lat="40.6219344" lon="9.7076489"><ele>30.0</ele><time>2026-04-07T10:54:39.346Z</time></trkpt><trkpt lat="40.6221686" lon="9.7075777"><ele>30.0</ele><time>2026-04-07T10:54:40.346Z</time></trkpt><trkpt lat="40.6224037" lon="9.7074963"><ele>30.0</ele><time>2026-04-07T10:54:41.346Z</time></trkpt><trkpt lat="40.6226345" lon="9.7073993"><ele>27.5</ele><time>2026-04-07T10:54:42.346Z</time></trkpt><trkpt lat="40.6228651" lon="9.7072914"><ele>25.0</ele><time>2026-04-07T10:54:43.346Z</time></trkpt><trkpt lat="40.6230933" lon="9.7071694"><ele>25.0</ele><time>2026-04-07T10:54:44.346Z</time></trkpt><trkpt lat="40.6233197" lon="9.7070351"><ele>25.0</ele><time>2026-04-07T10:54:45.346Z</time></trkpt><trkpt lat="40.6235454" lon="9.7068887"><ele>27.5</ele><time>2026-04-07T10:54:46.345Z</time></trkpt><trkpt lat="40.6237724" lon="9.7067323"><ele>30.0</ele><time>2026-04-07T10:54:47.346Z</time></trkpt><trkpt lat="40.6239957" lon="9.7065648"><ele>30.0</ele><time>2026-04-07T10:54:48.345Z</time></trkpt><trkpt lat="40.6242167" lon="9.7063903"><ele>30.0</ele><time>2026-04-07T10:54:49.346Z</time></trkpt><trkpt lat="40.6244348" lon="9.7062122"><ele>30.0</ele><time>2026-04-07T10:54:50.346Z</time></trkpt><trkpt lat="40.624653" lon="9.7060318"><ele>30.0</ele><time>2026-04-07T10:54:51.346Z</time></trkpt><trkpt lat="40.6248709" lon="9.7058608"><ele>30.0</ele><time>2026-04-07T10:54:52.346Z</time></trkpt><trkpt lat="40.6250875" lon="9.7056874"><ele>30.0</ele><time>2026-04-07T10:54:53.345Z</time></trkpt><trkpt lat="40.625301" lon="9.7055098"><ele>30.0</ele><time>2026-04-07T10:54:54.346Z</time></trkpt><trkpt lat="40.6255164" lon="9.7053315"><ele>30.0</ele><time>2026-04-07T10:54:55.346Z</time></trkpt><trkpt lat="40.6257327" lon="9.7051559"><ele>27.0</ele><time>2026-04-07T10:54:56.345Z</time></trkpt><trkpt lat="40.6259521" lon="9.7049784"><ele>24.0</ele><time>2026-04-07T10:54:57.345Z</time></trkpt><trkpt lat="40.6261683" lon="9.7047969"><ele>23.0</ele><time>2026-04-07T10:54:58.346Z</time></trkpt><trkpt lat="40.6263884" lon="9.7046162"><ele>22.0</ele><time>2026-04-07T10:54:59.346Z</time></trkpt><trkpt lat="40.6266104" lon="9.7044368"><ele>23.5</ele><time>2026-04-07T10:55:00.346Z</time></trkpt><trkpt lat="40.6268343" lon="9.7042552"><ele>25.0</ele><time>2026-04-07T10:55:01.345Z</time></trkpt><trkpt lat="40.6270567" lon="9.704071"><ele>25.0</ele><time>2026-04-07T10:55:02.345Z</time></trkpt><trkpt lat="40.6272828" lon="9.7038882"><ele>25.0</ele><time>2026-04-07T10:55:03.346Z</time></trkpt><trkpt lat="40.6275152" lon="9.7037095"><ele>25.0</ele><time>2026-04-07T10:55:04.345Z</time></trkpt><trkpt lat="40.6277499" lon="9.7035406"><ele>25.0</ele><time>2026-04-07T10:55:05.346Z</time></trkpt><trkpt lat="40.6279919" lon="9.7033862"><ele>22.5</ele><time>2026-04-07T10:55:06.345Z</time></trkpt><trkpt lat="40.6282386" lon="9.7032446"><ele>20.0</ele><time>2026-04-07T10:55:07.346Z</time></trkpt><trkpt lat="40.6284855" lon="9.7031062"><ele>17.0</ele><time>2026-04-07T10:55:08.346Z</time></trkpt><trkpt lat="40.6287343" lon="9.7029786"><ele>14.0</ele><time>2026-04-07T10:55:09.346Z</time></trkpt><trkpt lat="40.6289858" lon="9.7028556"><ele>13.0</ele><time>2026-04-07T10:55:10.346Z</time></trkpt><trkpt lat="40.6292382" lon="9.7027417"><ele>12.0</ele><time>2026-04-07T10:55:11.345Z</time></trkpt><trkpt lat="40.6294907" lon="9.7026377"><ele>11.5</ele><time>2026-04-07T10:55:12.345Z</time></trkpt><trkpt lat="40.6297377" lon="9.7025486"><ele>11.0</ele><time>2026-04-07T10:55:13.345Z</time></trkpt><trkpt lat="40.6299875" lon="9.7024709"><ele>11.0</ele><time>2026-04-07T10:55:14.346Z</time></trkpt><trkpt lat="40.6302422" lon="9.7024078"><ele>11.0</ele><time>2026-04-07T10:55:15.346Z</time></trkpt><trkpt lat="40.6304971" lon="9.7023555"><ele>9.0</ele><time>2026-04-07T10:55:16.346Z</time></trkpt><trkpt lat="40.6307524" lon="9.702314"><ele>7.0</ele><time>2026-04-07T10:55:17.345Z</time></trkpt><trkpt lat="40.6310112" lon="9.7022785"><ele>6.0</ele><time>2026-04-07T10:55:18.346Z</time></trkpt><trkpt lat="40.6312719" lon="9.7022504"><ele>5.0</ele><time>2026-04-07T10:55:19.345Z</time></trkpt><trkpt lat="40.6315365" lon="9.70223"><ele>5.0</ele><time>2026-04-07T10:55:20.345Z</time></trkpt><trkpt lat="40.6317984" lon="9.7022145"><ele>5.0</ele><time>2026-04-07T10:55:21.346Z</time></trkpt><trkpt lat="40.6320638" lon="9.7022106"><ele>5.0</ele><time>2026-04-07T10:55:22.346Z</time></trkpt><trkpt lat="40.6323315" lon="9.7022162"><ele>5.0</ele><time>2026-04-07T10:55:23.346Z</time></trkpt><trkpt lat="40.6326001" lon="9.7022298"><ele>6.5</ele><time>2026-04-07T10:55:24.345Z</time></trkpt><trkpt lat="40.6328693" lon="9.7022562"><ele>8.0</ele><time>2026-04-07T10:55:25.345Z</time></trkpt><trkpt lat="40.6331393" lon="9.7022939"><ele>8.0</ele><time>2026-04-07T10:55:26.346Z</time></trkpt><trkpt lat="40.6334063" lon="9.7023454"><ele>8.0</ele><time>2026-04-07T10:55:27.346Z</time></trkpt><trkpt lat="40.6336743" lon="9.7024086"><ele>6.0</ele><time>2026-04-07T10:55:28.346Z</time></trkpt><trkpt lat="40.6339396" lon="9.7024818"><ele>4.0</ele><time>2026-04-07T10:55:29.345Z</time></trkpt><trkpt lat="40.6342061" lon="9.7025647"><ele>4.0</ele><time>2026-04-07T10:55:30.345Z</time></trkpt><trkpt lat="40.6344712" lon="9.7026616"><ele>4.0</ele><time>2026-04-07T10:55:31.346Z</time></trkpt><trkpt lat="40.6347316" lon="9.7027678"><ele>4.0</ele><time>2026-04-07T10:55:32.346Z</time></trkpt><trkpt lat="40.6349828" lon="9.7028787"><ele>4.0</ele><time>2026-04-07T10:55:33.345Z</time></trkpt><trkpt lat="40.6352284" lon="9.7029967"><ele>3.5</ele><time>2026-04-07T10:55:34.346Z</time></trkpt><trkpt lat="40.6354675" lon="9.7031212"><ele>3.0</ele><time>2026-04-07T10:55:35.346Z</time></trkpt><trkpt lat="40.6357071" lon="9.7032476"><ele>3.0</ele><time>2026-04-07T10:55:36.346Z</time></trkpt><trkpt lat="40.6359453" lon="9.7033735"><ele>3.0</ele><time>2026-04-07T10:55:37.346Z</time></trkpt><trkpt lat="40.6361831" lon="9.7034913"><ele>1.0</ele><time>2026-04-07T10:55:38.346Z</time></trkpt><trkpt lat="40.6364184" lon="9.7036042"><ele>-1.0</ele><time>2026-04-07T10:55:39.346Z</time></trkpt><trkpt lat="40.6366471" lon="9.7037103"><ele>-1.0</ele><time>2026-04-07T10:55:40.346Z</time></trkpt><trkpt lat="40.6368813" lon="9.7038107"><ele>-1.0</ele><time>2026-04-07T10:55:41.346Z</time></trkpt><trkpt lat="40.6371197" lon="9.7039088"><ele>-0.5</ele><time>2026-04-07T10:55:42.346Z</time></trkpt><trkpt lat="40.6373632" lon="9.7040135"><ele>0.0</ele><time>2026-04-07T10:55:43.346Z</time></trkpt><trkpt lat="40.6376089" lon="9.7041303"><ele>0.5</ele><time>2026-04-07T10:55:44.346Z</time></trkpt><trkpt lat="40.6378575" lon="9.7042466"><ele>1.0</ele><time>2026-04-07T10:55:45.346Z</time></trkpt><trkpt lat="40.6381065" lon="9.7043719"><ele>0.0</ele><time>2026-04-07T10:55:46.345Z</time></trkpt><trkpt lat="40.6383545" lon="9.7044932"><ele>-1.0</ele><time>2026-04-07T10:55:47.346Z</time></trkpt><trkpt lat="40.6386012" lon="9.7046098"><ele>0.0</ele><time>2026-04-07T10:55:48.346Z</time></trkpt><trkpt lat="40.6388429" lon="9.7047183"><ele>1.0</ele><time>2026-04-07T10:55:49.346Z</time></trkpt><trkpt lat="40.6390804" lon="9.704824"><ele>1.0</ele><time>2026-04-07T10:55:50.345Z</time></trkpt><trkpt lat="40.6393127" lon="9.7049386"><ele>1.0</ele><time>2026-04-07T10:55:51.346Z</time></trkpt><trkpt lat="40.6395429" lon="9.7050574"><ele>1.0</ele><time>2026-04-07T10:55:52.346Z</time></trkpt><trkpt lat="40.6397705" lon="9.7051748"><ele>1.0</ele><time>2026-04-07T10:55:53.345Z</time></trkpt><trkpt lat="40.639994" lon="9.7052949"><ele>1.0</ele><time>2026-04-07T10:55:54.346Z</time></trkpt><trkpt lat="40.640216" lon="9.7054174"><ele>1.0</ele><time>2026-04-07T10:55:55.345Z</time></trkpt><trkpt lat="40.6404381" lon="9.7055313"><ele>2.0</ele><time>2026-04-07T10:55:56.345Z</time></trkpt><trkpt lat="40.640665" lon="9.7056484"><ele>3.0</ele><time>2026-04-07T10:55:57.346Z</time></trkpt><trkpt lat="40.6408905" lon="9.7057607"><ele>3.0</ele><time>2026-04-07T10:55:58.346Z</time></trkpt><trkpt lat="40.641113" lon="9.7058745"><ele>3.0</ele><time>2026-04-07T10:55:59.345Z</time></trkpt><trkpt lat="40.6413342" lon="9.7059943"><ele>2.5</ele><time>2026-04-07T10:56:00.346Z</time></trkpt><trkpt lat="40.6415539" lon="9.7061178"><ele>2.0</ele><time>2026-04-07T10:56:01.345Z</time></trkpt><trkpt lat="40.641775" lon="9.7062553"><ele>2.5</ele><time>2026-04-07T10:56:02.345Z</time></trkpt><trkpt lat="40.6419937" lon="9.7064052"><ele>3.0</ele><time>2026-04-07T10:56:03.345Z</time></trkpt><trkpt lat="40.6422099" lon="9.706563"><ele>3.0</ele><time>2026-04-07T10:56:04.346Z</time></trkpt><trkpt lat="40.6424248" lon="9.706731"><ele>3.0</ele><time>2026-04-07T10:56:05.346Z</time></trkpt><trkpt lat="40.6426392" lon="9.7069062"><ele>3.5</ele><time>2026-04-07T10:56:06.346Z</time></trkpt><trkpt lat="40.6428496" lon="9.7070867"><ele>4.0</ele><time>2026-04-07T10:56:07.346Z</time></trkpt><trkpt lat="40.6430589" lon="9.7072734"><ele>4.0</ele><time>2026-04-07T10:56:08.345Z</time></trkpt><trkpt lat="40.6432646" lon="9.7074686"><ele>4.0</ele><time>2026-04-07T10:56:09.346Z</time></trkpt><trkpt lat="40.6434649" lon="9.7076725"><ele>4.0</ele><time>2026-04-07T10:56:10.345Z</time></trkpt><trkpt lat="40.6436623" lon="9.7078883"><ele>4.0</ele><time>2026-04-07T10:56:11.346Z</time></trkpt><trkpt lat="40.6438491" lon="9.7081095"><ele>4.0</ele><time>2026-04-07T10:56:12.345Z</time></trkpt><trkpt lat="40.6440312" lon="9.7083333"><ele>4.0</ele><time>2026-04-07T10:56:13.345Z</time></trkpt><trkpt lat="40.6442074" lon="9.7085623"><ele>4.0</ele><time>2026-04-07T10:56:14.345Z</time></trkpt><trkpt lat="40.6443764" lon="9.7087976"><ele>4.0</ele><time>2026-04-07T10:56:15.345Z</time></trkpt><trkpt lat="40.6445382" lon="9.7090405"><ele>4.0</ele><time>2026-04-07T10:56:16.345Z</time></trkpt><trkpt lat="40.6446947" lon="9.7092851"><ele>4.0</ele><time>2026-04-07T10:56:17.345Z</time></trkpt><trkpt lat="40.6448484" lon="9.709537"><ele>4.5</ele><time>2026-04-07T10:56:18.346Z</time></trkpt><trkpt lat="40.6449976" lon="9.7097891"><ele>5.0</ele><time>2026-04-07T10:56:19.345Z</time></trkpt><trkpt lat="40.6451419" lon="9.710045"><ele>5.0</ele><time>2026-04-07T10:56:20.346Z</time></trkpt><trkpt lat="40.6452824" lon="9.7103057"><ele>5.0</ele><time>2026-04-07T10:56:21.346Z</time></trkpt><trkpt lat="40.6454163" lon="9.7105755"><ele>5.5</ele><time>2026-04-07T10:56:22.346Z</time></trkpt><trkpt lat="40.6455462" lon="9.7108519"><ele>6.0</ele><time>2026-04-07T10:56:23.346Z</time></trkpt><trkpt lat="40.6456702" lon="9.7111292"><ele>6.5</ele><time>2026-04-07T10:56:24.346Z</time></trkpt><trkpt lat="40.6457939" lon="9.7114153"><ele>7.0</ele><time>2026-04-07T10:56:25.346Z</time></trkpt><trkpt lat="40.6459189" lon="9.7116985"><ele>7.0</ele><time>2026-04-07T10:56:26.346Z</time></trkpt><trkpt lat="40.6460432" lon="9.7119839"><ele>7.0</ele><time>2026-04-07T10:56:27.345Z</time></trkpt><trkpt lat="40.6461692" lon="9.7122694"><ele>8.0</ele><time>2026-04-07T10:56:28.346Z</time></trkpt><trkpt lat="40.6462935" lon="9.7125559"><ele>9.0</ele><time>2026-04-07T10:56:29.346Z</time></trkpt><trkpt lat="40.6464178" lon="9.7128423"><ele>9.0</ele><time>2026-04-07T10:56:30.346Z</time></trkpt><trkpt lat="40.646543" lon="9.7131283"><ele>9.0</ele><time>2026-04-07T10:56:31.345Z</time></trkpt><trkpt lat="40.6466675" lon="9.7134174"><ele>7.5</ele><time>2026-04-07T10:56:32.346Z</time></trkpt><trkpt lat="40.6467935" lon="9.7137036"><ele>6.0</ele><time>2026-04-07T10:56:33.346Z</time></trkpt><trkpt lat="40.6469197" lon="9.7139876"><ele>6.0</ele><time>2026-04-07T10:56:34.346Z</time></trkpt><trkpt lat="40.6470479" lon="9.7142694"><ele>6.0</ele><time>2026-04-07T10:56:35.346Z</time></trkpt><trkpt lat="40.6471749" lon="9.7145511"><ele>6.0</ele><time>2026-04-07T10:56:36.346Z</time></trkpt><trkpt lat="40.6472994" lon="9.7148393"><ele>6.0</ele><time>2026-04-07T10:56:37.346Z</time></trkpt><trkpt lat="40.6474234" lon="9.715127"><ele>5.0</ele><time>2026-04-07T10:56:38.345Z</time></trkpt><trkpt lat="40.6475519" lon="9.7154124"><ele>4.0</ele><time>2026-04-07T10:56:39.346Z</time></trkpt><trkpt lat="40.6476749" lon="9.7156906"><ele>6.5</ele><time>2026-04-07T10:56:40.345Z</time></trkpt><trkpt lat="40.6477974" lon="9.7159673"><ele>9.0</ele><time>2026-04-07T10:56:41.346Z</time></trkpt><trkpt lat="40.6479206" lon="9.7162497"><ele>9.0</ele><time>2026-04-07T10:56:42.346Z</time></trkpt><trkpt lat="40.6480475" lon="9.7165337"><ele>9.0</ele><time>2026-04-07T10:56:43.345Z</time></trkpt><trkpt lat="40.6481727" lon="9.7168182"><ele>8.5</ele><time>2026-04-07T10:56:44.345Z</time></trkpt><trkpt lat="40.6483022" lon="9.7171084"><ele>8.0</ele><time>2026-04-07T10:56:45.346Z</time></trkpt><trkpt lat="40.648428" lon="9.7173999"><ele>8.0</ele><time>2026-04-07T10:56:46.346Z</time></trkpt><trkpt lat="40.6485545" lon="9.7176913"><ele>8.0</ele><time>2026-04-07T10:56:47.345Z</time></trkpt><trkpt lat="40.6486923" lon="9.7179783"><ele>11.5</ele><time>2026-04-07T10:56:48.346Z</time></trkpt><trkpt lat="40.6488256" lon="9.7182578"><ele>15.0</ele><time>2026-04-07T10:56:49.345Z</time></trkpt><trkpt lat="40.6489631" lon="9.7185303"><ele>12.5</ele><time>2026-04-07T10:56:50.346Z</time></trkpt><trkpt lat="40.6491087" lon="9.7187922"><ele>10.0</ele><time>2026-04-07T10:56:51.346Z</time></trkpt><trkpt lat="40.6492652" lon="9.7190454"><ele>10.0</ele><time>2026-04-07T10:56:52.346Z</time></trkpt><trkpt lat="40.6494258" lon="9.7192922"><ele>10.0</ele><time>2026-04-07T10:56:53.346Z</time></trkpt><trkpt lat="40.6495904" lon="9.7195365"><ele>10.5</ele><time>2026-04-07T10:56:54.346Z</time></trkpt><trkpt lat="40.6497646" lon="9.7197692"><ele>11.0</ele><time>2026-04-07T10:56:55.346Z</time></trkpt><trkpt lat="40.6499446" lon="9.7199936"><ele>11.0</ele><time>2026-04-07T10:56:56.346Z</time></trkpt><trkpt lat="40.6501334" lon="9.7202188"><ele>11.0</ele><time>2026-04-07T10:56:57.345Z</time></trkpt><trkpt lat="40.6503258" lon="9.7204371"><ele>10.0</ele><time>2026-04-07T10:56:58.346Z</time></trkpt><trkpt lat="40.650523" lon="9.7206438"><ele>9.0</ele><time>2026-04-07T10:56:59.345Z</time></trkpt><trkpt lat="40.6507271" lon="9.7208455"><ele>9.0</ele><time>2026-04-07T10:57:00.345Z</time></trkpt><trkpt lat="40.6509359" lon="9.7210343"><ele>9.0</ele><time>2026-04-07T10:57:01.346Z</time></trkpt><trkpt lat="40.6511497" lon="9.7212145"><ele>8.0</ele><time>2026-04-07T10:57:02.345Z</time></trkpt><trkpt lat="40.6513662" lon="9.7213867"><ele>7.0</ele><time>2026-04-07T10:57:03.346Z</time></trkpt><trkpt lat="40.6515781" lon="9.7215506"><ele>7.0</ele><time>2026-04-07T10:57:04.346Z</time></trkpt><trkpt lat="40.6518013" lon="9.7217065"><ele>7.0</ele><time>2026-04-07T10:57:05.346Z</time></trkpt><trkpt lat="40.6520267" lon="9.7218439"><ele>7.0</ele><time>2026-04-07T10:57:06.346Z</time></trkpt><trkpt lat="40.6522628" lon="9.7219746"><ele>7.0</ele><time>2026-04-07T10:57:07.346Z</time></trkpt><trkpt lat="40.652498" lon="9.722093"><ele>7.0</ele><time>2026-04-07T10:57:08.346Z</time></trkpt><trkpt lat="40.6527428" lon="9.7222018"><ele>7.0</ele><time>2026-04-07T10:57:09.346Z</time></trkpt><trkpt lat="40.6529842" lon="9.7223046"><ele>5.0</ele><time>2026-04-07T10:57:10.346Z</time></trkpt><trkpt lat="40.6532339" lon="9.7224017"><ele>3.0</ele><time>2026-04-07T10:57:11.345Z</time></trkpt><trkpt lat="40.6534825" lon="9.7224808"><ele>3.5</ele><time>2026-04-07T10:57:12.346Z</time></trkpt><trkpt lat="40.6537343" lon="9.7225429"><ele>4.0</ele><time>2026-04-07T10:57:13.346Z</time></trkpt><trkpt lat="40.6539844" lon="9.7226048"><ele>4.0</ele><time>2026-04-07T10:57:14.346Z</time></trkpt><trkpt lat="40.6542288" lon="9.7226501"><ele>4.0</ele><time>2026-04-07T10:57:15.346Z</time></trkpt><trkpt lat="40.654477" lon="9.7226809"><ele>5.0</ele><time>2026-04-07T10:57:16.346Z</time></trkpt><trkpt lat="40.6547184" lon="9.7226996"><ele>6.0</ele><time>2026-04-07T10:57:17.346Z</time></trkpt><trkpt lat="40.6549639" lon="9.7227053"><ele>6.0</ele><time>2026-04-07T10:57:18.346Z</time></trkpt><trkpt lat="40.6552115" lon="9.7227017"><ele>6.0</ele><time>2026-04-07T10:57:19.346Z</time></trkpt><trkpt lat="40.6554603" lon="9.7226847"><ele>7.5</ele><time>2026-04-07T10:57:20.346Z</time></trkpt><trkpt lat="40.6557265" lon="9.7226477"><ele>9.0</ele><time>2026-04-07T10:57:21.346Z</time></trkpt><trkpt lat="40.6560067" lon="9.7225878"><ele>7.5</ele><time>2026-04-07T10:57:22.346Z</time></trkpt><trkpt lat="40.6563071" lon="9.7225086"><ele>6.0</ele><time>2026-04-07T10:57:23.346Z</time></trkpt><trkpt lat="40.6566142" lon="9.7224124"><ele>6.0</ele><time>2026-04-07T10:57:24.346Z</time></trkpt><trkpt lat="40.6569302" lon="9.7222934"><ele>6.0</ele><time>2026-04-07T10:57:25.346Z</time></trkpt><trkpt lat="40.6572553" lon="9.7221567"><ele>6.0</ele><time>2026-04-07T10:57:26.346Z</time></trkpt><trkpt lat="40.6575805" lon="9.7219995"><ele>6.0</ele><time>2026-04-07T10:57:27.346Z</time></trkpt><trkpt lat="40.6578976" lon="9.7218206"><ele>6.0</ele><time>2026-04-07T10:57:28.346Z</time></trkpt><trkpt lat="40.6582084" lon="9.7216266"><ele>6.0</ele><time>2026-04-07T10:57:29.346Z</time></trkpt><trkpt lat="40.6584916" lon="9.7214171"><ele>5.5</ele><time>2026-04-07T10:57:30.346Z</time></trkpt><trkpt lat="40.6587643" lon="9.7211886"><ele>5.0</ele><time>2026-04-07T10:57:31.346Z</time></trkpt><trkpt lat="40.6590199" lon="9.7209505"><ele>6.0</ele><time>2026-04-07T10:57:32.346Z</time></trkpt><trkpt lat="40.659267" lon="9.7207026"><ele>7.0</ele><time>2026-04-07T10:57:33.346Z</time></trkpt><trkpt lat="40.6595028" lon="9.7204455"><ele>8.0</ele><time>2026-04-07T10:57:34.346Z</time></trkpt><trkpt lat="40.6597267" lon="9.7201823"><ele>9.0</ele><time>2026-04-07T10:57:35.346Z</time></trkpt><trkpt lat="40.6599381" lon="9.7199071"><ele>9.0</ele><time>2026-04-07T10:57:36.346Z</time></trkpt><trkpt lat="40.6601436" lon="9.71963"><ele>9.0</ele><time>2026-04-07T10:57:37.346Z</time></trkpt><trkpt lat="40.6603445" lon="9.7193523"><ele>8.5</ele><time>2026-04-07T10:57:38.346Z</time></trkpt><trkpt lat="40.6605441" lon="9.7190771"><ele>8.0</ele><time>2026-04-07T10:57:39.346Z</time></trkpt><trkpt lat="40.6607402" lon="9.7188103"><ele>9.0</ele><time>2026-04-07T10:57:40.346Z</time></trkpt><trkpt lat="40.6609336" lon="9.7185425"><ele>10.0</ele><time>2026-04-07T10:57:41.346Z</time></trkpt><trkpt lat="40.6611254" lon="9.7182749"><ele>10.5</ele><time>2026-04-07T10:57:42.345Z</time></trkpt><trkpt lat="40.6613156" lon="9.7180087"><ele>11.0</ele><time>2026-04-07T10:57:43.346Z</time></trkpt><trkpt lat="40.6615053" lon="9.7177447"><ele>11.5</ele><time>2026-04-07T10:57:44.345Z</time></trkpt><trkpt lat="40.6616966" lon="9.7174884"><ele>12.0</ele><time>2026-04-07T10:57:45.346Z</time></trkpt><trkpt lat="40.6618851" lon="9.7172354"><ele>12.0</ele><time>2026-04-07T10:57:46.346Z</time></trkpt><trkpt lat="40.6620716" lon="9.7169828"><ele>12.0</ele><time>2026-04-07T10:57:47.346Z</time></trkpt><trkpt lat="40.6622557" lon="9.7167313"><ele>13.0</ele><time>2026-04-07T10:57:48.346Z</time></trkpt><trkpt lat="40.6624398" lon="9.7164758"><ele>14.0</ele><time>2026-04-07T10:57:49.346Z</time></trkpt><trkpt lat="40.6626283" lon="9.7162257"><ele>16.0</ele><time>2026-04-07T10:57:50.345Z</time></trkpt><trkpt lat="40.6628153" lon="9.7159833"><ele>18.0</ele><time>2026-04-07T10:57:51.345Z</time></trkpt><trkpt lat="40.6630088" lon="9.7157459"><ele>18.0</ele><time>2026-04-07T10:57:52.346Z</time></trkpt><trkpt lat="40.6632082" lon="9.7155153"><ele>18.0</ele><time>2026-04-07T10:57:53.345Z</time></trkpt><trkpt lat="40.6634127" lon="9.7152973"><ele>19.5</ele><time>2026-04-07T10:57:54.346Z</time></trkpt><trkpt lat="40.6636227" lon="9.7150814"><ele>21.0</ele><time>2026-04-07T10:57:55.345Z</time></trkpt><trkpt lat="40.6638404" lon="9.7148788"><ele>21.0</ele><time>2026-04-07T10:57:56.346Z</time></trkpt><trkpt lat="40.6640614" lon="9.7146786"><ele>21.0</ele><time>2026-04-07T10:57:57.345Z</time></trkpt><trkpt lat="40.6642977" lon="9.7144852"><ele>20.0</ele><time>2026-04-07T10:57:58.345Z</time></trkpt><trkpt lat="40.6645482" lon="9.7142938"><ele>19.0</ele><time>2026-04-07T10:57:59.345Z</time></trkpt><trkpt lat="40.6648101" lon="9.7141036"><ele>19.0</ele><time>2026-04-07T10:58:00.346Z</time></trkpt><trkpt lat="40.6650835" lon="9.7139203"><ele>19.0</ele><time>2026-04-07T10:58:01.346Z</time></trkpt><trkpt lat="40.6653695" lon="9.7137462"><ele>20.0</ele><time>2026-04-07T10:58:02.346Z</time></trkpt><trkpt lat="40.6656656" lon="9.7135855"><ele>21.0</ele><time>2026-04-07T10:58:03.346Z</time></trkpt><trkpt lat="40.6659691" lon="9.7134466"><ele>20.5</ele><time>2026-04-07T10:58:04.346Z</time></trkpt><trkpt lat="40.6662837" lon="9.7133197"><ele>20.0</ele><time>2026-04-07T10:58:05.345Z</time></trkpt><trkpt lat="40.666603" lon="9.7132115"><ele>20.0</ele><time>2026-04-07T10:58:06.346Z</time></trkpt><trkpt lat="40.666929" lon="9.7131138"><ele>20.0</ele><time>2026-04-07T10:58:07.345Z</time></trkpt><trkpt lat="40.667257" lon="9.7130305"><ele>22.5</ele><time>2026-04-07T10:58:08.346Z</time></trkpt><trkpt lat="40.6675871" lon="9.712965"><ele>25.0</ele><time>2026-04-07T10:58:09.345Z</time></trkpt><trkpt lat="40.6679201" lon="9.7129138"><ele>25.5</ele><time>2026-04-07T10:58:10.346Z</time></trkpt><trkpt lat="40.6682546" lon="9.7128826"><ele>26.0</ele><time>2026-04-07T10:58:11.345Z</time></trkpt><trkpt lat="40.6685934" lon="9.7128653"><ele>29.0</ele><time>2026-04-07T10:58:12.346Z</time></trkpt><trkpt lat="40.6689303" lon="9.7128655"><ele>32.0</ele><time>2026-04-07T10:58:13.346Z</time></trkpt><trkpt lat="40.6692702" lon="9.7128755"><ele>35.5</ele><time>2026-04-07T10:58:14.346Z</time></trkpt><trkpt lat="40.6696042" lon="9.7128962"><ele>39.0</ele><time>2026-04-07T10:58:15.345Z</time></trkpt><trkpt lat="40.669937" lon="9.7129136"><ele>16.0</ele><time>2026-04-07T10:58:16.346Z</time></trkpt><trkpt lat="40.6820563" lon="9.7183106"><ele>16.0</ele><time>2026-04-07T10:58:54.335Z</time></trkpt><trkpt lat="40.6823553" lon="9.7183498"><ele>16.0</ele><time>2026-04-07T10:58:55.341Z</time></trkpt><trkpt lat="40.6826805" lon="9.7183642"><ele>14.5</ele><time>2026-04-07T10:58:56.338Z</time></trkpt><trkpt lat="40.6830069" lon="9.7183559"><ele>13.0</ele><time>2026-04-07T10:58:57.341Z</time></trkpt><trkpt lat="40.6833352" lon="9.718339"><ele>12.0</ele><time>2026-04-07T10:58:58.337Z</time></trkpt><trkpt lat="40.6836676" lon="9.7183148"><ele>11.0</ele><time>2026-04-07T10:58:59.35Z</time></trkpt><trkpt lat="40.6840035" lon="9.7182787"><ele>11.0</ele><time>2026-04-07T10:59:00.351Z</time></trkpt><trkpt lat="40.6843312" lon="9.7182241"><ele>11.0</ele><time>2026-04-07T10:59:01.351Z</time></trkpt><trkpt lat="40.6846643" lon="9.7181574"><ele>10.5</ele><time>2026-04-07T10:59:02.35Z</time></trkpt><trkpt lat="40.6849914" lon="9.7180758"><ele>10.0</ele><time>2026-04-07T10:59:03.35Z</time></trkpt><trkpt lat="40.6853099" lon="9.717984"><ele>9.5</ele><time>2026-04-07T10:59:04.351Z</time></trkpt><trkpt lat="40.6856186" lon="9.7178819"><ele>9.0</ele><time>2026-04-07T10:59:05.35Z</time></trkpt><trkpt lat="40.6859209" lon="9.7177749"><ele>8.5</ele><time>2026-04-07T10:59:06.351Z</time></trkpt><trkpt lat="40.6862168" lon="9.717657"><ele>8.0</ele><time>2026-04-07T10:59:07.35Z</time></trkpt><trkpt lat="40.6865088" lon="9.717529"><ele>8.0</ele><time>2026-04-07T10:59:08.351Z</time></trkpt><trkpt lat="40.6867955" lon="9.7173931"><ele>8.0</ele><time>2026-04-07T10:59:09.351Z</time></trkpt><trkpt lat="40.6870713" lon="9.7172464"><ele>7.0</ele><time>2026-04-07T10:59:10.351Z</time></trkpt><trkpt lat="40.6873425" lon="9.717086"><ele>6.0</ele><time>2026-04-07T10:59:11.351Z</time></trkpt><trkpt lat="40.6876072" lon="9.7169167"><ele>5.5</ele><time>2026-04-07T10:59:12.351Z</time></trkpt><trkpt lat="40.6878691" lon="9.7167453"><ele>5.0</ele><time>2026-04-07T10:59:13.35Z</time></trkpt><trkpt lat="40.6881253" lon="9.7165648"><ele>5.0</ele><time>2026-04-07T10:59:14.351Z</time></trkpt><trkpt lat="40.6883768" lon="9.7163788"><ele>5.0</ele><time>2026-04-07T10:59:15.351Z</time></trkpt><trkpt lat="40.6886234" lon="9.7161844"><ele>5.0</ele><time>2026-04-07T10:59:16.351Z</time></trkpt><trkpt lat="40.6888591" lon="9.7159793"><ele>5.0</ele><time>2026-04-07T10:59:17.351Z</time></trkpt><trkpt lat="40.689093" lon="9.7157703"><ele>5.0</ele><time>2026-04-07T10:59:18.351Z</time></trkpt><trkpt lat="40.6893227" lon="9.7155592"><ele>5.0</ele><time>2026-04-07T10:59:19.351Z</time></trkpt><trkpt lat="40.6895474" lon="9.7153423"><ele>5.0</ele><time>2026-04-07T10:59:20.35Z</time></trkpt><trkpt lat="40.68977" lon="9.7151278"><ele>5.0</ele><time>2026-04-07T10:59:21.351Z</time></trkpt><trkpt lat="40.6899927" lon="9.7149115"><ele>5.0</ele><time>2026-04-07T10:59:22.351Z</time></trkpt><trkpt lat="40.6902132" lon="9.7146933"><ele>5.0</ele><time>2026-04-07T10:59:23.351Z</time></trkpt><trkpt lat="40.6904313" lon="9.7144766"><ele>5.0</ele><time>2026-04-07T10:59:24.35Z</time></trkpt><trkpt lat="40.6906499" lon="9.7142628"><ele>5.0</ele><time>2026-04-07T10:59:25.351Z</time></trkpt><trkpt lat="40.6908715" lon="9.7140454"><ele>5.0</ele><time>2026-04-07T10:59:26.35Z</time></trkpt><trkpt lat="40.6910953" lon="9.7138295"><ele>5.0</ele><time>2026-04-07T10:59:27.35Z</time></trkpt><trkpt lat="40.6913213" lon="9.7136124"><ele>5.5</ele><time>2026-04-07T10:59:28.35Z</time></trkpt><trkpt lat="40.6915521" lon="9.7134046"><ele>6.0</ele><time>2026-04-07T10:59:29.35Z</time></trkpt><trkpt lat="40.691786" lon="9.7132121"><ele>5.0</ele><time>2026-04-07T10:59:30.351Z</time></trkpt><trkpt lat="40.6920359" lon="9.7130782"><ele>4.0</ele><time>2026-04-07T10:59:31.351Z</time></trkpt><trkpt lat="40.6922937" lon="9.7129597"><ele>4.0</ele><time>2026-04-07T10:59:32.35Z</time></trkpt><trkpt lat="40.6925503" lon="9.7128675"><ele>4.0</ele><time>2026-04-07T10:59:33.35Z</time></trkpt><trkpt lat="40.6928158" lon="9.7128011"><ele>3.0</ele><time>2026-04-07T10:59:34.351Z</time></trkpt><trkpt lat="40.6930786" lon="9.712767"><ele>2.0</ele><time>2026-04-07T10:59:35.351Z</time></trkpt><trkpt lat="40.6933413" lon="9.71275"><ele>3.5</ele><time>2026-04-07T10:59:36.351Z</time></trkpt><trkpt lat="40.693604" lon="9.7127309"><ele>5.0</ele><time>2026-04-07T10:59:37.351Z</time></trkpt><trkpt lat="40.6938647" lon="9.7127081"><ele>5.0</ele><time>2026-04-07T10:59:38.35Z</time></trkpt><trkpt lat="40.6941241" lon="9.7126799"><ele>5.0</ele><time>2026-04-07T10:59:39.351Z</time></trkpt><trkpt lat="40.6943799" lon="9.7126396"><ele>4.0</ele><time>2026-04-07T10:59:40.35Z</time></trkpt><trkpt lat="40.6946323" lon="9.7125764"><ele>3.0</ele><time>2026-04-07T10:59:41.351Z</time></trkpt><trkpt lat="40.6948863" lon="9.712498"><ele>3.0</ele><time>2026-04-07T10:59:42.351Z</time></trkpt><trkpt lat="40.6951339" lon="9.7124076"><ele>3.0</ele><time>2026-04-07T10:59:43.351Z</time></trkpt><trkpt lat="40.6953807" lon="9.7122965"><ele>3.5</ele><time>2026-04-07T10:59:44.35Z</time></trkpt><trkpt lat="40.6956278" lon="9.7121643"><ele>4.0</ele><time>2026-04-07T10:59:45.351Z</time></trkpt><trkpt lat="40.6958742" lon="9.7120064"><ele>7.0</ele><time>2026-04-07T10:59:46.351Z</time></trkpt><trkpt lat="40.6961206" lon="9.7118305"><ele>10.0</ele><time>2026-04-07T10:59:47.351Z</time></trkpt><trkpt lat="40.6963647" lon="9.7116401"><ele>10.0</ele><time>2026-04-07T10:59:48.351Z</time></trkpt><trkpt lat="40.6966085" lon="9.7114337"><ele>10.0</ele><time>2026-04-07T10:59:49.351Z</time></trkpt><trkpt lat="40.6968486" lon="9.7112053"><ele>11.5</ele><time>2026-04-07T10:59:50.351Z</time></trkpt><trkpt lat="40.6970818" lon="9.7109558"><ele>13.0</ele><time>2026-04-07T10:59:51.351Z</time></trkpt><trkpt lat="40.6973047" lon="9.7106771"><ele>13.0</ele><time>2026-04-07T10:59:52.35Z</time></trkpt><trkpt lat="40.6975137" lon="9.7103792"><ele>13.0</ele><time>2026-04-07T10:59:53.351Z</time></trkpt><trkpt lat="40.6977108" lon="9.7100562"><ele>14.0</ele><time>2026-04-07T10:59:54.35Z</time></trkpt><trkpt lat="40.6978941" lon="9.7097132"><ele>15.0</ele><time>2026-04-07T10:59:55.351Z</time></trkpt><trkpt lat="40.6980667" lon="9.7093572"><ele>16.0</ele><time>2026-04-07T10:59:56.35Z</time></trkpt><trkpt lat="40.6982254" lon="9.7089844"><ele>17.0</ele><time>2026-04-07T10:59:57.35Z</time></trkpt><trkpt lat="40.6983687" lon="9.7085993"><ele>16.0</ele><time>2026-04-07T10:59:58.351Z</time></trkpt><trkpt lat="40.6984913" lon="9.7082005"><ele>15.0</ele><time>2026-04-07T10:59:59.35Z</time></trkpt><trkpt lat="40.6985982" lon="9.7077915"><ele>11.5</ele><time>2026-04-07T11:00:00.351Z</time></trkpt><trkpt lat="40.6986847" lon="9.7073737"><ele>8.0</ele><time>2026-04-07T11:00:01.35Z</time></trkpt><trkpt lat="40.6987517" lon="9.706955"><ele>8.0</ele><time>2026-04-07T11:00:02.351Z</time></trkpt><trkpt lat="40.6987966" lon="9.7065345"><ele>8.0</ele><time>2026-04-07T11:00:03.351Z</time></trkpt><trkpt lat="40.6988187" lon="9.7061154"><ele>8.0</ele><time>2026-04-07T11:00:04.35Z</time></trkpt><trkpt lat="40.6988203" lon="9.7056973"><ele>8.0</ele><time>2026-04-07T11:00:05.35Z</time></trkpt><trkpt lat="40.698823" lon="9.7052802"><ele>8.5</ele><time>2026-04-07T11:00:06.35Z</time></trkpt><trkpt lat="40.6988233" lon="9.7048638"><ele>9.0</ele><time>2026-04-07T11:00:07.351Z</time></trkpt><trkpt lat="40.6988297" lon="9.7044478"><ele>9.0</ele><time>2026-04-07T11:00:08.35Z</time></trkpt><trkpt lat="40.6988446" lon="9.7040305"><ele>9.0</ele><time>2026-04-07T11:00:09.351Z</time></trkpt><trkpt lat="40.6988666" lon="9.703616"><ele>10.5</ele><time>2026-04-07T11:00:10.351Z</time></trkpt><trkpt lat="40.6989015" lon="9.7031988"><ele>12.0</ele><time>2026-04-07T11:00:11.351Z</time></trkpt><trkpt lat="40.6989507" lon="9.7027832"><ele>12.5</ele><time>2026-04-07T11:00:12.35Z</time></trkpt><trkpt lat="40.6990164" lon="9.7023704"><ele>13.0</ele><time>2026-04-07T11:00:13.35Z</time></trkpt><trkpt lat="40.6991002" lon="9.7019586"><ele>13.5</ele><time>2026-04-07T11:00:14.35Z</time></trkpt><trkpt lat="40.6991954" lon="9.7015479"><ele>14.0</ele><time>2026-04-07T11:00:15.351Z</time></trkpt><trkpt lat="40.6993058" lon="9.7011376"><ele>14.0</ele><time>2026-04-07T11:00:16.351Z</time></trkpt><trkpt lat="40.6994292" lon="9.7007315"><ele>14.0</ele><time>2026-04-07T11:00:17.351Z</time></trkpt><trkpt lat="40.6995668" lon="9.7003279"><ele>15.5</ele><time>2026-04-07T11:00:18.351Z</time></trkpt><trkpt lat="40.6997209" lon="9.6999302"><ele>17.0</ele><time>2026-04-07T11:00:19.351Z</time></trkpt><trkpt lat="40.6998942" lon="9.6995416"><ele>18.0</ele><time>2026-04-07T11:00:20.351Z</time></trkpt><trkpt lat="40.7000904" lon="9.6991684"><ele>19.0</ele><time>2026-04-07T11:00:21.35Z</time></trkpt><trkpt lat="40.7003008" lon="9.6988119"><ele>18.0</ele><time>2026-04-07T11:00:22.351Z</time></trkpt><trkpt lat="40.7005229" lon="9.6984664"><ele>17.0</ele><time>2026-04-07T11:00:23.351Z</time></trkpt><trkpt lat="40.700754" lon="9.6981296"><ele>17.0</ele><time>2026-04-07T11:00:24.351Z</time></trkpt><trkpt lat="40.7009976" lon="9.6978107"><ele>17.0</ele><time>2026-04-07T11:00:25.351Z</time></trkpt><trkpt lat="40.7012504" lon="9.6975056"><ele>19.0</ele><time>2026-04-07T11:00:26.351Z</time></trkpt><trkpt lat="40.7015246" lon="9.6972119"><ele>21.0</ele><time>2026-04-07T11:00:27.351Z</time></trkpt><trkpt lat="40.7018148" lon="9.6969436"><ele>25.0</ele><time>2026-04-07T11:00:28.35Z</time></trkpt><trkpt lat="40.7021212" lon="9.6966908"><ele>29.0</ele><time>2026-04-07T11:00:29.351Z</time></trkpt><trkpt lat="40.7024377" lon="9.6964526"><ele>28.5</ele><time>2026-04-07T11:00:30.35Z</time></trkpt><trkpt lat="40.7027605" lon="9.6962414"><ele>28.0</ele><time>2026-04-07T11:00:31.351Z</time></trkpt><trkpt lat="40.7030907" lon="9.6960552"><ele>27.0</ele><time>2026-04-07T11:00:32.351Z</time></trkpt><trkpt lat="40.7034233" lon="9.6958905"><ele>26.0</ele><time>2026-04-07T11:00:33.351Z</time></trkpt><trkpt lat="40.7037602" lon="9.6957455"><ele>23.0</ele><time>2026-04-07T11:00:34.351Z</time></trkpt><trkpt lat="40.7041014" lon="9.6956245"><ele>20.0</ele><time>2026-04-07T11:00:35.351Z</time></trkpt><trkpt lat="40.7044415" lon="9.695524"><ele>19.0</ele><time>2026-04-07T11:00:36.351Z</time></trkpt><trkpt lat="40.7047853" lon="9.6954333"><ele>18.0</ele><time>2026-04-07T11:00:37.351Z</time></trkpt><trkpt lat="40.7051281" lon="9.6953518"><ele>17.5</ele><time>2026-04-07T11:00:38.351Z</time></trkpt><trkpt lat="40.7054701" lon="9.6952669"><ele>17.0</ele><time>2026-04-07T11:00:39.351Z</time></trkpt><trkpt lat="40.7058114" lon="9.6951848"><ele>18.5</ele><time>2026-04-07T11:00:40.351Z</time></trkpt><trkpt lat="40.7061526" lon="9.6950994"><ele>20.0</ele><time>2026-04-07T11:00:41.35Z</time></trkpt><trkpt lat="40.7064905" lon="9.695012"><ele>20.0</ele><time>2026-04-07T11:00:42.35Z</time></trkpt><trkpt lat="40.7068223" lon="9.6949158"><ele>20.0</ele><time>2026-04-07T11:00:43.351Z</time></trkpt><trkpt lat="40.7071513" lon="9.694804"><ele>20.5</ele><time>2026-04-07T11:00:44.351Z</time></trkpt><trkpt lat="40.7074722" lon="9.6946626"><ele>21.0</ele><time>2026-04-07T11:00:45.351Z</time></trkpt><trkpt lat="40.7077882" lon="9.6944987"><ele>25.5</ele><time>2026-04-07T11:00:46.351Z</time></trkpt><trkpt lat="40.7080946" lon="9.6943102"><ele>30.0</ele><time>2026-04-07T11:00:47.35Z</time></trkpt><trkpt lat="40.708391" lon="9.6940949"><ele>31.5</ele><time>2026-04-07T11:00:48.351Z</time></trkpt><trkpt lat="40.7086734" lon="9.6938571"><ele>33.0</ele><time>2026-04-07T11:00:49.35Z</time></trkpt><trkpt lat="40.7089464" lon="9.6935901"><ele>31.5</ele><time>2026-04-07T11:00:50.35Z</time></trkpt><trkpt lat="40.7092084" lon="9.6933059"><ele>30.0</ele><time>2026-04-07T11:00:51.351Z</time></trkpt><trkpt lat="40.7094556" lon="9.6930029"><ele>24.5</ele><time>2026-04-07T11:00:52.351Z</time></trkpt><trkpt lat="40.709686" lon="9.6926788"><ele>19.0</ele><time>2026-04-07T11:00:53.351Z</time></trkpt><trkpt lat="40.7098977" lon="9.6923333"><ele>19.0</ele><time>2026-04-07T11:00:54.35Z</time></trkpt><trkpt lat="40.7100864" lon="9.6919762"><ele>19.0</ele><time>2026-04-07T11:00:55.351Z</time></trkpt><trkpt lat="40.7102596" lon="9.6915955"><ele>18.5</ele><time>2026-04-07T11:00:56.35Z</time></trkpt><trkpt lat="40.710419" lon="9.6912013"><ele>18.0</ele><time>2026-04-07T11:00:57.351Z</time></trkpt><trkpt lat="40.7105699" lon="9.6908004"><ele>18.0</ele><time>2026-04-07T11:00:58.351Z</time></trkpt><trkpt lat="40.7106994" lon="9.6903923"><ele>18.0</ele><time>2026-04-07T11:00:59.351Z</time></trkpt><trkpt lat="40.7108133" lon="9.689977"><ele>19.0</ele><time>2026-04-07T11:01:00.35Z</time></trkpt><trkpt lat="40.7109086" lon="9.6895443"><ele>20.0</ele><time>2026-04-07T11:01:01.35Z</time></trkpt><trkpt lat="40.7109954" lon="9.689085"><ele>17.5</ele><time>2026-04-07T11:01:02.351Z</time></trkpt><trkpt lat="40.7110781" lon="9.6886336"><ele>15.0</ele><time>2026-04-07T11:01:03.351Z</time></trkpt><trkpt lat="40.7111594" lon="9.6881898"><ele>16.0</ele><time>2026-04-07T11:01:04.351Z</time></trkpt><trkpt lat="40.7112441" lon="9.6877508"><ele>17.0</ele><time>2026-04-07T11:01:05.351Z</time></trkpt><trkpt lat="40.7113418" lon="9.6873163"><ele>17.0</ele><time>2026-04-07T11:01:06.351Z</time></trkpt><trkpt lat="40.7114499" lon="9.6868928"><ele>17.0</ele><time>2026-04-07T11:01:07.35Z</time></trkpt><trkpt lat="40.7115681" lon="9.6864728"><ele>17.5</ele><time>2026-04-07T11:01:08.351Z</time></trkpt><trkpt lat="40.7116971" lon="9.6860562"><ele>18.0</ele><time>2026-04-07T11:01:09.35Z</time></trkpt><trkpt lat="40.7118348" lon="9.6856456"><ele>18.0</ele><time>2026-04-07T11:01:10.35Z</time></trkpt><trkpt lat="40.7119886" lon="9.6852392"><ele>18.0</ele><time>2026-04-07T11:01:11.351Z</time></trkpt><trkpt lat="40.7121562" lon="9.6848487"><ele>18.0</ele><time>2026-04-07T11:01:12.351Z</time></trkpt><trkpt lat="40.7123364" lon="9.6844679"><ele>18.0</ele><time>2026-04-07T11:01:13.351Z</time></trkpt><trkpt lat="40.7125294" lon="9.6840985"><ele>18.5</ele><time>2026-04-07T11:01:14.35Z</time></trkpt><trkpt lat="40.7127335" lon="9.6837491"><ele>19.0</ele><time>2026-04-07T11:01:15.351Z</time></trkpt><trkpt lat="40.7129451" lon="9.6834053"><ele>20.5</ele><time>2026-04-07T11:01:16.351Z</time></trkpt><trkpt lat="40.7131623" lon="9.6830724"><ele>22.0</ele><time>2026-04-07T11:01:17.351Z</time></trkpt><trkpt lat="40.7133867" lon="9.6827535"><ele>22.0</ele><time>2026-04-07T11:01:18.351Z</time></trkpt><trkpt lat="40.7136172" lon="9.6824493"><ele>22.0</ele><time>2026-04-07T11:01:19.351Z</time></trkpt><trkpt lat="40.7138486" lon="9.6821511"><ele>24.0</ele><time>2026-04-07T11:01:20.351Z</time></trkpt><trkpt lat="40.7140816" lon="9.6818554"><ele>26.0</ele><time>2026-04-07T11:01:21.351Z</time></trkpt><trkpt lat="40.7143147" lon="9.6815599"><ele>25.5</ele><time>2026-04-07T11:01:22.351Z</time></trkpt><trkpt lat="40.7145447" lon="9.6812572"><ele>25.0</ele><time>2026-04-07T11:01:23.35Z</time></trkpt><trkpt lat="40.714771" lon="9.6809407"><ele>26.5</ele><time>2026-04-07T11:01:24.35Z</time></trkpt><trkpt lat="40.7149942" lon="9.6806242"><ele>28.0</ele><time>2026-04-07T11:01:25.351Z</time></trkpt><trkpt lat="40.7152048" lon="9.6802795"><ele>27.0</ele><time>2026-04-07T11:01:26.351Z</time></trkpt><trkpt lat="40.7154059" lon="9.6799236"><ele>26.0</ele><time>2026-04-07T11:01:27.351Z</time></trkpt><trkpt lat="40.7155957" lon="9.6795639"><ele>26.0</ele><time>2026-04-07T11:01:28.351Z</time></trkpt><trkpt lat="40.7157719" lon="9.6791924"><ele>26.0</ele><time>2026-04-07T11:01:29.351Z</time></trkpt><trkpt lat="40.7159379" lon="9.678815"><ele>25.5</ele><time>2026-04-07T11:01:30.35Z</time></trkpt><trkpt lat="40.7160929" lon="9.6784305"><ele>25.0</ele><time>2026-04-07T11:01:31.351Z</time></trkpt><trkpt lat="40.7162358" lon="9.6780383"><ele>26.5</ele><time>2026-04-07T11:01:32.35Z</time></trkpt><trkpt lat="40.7163666" lon="9.6776438"><ele>28.0</ele><time>2026-04-07T11:01:33.351Z</time></trkpt><trkpt lat="40.716489" lon="9.6772463"><ele>28.5</ele><time>2026-04-07T11:01:34.351Z</time></trkpt><trkpt lat="40.7166021" lon="9.6768448"><ele>29.0</ele><time>2026-04-07T11:01:35.35Z</time></trkpt><trkpt lat="40.71671" lon="9.6764463"><ele>30.0</ele><time>2026-04-07T11:01:36.351Z</time></trkpt><trkpt lat="40.7168183" lon="9.6760441"><ele>31.0</ele><time>2026-04-07T11:01:37.351Z</time></trkpt><trkpt lat="40.7169357" lon="9.6756467"><ele>32.5</ele><time>2026-04-07T11:01:38.35Z</time></trkpt><trkpt lat="40.7170744" lon="9.6752586"><ele>34.0</ele><time>2026-04-07T11:01:39.35Z</time></trkpt><trkpt lat="40.7172219" lon="9.6748803"><ele>34.0</ele><time>2026-04-07T11:01:40.351Z</time></trkpt><trkpt lat="40.717374" lon="9.6745338"><ele>34.0</ele><time>2026-04-07T11:01:41.35Z</time></trkpt><trkpt lat="40.7175332" lon="9.6741932"><ele>33.5</ele><time>2026-04-07T11:01:42.351Z</time></trkpt><trkpt lat="40.717694" lon="9.6738524"><ele>33.0</ele><time>2026-04-07T11:01:43.351Z</time></trkpt><trkpt lat="40.7178536" lon="9.6735046"><ele>33.0</ele><time>2026-04-07T11:01:44.351Z</time></trkpt><trkpt lat="40.7180051" lon="9.6731524"><ele>33.0</ele><time>2026-04-07T11:01:45.351Z</time></trkpt><trkpt lat="40.7181486" lon="9.6727971"><ele>36.5</ele><time>2026-04-07T11:01:46.35Z</time></trkpt><trkpt lat="40.7182824" lon="9.6724364"><ele>40.0</ele><time>2026-04-07T11:01:47.35Z</time></trkpt><trkpt lat="40.7184009" lon="9.6720796"><ele>37.0</ele><time>2026-04-07T11:01:48.351Z</time></trkpt><trkpt lat="40.7185076" lon="9.6717318"><ele>34.0</ele><time>2026-04-07T11:01:49.351Z</time></trkpt><trkpt lat="40.7186079" lon="9.6713961"><ele>37.5</ele><time>2026-04-07T11:01:50.351Z</time></trkpt><trkpt lat="40.7187019" lon="9.6710606"><ele>41.0</ele><time>2026-04-07T11:01:51.351Z</time></trkpt><trkpt lat="40.7187987" lon="9.6707307"><ele>41.0</ele><time>2026-04-07T11:01:52.351Z</time></trkpt><trkpt lat="40.7189049" lon="9.6704016"><ele>41.0</ele><time>2026-04-07T11:01:53.351Z</time></trkpt><trkpt lat="40.7190198" lon="9.6700762"><ele>45.0</ele><time>2026-04-07T11:01:54.351Z</time></trkpt><trkpt lat="40.7191443" lon="9.6697557"><ele>49.0</ele><time>2026-04-07T11:01:55.351Z</time></trkpt><trkpt lat="40.7192777" lon="9.6694407"><ele>45.0</ele><time>2026-04-07T11:01:56.35Z</time></trkpt><trkpt lat="40.7194149" lon="9.669126"><ele>41.0</ele><time>2026-04-07T11:01:57.35Z</time></trkpt><trkpt lat="40.7195559" lon="9.6688128"><ele>42.5</ele><time>2026-04-07T11:01:58.351Z</time></trkpt><trkpt lat="40.7196923" lon="9.6684952"><ele>44.0</ele><time>2026-04-07T11:01:59.351Z</time></trkpt><trkpt lat="40.71983" lon="9.6681781"><ele>44.0</ele><time>2026-04-07T11:02:00.35Z</time></trkpt><trkpt lat="40.7199713" lon="9.6678629"><ele>44.0</ele><time>2026-04-07T11:02:01.35Z</time></trkpt><trkpt lat="40.7201137" lon="9.6675506"><ele>43.0</ele><time>2026-04-07T11:02:02.351Z</time></trkpt><trkpt lat="40.7202494" lon="9.6672434"><ele>42.0</ele><time>2026-04-07T11:02:03.351Z</time></trkpt><trkpt lat="40.7203816" lon="9.6669326"><ele>46.0</ele><time>2026-04-07T11:02:04.351Z</time></trkpt><trkpt lat="40.7205163" lon="9.6666192"><ele>50.0</ele><time>2026-04-07T11:02:05.351Z</time></trkpt><trkpt lat="40.7206548" lon="9.6663118"><ele>56.5</ele><time>2026-04-07T11:02:06.35Z</time></trkpt><trkpt lat="40.7207959" lon="9.6660037"><ele>63.0</ele><time>2026-04-07T11:02:07.351Z</time></trkpt><trkpt lat="40.7209446" lon="9.6656979"><ele>59.0</ele><time>2026-04-07T11:02:08.351Z</time></trkpt><trkpt lat="40.7211031" lon="9.6654011"><ele>55.0</ele><time>2026-04-07T11:02:09.351Z</time></trkpt><trkpt lat="40.7212701" lon="9.6651147"><ele>55.0</ele><time>2026-04-07T11:02:10.35Z</time></trkpt><trkpt lat="40.7214456" lon="9.6648358"><ele>55.0</ele><time>2026-04-07T11:02:11.351Z</time></trkpt><trkpt lat="40.721624" lon="9.6645637"><ele>53.5</ele><time>2026-04-07T11:02:12.351Z</time></trkpt><trkpt lat="40.7218064" lon="9.6643024"><ele>52.0</ele><time>2026-04-07T11:02:13.351Z</time></trkpt><trkpt lat="40.7219926" lon="9.6640439"><ele>52.0</ele><time>2026-04-07T11:02:14.35Z</time></trkpt><trkpt lat="40.7221839" lon="9.6637957"><ele>52.0</ele><time>2026-04-07T11:02:15.351Z</time></trkpt><trkpt lat="40.7223809" lon="9.6635563"><ele>54.0</ele><time>2026-04-07T11:02:16.351Z</time></trkpt><trkpt lat="40.7225766" lon="9.6633155"><ele>56.0</ele><time>2026-04-07T11:02:17.351Z</time></trkpt><trkpt lat="40.7227651" lon="9.6630707"><ele>56.0</ele><time>2026-04-07T11:02:18.351Z</time></trkpt><trkpt lat="40.7229493" lon="9.6628162"><ele>56.0</ele><time>2026-04-07T11:02:19.351Z</time></trkpt><trkpt lat="40.7231301" lon="9.6625569"><ele>63.5</ele><time>2026-04-07T11:02:20.351Z</time></trkpt><trkpt lat="40.7233046" lon="9.6622905"><ele>71.0</ele><time>2026-04-07T11:02:21.35Z</time></trkpt><trkpt lat="40.7234765" lon="9.6620262"><ele>68.0</ele><time>2026-04-07T11:02:22.35Z</time></trkpt><trkpt lat="40.7236465" lon="9.6617586"><ele>65.0</ele><time>2026-04-07T11:02:23.35Z</time></trkpt><trkpt lat="40.7238124" lon="9.661486"><ele>65.0</ele><time>2026-04-07T11:02:24.35Z</time></trkpt><trkpt lat="40.7239719" lon="9.6612141"><ele>65.0</ele><time>2026-04-07T11:02:25.351Z</time></trkpt><trkpt lat="40.7241218" lon="9.6609341"><ele>68.0</ele><time>2026-04-07T11:02:26.351Z</time></trkpt><trkpt lat="40.7242657" lon="9.6606492"><ele>71.0</ele><time>2026-04-07T11:02:27.35Z</time></trkpt><trkpt lat="40.7244078" lon="9.660363"><ele>83.5</ele><time>2026-04-07T11:02:28.351Z</time></trkpt><trkpt lat="40.7245477" lon="9.6600733"><ele>96.0</ele><time>2026-04-07T11:02:29.351Z</time></trkpt><trkpt lat="40.7246869" lon="9.659789"><ele>96.0</ele><time>2026-04-07T11:02:30.351Z</time></trkpt><trkpt lat="40.7248255" lon="9.6595029"><ele>96.0</ele><time>2026-04-07T11:02:31.35Z</time></trkpt><trkpt lat="40.7244546" lon="9.6602539"><ele>77.0</ele><time>2026-04-07T11:02:39.436Z</time></trkpt><trkpt lat="40.7275679" lon="9.6536474"><ele>74.0</ele><time>2026-04-07T11:02:49.335Z</time></trkpt><trkpt lat="40.7277414" lon="9.6533204"><ele>71.0</ele><time>2026-04-07T11:02:50.336Z</time></trkpt><trkpt lat="40.7279285" lon="9.6529944"><ele>72.5</ele><time>2026-04-07T11:02:51.342Z</time></trkpt><trkpt lat="40.7281255" lon="9.6527055"><ele>74.0</ele><time>2026-04-07T11:02:52.337Z</time></trkpt><trkpt lat="40.7283196" lon="9.652418"><ele>74.0</ele><time>2026-04-07T11:02:53.344Z</time></trkpt><trkpt lat="40.7285296" lon="9.6521451"><ele>74.0</ele><time>2026-04-07T11:02:54.341Z</time></trkpt><trkpt lat="40.7287531" lon="9.6518811"><ele>72.5</ele><time>2026-04-07T11:02:55.341Z</time></trkpt><trkpt lat="40.7289832" lon="9.6516294"><ele>71.0</ele><time>2026-04-07T11:02:56.34Z</time></trkpt><trkpt lat="40.7292235" lon="9.6513957"><ele>69.5</ele><time>2026-04-07T11:02:57.341Z</time></trkpt><trkpt lat="40.7294722" lon="9.651176"><ele>68.0</ele><time>2026-04-07T11:02:58.341Z</time></trkpt><trkpt lat="40.7297241" lon="9.6509696"><ele>68.0</ele><time>2026-04-07T11:02:59.341Z</time></trkpt><trkpt lat="40.7299802" lon="9.6507835"><ele>68.0</ele><time>2026-04-07T11:03:00.341Z</time></trkpt><trkpt lat="40.7302392" lon="9.6506162"><ele>70.5</ele><time>2026-04-07T11:03:01.341Z</time></trkpt><trkpt lat="40.7305005" lon="9.6504645"><ele>73.0</ele><time>2026-04-07T11:03:02.341Z</time></trkpt><trkpt lat="40.7307622" lon="9.6503322"><ele>72.5</ele><time>2026-04-07T11:03:03.341Z</time></trkpt><trkpt lat="40.7310245" lon="9.6502091"><ele>72.0</ele><time>2026-04-07T11:03:04.341Z</time></trkpt><trkpt lat="40.7312855" lon="9.6501031"><ele>78.0</ele><time>2026-04-07T11:03:05.34Z</time></trkpt><trkpt lat="40.731546" lon="9.6500155"><ele>84.0</ele><time>2026-04-07T11:03:06.341Z</time></trkpt><trkpt lat="40.7318082" lon="9.6499411"><ele>83.5</ele><time>2026-04-07T11:03:07.341Z</time></trkpt><trkpt lat="40.7320713" lon="9.649875"><ele>83.0</ele><time>2026-04-07T11:03:08.341Z</time></trkpt><trkpt lat="40.7323301" lon="9.6498217"><ele>83.0</ele><time>2026-04-07T11:03:09.341Z</time></trkpt><trkpt lat="40.7325869" lon="9.6497713"><ele>83.0</ele><time>2026-04-07T11:03:10.341Z</time></trkpt><trkpt lat="40.732844" lon="9.6497175"><ele>84.0</ele><time>2026-04-07T11:03:11.34Z</time></trkpt><trkpt lat="40.733102" lon="9.6496508"><ele>85.0</ele><time>2026-04-07T11:03:12.341Z</time></trkpt><trkpt lat="40.73336" lon="9.6495695"><ele>88.0</ele><time>2026-04-07T11:03:13.341Z</time></trkpt><trkpt lat="40.7336192" lon="9.6494805"><ele>91.0</ele><time>2026-04-07T11:03:14.341Z</time></trkpt><trkpt lat="40.7338772" lon="9.649375"><ele>91.0</ele><time>2026-04-07T11:03:15.34Z</time></trkpt><trkpt lat="40.7341315" lon="9.6492594"><ele>91.0</ele><time>2026-04-07T11:03:16.34Z</time></trkpt><trkpt lat="40.7343844" lon="9.6491315"><ele>97.0</ele><time>2026-04-07T11:03:17.34Z</time></trkpt><trkpt lat="40.7346347" lon="9.6489924"><ele>103.0</ele><time>2026-04-07T11:03:18.34Z</time></trkpt><trkpt lat="40.7348822" lon="9.6488436"><ele>103.0</ele><time>2026-04-07T11:03:19.34Z</time></trkpt><trkpt lat="40.7351305" lon="9.6486861"><ele>103.0</ele><time>2026-04-07T11:03:20.34Z</time></trkpt><trkpt lat="40.7353784" lon="9.6485144"><ele>104.5</ele><time>2026-04-07T11:03:21.34Z</time></trkpt><trkpt lat="40.7356201" lon="9.6483298"><ele>106.0</ele><time>2026-04-07T11:03:22.341Z</time></trkpt><trkpt lat="40.7358548" lon="9.6481363"><ele>105.0</ele><time>2026-04-07T11:03:23.34Z</time></trkpt><trkpt lat="40.7360872" lon="9.647934"><ele>104.0</ele><time>2026-04-07T11:03:24.341Z</time></trkpt><trkpt lat="40.736312" lon="9.6477152"><ele>104.0</ele><time>2026-04-07T11:03:25.34Z</time></trkpt><trkpt lat="40.7365337" lon="9.6474881"><ele>104.0</ele><time>2026-04-07T11:03:26.341Z</time></trkpt><trkpt lat="40.7367504" lon="9.6472467"><ele>103.5</ele><time>2026-04-07T11:03:27.34Z</time></trkpt><trkpt lat="40.7369653" lon="9.6469957"><ele>103.0</ele><time>2026-04-07T11:03:28.341Z</time></trkpt><trkpt lat="40.7371808" lon="9.6467486"><ele>102.5</ele><time>2026-04-07T11:03:29.34Z</time></trkpt><trkpt lat="40.7374005" lon="9.6465062"><ele>102.0</ele><time>2026-04-07T11:03:30.341Z</time></trkpt><trkpt lat="40.7376257" lon="9.6462649"><ele>101.5</ele><time>2026-04-07T11:03:31.341Z</time></trkpt><trkpt lat="40.7378457" lon="9.6460249"><ele>101.0</ele><time>2026-04-07T11:03:32.34Z</time></trkpt><trkpt lat="40.7380645" lon="9.6457867"><ele>101.0</ele><time>2026-04-07T11:03:33.341Z</time></trkpt><trkpt lat="40.7382776" lon="9.645555"><ele>101.0</ele><time>2026-04-07T11:03:34.341Z</time></trkpt><trkpt lat="40.7384923" lon="9.6453215"><ele>102.5</ele><time>2026-04-07T11:03:35.341Z</time></trkpt><trkpt lat="40.738704" lon="9.6450887"><ele>104.0</ele><time>2026-04-07T11:03:36.34Z</time></trkpt><trkpt lat="40.7389168" lon="9.6448527"><ele>104.0</ele><time>2026-04-07T11:03:37.341Z</time></trkpt><trkpt lat="40.7391296" lon="9.6446125"><ele>104.0</ele><time>2026-04-07T11:03:38.341Z</time></trkpt><trkpt lat="40.7393422" lon="9.6443606"><ele>113.5</ele><time>2026-04-07T11:03:39.341Z</time></trkpt><trkpt lat="40.7395545" lon="9.6441096"><ele>123.0</ele><time>2026-04-07T11:03:40.34Z</time></trkpt><trkpt lat="40.7397654" lon="9.6438567"><ele>134.0</ele><time>2026-04-07T11:03:41.341Z</time></trkpt><trkpt lat="40.7399792" lon="9.6436022"><ele>145.0</ele><time>2026-04-07T11:03:42.341Z</time></trkpt><trkpt lat="40.7401926" lon="9.6433484"><ele>88.0</ele><time>2026-04-07T11:03:43.341Z</time></trkpt><trkpt lat="40.7419903" lon="9.6412822"><ele>91.0</ele><time>2026-04-07T11:03:51.337Z</time></trkpt><trkpt lat="40.7421825" lon="9.6410415"><ele>94.0</ele><time>2026-04-07T11:03:52.338Z</time></trkpt><trkpt lat="40.7423825" lon="9.6408087"><ele>94.0</ele><time>2026-04-07T11:03:53.345Z</time></trkpt><trkpt lat="40.7425841" lon="9.6405774"><ele>94.0</ele><time>2026-04-07T11:03:54.339Z</time></trkpt><trkpt lat="40.7427841" lon="9.6403514"><ele>94.0</ele><time>2026-04-07T11:03:55.341Z</time></trkpt><trkpt lat="40.7429911" lon="9.6401385"><ele>94.0</ele><time>2026-04-07T11:03:56.344Z</time></trkpt><trkpt lat="40.743203" lon="9.6399334"><ele>94.0</ele><time>2026-04-07T11:03:57.345Z</time></trkpt><trkpt lat="40.7434306" lon="9.639748"><ele>94.0</ele><time>2026-04-07T11:03:58.345Z</time></trkpt><trkpt lat="40.7436674" lon="9.6395724"><ele>98.0</ele><time>2026-04-07T11:03:59.345Z</time></trkpt><trkpt lat="40.7439114" lon="9.6394211"><ele>102.0</ele><time>2026-04-07T11:04:00.344Z</time></trkpt><trkpt lat="40.7441662" lon="9.6392834"><ele>103.0</ele><time>2026-04-07T11:04:01.345Z</time></trkpt><trkpt lat="40.7444298" lon="9.6391692"><ele>104.0</ele><time>2026-04-07T11:04:02.344Z</time></trkpt><trkpt lat="40.7446992" lon="9.6390723"><ele>104.0</ele><time>2026-04-07T11:04:03.345Z</time></trkpt><trkpt lat="40.7449737" lon="9.6389875"><ele>104.0</ele><time>2026-04-07T11:04:04.344Z</time></trkpt><trkpt lat="40.74525" lon="9.638956"><ele>101.0</ele><time>2026-04-07T11:04:05.345Z</time></trkpt><trkpt lat="40.7455266" lon="9.6389293"><ele>98.0</ele><time>2026-04-07T11:04:06.344Z</time></trkpt><trkpt lat="40.7458065" lon="9.6389264"><ele>96.0</ele><time>2026-04-07T11:04:07.345Z</time></trkpt><trkpt lat="40.746086" lon="9.6389459"><ele>94.0</ele><time>2026-04-07T11:04:08.344Z</time></trkpt><trkpt lat="40.7463645" lon="9.6389924"><ele>94.0</ele><time>2026-04-07T11:04:09.344Z</time></trkpt><trkpt lat="40.7466379" lon="9.6390584"><ele>94.0</ele><time>2026-04-07T11:04:10.345Z</time></trkpt><trkpt lat="40.7469071" lon="9.6391508"><ele>97.0</ele><time>2026-04-07T11:04:11.344Z</time></trkpt><trkpt lat="40.7471739" lon="9.6392626"><ele>100.0</ele><time>2026-04-07T11:04:12.345Z</time></trkpt><trkpt lat="40.7474333" lon="9.6393932"><ele>101.0</ele><time>2026-04-07T11:04:13.345Z</time></trkpt><trkpt lat="40.7476903" lon="9.6395404"><ele>102.0</ele><time>2026-04-07T11:04:14.345Z</time></trkpt><trkpt lat="40.7479465" lon="9.63969"><ele>103.0</ele><time>2026-04-07T11:04:15.345Z</time></trkpt><trkpt lat="40.7482037" lon="9.6398398"><ele>104.0</ele><time>2026-04-07T11:04:16.344Z</time></trkpt><trkpt lat="40.7484587" lon="9.6399908"><ele>101.5</ele><time>2026-04-07T11:04:17.345Z</time></trkpt><trkpt lat="40.7487161" lon="9.6401424"><ele>99.0</ele><time>2026-04-07T11:04:18.345Z</time></trkpt><trkpt lat="40.7489745" lon="9.6402878"><ele>96.5</ele><time>2026-04-07T11:04:19.345Z</time></trkpt><trkpt lat="40.7492388" lon="9.6404287"><ele>94.0</ele><time>2026-04-07T11:04:20.345Z</time></trkpt><trkpt lat="40.7495075" lon="9.640549"><ele>94.0</ele><time>2026-04-07T11:04:21.345Z</time></trkpt><trkpt lat="40.7497835" lon="9.6406504"><ele>94.0</ele><time>2026-04-07T11:04:22.345Z</time></trkpt><trkpt lat="40.7500651" lon="9.6407333"><ele>91.0</ele><time>2026-04-07T11:04:23.344Z</time></trkpt><trkpt lat="40.7503554" lon="9.6407934"><ele>88.0</ele><time>2026-04-07T11:04:24.345Z</time></trkpt><trkpt lat="40.7506483" lon="9.6408321"><ele>88.0</ele><time>2026-04-07T11:04:25.345Z</time></trkpt><trkpt lat="40.750943" lon="9.6408479"><ele>88.0</ele><time>2026-04-07T11:04:26.344Z</time></trkpt><trkpt lat="40.7512349" lon="9.6408272"><ele>82.5</ele><time>2026-04-07T11:04:27.345Z</time></trkpt><trkpt lat="40.7515245" lon="9.6407843"><ele>77.0</ele><time>2026-04-07T11:04:28.345Z</time></trkpt><trkpt lat="40.7518064" lon="9.6407182"><ele>74.0</ele><time>2026-04-07T11:04:29.345Z</time></trkpt><trkpt lat="40.7520772" lon="9.6406368"><ele>71.0</ele><time>2026-04-07T11:04:30.345Z</time></trkpt><trkpt lat="40.7523379" lon="9.6405352"><ele>71.0</ele><time>2026-04-07T11:04:31.344Z</time></trkpt><trkpt lat="40.7525862" lon="9.6404174"><ele>71.0</ele><time>2026-04-07T11:04:32.345Z</time></trkpt><trkpt lat="40.7528261" lon="9.6402964"><ele>71.0</ele><time>2026-04-07T11:04:33.345Z</time></trkpt><trkpt lat="40.7530609" lon="9.6401728"><ele>71.0</ele><time>2026-04-07T11:04:34.344Z</time></trkpt><trkpt lat="40.7532903" lon="9.6400513"><ele>71.0</ele><time>2026-04-07T11:04:35.345Z</time></trkpt><trkpt lat="40.7535198" lon="9.6399294"><ele>71.0</ele><time>2026-04-07T11:04:36.344Z</time></trkpt><trkpt lat="40.7537517" lon="9.6398175"><ele>68.0</ele><time>2026-04-07T11:04:37.345Z</time></trkpt><trkpt lat="40.7539877" lon="9.6397205"><ele>65.0</ele><time>2026-04-07T11:04:38.345Z</time></trkpt><trkpt lat="40.7542264" lon="9.6396351"><ele>61.0</ele><time>2026-04-07T11:04:39.344Z</time></trkpt><trkpt lat="40.7544638" lon="9.639567"><ele>57.0</ele><time>2026-04-07T11:04:40.345Z</time></trkpt><trkpt lat="40.7547122" lon="9.6395185"><ele>57.0</ele><time>2026-04-07T11:04:41.345Z</time></trkpt><trkpt lat="40.7549651" lon="9.6394901"><ele>57.0</ele><time>2026-04-07T11:04:42.344Z</time></trkpt><trkpt lat="40.7552227" lon="9.6394705"><ele>55.0</ele><time>2026-04-07T11:04:43.345Z</time></trkpt><trkpt lat="40.7554803" lon="9.6394758"><ele>53.0</ele><time>2026-04-07T11:04:44.345Z</time></trkpt><trkpt lat="40.7557388" lon="9.6395019"><ele>53.0</ele><time>2026-04-07T11:04:45.345Z</time></trkpt><trkpt lat="40.7559951" lon="9.6395472"><ele>53.0</ele><time>2026-04-07T11:04:46.344Z</time></trkpt><trkpt lat="40.7562504" lon="9.6396127"><ele>53.0</ele><time>2026-04-07T11:04:47.344Z</time></trkpt><trkpt lat="40.7565058" lon="9.6396965"><ele>53.0</ele><time>2026-04-07T11:04:48.345Z</time></trkpt><trkpt lat="40.7567569" lon="9.6397983"><ele>60.0</ele><time>2026-04-07T11:04:49.345Z</time></trkpt><trkpt lat="40.7570045" lon="9.6399186"><ele>67.0</ele><time>2026-04-07T11:04:50.345Z</time></trkpt><trkpt lat="40.7572449" lon="9.6400602"><ele>67.0</ele><time>2026-04-07T11:04:51.345Z</time></trkpt><trkpt lat="40.7574644" lon="9.6402099"><ele>67.0</ele><time>2026-04-07T11:04:52.345Z</time></trkpt><trkpt lat="40.7576626" lon="9.6403705"><ele>65.66666666666666</ele><time>2026-04-07T11:04:53.344Z</time></trkpt><trkpt lat="40.7578393" lon="9.6405454"><ele>64.33333333333333</ele><time>2026-04-07T11:04:54.345Z</time></trkpt><trkpt lat="40.7579855" lon="9.6407049"><ele>63.0</ele><time>2026-04-07T11:04:55.345Z</time></trkpt><trkpt lat="40.7581004" lon="9.6408417"><ele>63.0</ele><time>2026-04-07T11:04:56.344Z</time></trkpt><trkpt lat="40.7581909" lon="9.6409834"><ele>63.0</ele><time>2026-04-07T11:04:57.345Z</time></trkpt><trkpt lat="40.7582542" lon="9.6411339"><ele>63.0</ele><time>2026-04-07T11:04:58.344Z</time></trkpt><trkpt lat="40.7582939" lon="9.6413086"><ele>63.0</ele><time>2026-04-07T11:04:59.345Z</time></trkpt><trkpt lat="40.7583009" lon="9.6415074"><ele>61.33333333333333</ele><time>2026-04-07T11:05:00.345Z</time></trkpt><trkpt lat="40.7583036" lon="9.6417241"><ele>59.666666666666664</ele><time>2026-04-07T11:05:01.344Z</time></trkpt><trkpt lat="40.7583089" lon="9.6419561"><ele>58.0</ele><time>2026-04-07T11:05:02.345Z</time></trkpt><trkpt lat="40.7583027" lon="9.6422007"><ele>57.33333333333333</ele><time>2026-04-07T11:05:03.345Z</time></trkpt><trkpt lat="40.7583026" lon="9.6424339"><ele>56.66666666666667</ele><time>2026-04-07T11:05:04.345Z</time></trkpt><trkpt lat="40.7583064" lon="9.6426528"><ele>56.0</ele><time>2026-04-07T11:05:05.345Z</time></trkpt><trkpt lat="40.7583241" lon="9.64287"><ele>56.0</ele><time>2026-04-07T11:05:06.345Z</time></trkpt><trkpt lat="40.7583535" lon="9.6431154"><ele>56.0</ele><time>2026-04-07T11:05:07.345Z</time></trkpt><trkpt lat="40.7583917" lon="9.6433723"><ele>56.0</ele><time>2026-04-07T11:05:08.345Z</time></trkpt><trkpt lat="40.7584401" lon="9.6436419"><ele>56.0</ele><time>2026-04-07T11:05:09.344Z</time></trkpt><trkpt lat="40.7585007" lon="9.6439188"><ele>56.0</ele><time>2026-04-07T11:05:10.345Z</time></trkpt><trkpt lat="40.7585732" lon="9.6442014"><ele>56.0</ele><time>2026-04-07T11:05:11.344Z</time></trkpt><trkpt lat="40.7586515" lon="9.6444869"><ele>53.5</ele><time>2026-04-07T11:05:12.345Z</time></trkpt><trkpt lat="40.7587357" lon="9.6447804"><ele>51.0</ele><time>2026-04-07T11:05:13.345Z</time></trkpt><trkpt lat="40.7588245" lon="9.6450724"><ele>48.5</ele><time>2026-04-07T11:05:14.345Z</time></trkpt><trkpt lat="40.7589099" lon="9.6453605"><ele>46.0</ele><time>2026-04-07T11:05:15.345Z</time></trkpt><trkpt lat="40.7589964" lon="9.6456531"><ele>46.0</ele><time>2026-04-07T11:05:16.345Z</time></trkpt><trkpt lat="40.7590833" lon="9.645947"><ele>46.0</ele><time>2026-04-07T11:05:17.345Z</time></trkpt><trkpt lat="40.7591691" lon="9.6462451"><ele>44.5</ele><time>2026-04-07T11:05:18.345Z</time></trkpt><trkpt lat="40.7592585" lon="9.6465381"><ele>43.0</ele><time>2026-04-07T11:05:19.345Z</time></trkpt><trkpt lat="40.7593468" lon="9.6468282"><ele>41.5</ele><time>2026-04-07T11:05:20.345Z</time></trkpt><trkpt lat="40.7594336" lon="9.6471196"><ele>40.0</ele><time>2026-04-07T11:05:21.345Z</time></trkpt><trkpt lat="40.7595161" lon="9.6474089"><ele>40.0</ele><time>2026-04-07T11:05:22.345Z</time></trkpt><trkpt lat="40.7596057" lon="9.6477017"><ele>40.0</ele><time>2026-04-07T11:05:23.344Z</time></trkpt><trkpt lat="40.759694" lon="9.6479989"><ele>39.0</ele><time>2026-04-07T11:05:24.344Z</time></trkpt><trkpt lat="40.7597856" lon="9.6482953"><ele>38.0</ele><time>2026-04-07T11:05:25.345Z</time></trkpt><trkpt lat="40.7598798" lon="9.6485927"><ele>36.5</ele><time>2026-04-07T11:05:26.345Z</time></trkpt><trkpt lat="40.7599791" lon="9.648889"><ele>35.0</ele><time>2026-04-07T11:05:27.345Z</time></trkpt><trkpt lat="40.7600841" lon="9.6491841"><ele>34.5</ele><time>2026-04-07T11:05:28.344Z</time></trkpt><trkpt lat="40.7601933" lon="9.6494765"><ele>34.0</ele><time>2026-04-07T11:05:29.345Z</time></trkpt><trkpt lat="40.7603066" lon="9.6497579"><ele>33.333333333333336</ele><time>2026-04-07T11:05:30.344Z</time></trkpt><trkpt lat="40.7604136" lon="9.6500264"><ele>32.666666666666664</ele><time>2026-04-07T11:05:31.345Z</time></trkpt><trkpt lat="40.7605096" lon="9.6502845"><ele>32.0</ele><time>2026-04-07T11:05:32.345Z</time></trkpt><trkpt lat="40.7605992" lon="9.6505354"><ele>32.0</ele><time>2026-04-07T11:05:33.345Z</time></trkpt><trkpt lat="40.7606768" lon="9.6507808"><ele>32.0</ele><time>2026-04-07T11:05:34.345Z</time></trkpt><trkpt lat="40.7607306" lon="9.6510345"><ele>32.0</ele><time>2026-04-07T11:05:35.344Z</time></trkpt><trkpt lat="40.7607627" lon="9.6512784"><ele>33.0</ele><time>2026-04-07T11:05:36.345Z</time></trkpt><trkpt lat="40.760781" lon="9.6515268"><ele>34.0</ele><time>2026-04-07T11:05:37.344Z</time></trkpt><trkpt lat="40.760792" lon="9.6517825"><ele>35.0</ele><time>2026-04-07T11:05:38.344Z</time></trkpt><trkpt lat="40.7607919" lon="9.6520386"><ele>35.0</ele><time>2026-04-07T11:05:39.345Z</time></trkpt><trkpt lat="40.7607828" lon="9.6522812"><ele>35.0</ele><time>2026-04-07T11:05:40.345Z</time></trkpt><trkpt lat="40.7607606" lon="9.6524963"><ele>35.0</ele><time>2026-04-07T11:05:41.345Z</time></trkpt><trkpt lat="40.7607291" lon="9.6526891"><ele>34.5</ele><time>2026-04-07T11:05:42.345Z</time></trkpt><trkpt lat="40.7606887" lon="9.6528569"><ele>34.0</ele><time>2026-04-07T11:05:43.344Z</time></trkpt><trkpt lat="40.7606346" lon="9.6529949"><ele>33.5</ele><time>2026-04-07T11:05:44.345Z</time></trkpt><trkpt lat="40.7605823" lon="9.6531163"><ele>33.0</ele><time>2026-04-07T11:05:45.345Z</time></trkpt><trkpt lat="40.7605309" lon="9.6532276"><ele>33.0</ele><time>2026-04-07T11:05:46.345Z</time></trkpt><trkpt lat="40.7604919" lon="9.6533445"><ele>33.0</ele><time>2026-04-07T11:05:47.345Z</time></trkpt><trkpt lat="40.7604787" lon="9.653442"><ele>33.0</ele><time>2026-04-07T11:05:48.345Z</time></trkpt><trkpt lat="40.7604936" lon="9.6535262"><ele>33.0</ele><time>2026-04-07T11:05:49.344Z</time></trkpt><trkpt lat="40.7605902" lon="9.6536203"><ele>33.0</ele><time>2026-04-07T11:05:51.345Z</time></trkpt><trkpt lat="40.7606749" lon="9.653632"><ele>33.0</ele><time>2026-04-07T11:05:52.345Z</time></trkpt><trkpt lat="40.7607723" lon="9.6536354"><ele>32.25</ele><time>2026-04-07T11:05:53.345Z</time></trkpt><trkpt lat="40.7608773" lon="9.6536603"><ele>31.5</ele><time>2026-04-07T11:05:54.345Z</time></trkpt><trkpt lat="40.7609905" lon="9.6537014"><ele>30.75</ele><time>2026-04-07T11:05:55.345Z</time></trkpt><trkpt lat="40.7611092" lon="9.6537541"><ele>30.0</ele><time>2026-04-07T11:05:56.345Z</time></trkpt><trkpt lat="40.7612402" lon="9.653812"><ele>30.0</ele><time>2026-04-07T11:05:57.345Z</time></trkpt><trkpt lat="40.7613796" lon="9.6538619"><ele>30.0</ele><time>2026-04-07T11:05:58.345Z</time></trkpt><trkpt lat="40.7615297" lon="9.653906"><ele>30.0</ele><time>2026-04-07T11:05:59.345Z</time></trkpt><trkpt lat="40.7616843" lon="9.6539447"><ele>30.0</ele><time>2026-04-07T11:06:00.345Z</time></trkpt><trkpt lat="40.7618373" lon="9.6539699"><ele>30.0</ele><time>2026-04-07T11:06:01.345Z</time></trkpt><trkpt lat="40.7619981" lon="9.6539922"><ele>30.0</ele><time>2026-04-07T11:06:02.345Z</time></trkpt><trkpt lat="40.7621658" lon="9.6540143"><ele>29.666666666666664</ele><time>2026-04-07T11:06:03.344Z</time></trkpt><trkpt lat="40.7623356" lon="9.6540352"><ele>29.333333333333332</ele><time>2026-04-07T11:06:04.345Z</time></trkpt><trkpt lat="40.7625063" lon="9.6540575"><ele>29.0</ele><time>2026-04-07T11:06:05.345Z</time></trkpt><trkpt lat="40.762666" lon="9.6540772"><ele>28.0</ele><time>2026-04-07T11:06:06.345Z</time></trkpt><trkpt lat="40.7628157" lon="9.6540933"><ele>27.0</ele><time>2026-04-07T11:06:07.345Z</time></trkpt><trkpt lat="40.7629546" lon="9.6541088"><ele>26.0</ele><time>2026-04-07T11:06:08.345Z</time></trkpt><trkpt lat="40.7630836" lon="9.6541202"><ele>25.0</ele><time>2026-04-07T11:06:09.344Z</time></trkpt><trkpt lat="40.7632032" lon="9.6541295"><ele>25.0</ele><time>2026-04-07T11:06:10.344Z</time></trkpt><trkpt lat="40.7633134" lon="9.6541448"><ele>25.0</ele><time>2026-04-07T11:06:11.345Z</time></trkpt><trkpt lat="40.7634123" lon="9.6541556"><ele>25.0</ele><time>2026-04-07T11:06:12.344Z</time></trkpt><trkpt lat="40.763503" lon="9.6541666"><ele>25.0</ele><time>2026-04-07T11:06:13.345Z</time></trkpt><trkpt lat="40.7635896" lon="9.6541748"><ele>25.0</ele><time>2026-04-07T11:06:14.345Z</time></trkpt><trkpt lat="40.763682" lon="9.6541821"><ele>25.6</ele><time>2026-04-07T11:06:15.345Z</time></trkpt><trkpt lat="40.7637794" lon="9.6541958"><ele>26.2</ele><time>2026-04-07T11:06:16.345Z</time></trkpt><trkpt lat="40.7638863" lon="9.6542041"><ele>26.799999999999997</ele><time>2026-04-07T11:06:17.344Z</time></trkpt><trkpt lat="40.7639972" lon="9.6542145"><ele>27.4</ele><time>2026-04-07T11:06:18.345Z</time></trkpt><trkpt lat="40.7641033" lon="9.6542236"><ele>28.0</ele><time>2026-04-07T11:06:19.345Z</time></trkpt><trkpt lat="40.7642049" lon="9.654236"><ele>28.0</ele><time>2026-04-07T11:06:20.345Z</time></trkpt><trkpt lat="40.7643043" lon="9.6542479"><ele>27.999999999999996</ele><time>2026-04-07T11:06:21.344Z</time></trkpt><trkpt lat="40.7644029" lon="9.6542551"><ele>27.999999999999996</ele><time>2026-04-07T11:06:22.345Z</time></trkpt><trkpt lat="40.7645007" lon="9.6542661"><ele>28.0</ele><time>2026-04-07T11:06:23.345Z</time></trkpt><trkpt lat="40.7646011" lon="9.6542739"><ele>28.0</ele><time>2026-04-07T11:06:24.345Z</time></trkpt><trkpt lat="40.7647016" lon="9.6542868"><ele>28.799999999999997</ele><time>2026-04-07T11:06:25.345Z</time></trkpt><trkpt lat="40.764806" lon="9.6542946"><ele>29.599999999999998</ele><time>2026-04-07T11:06:26.345Z</time></trkpt><trkpt lat="40.7649117" lon="9.6543078"><ele>30.400000000000002</ele><time>2026-04-07T11:06:27.344Z</time></trkpt><trkpt lat="40.7650229" lon="9.6543193"><ele>31.200000000000003</ele><time>2026-04-07T11:06:28.344Z</time></trkpt><trkpt lat="40.7651402" lon="9.6543272"><ele>32.0</ele><time>2026-04-07T11:06:29.345Z</time></trkpt><trkpt lat="40.7652569" lon="9.65434"><ele>32.0</ele><time>2026-04-07T11:06:30.345Z</time></trkpt><trkpt lat="40.7653772" lon="9.6543554"><ele>32.0</ele><time>2026-04-07T11:06:31.345Z</time></trkpt><trkpt lat="40.765505" lon="9.6543654"><ele>32.0</ele><time>2026-04-07T11:06:32.344Z</time></trkpt><trkpt lat="40.7656375" lon="9.6543801"><ele>32.0</ele><time>2026-04-07T11:06:33.344Z</time></trkpt><trkpt lat="40.7657732" lon="9.6543973"><ele>32.0</ele><time>2026-04-07T11:06:34.344Z</time></trkpt><trkpt lat="40.7659136" lon="9.6544145"><ele>32.0</ele><time>2026-04-07T11:06:35.344Z</time></trkpt><trkpt lat="40.7660489" lon="9.6544301"><ele>32.0</ele><time>2026-04-07T11:06:36.344Z</time></trkpt><trkpt lat="40.7661897" lon="9.6544436"><ele>32.0</ele><time>2026-04-07T11:06:37.345Z</time></trkpt><trkpt lat="40.7663281" lon="9.6544551"><ele>31.75</ele><time>2026-04-07T11:06:38.345Z</time></trkpt><trkpt lat="40.7664657" lon="9.6544716"><ele>31.5</ele><time>2026-04-07T11:06:39.344Z</time></trkpt><trkpt lat="40.7665993" lon="9.6544839"><ele>31.25</ele><time>2026-04-07T11:06:40.345Z</time></trkpt><trkpt lat="40.7667296" lon="9.6545017"><ele>31.0</ele><time>2026-04-07T11:06:41.345Z</time></trkpt><trkpt lat="40.766868" lon="9.6545176"><ele>31.0</ele><time>2026-04-07T11:06:42.345Z</time></trkpt><trkpt lat="40.7670056" lon="9.6545274"><ele>31.0</ele><time>2026-04-07T11:06:43.345Z</time></trkpt><trkpt lat="40.7671416" lon="9.6545339"><ele>31.0</ele><time>2026-04-07T11:06:44.345Z</time></trkpt><trkpt lat="40.7672696" lon="9.6545424"><ele>31.0</ele><time>2026-04-07T11:06:45.345Z</time></trkpt><trkpt lat="40.7673969" lon="9.6545385"><ele>31.0</ele><time>2026-04-07T11:06:46.345Z</time></trkpt><trkpt lat="40.7675323" lon="9.6545234"><ele>31.0</ele><time>2026-04-07T11:06:47.345Z</time></trkpt><trkpt lat="40.7676678" lon="9.6545066"><ele>31.0</ele><time>2026-04-07T11:06:48.344Z</time></trkpt><trkpt lat="40.7678026" lon="9.6544894"><ele>31.0</ele><time>2026-04-07T11:06:49.344Z</time></trkpt><trkpt lat="40.7679437" lon="9.654477"><ele>30.5</ele><time>2026-04-07T11:06:50.344Z</time></trkpt><trkpt lat="40.7680898" lon="9.6544623"><ele>30.0</ele><time>2026-04-07T11:06:51.345Z</time></trkpt><trkpt lat="40.768239" lon="9.6544474"><ele>29.5</ele><time>2026-04-07T11:06:52.344Z</time></trkpt><trkpt lat="40.7683878" lon="9.6544274"><ele>29.0</ele><time>2026-04-07T11:06:53.344Z</time></trkpt><trkpt lat="40.7685379" lon="9.6544091"><ele>28.0</ele><time>2026-04-07T11:06:54.345Z</time></trkpt><trkpt lat="40.7686908" lon="9.6543955"><ele>27.0</ele><time>2026-04-07T11:06:55.345Z</time></trkpt><trkpt lat="40.7688469" lon="9.6543776"><ele>26.0</ele><time>2026-04-07T11:06:56.345Z</time></trkpt><trkpt lat="40.7690011" lon="9.6543615"><ele>26.0</ele><time>2026-04-07T11:06:57.344Z</time></trkpt><trkpt lat="40.7691535" lon="9.654349"><ele>26.0</ele><time>2026-04-07T11:06:58.345Z</time></trkpt><trkpt lat="40.7692957" lon="9.654332"><ele>26.0</ele><time>2026-04-07T11:06:59.345Z</time></trkpt><trkpt lat="40.769431" lon="9.6543196"><ele>26.0</ele><time>2026-04-07T11:07:00.345Z</time></trkpt><trkpt lat="40.7695558" lon="9.6543083"><ele>25.0</ele><time>2026-04-07T11:07:01.345Z</time></trkpt><trkpt lat="40.7696848" lon="9.654293"><ele>24.0</ele><time>2026-04-07T11:07:02.345Z</time></trkpt><trkpt lat="40.7698152" lon="9.6542772"><ele>23.0</ele><time>2026-04-07T11:07:03.344Z</time></trkpt><trkpt lat="40.7699467" lon="9.6542575"><ele>22.0</ele><time>2026-04-07T11:07:04.345Z</time></trkpt><trkpt lat="40.7700822" lon="9.6542481"><ele>21.5</ele><time>2026-04-07T11:07:05.345Z</time></trkpt><trkpt lat="40.7702197" lon="9.6542557"><ele>21.0</ele><time>2026-04-07T11:07:06.345Z</time></trkpt><trkpt lat="40.7703575" lon="9.6542875"><ele>20.5</ele><time>2026-04-07T11:07:07.344Z</time></trkpt><trkpt lat="40.7704847" lon="9.654343"><ele>20.0</ele><time>2026-04-07T11:07:08.345Z</time></trkpt><trkpt lat="40.7706165" lon="9.6544056"><ele>19.25</ele><time>2026-04-07T11:07:09.345Z</time></trkpt><trkpt lat="40.7707459" lon="9.654475"><ele>18.5</ele><time>2026-04-07T11:07:10.345Z</time></trkpt><trkpt lat="40.7708773" lon="9.6545396"><ele>17.75</ele><time>2026-04-07T11:07:11.345Z</time></trkpt><trkpt lat="40.771004" lon="9.6546017"><ele>17.0</ele><time>2026-04-07T11:07:12.345Z</time></trkpt><trkpt lat="40.7711241" lon="9.6546707"><ele>17.0</ele><time>2026-04-07T11:07:13.345Z</time></trkpt><trkpt lat="40.7712517" lon="9.6547348"><ele>17.0</ele><time>2026-04-07T11:07:14.345Z</time></trkpt><trkpt lat="40.7713794" lon="9.6548004"><ele>17.0</ele><time>2026-04-07T11:07:15.344Z</time></trkpt><trkpt lat="40.7715106" lon="9.6548657"><ele>17.0</ele><time>2026-04-07T11:07:16.344Z</time></trkpt><trkpt lat="40.7716405" lon="9.6549328"><ele>17.0</ele><time>2026-04-07T11:07:17.345Z</time></trkpt><trkpt lat="40.7717615" lon="9.6549969"><ele>17.0</ele><time>2026-04-07T11:07:18.345Z</time></trkpt><trkpt lat="40.7718802" lon="9.6550578"><ele>17.0</ele><time>2026-04-07T11:07:19.345Z</time></trkpt><trkpt lat="40.7719985" lon="9.6551169"><ele>17.0</ele><time>2026-04-07T11:07:20.345Z</time></trkpt><trkpt lat="40.7721145" lon="9.6551775"><ele>16.5</ele><time>2026-04-07T11:07:21.345Z</time></trkpt><trkpt lat="40.7722267" lon="9.6552386"><ele>16.0</ele><time>2026-04-07T11:07:22.344Z</time></trkpt><trkpt lat="40.7723405" lon="9.6553011"><ele>15.5</ele><time>2026-04-07T11:07:23.345Z</time></trkpt><trkpt lat="40.7724591" lon="9.6553604"><ele>15.0</ele><time>2026-04-07T11:07:24.345Z</time></trkpt><trkpt lat="40.7725699" lon="9.6554211"><ele>14.6</ele><time>2026-04-07T11:07:25.345Z</time></trkpt><trkpt lat="40.7726807" lon="9.6554731"><ele>14.2</ele><time>2026-04-07T11:07:26.345Z</time></trkpt><trkpt lat="40.7727792" lon="9.6555252"><ele>13.8</ele><time>2026-04-07T11:07:27.344Z</time></trkpt><trkpt lat="40.7728727" lon="9.655577"><ele>13.4</ele><time>2026-04-07T11:07:28.344Z</time></trkpt><trkpt lat="40.7729632" lon="9.6556214"><ele>13.0</ele><time>2026-04-07T11:07:29.344Z</time></trkpt><trkpt lat="40.7730457" lon="9.6556644"><ele>13.0</ele><time>2026-04-07T11:07:30.345Z</time></trkpt><trkpt lat="40.7731325" lon="9.6557036"><ele>13.0</ele><time>2026-04-07T11:07:31.345Z</time></trkpt><trkpt lat="40.7732237" lon="9.6557473"><ele>13.0</ele><time>2026-04-07T11:07:32.345Z</time></trkpt><trkpt lat="40.7733221" lon="9.6558004"><ele>13.0</ele><time>2026-04-07T11:07:33.344Z</time></trkpt><trkpt lat="40.7734201" lon="9.6558538"><ele>13.0</ele><time>2026-04-07T11:07:34.345Z</time></trkpt><trkpt lat="40.7735271" lon="9.6559085"><ele>13.25</ele><time>2026-04-07T11:07:35.345Z</time></trkpt><trkpt lat="40.7736368" lon="9.6559596"><ele>13.5</ele><time>2026-04-07T11:07:36.345Z</time></trkpt><trkpt lat="40.7737526" lon="9.6560085"><ele>13.75</ele><time>2026-04-07T11:07:37.344Z</time></trkpt><trkpt lat="40.7738712" lon="9.6560572"><ele>14.0</ele><time>2026-04-07T11:07:38.345Z</time></trkpt><trkpt lat="40.7739983" lon="9.6561048"><ele>13.25</ele><time>2026-04-07T11:07:39.345Z</time></trkpt><trkpt lat="40.7741273" lon="9.6561485"><ele>12.5</ele><time>2026-04-07T11:07:40.345Z</time></trkpt><trkpt lat="40.7742541" lon="9.6561907"><ele>11.75</ele><time>2026-04-07T11:07:41.345Z</time></trkpt><trkpt lat="40.7743787" lon="9.6562287"><ele>11.0</ele><time>2026-04-07T11:07:42.345Z</time></trkpt><trkpt lat="40.7744988" lon="9.6562641"><ele>10.8</ele><time>2026-04-07T11:07:43.345Z</time></trkpt><trkpt lat="40.7746072" lon="9.6562996"><ele>10.600000000000001</ele><time>2026-04-07T11:07:44.345Z</time></trkpt><trkpt lat="40.7747096" lon="9.6563374"><ele>10.4</ele><time>2026-04-07T11:07:45.345Z</time></trkpt><trkpt lat="40.7748004" lon="9.6563675"><ele>10.2</ele><time>2026-04-07T11:07:46.345Z</time></trkpt><trkpt lat="40.7748864" lon="9.656395"><ele>10.0</ele><time>2026-04-07T11:07:47.344Z</time></trkpt><trkpt lat="40.7749776" lon="9.6564205"><ele>10.0</ele><time>2026-04-07T11:07:48.345Z</time></trkpt><trkpt lat="40.7750732" lon="9.6564531"><ele>10.0</ele><time>2026-04-07T11:07:49.345Z</time></trkpt><trkpt lat="40.7751708" lon="9.6564826"><ele>10.0</ele><time>2026-04-07T11:07:50.344Z</time></trkpt><trkpt lat="40.7752687" lon="9.6565145"><ele>10.0</ele><time>2026-04-07T11:07:51.345Z</time></trkpt><trkpt lat="40.7753679" lon="9.6565465"><ele>10.0</ele><time>2026-04-07T11:07:52.345Z</time></trkpt><trkpt lat="40.7754663" lon="9.6565792"><ele>10.2</ele><time>2026-04-07T11:07:53.344Z</time></trkpt><trkpt lat="40.7755639" lon="9.6566138"><ele>10.4</ele><time>2026-04-07T11:07:54.345Z</time></trkpt><trkpt lat="40.7756592" lon="9.6566482"><ele>10.600000000000001</ele><time>2026-04-07T11:07:55.345Z</time></trkpt><trkpt lat="40.7757502" lon="9.6566785"><ele>10.8</ele><time>2026-04-07T11:07:56.345Z</time></trkpt><trkpt lat="40.7758338" lon="9.656707"><ele>11.0</ele><time>2026-04-07T11:07:57.345Z</time></trkpt><trkpt lat="40.7759133" lon="9.6567329"><ele>11.0</ele><time>2026-04-07T11:07:58.344Z</time></trkpt><trkpt lat="40.7759923" lon="9.6567598"><ele>11.0</ele><time>2026-04-07T11:07:59.345Z</time></trkpt><trkpt lat="40.7760658" lon="9.6567844"><ele>11.0</ele><time>2026-04-07T11:08:00.344Z</time></trkpt><trkpt lat="40.7761353" lon="9.6568038"><ele>11.0</ele><time>2026-04-07T11:08:01.345Z</time></trkpt><trkpt lat="40.7762653" lon="9.6568448"><ele>11.0</ele><time>2026-04-07T11:08:03.345Z</time></trkpt><trkpt lat="40.7763376" lon="9.6568724"><ele>11.0</ele><time>2026-04-07T11:08:04.345Z</time></trkpt><trkpt lat="40.7764101" lon="9.6568939"><ele>10.833333333333332</ele><time>2026-04-07T11:08:05.345Z</time></trkpt><trkpt lat="40.7764873" lon="9.6569165"><ele>10.666666666666666</ele><time>2026-04-07T11:08:06.344Z</time></trkpt><trkpt lat="40.7765666" lon="9.6569391"><ele>10.5</ele><time>2026-04-07T11:08:07.345Z</time></trkpt><trkpt lat="40.7766478" lon="9.656958"><ele>10.333333333333334</ele><time>2026-04-07T11:08:08.345Z</time></trkpt><trkpt lat="40.7767307" lon="9.6569811"><ele>10.166666666666668</ele><time>2026-04-07T11:08:09.345Z</time></trkpt><trkpt lat="40.7768126" lon="9.656996"><ele>10.0</ele><time>2026-04-07T11:08:10.345Z</time></trkpt><trkpt lat="40.7768991" lon="9.65701"><ele>9.4</ele><time>2026-04-07T11:08:11.345Z</time></trkpt><trkpt lat="40.7769844" lon="9.6570302"><ele>8.8</ele><time>2026-04-07T11:08:12.344Z</time></trkpt><trkpt lat="40.7770733" lon="9.6570501"><ele>8.2</ele><time>2026-04-07T11:08:13.345Z</time></trkpt><trkpt lat="40.7771701" lon="9.6570696"><ele>7.6</ele><time>2026-04-07T11:08:14.345Z</time></trkpt><trkpt lat="40.777268" lon="9.6570862"><ele>7.0</ele><time>2026-04-07T11:08:15.345Z</time></trkpt><trkpt lat="40.7773717" lon="9.6571069"><ele>7.0</ele><time>2026-04-07T11:08:16.345Z</time></trkpt><trkpt lat="40.7774795" lon="9.6571323"><ele>7.0</ele><time>2026-04-07T11:08:17.345Z</time></trkpt><trkpt lat="40.7775925" lon="9.657155"><ele>7.0</ele><time>2026-04-07T11:08:18.345Z</time></trkpt><trkpt lat="40.7777059" lon="9.6571781"><ele>7.0</ele><time>2026-04-07T11:08:19.345Z</time></trkpt><trkpt lat="40.7778277" lon="9.6572011"><ele>7.25</ele><time>2026-04-07T11:08:20.345Z</time></trkpt><trkpt lat="40.7779507" lon="9.657225"><ele>7.5</ele><time>2026-04-07T11:08:21.345Z</time></trkpt><trkpt lat="40.77808" lon="9.6572481"><ele>7.75</ele><time>2026-04-07T11:08:22.344Z</time></trkpt><trkpt lat="40.7782089" lon="9.6572744"><ele>8.0</ele><time>2026-04-07T11:08:23.345Z</time></trkpt><trkpt lat="40.7783422" lon="9.6573007"><ele>8.0</ele><time>2026-04-07T11:08:24.345Z</time></trkpt><trkpt lat="40.7784739" lon="9.657326"><ele>8.0</ele><time>2026-04-07T11:08:25.345Z</time></trkpt><trkpt lat="40.7785988" lon="9.6573499"><ele>8.0</ele><time>2026-04-07T11:08:26.345Z</time></trkpt><trkpt lat="40.7787191" lon="9.6573754"><ele>8.0</ele><time>2026-04-07T11:08:27.345Z</time></trkpt><trkpt lat="40.7788349" lon="9.6573989"><ele>7.800000000000001</ele><time>2026-04-07T11:08:28.344Z</time></trkpt><trkpt lat="40.7789446" lon="9.6574231"><ele>7.6000000000000005</ele><time>2026-04-07T11:08:29.345Z</time></trkpt><trkpt lat="40.77905" lon="9.6574438"><ele>7.3999999999999995</ele><time>2026-04-07T11:08:30.344Z</time></trkpt><trkpt lat="40.779154" lon="9.6574683"><ele>7.199999999999999</ele><time>2026-04-07T11:08:31.345Z</time></trkpt><trkpt lat="40.7792624" lon="9.6574902"><ele>7.0</ele><time>2026-04-07T11:08:32.345Z</time></trkpt><trkpt lat="40.7793668" lon="9.6575146"><ele>7.000000000000001</ele><time>2026-04-07T11:08:33.345Z</time></trkpt><trkpt lat="40.779467" lon="9.6575369"><ele>7.0</ele><time>2026-04-07T11:08:34.344Z</time></trkpt><trkpt lat="40.7795535" lon="9.6575582"><ele>7.0</ele><time>2026-04-07T11:08:35.344Z</time></trkpt><trkpt lat="40.7796272" lon="9.6575761"><ele>7.0</ele><time>2026-04-07T11:08:36.345Z</time></trkpt><trkpt lat="40.7797149" lon="9.6575925"><ele>7.000000000000001</ele><time>2026-04-07T11:08:38.345Z</time></trkpt><trkpt lat="40.7797869" lon="9.657606"><ele>7.0</ele><time>2026-04-07T11:08:41.344Z</time></trkpt><trkpt lat="40.7799075" lon="9.6576231"><ele>7.0</ele><time>2026-04-07T11:08:43.344Z</time></trkpt><trkpt lat="40.77999" lon="9.657643"><ele>6.999999999999999</ele><time>2026-04-07T11:08:44.345Z</time></trkpt><trkpt lat="40.7800844" lon="9.6576646"><ele>6.999999999999999</ele><time>2026-04-07T11:08:45.344Z</time></trkpt><trkpt lat="40.780188" lon="9.6576786"><ele>7.0</ele><time>2026-04-07T11:08:46.345Z</time></trkpt><trkpt lat="40.7803073" lon="9.6576998"><ele>7.0</ele><time>2026-04-07T11:08:47.344Z</time></trkpt><trkpt lat="40.7804311" lon="9.6577206"><ele>6.75</ele><time>2026-04-07T11:08:48.344Z</time></trkpt><trkpt lat="40.7805662" lon="9.6577451"><ele>6.5</ele><time>2026-04-07T11:08:49.345Z</time></trkpt><trkpt lat="40.7806993" lon="9.6577683"><ele>6.25</ele><time>2026-04-07T11:08:50.345Z</time></trkpt><trkpt lat="40.7808311" lon="9.6577845"><ele>6.0</ele><time>2026-04-07T11:08:51.345Z</time></trkpt><trkpt lat="40.7809599" lon="9.6577949"><ele>5.5</ele><time>2026-04-07T11:08:52.344Z</time></trkpt><trkpt lat="40.7810873" lon="9.6578025"><ele>5.0</ele><time>2026-04-07T11:08:53.344Z</time></trkpt><trkpt lat="40.7812122" lon="9.6578044"><ele>4.5</ele><time>2026-04-07T11:08:54.344Z</time></trkpt><trkpt lat="40.7813362" lon="9.6578049"><ele>4.0</ele><time>2026-04-07T11:08:55.344Z</time></trkpt><trkpt lat="40.7814575" lon="9.6578041"><ele>4.0</ele><time>2026-04-07T11:08:56.345Z</time></trkpt><trkpt lat="40.7815791" lon="9.6577973"><ele>4.0</ele><time>2026-04-07T11:08:57.345Z</time></trkpt><trkpt lat="40.7816997" lon="9.6577859"><ele>4.0</ele><time>2026-04-07T11:08:58.345Z</time></trkpt><trkpt lat="40.7818189" lon="9.6577794"><ele>4.0</ele><time>2026-04-07T11:08:59.344Z</time></trkpt><trkpt lat="40.7819414" lon="9.6577731"><ele>4.0</ele><time>2026-04-07T11:09:00.344Z</time></trkpt><trkpt lat="40.7820623" lon="9.6577677"><ele>4.0</ele><time>2026-04-07T11:09:01.345Z</time></trkpt><trkpt lat="40.7821838" lon="9.6577629"><ele>4.0</ele><time>2026-04-07T11:09:02.345Z</time></trkpt><trkpt lat="40.7823085" lon="9.6577551"><ele>4.0</ele><time>2026-04-07T11:09:03.345Z</time></trkpt><trkpt lat="40.7824392" lon="9.657744"><ele>4.0</ele><time>2026-04-07T11:09:04.345Z</time></trkpt><trkpt lat="40.7825719" lon="9.6577338"><ele>4.0</ele><time>2026-04-07T11:09:05.345Z</time></trkpt><trkpt lat="40.782708" lon="9.6577275"><ele>4.0</ele><time>2026-04-07T11:09:06.345Z</time></trkpt><trkpt lat="40.7828444" lon="9.6577182"><ele>4.0</ele><time>2026-04-07T11:09:07.344Z</time></trkpt><trkpt lat="40.7829858" lon="9.6577089"><ele>4.0</ele><time>2026-04-07T11:09:08.345Z</time></trkpt><trkpt lat="40.7831302" lon="9.6576996"><ele>4.0</ele><time>2026-04-07T11:09:09.345Z</time></trkpt><trkpt lat="40.783277" lon="9.6576897"><ele>4.0</ele><time>2026-04-07T11:09:10.345Z</time></trkpt><trkpt lat="40.7834261" lon="9.6576809"><ele>4.0</ele><time>2026-04-07T11:09:11.345Z</time></trkpt><trkpt lat="40.7835617" lon="9.6576676"><ele>3.5</ele><time>2026-04-07T11:09:12.344Z</time></trkpt><trkpt lat="40.7836956" lon="9.6576562"><ele>3.0</ele><time>2026-04-07T11:09:13.344Z</time></trkpt><trkpt lat="40.7838224" lon="9.657647"><ele>2.5</ele><time>2026-04-07T11:09:14.345Z</time></trkpt><trkpt lat="40.7839434" lon="9.657637"><ele>2.0</ele><time>2026-04-07T11:09:15.345Z</time></trkpt><trkpt lat="40.7840601" lon="9.6576313"><ele>2.0</ele><time>2026-04-07T11:09:16.345Z</time></trkpt><trkpt lat="40.784177" lon="9.6576312"><ele>2.0</ele><time>2026-04-07T11:09:17.345Z</time></trkpt><trkpt lat="40.7842818" lon="9.6576391"><ele>2.0</ele><time>2026-04-07T11:09:18.345Z</time></trkpt><trkpt lat="40.7843744" lon="9.6576592"><ele>2.0</ele><time>2026-04-07T11:09:19.344Z</time></trkpt><trkpt lat="40.7844618" lon="9.6576999"><ele>2.0</ele><time>2026-04-07T11:09:20.344Z</time></trkpt><trkpt lat="40.7845478" lon="9.657738"><ele>2.0</ele><time>2026-04-07T11:09:21.345Z</time></trkpt><trkpt lat="40.7846397" lon="9.6577543"><ele>2.0</ele><time>2026-04-07T11:09:22.345Z</time></trkpt><trkpt lat="40.7847155" lon="9.6577298"><ele>2.0</ele><time>2026-04-07T11:09:23.345Z</time></trkpt><trkpt lat="40.7847888" lon="9.6576778"><ele>2.0</ele><time>2026-04-07T11:09:24.345Z</time></trkpt><trkpt lat="40.7848802" lon="9.6576249"><ele>2.0</ele><time>2026-04-07T11:09:25.345Z</time></trkpt><trkpt lat="40.784989" lon="9.6575987"><ele>2.0</ele><time>2026-04-07T11:09:26.345Z</time></trkpt><trkpt lat="40.7851118" lon="9.6575796"><ele>2.0</ele><time>2026-04-07T11:09:27.345Z</time></trkpt><trkpt lat="40.7852385" lon="9.657565"><ele>2.0</ele><time>2026-04-07T11:09:28.345Z</time></trkpt><trkpt lat="40.7853729" lon="9.6575554"><ele>2.0</ele><time>2026-04-07T11:09:29.345Z</time></trkpt><trkpt lat="40.7855153" lon="9.6575453"><ele>2.0</ele><time>2026-04-07T11:09:30.344Z</time></trkpt><trkpt lat="40.7856659" lon="9.6575315"><ele>2.0</ele><time>2026-04-07T11:09:31.344Z</time></trkpt><trkpt lat="40.7858166" lon="9.657522"><ele>2.0</ele><time>2026-04-07T11:09:32.345Z</time></trkpt><trkpt lat="40.7859718" lon="9.6575096"><ele>1.3333333333333333</ele><time>2026-04-07T11:09:33.345Z</time></trkpt><trkpt lat="40.7861284" lon="9.6574957"><ele>0.6666666666666666</ele><time>2026-04-07T11:09:34.345Z</time></trkpt><trkpt lat="40.7862889" lon="9.6574772"><ele>0.0</ele><time>2026-04-07T11:09:35.344Z</time></trkpt><trkpt lat="40.7864502" lon="9.6574604"><ele>0.0</ele><time>2026-04-07T11:09:36.344Z</time></trkpt><trkpt lat="40.7866161" lon="9.6574415"><ele>0.0</ele><time>2026-04-07T11:09:37.345Z</time></trkpt><trkpt lat="40.7867814" lon="9.6574203"><ele>0.0</ele><time>2026-04-07T11:09:38.345Z</time></trkpt><trkpt lat="40.7869365" lon="9.6573978"><ele>0.0</ele><time>2026-04-07T11:09:39.345Z</time></trkpt><trkpt lat="40.7870829" lon="9.6573776"><ele>0.0</ele><time>2026-04-07T11:09:40.345Z</time></trkpt><trkpt lat="40.7872224" lon="9.6573602"><ele>0.0</ele><time>2026-04-07T11:09:41.345Z</time></trkpt><trkpt lat="40.7873605" lon="9.6573401"><ele>0.0</ele><time>2026-04-07T11:09:42.345Z</time></trkpt><trkpt lat="40.7875018" lon="9.6573164"><ele>0.0</ele><time>2026-04-07T11:09:43.345Z</time></trkpt><trkpt lat="40.7876432" lon="9.6572894"><ele>0.0</ele><time>2026-04-07T11:09:44.345Z</time></trkpt><trkpt lat="40.7877849" lon="9.6572504"><ele>0.0</ele><time>2026-04-07T11:09:45.345Z</time></trkpt><trkpt lat="40.7879328" lon="9.6572065"><ele>0.0</ele><time>2026-04-07T11:09:46.345Z</time></trkpt><trkpt lat="40.788083" lon="9.6571601"><ele>0.3333333333333333</ele><time>2026-04-07T11:09:47.345Z</time></trkpt><trkpt lat="40.7882352" lon="9.6571117"><ele>0.6666666666666666</ele><time>2026-04-07T11:09:48.345Z</time></trkpt><trkpt lat="40.7883926" lon="9.6570648"><ele>1.0</ele><time>2026-04-07T11:09:49.345Z</time></trkpt><trkpt lat="40.7885509" lon="9.6570185"><ele>1.0</ele><time>2026-04-07T11:09:50.345Z</time></trkpt><trkpt lat="40.7887137" lon="9.6569707"><ele>1.0</ele><time>2026-04-07T11:09:51.345Z</time></trkpt><trkpt lat="40.788875" lon="9.656918"><ele>1.0</ele><time>2026-04-07T11:09:52.345Z</time></trkpt><trkpt lat="40.7890398" lon="9.6568684"><ele>1.0</ele><time>2026-04-07T11:09:53.345Z</time></trkpt><trkpt lat="40.789208" lon="9.6568157"><ele>1.0</ele><time>2026-04-07T11:09:54.345Z</time></trkpt><trkpt lat="40.7893755" lon="9.6567632"><ele>1.0</ele><time>2026-04-07T11:09:55.344Z</time></trkpt><trkpt lat="40.7895469" lon="9.6567084"><ele>2.3333333333333335</ele><time>2026-04-07T11:09:56.344Z</time></trkpt><trkpt lat="40.7897203" lon="9.6566532"><ele>3.666666666666667</ele><time>2026-04-07T11:09:57.345Z</time></trkpt><trkpt lat="40.7898958" lon="9.6566024"><ele>5.0</ele><time>2026-04-07T11:09:58.345Z</time></trkpt><trkpt lat="40.7900719" lon="9.6565461"><ele>4.666666666666667</ele><time>2026-04-07T11:09:59.345Z</time></trkpt><trkpt lat="40.7902476" lon="9.6564932"><ele>4.333333333333333</ele><time>2026-04-07T11:10:00.345Z</time></trkpt><trkpt lat="40.7904281" lon="9.6564382"><ele>4.0</ele><time>2026-04-07T11:10:01.344Z</time></trkpt><trkpt lat="40.7906097" lon="9.6563853"><ele>4.0</ele><time>2026-04-07T11:10:02.344Z</time></trkpt><trkpt lat="40.7907948" lon="9.6563362"><ele>4.0</ele><time>2026-04-07T11:10:03.345Z</time></trkpt><trkpt lat="40.7909774" lon="9.6562935"><ele>4.0</ele><time>2026-04-07T11:10:04.344Z</time></trkpt><trkpt lat="40.791157" lon="9.656249"><ele>3.333333333333333</ele><time>2026-04-07T11:10:05.345Z</time></trkpt><trkpt lat="40.7913386" lon="9.6562125"><ele>2.6666666666666665</ele><time>2026-04-07T11:10:06.345Z</time></trkpt><trkpt lat="40.7915205" lon="9.6561874"><ele>2.0</ele><time>2026-04-07T11:10:07.345Z</time></trkpt><trkpt lat="40.7917011" lon="9.65617"><ele>2.0</ele><time>2026-04-07T11:10:08.344Z</time></trkpt><trkpt lat="40.7918825" lon="9.65615"><ele>2.0</ele><time>2026-04-07T11:10:09.344Z</time></trkpt><trkpt lat="40.7920627" lon="9.6561278"><ele>2.0</ele><time>2026-04-07T11:10:10.345Z</time></trkpt><trkpt lat="40.7922448" lon="9.6561108"><ele>2.0</ele><time>2026-04-07T11:10:11.344Z</time></trkpt><trkpt lat="40.7924309" lon="9.6560918"><ele>2.0</ele><time>2026-04-07T11:10:12.344Z</time></trkpt><trkpt lat="40.7926145" lon="9.656072"><ele>2.0</ele><time>2026-04-07T11:10:13.345Z</time></trkpt><trkpt lat="40.7928036" lon="9.6560528"><ele>2.333333333333333</ele><time>2026-04-07T11:10:14.345Z</time></trkpt><trkpt lat="40.7929972" lon="9.6560332"><ele>2.6666666666666665</ele><time>2026-04-07T11:10:15.345Z</time></trkpt><trkpt lat="40.7931882" lon="9.6560147"><ele>3.0</ele><time>2026-04-07T11:10:16.345Z</time></trkpt><trkpt lat="40.7933813" lon="9.6559958"><ele>3.333333333333333</ele><time>2026-04-07T11:10:17.345Z</time></trkpt><trkpt lat="40.793577" lon="9.6559774"><ele>3.6666666666666665</ele><time>2026-04-07T11:10:18.345Z</time></trkpt><trkpt lat="40.7937722" lon="9.6559588"><ele>4.0</ele><time>2026-04-07T11:10:19.345Z</time></trkpt><trkpt lat="40.7939674" lon="9.6559401"><ele>4.0</ele><time>2026-04-07T11:10:20.345Z</time></trkpt><trkpt lat="40.7941598" lon="9.655921"><ele>4.0</ele><time>2026-04-07T11:10:21.345Z</time></trkpt><trkpt lat="40.7943477" lon="9.6559052"><ele>4.0</ele><time>2026-04-07T11:10:22.345Z</time></trkpt><trkpt lat="40.7945331" lon="9.6558887"><ele>3.333333333333333</ele><time>2026-04-07T11:10:23.345Z</time></trkpt><trkpt lat="40.7947199" lon="9.6558715"><ele>2.6666666666666665</ele><time>2026-04-07T11:10:24.345Z</time></trkpt><trkpt lat="40.7949027" lon="9.6558485"><ele>2.0</ele><time>2026-04-07T11:10:25.344Z</time></trkpt><trkpt lat="40.795086" lon="9.6558313"><ele>1.6666666666666665</ele><time>2026-04-07T11:10:26.345Z</time></trkpt><trkpt lat="40.7952708" lon="9.6558123"><ele>1.3333333333333333</ele><time>2026-04-07T11:10:27.345Z</time></trkpt><trkpt lat="40.7954571" lon="9.6557916"><ele>1.0</ele><time>2026-04-07T11:10:28.345Z</time></trkpt><trkpt lat="40.7956512" lon="9.6557811"><ele>1.0</ele><time>2026-04-07T11:10:29.345Z</time></trkpt><trkpt lat="40.7958454" lon="9.6557743"><ele>1.0</ele><time>2026-04-07T11:10:30.345Z</time></trkpt><trkpt lat="40.7960439" lon="9.6557789"><ele>1.0</ele><time>2026-04-07T11:10:31.345Z</time></trkpt><trkpt lat="40.7962441" lon="9.6557897"><ele>1.0</ele><time>2026-04-07T11:10:32.345Z</time></trkpt><trkpt lat="40.7964461" lon="9.6558028"><ele>1.0</ele><time>2026-04-07T11:10:33.344Z</time></trkpt><trkpt lat="40.7966488" lon="9.6558191"><ele>1.0</ele><time>2026-04-07T11:10:34.345Z</time></trkpt><trkpt lat="40.7968549" lon="9.6558354"><ele>1.0</ele><time>2026-04-07T11:10:35.344Z</time></trkpt><trkpt lat="40.7970601" lon="9.6558509"><ele>1.0</ele><time>2026-04-07T11:10:36.345Z</time></trkpt><trkpt lat="40.7972708" lon="9.6558671"><ele>1.0</ele><time>2026-04-07T11:10:37.345Z</time></trkpt><trkpt lat="40.7974793" lon="9.6558858"><ele>1.3333333333333333</ele><time>2026-04-07T11:10:38.345Z</time></trkpt><trkpt lat="40.7976894" lon="9.6559072"><ele>1.6666666666666665</ele><time>2026-04-07T11:10:39.345Z</time></trkpt><trkpt lat="40.7979059" lon="9.6559304"><ele>2.0</ele><time>2026-04-07T11:10:40.344Z</time></trkpt><trkpt lat="40.7981217" lon="9.6559481"><ele>2.0</ele><time>2026-04-07T11:10:41.345Z</time></trkpt><trkpt lat="40.7983408" lon="9.6559686"><ele>2.0</ele><time>2026-04-07T11:10:42.344Z</time></trkpt><trkpt lat="40.7985614" lon="9.6559874"><ele>2.0</ele><time>2026-04-07T11:10:43.344Z</time></trkpt><trkpt lat="40.7987743" lon="9.6560081"><ele>2.0</ele><time>2026-04-07T11:10:44.345Z</time></trkpt><trkpt lat="40.7989804" lon="9.6560211"><ele>2.0</ele><time>2026-04-07T11:10:45.345Z</time></trkpt><trkpt lat="40.7991835" lon="9.656038"><ele>2.0</ele><time>2026-04-07T11:10:46.345Z</time></trkpt><trkpt lat="40.7993861" lon="9.6560569"><ele>1.6666666666666665</ele><time>2026-04-07T11:10:47.345Z</time></trkpt><trkpt lat="40.7995874" lon="9.656076"><ele>1.3333333333333333</ele><time>2026-04-07T11:10:48.345Z</time></trkpt><trkpt lat="40.7997902" lon="9.6560974"><ele>1.0</ele><time>2026-04-07T11:10:49.345Z</time></trkpt><trkpt lat="40.7999926" lon="9.6561178"><ele>1.3333333333333333</ele><time>2026-04-07T11:10:50.345Z</time></trkpt><trkpt lat="40.8001968" lon="9.6561357"><ele>1.6666666666666665</ele><time>2026-04-07T11:10:51.345Z</time></trkpt><trkpt lat="40.8004058" lon="9.6561562"><ele>2.0</ele><time>2026-04-07T11:10:52.345Z</time></trkpt><trkpt lat="40.8006133" lon="9.6561735"><ele>2.0</ele><time>2026-04-07T11:10:53.345Z</time></trkpt><trkpt lat="40.8008221" lon="9.6561905"><ele>2.0</ele><time>2026-04-07T11:10:54.345Z</time></trkpt><trkpt lat="40.8010342" lon="9.656214"><ele>2.0</ele><time>2026-04-07T11:10:55.345Z</time></trkpt><trkpt lat="40.8012432" lon="9.6562331"><ele>2.0</ele><time>2026-04-07T11:10:56.345Z</time></trkpt><trkpt lat="40.801456" lon="9.656251"><ele>2.0</ele><time>2026-04-07T11:10:57.345Z</time></trkpt><trkpt lat="40.8016658" lon="9.6562714"><ele>2.0</ele><time>2026-04-07T11:10:58.345Z</time></trkpt><trkpt lat="40.8018754" lon="9.6562896"><ele>1.6666666666666665</ele><time>2026-04-07T11:10:59.345Z</time></trkpt><trkpt lat="40.8020813" lon="9.6563084"><ele>1.3333333333333333</ele><time>2026-04-07T11:11:00.344Z</time></trkpt><trkpt lat="40.8022862" lon="9.656328"><ele>1.0</ele><time>2026-04-07T11:11:01.344Z</time></trkpt><trkpt lat="40.802491" lon="9.656344"><ele>0.6666666666666666</ele><time>2026-04-07T11:11:02.344Z</time></trkpt><trkpt lat="40.802697" lon="9.6563581"><ele>0.3333333333333333</ele><time>2026-04-07T11:11:03.344Z</time></trkpt><trkpt lat="40.8029014" lon="9.656372"><ele>0.0</ele><time>2026-04-07T11:11:04.344Z</time></trkpt><trkpt lat="40.8031044" lon="9.6563925"><ele>0.0</ele><time>2026-04-07T11:11:05.344Z</time></trkpt><trkpt lat="40.8033029" lon="9.6564096"><ele>0.0</ele><time>2026-04-07T11:11:06.344Z</time></trkpt><trkpt lat="40.8034988" lon="9.6564282"><ele>0.0</ele><time>2026-04-07T11:11:07.344Z</time></trkpt><trkpt lat="40.8036927" lon="9.6564486"><ele>0.3333333333333333</ele><time>2026-04-07T11:11:08.345Z</time></trkpt><trkpt lat="40.8038859" lon="9.6564735"><ele>0.6666666666666666</ele><time>2026-04-07T11:11:09.345Z</time></trkpt><trkpt lat="40.8040788" lon="9.6565046"><ele>1.0</ele><time>2026-04-07T11:11:10.345Z</time></trkpt><trkpt lat="40.8042709" lon="9.6565466"><ele>0.3333333333333333</ele><time>2026-04-07T11:11:11.345Z</time></trkpt><trkpt lat="40.8044607" lon="9.6566047"><ele>-0.3333333333333333</ele><time>2026-04-07T11:11:12.345Z</time></trkpt><trkpt lat="40.8046522" lon="9.6566635"><ele>-1.0</ele><time>2026-04-07T11:11:13.344Z</time></trkpt><trkpt lat="40.8048489" lon="9.6567277"><ele>-1.0</ele><time>2026-04-07T11:11:14.345Z</time></trkpt><trkpt lat="40.8050428" lon="9.65679"><ele>-1.0</ele><time>2026-04-07T11:11:15.345Z</time></trkpt><trkpt lat="40.805241" lon="9.6568526"><ele>-1.0</ele><time>2026-04-07T11:11:16.345Z</time></trkpt><trkpt lat="40.8054385" lon="9.6569201"><ele>-0.6666666666666666</ele><time>2026-04-07T11:11:17.344Z</time></trkpt><trkpt lat="40.8056387" lon="9.6569889"><ele>-0.3333333333333333</ele><time>2026-04-07T11:11:18.345Z</time></trkpt><trkpt lat="40.8058411" lon="9.6570521"><ele>0.0</ele><time>2026-04-07T11:11:19.345Z</time></trkpt><trkpt lat="40.8060407" lon="9.6571164"><ele>0.3333333333333333</ele><time>2026-04-07T11:11:20.344Z</time></trkpt><trkpt lat="40.8062413" lon="9.6571838"><ele>0.6666666666666666</ele><time>2026-04-07T11:11:21.345Z</time></trkpt><trkpt lat="40.8064416" lon="9.657251"><ele>1.0</ele><time>2026-04-07T11:11:22.345Z</time></trkpt><trkpt lat="40.8066411" lon="9.6573217"><ele>1.6666666666666665</ele><time>2026-04-07T11:11:23.345Z</time></trkpt><trkpt lat="40.80684" lon="9.6573874"><ele>2.3333333333333335</ele><time>2026-04-07T11:11:24.344Z</time></trkpt><trkpt lat="40.807039" lon="9.6574536"><ele>3.0</ele><time>2026-04-07T11:11:25.345Z</time></trkpt><trkpt lat="40.807234" lon="9.6575205"><ele>3.0</ele><time>2026-04-07T11:11:26.345Z</time></trkpt><trkpt lat="40.8074291" lon="9.6575881"><ele>3.0</ele><time>2026-04-07T11:11:27.345Z</time></trkpt><trkpt lat="40.8076251" lon="9.6576522"><ele>3.0</ele><time>2026-04-07T11:11:28.345Z</time></trkpt><trkpt lat="40.8078223" lon="9.6577166"><ele>3.0</ele><time>2026-04-07T11:11:29.345Z</time></trkpt><trkpt lat="40.8080166" lon="9.6577803"><ele>3.0</ele><time>2026-04-07T11:11:30.345Z</time></trkpt><trkpt lat="40.8082139" lon="9.6578466"><ele>3.0</ele><time>2026-04-07T11:11:31.344Z</time></trkpt><trkpt lat="40.8084113" lon="9.6579119"><ele>4.0</ele><time>2026-04-07T11:11:32.345Z</time></trkpt><trkpt lat="40.8086038" lon="9.657979"><ele>5.0</ele><time>2026-04-07T11:11:33.345Z</time></trkpt><trkpt lat="40.8087954" lon="9.6580442"><ele>6.0</ele><time>2026-04-07T11:11:34.345Z</time></trkpt><trkpt lat="40.8089843" lon="9.6581083"><ele>6.0</ele><time>2026-04-07T11:11:35.345Z</time></trkpt><trkpt lat="40.8091712" lon="9.6581718"><ele>6.0</ele><time>2026-04-07T11:11:36.345Z</time></trkpt><trkpt lat="40.8093582" lon="9.6582363"><ele>6.0</ele><time>2026-04-07T11:11:37.345Z</time></trkpt><trkpt lat="40.8095433" lon="9.6583022"><ele>6.666666666666666</ele><time>2026-04-07T11:11:38.345Z</time></trkpt><trkpt lat="40.8097268" lon="9.6583613"><ele>7.333333333333333</ele><time>2026-04-07T11:11:39.344Z</time></trkpt><trkpt lat="40.8099117" lon="9.6584255"><ele>8.0</ele><time>2026-04-07T11:11:40.345Z</time></trkpt><trkpt lat="40.810098" lon="9.658486"><ele>8.333333333333332</ele><time>2026-04-07T11:11:41.345Z</time></trkpt><trkpt lat="40.8102843" lon="9.6585461"><ele>8.666666666666666</ele><time>2026-04-07T11:11:42.345Z</time></trkpt><trkpt lat="40.8104732" lon="9.6586071"><ele>9.0</ele><time>2026-04-07T11:11:43.345Z</time></trkpt><trkpt lat="40.8106624" lon="9.6586729"><ele>8.333333333333334</ele><time>2026-04-07T11:11:44.345Z</time></trkpt><trkpt lat="40.8108536" lon="9.6587383"><ele>7.666666666666667</ele><time>2026-04-07T11:11:45.345Z</time></trkpt><trkpt lat="40.8110371" lon="9.6587971"><ele>7.0</ele><time>2026-04-07T11:11:46.345Z</time></trkpt><trkpt lat="40.8112223" lon="9.6588575"><ele>7.0</ele><time>2026-04-07T11:11:47.344Z</time></trkpt><trkpt lat="40.8114087" lon="9.6589187"><ele>7.0</ele><time>2026-04-07T11:11:48.345Z</time></trkpt><trkpt lat="40.8115999" lon="9.6589792"><ele>7.0</ele><time>2026-04-07T11:11:49.345Z</time></trkpt><trkpt lat="40.8117909" lon="9.6590418"><ele>8.0</ele><time>2026-04-07T11:11:50.345Z</time></trkpt><trkpt lat="40.8119839" lon="9.6591016"><ele>9.0</ele><time>2026-04-07T11:11:51.344Z</time></trkpt><trkpt lat="40.8121762" lon="9.6591674"><ele>10.0</ele><time>2026-04-07T11:11:52.345Z</time></trkpt><trkpt lat="40.8123708" lon="9.6592348"><ele>10.0</ele><time>2026-04-07T11:11:53.345Z</time></trkpt><trkpt lat="40.8125664" lon="9.6592957"><ele>10.0</ele><time>2026-04-07T11:11:54.345Z</time></trkpt><trkpt lat="40.8127356" lon="9.6593543"><ele>10.0</ele><time>2026-04-07T11:11:55.345Z</time></trkpt><trkpt lat="40.8128876" lon="9.6594094"><ele>10.5</ele><time>2026-04-07T11:11:56.345Z</time></trkpt><trkpt lat="40.8130301" lon="9.6594559"><ele>11.0</ele><time>2026-04-07T11:11:57.345Z</time></trkpt><trkpt lat="40.8131607" lon="9.6595043"><ele>11.5</ele><time>2026-04-07T11:11:58.344Z</time></trkpt><trkpt lat="40.8132877" lon="9.6595472"><ele>12.0</ele><time>2026-04-07T11:11:59.345Z</time></trkpt><trkpt lat="40.813417" lon="9.6595866"><ele>12.75</ele><time>2026-04-07T11:12:00.345Z</time></trkpt><trkpt lat="40.8135507" lon="9.6596327"><ele>13.5</ele><time>2026-04-07T11:12:01.344Z</time></trkpt><trkpt lat="40.8136889" lon="9.6596811"><ele>14.25</ele><time>2026-04-07T11:12:02.344Z</time></trkpt><trkpt lat="40.8138377" lon="9.6597268"><ele>15.0</ele><time>2026-04-07T11:12:03.345Z</time></trkpt><trkpt lat="40.8139939" lon="9.6597795"><ele>15.0</ele><time>2026-04-07T11:12:04.345Z</time></trkpt><trkpt lat="40.8141513" lon="9.6598317"><ele>15.0</ele><time>2026-04-07T11:12:05.345Z</time></trkpt><trkpt lat="40.8143066" lon="9.6598875"><ele>15.0</ele><time>2026-04-07T11:12:06.345Z</time></trkpt><trkpt lat="40.8144602" lon="9.6599392"><ele>16.333333333333332</ele><time>2026-04-07T11:12:07.345Z</time></trkpt><trkpt lat="40.8146066" lon="9.6599897"><ele>17.666666666666664</ele><time>2026-04-07T11:12:08.345Z</time></trkpt><trkpt lat="40.814755" lon="9.6600389"><ele>19.0</ele><time>2026-04-07T11:12:09.345Z</time></trkpt><trkpt lat="40.8149068" lon="9.6600767"><ele>19.0</ele><time>2026-04-07T11:12:10.345Z</time></trkpt><trkpt lat="40.8150621" lon="9.6600986"><ele>19.0</ele><time>2026-04-07T11:12:11.345Z</time></trkpt><trkpt lat="40.8152208" lon="9.6601027"><ele>19.0</ele><time>2026-04-07T11:12:12.345Z</time></trkpt><trkpt lat="40.8153821" lon="9.6600922"><ele>19.0</ele><time>2026-04-07T11:12:13.345Z</time></trkpt><trkpt lat="40.8155437" lon="9.6600695"><ele>19.0</ele><time>2026-04-07T11:12:14.344Z</time></trkpt><trkpt lat="40.8157052" lon="9.6600438"><ele>19.0</ele><time>2026-04-07T11:12:15.344Z</time></trkpt><trkpt lat="40.8158689" lon="9.6600172"><ele>19.333333333333332</ele><time>2026-04-07T11:12:16.345Z</time></trkpt><trkpt lat="40.8160342" lon="9.6599886"><ele>19.666666666666668</ele><time>2026-04-07T11:12:17.345Z</time></trkpt><trkpt lat="40.8162037" lon="9.6599618"><ele>20.0</ele><time>2026-04-07T11:12:18.344Z</time></trkpt><trkpt lat="40.81637" lon="9.6599338"><ele>20.0</ele><time>2026-04-07T11:12:19.344Z</time></trkpt><trkpt lat="40.816535" lon="9.6599044"><ele>20.0</ele><time>2026-04-07T11:12:20.345Z</time></trkpt><trkpt lat="40.8167004" lon="9.6598798"><ele>20.0</ele><time>2026-04-07T11:12:21.345Z</time></trkpt><trkpt lat="40.8168551" lon="9.6598522"><ele>19.75</ele><time>2026-04-07T11:12:22.344Z</time></trkpt><trkpt lat="40.8170047" lon="9.6598296"><ele>19.5</ele><time>2026-04-07T11:12:23.345Z</time></trkpt><trkpt lat="40.8171439" lon="9.6598055"><ele>19.25</ele><time>2026-04-07T11:12:24.345Z</time></trkpt><trkpt lat="40.8172738" lon="9.6597847"><ele>19.0</ele><time>2026-04-07T11:12:25.345Z</time></trkpt><trkpt lat="40.8173917" lon="9.659767"><ele>19.0</ele><time>2026-04-07T11:12:26.344Z</time></trkpt><trkpt lat="40.8175001" lon="9.6597498"><ele>19.0</ele><time>2026-04-07T11:12:27.344Z</time></trkpt><trkpt lat="40.8175984" lon="9.6597352"><ele>19.0</ele><time>2026-04-07T11:12:28.345Z</time></trkpt><trkpt lat="40.8176851" lon="9.6597158"><ele>19.0</ele><time>2026-04-07T11:12:29.344Z</time></trkpt><trkpt lat="40.8177631" lon="9.6596989"><ele>19.0</ele><time>2026-04-07T11:12:30.345Z</time></trkpt><trkpt lat="40.8178404" lon="9.6596845"><ele>19.166666666666664</ele><time>2026-04-07T11:12:31.344Z</time></trkpt><trkpt lat="40.8179046" lon="9.6596769"><ele>19.333333333333332</ele><time>2026-04-07T11:12:32.344Z</time></trkpt><trkpt lat="40.8180256" lon="9.6596587"><ele>19.5</ele><time>2026-04-07T11:12:34.344Z</time></trkpt><trkpt lat="40.8181501" lon="9.6596368"><ele>19.666666666666668</ele><time>2026-04-07T11:12:36.345Z</time></trkpt><trkpt lat="40.818215" lon="9.6596272"><ele>19.833333333333336</ele><time>2026-04-07T11:12:37.345Z</time></trkpt><trkpt lat="40.8182838" lon="9.6596167"><ele>20.0</ele><time>2026-04-07T11:12:38.345Z</time></trkpt><trkpt lat="40.8183582" lon="9.6596088"><ele>20.0</ele><time>2026-04-07T11:12:39.345Z</time></trkpt><trkpt lat="40.8184405" lon="9.6595966"><ele>20.0</ele><time>2026-04-07T11:12:40.345Z</time></trkpt><trkpt lat="40.8185284" lon="9.6595796"><ele>20.0</ele><time>2026-04-07T11:12:41.345Z</time></trkpt><trkpt lat="40.8186224" lon="9.6595611"><ele>20.0</ele><time>2026-04-07T11:12:42.345Z</time></trkpt><trkpt lat="40.8187178" lon="9.6595454"><ele>20.0</ele><time>2026-04-07T11:12:43.345Z</time></trkpt><trkpt lat="40.8188185" lon="9.6595298"><ele>20.8</ele><time>2026-04-07T11:12:44.345Z</time></trkpt><trkpt lat="40.8189192" lon="9.6595126"><ele>21.6</ele><time>2026-04-07T11:12:45.345Z</time></trkpt><trkpt lat="40.8190182" lon="9.6594965"><ele>22.4</ele><time>2026-04-07T11:12:46.345Z</time></trkpt><trkpt lat="40.8191154" lon="9.6594793"><ele>23.2</ele><time>2026-04-07T11:12:47.344Z</time></trkpt><trkpt lat="40.8192161" lon="9.6594643"><ele>24.0</ele><time>2026-04-07T11:12:48.344Z</time></trkpt><trkpt lat="40.8193178" lon="9.6594473"><ele>24.6</ele><time>2026-04-07T11:12:49.344Z</time></trkpt><trkpt lat="40.819422" lon="9.6594283"><ele>25.2</ele><time>2026-04-07T11:12:50.345Z</time></trkpt><trkpt lat="40.8195313" lon="9.6594092"><ele>25.800000000000004</ele><time>2026-04-07T11:12:51.344Z</time></trkpt><trkpt lat="40.8196417" lon="9.6593962"><ele>26.400000000000002</ele><time>2026-04-07T11:12:52.344Z</time></trkpt><trkpt lat="40.8197526" lon="9.6593813"><ele>27.0</ele><time>2026-04-07T11:12:53.345Z</time></trkpt><trkpt lat="40.8198607" lon="9.6593616"><ele>27.0</ele><time>2026-04-07T11:12:54.345Z</time></trkpt><trkpt lat="40.8199722" lon="9.6593417"><ele>27.000000000000004</ele><time>2026-04-07T11:12:55.345Z</time></trkpt><trkpt lat="40.8200886" lon="9.6593248"><ele>27.000000000000004</ele><time>2026-04-07T11:12:56.345Z</time></trkpt><trkpt lat="40.8201949" lon="9.6593107"><ele>27.0</ele><time>2026-04-07T11:12:57.345Z</time></trkpt><trkpt lat="40.8202972" lon="9.6592976"><ele>27.0</ele><time>2026-04-07T11:12:58.345Z</time></trkpt><trkpt lat="40.8203992" lon="9.6592842"><ele>27.200000000000003</ele><time>2026-04-07T11:12:59.344Z</time></trkpt><trkpt lat="40.8205048" lon="9.659272"><ele>27.400000000000002</ele><time>2026-04-07T11:13:00.345Z</time></trkpt><trkpt lat="40.8206139" lon="9.6592574"><ele>27.599999999999998</ele><time>2026-04-07T11:13:01.345Z</time></trkpt><trkpt lat="40.820726" lon="9.6592511"><ele>27.799999999999997</ele><time>2026-04-07T11:13:02.345Z</time></trkpt><trkpt lat="40.8208463" lon="9.6592462"><ele>28.0</ele><time>2026-04-07T11:13:03.345Z</time></trkpt><trkpt lat="40.8209692" lon="9.6592431"><ele>28.75</ele><time>2026-04-07T11:13:04.345Z</time></trkpt><trkpt lat="40.8210966" lon="9.6592531"><ele>29.5</ele><time>2026-04-07T11:13:05.345Z</time></trkpt><trkpt lat="40.8212298" lon="9.6592724"><ele>30.25</ele><time>2026-04-07T11:13:06.345Z</time></trkpt><trkpt lat="40.821365" lon="9.6592987"><ele>31.0</ele><time>2026-04-07T11:13:07.345Z</time></trkpt><trkpt lat="40.821503" lon="9.6593313"><ele>31.0</ele><time>2026-04-07T11:13:08.344Z</time></trkpt><trkpt lat="40.8216425" lon="9.6593712"><ele>31.0</ele><time>2026-04-07T11:13:09.344Z</time></trkpt><trkpt lat="40.8217831" lon="9.6594071"><ele>31.0</ele><time>2026-04-07T11:13:10.345Z</time></trkpt><trkpt lat="40.8219246" lon="9.6594431"><ele>31.0</ele><time>2026-04-07T11:13:11.345Z</time></trkpt><trkpt lat="40.8220714" lon="9.6594799"><ele>31.25</ele><time>2026-04-07T11:13:12.344Z</time></trkpt><trkpt lat="40.8222169" lon="9.6595194"><ele>31.5</ele><time>2026-04-07T11:13:13.344Z</time></trkpt><trkpt lat="40.8223658" lon="9.6595578"><ele>31.75</ele><time>2026-04-07T11:13:14.345Z</time></trkpt><trkpt lat="40.8225085" lon="9.6595972"><ele>32.0</ele><time>2026-04-07T11:13:15.345Z</time></trkpt><trkpt lat="40.8226568" lon="9.6596342"><ele>32.666666666666664</ele><time>2026-04-07T11:13:16.344Z</time></trkpt><trkpt lat="40.8228055" lon="9.6596725"><ele>33.333333333333336</ele><time>2026-04-07T11:13:17.344Z</time></trkpt><trkpt lat="40.8229579" lon="9.6597098"><ele>34.0</ele><time>2026-04-07T11:13:18.344Z</time></trkpt><trkpt lat="40.8231114" lon="9.6597485"><ele>34.0</ele><time>2026-04-07T11:13:19.345Z</time></trkpt><trkpt lat="40.8232707" lon="9.65979"><ele>34.0</ele><time>2026-04-07T11:13:20.345Z</time></trkpt><trkpt lat="40.823435" lon="9.6598331"><ele>34.0</ele><time>2026-04-07T11:13:21.345Z</time></trkpt><trkpt lat="40.8235984" lon="9.6598745"><ele>35.333333333333336</ele><time>2026-04-07T11:13:22.345Z</time></trkpt><trkpt lat="40.8237678" lon="9.6599171"><ele>36.666666666666664</ele><time>2026-04-07T11:13:23.345Z</time></trkpt><trkpt lat="40.8239362" lon="9.6599609"><ele>38.0</ele><time>2026-04-07T11:13:24.344Z</time></trkpt><trkpt lat="40.82411" lon="9.6600019"><ele>38.0</ele><time>2026-04-07T11:13:25.345Z</time></trkpt><trkpt lat="40.8242836" lon="9.6600471"><ele>38.0</ele><time>2026-04-07T11:13:26.345Z</time></trkpt><trkpt lat="40.8244594" lon="9.6600961"><ele>38.0</ele><time>2026-04-07T11:13:27.344Z</time></trkpt><trkpt lat="40.8246375" lon="9.6601365"><ele>38.666666666666664</ele><time>2026-04-07T11:13:28.345Z</time></trkpt><trkpt lat="40.8248101" lon="9.6601784"><ele>39.333333333333336</ele><time>2026-04-07T11:13:29.344Z</time></trkpt><trkpt lat="40.8249745" lon="9.6602202"><ele>40.0</ele><time>2026-04-07T11:13:30.344Z</time></trkpt><trkpt lat="40.82513" lon="9.660272"><ele>40.25</ele><time>2026-04-07T11:13:31.345Z</time></trkpt><trkpt lat="40.825273" lon="9.6603347"><ele>40.5</ele><time>2026-04-07T11:13:32.345Z</time></trkpt><trkpt lat="40.8253972" lon="9.6604296"><ele>40.75</ele><time>2026-04-07T11:13:33.345Z</time></trkpt><trkpt lat="40.8255113" lon="9.6605425"><ele>41.0</ele><time>2026-04-07T11:13:34.345Z</time></trkpt><trkpt lat="40.8256194" lon="9.6606742"><ele>41.0</ele><time>2026-04-07T11:13:35.344Z</time></trkpt><trkpt lat="40.825728" lon="9.6608152"><ele>41.0</ele><time>2026-04-07T11:13:36.345Z</time></trkpt><trkpt lat="40.8258502" lon="9.6609618"><ele>41.0</ele><time>2026-04-07T11:13:37.344Z</time></trkpt><trkpt lat="40.8259815" lon="9.6611146"><ele>38.666666666666664</ele><time>2026-04-07T11:13:38.345Z</time></trkpt><trkpt lat="40.8261148" lon="9.6612768"><ele>36.333333333333336</ele><time>2026-04-07T11:13:39.344Z</time></trkpt><trkpt lat="40.826246" lon="9.6614443"><ele>34.0</ele><time>2026-04-07T11:13:40.345Z</time></trkpt><trkpt lat="40.8263834" lon="9.6616108"><ele>34.0</ele><time>2026-04-07T11:13:41.345Z</time></trkpt><trkpt lat="40.8265199" lon="9.6617829"><ele>34.0</ele><time>2026-04-07T11:13:42.345Z</time></trkpt><trkpt lat="40.8266567" lon="9.6619537"><ele>34.0</ele><time>2026-04-07T11:13:43.345Z</time></trkpt><trkpt lat="40.8267873" lon="9.6621162"><ele>32.0</ele><time>2026-04-07T11:13:44.344Z</time></trkpt><trkpt lat="40.8269195" lon="9.6622608"><ele>30.0</ele><time>2026-04-07T11:13:45.345Z</time></trkpt><trkpt lat="40.8270618" lon="9.6623732"><ele>28.0</ele><time>2026-04-07T11:13:46.345Z</time></trkpt><trkpt lat="40.8272159" lon="9.662442"><ele>28.0</ele><time>2026-04-07T11:13:47.345Z</time></trkpt><trkpt lat="40.8273767" lon="9.662467"><ele>28.0</ele><time>2026-04-07T11:13:48.345Z</time></trkpt><trkpt lat="40.8275419" lon="9.6624643"><ele>28.0</ele><time>2026-04-07T11:13:49.345Z</time></trkpt><trkpt lat="40.8277148" lon="9.6624483"><ele>27.0</ele><time>2026-04-07T11:13:50.345Z</time></trkpt><trkpt lat="40.8278924" lon="9.6624361"><ele>26.0</ele><time>2026-04-07T11:13:51.345Z</time></trkpt><trkpt lat="40.8280687" lon="9.6624227"><ele>25.0</ele><time>2026-04-07T11:13:52.345Z</time></trkpt><trkpt lat="40.8282447" lon="9.6624096"><ele>25.0</ele><time>2026-04-07T11:13:53.345Z</time></trkpt><trkpt lat="40.8284237" lon="9.6623964"><ele>25.0</ele><time>2026-04-07T11:13:54.344Z</time></trkpt><trkpt lat="40.828593" lon="9.6623801"><ele>25.0</ele><time>2026-04-07T11:13:55.345Z</time></trkpt><trkpt lat="40.8287568" lon="9.6623705"><ele>25.0</ele><time>2026-04-07T11:13:56.345Z</time></trkpt><trkpt lat="40.8289223" lon="9.6623756"><ele>25.0</ele><time>2026-04-07T11:13:57.345Z</time></trkpt><trkpt lat="40.8290886" lon="9.6624062"><ele>25.0</ele><time>2026-04-07T11:13:58.345Z</time></trkpt><trkpt lat="40.8292527" lon="9.6624688"><ele>26.0</ele><time>2026-04-07T11:13:59.345Z</time></trkpt><trkpt lat="40.829413" lon="9.6625681"><ele>27.0</ele><time>2026-04-07T11:14:00.344Z</time></trkpt><trkpt lat="40.8295713" lon="9.6626798"><ele>28.0</ele><time>2026-04-07T11:14:01.344Z</time></trkpt><trkpt lat="40.8297263" lon="9.662796"><ele>27.666666666666668</ele><time>2026-04-07T11:14:02.345Z</time></trkpt><trkpt lat="40.8298779" lon="9.6629129"><ele>27.333333333333336</ele><time>2026-04-07T11:14:03.344Z</time></trkpt><trkpt lat="40.8300265" lon="9.6630309"><ele>27.0</ele><time>2026-04-07T11:14:04.345Z</time></trkpt><trkpt lat="40.830178" lon="9.6631491"><ele>27.0</ele><time>2026-04-07T11:14:05.345Z</time></trkpt><trkpt lat="40.8303303" lon="9.6632644"><ele>27.0</ele><time>2026-04-07T11:14:06.345Z</time></trkpt><trkpt lat="40.830484" lon="9.6633855"><ele>27.0</ele><time>2026-04-07T11:14:07.345Z</time></trkpt><trkpt lat="40.8306375" lon="9.6635084"><ele>24.0</ele><time>2026-04-07T11:14:08.345Z</time></trkpt><trkpt lat="40.830781" lon="9.6636236"><ele>21.0</ele><time>2026-04-07T11:14:09.345Z</time></trkpt><trkpt lat="40.8309163" lon="9.6637314"><ele>18.0</ele><time>2026-04-07T11:14:10.344Z</time></trkpt><trkpt lat="40.83105" lon="9.6638371"><ele>17.666666666666668</ele><time>2026-04-07T11:14:11.344Z</time></trkpt><trkpt lat="40.831187" lon="9.6639307"><ele>17.333333333333336</ele><time>2026-04-07T11:14:12.345Z</time></trkpt><trkpt lat="40.8313316" lon="9.6639934"><ele>17.0</ele><time>2026-04-07T11:14:13.345Z</time></trkpt><trkpt lat="40.8314835" lon="9.6640276"><ele>17.0</ele><time>2026-04-07T11:14:14.344Z</time></trkpt><trkpt lat="40.8316275" lon="9.6640511"><ele>17.0</ele><time>2026-04-07T11:14:15.345Z</time></trkpt><trkpt lat="40.8317697" lon="9.664073"><ele>17.0</ele><time>2026-04-07T11:14:16.345Z</time></trkpt><trkpt lat="40.8319033" lon="9.6640952"><ele>17.0</ele><time>2026-04-07T11:14:17.344Z</time></trkpt><trkpt lat="40.83204" lon="9.6641163"><ele>16.75</ele><time>2026-04-07T11:14:18.345Z</time></trkpt><trkpt lat="40.8321757" lon="9.6641373"><ele>16.5</ele><time>2026-04-07T11:14:19.345Z</time></trkpt><trkpt lat="40.8323031" lon="9.6641576"><ele>16.25</ele><time>2026-04-07T11:14:20.345Z</time></trkpt><trkpt lat="40.8324204" lon="9.6641748"><ele>16.0</ele><time>2026-04-07T11:14:21.345Z</time></trkpt><trkpt lat="40.8325271" lon="9.6641873"><ele>15.999999999999998</ele><time>2026-04-07T11:14:22.345Z</time></trkpt><trkpt lat="40.83262" lon="9.6641972"><ele>16.0</ele><time>2026-04-07T11:14:23.345Z</time></trkpt><trkpt lat="40.8326927" lon="9.6642267"><ele>16.0</ele><time>2026-04-07T11:14:24.345Z</time></trkpt><trkpt lat="40.8327742" lon="9.6643428"><ele>16.0</ele><time>2026-04-07T11:14:26.345Z</time></trkpt><trkpt lat="40.8327813" lon="9.6644271"><ele>15.999999999999998</ele><time>2026-04-07T11:14:27.344Z</time></trkpt><trkpt lat="40.8327745" lon="9.6645267"><ele>16.0</ele><time>2026-04-07T11:14:28.345Z</time></trkpt><trkpt lat="40.8327639" lon="9.6646437"><ele>15.5</ele><time>2026-04-07T11:14:29.344Z</time></trkpt><trkpt lat="40.8327608" lon="9.6647802"><ele>15.0</ele><time>2026-04-07T11:14:30.345Z</time></trkpt><trkpt lat="40.8327569" lon="9.6649316"><ele>14.5</ele><time>2026-04-07T11:14:31.345Z</time></trkpt><trkpt lat="40.8327474" lon="9.665098"><ele>14.0</ele><time>2026-04-07T11:14:32.345Z</time></trkpt><trkpt lat="40.8327403" lon="9.6652778"><ele>13.75</ele><time>2026-04-07T11:14:33.345Z</time></trkpt><trkpt lat="40.8327347" lon="9.6654639"><ele>13.5</ele><time>2026-04-07T11:14:34.345Z</time></trkpt><trkpt lat="40.8327267" lon="9.6656539"><ele>13.25</ele><time>2026-04-07T11:14:35.345Z</time></trkpt><trkpt lat="40.8327186" lon="9.6658385"><ele>13.0</ele><time>2026-04-07T11:14:36.345Z</time></trkpt><trkpt lat="40.8327135" lon="9.6660098"><ele>13.0</ele><time>2026-04-07T11:14:37.345Z</time></trkpt><trkpt lat="40.8327046" lon="9.6661754"><ele>13.0</ele><time>2026-04-07T11:14:38.345Z</time></trkpt><trkpt lat="40.8326955" lon="9.6663426"><ele>13.0</ele><time>2026-04-07T11:14:39.344Z</time></trkpt><trkpt lat="40.8326873" lon="9.6665108"><ele>13.0</ele><time>2026-04-07T11:14:40.344Z</time></trkpt><trkpt lat="40.8326797" lon="9.6666829"><ele>13.0</ele><time>2026-04-07T11:14:41.345Z</time></trkpt><trkpt lat="40.8326708" lon="9.666854"><ele>13.0</ele><time>2026-04-07T11:14:42.345Z</time></trkpt><trkpt lat="40.8326623" lon="9.6670172"><ele>13.0</ele><time>2026-04-07T11:14:43.345Z</time></trkpt><trkpt lat="40.8326688" lon="9.6671716"><ele>13.0</ele><time>2026-04-07T11:14:44.344Z</time></trkpt><trkpt lat="40.8326959" lon="9.6673136"><ele>12.75</ele><time>2026-04-07T11:14:45.344Z</time></trkpt><trkpt lat="40.8327441" lon="9.6674427"><ele>12.5</ele><time>2026-04-07T11:14:46.345Z</time></trkpt><trkpt lat="40.8328159" lon="9.6675552"><ele>12.25</ele><time>2026-04-07T11:14:47.345Z</time></trkpt><trkpt lat="40.8329085" lon="9.6676455"><ele>12.0</ele><time>2026-04-07T11:14:48.345Z</time></trkpt><trkpt lat="40.8330151" lon="9.6677044"><ele>12.0</ele><time>2026-04-07T11:14:49.345Z</time></trkpt><trkpt lat="40.8331262" lon="9.6677311"><ele>12.0</ele><time>2026-04-07T11:14:50.345Z</time></trkpt><trkpt lat="40.8332444" lon="9.6677508"><ele>12.0</ele><time>2026-04-07T11:14:51.345Z</time></trkpt><trkpt lat="40.8333686" lon="9.6677658"><ele>12.0</ele><time>2026-04-07T11:14:52.345Z</time></trkpt><trkpt lat="40.8334948" lon="9.6677759"><ele>11.5</ele><time>2026-04-07T11:14:53.345Z</time></trkpt><trkpt lat="40.8336218" lon="9.667788"><ele>11.0</ele><time>2026-04-07T11:14:54.345Z</time></trkpt><trkpt lat="40.8337425" lon="9.6677976"><ele>10.5</ele><time>2026-04-07T11:14:55.344Z</time></trkpt><trkpt lat="40.8338527" lon="9.6678099"><ele>10.0</ele><time>2026-04-07T11:14:56.345Z</time></trkpt><trkpt lat="40.8339521" lon="9.6678322"><ele>10.0</ele><time>2026-04-07T11:14:57.345Z</time></trkpt><trkpt lat="40.8340421" lon="9.6678775"><ele>10.0</ele><time>2026-04-07T11:14:58.345Z</time></trkpt><trkpt lat="40.8341285" lon="9.6679599"><ele>10.0</ele><time>2026-04-07T11:14:59.344Z</time></trkpt><trkpt lat="40.834197" lon="9.6680794"><ele>10.0</ele><time>2026-04-07T11:15:00.345Z</time></trkpt><trkpt lat="40.8342495" lon="9.6682232"><ele>10.0</ele><time>2026-04-07T11:15:01.344Z</time></trkpt><trkpt lat="40.8342849" lon="9.6683899"><ele>10.0</ele><time>2026-04-07T11:15:02.345Z</time></trkpt><trkpt lat="40.8343169" lon="9.6685749"><ele>10.0</ele><time>2026-04-07T11:15:03.345Z</time></trkpt><trkpt lat="40.8343469" lon="9.6687732"><ele>10.0</ele><time>2026-04-07T11:15:04.345Z</time></trkpt><trkpt lat="40.8343789" lon="9.6689826"><ele>10.0</ele><time>2026-04-07T11:15:05.345Z</time></trkpt><trkpt lat="40.8344102" lon="9.6691892"><ele>10.0</ele><time>2026-04-07T11:15:06.344Z</time></trkpt><trkpt lat="40.8344418" lon="9.6694044"><ele>10.0</ele><time>2026-04-07T11:15:07.345Z</time></trkpt><trkpt lat="40.8344785" lon="9.6696312"><ele>9.666666666666668</ele><time>2026-04-07T11:15:08.345Z</time></trkpt><trkpt lat="40.8345167" lon="9.6698579"><ele>9.333333333333334</ele><time>2026-04-07T11:15:09.344Z</time></trkpt><trkpt lat="40.8345542" lon="9.6700968"><ele>9.0</ele><time>2026-04-07T11:15:10.344Z</time></trkpt><trkpt lat="40.8345872" lon="9.6703395"><ele>9.0</ele><time>2026-04-07T11:15:11.344Z</time></trkpt><trkpt lat="40.834622" lon="9.6705807"><ele>9.0</ele><time>2026-04-07T11:15:12.345Z</time></trkpt><trkpt lat="40.8346573" lon="9.6708258"><ele>9.0</ele><time>2026-04-07T11:15:13.344Z</time></trkpt><trkpt lat="40.8346918" lon="9.6710665"><ele>8.333333333333334</ele><time>2026-04-07T11:15:14.345Z</time></trkpt><trkpt lat="40.8347275" lon="9.6713046"><ele>7.666666666666667</ele><time>2026-04-07T11:15:15.345Z</time></trkpt><trkpt lat="40.8347657" lon="9.6715323"><ele>7.0</ele><time>2026-04-07T11:15:16.345Z</time></trkpt><trkpt lat="40.8348004" lon="9.6717461"><ele>6.666666666666667</ele><time>2026-04-07T11:15:17.345Z</time></trkpt><trkpt lat="40.8348364" lon="9.6719522"><ele>6.333333333333334</ele><time>2026-04-07T11:15:18.345Z</time></trkpt><trkpt lat="40.834878" lon="9.6721443"><ele>6.0</ele><time>2026-04-07T11:15:19.345Z</time></trkpt><trkpt lat="40.8349263" lon="9.6723249"><ele>6.0</ele><time>2026-04-07T11:15:20.345Z</time></trkpt><trkpt lat="40.8349814" lon="9.6724956"><ele>6.0</ele><time>2026-04-07T11:15:21.345Z</time></trkpt><trkpt lat="40.8350453" lon="9.6726576"><ele>6.0</ele><time>2026-04-07T11:15:22.345Z</time></trkpt><trkpt lat="40.8351207" lon="9.6728173"><ele>6.0</ele><time>2026-04-07T11:15:23.345Z</time></trkpt><trkpt lat="40.8351904" lon="9.6729892"><ele>6.5</ele><time>2026-04-07T11:15:24.344Z</time></trkpt><trkpt lat="40.8352601" lon="9.6731588"><ele>7.0</ele><time>2026-04-07T11:15:25.345Z</time></trkpt><trkpt lat="40.8353291" lon="9.6733333"><ele>7.5</ele><time>2026-04-07T11:15:26.345Z</time></trkpt><trkpt lat="40.8353932" lon="9.6735158"><ele>8.0</ele><time>2026-04-07T11:15:27.344Z</time></trkpt><trkpt lat="40.8354649" lon="9.6736914"><ele>8.0</ele><time>2026-04-07T11:15:28.344Z</time></trkpt><trkpt lat="40.8355386" lon="9.6738734"><ele>8.0</ele><time>2026-04-07T11:15:29.345Z</time></trkpt><trkpt lat="40.8356129" lon="9.674062"><ele>8.0</ele><time>2026-04-07T11:15:30.345Z</time></trkpt><trkpt lat="40.835684" lon="9.6742557"><ele>8.666666666666666</ele><time>2026-04-07T11:15:31.345Z</time></trkpt><trkpt lat="40.8357592" lon="9.6744541"><ele>9.333333333333334</ele><time>2026-04-07T11:15:32.344Z</time></trkpt><trkpt lat="40.8358396" lon="9.6746491"><ele>10.0</ele><time>2026-04-07T11:15:33.344Z</time></trkpt><trkpt lat="40.8359412" lon="9.6748308"><ele>11.666666666666668</ele><time>2026-04-07T11:15:34.345Z</time></trkpt><trkpt lat="40.8360563" lon="9.6750011"><ele>13.333333333333334</ele><time>2026-04-07T11:15:35.345Z</time></trkpt><trkpt lat="40.8361755" lon="9.6751643"><ele>15.0</ele><time>2026-04-07T11:15:36.344Z</time></trkpt><trkpt lat="40.8362979" lon="9.6753108"><ele>15.0</ele><time>2026-04-07T11:15:37.345Z</time></trkpt><trkpt lat="40.8364214" lon="9.6754482"><ele>15.0</ele><time>2026-04-07T11:15:38.344Z</time></trkpt><trkpt lat="40.8365444" lon="9.6755859"><ele>15.0</ele><time>2026-04-07T11:15:39.344Z</time></trkpt><trkpt lat="40.8366604" lon="9.6757399"><ele>15.0</ele><time>2026-04-07T11:15:40.345Z</time></trkpt><trkpt lat="40.8367662" lon="9.6759103"><ele>15.0</ele><time>2026-04-07T11:15:41.345Z</time></trkpt><trkpt lat="40.8368605" lon="9.676068"><ele>15.0</ele><time>2026-04-07T11:15:42.344Z</time></trkpt><trkpt lat="40.8369514" lon="9.6762302"><ele>16.25</ele><time>2026-04-07T11:15:43.345Z</time></trkpt><trkpt lat="40.8370381" lon="9.6763896"><ele>17.5</ele><time>2026-04-07T11:15:44.345Z</time></trkpt><trkpt lat="40.8371219" lon="9.6765491"><ele>18.75</ele><time>2026-04-07T11:15:45.345Z</time></trkpt><trkpt lat="40.8372009" lon="9.6767039"><ele>20.0</ele><time>2026-04-07T11:15:46.345Z</time></trkpt><trkpt lat="40.8372826" lon="9.6768587"><ele>18.75</ele><time>2026-04-07T11:15:47.345Z</time></trkpt><trkpt lat="40.8373636" lon="9.6770139"><ele>17.5</ele><time>2026-04-07T11:15:48.345Z</time></trkpt><trkpt lat="40.8374423" lon="9.6771703"><ele>16.25</ele><time>2026-04-07T11:15:49.344Z</time></trkpt><trkpt lat="40.8375234" lon="9.6773256"><ele>15.0</ele><time>2026-04-07T11:15:50.345Z</time></trkpt><trkpt lat="40.8376063" lon="9.6774853"><ele>16.75</ele><time>2026-04-07T11:15:51.345Z</time></trkpt><trkpt lat="40.8376873" lon="9.6776345"><ele>18.5</ele><time>2026-04-07T11:15:52.345Z</time></trkpt><trkpt lat="40.8377658" lon="9.6777884"><ele>20.25</ele><time>2026-04-07T11:15:53.345Z</time></trkpt><trkpt lat="40.8378495" lon="9.6779421"><ele>22.0</ele><time>2026-04-07T11:15:54.345Z</time></trkpt><trkpt lat="40.8379307" lon="9.6780997"><ele>22.0</ele><time>2026-04-07T11:15:55.344Z</time></trkpt><trkpt lat="40.8380153" lon="9.6782555"><ele>22.0</ele><time>2026-04-07T11:15:56.345Z</time></trkpt><trkpt lat="40.8380983" lon="9.6784205"><ele>22.0</ele><time>2026-04-07T11:15:57.344Z</time></trkpt><trkpt lat="40.8381866" lon="9.6785789"><ele>22.0</ele><time>2026-04-07T11:15:58.344Z</time></trkpt><trkpt lat="40.8382758" lon="9.6787451"><ele>22.333333333333332</ele><time>2026-04-07T11:15:59.344Z</time></trkpt><trkpt lat="40.8383701" lon="9.6789107"><ele>22.666666666666668</ele><time>2026-04-07T11:16:00.345Z</time></trkpt><trkpt lat="40.8384737" lon="9.6790741"><ele>23.0</ele><time>2026-04-07T11:16:01.345Z</time></trkpt><trkpt lat="40.838583" lon="9.6792301"><ele>23.0</ele><time>2026-04-07T11:16:02.345Z</time></trkpt><trkpt lat="40.8386911" lon="9.6793739"><ele>23.0</ele><time>2026-04-07T11:16:03.345Z</time></trkpt><trkpt lat="40.8388032" lon="9.6794918"><ele>23.0</ele><time>2026-04-07T11:16:04.344Z</time></trkpt><trkpt lat="40.8389211" lon="9.6795779"><ele>23.0</ele><time>2026-04-07T11:16:05.345Z</time></trkpt><trkpt lat="40.8390429" lon="9.6796374"><ele>21.75</ele><time>2026-04-07T11:16:06.345Z</time></trkpt><trkpt lat="40.8391677" lon="9.6796799"><ele>20.5</ele><time>2026-04-07T11:16:07.345Z</time></trkpt><trkpt lat="40.8393075" lon="9.679706"><ele>19.25</ele><time>2026-04-07T11:16:08.345Z</time></trkpt><trkpt lat="40.8394409" lon="9.6797509"><ele>18.0</ele><time>2026-04-07T11:16:09.344Z</time></trkpt><trkpt lat="40.8395524" lon="9.6798084"><ele>18.0</ele><time>2026-04-07T11:16:10.345Z</time></trkpt><trkpt lat="40.8396436" lon="9.6798896"><ele>18.0</ele><time>2026-04-07T11:16:11.345Z</time></trkpt><trkpt lat="40.8397215" lon="9.6799908"><ele>18.0</ele><time>2026-04-07T11:16:12.344Z</time></trkpt><trkpt lat="40.8397868" lon="9.6801211"><ele>18.0</ele><time>2026-04-07T11:16:13.344Z</time></trkpt><trkpt lat="40.8398455" lon="9.6802705"><ele>17.0</ele><time>2026-04-07T11:16:14.345Z</time></trkpt><trkpt lat="40.8399039" lon="9.6804395"><ele>16.0</ele><time>2026-04-07T11:16:15.345Z</time></trkpt><trkpt lat="40.8399683" lon="9.6806212"><ele>15.0</ele><time>2026-04-07T11:16:16.345Z</time></trkpt><trkpt lat="40.8400366" lon="9.6808147"><ele>15.0</ele><time>2026-04-07T11:16:17.345Z</time></trkpt><trkpt lat="40.8400998" lon="9.6810052"><ele>15.0</ele><time>2026-04-07T11:16:18.345Z</time></trkpt><trkpt lat="40.8401634" lon="9.6811897"><ele>15.0</ele><time>2026-04-07T11:16:19.344Z</time></trkpt><trkpt lat="40.8402189" lon="9.6813665"><ele>15.0</ele><time>2026-04-07T11:16:20.345Z</time></trkpt><trkpt lat="40.8402745" lon="9.6815348"><ele>15.0</ele><time>2026-04-07T11:16:21.345Z</time></trkpt><trkpt lat="40.8403269" lon="9.6816977"><ele>15.0</ele><time>2026-04-07T11:16:22.345Z</time></trkpt><trkpt lat="40.8403855" lon="9.6818613"><ele>15.0</ele><time>2026-04-07T11:16:23.345Z</time></trkpt><trkpt lat="40.840443" lon="9.6820299"><ele>14.75</ele><time>2026-04-07T11:16:24.345Z</time></trkpt><trkpt lat="40.8405004" lon="9.6821969"><ele>14.5</ele><time>2026-04-07T11:16:25.344Z</time></trkpt><trkpt lat="40.8405558" lon="9.6823631"><ele>14.25</ele><time>2026-04-07T11:16:26.345Z</time></trkpt><trkpt lat="40.8406172" lon="9.6825343"><ele>14.0</ele><time>2026-04-07T11:16:27.344Z</time></trkpt><trkpt lat="40.8406717" lon="9.682711"><ele>13.0</ele><time>2026-04-07T11:16:28.345Z</time></trkpt><trkpt lat="40.8407328" lon="9.6828905"><ele>12.0</ele><time>2026-04-07T11:16:29.345Z</time></trkpt><trkpt lat="40.8407956" lon="9.6830756"><ele>11.0</ele><time>2026-04-07T11:16:30.344Z</time></trkpt><trkpt lat="40.8408584" lon="9.6832692"><ele>11.0</ele><time>2026-04-07T11:16:31.345Z</time></trkpt><trkpt lat="40.8409247" lon="9.6834597"><ele>11.0</ele><time>2026-04-07T11:16:32.345Z</time></trkpt><trkpt lat="40.8409932" lon="9.6836491"><ele>11.0</ele><time>2026-04-07T11:16:33.344Z</time></trkpt><trkpt lat="40.8410606" lon="9.6838417"><ele>10.333333333333332</ele><time>2026-04-07T11:16:34.345Z</time></trkpt><trkpt lat="40.8411295" lon="9.6840298"><ele>9.666666666666666</ele><time>2026-04-07T11:16:35.345Z</time></trkpt><trkpt lat="40.8411966" lon="9.6842226"><ele>9.0</ele><time>2026-04-07T11:16:36.344Z</time></trkpt><trkpt lat="40.8412561" lon="9.6844013"><ele>8.5</ele><time>2026-04-07T11:16:37.345Z</time></trkpt><trkpt lat="40.8413004" lon="9.6845692"><ele>8.0</ele><time>2026-04-07T11:16:38.345Z</time></trkpt><trkpt lat="40.8413193" lon="9.684719"><ele>7.5</ele><time>2026-04-07T11:16:39.345Z</time></trkpt><trkpt lat="40.8413169" lon="9.6848637"><ele>7.0</ele><time>2026-04-07T11:16:40.345Z</time></trkpt><trkpt lat="40.8412989" lon="9.6849979"><ele>7.0</ele><time>2026-04-07T11:16:41.345Z</time></trkpt><trkpt lat="40.8412602" lon="9.6851283"><ele>7.0</ele><time>2026-04-07T11:16:42.345Z</time></trkpt><trkpt lat="40.8412042" lon="9.6852642"><ele>7.0</ele><time>2026-04-07T11:16:43.345Z</time></trkpt><trkpt lat="40.8411366" lon="9.6854094"><ele>7.0</ele><time>2026-04-07T11:16:44.345Z</time></trkpt><trkpt lat="40.8410636" lon="9.6855635"><ele>7.0</ele><time>2026-04-07T11:16:45.345Z</time></trkpt><trkpt lat="40.8409821" lon="9.6857239"><ele>7.0</ele><time>2026-04-07T11:16:46.345Z</time></trkpt><trkpt lat="40.8408995" lon="9.6858952"><ele>7.0</ele><time>2026-04-07T11:16:47.345Z</time></trkpt><trkpt lat="40.840815" lon="9.6860698"><ele>8.666666666666668</ele><time>2026-04-07T11:16:48.344Z</time></trkpt><trkpt lat="40.8407241" lon="9.6862446"><ele>10.333333333333334</ele><time>2026-04-07T11:16:49.345Z</time></trkpt><trkpt lat="40.8406398" lon="9.6864038"><ele>12.0</ele><time>2026-04-07T11:16:50.345Z</time></trkpt><trkpt lat="40.8405581" lon="9.686566"><ele>12.0</ele><time>2026-04-07T11:16:51.345Z</time></trkpt><trkpt lat="40.8404773" lon="9.6867235"><ele>12.0</ele><time>2026-04-07T11:16:52.345Z</time></trkpt><trkpt lat="40.8404088" lon="9.6868715"><ele>12.0</ele><time>2026-04-07T11:16:53.345Z</time></trkpt><trkpt lat="40.8403503" lon="9.6870167"><ele>12.0</ele><time>2026-04-07T11:16:54.345Z</time></trkpt><trkpt lat="40.8403053" lon="9.6871578"><ele>12.0</ele><time>2026-04-07T11:16:55.344Z</time></trkpt><trkpt lat="40.8402827" lon="9.6872997"><ele>12.0</ele><time>2026-04-07T11:16:56.344Z</time></trkpt><trkpt lat="40.8402783" lon="9.6874217"><ele>12.0</ele><time>2026-04-07T11:16:57.345Z</time></trkpt><trkpt lat="40.8402873" lon="9.6875067"><ele>12.0</ele><time>2026-04-07T11:16:58.344Z</time></trkpt><trkpt lat="40.8403264" lon="9.6876595"><ele>12.0</ele><time>2026-04-07T11:17:00.344Z</time></trkpt><trkpt lat="40.8403536" lon="9.6877388"><ele>11.8</ele><time>2026-04-07T11:17:01.344Z</time></trkpt><trkpt lat="40.8403853" lon="9.6878275"><ele>11.6</ele><time>2026-04-07T11:17:02.345Z</time></trkpt><trkpt lat="40.8404173" lon="9.6879352"><ele>11.4</ele><time>2026-04-07T11:17:03.345Z</time></trkpt><trkpt lat="40.840455" lon="9.6880579"><ele>11.200000000000001</ele><time>2026-04-07T11:17:04.345Z</time></trkpt><trkpt lat="40.8404933" lon="9.6882018"><ele>11.0</ele><time>2026-04-07T11:17:05.345Z</time></trkpt><trkpt lat="40.8405414" lon="9.6883528"><ele>11.0</ele><time>2026-04-07T11:17:06.345Z</time></trkpt><trkpt lat="40.8405929" lon="9.6885147"><ele>11.0</ele><time>2026-04-07T11:17:07.345Z</time></trkpt><trkpt lat="40.8406434" lon="9.6886835"><ele>11.0</ele><time>2026-04-07T11:17:08.345Z</time></trkpt><trkpt lat="40.8407007" lon="9.6888612"><ele>11.0</ele><time>2026-04-07T11:17:09.344Z</time></trkpt><trkpt lat="40.8407583" lon="9.6890459"><ele>11.25</ele><time>2026-04-07T11:17:10.345Z</time></trkpt><trkpt lat="40.8408137" lon="9.6892118"><ele>11.5</ele><time>2026-04-07T11:17:11.345Z</time></trkpt><trkpt lat="40.8408672" lon="9.6893642"><ele>11.75</ele><time>2026-04-07T11:17:12.345Z</time></trkpt><trkpt lat="40.8409166" lon="9.6895007"><ele>12.0</ele><time>2026-04-07T11:17:13.344Z</time></trkpt><trkpt lat="40.8409595" lon="9.6896348"><ele>11.25</ele><time>2026-04-07T11:17:14.344Z</time></trkpt><trkpt lat="40.8410021" lon="9.6897718"><ele>10.5</ele><time>2026-04-07T11:17:15.344Z</time></trkpt><trkpt lat="40.8410499" lon="9.6899137"><ele>9.75</ele><time>2026-04-07T11:17:16.345Z</time></trkpt><trkpt lat="40.8411013" lon="9.6900641"><ele>9.0</ele><time>2026-04-07T11:17:17.344Z</time></trkpt><trkpt lat="40.8411517" lon="9.6902252"><ele>9.5</ele><time>2026-04-07T11:17:18.344Z</time></trkpt><trkpt lat="40.8411993" lon="9.6903895"><ele>10.0</ele><time>2026-04-07T11:17:19.345Z</time></trkpt><trkpt lat="40.8412514" lon="9.6905444"><ele>10.5</ele><time>2026-04-07T11:17:20.344Z</time></trkpt><trkpt lat="40.8412988" lon="9.6906963"><ele>11.0</ele><time>2026-04-07T11:17:21.345Z</time></trkpt><trkpt lat="40.8413485" lon="9.6908499"><ele>11.0</ele><time>2026-04-07T11:17:22.345Z</time></trkpt><trkpt lat="40.8414002" lon="9.6910089"><ele>11.0</ele><time>2026-04-07T11:17:23.345Z</time></trkpt><trkpt lat="40.841458" lon="9.6911773"><ele>11.0</ele><time>2026-04-07T11:17:24.345Z</time></trkpt><trkpt lat="40.8415216" lon="9.6913552"><ele>11.0</ele><time>2026-04-07T11:17:25.345Z</time></trkpt><trkpt lat="40.8415879" lon="9.6915492"><ele>10.0</ele><time>2026-04-07T11:17:26.345Z</time></trkpt><trkpt lat="40.841657" lon="9.6917581"><ele>9.0</ele><time>2026-04-07T11:17:27.345Z</time></trkpt><trkpt lat="40.8417299" lon="9.6919692"><ele>8.0</ele><time>2026-04-07T11:17:28.345Z</time></trkpt><trkpt lat="40.8418042" lon="9.6921929"><ele>6.666666666666666</ele><time>2026-04-07T11:17:29.345Z</time></trkpt><trkpt lat="40.8418822" lon="9.6924188"><ele>5.333333333333333</ele><time>2026-04-07T11:17:30.344Z</time></trkpt><trkpt lat="40.8419624" lon="9.6926513"><ele>4.0</ele><time>2026-04-07T11:17:31.344Z</time></trkpt><trkpt lat="40.8420391" lon="9.6928737"><ele>3.333333333333333</ele><time>2026-04-07T11:17:32.344Z</time></trkpt><trkpt lat="40.8421134" lon="9.6930913"><ele>2.6666666666666665</ele><time>2026-04-07T11:17:33.344Z</time></trkpt><trkpt lat="40.842187" lon="9.6932999"><ele>2.0</ele><time>2026-04-07T11:17:34.345Z</time></trkpt><trkpt lat="40.8422585" lon="9.6935077"><ele>2.0</ele><time>2026-04-07T11:17:35.345Z</time></trkpt><trkpt lat="40.8423274" lon="9.6937207"><ele>2.0</ele><time>2026-04-07T11:17:36.344Z</time></trkpt><trkpt lat="40.8423988" lon="9.6939325"><ele>2.0</ele><time>2026-04-07T11:17:37.345Z</time></trkpt><trkpt lat="40.8424716" lon="9.694145"><ele>2.0</ele><time>2026-04-07T11:17:38.344Z</time></trkpt><trkpt lat="40.8425435" lon="9.6943521"><ele>2.0</ele><time>2026-04-07T11:17:39.345Z</time></trkpt><trkpt lat="40.8426107" lon="9.6945528"><ele>2.0</ele><time>2026-04-07T11:17:40.345Z</time></trkpt><trkpt lat="40.8426751" lon="9.6947568"><ele>2.6666666666666665</ele><time>2026-04-07T11:17:41.345Z</time></trkpt><trkpt lat="40.842742" lon="9.6949563"><ele>3.333333333333333</ele><time>2026-04-07T11:17:42.345Z</time></trkpt><trkpt lat="40.84281" lon="9.6951505"><ele>4.0</ele><time>2026-04-07T11:17:43.344Z</time></trkpt><trkpt lat="40.8428726" lon="9.6953381"><ele>4.75</ele><time>2026-04-07T11:17:44.345Z</time></trkpt><trkpt lat="40.8429207" lon="9.6955127"><ele>5.5</ele><time>2026-04-07T11:17:45.344Z</time></trkpt><trkpt lat="40.8429464" lon="9.6956845"><ele>6.25</ele><time>2026-04-07T11:17:46.345Z</time></trkpt><trkpt lat="40.8429511" lon="9.6958435"><ele>7.0</ele><time>2026-04-07T11:17:47.344Z</time></trkpt><trkpt lat="40.8429374" lon="9.6959797"><ele>7.333333333333334</ele><time>2026-04-07T11:17:48.344Z</time></trkpt><trkpt lat="40.8429164" lon="9.6960925"><ele>7.666666666666667</ele><time>2026-04-07T11:17:49.345Z</time></trkpt><trkpt lat="40.8428983" lon="9.6961944"><ele>8.0</ele><time>2026-04-07T11:17:50.345Z</time></trkpt><trkpt lat="40.8428817" lon="9.6962874"><ele>8.333333333333334</ele><time>2026-04-07T11:17:51.345Z</time></trkpt><trkpt lat="40.8428699" lon="9.6963836"><ele>8.666666666666666</ele><time>2026-04-07T11:17:52.345Z</time></trkpt><trkpt lat="40.8428719" lon="9.6964822"><ele>9.0</ele><time>2026-04-07T11:17:53.345Z</time></trkpt><trkpt lat="40.8429009" lon="9.6965863"><ele>9.0</ele><time>2026-04-07T11:17:54.344Z</time></trkpt><trkpt lat="40.842954" lon="9.6966935"><ele>9.0</ele><time>2026-04-07T11:17:55.345Z</time></trkpt><trkpt lat="40.8430221" lon="9.6968038"><ele>9.0</ele><time>2026-04-07T11:17:56.344Z</time></trkpt><trkpt lat="40.8430987" lon="9.6969242"><ele>9.0</ele><time>2026-04-07T11:17:57.345Z</time></trkpt><trkpt lat="40.8431676" lon="9.6970657"><ele>9.5</ele><time>2026-04-07T11:17:58.344Z</time></trkpt><trkpt lat="40.843231" lon="9.6972216"><ele>10.0</ele><time>2026-04-07T11:17:59.344Z</time></trkpt><trkpt lat="40.8432869" lon="9.6973951"><ele>10.5</ele><time>2026-04-07T11:18:00.344Z</time></trkpt><trkpt lat="40.8433342" lon="9.6975778"><ele>11.0</ele><time>2026-04-07T11:18:01.345Z</time></trkpt><trkpt lat="40.8433704" lon="9.6977627"><ele>11.25</ele><time>2026-04-07T11:18:02.344Z</time></trkpt><trkpt lat="40.8434045" lon="9.6979423"><ele>11.5</ele><time>2026-04-07T11:18:03.345Z</time></trkpt><trkpt lat="40.843439" lon="9.6981069"><ele>11.75</ele><time>2026-04-07T11:18:04.344Z</time></trkpt><trkpt lat="40.8434696" lon="9.6982628"><ele>12.0</ele><time>2026-04-07T11:18:05.344Z</time></trkpt><trkpt lat="40.8434957" lon="9.6984131"><ele>12.0</ele><time>2026-04-07T11:18:06.344Z</time></trkpt><trkpt lat="40.8435229" lon="9.6985634"><ele>12.0</ele><time>2026-04-07T11:18:07.345Z</time></trkpt><trkpt lat="40.8435438" lon="9.6987098"><ele>12.0</ele><time>2026-04-07T11:18:08.345Z</time></trkpt><trkpt lat="40.8435597" lon="9.6988581"><ele>12.0</ele><time>2026-04-07T11:18:09.345Z</time></trkpt><trkpt lat="40.8435801" lon="9.6990103"><ele>12.0</ele><time>2026-04-07T11:18:10.345Z</time></trkpt><trkpt lat="40.8436004" lon="9.6991611"><ele>12.0</ele><time>2026-04-07T11:18:11.345Z</time></trkpt><trkpt lat="40.8436201" lon="9.6993069"><ele>12.0</ele><time>2026-04-07T11:18:12.344Z</time></trkpt><trkpt lat="40.8436377" lon="9.6994566"><ele>12.0</ele><time>2026-04-07T11:18:13.345Z</time></trkpt><trkpt lat="40.8436586" lon="9.6996033"><ele>11.8</ele><time>2026-04-07T11:18:14.344Z</time></trkpt><trkpt lat="40.8436785" lon="9.6997504"><ele>11.6</ele><time>2026-04-07T11:18:15.345Z</time></trkpt><trkpt lat="40.8436924" lon="9.6998852"><ele>11.4</ele><time>2026-04-07T11:18:16.344Z</time></trkpt><trkpt lat="40.8437089" lon="9.7000174"><ele>11.200000000000001</ele><time>2026-04-07T11:18:17.345Z</time></trkpt><trkpt lat="40.8437276" lon="9.7001473"><ele>11.0</ele><time>2026-04-07T11:18:18.345Z</time></trkpt><trkpt lat="40.8437445" lon="9.700278"><ele>11.0</ele><time>2026-04-07T11:18:19.344Z</time></trkpt><trkpt lat="40.8437625" lon="9.7004108"><ele>11.0</ele><time>2026-04-07T11:18:20.345Z</time></trkpt><trkpt lat="40.843777" lon="9.7005443"><ele>11.0</ele><time>2026-04-07T11:18:21.345Z</time></trkpt><trkpt lat="40.8437948" lon="9.7006714"><ele>11.0</ele><time>2026-04-07T11:18:22.344Z</time></trkpt><trkpt lat="40.8438025" lon="9.7007945"><ele>11.0</ele><time>2026-04-07T11:18:23.345Z</time></trkpt><trkpt lat="40.8437908" lon="9.7009008"><ele>11.0</ele><time>2026-04-07T11:18:24.345Z</time></trkpt><trkpt lat="40.8437667" lon="9.7009891"><ele>11.0</ele><time>2026-04-07T11:18:25.345Z</time></trkpt><trkpt lat="40.8436887" lon="9.7010838"><ele>11.0</ele><time>2026-04-07T11:18:27.345Z</time></trkpt><trkpt lat="40.8435831" lon="9.7011322"><ele>11.0</ele><time>2026-04-07T11:18:29.345Z</time></trkpt><trkpt lat="40.8435117" lon="9.7011486"><ele>11.0</ele><time>2026-04-07T11:18:30.345Z</time></trkpt><trkpt lat="40.843433" lon="9.7011692"><ele>11.0</ele><time>2026-04-07T11:18:31.345Z</time></trkpt><trkpt lat="40.843349" lon="9.7011901"><ele>11.666666666666666</ele><time>2026-04-07T11:18:32.344Z</time></trkpt><trkpt lat="40.8432646" lon="9.7012081"><ele>12.333333333333332</ele><time>2026-04-07T11:18:33.344Z</time></trkpt><trkpt lat="40.8431808" lon="9.7012244"><ele>13.0</ele><time>2026-04-07T11:18:34.344Z</time></trkpt><trkpt lat="40.8430933" lon="9.7012443"><ele>13.666666666666666</ele><time>2026-04-07T11:18:35.345Z</time></trkpt><trkpt lat="40.8430043" lon="9.7012666"><ele>14.333333333333334</ele><time>2026-04-07T11:18:36.345Z</time></trkpt><trkpt lat="40.8429071" lon="9.7012868"><ele>15.0</ele><time>2026-04-07T11:18:37.345Z</time></trkpt><trkpt lat="40.8428123" lon="9.7013069"><ele>15.0</ele><time>2026-04-07T11:18:38.345Z</time></trkpt><trkpt lat="40.8427181" lon="9.7013285"><ele>15.0</ele><time>2026-04-07T11:18:39.345Z</time></trkpt><trkpt lat="40.8426292" lon="9.7013541"><ele>15.0</ele><time>2026-04-07T11:18:40.345Z</time></trkpt><trkpt lat="40.8425421" lon="9.7013672"><ele>15.0</ele><time>2026-04-07T11:18:41.344Z</time></trkpt><trkpt lat="40.8424602" lon="9.7013873"><ele>15.0</ele><time>2026-04-07T11:18:42.344Z</time></trkpt><trkpt lat="40.842382" lon="9.7014075"><ele>15.0</ele><time>2026-04-07T11:18:43.345Z</time></trkpt><trkpt lat="40.8423027" lon="9.701433"><ele>15.333333333333334</ele><time>2026-04-07T11:18:44.345Z</time></trkpt><trkpt lat="40.8422221" lon="9.7014469"><ele>15.666666666666668</ele><time>2026-04-07T11:18:45.344Z</time></trkpt><trkpt lat="40.8421387" lon="9.7014703"><ele>16.0</ele><time>2026-04-07T11:18:46.345Z</time></trkpt><trkpt lat="40.8420508" lon="9.7015052"><ele>16.333333333333336</ele><time>2026-04-07T11:18:47.345Z</time></trkpt><trkpt lat="40.8419703" lon="9.7015516"><ele>16.666666666666668</ele><time>2026-04-07T11:18:48.345Z</time></trkpt><trkpt lat="40.8418961" lon="9.7015984"><ele>17.0</ele><time>2026-04-07T11:18:49.345Z</time></trkpt><trkpt lat="40.8418206" lon="9.7016512"><ele>17.0</ele><time>2026-04-07T11:18:50.345Z</time></trkpt><trkpt lat="40.8417437" lon="9.701709"><ele>17.0</ele><time>2026-04-07T11:18:51.345Z</time></trkpt><trkpt lat="40.8416651" lon="9.7017696"><ele>17.0</ele><time>2026-04-07T11:18:52.344Z</time></trkpt><trkpt lat="40.8415805" lon="9.7018332"><ele>17.0</ele><time>2026-04-07T11:18:53.345Z</time></trkpt><trkpt lat="40.8415" lon="9.7018896"><ele>17.0</ele><time>2026-04-07T11:18:54.344Z</time></trkpt><trkpt lat="40.8414265" lon="9.7019427"><ele>17.0</ele><time>2026-04-07T11:18:55.345Z</time></trkpt><trkpt lat="40.8413584" lon="9.7019908"><ele>17.0</ele><time>2026-04-07T11:18:56.344Z</time></trkpt><trkpt lat="40.8412924" lon="9.7020425"><ele>17.0</ele><time>2026-04-07T11:18:57.345Z</time></trkpt><trkpt lat="40.8412291" lon="9.7020909"><ele>17.0</ele><time>2026-04-07T11:18:58.345Z</time></trkpt><trkpt lat="40.841173" lon="9.7021294"><ele>17.0</ele><time>2026-04-07T11:18:59.345Z</time></trkpt><trkpt lat="40.8410761" lon="9.7021826"><ele>17.0</ele><time>2026-04-07T11:19:01.344Z</time></trkpt><trkpt lat="40.8409712" lon="9.702228"><ele>16.6</ele><time>2026-04-07T11:19:03.345Z</time></trkpt><trkpt lat="40.8409207" lon="9.7023592"><ele>16.2</ele><time>2026-04-07T11:19:05.344Z</time></trkpt><trkpt lat="40.8408836" lon="9.7025148"><ele>15.8</ele><time>2026-04-07T11:19:07.345Z</time></trkpt><trkpt lat="40.8408267" lon="9.7025825"><ele>15.4</ele><time>2026-04-07T11:19:08.345Z</time></trkpt><trkpt lat="40.8407603" lon="9.7026651"><ele>15.0</ele><time>2026-04-07T11:19:09.345Z</time></trkpt><trkpt lat="40.8406898" lon="9.7027578"><ele>14.5</ele><time>2026-04-07T11:19:10.344Z</time></trkpt><trkpt lat="40.8406165" lon="9.7028657"><ele>14.0</ele><time>2026-04-07T11:19:11.345Z</time></trkpt><trkpt lat="40.8405449" lon="9.7029893"><ele>13.5</ele><time>2026-04-07T11:19:12.344Z</time></trkpt><trkpt lat="40.8404823" lon="9.7031268"><ele>13.0</ele><time>2026-04-07T11:19:13.345Z</time></trkpt><trkpt lat="40.8404263" lon="9.703264"><ele>13.0</ele><time>2026-04-07T11:19:14.345Z</time></trkpt><trkpt lat="40.8403703" lon="9.7034126"><ele>13.0</ele><time>2026-04-07T11:19:15.345Z</time></trkpt><trkpt lat="40.8403111" lon="9.7035708"><ele>13.0</ele><time>2026-04-07T11:19:16.345Z</time></trkpt><trkpt lat="40.840257" lon="9.7037336"><ele>13.0</ele><time>2026-04-07T11:19:17.344Z</time></trkpt><trkpt lat="40.8402067" lon="9.7038751"><ele>12.0</ele><time>2026-04-07T11:19:18.345Z</time></trkpt><trkpt lat="40.8401601" lon="9.703987"><ele>11.0</ele><time>2026-04-07T11:19:19.345Z</time></trkpt><trkpt lat="40.8401096" lon="9.7041053"><ele>10.0</ele><time>2026-04-07T11:19:20.345Z</time></trkpt><trkpt lat="40.8400663" lon="9.7042223"><ele>9.0</ele><time>2026-04-07T11:19:21.345Z</time></trkpt><trkpt lat="40.8400285" lon="9.7043314"><ele>8.0</ele><time>2026-04-07T11:19:22.345Z</time></trkpt><trkpt lat="40.8400008" lon="9.704445"><ele>7.999999999999999</ele><time>2026-04-07T11:19:23.345Z</time></trkpt><trkpt lat="40.8399856" lon="9.7045587"><ele>8.0</ele><time>2026-04-07T11:19:24.345Z</time></trkpt><trkpt lat="40.8399868" lon="9.7046641"><ele>8.0</ele><time>2026-04-07T11:19:25.345Z</time></trkpt><trkpt lat="40.8400073" lon="9.7047644"><ele>8.0</ele><time>2026-04-07T11:19:26.345Z</time></trkpt><trkpt lat="40.8400391" lon="9.7048611"><ele>7.999999999999999</ele><time>2026-04-07T11:19:27.345Z</time></trkpt><trkpt lat="40.840074" lon="9.7049529"><ele>8.0</ele><time>2026-04-07T11:19:28.345Z</time></trkpt><trkpt lat="40.8401032" lon="9.7050438"><ele>7.999999999999999</ele><time>2026-04-07T11:19:29.344Z</time></trkpt><trkpt lat="40.8401154" lon="9.7051353"><ele>8.0</ele><time>2026-04-07T11:19:30.345Z</time></trkpt><trkpt lat="40.8401121" lon="9.7052352"><ele>8.0</ele><time>2026-04-07T11:19:31.345Z</time></trkpt><trkpt lat="40.8400938" lon="9.7053413"><ele>8.0</ele><time>2026-04-07T11:19:32.344Z</time></trkpt><trkpt lat="40.8400534" lon="9.7054494"><ele>7.999999999999999</ele><time>2026-04-07T11:19:33.345Z</time></trkpt><trkpt lat="40.8400161" lon="9.7055478"><ele>8.0</ele><time>2026-04-07T11:19:34.345Z</time></trkpt><trkpt lat="40.8399812" lon="9.7056417"><ele>8.166666666666666</ele><time>2026-04-07T11:19:35.345Z</time></trkpt><trkpt lat="40.8399512" lon="9.7057293"><ele>8.333333333333332</ele><time>2026-04-07T11:19:36.345Z</time></trkpt><trkpt lat="40.8399237" lon="9.7058135"><ele>8.5</ele><time>2026-04-07T11:19:37.345Z</time></trkpt><trkpt lat="40.8398818" lon="9.70591"><ele>8.666666666666666</ele><time>2026-04-07T11:19:38.345Z</time></trkpt><trkpt lat="40.8398366" lon="9.7060227"><ele>8.833333333333334</ele><time>2026-04-07T11:19:39.345Z</time></trkpt><trkpt lat="40.83979" lon="9.7061504"><ele>9.0</ele><time>2026-04-07T11:19:40.345Z</time></trkpt><trkpt lat="40.8397416" lon="9.7062864"><ele>10.0</ele><time>2026-04-07T11:19:41.344Z</time></trkpt><trkpt lat="40.8396925" lon="9.7064186"><ele>11.0</ele><time>2026-04-07T11:19:42.345Z</time></trkpt><trkpt lat="40.8396497" lon="9.7065364"><ele>11.999999999999998</ele><time>2026-04-07T11:19:43.345Z</time></trkpt><trkpt lat="40.8396071" lon="9.7066511"><ele>13.0</ele><time>2026-04-07T11:19:44.344Z</time></trkpt><trkpt lat="40.8395545" lon="9.7067609"><ele>14.0</ele><time>2026-04-07T11:19:45.345Z</time></trkpt><trkpt lat="40.8394879" lon="9.7068506"><ele>15.000000000000002</ele><time>2026-04-07T11:19:46.345Z</time></trkpt><trkpt lat="40.8394208" lon="9.7069401"><ele>16.0</ele><time>2026-04-07T11:19:47.345Z</time></trkpt><trkpt lat="40.8393585" lon="9.7070165"><ele>17.0</ele><time>2026-04-07T11:19:48.344Z</time></trkpt><trkpt lat="40.8393031" lon="9.7070981"><ele>18.0</ele><time>2026-04-07T11:19:49.345Z</time></trkpt><trkpt lat="40.8392681" lon="9.707192"><ele>19.0</ele><time>2026-04-07T11:19:50.344Z</time></trkpt><trkpt lat="40.8392641" lon="9.7072891"><ele>20.0</ele><time>2026-04-07T11:19:51.345Z</time></trkpt><trkpt lat="40.8392858" lon="9.707384"><ele>20.833333333333336</ele><time>2026-04-07T11:19:52.345Z</time></trkpt><trkpt lat="40.8393194" lon="9.7074715"><ele>21.666666666666668</ele><time>2026-04-07T11:19:53.344Z</time></trkpt><trkpt lat="40.8393649" lon="9.7075557"><ele>22.5</ele><time>2026-04-07T11:19:54.344Z</time></trkpt><trkpt lat="40.839419" lon="9.7076404"><ele>23.333333333333336</ele><time>2026-04-07T11:19:55.345Z</time></trkpt><trkpt lat="40.839477" lon="9.707735"><ele>24.166666666666668</ele><time>2026-04-07T11:19:56.345Z</time></trkpt><trkpt lat="40.8395382" lon="9.7078452"><ele>25.0</ele><time>2026-04-07T11:19:57.345Z</time></trkpt><trkpt lat="40.8395967" lon="9.7079571"><ele>26.2</ele><time>2026-04-07T11:19:58.345Z</time></trkpt><trkpt lat="40.8396564" lon="9.7080642"><ele>27.4</ele><time>2026-04-07T11:19:59.345Z</time></trkpt><trkpt lat="40.8397423" lon="9.7081488"><ele>28.6</ele><time>2026-04-07T11:20:00.345Z</time></trkpt><trkpt lat="40.8398366" lon="9.7082022"><ele>29.8</ele><time>2026-04-07T11:20:01.345Z</time></trkpt><trkpt lat="40.8399266" lon="9.708242"><ele>31.0</ele><time>2026-04-07T11:20:02.345Z</time></trkpt><trkpt lat="40.8400181" lon="9.7082744"><ele>31.000000000000004</ele><time>2026-04-07T11:20:03.345Z</time></trkpt><trkpt lat="40.8400998" lon="9.708302"><ele>31.0</ele><time>2026-04-07T11:20:04.345Z</time></trkpt><trkpt lat="40.8401718" lon="9.7083534"><ele>31.0</ele><time>2026-04-07T11:20:05.345Z</time></trkpt><trkpt lat="40.8402145" lon="9.7084192"><ele>31.0</ele><time>2026-04-07T11:20:06.345Z</time></trkpt><trkpt lat="40.8402317" lon="9.7085663"><ele>31.000000000000004</ele><time>2026-04-07T11:20:08.345Z</time></trkpt><trkpt lat="40.8402309" lon="9.7086659"><ele>31.0</ele><time>2026-04-07T11:20:09.345Z</time></trkpt><trkpt lat="40.8402201" lon="9.7087839"><ele>32.0</ele><time>2026-04-07T11:20:10.345Z</time></trkpt><trkpt lat="40.8402054" lon="9.7089152"><ele>33.0</ele><time>2026-04-07T11:20:11.345Z</time></trkpt><trkpt lat="40.8401903" lon="9.7090589"><ele>34.0</ele><time>2026-04-07T11:20:12.345Z</time></trkpt><trkpt lat="40.8401497" lon="9.7093802"><ele>35.75</ele><time>2026-04-07T11:20:14.344Z</time></trkpt><trkpt lat="40.8401216" lon="9.7095496"><ele>37.5</ele><time>2026-04-07T11:20:15.345Z</time></trkpt><trkpt lat="40.8400956" lon="9.7097054"><ele>39.25</ele><time>2026-04-07T11:20:16.345Z</time></trkpt><trkpt lat="40.8400722" lon="9.7098552"><ele>41.0</ele><time>2026-04-07T11:20:17.345Z</time></trkpt><trkpt lat="40.8400532" lon="9.7100033"><ele>41.0</ele><time>2026-04-07T11:20:18.345Z</time></trkpt><trkpt lat="40.8400358" lon="9.7101486"><ele>41.0</ele><time>2026-04-07T11:20:19.344Z</time></trkpt><trkpt lat="40.840015" lon="9.7102693"><ele>41.0</ele><time>2026-04-07T11:20:20.345Z</time></trkpt><trkpt lat="40.839986" lon="9.7103748"><ele>41.0</ele><time>2026-04-07T11:20:21.345Z</time></trkpt><trkpt lat="40.8399392" lon="9.7104742"><ele>41.0</ele><time>2026-04-07T11:20:22.344Z</time></trkpt><trkpt lat="40.8398785" lon="9.7105445"><ele>41.0</ele><time>2026-04-07T11:20:23.344Z</time></trkpt><trkpt lat="40.8398152" lon="9.7106048"><ele>41.0</ele><time>2026-04-07T11:20:24.344Z</time></trkpt><trkpt lat="40.839747" lon="9.710665"><ele>41.0</ele><time>2026-04-07T11:20:25.344Z</time></trkpt><trkpt lat="40.8396917" lon="9.7107343"><ele>41.0</ele><time>2026-04-07T11:20:26.344Z</time></trkpt><trkpt lat="40.8396525" lon="9.7108194"><ele>41.0</ele><time>2026-04-07T11:20:27.344Z</time></trkpt><trkpt lat="40.8396382" lon="9.7109241"><ele>41.0</ele><time>2026-04-07T11:20:28.345Z</time></trkpt><trkpt lat="40.8396587" lon="9.7110301"><ele>41.33333333333333</ele><time>2026-04-07T11:20:29.345Z</time></trkpt><trkpt lat="40.839695" lon="9.7111216"><ele>41.666666666666664</ele><time>2026-04-07T11:20:30.344Z</time></trkpt><trkpt lat="40.8397444" lon="9.7112172"><ele>42.0</ele><time>2026-04-07T11:20:31.345Z</time></trkpt><trkpt lat="40.839798" lon="9.7113123"><ele>42.333333333333336</ele><time>2026-04-07T11:20:32.345Z</time></trkpt><trkpt lat="40.8398563" lon="9.7114105"><ele>42.66666666666667</ele><time>2026-04-07T11:20:33.345Z</time></trkpt><trkpt lat="40.8399043" lon="9.7115203"><ele>43.0</ele><time>2026-04-07T11:20:34.345Z</time></trkpt><trkpt lat="40.8399376" lon="9.7116442"><ele>43.0</ele><time>2026-04-07T11:20:35.345Z</time></trkpt><trkpt lat="40.8399749" lon="9.711774"><ele>43.0</ele><time>2026-04-07T11:20:36.345Z</time></trkpt><trkpt lat="40.8400105" lon="9.7118866"><ele>43.0</ele><time>2026-04-07T11:20:37.344Z</time></trkpt><trkpt lat="40.8400422" lon="9.7120082"><ele>43.0</ele><time>2026-04-07T11:20:38.345Z</time></trkpt><trkpt lat="40.840082" lon="9.7121303"><ele>43.0</ele><time>2026-04-07T11:20:39.344Z</time></trkpt><trkpt lat="40.8401335" lon="9.7122514"><ele>42.0</ele><time>2026-04-07T11:20:40.345Z</time></trkpt><trkpt lat="40.8401978" lon="9.7123744"><ele>41.0</ele><time>2026-04-07T11:20:41.344Z</time></trkpt><trkpt lat="40.840271" lon="9.7125022"><ele>40.0</ele><time>2026-04-07T11:20:42.344Z</time></trkpt><trkpt lat="40.8403509" lon="9.7126323"><ele>39.0</ele><time>2026-04-07T11:20:43.345Z</time></trkpt><trkpt lat="40.8404322" lon="9.7127496"><ele>42.6</ele><time>2026-04-07T11:20:44.345Z</time></trkpt><trkpt lat="40.8405144" lon="9.7128515"><ele>46.2</ele><time>2026-04-07T11:20:45.344Z</time></trkpt><trkpt lat="40.8405962" lon="9.7129411"><ele>49.800000000000004</ele><time>2026-04-07T11:20:46.345Z</time></trkpt><trkpt lat="40.8406845" lon="9.7130193"><ele>53.4</ele><time>2026-04-07T11:20:47.345Z</time></trkpt><trkpt lat="40.8407713" lon="9.7131061"><ele>57.0</ele><time>2026-04-07T11:20:48.345Z</time></trkpt><trkpt lat="40.840849" lon="9.7132071"><ele>57.0</ele><time>2026-04-07T11:20:49.345Z</time></trkpt><trkpt lat="40.840924" lon="9.713324"><ele>57.0</ele><time>2026-04-07T11:20:50.345Z</time></trkpt><trkpt lat="40.8410008" lon="9.7134517"><ele>57.0</ele><time>2026-04-07T11:20:51.345Z</time></trkpt><trkpt lat="40.8410722" lon="9.7135685"><ele>57.0</ele><time>2026-04-07T11:20:52.345Z</time></trkpt><trkpt lat="40.8411407" lon="9.7136848"><ele>54.833333333333336</ele><time>2026-04-07T11:20:53.345Z</time></trkpt><trkpt lat="40.841208" lon="9.713786"><ele>52.666666666666664</ele><time>2026-04-07T11:20:54.345Z</time></trkpt><trkpt lat="40.8412633" lon="9.7138643"><ele>50.5</ele><time>2026-04-07T11:20:55.344Z</time></trkpt><trkpt lat="40.8413134" lon="9.7139342"><ele>48.33333333333333</ele><time>2026-04-07T11:20:56.345Z</time></trkpt><trkpt lat="40.8413743" lon="9.7140406"><ele>46.166666666666664</ele><time>2026-04-07T11:20:58.345Z</time></trkpt><trkpt lat="40.8413765" lon="9.7141265"><ele>44.0</ele><time>2026-04-07T11:21:00.344Z</time></trkpt><trkpt lat="40.841415" lon="9.7140419"><ele>44.0</ele><time>2026-04-07T11:37:02.344Z</time></trkpt><trkpt lat="40.8413532" lon="9.7139477"><ele>44.0</ele><time>2026-04-07T11:37:04.344Z</time></trkpt><trkpt lat="40.8412969" lon="9.7138699"><ele>44.0</ele><time>2026-04-07T11:37:06.344Z</time></trkpt><trkpt lat="40.8412327" lon="9.7137739"><ele>44.0</ele><time>2026-04-07T11:37:08.344Z</time></trkpt><trkpt lat="40.8411694" lon="9.7136749"><ele>44.0</ele><time>2026-04-07T11:37:10.344Z</time></trkpt><trkpt lat="40.8411072" lon="9.7135826"><ele>42.400000000000006</ele><time>2026-04-07T11:37:12.345Z</time></trkpt><trkpt lat="40.8410501" lon="9.7134882"><ele>40.800000000000004</ele><time>2026-04-07T11:37:14.344Z</time></trkpt><trkpt lat="40.840993" lon="9.7133793"><ele>39.2</ele><time>2026-04-07T11:37:16.345Z</time></trkpt><trkpt lat="40.8409192" lon="9.7132538"><ele>37.6</ele><time>2026-04-07T11:37:18.345Z</time></trkpt><trkpt lat="40.8408745" lon="9.7131882"><ele>36.0</ele><time>2026-04-07T11:37:19.345Z</time></trkpt><trkpt lat="40.8407907" lon="9.7130788"><ele>36.5</ele><time>2026-04-07T11:37:21.345Z</time></trkpt><trkpt lat="40.840741" lon="9.7130255"><ele>37.0</ele><time>2026-04-07T11:37:22.344Z</time></trkpt><trkpt lat="40.8406381" lon="9.712932"><ele>37.5</ele><time>2026-04-07T11:37:24.345Z</time></trkpt><trkpt lat="40.8405821" lon="9.7128772"><ele>38.0</ele><time>2026-04-07T11:37:25.344Z</time></trkpt><trkpt lat="40.8405275" lon="9.7128214"><ele>38.5</ele><time>2026-04-07T11:37:26.344Z</time></trkpt><trkpt lat="40.840477" lon="9.7127591"><ele>39.0</ele><time>2026-04-07T11:37:27.344Z</time></trkpt><trkpt lat="40.8403915" lon="9.7126446"><ele>39.0</ele><time>2026-04-07T11:37:29.345Z</time></trkpt><trkpt lat="40.8403214" lon="9.7125386"><ele>39.0</ele><time>2026-04-07T11:37:31.345Z</time></trkpt><trkpt lat="40.8402565" lon="9.7124322"><ele>39.0</ele><time>2026-04-07T11:37:33.344Z</time></trkpt><trkpt lat="40.8401908" lon="9.7123267"><ele>39.0</ele><time>2026-04-07T11:37:35.345Z</time></trkpt><trkpt lat="40.8401308" lon="9.7122224"><ele>39.0</ele><time>2026-04-07T11:37:37.344Z</time></trkpt><trkpt lat="40.8400788" lon="9.7120981"><ele>39.8</ele><time>2026-04-07T11:37:39.344Z</time></trkpt><trkpt lat="40.8400369" lon="9.7119703"><ele>40.599999999999994</ele><time>2026-04-07T11:37:41.344Z</time></trkpt><trkpt lat="40.8399992" lon="9.711843"><ele>41.4</ele><time>2026-04-07T11:37:43.345Z</time></trkpt><trkpt lat="40.8399642" lon="9.7117167"><ele>42.199999999999996</ele><time>2026-04-07T11:37:45.344Z</time></trkpt><trkpt lat="40.8399431" lon="9.7116197"><ele>43.0</ele><time>2026-04-07T11:37:47.345Z</time></trkpt><trkpt lat="40.83992" lon="9.7115291"><ele>43.0</ele><time>2026-04-07T11:37:49.344Z</time></trkpt><trkpt lat="40.8398698" lon="9.7113989"><ele>43.0</ele><time>2026-04-07T11:37:51.345Z</time></trkpt><trkpt lat="40.8398251" lon="9.7113296"><ele>43.0</ele><time>2026-04-07T11:37:52.345Z</time></trkpt><trkpt lat="40.839775" lon="9.7112428"><ele>43.0</ele><time>2026-04-07T11:37:53.345Z</time></trkpt><trkpt lat="40.8397157" lon="9.7111487"><ele>43.0</ele><time>2026-04-07T11:37:54.345Z</time></trkpt><trkpt lat="40.8396715" lon="9.7110448"><ele>43.0</ele><time>2026-04-07T11:37:55.345Z</time></trkpt><trkpt lat="40.8396545" lon="9.710946"><ele>42.66666666666667</ele><time>2026-04-07T11:37:56.344Z</time></trkpt><trkpt lat="40.8396703" lon="9.7108353"><ele>42.333333333333336</ele><time>2026-04-07T11:37:57.345Z</time></trkpt><trkpt lat="40.8397244" lon="9.7107422"><ele>42.0</ele><time>2026-04-07T11:37:58.345Z</time></trkpt><trkpt lat="40.8397895" lon="9.7106602"><ele>41.666666666666664</ele><time>2026-04-07T11:37:59.345Z</time></trkpt><trkpt lat="40.8398643" lon="9.7105892"><ele>41.33333333333333</ele><time>2026-04-07T11:38:00.344Z</time></trkpt><trkpt lat="40.8399265" lon="9.7105135"><ele>41.0</ele><time>2026-04-07T11:38:01.344Z</time></trkpt><trkpt lat="40.8399731" lon="9.7104311"><ele>41.0</ele><time>2026-04-07T11:38:02.345Z</time></trkpt><trkpt lat="40.8400074" lon="9.7103403"><ele>41.0</ele><time>2026-04-07T11:38:03.345Z</time></trkpt><trkpt lat="40.8400311" lon="9.7102356"><ele>41.0</ele><time>2026-04-07T11:38:04.345Z</time></trkpt><trkpt lat="40.8400518" lon="9.7101236"><ele>41.0</ele><time>2026-04-07T11:38:05.345Z</time></trkpt><trkpt lat="40.8400636" lon="9.7100033"><ele>41.0</ele><time>2026-04-07T11:38:06.345Z</time></trkpt><trkpt lat="40.8400772" lon="9.7098819"><ele>41.0</ele><time>2026-04-07T11:38:07.344Z</time></trkpt><trkpt lat="40.8400945" lon="9.7097561"><ele>41.0</ele><time>2026-04-07T11:38:08.345Z</time></trkpt><trkpt lat="40.8401156" lon="9.7096251"><ele>41.0</ele><time>2026-04-07T11:38:09.345Z</time></trkpt><trkpt lat="40.8401347" lon="9.7094939"><ele>41.0</ele><time>2026-04-07T11:38:10.345Z</time></trkpt><trkpt lat="40.8401513" lon="9.7093663"><ele>41.0</ele><time>2026-04-07T11:38:11.345Z</time></trkpt><trkpt lat="40.8401692" lon="9.7092446"><ele>41.0</ele><time>2026-04-07T11:38:12.345Z</time></trkpt><trkpt lat="40.8401833" lon="9.7091254"><ele>39.599999999999994</ele><time>2026-04-07T11:38:13.344Z</time></trkpt><trkpt lat="40.8401957" lon="9.7090024"><ele>38.199999999999996</ele><time>2026-04-07T11:38:14.345Z</time></trkpt><trkpt lat="40.8402099" lon="9.7088793"><ele>36.8</ele><time>2026-04-07T11:38:15.345Z</time></trkpt><trkpt lat="40.8402241" lon="9.7087561"><ele>35.4</ele><time>2026-04-07T11:38:16.345Z</time></trkpt><trkpt lat="40.8402368" lon="9.7086403"><ele>34.0</ele><time>2026-04-07T11:38:17.344Z</time></trkpt><trkpt lat="40.8402442" lon="9.7085304"><ele>33.57142857142857</ele><time>2026-04-07T11:38:18.345Z</time></trkpt><trkpt lat="40.8402401" lon="9.708433"><ele>33.14285714285714</ele><time>2026-04-07T11:38:19.345Z</time></trkpt><trkpt lat="40.8402062" lon="9.7083561"><ele>32.714285714285715</ele><time>2026-04-07T11:38:20.345Z</time></trkpt><trkpt lat="40.840153" lon="9.7083002"><ele>32.285714285714285</ele><time>2026-04-07T11:38:21.344Z</time></trkpt><trkpt lat="40.8400941" lon="9.7082671"><ele>31.85714285714286</ele><time>2026-04-07T11:38:22.345Z</time></trkpt><trkpt lat="40.8400193" lon="9.7082343"><ele>31.42857142857143</ele><time>2026-04-07T11:38:23.344Z</time></trkpt><trkpt lat="40.839943" lon="9.7082037"><ele>31.0</ele><time>2026-04-07T11:38:24.345Z</time></trkpt><trkpt lat="40.8398671" lon="9.7081783"><ele>31.0</ele><time>2026-04-07T11:38:25.345Z</time></trkpt><trkpt lat="40.8397838" lon="9.7081346"><ele>31.0</ele><time>2026-04-07T11:38:26.345Z</time></trkpt><trkpt lat="40.8397068" lon="9.7080653"><ele>31.0</ele><time>2026-04-07T11:38:27.345Z</time></trkpt><trkpt lat="40.8396419" lon="9.7079778"><ele>31.0</ele><time>2026-04-07T11:38:28.345Z</time></trkpt><trkpt lat="40.8395853" lon="9.7078796"><ele>31.0</ele><time>2026-04-07T11:38:29.345Z</time></trkpt><trkpt lat="40.8395258" lon="9.7077784"><ele>29.8</ele><time>2026-04-07T11:38:30.344Z</time></trkpt><trkpt lat="40.8394609" lon="9.707675"><ele>28.6</ele><time>2026-04-07T11:38:31.345Z</time></trkpt><trkpt lat="40.8393961" lon="9.7075657"><ele>27.4</ele><time>2026-04-07T11:38:32.345Z</time></trkpt><trkpt lat="40.8393386" lon="9.7074519"><ele>26.2</ele><time>2026-04-07T11:38:33.345Z</time></trkpt><trkpt lat="40.8392983" lon="9.7073351"><ele>25.0</ele><time>2026-04-07T11:38:34.345Z</time></trkpt><trkpt lat="40.8392873" lon="9.7072323"><ele>25.000000000000004</ele><time>2026-04-07T11:38:35.345Z</time></trkpt><trkpt lat="40.8393091" lon="9.7071327"><ele>25.0</ele><time>2026-04-07T11:38:36.345Z</time></trkpt><trkpt lat="40.839358" lon="9.7070383"><ele>25.0</ele><time>2026-04-07T11:38:37.345Z</time></trkpt><trkpt lat="40.8394302" lon="9.7069542"><ele>25.0</ele><time>2026-04-07T11:38:38.345Z</time></trkpt><trkpt lat="40.8394935" lon="9.7068671"><ele>25.000000000000004</ele><time>2026-04-07T11:38:39.344Z</time></trkpt><trkpt lat="40.8395426" lon="9.7067708"><ele>25.0</ele><time>2026-04-07T11:38:40.345Z</time></trkpt><trkpt lat="40.8395904" lon="9.706664"><ele>22.8</ele><time>2026-04-07T11:38:41.345Z</time></trkpt><trkpt lat="40.8396338" lon="9.7065531"><ele>20.6</ele><time>2026-04-07T11:38:42.344Z</time></trkpt><trkpt lat="40.8396805" lon="9.7064341"><ele>18.4</ele><time>2026-04-07T11:38:43.345Z</time></trkpt><trkpt lat="40.8397253" lon="9.7063165"><ele>16.2</ele><time>2026-04-07T11:38:44.345Z</time></trkpt><trkpt lat="40.839769" lon="9.7061986"><ele>14.0</ele><time>2026-04-07T11:38:45.344Z</time></trkpt><trkpt lat="40.8398083" lon="9.7060849"><ele>13.166666666666668</ele><time>2026-04-07T11:38:46.345Z</time></trkpt><trkpt lat="40.8398518" lon="9.7059744"><ele>12.333333333333334</ele><time>2026-04-07T11:38:47.345Z</time></trkpt><trkpt lat="40.8398926" lon="9.705869"><ele>11.5</ele><time>2026-04-07T11:38:48.345Z</time></trkpt><trkpt lat="40.8399333" lon="9.7057759"><ele>10.666666666666668</ele><time>2026-04-07T11:38:49.345Z</time></trkpt><trkpt lat="40.8399716" lon="9.7056929"><ele>9.833333333333334</ele><time>2026-04-07T11:38:50.345Z</time></trkpt><trkpt lat="40.8400002" lon="9.7055929"><ele>9.0</ele><time>2026-04-07T11:38:51.344Z</time></trkpt><trkpt lat="40.8400312" lon="9.7054943"><ele>9.0</ele><time>2026-04-07T11:38:52.345Z</time></trkpt><trkpt lat="40.8400687" lon="9.7053986"><ele>9.0</ele><time>2026-04-07T11:38:53.345Z</time></trkpt><trkpt lat="40.8400988" lon="9.7052945"><ele>9.0</ele><time>2026-04-07T11:38:54.344Z</time></trkpt><trkpt lat="40.8401143" lon="9.7051839"><ele>9.0</ele><time>2026-04-07T11:38:55.345Z</time></trkpt><trkpt lat="40.8401078" lon="9.7050735"><ele>9.0</ele><time>2026-04-07T11:38:56.345Z</time></trkpt><trkpt lat="40.840085" lon="9.7049786"><ele>9.0</ele><time>2026-04-07T11:38:57.345Z</time></trkpt><trkpt lat="40.8400589" lon="9.7048928"><ele>8.833333333333334</ele><time>2026-04-07T11:38:58.344Z</time></trkpt><trkpt lat="40.8400192" lon="9.7047994"><ele>8.666666666666666</ele><time>2026-04-07T11:38:59.345Z</time></trkpt><trkpt lat="40.8399923" lon="9.7047031"><ele>8.5</ele><time>2026-04-07T11:39:00.345Z</time></trkpt><trkpt lat="40.8399822" lon="9.7046112"><ele>8.333333333333332</ele><time>2026-04-07T11:39:01.345Z</time></trkpt><trkpt lat="40.8399874" lon="9.7045258"><ele>8.166666666666666</ele><time>2026-04-07T11:39:02.345Z</time></trkpt><trkpt lat="40.8400146" lon="9.7044061"><ele>8.0</ele><time>2026-04-07T11:39:04.345Z</time></trkpt><trkpt lat="40.8400468" lon="9.7043001"><ele>7.800000000000001</ele><time>2026-04-07T11:39:06.344Z</time></trkpt><trkpt lat="40.8401029" lon="9.7041569"><ele>7.6000000000000005</ele><time>2026-04-07T11:39:08.345Z</time></trkpt><trkpt lat="40.8401336" lon="9.7040728"><ele>7.3999999999999995</ele><time>2026-04-07T11:39:09.344Z</time></trkpt><trkpt lat="40.8401642" lon="9.7039613"><ele>7.199999999999999</ele><time>2026-04-07T11:39:10.344Z</time></trkpt><trkpt lat="40.840203" lon="9.7038453"><ele>7.0</ele><time>2026-04-07T11:39:11.344Z</time></trkpt><trkpt lat="40.8402475" lon="9.7037294"><ele>7.0</ele><time>2026-04-07T11:39:12.345Z</time></trkpt><trkpt lat="40.840292" lon="9.7036089"><ele>6.999999999999999</ele><time>2026-04-07T11:39:13.344Z</time></trkpt><trkpt lat="40.8403397" lon="9.7034835"><ele>6.999999999999999</ele><time>2026-04-07T11:39:14.344Z</time></trkpt><trkpt lat="40.840384" lon="9.7033599"><ele>7.0</ele><time>2026-04-07T11:39:15.345Z</time></trkpt><trkpt lat="40.8404387" lon="9.7032472"><ele>7.0</ele><time>2026-04-07T11:39:16.345Z</time></trkpt><trkpt lat="40.8404825" lon="9.7031344"><ele>8.0</ele><time>2026-04-07T11:39:17.344Z</time></trkpt><trkpt lat="40.8405269" lon="9.7030325"><ele>9.0</ele><time>2026-04-07T11:39:18.345Z</time></trkpt><trkpt lat="40.84057" lon="9.7029478"><ele>10.0</ele><time>2026-04-07T11:39:19.344Z</time></trkpt><trkpt lat="40.8406182" lon="9.7028693"><ele>11.0</ele><time>2026-04-07T11:39:20.345Z</time></trkpt><trkpt lat="40.8406738" lon="9.7027941"><ele>11.999999999999998</ele><time>2026-04-07T11:39:21.345Z</time></trkpt><trkpt lat="40.8407346" lon="9.7027206"><ele>13.0</ele><time>2026-04-07T11:39:22.345Z</time></trkpt><trkpt lat="40.8407907" lon="9.7026419"><ele>13.333333333333332</ele><time>2026-04-07T11:39:23.345Z</time></trkpt><trkpt lat="40.8408463" lon="9.7025668"><ele>13.666666666666666</ele><time>2026-04-07T11:39:24.344Z</time></trkpt><trkpt lat="40.8409004" lon="9.7024976"><ele>14.0</ele><time>2026-04-07T11:39:25.344Z</time></trkpt><trkpt lat="40.8409507" lon="9.7024399"><ele>14.333333333333332</ele><time>2026-04-07T11:39:26.344Z</time></trkpt><trkpt lat="40.8410452" lon="9.7023282"><ele>14.666666666666666</ele><time>2026-04-07T11:39:28.345Z</time></trkpt><trkpt lat="40.8410903" lon="9.7022537"><ele>15.0</ele><time>2026-04-07T11:39:29.345Z</time></trkpt><trkpt lat="40.8411442" lon="9.7021833"><ele>15.4</ele><time>2026-04-07T11:39:30.345Z</time></trkpt><trkpt lat="40.8412113" lon="9.7021193"><ele>15.8</ele><time>2026-04-07T11:39:31.345Z</time></trkpt><trkpt lat="40.8412875" lon="9.7020583"><ele>16.2</ele><time>2026-04-07T11:39:32.344Z</time></trkpt><trkpt lat="40.8413696" lon="9.7019954"><ele>16.6</ele><time>2026-04-07T11:39:33.345Z</time></trkpt><trkpt lat="40.8414503" lon="9.7019315"><ele>17.0</ele><time>2026-04-07T11:39:34.344Z</time></trkpt><trkpt lat="40.8415369" lon="9.7018635"><ele>17.0</ele><time>2026-04-07T11:39:35.344Z</time></trkpt><trkpt lat="40.841627" lon="9.7017972"><ele>17.0</ele><time>2026-04-07T11:39:36.344Z</time></trkpt><trkpt lat="40.841719" lon="9.7017335"><ele>17.0</ele><time>2026-04-07T11:39:37.345Z</time></trkpt><trkpt lat="40.8418029" lon="9.7016627"><ele>17.0</ele><time>2026-04-07T11:39:38.345Z</time></trkpt><trkpt lat="40.8418934" lon="9.7016024"><ele>17.0</ele><time>2026-04-07T11:39:39.345Z</time></trkpt><trkpt lat="40.8419882" lon="9.70155"><ele>17.0</ele><time>2026-04-07T11:39:40.345Z</time></trkpt><trkpt lat="40.8420807" lon="9.7015008"><ele>17.0</ele><time>2026-04-07T11:39:41.345Z</time></trkpt><trkpt lat="40.8421837" lon="9.7014652"><ele>17.0</ele><time>2026-04-07T11:39:42.344Z</time></trkpt><trkpt lat="40.8422845" lon="9.7014385"><ele>17.0</ele><time>2026-04-07T11:39:43.345Z</time></trkpt><trkpt lat="40.8423916" lon="9.7014149"><ele>17.0</ele><time>2026-04-07T11:39:44.345Z</time></trkpt><trkpt lat="40.8425017" lon="9.7013901"><ele>17.0</ele><time>2026-04-07T11:39:45.345Z</time></trkpt><trkpt lat="40.8426147" lon="9.7013669"><ele>17.0</ele><time>2026-04-07T11:39:46.345Z</time></trkpt><trkpt lat="40.8427294" lon="9.7013418"><ele>17.0</ele><time>2026-04-07T11:39:47.345Z</time></trkpt><trkpt lat="40.842838" lon="9.7013132"><ele>17.0</ele><time>2026-04-07T11:39:48.344Z</time></trkpt><trkpt lat="40.842946" lon="9.7012852"><ele>16.6</ele><time>2026-04-07T11:39:49.345Z</time></trkpt><trkpt lat="40.8430536" lon="9.7012653"><ele>16.2</ele><time>2026-04-07T11:39:50.344Z</time></trkpt><trkpt lat="40.8431556" lon="9.701245"><ele>15.8</ele><time>2026-04-07T11:39:51.344Z</time></trkpt><trkpt lat="40.8432552" lon="9.7012273"><ele>15.4</ele><time>2026-04-07T11:39:52.344Z</time></trkpt><trkpt lat="40.8433501" lon="9.7012063"><ele>15.0</ele><time>2026-04-07T11:39:53.345Z</time></trkpt><trkpt lat="40.8434444" lon="9.7011796"><ele>14.5</ele><time>2026-04-07T11:39:54.345Z</time></trkpt><trkpt lat="40.843536" lon="9.7011515"><ele>14.0</ele><time>2026-04-07T11:39:55.345Z</time></trkpt><trkpt lat="40.8436185" lon="9.7011242"><ele>13.5</ele><time>2026-04-07T11:39:56.344Z</time></trkpt><trkpt lat="40.8436999" lon="9.7010785"><ele>13.0</ele><time>2026-04-07T11:39:57.345Z</time></trkpt><trkpt lat="40.8437568" lon="9.701016"><ele>12.5</ele><time>2026-04-07T11:39:58.345Z</time></trkpt><trkpt lat="40.8438097" lon="9.7009646"><ele>12.0</ele><time>2026-04-07T11:39:59.344Z</time></trkpt><trkpt lat="40.8437994" lon="9.7008436"><ele>11.833333333333334</ele><time>2026-04-07T11:40:00.345Z</time></trkpt><trkpt lat="40.8438096" lon="9.7007511"><ele>11.666666666666666</ele><time>2026-04-07T11:40:01.344Z</time></trkpt><trkpt lat="40.8438043" lon="9.7006502"><ele>11.5</ele><time>2026-04-07T11:40:02.345Z</time></trkpt><trkpt lat="40.8437821" lon="9.7005301"><ele>11.333333333333332</ele><time>2026-04-07T11:40:03.344Z</time></trkpt><trkpt lat="40.8437651" lon="9.7004073"><ele>11.166666666666666</ele><time>2026-04-07T11:40:04.344Z</time></trkpt><trkpt lat="40.8437497" lon="9.7002746"><ele>11.0</ele><time>2026-04-07T11:40:05.344Z</time></trkpt><trkpt lat="40.8437315" lon="9.7001293"><ele>10.5</ele><time>2026-04-07T11:40:06.345Z</time></trkpt><trkpt lat="40.8437103" lon="9.6999718"><ele>10.0</ele><time>2026-04-07T11:40:07.344Z</time></trkpt><trkpt lat="40.8436889" lon="9.6998086"><ele>9.5</ele><time>2026-04-07T11:40:08.345Z</time></trkpt><trkpt lat="40.8436662" lon="9.6996535"><ele>9.0</ele><time>2026-04-07T11:40:09.344Z</time></trkpt><trkpt lat="40.8436424" lon="9.6994943"><ele>9.75</ele><time>2026-04-07T11:40:10.345Z</time></trkpt><trkpt lat="40.8436201" lon="9.699333"><ele>10.5</ele><time>2026-04-07T11:40:11.344Z</time></trkpt><trkpt lat="40.843594" lon="9.6991726"><ele>11.25</ele><time>2026-04-07T11:40:12.345Z</time></trkpt><trkpt lat="40.8435699" lon="9.6990091"><ele>12.0</ele><time>2026-04-07T11:40:13.345Z</time></trkpt><trkpt lat="40.8435424" lon="9.6988428"><ele>12.0</ele><time>2026-04-07T11:40:14.344Z</time></trkpt><trkpt lat="40.8435192" lon="9.6986788"><ele>12.0</ele><time>2026-04-07T11:40:15.344Z</time></trkpt><trkpt lat="40.8434932" lon="9.6985139"><ele>12.0</ele><time>2026-04-07T11:40:16.345Z</time></trkpt><trkpt lat="40.8434668" lon="9.6983588"><ele>12.0</ele><time>2026-04-07T11:40:17.345Z</time></trkpt><trkpt lat="40.8434416" lon="9.6982107"><ele>12.0</ele><time>2026-04-07T11:40:18.345Z</time></trkpt><trkpt lat="40.8434159" lon="9.6980687"><ele>12.0</ele><time>2026-04-07T11:40:19.345Z</time></trkpt><trkpt lat="40.8433894" lon="9.6979261"><ele>12.0</ele><time>2026-04-07T11:40:20.344Z</time></trkpt><trkpt lat="40.8433794" lon="9.6977822"><ele>12.0</ele><time>2026-04-07T11:40:21.345Z</time></trkpt><trkpt lat="40.8433544" lon="9.6976379"><ele>12.0</ele><time>2026-04-07T11:40:22.345Z</time></trkpt><trkpt lat="40.8433267" lon="9.6974929"><ele>11.75</ele><time>2026-04-07T11:40:23.344Z</time></trkpt><trkpt lat="40.8432949" lon="9.6973442"><ele>11.5</ele><time>2026-04-07T11:40:24.344Z</time></trkpt><trkpt lat="40.8432472" lon="9.6971979"><ele>11.25</ele><time>2026-04-07T11:40:25.345Z</time></trkpt><trkpt lat="40.8431876" lon="9.6970537"><ele>11.0</ele><time>2026-04-07T11:40:26.345Z</time></trkpt><trkpt lat="40.8431243" lon="9.6969238"><ele>10.600000000000001</ele><time>2026-04-07T11:40:27.345Z</time></trkpt><trkpt lat="40.8430553" lon="9.6968273"><ele>10.200000000000001</ele><time>2026-04-07T11:40:28.345Z</time></trkpt><trkpt lat="40.8429941" lon="9.6967244"><ele>9.8</ele><time>2026-04-07T11:40:29.345Z</time></trkpt><trkpt lat="40.8429418" lon="9.6966186"><ele>9.4</ele><time>2026-04-07T11:40:30.345Z</time></trkpt><trkpt lat="40.8428996" lon="9.696506"><ele>9.0</ele><time>2026-04-07T11:40:31.344Z</time></trkpt><trkpt lat="40.8428799" lon="9.696388"><ele>9.0</ele><time>2026-04-07T11:40:32.345Z</time></trkpt><trkpt lat="40.8428872" lon="9.696259"><ele>9.0</ele><time>2026-04-07T11:40:33.345Z</time></trkpt><trkpt lat="40.8429129" lon="9.6961389"><ele>9.0</ele><time>2026-04-07T11:40:34.345Z</time></trkpt><trkpt lat="40.8429416" lon="9.6960149"><ele>9.0</ele><time>2026-04-07T11:40:35.345Z</time></trkpt><trkpt lat="40.8429596" lon="9.6958876"><ele>9.0</ele><time>2026-04-07T11:40:36.344Z</time></trkpt><trkpt lat="40.8429654" lon="9.6957462"><ele>8.5</ele><time>2026-04-07T11:40:37.345Z</time></trkpt><trkpt lat="40.8429588" lon="9.6956025"><ele>8.0</ele><time>2026-04-07T11:40:38.345Z</time></trkpt><trkpt lat="40.8429243" lon="9.6954598"><ele>7.5</ele><time>2026-04-07T11:40:39.345Z</time></trkpt><trkpt lat="40.8428783" lon="9.6953231"><ele>7.0</ele><time>2026-04-07T11:40:40.345Z</time></trkpt><trkpt lat="40.8428324" lon="9.6951844"><ele>6.3999999999999995</ele><time>2026-04-07T11:40:41.345Z</time></trkpt><trkpt lat="40.8427859" lon="9.6950472"><ele>5.799999999999999</ele><time>2026-04-07T11:40:42.344Z</time></trkpt><trkpt lat="40.8427366" lon="9.6949163"><ele>5.2</ele><time>2026-04-07T11:40:43.345Z</time></trkpt><trkpt lat="40.8426939" lon="9.6947809"><ele>4.6</ele><time>2026-04-07T11:40:44.345Z</time></trkpt><trkpt lat="40.8426486" lon="9.6946446"><ele>4.0</ele><time>2026-04-07T11:40:45.345Z</time></trkpt><trkpt lat="40.842602" lon="9.6945112"><ele>3.6</ele><time>2026-04-07T11:40:46.345Z</time></trkpt><trkpt lat="40.8425537" lon="9.6943761"><ele>3.2</ele><time>2026-04-07T11:40:47.345Z</time></trkpt><trkpt lat="40.8425136" lon="9.6942394"><ele>2.8000000000000003</ele><time>2026-04-07T11:40:48.344Z</time></trkpt><trkpt lat="40.8424706" lon="9.6941001"><ele>2.4000000000000004</ele><time>2026-04-07T11:40:49.345Z</time></trkpt><trkpt lat="40.8424277" lon="9.6939715"><ele>2.0</ele><time>2026-04-07T11:40:50.344Z</time></trkpt><trkpt lat="40.8423865" lon="9.6938426"><ele>2.0</ele><time>2026-04-07T11:40:51.345Z</time></trkpt><trkpt lat="40.8423008" lon="9.693598"><ele>2.0</ele><time>2026-04-07T11:40:53.345Z</time></trkpt><trkpt lat="40.8422099" lon="9.6933363"><ele>2.0</ele><time>2026-04-07T11:40:55.345Z</time></trkpt><trkpt lat="40.8421662" lon="9.6932031"><ele>2.0</ele><time>2026-04-07T11:40:56.345Z</time></trkpt><trkpt lat="40.8421204" lon="9.6930701"><ele>2.0</ele><time>2026-04-07T11:40:57.345Z</time></trkpt><trkpt lat="40.8420735" lon="9.6929309"><ele>2.0</ele><time>2026-04-07T11:40:58.345Z</time></trkpt><trkpt lat="40.8420275" lon="9.6927895"><ele>2.0</ele><time>2026-04-07T11:40:59.345Z</time></trkpt><trkpt lat="40.841982" lon="9.6926491"><ele>2.5</ele><time>2026-04-07T11:41:00.345Z</time></trkpt><trkpt lat="40.8419359" lon="9.6925069"><ele>3.0</ele><time>2026-04-07T11:41:01.345Z</time></trkpt><trkpt lat="40.8418865" lon="9.6923645"><ele>3.5</ele><time>2026-04-07T11:41:02.344Z</time></trkpt><trkpt lat="40.8418341" lon="9.6922227"><ele>4.0</ele><time>2026-04-07T11:41:03.345Z</time></trkpt><trkpt lat="40.8417851" lon="9.6920807"><ele>4.5</ele><time>2026-04-07T11:41:04.344Z</time></trkpt><trkpt lat="40.8417394" lon="9.6919481"><ele>5.0</ele><time>2026-04-07T11:41:05.345Z</time></trkpt><trkpt lat="40.8416953" lon="9.6918187"><ele>5.5</ele><time>2026-04-07T11:41:06.345Z</time></trkpt><trkpt lat="40.8416471" lon="9.6916559"><ele>6.0</ele><time>2026-04-07T11:41:07.345Z</time></trkpt><trkpt lat="40.8416006" lon="9.6914949"><ele>6.5</ele><time>2026-04-07T11:41:08.345Z</time></trkpt><trkpt lat="40.8415491" lon="9.6913402"><ele>7.0</ele><time>2026-04-07T11:41:09.345Z</time></trkpt><trkpt lat="40.841492" lon="9.691179"><ele>7.5</ele><time>2026-04-07T11:41:10.345Z</time></trkpt><trkpt lat="40.8414368" lon="9.6910165"><ele>8.0</ele><time>2026-04-07T11:41:11.344Z</time></trkpt><trkpt lat="40.8413745" lon="9.6908444"><ele>8.25</ele><time>2026-04-07T11:41:12.345Z</time></trkpt><trkpt lat="40.8413165" lon="9.6906755"><ele>8.5</ele><time>2026-04-07T11:41:13.345Z</time></trkpt><trkpt lat="40.8412668" lon="9.69052"><ele>8.75</ele><time>2026-04-07T11:41:14.345Z</time></trkpt><trkpt lat="40.8412161" lon="9.6903672"><ele>9.0</ele><time>2026-04-07T11:41:15.345Z</time></trkpt><trkpt lat="40.841169" lon="9.690219"><ele>9.0</ele><time>2026-04-07T11:41:16.345Z</time></trkpt><trkpt lat="40.8411177" lon="9.6900703"><ele>9.0</ele><time>2026-04-07T11:41:17.344Z</time></trkpt><trkpt lat="40.8410661" lon="9.6899233"><ele>9.0</ele><time>2026-04-07T11:41:18.345Z</time></trkpt><trkpt lat="40.8410199" lon="9.6897862"><ele>9.0</ele><time>2026-04-07T11:41:19.344Z</time></trkpt><trkpt lat="40.8409788" lon="9.6896656"><ele>9.6</ele><time>2026-04-07T11:41:20.345Z</time></trkpt><trkpt lat="40.8409309" lon="9.6895437"><ele>10.2</ele><time>2026-04-07T11:41:21.345Z</time></trkpt><trkpt lat="40.8408905" lon="9.6894223"><ele>10.799999999999999</ele><time>2026-04-07T11:41:22.344Z</time></trkpt><trkpt lat="40.8408466" lon="9.6893005"><ele>11.4</ele><time>2026-04-07T11:41:23.345Z</time></trkpt><trkpt lat="40.8408013" lon="9.689166"><ele>12.0</ele><time>2026-04-07T11:41:24.344Z</time></trkpt><trkpt lat="40.8407577" lon="9.6890191"><ele>12.0</ele><time>2026-04-07T11:41:25.345Z</time></trkpt><trkpt lat="40.8407043" lon="9.6888609"><ele>12.0</ele><time>2026-04-07T11:41:26.345Z</time></trkpt><trkpt lat="40.8406535" lon="9.6887013"><ele>12.0</ele><time>2026-04-07T11:41:27.345Z</time></trkpt><trkpt lat="40.8406046" lon="9.6885457"><ele>12.0</ele><time>2026-04-07T11:41:28.345Z</time></trkpt><trkpt lat="40.840562" lon="9.6883959"><ele>12.0</ele><time>2026-04-07T11:41:29.344Z</time></trkpt><trkpt lat="40.8405186" lon="9.6882364"><ele>12.0</ele><time>2026-04-07T11:41:30.344Z</time></trkpt><trkpt lat="40.8404733" lon="9.6880838"><ele>12.0</ele><time>2026-04-07T11:41:31.345Z</time></trkpt><trkpt lat="40.8404358" lon="9.6879522"><ele>12.0</ele><time>2026-04-07T11:41:32.345Z</time></trkpt><trkpt lat="40.8404055" lon="9.6878428"><ele>12.0</ele><time>2026-04-07T11:41:33.345Z</time></trkpt><trkpt lat="40.8403756" lon="9.6877526"><ele>12.0</ele><time>2026-04-07T11:41:34.345Z</time></trkpt><trkpt lat="40.840353" lon="9.6876711"><ele>12.0</ele><time>2026-04-07T11:41:35.344Z</time></trkpt><trkpt lat="40.840314" lon="9.6875281"><ele>12.0</ele><time>2026-04-07T11:41:37.345Z</time></trkpt><trkpt lat="40.8402956" lon="9.6873939"><ele>12.0</ele><time>2026-04-07T11:41:39.345Z</time></trkpt><trkpt lat="40.8403164" lon="9.6872064"><ele>12.0</ele><time>2026-04-07T11:41:41.345Z</time></trkpt><trkpt lat="40.8403449" lon="9.6870987"><ele>12.0</ele><time>2026-04-07T11:41:42.345Z</time></trkpt><trkpt lat="40.8403873" lon="9.686985"><ele>12.0</ele><time>2026-04-07T11:41:43.345Z</time></trkpt><trkpt lat="40.8404429" lon="9.6868656"><ele>12.0</ele><time>2026-04-07T11:41:44.345Z</time></trkpt><trkpt lat="40.8405024" lon="9.68674"><ele>12.0</ele><time>2026-04-07T11:41:45.344Z</time></trkpt><trkpt lat="40.8405659" lon="9.6866055"><ele>12.0</ele><time>2026-04-07T11:41:46.344Z</time></trkpt><trkpt lat="40.8406322" lon="9.6864651"><ele>12.0</ele><time>2026-04-07T11:41:47.345Z</time></trkpt><trkpt lat="40.840705" lon="9.6863146"><ele>12.0</ele><time>2026-04-07T11:41:48.345Z</time></trkpt><trkpt lat="40.8407833" lon="9.6861622"><ele>12.0</ele><time>2026-04-07T11:41:49.345Z</time></trkpt><trkpt lat="40.8408625" lon="9.6860013"><ele>12.0</ele><time>2026-04-07T11:41:50.345Z</time></trkpt><trkpt lat="40.8409456" lon="9.6858398"><ele>10.75</ele><time>2026-04-07T11:41:51.345Z</time></trkpt><trkpt lat="40.8410174" lon="9.6856948"><ele>9.5</ele><time>2026-04-07T11:41:52.345Z</time></trkpt><trkpt lat="40.8410842" lon="9.6855527"><ele>8.25</ele><time>2026-04-07T11:41:53.344Z</time></trkpt><trkpt lat="40.841145" lon="9.6854216"><ele>7.0</ele><time>2026-04-07T11:41:54.345Z</time></trkpt><trkpt lat="40.8412005" lon="9.6852952"><ele>7.0</ele><time>2026-04-07T11:41:55.344Z</time></trkpt><trkpt lat="40.8412504" lon="9.6851772"><ele>6.999999999999999</ele><time>2026-04-07T11:41:56.344Z</time></trkpt><trkpt lat="40.841288" lon="9.6850487"><ele>6.999999999999999</ele><time>2026-04-07T11:41:57.344Z</time></trkpt><trkpt lat="40.8413093" lon="9.6849187"><ele>7.0</ele><time>2026-04-07T11:41:58.344Z</time></trkpt><trkpt lat="40.8413174" lon="9.6847806"><ele>7.0</ele><time>2026-04-07T11:41:59.345Z</time></trkpt><trkpt lat="40.8413128" lon="9.6846327"><ele>7.0</ele><time>2026-04-07T11:42:00.345Z</time></trkpt><trkpt lat="40.8412884" lon="9.6844886"><ele>7.0</ele><time>2026-04-07T11:42:01.345Z</time></trkpt><trkpt lat="40.8412457" lon="9.6843493"><ele>7.0</ele><time>2026-04-07T11:42:02.344Z</time></trkpt><trkpt lat="40.8411951" lon="9.6841983"><ele>7.0</ele><time>2026-04-07T11:42:03.345Z</time></trkpt><trkpt lat="40.841145" lon="9.6840526"><ele>7.5</ele><time>2026-04-07T11:42:04.344Z</time></trkpt><trkpt lat="40.8410943" lon="9.6839001"><ele>8.0</ele><time>2026-04-07T11:42:05.345Z</time></trkpt><trkpt lat="40.8410369" lon="9.6837397"><ele>8.5</ele><time>2026-04-07T11:42:06.345Z</time></trkpt><trkpt lat="40.8409789" lon="9.6835674"><ele>9.0</ele><time>2026-04-07T11:42:07.345Z</time></trkpt><trkpt lat="40.8409228" lon="9.6834004"><ele>9.5</ele><time>2026-04-07T11:42:08.345Z</time></trkpt><trkpt lat="40.840867" lon="9.6832299"><ele>10.0</ele><time>2026-04-07T11:42:09.345Z</time></trkpt><trkpt lat="40.8408101" lon="9.6830691"><ele>10.5</ele><time>2026-04-07T11:42:10.344Z</time></trkpt><trkpt lat="40.8407561" lon="9.6829098"><ele>11.0</ele><time>2026-04-07T11:42:11.345Z</time></trkpt><trkpt lat="40.8407058" lon="9.6827467"><ele>11.75</ele><time>2026-04-07T11:42:12.345Z</time></trkpt><trkpt lat="40.8406475" lon="9.6825752"><ele>12.5</ele><time>2026-04-07T11:42:13.344Z</time></trkpt><trkpt lat="40.8405965" lon="9.682413"><ele>13.25</ele><time>2026-04-07T11:42:14.345Z</time></trkpt><trkpt lat="40.840541" lon="9.6822471"><ele>14.0</ele><time>2026-04-07T11:42:15.345Z</time></trkpt><trkpt lat="40.8404852" lon="9.6820895"><ele>14.0</ele><time>2026-04-07T11:42:16.345Z</time></trkpt><trkpt lat="40.8404313" lon="9.6819374"><ele>14.0</ele><time>2026-04-07T11:42:17.345Z</time></trkpt><trkpt lat="40.8403789" lon="9.6817878"><ele>14.0</ele><time>2026-04-07T11:42:18.345Z</time></trkpt><trkpt lat="40.840327" lon="9.6816352"><ele>14.0</ele><time>2026-04-07T11:42:19.345Z</time></trkpt><trkpt lat="40.840274" lon="9.6814774"><ele>14.25</ele><time>2026-04-07T11:42:20.345Z</time></trkpt><trkpt lat="40.8402229" lon="9.6813112"><ele>14.5</ele><time>2026-04-07T11:42:21.345Z</time></trkpt><trkpt lat="40.8401675" lon="9.6811461"><ele>14.75</ele><time>2026-04-07T11:42:22.345Z</time></trkpt><trkpt lat="40.8401107" lon="9.6809844"><ele>15.0</ele><time>2026-04-07T11:42:23.344Z</time></trkpt><trkpt lat="40.8400566" lon="9.6808247"><ele>15.0</ele><time>2026-04-07T11:42:24.345Z</time></trkpt><trkpt lat="40.8400039" lon="9.680672"><ele>15.0</ele><time>2026-04-07T11:42:25.345Z</time></trkpt><trkpt lat="40.8399549" lon="9.6805204"><ele>15.0</ele><time>2026-04-07T11:42:26.345Z</time></trkpt><trkpt lat="40.8399089" lon="9.6803776"><ele>15.0</ele><time>2026-04-07T11:42:27.345Z</time></trkpt><trkpt lat="40.8398609" lon="9.6802448"><ele>15.6</ele><time>2026-04-07T11:42:28.345Z</time></trkpt><trkpt lat="40.8398089" lon="9.6801167"><ele>16.2</ele><time>2026-04-07T11:42:29.345Z</time></trkpt><trkpt lat="40.839751" lon="9.67999"><ele>16.8</ele><time>2026-04-07T11:42:30.344Z</time></trkpt><trkpt lat="40.8396841" lon="9.6798804"><ele>17.4</ele><time>2026-04-07T11:42:31.345Z</time></trkpt><trkpt lat="40.8395988" lon="9.6798008"><ele>18.0</ele><time>2026-04-07T11:42:32.345Z</time></trkpt><trkpt lat="40.8395116" lon="9.6797532"><ele>18.0</ele><time>2026-04-07T11:42:33.345Z</time></trkpt><trkpt lat="40.8394146" lon="9.6797153"><ele>18.0</ele><time>2026-04-07T11:42:34.344Z</time></trkpt><trkpt lat="40.8393007" lon="9.6796811"><ele>18.0</ele><time>2026-04-07T11:42:35.344Z</time></trkpt><trkpt lat="40.8391874" lon="9.6796433"><ele>18.0</ele><time>2026-04-07T11:42:36.344Z</time></trkpt><trkpt lat="40.8390794" lon="9.6796197"><ele>18.0</ele><time>2026-04-07T11:42:37.345Z</time></trkpt><trkpt lat="40.8389783" lon="9.6795814"><ele>18.0</ele><time>2026-04-07T11:42:38.345Z</time></trkpt><trkpt lat="40.8388831" lon="9.6795193"><ele>18.0</ele><time>2026-04-07T11:42:39.344Z</time></trkpt><trkpt lat="40.8387956" lon="9.6794375"><ele>18.0</ele><time>2026-04-07T11:42:40.345Z</time></trkpt><trkpt lat="40.8387046" lon="9.6793483"><ele>18.0</ele><time>2026-04-07T11:42:41.345Z</time></trkpt><trkpt lat="40.8386219" lon="9.6792462"><ele>18.0</ele><time>2026-04-07T11:42:42.344Z</time></trkpt><trkpt lat="40.8385387" lon="9.6791399"><ele>18.5</ele><time>2026-04-07T11:42:43.345Z</time></trkpt><trkpt lat="40.8384574" lon="9.6790228"><ele>19.0</ele><time>2026-04-07T11:42:44.345Z</time></trkpt><trkpt lat="40.8383858" lon="9.678907"><ele>19.5</ele><time>2026-04-07T11:42:45.345Z</time></trkpt><trkpt lat="40.8383186" lon="9.678795"><ele>20.0</ele><time>2026-04-07T11:42:46.344Z</time></trkpt><trkpt lat="40.8382547" lon="9.6786793"><ele>20.5</ele><time>2026-04-07T11:42:47.345Z</time></trkpt><trkpt lat="40.8381927" lon="9.6785634"><ele>21.0</ele><time>2026-04-07T11:42:48.344Z</time></trkpt><trkpt lat="40.8381276" lon="9.67844"><ele>21.5</ele><time>2026-04-07T11:42:49.344Z</time></trkpt><trkpt lat="40.8380595" lon="9.6783128"><ele>22.0</ele><time>2026-04-07T11:42:50.345Z</time></trkpt><trkpt lat="40.8379864" lon="9.6781813"><ele>22.0</ele><time>2026-04-07T11:42:51.345Z</time></trkpt><trkpt lat="40.8379089" lon="9.6780518"><ele>22.0</ele><time>2026-04-07T11:42:52.345Z</time></trkpt><trkpt lat="40.8378448" lon="9.6779201"><ele>22.0</ele><time>2026-04-07T11:42:53.344Z</time></trkpt><trkpt lat="40.8377795" lon="9.6777959"><ele>22.0</ele><time>2026-04-07T11:42:54.345Z</time></trkpt><trkpt lat="40.8377167" lon="9.677676"><ele>23.0</ele><time>2026-04-07T11:42:55.345Z</time></trkpt><trkpt lat="40.8376561" lon="9.6775636"><ele>24.0</ele><time>2026-04-07T11:42:56.344Z</time></trkpt><trkpt lat="40.837595" lon="9.6774487"><ele>25.000000000000004</ele><time>2026-04-07T11:42:57.345Z</time></trkpt><trkpt lat="40.8375318" lon="9.6773289"><ele>26.0</ele><time>2026-04-07T11:42:58.345Z</time></trkpt><trkpt lat="40.837465" lon="9.6772008"><ele>27.0</ele><time>2026-04-07T11:42:59.344Z</time></trkpt><trkpt lat="40.8373949" lon="9.677066"><ele>25.25</ele><time>2026-04-07T11:43:00.345Z</time></trkpt><trkpt lat="40.8373213" lon="9.6769227"><ele>23.5</ele><time>2026-04-07T11:43:01.345Z</time></trkpt><trkpt lat="40.8372494" lon="9.6767979"><ele>21.75</ele><time>2026-04-07T11:43:02.345Z</time></trkpt><trkpt lat="40.8371798" lon="9.6766651"><ele>20.0</ele><time>2026-04-07T11:43:03.345Z</time></trkpt><trkpt lat="40.8371188" lon="9.6765516"><ele>20.0</ele><time>2026-04-07T11:43:04.344Z</time></trkpt><trkpt lat="40.8370638" lon="9.6764384"><ele>20.0</ele><time>2026-04-07T11:43:05.345Z</time></trkpt><trkpt lat="40.8370046" lon="9.6763339"><ele>20.0</ele><time>2026-04-07T11:43:06.345Z</time></trkpt><trkpt lat="40.8369479" lon="9.6762206"><ele>20.0</ele><time>2026-04-07T11:43:07.345Z</time></trkpt><trkpt lat="40.8368878" lon="9.6761086"><ele>20.0</ele><time>2026-04-07T11:43:08.345Z</time></trkpt><trkpt lat="40.8368165" lon="9.6759962"><ele>19.0</ele><time>2026-04-07T11:43:09.345Z</time></trkpt><trkpt lat="40.8367488" lon="9.6758833"><ele>18.0</ele><time>2026-04-07T11:43:10.345Z</time></trkpt><trkpt lat="40.836686" lon="9.6757745"><ele>17.0</ele><time>2026-04-07T11:43:11.345Z</time></trkpt><trkpt lat="40.8366134" lon="9.6756721"><ele>16.0</ele><time>2026-04-07T11:43:12.345Z</time></trkpt><trkpt lat="40.8365309" lon="9.6755809"><ele>15.0</ele><time>2026-04-07T11:43:13.344Z</time></trkpt><trkpt lat="40.8364513" lon="9.6754957"><ele>15.0</ele><time>2026-04-07T11:43:14.345Z</time></trkpt><trkpt lat="40.8363742" lon="9.6754003"><ele>15.0</ele><time>2026-04-07T11:43:15.345Z</time></trkpt><trkpt lat="40.8362913" lon="9.6753031"><ele>15.0</ele><time>2026-04-07T11:43:16.344Z</time></trkpt><trkpt lat="40.8362048" lon="9.6752023"><ele>15.0</ele><time>2026-04-07T11:43:17.345Z</time></trkpt><trkpt lat="40.8361201" lon="9.6750947"><ele>15.0</ele><time>2026-04-07T11:43:18.345Z</time></trkpt><trkpt lat="40.8360403" lon="9.6749861"><ele>14.0</ele><time>2026-04-07T11:43:19.345Z</time></trkpt><trkpt lat="40.8359645" lon="9.674879"><ele>13.0</ele><time>2026-04-07T11:43:20.345Z</time></trkpt><trkpt lat="40.8358984" lon="9.674766"><ele>12.0</ele><time>2026-04-07T11:43:21.345Z</time></trkpt><trkpt lat="40.8358441" lon="9.674653"><ele>11.0</ele><time>2026-04-07T11:43:22.345Z</time></trkpt><trkpt lat="40.8357966" lon="9.6745331"><ele>10.0</ele><time>2026-04-07T11:43:23.344Z</time></trkpt><trkpt lat="40.8357485" lon="9.6744168"><ele>9.6</ele><time>2026-04-07T11:43:24.345Z</time></trkpt><trkpt lat="40.8357045" lon="9.6742979"><ele>9.2</ele><time>2026-04-07T11:43:25.345Z</time></trkpt><trkpt lat="40.835661" lon="9.6741733"><ele>8.8</ele><time>2026-04-07T11:43:26.344Z</time></trkpt><trkpt lat="40.8356134" lon="9.6740418"><ele>8.4</ele><time>2026-04-07T11:43:27.345Z</time></trkpt><trkpt lat="40.8355672" lon="9.6738976"><ele>8.0</ele><time>2026-04-07T11:43:28.345Z</time></trkpt><trkpt lat="40.8355204" lon="9.6737396"><ele>8.0</ele><time>2026-04-07T11:43:29.345Z</time></trkpt><trkpt lat="40.8354673" lon="9.673579"><ele>8.0</ele><time>2026-04-07T11:43:30.345Z</time></trkpt><trkpt lat="40.8354055" lon="9.6734171"><ele>8.0</ele><time>2026-04-07T11:43:31.345Z</time></trkpt><trkpt lat="40.8353404" lon="9.6732554"><ele>8.0</ele><time>2026-04-07T11:43:32.345Z</time></trkpt><trkpt lat="40.8352821" lon="9.6731071"><ele>8.0</ele><time>2026-04-07T11:43:33.344Z</time></trkpt><trkpt lat="40.8352215" lon="9.6729558"><ele>8.0</ele><time>2026-04-07T11:43:34.344Z</time></trkpt><trkpt lat="40.8351586" lon="9.6728016"><ele>8.0</ele><time>2026-04-07T11:43:35.345Z</time></trkpt><trkpt lat="40.8350936" lon="9.6726418"><ele>8.0</ele><time>2026-04-07T11:43:36.345Z</time></trkpt><trkpt lat="40.8350281" lon="9.6724781"><ele>7.75</ele><time>2026-04-07T11:43:37.345Z</time></trkpt><trkpt lat="40.8349637" lon="9.6723061"><ele>7.5</ele><time>2026-04-07T11:43:38.345Z</time></trkpt><trkpt lat="40.8349052" lon="9.6721342"><ele>7.25</ele><time>2026-04-07T11:43:39.345Z</time></trkpt><trkpt lat="40.8348555" lon="9.671955"><ele>7.0</ele><time>2026-04-07T11:43:40.344Z</time></trkpt><trkpt lat="40.8348182" lon="9.6717676"><ele>7.0</ele><time>2026-04-07T11:43:41.344Z</time></trkpt><trkpt lat="40.8347895" lon="9.6715812"><ele>7.0</ele><time>2026-04-07T11:43:42.345Z</time></trkpt><trkpt lat="40.8347616" lon="9.6713986"><ele>7.0</ele><time>2026-04-07T11:43:43.345Z</time></trkpt><trkpt lat="40.8347337" lon="9.6712176"><ele>7.0</ele><time>2026-04-07T11:43:44.345Z</time></trkpt><trkpt lat="40.8347062" lon="9.6710363"><ele>7.5</ele><time>2026-04-07T11:43:45.345Z</time></trkpt><trkpt lat="40.8346808" lon="9.6708538"><ele>8.0</ele><time>2026-04-07T11:43:46.344Z</time></trkpt><trkpt lat="40.83466" lon="9.6706684"><ele>8.5</ele><time>2026-04-07T11:43:47.345Z</time></trkpt><trkpt lat="40.8346316" lon="9.6704839"><ele>9.0</ele><time>2026-04-07T11:43:48.345Z</time></trkpt><trkpt lat="40.8346" lon="9.6702965"><ele>9.0</ele><time>2026-04-07T11:43:49.344Z</time></trkpt><trkpt lat="40.8345746" lon="9.6701126"><ele>9.0</ele><time>2026-04-07T11:43:50.345Z</time></trkpt><trkpt lat="40.8345454" lon="9.6699263"><ele>9.0</ele><time>2026-04-07T11:43:51.345Z</time></trkpt><trkpt lat="40.8345161" lon="9.6697409"><ele>9.0</ele><time>2026-04-07T11:43:52.345Z</time></trkpt><trkpt lat="40.8344901" lon="9.6695568"><ele>9.25</ele><time>2026-04-07T11:43:53.345Z</time></trkpt><trkpt lat="40.8344592" lon="9.6693719"><ele>9.5</ele><time>2026-04-07T11:43:54.345Z</time></trkpt><trkpt lat="40.8344281" lon="9.669185"><ele>9.75</ele><time>2026-04-07T11:43:55.345Z</time></trkpt><trkpt lat="40.8344025" lon="9.6690018"><ele>10.0</ele><time>2026-04-07T11:43:56.345Z</time></trkpt><trkpt lat="40.8343752" lon="9.6688278"><ele>10.0</ele><time>2026-04-07T11:43:57.344Z</time></trkpt><trkpt lat="40.8343502" lon="9.6686583"><ele>10.0</ele><time>2026-04-07T11:43:58.345Z</time></trkpt><trkpt lat="40.8343267" lon="9.6685002"><ele>10.0</ele><time>2026-04-07T11:43:59.345Z</time></trkpt><trkpt lat="40.8343001" lon="9.6683465"><ele>10.0</ele><time>2026-04-07T11:44:00.344Z</time></trkpt><trkpt lat="40.8342773" lon="9.6682041"><ele>10.0</ele><time>2026-04-07T11:44:01.345Z</time></trkpt><trkpt lat="40.8342447" lon="9.668079"><ele>10.0</ele><time>2026-04-07T11:44:02.345Z</time></trkpt><trkpt lat="40.8342205" lon="9.6679669"><ele>10.0</ele><time>2026-04-07T11:44:03.344Z</time></trkpt><trkpt lat="40.8342019" lon="9.6678569"><ele>10.0</ele><time>2026-04-07T11:44:04.345Z</time></trkpt><trkpt lat="40.8341864" lon="9.6677419"><ele>10.0</ele><time>2026-04-07T11:44:05.345Z</time></trkpt><trkpt lat="40.8341698" lon="9.6676232"><ele>10.4</ele><time>2026-04-07T11:44:06.344Z</time></trkpt><trkpt lat="40.8341492" lon="9.6674941"><ele>10.8</ele><time>2026-04-07T11:44:07.345Z</time></trkpt><trkpt lat="40.834131" lon="9.6673542"><ele>11.2</ele><time>2026-04-07T11:44:08.345Z</time></trkpt><trkpt lat="40.8341264" lon="9.6672108"><ele>11.6</ele><time>2026-04-07T11:44:09.345Z</time></trkpt><trkpt lat="40.834118" lon="9.6670622"><ele>12.0</ele><time>2026-04-07T11:44:10.344Z</time></trkpt><trkpt lat="40.8341184" lon="9.6669064"><ele>12.5</ele><time>2026-04-07T11:44:11.345Z</time></trkpt><trkpt lat="40.8341205" lon="9.6667581"><ele>13.0</ele><time>2026-04-07T11:44:12.344Z</time></trkpt><trkpt lat="40.8341209" lon="9.6666099"><ele>13.5</ele><time>2026-04-07T11:44:13.345Z</time></trkpt><trkpt lat="40.8341197" lon="9.6664581"><ele>14.0</ele><time>2026-04-07T11:44:14.344Z</time></trkpt><trkpt lat="40.8341201" lon="9.6663014"><ele>14.0</ele><time>2026-04-07T11:44:15.345Z</time></trkpt><trkpt lat="40.8341213" lon="9.6661613"><ele>13.999999999999998</ele><time>2026-04-07T11:44:16.344Z</time></trkpt><trkpt lat="40.8341227" lon="9.6660285"><ele>13.999999999999998</ele><time>2026-04-07T11:44:17.345Z</time></trkpt><trkpt lat="40.8341229" lon="9.6659113"><ele>14.0</ele><time>2026-04-07T11:44:18.345Z</time></trkpt><trkpt lat="40.8341243" lon="9.6657933"><ele>14.0</ele><time>2026-04-07T11:44:19.345Z</time></trkpt><trkpt lat="40.8341274" lon="9.6656704"><ele>14.399999999999999</ele><time>2026-04-07T11:44:20.345Z</time></trkpt><trkpt lat="40.8341363" lon="9.6655385"><ele>14.799999999999999</ele><time>2026-04-07T11:44:21.344Z</time></trkpt><trkpt lat="40.8341444" lon="9.665399"><ele>15.200000000000001</ele><time>2026-04-07T11:44:22.344Z</time></trkpt><trkpt lat="40.8341609" lon="9.6652509"><ele>15.600000000000001</ele><time>2026-04-07T11:44:23.345Z</time></trkpt><trkpt lat="40.8341853" lon="9.6650978"><ele>16.0</ele><time>2026-04-07T11:44:24.345Z</time></trkpt><trkpt lat="40.8342178" lon="9.6649518"><ele>16.2</ele><time>2026-04-07T11:44:25.344Z</time></trkpt><trkpt lat="40.8342474" lon="9.6648184"><ele>16.400000000000002</ele><time>2026-04-07T11:44:26.345Z</time></trkpt><trkpt lat="40.8342864" lon="9.6646852"><ele>16.6</ele><time>2026-04-07T11:44:27.345Z</time></trkpt><trkpt lat="40.834325" lon="9.6645741"><ele>16.8</ele><time>2026-04-07T11:44:28.345Z</time></trkpt><trkpt lat="40.8343515" lon="9.6644914"><ele>17.0</ele><time>2026-04-07T11:44:29.345Z</time></trkpt><trkpt lat="40.8343851" lon="9.6643832"><ele>17.5</ele><time>2026-04-07T11:44:31.345Z</time></trkpt><trkpt lat="40.8344322" lon="9.6642928"><ele>18.0</ele><time>2026-04-07T11:44:33.345Z</time></trkpt><trkpt lat="40.8344849" lon="9.6642426"><ele>18.5</ele><time>2026-04-07T11:44:34.345Z</time></trkpt><trkpt lat="40.8345494" lon="9.6641751"><ele>19.0</ele><time>2026-04-07T11:44:35.345Z</time></trkpt><trkpt lat="40.8346206" lon="9.6640853"><ele>19.5</ele><time>2026-04-07T11:44:36.345Z</time></trkpt><trkpt lat="40.8346972" lon="9.6639762"><ele>20.0</ele><time>2026-04-07T11:44:37.344Z</time></trkpt><trkpt lat="40.8347745" lon="9.6638535"><ele>20.0</ele><time>2026-04-07T11:44:38.344Z</time></trkpt><trkpt lat="40.8348485" lon="9.663729"><ele>20.0</ele><time>2026-04-07T11:44:39.345Z</time></trkpt><trkpt lat="40.8349247" lon="9.6636052"><ele>20.0</ele><time>2026-04-07T11:44:40.345Z</time></trkpt><trkpt lat="40.8349985" lon="9.6634855"><ele>20.0</ele><time>2026-04-07T11:44:41.345Z</time></trkpt><trkpt lat="40.8350738" lon="9.6633663"><ele>20.666666666666668</ele><time>2026-04-07T11:44:42.345Z</time></trkpt><trkpt lat="40.8352248" lon="9.6631195"><ele>21.333333333333332</ele><time>2026-04-07T11:44:44.344Z</time></trkpt><trkpt lat="40.8353009" lon="9.6629941"><ele>22.0</ele><time>2026-04-07T11:44:45.344Z</time></trkpt><trkpt lat="40.8353837" lon="9.6628651"><ele>21.333333333333332</ele><time>2026-04-07T11:44:46.344Z</time></trkpt><trkpt lat="40.8354651" lon="9.6627359"><ele>20.666666666666668</ele><time>2026-04-07T11:44:47.345Z</time></trkpt><trkpt lat="40.835549" lon="9.6625985"><ele>20.0</ele><time>2026-04-07T11:44:48.345Z</time></trkpt><trkpt lat="40.8357376" lon="9.6623158"><ele>20.0</ele><time>2026-04-07T11:44:50.345Z</time></trkpt><trkpt lat="40.835835" lon="9.662166"><ele>20.0</ele><time>2026-04-07T11:44:51.344Z</time></trkpt><trkpt lat="40.8359334" lon="9.6620035"><ele>20.0</ele><time>2026-04-07T11:44:52.345Z</time></trkpt><trkpt lat="40.8360412" lon="9.6618359"><ele>19.0</ele><time>2026-04-07T11:44:53.345Z</time></trkpt><trkpt lat="40.8361524" lon="9.6616588"><ele>18.0</ele><time>2026-04-07T11:44:54.345Z</time></trkpt><trkpt lat="40.8362693" lon="9.6614699"><ele>17.0</ele><time>2026-04-07T11:44:55.344Z</time></trkpt><trkpt lat="40.8363909" lon="9.6612807"><ele>17.666666666666668</ele><time>2026-04-07T11:44:56.345Z</time></trkpt><trkpt lat="40.8365121" lon="9.6610822"><ele>18.333333333333332</ele><time>2026-04-07T11:44:57.345Z</time></trkpt><trkpt lat="40.8366304" lon="9.6608904"><ele>19.0</ele><time>2026-04-07T11:44:58.345Z</time></trkpt><trkpt lat="40.8367528" lon="9.660698"><ele>19.333333333333332</ele><time>2026-04-07T11:44:59.345Z</time></trkpt><trkpt lat="40.8368729" lon="9.6605056"><ele>19.666666666666668</ele><time>2026-04-07T11:45:00.345Z</time></trkpt><trkpt lat="40.8369964" lon="9.6603135"><ele>20.0</ele><time>2026-04-07T11:45:01.344Z</time></trkpt><trkpt lat="40.8371162" lon="9.6601188"><ele>20.0</ele><time>2026-04-07T11:45:02.345Z</time></trkpt><trkpt lat="40.8372403" lon="9.6599201"><ele>20.0</ele><time>2026-04-07T11:45:03.344Z</time></trkpt><trkpt lat="40.8373665" lon="9.6597184"><ele>20.0</ele><time>2026-04-07T11:45:04.345Z</time></trkpt><trkpt lat="40.8374944" lon="9.6595101"><ele>24.0</ele><time>2026-04-07T11:45:05.345Z</time></trkpt><trkpt lat="40.8377602" lon="9.6590791"><ele>28.0</ele><time>2026-04-07T11:45:07.345Z</time></trkpt><trkpt lat="40.8378956" lon="9.6588604"><ele>28.0</ele><time>2026-04-07T11:45:08.345Z</time></trkpt><trkpt lat="40.8380335" lon="9.6586404"><ele>28.0</ele><time>2026-04-07T11:45:09.344Z</time></trkpt><trkpt lat="40.8381742" lon="9.6584199"><ele>28.0</ele><time>2026-04-07T11:45:10.345Z</time></trkpt><trkpt lat="40.8383179" lon="9.658204"><ele>29.0</ele><time>2026-04-07T11:45:11.344Z</time></trkpt><trkpt lat="40.8384724" lon="9.6579851"><ele>30.0</ele><time>2026-04-07T11:45:12.345Z</time></trkpt><trkpt lat="40.8387763" lon="9.6575499"><ele>30.0</ele><time>2026-04-07T11:45:14.344Z</time></trkpt><trkpt lat="40.8389233" lon="9.6573502"><ele>30.0</ele><time>2026-04-07T11:45:15.345Z</time></trkpt><trkpt lat="40.8390583" lon="9.6571631"><ele>30.0</ele><time>2026-04-07T11:45:16.345Z</time></trkpt><trkpt lat="40.8391888" lon="9.6569885"><ele>31.666666666666664</ele><time>2026-04-07T11:45:17.345Z</time></trkpt><trkpt lat="40.8393163" lon="9.6568224"><ele>33.33333333333333</ele><time>2026-04-07T11:45:18.345Z</time></trkpt><trkpt lat="40.8394404" lon="9.6566529"><ele>35.0</ele><time>2026-04-07T11:45:19.344Z</time></trkpt><trkpt lat="40.8395539" lon="9.6564929"><ele>35.0</ele><time>2026-04-07T11:45:20.345Z</time></trkpt><trkpt lat="40.8396724" lon="9.6563305"><ele>35.0</ele><time>2026-04-07T11:45:21.344Z</time></trkpt><trkpt lat="40.8397901" lon="9.6561737"><ele>35.0</ele><time>2026-04-07T11:45:22.345Z</time></trkpt><trkpt lat="40.8398967" lon="9.6560203"><ele>35.666666666666664</ele><time>2026-04-07T11:45:23.344Z</time></trkpt><trkpt lat="40.8399957" lon="9.6558667"><ele>36.333333333333336</ele><time>2026-04-07T11:45:24.344Z</time></trkpt><trkpt lat="40.8400925" lon="9.6557051"><ele>37.0</ele><time>2026-04-07T11:45:25.345Z</time></trkpt><trkpt lat="40.8401826" lon="9.6555234"><ele>37.66666666666667</ele><time>2026-04-07T11:45:26.345Z</time></trkpt><trkpt lat="40.8402565" lon="9.655346"><ele>38.333333333333336</ele><time>2026-04-07T11:45:27.345Z</time></trkpt><trkpt lat="40.8403235" lon="9.6551626"><ele>39.0</ele><time>2026-04-07T11:45:28.345Z</time></trkpt><trkpt lat="40.8403846" lon="9.6549822"><ele>39.25</ele><time>2026-04-07T11:45:29.345Z</time></trkpt><trkpt lat="40.8404373" lon="9.6548104"><ele>39.5</ele><time>2026-04-07T11:45:30.345Z</time></trkpt><trkpt lat="40.8404935" lon="9.6546458"><ele>39.75</ele><time>2026-04-07T11:45:31.345Z</time></trkpt><trkpt lat="40.8405432" lon="9.6544839"><ele>40.0</ele><time>2026-04-07T11:45:32.345Z</time></trkpt><trkpt lat="40.8405986" lon="9.6543256"><ele>41.0</ele><time>2026-04-07T11:45:33.345Z</time></trkpt><trkpt lat="40.8406496" lon="9.654166"><ele>42.0</ele><time>2026-04-07T11:45:34.345Z</time></trkpt><trkpt lat="40.8407038" lon="9.6540091"><ele>43.0</ele><time>2026-04-07T11:45:35.345Z</time></trkpt><trkpt lat="40.8407642" lon="9.6538569"><ele>44.0</ele><time>2026-04-07T11:45:36.345Z</time></trkpt><trkpt lat="40.8408333" lon="9.6537067"><ele>44.25</ele><time>2026-04-07T11:45:37.345Z</time></trkpt><trkpt lat="40.8409145" lon="9.6535602"><ele>44.5</ele><time>2026-04-07T11:45:38.345Z</time></trkpt><trkpt lat="40.8410024" lon="9.6534112"><ele>44.75</ele><time>2026-04-07T11:45:39.345Z</time></trkpt><trkpt lat="40.8410936" lon="9.6532609"><ele>45.0</ele><time>2026-04-07T11:45:40.345Z</time></trkpt><trkpt lat="40.8411875" lon="9.6531076"><ele>45.333333333333336</ele><time>2026-04-07T11:45:41.344Z</time></trkpt><trkpt lat="40.8412939" lon="9.6529566"><ele>45.66666666666667</ele><time>2026-04-07T11:45:42.345Z</time></trkpt><trkpt lat="40.8414024" lon="9.652797"><ele>46.0</ele><time>2026-04-07T11:45:43.345Z</time></trkpt><trkpt lat="40.8415142" lon="9.6526535"><ele>45.5</ele><time>2026-04-07T11:45:44.345Z</time></trkpt><trkpt lat="40.8416182" lon="9.6525132"><ele>45.0</ele><time>2026-04-07T11:45:45.344Z</time></trkpt><trkpt lat="40.8417383" lon="9.6524454"><ele>44.5</ele><time>2026-04-07T11:45:46.344Z</time></trkpt><trkpt lat="40.8418261" lon="9.6523527"><ele>44.0</ele><time>2026-04-07T11:45:47.344Z</time></trkpt><trkpt lat="40.8419029" lon="9.6522473"><ele>42.25</ele><time>2026-04-07T11:45:48.345Z</time></trkpt><trkpt lat="40.8419657" lon="9.6521297"><ele>40.5</ele><time>2026-04-07T11:45:49.344Z</time></trkpt><trkpt lat="40.8420101" lon="9.6519862"><ele>38.75</ele><time>2026-04-07T11:45:50.345Z</time></trkpt><trkpt lat="40.8420174" lon="9.651826"><ele>37.0</ele><time>2026-04-07T11:45:51.345Z</time></trkpt><trkpt lat="40.842024" lon="9.6516583"><ele>35.0</ele><time>2026-04-07T11:45:52.345Z</time></trkpt><trkpt lat="40.8420283" lon="9.6514941"><ele>33.0</ele><time>2026-04-07T11:45:53.345Z</time></trkpt><trkpt lat="40.8420488" lon="9.6513347"><ele>31.0</ele><time>2026-04-07T11:45:54.345Z</time></trkpt><trkpt lat="40.8420776" lon="9.6511675"><ele>29.0</ele><time>2026-04-07T11:45:55.345Z</time></trkpt><trkpt lat="40.8421151" lon="9.6509927"><ele>27.5</ele><time>2026-04-07T11:45:56.345Z</time></trkpt><trkpt lat="40.8421392" lon="9.6508039"><ele>26.0</ele><time>2026-04-07T11:45:57.344Z</time></trkpt><trkpt lat="40.8421325" lon="9.6506026"><ele>24.5</ele><time>2026-04-07T11:45:58.345Z</time></trkpt><trkpt lat="40.842115" lon="9.6504119"><ele>23.0</ele><time>2026-04-07T11:45:59.345Z</time></trkpt><trkpt lat="40.8420829" lon="9.6502248"><ele>22.25</ele><time>2026-04-07T11:46:00.344Z</time></trkpt><trkpt lat="40.8420439" lon="9.6500532"><ele>21.5</ele><time>2026-04-07T11:46:01.344Z</time></trkpt><trkpt lat="40.8420089" lon="9.6498871"><ele>20.75</ele><time>2026-04-07T11:46:02.344Z</time></trkpt><trkpt lat="40.8419969" lon="9.6497321"><ele>20.0</ele><time>2026-04-07T11:46:03.345Z</time></trkpt><trkpt lat="40.8420146" lon="9.6495836"><ele>20.0</ele><time>2026-04-07T11:46:04.345Z</time></trkpt><trkpt lat="40.8420671" lon="9.649457"><ele>20.0</ele><time>2026-04-07T11:46:05.344Z</time></trkpt><trkpt lat="40.8421611" lon="9.6493565"><ele>20.0</ele><time>2026-04-07T11:46:06.344Z</time></trkpt><trkpt lat="40.8422816" lon="9.6492794"><ele>20.0</ele><time>2026-04-07T11:46:07.344Z</time></trkpt><trkpt lat="40.8424008" lon="9.6492093"><ele>20.0</ele><time>2026-04-07T11:46:08.344Z</time></trkpt><trkpt lat="40.8425278" lon="9.6491315"><ele>20.0</ele><time>2026-04-07T11:46:09.345Z</time></trkpt><trkpt lat="40.8426563" lon="9.6490536"><ele>20.0</ele><time>2026-04-07T11:46:10.344Z</time></trkpt><trkpt lat="40.8427917" lon="9.6489756"><ele>20.0</ele><time>2026-04-07T11:46:11.345Z</time></trkpt><trkpt lat="40.8429321" lon="9.6489004"><ele>18.333333333333336</ele><time>2026-04-07T11:46:12.344Z</time></trkpt><trkpt lat="40.8430739" lon="9.6488299"><ele>16.666666666666668</ele><time>2026-04-07T11:46:13.345Z</time></trkpt><trkpt lat="40.843221" lon="9.6487629"><ele>15.0</ele><time>2026-04-07T11:46:14.345Z</time></trkpt><trkpt lat="40.8433701" lon="9.6487019"><ele>14.333333333333332</ele><time>2026-04-07T11:46:15.345Z</time></trkpt><trkpt lat="40.8435219" lon="9.6486451"><ele>13.666666666666666</ele><time>2026-04-07T11:46:16.345Z</time></trkpt><trkpt lat="40.8436803" lon="9.6485915"><ele>13.0</ele><time>2026-04-07T11:46:17.345Z</time></trkpt><trkpt lat="40.8438356" lon="9.6485462"><ele>13.0</ele><time>2026-04-07T11:46:18.345Z</time></trkpt><trkpt lat="40.8440007" lon="9.6484971"><ele>13.0</ele><time>2026-04-07T11:46:19.345Z</time></trkpt><trkpt lat="40.8441661" lon="9.6484499"><ele>13.0</ele><time>2026-04-07T11:46:20.345Z</time></trkpt><trkpt lat="40.8443323" lon="9.6484007"><ele>13.0</ele><time>2026-04-07T11:46:21.345Z</time></trkpt><trkpt lat="40.8445032" lon="9.6483594"><ele>13.0</ele><time>2026-04-07T11:46:22.345Z</time></trkpt><trkpt lat="40.8446785" lon="9.6483112"><ele>13.0</ele><time>2026-04-07T11:46:23.344Z</time></trkpt><trkpt lat="40.8448523" lon="9.6482636"><ele>13.0</ele><time>2026-04-07T11:46:24.345Z</time></trkpt><trkpt lat="40.845031" lon="9.6482159"><ele>13.0</ele><time>2026-04-07T11:46:25.345Z</time></trkpt><trkpt lat="40.8452065" lon="9.6481718"><ele>13.0</ele><time>2026-04-07T11:46:26.344Z</time></trkpt><trkpt lat="40.8453816" lon="9.64812"><ele>12.333333333333332</ele><time>2026-04-07T11:46:27.345Z</time></trkpt><trkpt lat="40.8455618" lon="9.6480622"><ele>11.666666666666666</ele><time>2026-04-07T11:46:28.345Z</time></trkpt><trkpt lat="40.8457424" lon="9.6480048"><ele>11.0</ele><time>2026-04-07T11:46:29.345Z</time></trkpt><trkpt lat="40.8459283" lon="9.6479514"><ele>10.333333333333332</ele><time>2026-04-07T11:46:30.344Z</time></trkpt><trkpt lat="40.8461098" lon="9.6479027"><ele>9.666666666666666</ele><time>2026-04-07T11:46:31.345Z</time></trkpt><trkpt lat="40.8462863" lon="9.6478554"><ele>9.0</ele><time>2026-04-07T11:46:32.345Z</time></trkpt><trkpt lat="40.8464544" lon="9.6478094"><ele>9.333333333333334</ele><time>2026-04-07T11:46:33.345Z</time></trkpt><trkpt lat="40.8466205" lon="9.6477604"><ele>9.666666666666668</ele><time>2026-04-07T11:46:34.344Z</time></trkpt><trkpt lat="40.8467764" lon="9.6477182"><ele>10.0</ele><time>2026-04-07T11:46:35.345Z</time></trkpt><trkpt lat="40.8469348" lon="9.6476761"><ele>10.0</ele><time>2026-04-07T11:46:36.345Z</time></trkpt><trkpt lat="40.8470935" lon="9.6476273"><ele>10.0</ele><time>2026-04-07T11:46:37.345Z</time></trkpt><trkpt lat="40.847258" lon="9.6475794"><ele>10.0</ele><time>2026-04-07T11:46:38.345Z</time></trkpt><trkpt lat="40.8474263" lon="9.6475312"><ele>10.0</ele><time>2026-04-07T11:46:39.345Z</time></trkpt><trkpt lat="40.847593" lon="9.6474854"><ele>10.0</ele><time>2026-04-07T11:46:40.344Z</time></trkpt><trkpt lat="40.8477658" lon="9.647434"><ele>10.0</ele><time>2026-04-07T11:46:41.344Z</time></trkpt><trkpt lat="40.8479409" lon="9.6473833"><ele>9.333333333333334</ele><time>2026-04-07T11:46:42.345Z</time></trkpt><trkpt lat="40.8481216" lon="9.6473354"><ele>8.666666666666666</ele><time>2026-04-07T11:46:43.345Z</time></trkpt><trkpt lat="40.8483077" lon="9.6472824"><ele>8.0</ele><time>2026-04-07T11:46:44.345Z</time></trkpt><trkpt lat="40.8484934" lon="9.6472286"><ele>7.0</ele><time>2026-04-07T11:46:45.344Z</time></trkpt><trkpt lat="40.8486737" lon="9.6471764"><ele>6.0</ele><time>2026-04-07T11:46:46.345Z</time></trkpt><trkpt lat="40.8488568" lon="9.647123"><ele>5.0</ele><time>2026-04-07T11:46:47.344Z</time></trkpt><trkpt lat="40.8490366" lon="9.647068"><ele>5.0</ele><time>2026-04-07T11:46:48.345Z</time></trkpt><trkpt lat="40.8492153" lon="9.6470156"><ele>5.0</ele><time>2026-04-07T11:46:49.344Z</time></trkpt><trkpt lat="40.8493963" lon="9.6469652"><ele>5.0</ele><time>2026-04-07T11:46:50.345Z</time></trkpt><trkpt lat="40.8495719" lon="9.6469196"><ele>4.666666666666667</ele><time>2026-04-07T11:46:51.345Z</time></trkpt><trkpt lat="40.8497413" lon="9.6468714"><ele>4.333333333333333</ele><time>2026-04-07T11:46:52.345Z</time></trkpt><trkpt lat="40.8499158" lon="9.6468196"><ele>4.0</ele><time>2026-04-07T11:46:53.345Z</time></trkpt><trkpt lat="40.8500883" lon="9.6467668"><ele>5.333333333333333</ele><time>2026-04-07T11:46:54.345Z</time></trkpt><trkpt lat="40.8502623" lon="9.6467134"><ele>6.666666666666666</ele><time>2026-04-07T11:46:55.344Z</time></trkpt><trkpt lat="40.8504418" lon="9.6466634"><ele>8.0</ele><time>2026-04-07T11:46:56.345Z</time></trkpt><trkpt lat="40.8506189" lon="9.6466165"><ele>8.0</ele><time>2026-04-07T11:46:57.344Z</time></trkpt><trkpt lat="40.8508006" lon="9.646566"><ele>8.0</ele><time>2026-04-07T11:46:58.345Z</time></trkpt><trkpt lat="40.8509848" lon="9.6465149"><ele>8.0</ele><time>2026-04-07T11:46:59.345Z</time></trkpt><trkpt lat="40.8511714" lon="9.6464574"><ele>7.666666666666666</ele><time>2026-04-07T11:47:00.345Z</time></trkpt><trkpt lat="40.8513579" lon="9.6464007"><ele>7.333333333333334</ele><time>2026-04-07T11:47:01.345Z</time></trkpt><trkpt lat="40.8515464" lon="9.6463468"><ele>7.0</ele><time>2026-04-07T11:47:02.345Z</time></trkpt><trkpt lat="40.8517412" lon="9.646295"><ele>6.666666666666667</ele><time>2026-04-07T11:47:03.345Z</time></trkpt><trkpt lat="40.8519385" lon="9.6462474"><ele>6.333333333333334</ele><time>2026-04-07T11:47:04.344Z</time></trkpt><trkpt lat="40.8521356" lon="9.6461951"><ele>6.0</ele><time>2026-04-07T11:47:05.344Z</time></trkpt><trkpt lat="40.852327" lon="9.6461405"><ele>6.5</ele><time>2026-04-07T11:47:06.344Z</time></trkpt><trkpt lat="40.8525157" lon="9.6460844"><ele>7.0</ele><time>2026-04-07T11:47:07.344Z</time></trkpt><trkpt lat="40.8528833" lon="9.6459821"><ele>7.666666666666667</ele><time>2026-04-07T11:47:09.345Z</time></trkpt><trkpt lat="40.8530683" lon="9.6459275"><ele>8.333333333333334</ele><time>2026-04-07T11:47:10.345Z</time></trkpt><trkpt lat="40.8532524" lon="9.6458738"><ele>9.0</ele><time>2026-04-07T11:47:11.344Z</time></trkpt><trkpt lat="40.8534383" lon="9.6457989"><ele>8.333333333333334</ele><time>2026-04-07T11:47:12.345Z</time></trkpt><trkpt lat="40.8536181" lon="9.6456997"><ele>7.666666666666667</ele><time>2026-04-07T11:47:13.345Z</time></trkpt><trkpt lat="40.8537951" lon="9.6455903"><ele>7.0</ele><time>2026-04-07T11:47:14.345Z</time></trkpt><trkpt lat="40.8539786" lon="9.6454816"><ele>7.0</ele><time>2026-04-07T11:47:15.345Z</time></trkpt><trkpt lat="40.8541662" lon="9.6453656"><ele>7.0</ele><time>2026-04-07T11:47:16.345Z</time></trkpt><trkpt lat="40.8543548" lon="9.6452487"><ele>7.0</ele><time>2026-04-07T11:47:17.345Z</time></trkpt><trkpt lat="40.8545433" lon="9.645128"><ele>7.0</ele><time>2026-04-07T11:47:18.345Z</time></trkpt><trkpt lat="40.854732" lon="9.6450145"><ele>7.0</ele><time>2026-04-07T11:47:19.345Z</time></trkpt><trkpt lat="40.8549135" lon="9.644904"><ele>7.0</ele><time>2026-04-07T11:47:20.344Z</time></trkpt><trkpt lat="40.8550944" lon="9.6447905"><ele>6.666666666666667</ele><time>2026-04-07T11:47:21.345Z</time></trkpt><trkpt lat="40.8552679" lon="9.6446843"><ele>6.333333333333334</ele><time>2026-04-07T11:47:22.345Z</time></trkpt><trkpt lat="40.8554345" lon="9.6445789"><ele>6.0</ele><time>2026-04-07T11:47:23.344Z</time></trkpt><trkpt lat="40.8555954" lon="9.6444864"><ele>6.666666666666666</ele><time>2026-04-07T11:47:24.345Z</time></trkpt><trkpt lat="40.8557542" lon="9.644382"><ele>7.333333333333333</ele><time>2026-04-07T11:47:25.344Z</time></trkpt><trkpt lat="40.8559113" lon="9.6442916"><ele>8.0</ele><time>2026-04-07T11:47:26.345Z</time></trkpt><trkpt lat="40.8560637" lon="9.6441996"><ele>8.0</ele><time>2026-04-07T11:47:27.345Z</time></trkpt><trkpt lat="40.856206" lon="9.6441085"><ele>8.0</ele><time>2026-04-07T11:47:28.345Z</time></trkpt><trkpt lat="40.8563366" lon="9.6440266"><ele>8.0</ele><time>2026-04-07T11:47:29.344Z</time></trkpt><trkpt lat="40.8564592" lon="9.6439541"><ele>8.0</ele><time>2026-04-07T11:47:30.344Z</time></trkpt><trkpt lat="40.8565778" lon="9.6438961"><ele>8.0</ele><time>2026-04-07T11:47:31.344Z</time></trkpt><trkpt lat="40.8566802" lon="9.6438388"><ele>8.0</ele><time>2026-04-07T11:47:32.345Z</time></trkpt><trkpt lat="40.8567777" lon="9.6438007"><ele>8.0</ele><time>2026-04-07T11:47:33.345Z</time></trkpt><trkpt lat="40.8568679" lon="9.6438116"><ele>8.0</ele><time>2026-04-07T11:47:34.345Z</time></trkpt><trkpt lat="40.8569546" lon="9.6438308"><ele>8.0</ele><time>2026-04-07T11:47:35.344Z</time></trkpt><trkpt lat="40.8570388" lon="9.6438338"><ele>8.0</ele><time>2026-04-07T11:47:36.345Z</time></trkpt><trkpt lat="40.8571061" lon="9.6437949"><ele>8.0</ele><time>2026-04-07T11:47:37.345Z</time></trkpt><trkpt lat="40.8571645" lon="9.643725"><ele>8.0</ele><time>2026-04-07T11:47:38.345Z</time></trkpt><trkpt lat="40.8572784" lon="9.6435338"><ele>8.0</ele><time>2026-04-07T11:47:40.345Z</time></trkpt><trkpt lat="40.8573642" lon="9.6434397"><ele>8.0</ele><time>2026-04-07T11:47:41.344Z</time></trkpt><trkpt lat="40.8575979" lon="9.6432765"><ele>9.0</ele><time>2026-04-07T11:47:43.345Z</time></trkpt><trkpt lat="40.8577185" lon="9.6431973"><ele>10.0</ele><time>2026-04-07T11:47:44.345Z</time></trkpt><trkpt lat="40.8578462" lon="9.6431159"><ele>11.0</ele><time>2026-04-07T11:47:45.345Z</time></trkpt><trkpt lat="40.8579604" lon="9.643044"><ele>12.0</ele><time>2026-04-07T11:47:46.345Z</time></trkpt><trkpt lat="40.8580634" lon="9.6429804"><ele>12.0</ele><time>2026-04-07T11:47:47.345Z</time></trkpt><trkpt lat="40.8583817" lon="9.6428002"><ele>12.0</ele><time>2026-04-07T11:47:50.345Z</time></trkpt><trkpt lat="40.8585028" lon="9.6427246"><ele>13.0</ele><time>2026-04-07T11:47:51.345Z</time></trkpt><trkpt lat="40.858635" lon="9.6426488"><ele>14.0</ele><time>2026-04-07T11:47:52.344Z</time></trkpt><trkpt lat="40.8587739" lon="9.6425696"><ele>15.0</ele><time>2026-04-07T11:47:53.345Z</time></trkpt><trkpt lat="40.858921" lon="9.6425027"><ele>15.0</ele><time>2026-04-07T11:47:54.344Z</time></trkpt><trkpt lat="40.8590784" lon="9.6424458"><ele>15.0</ele><time>2026-04-07T11:47:55.345Z</time></trkpt><trkpt lat="40.8592427" lon="9.6424005"><ele>15.0</ele><time>2026-04-07T11:47:56.345Z</time></trkpt><trkpt lat="40.8594092" lon="9.6423671"><ele>15.333333333333332</ele><time>2026-04-07T11:47:57.345Z</time></trkpt><trkpt lat="40.8595789" lon="9.6423357"><ele>15.666666666666666</ele><time>2026-04-07T11:47:58.344Z</time></trkpt><trkpt lat="40.8597458" lon="9.6423086"><ele>16.0</ele><time>2026-04-07T11:47:59.344Z</time></trkpt><trkpt lat="40.8599116" lon="9.6422817"><ele>16.0</ele><time>2026-04-07T11:48:00.345Z</time></trkpt><trkpt lat="40.8600796" lon="9.6422529"><ele>16.0</ele><time>2026-04-07T11:48:01.344Z</time></trkpt><trkpt lat="40.8602451" lon="9.6422255"><ele>16.0</ele><time>2026-04-07T11:48:02.345Z</time></trkpt><trkpt lat="40.8604062" lon="9.6421959"><ele>16.25</ele><time>2026-04-07T11:48:03.345Z</time></trkpt><trkpt lat="40.860551" lon="9.6421716"><ele>16.5</ele><time>2026-04-07T11:48:04.345Z</time></trkpt><trkpt lat="40.8606973" lon="9.6421469"><ele>16.75</ele><time>2026-04-07T11:48:05.345Z</time></trkpt><trkpt lat="40.8608412" lon="9.6421249"><ele>17.0</ele><time>2026-04-07T11:48:06.344Z</time></trkpt><trkpt lat="40.8609887" lon="9.6421011"><ele>17.75</ele><time>2026-04-07T11:48:07.345Z</time></trkpt><trkpt lat="40.8611293" lon="9.6420747"><ele>18.5</ele><time>2026-04-07T11:48:08.344Z</time></trkpt><trkpt lat="40.8612703" lon="9.642046"><ele>19.25</ele><time>2026-04-07T11:48:09.345Z</time></trkpt><trkpt lat="40.8614164" lon="9.6420135"><ele>20.0</ele><time>2026-04-07T11:48:10.345Z</time></trkpt><trkpt lat="40.8615662" lon="9.6419771"><ele>21.666666666666668</ele><time>2026-04-07T11:48:11.345Z</time></trkpt><trkpt lat="40.861717" lon="9.6419347"><ele>23.333333333333336</ele><time>2026-04-07T11:48:12.345Z</time></trkpt><trkpt lat="40.861862" lon="9.6418805"><ele>25.0</ele><time>2026-04-07T11:48:13.345Z</time></trkpt><trkpt lat="40.8620058" lon="9.6418255"><ele>25.0</ele><time>2026-04-07T11:48:14.345Z</time></trkpt><trkpt lat="40.8621559" lon="9.6417709"><ele>25.0</ele><time>2026-04-07T11:48:15.345Z</time></trkpt><trkpt lat="40.8623075" lon="9.6417161"><ele>25.0</ele><time>2026-04-07T11:48:16.345Z</time></trkpt><trkpt lat="40.8624614" lon="9.6416581"><ele>23.333333333333336</ele><time>2026-04-07T11:48:17.345Z</time></trkpt><trkpt lat="40.8626179" lon="9.6415959"><ele>21.666666666666668</ele><time>2026-04-07T11:48:18.345Z</time></trkpt><trkpt lat="40.862781" lon="9.6415356"><ele>20.0</ele><time>2026-04-07T11:48:19.345Z</time></trkpt><trkpt lat="40.8629349" lon="9.6414811"><ele>20.0</ele><time>2026-04-07T11:48:20.345Z</time></trkpt><trkpt lat="40.8630829" lon="9.6414308"><ele>20.0</ele><time>2026-04-07T11:48:21.345Z</time></trkpt><trkpt lat="40.8632262" lon="9.6413836"><ele>20.0</ele><time>2026-04-07T11:48:22.344Z</time></trkpt><trkpt lat="40.8633676" lon="9.6413549"><ele>20.0</ele><time>2026-04-07T11:48:23.345Z</time></trkpt><trkpt lat="40.8635107" lon="9.6413406"><ele>19.0</ele><time>2026-04-07T11:48:24.345Z</time></trkpt><trkpt lat="40.8636545" lon="9.641339"><ele>18.0</ele><time>2026-04-07T11:48:25.345Z</time></trkpt><trkpt lat="40.8638056" lon="9.6413513"><ele>17.0</ele><time>2026-04-07T11:48:26.345Z</time></trkpt><trkpt lat="40.8639631" lon="9.6413678"><ele>17.0</ele><time>2026-04-07T11:48:27.344Z</time></trkpt><trkpt lat="40.8641226" lon="9.6413899"><ele>17.0</ele><time>2026-04-07T11:48:28.345Z</time></trkpt><trkpt lat="40.8642702" lon="9.6414076"><ele>17.0</ele><time>2026-04-07T11:48:29.345Z</time></trkpt><trkpt lat="40.8644138" lon="9.6414183"><ele>16.75</ele><time>2026-04-07T11:48:30.345Z</time></trkpt><trkpt lat="40.8645609" lon="9.6414298"><ele>16.5</ele><time>2026-04-07T11:48:31.345Z</time></trkpt><trkpt lat="40.8647057" lon="9.6414436"><ele>16.25</ele><time>2026-04-07T11:48:32.345Z</time></trkpt><trkpt lat="40.8648494" lon="9.6414527"><ele>16.0</ele><time>2026-04-07T11:48:33.345Z</time></trkpt><trkpt lat="40.8649953" lon="9.6414686"><ele>14.666666666666666</ele><time>2026-04-07T11:48:34.345Z</time></trkpt><trkpt lat="40.8651482" lon="9.6414909"><ele>13.333333333333332</ele><time>2026-04-07T11:48:35.344Z</time></trkpt><trkpt lat="40.8653058" lon="9.6415198"><ele>12.0</ele><time>2026-04-07T11:48:36.344Z</time></trkpt><trkpt lat="40.8654698" lon="9.641539"><ele>12.0</ele><time>2026-04-07T11:48:37.345Z</time></trkpt><trkpt lat="40.8656315" lon="9.6415572"><ele>12.0</ele><time>2026-04-07T11:48:38.344Z</time></trkpt><trkpt lat="40.8657854" lon="9.6415704"><ele>12.0</ele><time>2026-04-07T11:48:39.345Z</time></trkpt><trkpt lat="40.8659267" lon="9.6415863"><ele>12.0</ele><time>2026-04-07T11:48:40.345Z</time></trkpt><trkpt lat="40.8660675" lon="9.6416011"><ele>12.0</ele><time>2026-04-07T11:48:41.345Z</time></trkpt><trkpt lat="40.8662128" lon="9.641613"><ele>12.0</ele><time>2026-04-07T11:48:42.345Z</time></trkpt><trkpt lat="40.8663673" lon="9.6416123"><ele>12.0</ele><time>2026-04-07T11:48:43.345Z</time></trkpt><trkpt lat="40.8665227" lon="9.6415895"><ele>12.0</ele><time>2026-04-07T11:48:44.345Z</time></trkpt><trkpt lat="40.866679" lon="9.641539"><ele>12.0</ele><time>2026-04-07T11:48:45.344Z</time></trkpt><trkpt lat="40.8668373" lon="9.6414746"><ele>12.0</ele><time>2026-04-07T11:48:46.345Z</time></trkpt><trkpt lat="40.8670002" lon="9.6414052"><ele>11.0</ele><time>2026-04-07T11:48:47.345Z</time></trkpt><trkpt lat="40.8671656" lon="9.6413352"><ele>10.0</ele><time>2026-04-07T11:48:48.345Z</time></trkpt><trkpt lat="40.8673296" lon="9.6412735"><ele>9.0</ele><time>2026-04-07T11:48:49.344Z</time></trkpt><trkpt lat="40.8674997" lon="9.6412122"><ele>8.666666666666666</ele><time>2026-04-07T11:48:50.345Z</time></trkpt><trkpt lat="40.8676592" lon="9.6411513"><ele>8.333333333333332</ele><time>2026-04-07T11:48:51.344Z</time></trkpt><trkpt lat="40.8678121" lon="9.6411007"><ele>8.0</ele><time>2026-04-07T11:48:52.344Z</time></trkpt><trkpt lat="40.867959" lon="9.6410459"><ele>8.0</ele><time>2026-04-07T11:48:53.345Z</time></trkpt><trkpt lat="40.868104" lon="9.6409899"><ele>8.0</ele><time>2026-04-07T11:48:54.344Z</time></trkpt><trkpt lat="40.8682456" lon="9.6409333"><ele>8.0</ele><time>2026-04-07T11:48:55.345Z</time></trkpt><trkpt lat="40.8683879" lon="9.6408671"><ele>7.0</ele><time>2026-04-07T11:48:56.345Z</time></trkpt><trkpt lat="40.8685273" lon="9.6407737"><ele>6.0</ele><time>2026-04-07T11:48:57.345Z</time></trkpt><trkpt lat="40.8686661" lon="9.6406754"><ele>5.0</ele><time>2026-04-07T11:48:58.345Z</time></trkpt><trkpt lat="40.8688052" lon="9.6405601"><ele>5.0</ele><time>2026-04-07T11:48:59.345Z</time></trkpt><trkpt lat="40.8689372" lon="9.6404455"><ele>5.0</ele><time>2026-04-07T11:49:00.344Z</time></trkpt><trkpt lat="40.8690633" lon="9.6403351"><ele>5.0</ele><time>2026-04-07T11:49:01.344Z</time></trkpt><trkpt lat="40.8691907" lon="9.6402223"><ele>5.0</ele><time>2026-04-07T11:49:02.345Z</time></trkpt><trkpt lat="40.8693199" lon="9.6401053"><ele>5.0</ele><time>2026-04-07T11:49:03.345Z</time></trkpt><trkpt lat="40.8694494" lon="9.6399863"><ele>5.0</ele><time>2026-04-07T11:49:04.345Z</time></trkpt><trkpt lat="40.8695807" lon="9.6398686"><ele>5.0</ele><time>2026-04-07T11:49:05.344Z</time></trkpt><trkpt lat="40.8697123" lon="9.6397486"><ele>5.0</ele><time>2026-04-07T11:49:06.344Z</time></trkpt><trkpt lat="40.8698414" lon="9.6396324"><ele>5.0</ele><time>2026-04-07T11:49:07.345Z</time></trkpt><trkpt lat="40.8699696" lon="9.6395141"><ele>5.666666666666667</ele><time>2026-04-07T11:49:08.345Z</time></trkpt><trkpt lat="40.8700818" lon="9.6393679"><ele>6.333333333333334</ele><time>2026-04-07T11:49:09.345Z</time></trkpt><trkpt lat="40.8701634" lon="9.6391789"><ele>7.0</ele><time>2026-04-07T11:49:10.345Z</time></trkpt><trkpt lat="40.8702195" lon="9.6389401"><ele>7.0</ele><time>2026-04-07T11:49:11.345Z</time></trkpt><trkpt lat="40.8702771" lon="9.6386608"><ele>7.0</ele><time>2026-04-07T11:49:12.345Z</time></trkpt><trkpt lat="40.8703389" lon="9.6383491"><ele>7.5</ele><time>2026-04-07T11:49:13.344Z</time></trkpt><trkpt lat="40.8704078" lon="9.6380049"><ele>8.0</ele><time>2026-04-07T11:49:14.345Z</time></trkpt><trkpt lat="40.8704874" lon="9.6376375"><ele>9.0</ele><time>2026-04-07T11:49:15.344Z</time></trkpt><trkpt lat="40.8705727" lon="9.6372775"><ele>10.0</ele><time>2026-04-07T11:49:16.345Z</time></trkpt><trkpt lat="40.8706545" lon="9.6369449"><ele>10.0</ele><time>2026-04-07T11:49:17.345Z</time></trkpt><trkpt lat="40.8707349" lon="9.6366239"><ele>10.0</ele><time>2026-04-07T11:49:18.345Z</time></trkpt><trkpt lat="40.8708129" lon="9.6363156"><ele>10.5</ele><time>2026-04-07T11:49:19.345Z</time></trkpt><trkpt lat="40.8708934" lon="9.6360073"><ele>11.0</ele><time>2026-04-07T11:49:20.345Z</time></trkpt><trkpt lat="40.8709741" lon="9.6357072"><ele>11.0</ele><time>2026-04-07T11:49:21.345Z</time></trkpt><trkpt lat="40.8710447" lon="9.6354303"><ele>11.0</ele><time>2026-04-07T11:49:22.345Z</time></trkpt><trkpt lat="40.8711135" lon="9.6351613"><ele>11.0</ele><time>2026-04-07T11:49:23.345Z</time></trkpt><trkpt lat="40.8711883" lon="9.6349035"><ele>11.0</ele><time>2026-04-07T11:49:24.345Z</time></trkpt><trkpt lat="40.8712687" lon="9.6346509"><ele>11.0</ele><time>2026-04-07T11:49:25.344Z</time></trkpt><trkpt lat="40.8713634" lon="9.6343974"><ele>11.0</ele><time>2026-04-07T11:49:26.345Z</time></trkpt><trkpt lat="40.8714639" lon="9.634146"><ele>11.0</ele><time>2026-04-07T11:49:27.345Z</time></trkpt><trkpt lat="40.8715672" lon="9.6338947"><ele>11.0</ele><time>2026-04-07T11:49:28.344Z</time></trkpt><trkpt lat="40.8716742" lon="9.6336388"><ele>11.0</ele><time>2026-04-07T11:49:29.345Z</time></trkpt><trkpt lat="40.871781" lon="9.6333841"><ele>11.0</ele><time>2026-04-07T11:49:30.345Z</time></trkpt><trkpt lat="40.8718837" lon="9.6331323"><ele>11.0</ele><time>2026-04-07T11:49:31.345Z</time></trkpt><trkpt lat="40.8719864" lon="9.6328829"><ele>11.0</ele><time>2026-04-07T11:49:32.345Z</time></trkpt><trkpt lat="40.8720884" lon="9.6326489"><ele>11.0</ele><time>2026-04-07T11:49:33.345Z</time></trkpt><trkpt lat="40.8721928" lon="9.6324362"><ele>11.0</ele><time>2026-04-07T11:49:34.344Z</time></trkpt><trkpt lat="40.8722934" lon="9.6322369"><ele>11.0</ele><time>2026-04-07T11:49:35.344Z</time></trkpt><trkpt lat="40.8723859" lon="9.6320432"><ele>11.333333333333332</ele><time>2026-04-07T11:49:36.344Z</time></trkpt><trkpt lat="40.8724813" lon="9.6318557"><ele>11.666666666666666</ele><time>2026-04-07T11:49:37.345Z</time></trkpt><trkpt lat="40.8725842" lon="9.6316792"><ele>12.0</ele><time>2026-04-07T11:49:38.345Z</time></trkpt><trkpt lat="40.8726916" lon="9.6315229"><ele>12.0</ele><time>2026-04-07T11:49:39.344Z</time></trkpt><trkpt lat="40.8728073" lon="9.6313965"><ele>12.0</ele><time>2026-04-07T11:49:40.345Z</time></trkpt><trkpt lat="40.8729191" lon="9.6312852"><ele>12.0</ele><time>2026-04-07T11:49:41.345Z</time></trkpt><trkpt lat="40.8730259" lon="9.6311784"><ele>12.0</ele><time>2026-04-07T11:49:42.344Z</time></trkpt><trkpt lat="40.873134" lon="9.6310742"><ele>11.75</ele><time>2026-04-07T11:49:43.345Z</time></trkpt><trkpt lat="40.8732496" lon="9.630968"><ele>11.5</ele><time>2026-04-07T11:49:44.345Z</time></trkpt><trkpt lat="40.8733715" lon="9.6308574"><ele>11.25</ele><time>2026-04-07T11:49:45.344Z</time></trkpt><trkpt lat="40.8734928" lon="9.6307472"><ele>11.0</ele><time>2026-04-07T11:49:46.344Z</time></trkpt><trkpt lat="40.8736141" lon="9.6306368"><ele>11.0</ele><time>2026-04-07T11:49:47.345Z</time></trkpt><trkpt lat="40.8737357" lon="9.6305204"><ele>11.0</ele><time>2026-04-07T11:49:48.345Z</time></trkpt><trkpt lat="40.8738578" lon="9.6304076"><ele>11.0</ele><time>2026-04-07T11:49:49.344Z</time></trkpt><trkpt lat="40.8739739" lon="9.6303037"><ele>11.0</ele><time>2026-04-07T11:49:50.344Z</time></trkpt><trkpt lat="40.8740913" lon="9.6301966"><ele>11.0</ele><time>2026-04-07T11:49:51.345Z</time></trkpt><trkpt lat="40.874205" lon="9.6300909"><ele>11.0</ele><time>2026-04-07T11:49:52.345Z</time></trkpt><trkpt lat="40.8743197" lon="9.6299868"><ele>11.0</ele><time>2026-04-07T11:49:53.345Z</time></trkpt><trkpt lat="40.8744432" lon="9.6298775"><ele>11.0</ele><time>2026-04-07T11:49:54.345Z</time></trkpt><trkpt lat="40.8745682" lon="9.6297707"><ele>11.0</ele><time>2026-04-07T11:49:55.345Z</time></trkpt><trkpt lat="40.8746919" lon="9.6296669"><ele>11.0</ele><time>2026-04-07T11:49:56.344Z</time></trkpt><trkpt lat="40.8748111" lon="9.6295593"><ele>11.0</ele><time>2026-04-07T11:49:57.345Z</time></trkpt><trkpt lat="40.8749205" lon="9.6294605"><ele>11.0</ele><time>2026-04-07T11:49:58.345Z</time></trkpt><trkpt lat="40.8750151" lon="9.629376"><ele>11.166666666666666</ele><time>2026-04-07T11:49:59.345Z</time></trkpt><trkpt lat="40.8750983" lon="9.6293017"><ele>11.333333333333332</ele><time>2026-04-07T11:50:00.344Z</time></trkpt><trkpt lat="40.8751743" lon="9.6292361"><ele>11.5</ele><time>2026-04-07T11:50:01.344Z</time></trkpt><trkpt lat="40.8752386" lon="9.6291827"><ele>11.666666666666666</ele><time>2026-04-07T11:50:02.345Z</time></trkpt><trkpt lat="40.8753068" lon="9.6291603"><ele>11.833333333333334</ele><time>2026-04-07T11:50:03.345Z</time></trkpt><trkpt lat="40.8753832" lon="9.6291849"><ele>12.0</ele><time>2026-04-07T11:50:04.345Z</time></trkpt><trkpt lat="40.8754495" lon="9.6292181"><ele>12.0</ele><time>2026-04-07T11:50:05.345Z</time></trkpt><trkpt lat="40.8755807" lon="9.6291853"><ele>12.0</ele><time>2026-04-07T11:50:07.345Z</time></trkpt><trkpt lat="40.8756441" lon="9.6291276"><ele>12.0</ele><time>2026-04-07T11:50:08.345Z</time></trkpt><trkpt lat="40.8757077" lon="9.6290674"><ele>12.0</ele><time>2026-04-07T11:50:09.345Z</time></trkpt><trkpt lat="40.875771" lon="9.6289824"><ele>12.0</ele><time>2026-04-07T11:50:10.345Z</time></trkpt><trkpt lat="40.8758237" lon="9.6288752"><ele>12.0</ele><time>2026-04-07T11:50:11.345Z</time></trkpt><trkpt lat="40.8758786" lon="9.6287562"><ele>12.0</ele><time>2026-04-07T11:50:12.344Z</time></trkpt><trkpt lat="40.8759429" lon="9.6286313"><ele>12.0</ele><time>2026-04-07T11:50:13.344Z</time></trkpt><trkpt lat="40.8760169" lon="9.6285054"><ele>12.0</ele><time>2026-04-07T11:50:14.345Z</time></trkpt><trkpt lat="40.8761196" lon="9.6283968"><ele>13.25</ele><time>2026-04-07T11:50:15.345Z</time></trkpt><trkpt lat="40.8762334" lon="9.6282954"><ele>14.5</ele><time>2026-04-07T11:50:16.345Z</time></trkpt><trkpt lat="40.8763514" lon="9.6281946"><ele>15.75</ele><time>2026-04-07T11:50:17.345Z</time></trkpt><trkpt lat="40.8764668" lon="9.6280862"><ele>17.0</ele><time>2026-04-07T11:50:18.345Z</time></trkpt><trkpt lat="40.8765826" lon="9.627969"><ele>17.0</ele><time>2026-04-07T11:50:19.345Z</time></trkpt><trkpt lat="40.8766947" lon="9.6278354"><ele>17.0</ele><time>2026-04-07T11:50:20.345Z</time></trkpt><trkpt lat="40.8767881" lon="9.627669"><ele>17.0</ele><time>2026-04-07T11:50:21.344Z</time></trkpt><trkpt lat="40.8768651" lon="9.6274843"><ele>17.0</ele><time>2026-04-07T11:50:22.344Z</time></trkpt><trkpt lat="40.8769209" lon="9.6272846"><ele>17.0</ele><time>2026-04-07T11:50:23.345Z</time></trkpt><trkpt lat="40.8769473" lon="9.6270682"><ele>17.0</ele><time>2026-04-07T11:50:24.345Z</time></trkpt><trkpt lat="40.8769333" lon="9.6268485"><ele>15.333333333333334</ele><time>2026-04-07T11:50:25.345Z</time></trkpt><trkpt lat="40.8768873" lon="9.6266366"><ele>13.666666666666668</ele><time>2026-04-07T11:50:26.345Z</time></trkpt><trkpt lat="40.8768235" lon="9.6264322"><ele>12.0</ele><time>2026-04-07T11:50:27.345Z</time></trkpt><trkpt lat="40.8767729" lon="9.6262261"><ele>12.0</ele><time>2026-04-07T11:50:28.344Z</time></trkpt><trkpt lat="40.8767586" lon="9.6260027"><ele>12.0</ele><time>2026-04-07T11:50:29.344Z</time></trkpt><trkpt lat="40.8767849" lon="9.6257754"><ele>12.0</ele><time>2026-04-07T11:50:30.345Z</time></trkpt><trkpt lat="40.8768475" lon="9.6255483"><ele>12.0</ele><time>2026-04-07T11:50:31.345Z</time></trkpt><trkpt lat="40.8769207" lon="9.6253271"><ele>12.0</ele><time>2026-04-07T11:50:32.344Z</time></trkpt><trkpt lat="40.8769956" lon="9.6250993"><ele>12.0</ele><time>2026-04-07T11:50:33.345Z</time></trkpt><trkpt lat="40.8770731" lon="9.6248714"><ele>12.666666666666668</ele><time>2026-04-07T11:50:34.345Z</time></trkpt><trkpt lat="40.8771519" lon="9.6246429"><ele>13.333333333333334</ele><time>2026-04-07T11:50:35.345Z</time></trkpt><trkpt lat="40.8772319" lon="9.6244164"><ele>14.0</ele><time>2026-04-07T11:50:36.345Z</time></trkpt><trkpt lat="40.8773083" lon="9.624205"><ele>14.0</ele><time>2026-04-07T11:50:37.345Z</time></trkpt><trkpt lat="40.877386" lon="9.6239879"><ele>14.0</ele><time>2026-04-07T11:50:38.344Z</time></trkpt><trkpt lat="40.8774704" lon="9.623769"><ele>14.0</ele><time>2026-04-07T11:50:39.345Z</time></trkpt><trkpt lat="40.8775558" lon="9.623541"><ele>13.0</ele><time>2026-04-07T11:50:40.345Z</time></trkpt><trkpt lat="40.8776331" lon="9.6233039"><ele>12.0</ele><time>2026-04-07T11:50:41.345Z</time></trkpt><trkpt lat="40.8776947" lon="9.6230472"><ele>11.0</ele><time>2026-04-07T11:50:42.345Z</time></trkpt><trkpt lat="40.8777415" lon="9.6227833"><ele>11.0</ele><time>2026-04-07T11:50:43.344Z</time></trkpt><trkpt lat="40.8777898" lon="9.6225181"><ele>11.0</ele><time>2026-04-07T11:50:44.345Z</time></trkpt><trkpt lat="40.8778374" lon="9.6222496"><ele>11.0</ele><time>2026-04-07T11:50:45.345Z</time></trkpt><trkpt lat="40.8778822" lon="9.6219748"><ele>12.333333333333332</ele><time>2026-04-07T11:50:46.345Z</time></trkpt><trkpt lat="40.8779228" lon="9.6217016"><ele>13.666666666666666</ele><time>2026-04-07T11:50:47.345Z</time></trkpt><trkpt lat="40.8779461" lon="9.6214346"><ele>15.0</ele><time>2026-04-07T11:50:48.345Z</time></trkpt><trkpt lat="40.8779473" lon="9.6211816"><ele>16.0</ele><time>2026-04-07T11:50:49.345Z</time></trkpt><trkpt lat="40.877942" lon="9.6209438"><ele>17.0</ele><time>2026-04-07T11:50:50.344Z</time></trkpt><trkpt lat="40.8779167" lon="9.6207181"><ele>18.0</ele><time>2026-04-07T11:50:51.344Z</time></trkpt><trkpt lat="40.877875" lon="9.6205011"><ele>20.333333333333336</ele><time>2026-04-07T11:50:52.344Z</time></trkpt><trkpt lat="40.8778119" lon="9.6202862"><ele>22.666666666666668</ele><time>2026-04-07T11:50:53.345Z</time></trkpt><trkpt lat="40.8777385" lon="9.6200757"><ele>25.0</ele><time>2026-04-07T11:50:54.345Z</time></trkpt><trkpt lat="40.8776654" lon="9.6198672"><ele>25.0</ele><time>2026-04-07T11:50:55.345Z</time></trkpt><trkpt lat="40.8776024" lon="9.6196622"><ele>25.0</ele><time>2026-04-07T11:50:56.345Z</time></trkpt><trkpt lat="40.8775497" lon="9.6194696"><ele>25.0</ele><time>2026-04-07T11:50:57.345Z</time></trkpt><trkpt lat="40.8775307" lon="9.6192584"><ele>24.333333333333336</ele><time>2026-04-07T11:50:58.344Z</time></trkpt><trkpt lat="40.8775479" lon="9.6190382"><ele>23.666666666666668</ele><time>2026-04-07T11:50:59.345Z</time></trkpt><trkpt lat="40.8775916" lon="9.6188127"><ele>23.0</ele><time>2026-04-07T11:51:00.344Z</time></trkpt><trkpt lat="40.877631" lon="9.618573"><ele>26.333333333333336</ele><time>2026-04-07T11:51:01.345Z</time></trkpt><trkpt lat="40.8776801" lon="9.6183336"><ele>29.666666666666668</ele><time>2026-04-07T11:51:02.345Z</time></trkpt><trkpt lat="40.8777611" lon="9.6180986"><ele>33.0</ele><time>2026-04-07T11:51:03.344Z</time></trkpt><trkpt lat="40.8778615" lon="9.6178673"><ele>33.333333333333336</ele><time>2026-04-07T11:51:04.345Z</time></trkpt><trkpt lat="40.8779604" lon="9.61763"><ele>33.66666666666667</ele><time>2026-04-07T11:51:05.344Z</time></trkpt><trkpt lat="40.8780501" lon="9.6173834"><ele>34.0</ele><time>2026-04-07T11:51:06.345Z</time></trkpt><trkpt lat="40.8781262" lon="9.6171391"><ele>34.333333333333336</ele><time>2026-04-07T11:51:07.345Z</time></trkpt><trkpt lat="40.878197" lon="9.616899"><ele>34.666666666666664</ele><time>2026-04-07T11:51:08.344Z</time></trkpt><trkpt lat="40.878253" lon="9.6166438"><ele>35.0</ele><time>2026-04-07T11:51:09.345Z</time></trkpt><trkpt lat="40.8782803" lon="9.6163878"><ele>36.0</ele><time>2026-04-07T11:51:10.345Z</time></trkpt><trkpt lat="40.8782947" lon="9.6161237"><ele>37.0</ele><time>2026-04-07T11:51:11.345Z</time></trkpt><trkpt lat="40.8783105" lon="9.6158669"><ele>38.0</ele><time>2026-04-07T11:51:12.344Z</time></trkpt><trkpt lat="40.8783344" lon="9.6156237"><ele>38.0</ele><time>2026-04-07T11:51:13.344Z</time></trkpt><trkpt lat="40.8783765" lon="9.6154098"><ele>38.0</ele><time>2026-04-07T11:51:14.345Z</time></trkpt><trkpt lat="40.8784592" lon="9.6152177"><ele>38.0</ele><time>2026-04-07T11:51:15.345Z</time></trkpt><trkpt lat="40.87858" lon="9.6150576"><ele>40.0</ele><time>2026-04-07T11:51:16.345Z</time></trkpt><trkpt lat="40.8787183" lon="9.6149055"><ele>42.0</ele><time>2026-04-07T11:51:17.345Z</time></trkpt><trkpt lat="40.8788433" lon="9.6147432"><ele>44.0</ele><time>2026-04-07T11:51:18.345Z</time></trkpt><trkpt lat="40.8789427" lon="9.6145553"><ele>45.666666666666664</ele><time>2026-04-07T11:51:19.344Z</time></trkpt><trkpt lat="40.8790192" lon="9.6143383"><ele>47.33333333333333</ele><time>2026-04-07T11:51:20.345Z</time></trkpt><trkpt lat="40.8790813" lon="9.6141107"><ele>49.0</ele><time>2026-04-07T11:51:21.345Z</time></trkpt><trkpt lat="40.8791401" lon="9.6138769"><ele>49.666666666666664</ele><time>2026-04-07T11:51:22.344Z</time></trkpt><trkpt lat="40.8791984" lon="9.6136374"><ele>50.33333333333333</ele><time>2026-04-07T11:51:23.344Z</time></trkpt><trkpt lat="40.8792601" lon="9.6133977"><ele>51.0</ele><time>2026-04-07T11:51:24.345Z</time></trkpt><trkpt lat="40.8793164" lon="9.6131615"><ele>52.0</ele><time>2026-04-07T11:51:25.344Z</time></trkpt><trkpt lat="40.8793454" lon="9.6129235"><ele>53.0</ele><time>2026-04-07T11:51:26.345Z</time></trkpt><trkpt lat="40.8793657" lon="9.6126784"><ele>54.0</ele><time>2026-04-07T11:51:27.345Z</time></trkpt><trkpt lat="40.8793898" lon="9.6124424"><ele>54.0</ele><time>2026-04-07T11:51:28.345Z</time></trkpt><trkpt lat="40.8794246" lon="9.6122209"><ele>54.0</ele><time>2026-04-07T11:51:29.344Z</time></trkpt><trkpt lat="40.8794707" lon="9.6119939"><ele>54.0</ele><time>2026-04-07T11:51:30.345Z</time></trkpt><trkpt lat="40.8795223" lon="9.6117627"><ele>53.0</ele><time>2026-04-07T11:51:31.345Z</time></trkpt><trkpt lat="40.8795744" lon="9.6115272"><ele>52.0</ele><time>2026-04-07T11:51:32.345Z</time></trkpt><trkpt lat="40.8796273" lon="9.6112841"><ele>51.0</ele><time>2026-04-07T11:51:33.345Z</time></trkpt><trkpt lat="40.8796832" lon="9.611036"><ele>51.0</ele><time>2026-04-07T11:51:34.345Z</time></trkpt><trkpt lat="40.8797386" lon="9.610788"><ele>51.0</ele><time>2026-04-07T11:51:35.344Z</time></trkpt><trkpt lat="40.8797912" lon="9.6105381"><ele>51.0</ele><time>2026-04-07T11:51:36.345Z</time></trkpt><trkpt lat="40.8798436" lon="9.6102927"><ele>51.0</ele><time>2026-04-07T11:51:37.344Z</time></trkpt><trkpt lat="40.8798948" lon="9.6100618"><ele>51.0</ele><time>2026-04-07T11:51:38.344Z</time></trkpt><trkpt lat="40.8799426" lon="9.6098367"><ele>51.0</ele><time>2026-04-07T11:51:39.344Z</time></trkpt><trkpt lat="40.8799901" lon="9.609624"><ele>50.0</ele><time>2026-04-07T11:51:40.345Z</time></trkpt><trkpt lat="40.8800375" lon="9.6094146"><ele>49.0</ele><time>2026-04-07T11:51:41.345Z</time></trkpt><trkpt lat="40.8800841" lon="9.6092044"><ele>48.0</ele><time>2026-04-07T11:51:42.344Z</time></trkpt><trkpt lat="40.8801367" lon="9.6089927"><ele>47.333333333333336</ele><time>2026-04-07T11:51:43.345Z</time></trkpt><trkpt lat="40.8801911" lon="9.6087814"><ele>46.66666666666667</ele><time>2026-04-07T11:51:44.345Z</time></trkpt><trkpt lat="40.8802578" lon="9.6085772"><ele>46.0</ele><time>2026-04-07T11:51:45.344Z</time></trkpt><trkpt lat="40.8803316" lon="9.6083832"><ele>45.0</ele><time>2026-04-07T11:51:46.345Z</time></trkpt><trkpt lat="40.8804082" lon="9.608194"><ele>44.0</ele><time>2026-04-07T11:51:47.345Z</time></trkpt><trkpt lat="40.8804841" lon="9.6080152"><ele>43.0</ele><time>2026-04-07T11:51:48.345Z</time></trkpt><trkpt lat="40.8805542" lon="9.6078445"><ele>42.75</ele><time>2026-04-07T11:51:49.345Z</time></trkpt><trkpt lat="40.8806177" lon="9.6076734"><ele>42.5</ele><time>2026-04-07T11:51:50.344Z</time></trkpt><trkpt lat="40.8806706" lon="9.6074925"><ele>42.25</ele><time>2026-04-07T11:51:51.345Z</time></trkpt><trkpt lat="40.8807128" lon="9.6072932"><ele>42.0</ele><time>2026-04-07T11:51:52.345Z</time></trkpt><trkpt lat="40.8807342" lon="9.6070769"><ele>41.666666666666664</ele><time>2026-04-07T11:51:53.344Z</time></trkpt><trkpt lat="40.8807441" lon="9.6068546"><ele>41.33333333333333</ele><time>2026-04-07T11:51:54.345Z</time></trkpt><trkpt lat="40.8807524" lon="9.6066237"><ele>41.0</ele><time>2026-04-07T11:51:55.345Z</time></trkpt><trkpt lat="40.8807551" lon="9.6063829"><ele>40.33333333333333</ele><time>2026-04-07T11:51:56.345Z</time></trkpt><trkpt lat="40.8807548" lon="9.6061401"><ele>39.666666666666664</ele><time>2026-04-07T11:51:57.345Z</time></trkpt><trkpt lat="40.8807604" lon="9.6059004"><ele>39.0</ele><time>2026-04-07T11:51:58.344Z</time></trkpt><trkpt lat="40.8807618" lon="9.6056694"><ele>39.0</ele><time>2026-04-07T11:51:59.345Z</time></trkpt><trkpt lat="40.8807571" lon="9.6054425"><ele>39.0</ele><time>2026-04-07T11:52:00.344Z</time></trkpt><trkpt lat="40.8807567" lon="9.6052189"><ele>39.0</ele><time>2026-04-07T11:52:01.344Z</time></trkpt><trkpt lat="40.88076" lon="9.605005"><ele>38.0</ele><time>2026-04-07T11:52:02.345Z</time></trkpt><trkpt lat="40.8807634" lon="9.604802"><ele>37.0</ele><time>2026-04-07T11:52:03.345Z</time></trkpt><trkpt lat="40.8807666" lon="9.6045984"><ele>36.0</ele><time>2026-04-07T11:52:04.345Z</time></trkpt><trkpt lat="40.8807573" lon="9.6043872"><ele>35.333333333333336</ele><time>2026-04-07T11:52:05.345Z</time></trkpt><trkpt lat="40.8807288" lon="9.60417"><ele>34.66666666666667</ele><time>2026-04-07T11:52:06.345Z</time></trkpt><trkpt lat="40.8806818" lon="9.6039564"><ele>34.0</ele><time>2026-04-07T11:52:07.345Z</time></trkpt><trkpt lat="40.8806263" lon="9.6037448"><ele>34.333333333333336</ele><time>2026-04-07T11:52:08.344Z</time></trkpt><trkpt lat="40.8805718" lon="9.603535"><ele>34.666666666666664</ele><time>2026-04-07T11:52:09.344Z</time></trkpt><trkpt lat="40.8805233" lon="9.6033334"><ele>35.0</ele><time>2026-04-07T11:52:10.345Z</time></trkpt><trkpt lat="40.8804889" lon="9.6031322"><ele>35.0</ele><time>2026-04-07T11:52:11.345Z</time></trkpt><trkpt lat="40.880469" lon="9.6029255"><ele>35.0</ele><time>2026-04-07T11:52:12.345Z</time></trkpt><trkpt lat="40.8804627" lon="9.6027161"><ele>35.0</ele><time>2026-04-07T11:52:13.345Z</time></trkpt><trkpt lat="40.8804603" lon="9.6025"><ele>34.666666666666664</ele><time>2026-04-07T11:52:14.344Z</time></trkpt><trkpt lat="40.8804585" lon="9.6022733"><ele>34.333333333333336</ele><time>2026-04-07T11:52:15.345Z</time></trkpt><trkpt lat="40.8804557" lon="9.6020323"><ele>34.0</ele><time>2026-04-07T11:52:16.345Z</time></trkpt><trkpt lat="40.8804548" lon="9.6017718"><ele>34.0</ele><time>2026-04-07T11:52:17.345Z</time></trkpt><trkpt lat="40.8804528" lon="9.6015002"><ele>34.0</ele><time>2026-04-07T11:52:18.345Z</time></trkpt><trkpt lat="40.8804512" lon="9.6012359"><ele>34.0</ele><time>2026-04-07T11:52:19.345Z</time></trkpt><trkpt lat="40.8804476" lon="9.600984"><ele>33.66666666666667</ele><time>2026-04-07T11:52:20.345Z</time></trkpt><trkpt lat="40.8804494" lon="9.6007411"><ele>33.333333333333336</ele><time>2026-04-07T11:52:21.345Z</time></trkpt><trkpt lat="40.880469" lon="9.6005074"><ele>33.0</ele><time>2026-04-07T11:52:22.345Z</time></trkpt><trkpt lat="40.8805106" lon="9.6002716"><ele>32.333333333333336</ele><time>2026-04-07T11:52:23.345Z</time></trkpt><trkpt lat="40.8805639" lon="9.6000385"><ele>31.666666666666668</ele><time>2026-04-07T11:52:24.345Z</time></trkpt><trkpt lat="40.8806191" lon="9.5998091"><ele>31.0</ele><time>2026-04-07T11:52:25.344Z</time></trkpt><trkpt lat="40.8806819" lon="9.5995843"><ele>30.333333333333336</ele><time>2026-04-07T11:52:26.345Z</time></trkpt><trkpt lat="40.8807635" lon="9.5993707"><ele>29.666666666666664</ele><time>2026-04-07T11:52:27.345Z</time></trkpt><trkpt lat="40.880872" lon="9.5991822"><ele>29.0</ele><time>2026-04-07T11:52:28.345Z</time></trkpt><trkpt lat="40.8809864" lon="9.5990031"><ele>30.666666666666664</ele><time>2026-04-07T11:52:29.344Z</time></trkpt><trkpt lat="40.8811029" lon="9.5988309"><ele>32.333333333333336</ele><time>2026-04-07T11:52:30.345Z</time></trkpt><trkpt lat="40.8812209" lon="9.5986599"><ele>34.0</ele><time>2026-04-07T11:52:31.345Z</time></trkpt><trkpt lat="40.8813451" lon="9.5984848"><ele>34.0</ele><time>2026-04-07T11:52:32.345Z</time></trkpt><trkpt lat="40.8814667" lon="9.5983024"><ele>34.0</ele><time>2026-04-07T11:52:33.345Z</time></trkpt><trkpt lat="40.8815875" lon="9.5981212"><ele>34.0</ele><time>2026-04-07T11:52:34.345Z</time></trkpt><trkpt lat="40.8817076" lon="9.5979447"><ele>33.66666666666667</ele><time>2026-04-07T11:52:35.344Z</time></trkpt><trkpt lat="40.881827" lon="9.5977712"><ele>33.333333333333336</ele><time>2026-04-07T11:52:36.345Z</time></trkpt><trkpt lat="40.8819434" lon="9.5976021"><ele>33.0</ele><time>2026-04-07T11:52:37.344Z</time></trkpt><trkpt lat="40.8820567" lon="9.5974397"><ele>33.0</ele><time>2026-04-07T11:52:38.345Z</time></trkpt><trkpt lat="40.8821621" lon="9.5972926"><ele>33.0</ele><time>2026-04-07T11:52:39.344Z</time></trkpt><trkpt lat="40.8822555" lon="9.5971656"><ele>33.0</ele><time>2026-04-07T11:52:40.344Z</time></trkpt><trkpt lat="40.8823354" lon="9.5970622"><ele>33.0</ele><time>2026-04-07T11:52:41.345Z</time></trkpt><trkpt lat="40.8824173" lon="9.5969714"><ele>32.6</ele><time>2026-04-07T11:52:42.344Z</time></trkpt><trkpt lat="40.8825045" lon="9.5969197"><ele>32.199999999999996</ele><time>2026-04-07T11:52:43.345Z</time></trkpt><trkpt lat="40.8825935" lon="9.5969177"><ele>31.8</ele><time>2026-04-07T11:52:44.345Z</time></trkpt><trkpt lat="40.8826856" lon="9.5969529"><ele>31.4</ele><time>2026-04-07T11:52:45.345Z</time></trkpt><trkpt lat="40.8827825" lon="9.597005"><ele>31.0</ele><time>2026-04-07T11:52:46.344Z</time></trkpt><trkpt lat="40.8828861" lon="9.5970605"><ele>31.0</ele><time>2026-04-07T11:52:47.345Z</time></trkpt><trkpt lat="40.8829961" lon="9.5970961"><ele>31.0</ele><time>2026-04-07T11:52:48.345Z</time></trkpt><trkpt lat="40.8831187" lon="9.597099"><ele>31.0</ele><time>2026-04-07T11:52:49.345Z</time></trkpt><trkpt lat="40.8832433" lon="9.5970629"><ele>31.0</ele><time>2026-04-07T11:52:50.344Z</time></trkpt><trkpt lat="40.8833739" lon="9.5970044"><ele>28.0</ele><time>2026-04-07T11:52:51.344Z</time></trkpt><trkpt lat="40.8835012" lon="9.5969439"><ele>25.0</ele><time>2026-04-07T11:52:52.345Z</time></trkpt><trkpt lat="40.8836283" lon="9.5968863"><ele>22.0</ele><time>2026-04-07T11:52:53.345Z</time></trkpt><trkpt lat="40.8837601" lon="9.5968405"><ele>19.0</ele><time>2026-04-07T11:52:54.345Z</time></trkpt><trkpt lat="40.8838934" lon="9.5968162"><ele>19.0</ele><time>2026-04-07T11:52:55.345Z</time></trkpt><trkpt lat="40.8840313" lon="9.5967957"><ele>19.0</ele><time>2026-04-07T11:52:56.345Z</time></trkpt><trkpt lat="40.8841637" lon="9.596762"><ele>19.0</ele><time>2026-04-07T11:52:57.344Z</time></trkpt><trkpt lat="40.8842954" lon="9.5967074"><ele>19.0</ele><time>2026-04-07T11:52:58.344Z</time></trkpt><trkpt lat="40.8844294" lon="9.5966455"><ele>18.25</ele><time>2026-04-07T11:52:59.345Z</time></trkpt><trkpt lat="40.8845603" lon="9.596582"><ele>17.5</ele><time>2026-04-07T11:53:00.344Z</time></trkpt><trkpt lat="40.8846858" lon="9.5965179"><ele>16.75</ele><time>2026-04-07T11:53:01.344Z</time></trkpt><trkpt lat="40.8848026" lon="9.5964516"><ele>16.0</ele><time>2026-04-07T11:53:02.345Z</time></trkpt><trkpt lat="40.8849091" lon="9.5963763"><ele>16.0</ele><time>2026-04-07T11:53:03.345Z</time></trkpt><trkpt lat="40.8850027" lon="9.5962855"><ele>16.0</ele><time>2026-04-07T11:53:04.345Z</time></trkpt><trkpt lat="40.8850771" lon="9.59617"><ele>16.0</ele><time>2026-04-07T11:53:05.344Z</time></trkpt><trkpt lat="40.8851375" lon="9.5960233"><ele>16.0</ele><time>2026-04-07T11:53:06.345Z</time></trkpt><trkpt lat="40.8851875" lon="9.5958654"><ele>15.25</ele><time>2026-04-07T11:53:07.345Z</time></trkpt><trkpt lat="40.8852361" lon="9.5957063"><ele>14.5</ele><time>2026-04-07T11:53:08.345Z</time></trkpt><trkpt lat="40.8852823" lon="9.5955433"><ele>13.75</ele><time>2026-04-07T11:53:09.344Z</time></trkpt><trkpt lat="40.885332" lon="9.5953732"><ele>13.0</ele><time>2026-04-07T11:53:10.345Z</time></trkpt><trkpt lat="40.8853959" lon="9.5952008"><ele>12.333333333333332</ele><time>2026-04-07T11:53:11.345Z</time></trkpt><trkpt lat="40.8854676" lon="9.5950236"><ele>11.666666666666666</ele><time>2026-04-07T11:53:12.345Z</time></trkpt><trkpt lat="40.8855416" lon="9.5948441"><ele>11.0</ele><time>2026-04-07T11:53:13.345Z</time></trkpt><trkpt lat="40.8856264" lon="9.5946615"><ele>11.666666666666666</ele><time>2026-04-07T11:53:14.344Z</time></trkpt><trkpt lat="40.8857108" lon="9.5944763"><ele>12.333333333333332</ele><time>2026-04-07T11:53:15.344Z</time></trkpt><trkpt lat="40.8857966" lon="9.5942973"><ele>13.0</ele><time>2026-04-07T11:53:16.345Z</time></trkpt><trkpt lat="40.8858843" lon="9.594115"><ele>13.25</ele><time>2026-04-07T11:53:17.345Z</time></trkpt><trkpt lat="40.8859675" lon="9.593938"><ele>13.5</ele><time>2026-04-07T11:53:18.345Z</time></trkpt><trkpt lat="40.8860437" lon="9.5937702"><ele>13.75</ele><time>2026-04-07T11:53:19.344Z</time></trkpt><trkpt lat="40.886119" lon="9.5936155"><ele>14.0</ele><time>2026-04-07T11:53:20.345Z</time></trkpt><trkpt lat="40.886189" lon="9.5934695"><ele>14.0</ele><time>2026-04-07T11:53:21.344Z</time></trkpt><trkpt lat="40.8862542" lon="9.5933348"><ele>14.0</ele><time>2026-04-07T11:53:22.345Z</time></trkpt><trkpt lat="40.8863222" lon="9.5931993"><ele>14.0</ele><time>2026-04-07T11:53:23.345Z</time></trkpt><trkpt lat="40.8863928" lon="9.5930629"><ele>14.0</ele><time>2026-04-07T11:53:24.345Z</time></trkpt><trkpt lat="40.8864579" lon="9.5929319"><ele>13.799999999999999</ele><time>2026-04-07T11:53:25.344Z</time></trkpt><trkpt lat="40.8865205" lon="9.5928041"><ele>13.599999999999998</ele><time>2026-04-07T11:53:26.345Z</time></trkpt><trkpt lat="40.8865732" lon="9.5926829"><ele>13.4</ele><time>2026-04-07T11:53:27.345Z</time></trkpt><trkpt lat="40.8866225" lon="9.5925873"><ele>13.2</ele><time>2026-04-07T11:53:28.345Z</time></trkpt><trkpt lat="40.8866825" lon="9.5924929"><ele>13.0</ele><time>2026-04-07T11:53:30.345Z</time></trkpt><trkpt lat="40.8867323" lon="9.5924309"><ele>12.857142857142856</ele><time>2026-04-07T11:55:36.345Z</time></trkpt><trkpt lat="40.8867708" lon="9.5923166"><ele>12.714285714285715</ele><time>2026-04-07T11:55:39.344Z</time></trkpt><trkpt lat="40.8868013" lon="9.5922403"><ele>12.571428571428571</ele><time>2026-04-07T11:55:40.345Z</time></trkpt><trkpt lat="40.8868364" lon="9.5921682"><ele>12.428571428571427</ele><time>2026-04-07T11:55:41.345Z</time></trkpt><trkpt lat="40.8868718" lon="9.5920883"><ele>12.285714285714285</ele><time>2026-04-07T11:55:42.344Z</time></trkpt><trkpt lat="40.8869145" lon="9.5920121"><ele>12.142857142857142</ele><time>2026-04-07T11:55:43.344Z</time></trkpt><trkpt lat="40.8869606" lon="9.5919258"><ele>12.0</ele><time>2026-04-07T11:55:44.345Z</time></trkpt><trkpt lat="40.8870137" lon="9.5918197"><ele>12.0</ele><time>2026-04-07T11:55:45.345Z</time></trkpt><trkpt lat="40.8870656" lon="9.5917144"><ele>12.0</ele><time>2026-04-07T11:55:46.345Z</time></trkpt><trkpt lat="40.8871215" lon="9.5916026"><ele>12.0</ele><time>2026-04-07T11:55:47.345Z</time></trkpt><trkpt lat="40.8871678" lon="9.591487"><ele>12.0</ele><time>2026-04-07T11:55:48.345Z</time></trkpt><trkpt lat="40.8872275" lon="9.5913609"><ele>12.0</ele><time>2026-04-07T11:55:49.345Z</time></trkpt><trkpt lat="40.8872938" lon="9.5912268"><ele>12.25</ele><time>2026-04-07T11:55:50.345Z</time></trkpt><trkpt lat="40.8873589" lon="9.5910848"><ele>12.5</ele><time>2026-04-07T11:55:51.345Z</time></trkpt><trkpt lat="40.8874273" lon="9.5909411"><ele>12.75</ele><time>2026-04-07T11:55:52.345Z</time></trkpt><trkpt lat="40.8874895" lon="9.5908004"><ele>13.0</ele><time>2026-04-07T11:55:53.345Z</time></trkpt><trkpt lat="40.8875601" lon="9.5906623"><ele>12.25</ele><time>2026-04-07T11:55:54.345Z</time></trkpt><trkpt lat="40.8876329" lon="9.5905292"><ele>11.5</ele><time>2026-04-07T11:55:55.345Z</time></trkpt><trkpt lat="40.8877082" lon="9.5904013"><ele>10.75</ele><time>2026-04-07T11:55:56.344Z</time></trkpt><trkpt lat="40.8877838" lon="9.5902699"><ele>10.0</ele><time>2026-04-07T11:55:57.345Z</time></trkpt><trkpt lat="40.8878675" lon="9.5901443"><ele>10.0</ele><time>2026-04-07T11:55:58.345Z</time></trkpt><trkpt lat="40.8879512" lon="9.590022"><ele>10.0</ele><time>2026-04-07T11:55:59.345Z</time></trkpt><trkpt lat="40.8880314" lon="9.5899171"><ele>10.0</ele><time>2026-04-07T11:56:00.345Z</time></trkpt><trkpt lat="40.8881042" lon="9.5898056"><ele>10.0</ele><time>2026-04-07T11:56:01.345Z</time></trkpt><trkpt lat="40.8881751" lon="9.589708"><ele>10.0</ele><time>2026-04-07T11:56:02.345Z</time></trkpt><trkpt lat="40.8882399" lon="9.5896122"><ele>10.0</ele><time>2026-04-07T11:56:03.345Z</time></trkpt><trkpt lat="40.8883032" lon="9.5895176"><ele>10.0</ele><time>2026-04-07T11:56:04.345Z</time></trkpt><trkpt lat="40.8883676" lon="9.5894253"><ele>10.0</ele><time>2026-04-07T11:56:05.345Z</time></trkpt><trkpt lat="40.888433" lon="9.589331"><ele>10.0</ele><time>2026-04-07T11:56:06.345Z</time></trkpt><trkpt lat="40.8884958" lon="9.5892348"><ele>10.0</ele><time>2026-04-07T11:56:07.345Z</time></trkpt><trkpt lat="40.8885593" lon="9.5891442"><ele>10.0</ele><time>2026-04-07T11:56:08.345Z</time></trkpt><trkpt lat="40.8886275" lon="9.5890747"><ele>10.0</ele><time>2026-04-07T11:56:09.344Z</time></trkpt><trkpt lat="40.8887062" lon="9.5890316"><ele>10.0</ele><time>2026-04-07T11:56:10.345Z</time></trkpt><trkpt lat="40.888793" lon="9.5890139"><ele>10.0</ele><time>2026-04-07T11:56:11.345Z</time></trkpt><trkpt lat="40.8888734" lon="9.5889749"><ele>10.0</ele><time>2026-04-07T11:56:12.345Z</time></trkpt><trkpt lat="40.888938" lon="9.5889124"><ele>10.0</ele><time>2026-04-07T11:56:13.345Z</time></trkpt><trkpt lat="40.8889775" lon="9.5888033"><ele>10.0</ele><time>2026-04-07T11:56:14.344Z</time></trkpt><trkpt lat="40.8889944" lon="9.5886662"><ele>10.0</ele><time>2026-04-07T11:56:15.345Z</time></trkpt><trkpt lat="40.8890211" lon="9.5885376"><ele>10.0</ele><time>2026-04-07T11:56:16.344Z</time></trkpt><trkpt lat="40.8890784" lon="9.5884283"><ele>10.0</ele><time>2026-04-07T11:56:17.344Z</time></trkpt><trkpt lat="40.889151" lon="9.588305"><ele>10.0</ele><time>2026-04-07T11:56:18.345Z</time></trkpt><trkpt lat="40.8892335" lon="9.588172"><ele>10.0</ele><time>2026-04-07T11:56:19.345Z</time></trkpt><trkpt lat="40.889329" lon="9.5880304"><ele>10.0</ele><time>2026-04-07T11:56:20.345Z</time></trkpt><trkpt lat="40.8894218" lon="9.5878913"><ele>10.0</ele><time>2026-04-07T11:56:21.345Z</time></trkpt><trkpt lat="40.8895092" lon="9.5877516"><ele>10.0</ele><time>2026-04-07T11:56:22.345Z</time></trkpt><trkpt lat="40.8895844" lon="9.5876086"><ele>10.0</ele><time>2026-04-07T11:56:23.344Z</time></trkpt><trkpt lat="40.8896538" lon="9.5874722"><ele>10.0</ele><time>2026-04-07T11:56:24.345Z</time></trkpt><trkpt lat="40.8897196" lon="9.5873409"><ele>10.0</ele><time>2026-04-07T11:56:25.345Z</time></trkpt><trkpt lat="40.8897798" lon="9.5872038"><ele>10.0</ele><time>2026-04-07T11:56:26.345Z</time></trkpt><trkpt lat="40.8898388" lon="9.5870673"><ele>10.0</ele><time>2026-04-07T11:56:27.345Z</time></trkpt><trkpt lat="40.8898985" lon="9.5869405"><ele>10.0</ele><time>2026-04-07T11:56:28.345Z</time></trkpt><trkpt lat="40.8899602" lon="9.5868066"><ele>10.0</ele><time>2026-04-07T11:56:29.345Z</time></trkpt><trkpt lat="40.8900244" lon="9.586676"><ele>9.75</ele><time>2026-04-07T11:56:30.345Z</time></trkpt><trkpt lat="40.8900875" lon="9.5865336"><ele>9.5</ele><time>2026-04-07T11:56:31.345Z</time></trkpt><trkpt lat="40.8901437" lon="9.5863941"><ele>9.25</ele><time>2026-04-07T11:56:32.345Z</time></trkpt><trkpt lat="40.8902031" lon="9.5862571"><ele>9.0</ele><time>2026-04-07T11:56:33.344Z</time></trkpt><trkpt lat="40.8902709" lon="9.5861281"><ele>9.0</ele><time>2026-04-07T11:56:34.345Z</time></trkpt><trkpt lat="40.8903285" lon="9.5859828"><ele>9.0</ele><time>2026-04-07T11:56:35.345Z</time></trkpt><trkpt lat="40.8903826" lon="9.5858425"><ele>9.0</ele><time>2026-04-07T11:56:36.345Z</time></trkpt><trkpt lat="40.8904423" lon="9.5856966"><ele>9.0</ele><time>2026-04-07T11:56:37.345Z</time></trkpt><trkpt lat="40.8904978" lon="9.5855428"><ele>9.0</ele><time>2026-04-07T11:56:38.345Z</time></trkpt><trkpt lat="40.8905543" lon="9.5853922"><ele>9.0</ele><time>2026-04-07T11:56:39.345Z</time></trkpt><trkpt lat="40.8906079" lon="9.5852364"><ele>9.0</ele><time>2026-04-07T11:56:40.345Z</time></trkpt><trkpt lat="40.8906665" lon="9.5850819"><ele>9.0</ele><time>2026-04-07T11:56:41.345Z</time></trkpt><trkpt lat="40.8907302" lon="9.5849262"><ele>9.0</ele><time>2026-04-07T11:56:42.344Z</time></trkpt><trkpt lat="40.8907883" lon="9.584765"><ele>9.0</ele><time>2026-04-07T11:56:43.345Z</time></trkpt><trkpt lat="40.890849" lon="9.5846041"><ele>9.0</ele><time>2026-04-07T11:56:44.344Z</time></trkpt><trkpt lat="40.8909091" lon="9.5844403"><ele>9.0</ele><time>2026-04-07T11:56:45.345Z</time></trkpt><trkpt lat="40.8909757" lon="9.5842697"><ele>9.0</ele><time>2026-04-07T11:56:46.345Z</time></trkpt><trkpt lat="40.891039" lon="9.5841007"><ele>9.0</ele><time>2026-04-07T11:56:47.344Z</time></trkpt><trkpt lat="40.8910974" lon="9.5839367"><ele>9.0</ele><time>2026-04-07T11:56:48.345Z</time></trkpt><trkpt lat="40.8911583" lon="9.5837802"><ele>9.0</ele><time>2026-04-07T11:56:49.345Z</time></trkpt><trkpt lat="40.8912166" lon="9.5836279"><ele>8.5</ele><time>2026-04-07T11:56:50.344Z</time></trkpt><trkpt lat="40.8912699" lon="9.5834711"><ele>8.0</ele><time>2026-04-07T11:56:51.344Z</time></trkpt><trkpt lat="40.8913219" lon="9.5833161"><ele>7.5</ele><time>2026-04-07T11:56:52.345Z</time></trkpt><trkpt lat="40.8913682" lon="9.5831613"><ele>7.0</ele><time>2026-04-07T11:56:53.345Z</time></trkpt><trkpt lat="40.8914108" lon="9.5830015"><ele>6.5</ele><time>2026-04-07T11:56:54.344Z</time></trkpt><trkpt lat="40.8914453" lon="9.5828267"><ele>6.0</ele><time>2026-04-07T11:56:55.345Z</time></trkpt><trkpt lat="40.8914628" lon="9.5826358"><ele>5.5</ele><time>2026-04-07T11:56:56.345Z</time></trkpt><trkpt lat="40.8914749" lon="9.5824392"><ele>5.0</ele><time>2026-04-07T11:56:57.345Z</time></trkpt><trkpt lat="40.8914847" lon="9.5822253"><ele>4.666666666666667</ele><time>2026-04-07T11:56:58.345Z</time></trkpt><trkpt lat="40.8914986" lon="9.5820044"><ele>4.333333333333333</ele><time>2026-04-07T11:56:59.345Z</time></trkpt><trkpt lat="40.89151" lon="9.5817758"><ele>4.0</ele><time>2026-04-07T11:57:00.345Z</time></trkpt><trkpt lat="40.8915205" lon="9.5815427"><ele>4.0</ele><time>2026-04-07T11:57:01.344Z</time></trkpt><trkpt lat="40.8915386" lon="9.5813083"><ele>4.0</ele><time>2026-04-07T11:57:02.345Z</time></trkpt><trkpt lat="40.8915553" lon="9.5810643"><ele>4.0</ele><time>2026-04-07T11:57:03.345Z</time></trkpt><trkpt lat="40.8915636" lon="9.5808108"><ele>3.6666666666666665</ele><time>2026-04-07T11:57:04.345Z</time></trkpt><trkpt lat="40.8915722" lon="9.5805512"><ele>3.333333333333333</ele><time>2026-04-07T11:57:05.344Z</time></trkpt><trkpt lat="40.8915832" lon="9.5802795"><ele>3.0</ele><time>2026-04-07T11:57:06.345Z</time></trkpt><trkpt lat="40.8915966" lon="9.580008"><ele>3.0</ele><time>2026-04-07T11:57:07.344Z</time></trkpt><trkpt lat="40.8916165" lon="9.5797328"><ele>3.0</ele><time>2026-04-07T11:57:08.345Z</time></trkpt><trkpt lat="40.8916298" lon="9.5794713"><ele>3.0</ele><time>2026-04-07T11:57:09.345Z</time></trkpt><trkpt lat="40.8916434" lon="9.579217"><ele>3.666666666666667</ele><time>2026-04-07T11:57:10.345Z</time></trkpt><trkpt lat="40.8916549" lon="9.5789746"><ele>4.333333333333334</ele><time>2026-04-07T11:57:11.345Z</time></trkpt><trkpt lat="40.8916651" lon="9.578733"><ele>5.0</ele><time>2026-04-07T11:57:12.344Z</time></trkpt><trkpt lat="40.8916878" lon="9.5784993"><ele>5.0</ele><time>2026-04-07T11:57:13.345Z</time></trkpt><trkpt lat="40.8917164" lon="9.5782577"><ele>5.0</ele><time>2026-04-07T11:57:14.345Z</time></trkpt><trkpt lat="40.8917489" lon="9.57802"><ele>5.0</ele><time>2026-04-07T11:57:15.344Z</time></trkpt><trkpt lat="40.8917931" lon="9.5777842"><ele>4.0</ele><time>2026-04-07T11:57:16.345Z</time></trkpt><trkpt lat="40.8918451" lon="9.5775493"><ele>3.0</ele><time>2026-04-07T11:57:17.345Z</time></trkpt><trkpt lat="40.8919004" lon="9.5773223"><ele>2.0</ele><time>2026-04-07T11:57:18.345Z</time></trkpt><trkpt lat="40.8919537" lon="9.5770946"><ele>2.0</ele><time>2026-04-07T11:57:19.344Z</time></trkpt><trkpt lat="40.8920133" lon="9.5768668"><ele>2.0</ele><time>2026-04-07T11:57:20.345Z</time></trkpt><trkpt lat="40.8920643" lon="9.5766389"><ele>2.0</ele><time>2026-04-07T11:57:21.345Z</time></trkpt><trkpt lat="40.8921159" lon="9.5764055"><ele>2.333333333333333</ele><time>2026-04-07T11:57:22.345Z</time></trkpt><trkpt lat="40.8921694" lon="9.5761727"><ele>2.6666666666666665</ele><time>2026-04-07T11:57:23.345Z</time></trkpt><trkpt lat="40.8922218" lon="9.5759368"><ele>3.0</ele><time>2026-04-07T11:57:24.345Z</time></trkpt><trkpt lat="40.8922769" lon="9.575694"><ele>3.0</ele><time>2026-04-07T11:57:25.345Z</time></trkpt><trkpt lat="40.8923353" lon="9.5754508"><ele>3.0</ele><time>2026-04-07T11:57:26.345Z</time></trkpt><trkpt lat="40.8923925" lon="9.5752006"><ele>3.0</ele><time>2026-04-07T11:57:27.345Z</time></trkpt><trkpt lat="40.892451" lon="9.5749426"><ele>3.0</ele><time>2026-04-07T11:57:28.344Z</time></trkpt><trkpt lat="40.8925094" lon="9.5746813"><ele>3.0</ele><time>2026-04-07T11:57:29.345Z</time></trkpt><trkpt lat="40.8925689" lon="9.574413"><ele>3.0</ele><time>2026-04-07T11:57:30.344Z</time></trkpt><trkpt lat="40.8926312" lon="9.5741445"><ele>3.0</ele><time>2026-04-07T11:57:31.344Z</time></trkpt><trkpt lat="40.8926948" lon="9.5738776"><ele>3.0</ele><time>2026-04-07T11:57:32.344Z</time></trkpt><trkpt lat="40.8927526" lon="9.5736149"><ele>3.0</ele><time>2026-04-07T11:57:33.345Z</time></trkpt><trkpt lat="40.8928091" lon="9.5733655"><ele>2.3333333333333335</ele><time>2026-04-07T11:57:34.345Z</time></trkpt><trkpt lat="40.8928634" lon="9.5731333"><ele>1.6666666666666665</ele><time>2026-04-07T11:57:35.345Z</time></trkpt><trkpt lat="40.8929098" lon="9.5729112"><ele>1.0</ele><time>2026-04-07T11:57:36.345Z</time></trkpt><trkpt lat="40.8929605" lon="9.572685"><ele>0.3333333333333333</ele><time>2026-04-07T11:57:37.344Z</time></trkpt><trkpt lat="40.8930195" lon="9.5724548"><ele>-0.3333333333333333</ele><time>2026-04-07T11:57:38.344Z</time></trkpt><trkpt lat="40.8930737" lon="9.5722172"><ele>-1.0</ele><time>2026-04-07T11:57:39.344Z</time></trkpt><trkpt lat="40.8931287" lon="9.5719771"><ele>-1.3333333333333333</ele><time>2026-04-07T11:57:40.345Z</time></trkpt><trkpt lat="40.8931809" lon="9.5717403"><ele>-1.6666666666666665</ele><time>2026-04-07T11:57:41.345Z</time></trkpt><trkpt lat="40.8932308" lon="9.5714995"><ele>-2.0</ele><time>2026-04-07T11:57:42.345Z</time></trkpt><trkpt lat="40.893283" lon="9.5712606"><ele>-2.0</ele><time>2026-04-07T11:57:43.345Z</time></trkpt><trkpt lat="40.893338" lon="9.5710323"><ele>-2.0</ele><time>2026-04-07T11:57:44.345Z</time></trkpt><trkpt lat="40.8933894" lon="9.5708079"><ele>-2.0</ele><time>2026-04-07T11:57:45.345Z</time></trkpt><trkpt lat="40.8934411" lon="9.5705848"><ele>-2.0</ele><time>2026-04-07T11:57:46.345Z</time></trkpt><trkpt lat="40.893491" lon="9.570363"><ele>-2.0</ele><time>2026-04-07T11:57:47.344Z</time></trkpt><trkpt lat="40.8935452" lon="9.5701472"><ele>-2.0</ele><time>2026-04-07T11:57:48.344Z</time></trkpt><trkpt lat="40.8935957" lon="9.5699311"><ele>-1.3333333333333333</ele><time>2026-04-07T11:57:49.345Z</time></trkpt><trkpt lat="40.8936489" lon="9.5697048"><ele>-0.6666666666666666</ele><time>2026-04-07T11:57:50.345Z</time></trkpt><trkpt lat="40.8937085" lon="9.569478"><ele>0.0</ele><time>2026-04-07T11:57:51.345Z</time></trkpt><trkpt lat="40.8937655" lon="9.5692486"><ele>1.0</ele><time>2026-04-07T11:57:52.345Z</time></trkpt><trkpt lat="40.8938374" lon="9.5690189"><ele>2.0</ele><time>2026-04-07T11:57:53.345Z</time></trkpt><trkpt lat="40.8939179" lon="9.5687945"><ele>3.0</ele><time>2026-04-07T11:57:54.345Z</time></trkpt><trkpt lat="40.8940055" lon="9.5685702"><ele>3.0</ele><time>2026-04-07T11:57:55.345Z</time></trkpt><trkpt lat="40.894094" lon="9.5683614"><ele>3.0</ele><time>2026-04-07T11:57:56.344Z</time></trkpt><trkpt lat="40.8941893" lon="9.5681764"><ele>3.0</ele><time>2026-04-07T11:57:57.345Z</time></trkpt><trkpt lat="40.8942919" lon="9.5680164"><ele>3.0</ele><time>2026-04-07T11:57:58.345Z</time></trkpt><trkpt lat="40.8943859" lon="9.5679045"><ele>3.0</ele><time>2026-04-07T11:57:59.344Z</time></trkpt><trkpt lat="40.8944872" lon="9.5678254"><ele>3.0</ele><time>2026-04-07T11:58:00.344Z</time></trkpt><trkpt lat="40.8945896" lon="9.5677839"><ele>3.0</ele><time>2026-04-07T11:58:01.345Z</time></trkpt><trkpt lat="40.8946739" lon="9.5677155"><ele>3.0</ele><time>2026-04-07T11:58:02.345Z</time></trkpt><trkpt lat="40.8947438" lon="9.5676256"><ele>3.0</ele><time>2026-04-07T11:58:03.345Z</time></trkpt><trkpt lat="40.8947924" lon="9.5675091"><ele>3.0</ele><time>2026-04-07T11:58:04.344Z</time></trkpt><trkpt lat="40.894825" lon="9.5673656"><ele>3.0</ele><time>2026-04-07T11:58:05.345Z</time></trkpt><trkpt lat="40.8948835" lon="9.5672223"><ele>3.0</ele><time>2026-04-07T11:58:06.345Z</time></trkpt><trkpt lat="40.8949743" lon="9.5670913"><ele>3.0</ele><time>2026-04-07T11:58:07.344Z</time></trkpt><trkpt lat="40.8950768" lon="9.5669521"><ele>3.0</ele><time>2026-04-07T11:58:08.344Z</time></trkpt><trkpt lat="40.8951902" lon="9.5668037"><ele>3.0</ele><time>2026-04-07T11:58:09.345Z</time></trkpt><trkpt lat="40.8953113" lon="9.5666511"><ele>3.0</ele><time>2026-04-07T11:58:10.344Z</time></trkpt><trkpt lat="40.895441" lon="9.566488"><ele>3.0</ele><time>2026-04-07T11:58:11.344Z</time></trkpt><trkpt lat="40.8955729" lon="9.566316"><ele>3.0</ele><time>2026-04-07T11:58:12.344Z</time></trkpt><trkpt lat="40.8957108" lon="9.566149"><ele>3.0</ele><time>2026-04-07T11:58:13.345Z</time></trkpt><trkpt lat="40.8958405" lon="9.5659956"><ele>3.0</ele><time>2026-04-07T11:58:14.345Z</time></trkpt><trkpt lat="40.8959618" lon="9.5658469"><ele>3.0</ele><time>2026-04-07T11:58:15.344Z</time></trkpt><trkpt lat="40.8960787" lon="9.5657053"><ele>3.0</ele><time>2026-04-07T11:58:16.344Z</time></trkpt><trkpt lat="40.8961806" lon="9.5655776"><ele>3.0</ele><time>2026-04-07T11:58:17.344Z</time></trkpt><trkpt lat="40.8962817" lon="9.5654528"><ele>3.0</ele><time>2026-04-07T11:58:18.344Z</time></trkpt><trkpt lat="40.8963739" lon="9.56534"><ele>3.0</ele><time>2026-04-07T11:58:19.345Z</time></trkpt><trkpt lat="40.8964775" lon="9.5652163"><ele>3.0</ele><time>2026-04-07T11:58:20.345Z</time></trkpt><trkpt lat="40.8965907" lon="9.5650803"><ele>3.0</ele><time>2026-04-07T11:58:21.345Z</time></trkpt><trkpt lat="40.896712" lon="9.5649303"><ele>3.0</ele><time>2026-04-07T11:58:22.345Z</time></trkpt><trkpt lat="40.8968431" lon="9.5647642"><ele>2.6666666666666665</ele><time>2026-04-07T11:58:23.345Z</time></trkpt><trkpt lat="40.896984" lon="9.5645942"><ele>2.333333333333333</ele><time>2026-04-07T11:58:24.345Z</time></trkpt><trkpt lat="40.8971351" lon="9.5644179"><ele>2.0</ele><time>2026-04-07T11:58:25.345Z</time></trkpt><trkpt lat="40.8972889" lon="9.5642277"><ele>2.0</ele><time>2026-04-07T11:58:26.344Z</time></trkpt><trkpt lat="40.8974517" lon="9.5640324"><ele>2.0</ele><time>2026-04-07T11:58:27.344Z</time></trkpt><trkpt lat="40.8976196" lon="9.5638334"><ele>2.0</ele><time>2026-04-07T11:58:28.345Z</time></trkpt><trkpt lat="40.8977914" lon="9.5636283"><ele>2.5</ele><time>2026-04-07T11:58:29.345Z</time></trkpt><trkpt lat="40.8979639" lon="9.5634229"><ele>3.0</ele><time>2026-04-07T11:58:30.345Z</time></trkpt><trkpt lat="40.8981378" lon="9.5632157"><ele>3.0</ele><time>2026-04-07T11:58:31.345Z</time></trkpt><trkpt lat="40.8983141" lon="9.5630032"><ele>3.0</ele><time>2026-04-07T11:58:32.344Z</time></trkpt><trkpt lat="40.8984973" lon="9.562795"><ele>3.5</ele><time>2026-04-07T11:58:33.345Z</time></trkpt><trkpt lat="40.8986785" lon="9.5625798"><ele>4.0</ele><time>2026-04-07T11:58:34.344Z</time></trkpt><trkpt lat="40.8988587" lon="9.5623656"><ele>4.0</ele><time>2026-04-07T11:58:35.345Z</time></trkpt><trkpt lat="40.8990377" lon="9.5621492"><ele>4.0</ele><time>2026-04-07T11:58:36.345Z</time></trkpt><trkpt lat="40.8992174" lon="9.5619308"><ele>4.0</ele><time>2026-04-07T11:58:37.345Z</time></trkpt><trkpt lat="40.8994017" lon="9.5617142"><ele>4.0</ele><time>2026-04-07T11:58:38.345Z</time></trkpt><trkpt lat="40.8995829" lon="9.5614962"><ele>4.0</ele><time>2026-04-07T11:58:39.345Z</time></trkpt><trkpt lat="40.8997603" lon="9.5612794"><ele>4.0</ele><time>2026-04-07T11:58:40.345Z</time></trkpt><trkpt lat="40.8999331" lon="9.5610674"><ele>4.5</ele><time>2026-04-07T11:58:41.345Z</time></trkpt><trkpt lat="40.9001012" lon="9.5608603"><ele>5.0</ele><time>2026-04-07T11:58:42.345Z</time></trkpt><trkpt lat="40.9002731" lon="9.5606512"><ele>5.0</ele><time>2026-04-07T11:58:43.345Z</time></trkpt><trkpt lat="40.9004466" lon="9.560443"><ele>5.0</ele><time>2026-04-07T11:58:44.345Z</time></trkpt><trkpt lat="40.9006214" lon="9.5602345"><ele>5.5</ele><time>2026-04-07T11:58:45.345Z</time></trkpt><trkpt lat="40.900796" lon="9.5600197"><ele>6.0</ele><time>2026-04-07T11:58:46.345Z</time></trkpt><trkpt lat="40.9009682" lon="9.5598135"><ele>7.0</ele><time>2026-04-07T11:58:47.345Z</time></trkpt><trkpt lat="40.9011323" lon="9.5596204"><ele>8.0</ele><time>2026-04-07T11:58:48.344Z</time></trkpt><trkpt lat="40.9012893" lon="9.5594351"><ele>9.0</ele><time>2026-04-07T11:58:49.345Z</time></trkpt><trkpt lat="40.9014386" lon="9.5592564"><ele>9.0</ele><time>2026-04-07T11:58:50.344Z</time></trkpt><trkpt lat="40.9015831" lon="9.559078"><ele>9.0</ele><time>2026-04-07T11:58:51.344Z</time></trkpt><trkpt lat="40.9017266" lon="9.558897"><ele>9.0</ele><time>2026-04-07T11:58:52.345Z</time></trkpt><trkpt lat="40.9018658" lon="9.558728"><ele>9.333333333333334</ele><time>2026-04-07T11:58:53.345Z</time></trkpt><trkpt lat="40.9020005" lon="9.5585615"><ele>9.666666666666668</ele><time>2026-04-07T11:58:54.344Z</time></trkpt><trkpt lat="40.9021409" lon="9.5583965"><ele>10.0</ele><time>2026-04-07T11:58:55.345Z</time></trkpt><trkpt lat="40.9022717" lon="9.5582363"><ele>10.0</ele><time>2026-04-07T11:58:56.345Z</time></trkpt><trkpt lat="40.9024004" lon="9.5580834"><ele>10.0</ele><time>2026-04-07T11:58:57.344Z</time></trkpt><trkpt lat="40.9025242" lon="9.5579325"><ele>10.0</ele><time>2026-04-07T11:58:58.344Z</time></trkpt><trkpt lat="40.9026532" lon="9.5577847"><ele>11.333333333333334</ele><time>2026-04-07T11:58:59.345Z</time></trkpt><trkpt lat="40.9027816" lon="9.557637"><ele>12.666666666666668</ele><time>2026-04-07T11:59:00.344Z</time></trkpt><trkpt lat="40.9028971" lon="9.5574947"><ele>14.0</ele><time>2026-04-07T11:59:01.345Z</time></trkpt><trkpt lat="40.9030108" lon="9.5573644"><ele>14.0</ele><time>2026-04-07T11:59:02.345Z</time></trkpt><trkpt lat="40.9031184" lon="9.557243"><ele>14.0</ele><time>2026-04-07T11:59:03.344Z</time></trkpt><trkpt lat="40.9032284" lon="9.5571274"><ele>14.0</ele><time>2026-04-07T11:59:04.345Z</time></trkpt><trkpt lat="40.9033444" lon="9.5570174"><ele>14.0</ele><time>2026-04-07T11:59:05.345Z</time></trkpt><trkpt lat="40.9034614" lon="9.5569043"><ele>13.25</ele><time>2026-04-07T11:59:06.345Z</time></trkpt><trkpt lat="40.9035775" lon="9.5567877"><ele>12.5</ele><time>2026-04-07T11:59:07.344Z</time></trkpt><trkpt lat="40.903695" lon="9.5566682"><ele>11.75</ele><time>2026-04-07T11:59:08.345Z</time></trkpt><trkpt lat="40.9038057" lon="9.55653"><ele>11.0</ele><time>2026-04-07T11:59:09.344Z</time></trkpt><trkpt lat="40.9039064" lon="9.5563636"><ele>10.0</ele><time>2026-04-07T11:59:10.344Z</time></trkpt><trkpt lat="40.9039936" lon="9.556169"><ele>9.0</ele><time>2026-04-07T11:59:11.344Z</time></trkpt><trkpt lat="40.9040775" lon="9.5559641"><ele>8.0</ele><time>2026-04-07T11:59:12.345Z</time></trkpt><trkpt lat="40.9041666" lon="9.5557693"><ele>8.0</ele><time>2026-04-07T11:59:13.345Z</time></trkpt><trkpt lat="40.9042442" lon="9.5555826"><ele>8.0</ele><time>2026-04-07T11:59:14.345Z</time></trkpt><trkpt lat="40.9043026" lon="9.5553959"><ele>8.0</ele><time>2026-04-07T11:59:15.345Z</time></trkpt><trkpt lat="40.9043172" lon="9.5552075"><ele>8.0</ele><time>2026-04-07T11:59:16.345Z</time></trkpt><trkpt lat="40.9042887" lon="9.555005"><ele>8.0</ele><time>2026-04-07T11:59:17.344Z</time></trkpt><trkpt lat="40.9042325" lon="9.5547979"><ele>8.0</ele><time>2026-04-07T11:59:18.345Z</time></trkpt><trkpt lat="40.9041918" lon="9.5545779"><ele>7.333333333333333</ele><time>2026-04-07T11:59:19.345Z</time></trkpt><trkpt lat="40.9041673" lon="9.554347"><ele>6.666666666666666</ele><time>2026-04-07T11:59:20.345Z</time></trkpt><trkpt lat="40.9041537" lon="9.5541247"><ele>6.0</ele><time>2026-04-07T11:59:21.344Z</time></trkpt><trkpt lat="40.9041327" lon="9.5539119"><ele>4.666666666666667</ele><time>2026-04-07T11:59:22.344Z</time></trkpt><trkpt lat="40.9040975" lon="9.5537023"><ele>3.333333333333333</ele><time>2026-04-07T11:59:23.344Z</time></trkpt><trkpt lat="40.9040478" lon="9.5535038"><ele>2.0</ele><time>2026-04-07T11:59:24.345Z</time></trkpt><trkpt lat="40.9039684" lon="9.5533332"><ele>2.0</ele><time>2026-04-07T11:59:25.345Z</time></trkpt><trkpt lat="40.9038694" lon="9.5531846"><ele>2.0</ele><time>2026-04-07T11:59:26.345Z</time></trkpt><trkpt lat="40.9037777" lon="9.5530439"><ele>2.0</ele><time>2026-04-07T11:59:27.344Z</time></trkpt><trkpt lat="40.9036877" lon="9.5528989"><ele>2.0</ele><time>2026-04-07T11:59:28.344Z</time></trkpt><trkpt lat="40.9036172" lon="9.5527502"><ele>1.75</ele><time>2026-04-07T11:59:29.345Z</time></trkpt><trkpt lat="40.9035681" lon="9.5525878"><ele>1.5</ele><time>2026-04-07T11:59:30.345Z</time></trkpt><trkpt lat="40.9035542" lon="9.5524124"><ele>1.25</ele><time>2026-04-07T11:59:31.345Z</time></trkpt><trkpt lat="40.9035631" lon="9.5522289"><ele>1.0</ele><time>2026-04-07T11:59:32.345Z</time></trkpt><trkpt lat="40.9035808" lon="9.5520525"><ele>1.5</ele><time>2026-04-07T11:59:33.345Z</time></trkpt><trkpt lat="40.9035927" lon="9.5518673"><ele>2.0</ele><time>2026-04-07T11:59:34.345Z</time></trkpt><trkpt lat="40.9035806" lon="9.5516995"><ele>2.5</ele><time>2026-04-07T11:59:35.344Z</time></trkpt><trkpt lat="40.9035544" lon="9.5515424"><ele>3.0</ele><time>2026-04-07T11:59:36.345Z</time></trkpt><trkpt lat="40.9035214" lon="9.5513851"><ele>3.0</ele><time>2026-04-07T11:59:37.345Z</time></trkpt><trkpt lat="40.9034832" lon="9.5512316"><ele>3.0</ele><time>2026-04-07T11:59:38.344Z</time></trkpt><trkpt lat="40.9034398" lon="9.5510783"><ele>3.0</ele><time>2026-04-07T11:59:39.345Z</time></trkpt><trkpt lat="40.9033945" lon="9.5509207"><ele>3.0</ele><time>2026-04-07T11:59:40.345Z</time></trkpt><trkpt lat="40.9033537" lon="9.5507561"><ele>3.0</ele><time>2026-04-07T11:59:41.345Z</time></trkpt><trkpt lat="40.9033064" lon="9.5505764"><ele>3.0</ele><time>2026-04-07T11:59:42.345Z</time></trkpt><trkpt lat="40.9032558" lon="9.550389"><ele>3.0</ele><time>2026-04-07T11:59:43.345Z</time></trkpt><trkpt lat="40.9032093" lon="9.5501904"><ele>3.0</ele><time>2026-04-07T11:59:44.345Z</time></trkpt><trkpt lat="40.9031599" lon="9.5499824"><ele>3.0</ele><time>2026-04-07T11:59:45.345Z</time></trkpt><trkpt lat="40.9031036" lon="9.5497747"><ele>3.0</ele><time>2026-04-07T11:59:46.344Z</time></trkpt><trkpt lat="40.9030485" lon="9.5495613"><ele>3.0</ele><time>2026-04-07T11:59:47.344Z</time></trkpt><trkpt lat="40.902991" lon="9.5493454"><ele>3.0</ele><time>2026-04-07T11:59:48.345Z</time></trkpt><trkpt lat="40.9029344" lon="9.5491231"><ele>3.0</ele><time>2026-04-07T11:59:49.345Z</time></trkpt><trkpt lat="40.9028729" lon="9.5488865"><ele>3.333333333333333</ele><time>2026-04-07T11:59:50.344Z</time></trkpt><trkpt lat="40.9028105" lon="9.5486435"><ele>3.6666666666666665</ele><time>2026-04-07T11:59:51.345Z</time></trkpt><trkpt lat="40.9027434" lon="9.5483945"><ele>4.0</ele><time>2026-04-07T11:59:52.345Z</time></trkpt><trkpt lat="40.9026613" lon="9.5481504"><ele>4.0</ele><time>2026-04-07T11:59:53.345Z</time></trkpt><trkpt lat="40.9025507" lon="9.5479207"><ele>4.0</ele><time>2026-04-07T11:59:54.345Z</time></trkpt><trkpt lat="40.9024296" lon="9.5477003"><ele>4.0</ele><time>2026-04-07T11:59:55.345Z</time></trkpt><trkpt lat="40.902304" lon="9.5474776"><ele>4.0</ele><time>2026-04-07T11:59:56.344Z</time></trkpt><trkpt lat="40.9021843" lon="9.5472508"><ele>4.0</ele><time>2026-04-07T11:59:57.345Z</time></trkpt><trkpt lat="40.9020803" lon="9.5470105"><ele>4.0</ele><time>2026-04-07T11:59:58.345Z</time></trkpt><trkpt lat="40.9019887" lon="9.5467557"><ele>4.0</ele><time>2026-04-07T11:59:59.344Z</time></trkpt><trkpt lat="40.9018951" lon="9.5465081"><ele>4.0</ele><time>2026-04-07T12:00:00.344Z</time></trkpt><trkpt lat="40.9018102" lon="9.546274"><ele>4.0</ele><time>2026-04-07T12:00:01.345Z</time></trkpt><trkpt lat="40.9017415" lon="9.5460363"><ele>5.666666666666666</ele><time>2026-04-07T12:00:02.345Z</time></trkpt><trkpt lat="40.9016828" lon="9.5458089"><ele>7.333333333333333</ele><time>2026-04-07T12:00:03.345Z</time></trkpt><trkpt lat="40.9016169" lon="9.5456035"><ele>9.0</ele><time>2026-04-07T12:00:04.344Z</time></trkpt><trkpt lat="40.9015197" lon="9.5454272"><ele>7.333333333333333</ele><time>2026-04-07T12:00:05.345Z</time></trkpt><trkpt lat="40.9014122" lon="9.5452644"><ele>5.666666666666666</ele><time>2026-04-07T12:00:06.345Z</time></trkpt><trkpt lat="40.9013151" lon="9.5450878"><ele>4.0</ele><time>2026-04-07T12:00:07.344Z</time></trkpt><trkpt lat="40.9012195" lon="9.5448995"><ele>4.0</ele><time>2026-04-07T12:00:08.344Z</time></trkpt><trkpt lat="40.9011222" lon="9.5446992"><ele>4.0</ele><time>2026-04-07T12:00:09.345Z</time></trkpt><trkpt lat="40.9010308" lon="9.5444938"><ele>4.0</ele><time>2026-04-07T12:00:10.344Z</time></trkpt><trkpt lat="40.9009436" lon="9.5442939"><ele>5.0</ele><time>2026-04-07T12:00:11.345Z</time></trkpt><trkpt lat="40.9008533" lon="9.544098"><ele>6.0</ele><time>2026-04-07T12:00:12.345Z</time></trkpt><trkpt lat="40.9007678" lon="9.5439081"><ele>7.0</ele><time>2026-04-07T12:00:13.344Z</time></trkpt><trkpt lat="40.9006891" lon="9.5437257"><ele>6.0</ele><time>2026-04-07T12:00:14.345Z</time></trkpt><trkpt lat="40.9006179" lon="9.5435399"><ele>5.0</ele><time>2026-04-07T12:00:15.345Z</time></trkpt><trkpt lat="40.9005615" lon="9.5433525"><ele>4.0</ele><time>2026-04-07T12:00:16.345Z</time></trkpt><trkpt lat="40.9005287" lon="9.5431691"><ele>4.0</ele><time>2026-04-07T12:00:17.345Z</time></trkpt><trkpt lat="40.9005187" lon="9.5429901"><ele>4.0</ele><time>2026-04-07T12:00:18.345Z</time></trkpt><trkpt lat="40.9005219" lon="9.5428137"><ele>4.0</ele><time>2026-04-07T12:00:19.345Z</time></trkpt><trkpt lat="40.9005279" lon="9.5426508"><ele>4.0</ele><time>2026-04-07T12:00:20.345Z</time></trkpt><trkpt lat="40.9005482" lon="9.5424939"><ele>3.75</ele><time>2026-04-07T12:00:21.345Z</time></trkpt><trkpt lat="40.9005868" lon="9.5423435"><ele>3.5</ele><time>2026-04-07T12:00:22.345Z</time></trkpt><trkpt lat="40.9006572" lon="9.5421977"><ele>3.25</ele><time>2026-04-07T12:00:23.344Z</time></trkpt><trkpt lat="40.90075" lon="9.5420593"><ele>3.0</ele><time>2026-04-07T12:00:24.345Z</time></trkpt><trkpt lat="40.9008519" lon="9.5419194"><ele>3.0</ele><time>2026-04-07T12:00:25.345Z</time></trkpt><trkpt lat="40.9009604" lon="9.5417733"><ele>3.0</ele><time>2026-04-07T12:00:26.344Z</time></trkpt><trkpt lat="40.9010735" lon="9.5416185"><ele>3.0</ele><time>2026-04-07T12:00:27.344Z</time></trkpt><trkpt lat="40.9011966" lon="9.5414559"><ele>3.0</ele><time>2026-04-07T12:00:28.345Z</time></trkpt><trkpt lat="40.9013217" lon="9.5412862"><ele>3.0</ele><time>2026-04-07T12:00:29.345Z</time></trkpt><trkpt lat="40.9014495" lon="9.5411125"><ele>3.0</ele><time>2026-04-07T12:00:30.345Z</time></trkpt><trkpt lat="40.9015834" lon="9.5409348"><ele>3.0</ele><time>2026-04-07T12:00:31.345Z</time></trkpt><trkpt lat="40.9017174" lon="9.5407503"><ele>3.0</ele><time>2026-04-07T12:00:32.344Z</time></trkpt><trkpt lat="40.901849" lon="9.5405751"><ele>3.0</ele><time>2026-04-07T12:00:33.344Z</time></trkpt><trkpt lat="40.9019773" lon="9.5404045"><ele>3.666666666666667</ele><time>2026-04-07T12:00:34.345Z</time></trkpt><trkpt lat="40.9021044" lon="9.5402401"><ele>4.333333333333334</ele><time>2026-04-07T12:00:35.345Z</time></trkpt><trkpt lat="40.90223" lon="9.5400723"><ele>5.0</ele><time>2026-04-07T12:00:36.345Z</time></trkpt><trkpt lat="40.9023543" lon="9.5399085"><ele>5.0</ele><time>2026-04-07T12:00:37.344Z</time></trkpt><trkpt lat="40.9024789" lon="9.5397481"><ele>5.0</ele><time>2026-04-07T12:00:38.344Z</time></trkpt><trkpt lat="40.9026011" lon="9.5395804"><ele>5.0</ele><time>2026-04-07T12:00:39.345Z</time></trkpt><trkpt lat="40.9027247" lon="9.5394161"><ele>4.333333333333334</ele><time>2026-04-07T12:00:40.345Z</time></trkpt><trkpt lat="40.9028518" lon="9.5392452"><ele>3.666666666666667</ele><time>2026-04-07T12:00:41.345Z</time></trkpt><trkpt lat="40.9029815" lon="9.5390849"><ele>3.0</ele><time>2026-04-07T12:00:42.345Z</time></trkpt><trkpt lat="40.9031012" lon="9.5389175"><ele>3.0</ele><time>2026-04-07T12:00:43.345Z</time></trkpt><trkpt lat="40.90322" lon="9.5387595"><ele>3.0</ele><time>2026-04-07T12:00:44.345Z</time></trkpt><trkpt lat="40.9033387" lon="9.5386039"><ele>3.0</ele><time>2026-04-07T12:00:45.345Z</time></trkpt><trkpt lat="40.9034529" lon="9.5384552"><ele>2.0</ele><time>2026-04-07T12:00:46.344Z</time></trkpt><trkpt lat="40.9035592" lon="9.5383092"><ele>1.0</ele><time>2026-04-07T12:00:47.344Z</time></trkpt><trkpt lat="40.9036643" lon="9.5381646"><ele>0.0</ele><time>2026-04-07T12:00:48.345Z</time></trkpt><trkpt lat="40.9037714" lon="9.538024"><ele>0.6666666666666666</ele><time>2026-04-07T12:00:49.345Z</time></trkpt><trkpt lat="40.9038795" lon="9.5378787"><ele>1.3333333333333333</ele><time>2026-04-07T12:00:50.345Z</time></trkpt><trkpt lat="40.9039909" lon="9.5377395"><ele>2.0</ele><time>2026-04-07T12:00:51.345Z</time></trkpt><trkpt lat="40.9040972" lon="9.5375979"><ele>2.0</ele><time>2026-04-07T12:00:52.345Z</time></trkpt><trkpt lat="40.9041998" lon="9.5374625"><ele>2.0</ele><time>2026-04-07T12:00:53.345Z</time></trkpt><trkpt lat="40.9042991" lon="9.5373311"><ele>2.0</ele><time>2026-04-07T12:00:54.344Z</time></trkpt><trkpt lat="40.904401" lon="9.5371981"><ele>2.0</ele><time>2026-04-07T12:00:55.345Z</time></trkpt><trkpt lat="40.9045071" lon="9.5370624"><ele>2.0</ele><time>2026-04-07T12:00:56.344Z</time></trkpt><trkpt lat="40.9046211" lon="9.5369305"><ele>2.0</ele><time>2026-04-07T12:00:57.344Z</time></trkpt><trkpt lat="40.9047366" lon="9.5367933"><ele>2.0</ele><time>2026-04-07T12:00:58.345Z</time></trkpt><trkpt lat="40.9048566" lon="9.536654"><ele>2.0</ele><time>2026-04-07T12:00:59.344Z</time></trkpt><trkpt lat="40.9049798" lon="9.5365252"><ele>2.0</ele><time>2026-04-07T12:01:00.344Z</time></trkpt><trkpt lat="40.9051106" lon="9.5364111"><ele>2.0</ele><time>2026-04-07T12:01:01.345Z</time></trkpt><trkpt lat="40.9052459" lon="9.5363146"><ele>2.0</ele><time>2026-04-07T12:01:02.345Z</time></trkpt><trkpt lat="40.9053893" lon="9.5362362"><ele>2.0</ele><time>2026-04-07T12:01:03.345Z</time></trkpt><trkpt lat="40.9055437" lon="9.5361788"><ele>2.0</ele><time>2026-04-07T12:01:04.345Z</time></trkpt><trkpt lat="40.9057028" lon="9.536136"><ele>2.0</ele><time>2026-04-07T12:01:05.345Z</time></trkpt><trkpt lat="40.9058708" lon="9.5361198"><ele>2.0</ele><time>2026-04-07T12:01:06.344Z</time></trkpt><trkpt lat="40.90604" lon="9.5361244"><ele>2.0</ele><time>2026-04-07T12:01:07.345Z</time></trkpt><trkpt lat="40.9062093" lon="9.5361475"><ele>1.3333333333333333</ele><time>2026-04-07T12:01:08.345Z</time></trkpt><trkpt lat="40.9063739" lon="9.5361907"><ele>0.6666666666666666</ele><time>2026-04-07T12:01:09.345Z</time></trkpt><trkpt lat="40.9065376" lon="9.5362635"><ele>0.0</ele><time>2026-04-07T12:01:10.345Z</time></trkpt><trkpt lat="40.9067039" lon="9.5363417"><ele>0.3333333333333333</ele><time>2026-04-07T12:01:11.345Z</time></trkpt><trkpt lat="40.906878" lon="9.5364002"><ele>0.6666666666666666</ele><time>2026-04-07T12:01:12.344Z</time></trkpt><trkpt lat="40.9070447" lon="9.5364374"><ele>1.0</ele><time>2026-04-07T12:01:13.345Z</time></trkpt><trkpt lat="40.9072152" lon="9.5364488"><ele>1.0</ele><time>2026-04-07T12:01:14.344Z</time></trkpt><trkpt lat="40.9073794" lon="9.536448"><ele>1.0</ele><time>2026-04-07T12:01:15.344Z</time></trkpt><trkpt lat="40.9075466" lon="9.5364269"><ele>1.0</ele><time>2026-04-07T12:01:16.344Z</time></trkpt><trkpt lat="40.9077061" lon="9.5363892"><ele>0.6666666666666666</ele><time>2026-04-07T12:01:17.345Z</time></trkpt><trkpt lat="40.9078608" lon="9.5363273"><ele>0.3333333333333333</ele><time>2026-04-07T12:01:18.345Z</time></trkpt><trkpt lat="40.9080095" lon="9.5362524"><ele>0.0</ele><time>2026-04-07T12:01:19.345Z</time></trkpt><trkpt lat="40.9081575" lon="9.5361519"><ele>1.3333333333333333</ele><time>2026-04-07T12:01:20.345Z</time></trkpt><trkpt lat="40.9083019" lon="9.5360296"><ele>2.6666666666666665</ele><time>2026-04-07T12:01:21.345Z</time></trkpt><trkpt lat="40.9084344" lon="9.5358911"><ele>4.0</ele><time>2026-04-07T12:01:22.345Z</time></trkpt><trkpt lat="40.9085559" lon="9.5357356"><ele>6.0</ele><time>2026-04-07T12:01:23.344Z</time></trkpt><trkpt lat="40.9086684" lon="9.5355629"><ele>8.0</ele><time>2026-04-07T12:01:24.345Z</time></trkpt><trkpt lat="40.9087707" lon="9.5353695"><ele>10.0</ele><time>2026-04-07T12:01:25.344Z</time></trkpt><trkpt lat="40.9088659" lon="9.5351589"><ele>12.0</ele><time>2026-04-07T12:01:26.345Z</time></trkpt><trkpt lat="40.9089375" lon="9.5349446"><ele>14.0</ele><time>2026-04-07T12:01:27.344Z</time></trkpt><trkpt lat="40.9089961" lon="9.5347261"><ele>16.0</ele><time>2026-04-07T12:01:28.344Z</time></trkpt><trkpt lat="40.9090335" lon="9.5344965"><ele>17.333333333333332</ele><time>2026-04-07T12:01:29.345Z</time></trkpt><trkpt lat="40.9090612" lon="9.5342615"><ele>18.666666666666668</ele><time>2026-04-07T12:01:30.345Z</time></trkpt><trkpt lat="40.9090635" lon="9.5340119"><ele>20.0</ele><time>2026-04-07T12:01:31.344Z</time></trkpt><trkpt lat="40.9090465" lon="9.5337575"><ele>18.0</ele><time>2026-04-07T12:01:32.345Z</time></trkpt><trkpt lat="40.9090128" lon="9.5334995"><ele>16.0</ele><time>2026-04-07T12:01:33.345Z</time></trkpt><trkpt lat="40.9089616" lon="9.5332324"><ele>14.0</ele><time>2026-04-07T12:01:34.345Z</time></trkpt><trkpt lat="40.9089062" lon="9.5329624"><ele>13.333333333333334</ele><time>2026-04-07T12:01:35.345Z</time></trkpt><trkpt lat="40.9088502" lon="9.532682"><ele>12.666666666666668</ele><time>2026-04-07T12:01:36.345Z</time></trkpt><trkpt lat="40.9087905" lon="9.5323956"><ele>12.0</ele><time>2026-04-07T12:01:37.345Z</time></trkpt><trkpt lat="40.9087269" lon="9.532102"><ele>11.5</ele><time>2026-04-07T12:01:38.344Z</time></trkpt><trkpt lat="40.9086648" lon="9.5318038"><ele>11.0</ele><time>2026-04-07T12:01:39.345Z</time></trkpt><trkpt lat="40.9086012" lon="9.5315027"><ele>10.666666666666666</ele><time>2026-04-07T12:01:40.345Z</time></trkpt><trkpt lat="40.9085456" lon="9.5312208"><ele>10.333333333333334</ele><time>2026-04-07T12:01:41.345Z</time></trkpt><trkpt lat="40.9084903" lon="9.5309515"><ele>10.0</ele><time>2026-04-07T12:01:42.345Z</time></trkpt><trkpt lat="40.9084414" lon="9.5307173"><ele>10.0</ele><time>2026-04-07T12:01:43.344Z</time></trkpt><trkpt lat="40.9083891" lon="9.5305037"><ele>10.0</ele><time>2026-04-07T12:01:44.345Z</time></trkpt><trkpt lat="40.9083404" lon="9.5303003"><ele>10.0</ele><time>2026-04-07T12:01:45.345Z</time></trkpt><trkpt lat="40.9082962" lon="9.5301054"><ele>9.25</ele><time>2026-04-07T12:01:46.344Z</time></trkpt><trkpt lat="40.9082522" lon="9.5299072"><ele>8.5</ele><time>2026-04-07T12:01:47.345Z</time></trkpt><trkpt lat="40.9082083" lon="9.5297242"><ele>7.75</ele><time>2026-04-07T12:01:48.345Z</time></trkpt><trkpt lat="40.9081716" lon="9.5295408"><ele>7.0</ele><time>2026-04-07T12:01:49.344Z</time></trkpt><trkpt lat="40.9081314" lon="9.5293502"><ele>7.0</ele><time>2026-04-07T12:01:50.344Z</time></trkpt><trkpt lat="40.9080878" lon="9.5291531"><ele>7.0</ele><time>2026-04-07T12:01:51.345Z</time></trkpt><trkpt lat="40.9080463" lon="9.5289618"><ele>7.0</ele><time>2026-04-07T12:01:52.345Z</time></trkpt><trkpt lat="40.9080086" lon="9.5287696"><ele>7.333333333333334</ele><time>2026-04-07T12:01:53.345Z</time></trkpt><trkpt lat="40.9079691" lon="9.528576"><ele>7.666666666666666</ele><time>2026-04-07T12:01:54.344Z</time></trkpt><trkpt lat="40.907925" lon="9.5283732"><ele>8.0</ele><time>2026-04-07T12:01:55.344Z</time></trkpt><trkpt lat="40.9078912" lon="9.5281763"><ele>8.0</ele><time>2026-04-07T12:01:56.344Z</time></trkpt><trkpt lat="40.90787" lon="9.5279906"><ele>8.0</ele><time>2026-04-07T12:01:57.345Z</time></trkpt><trkpt lat="40.9078586" lon="9.5278125"><ele>8.0</ele><time>2026-04-07T12:01:58.344Z</time></trkpt><trkpt lat="40.907857" lon="9.5276427"><ele>8.0</ele><time>2026-04-07T12:01:59.344Z</time></trkpt><trkpt lat="40.9078601" lon="9.5274915"><ele>8.4</ele><time>2026-04-07T12:02:00.345Z</time></trkpt><trkpt lat="40.9078728" lon="9.5273529"><ele>8.8</ele><time>2026-04-07T12:02:01.345Z</time></trkpt><trkpt lat="40.90788" lon="9.5272206"><ele>9.2</ele><time>2026-04-07T12:02:02.344Z</time></trkpt><trkpt lat="40.907891" lon="9.5270928"><ele>9.6</ele><time>2026-04-07T12:02:03.345Z</time></trkpt><trkpt lat="40.9078997" lon="9.5269854"><ele>10.0</ele><time>2026-04-07T12:02:04.344Z</time></trkpt><trkpt lat="40.9079282" lon="9.5268425"><ele>10.428571428571429</ele><time>2026-04-07T12:02:06.345Z</time></trkpt><trkpt lat="40.9079736" lon="9.5267724"><ele>10.857142857142858</ele><time>2026-04-07T12:02:08.345Z</time></trkpt><trkpt lat="40.9080009" lon="9.5266912"><ele>11.285714285714285</ele><time>2026-04-07T12:02:11.344Z</time></trkpt><trkpt lat="40.9079996" lon="9.5266058"><ele>11.714285714285715</ele><time>2026-04-07T12:02:13.345Z</time></trkpt><trkpt lat="40.9079989" lon="9.526495"><ele>12.142857142857144</ele><time>2026-04-07T12:02:16.344Z</time></trkpt><trkpt lat="40.9079985" lon="9.526393"><ele>12.571428571428571</ele><time>2026-04-07T12:02:19.344Z</time></trkpt><trkpt lat="40.9080163" lon="9.5263065"><ele>13.0</ele><time>2026-04-07T12:02:22.345Z</time></trkpt><trkpt lat="40.9080744" lon="9.5262661"><ele>12.999999999999998</ele><time>2026-04-07T12:02:25.345Z</time></trkpt><trkpt lat="40.9081424" lon="9.5262993"><ele>13.0</ele><time>2026-04-07T12:02:28.344Z</time></trkpt><trkpt lat="40.9081641" lon="9.5264003"><ele>13.0</ele><time>2026-04-07T12:02:31.345Z</time></trkpt><trkpt lat="40.9081409" lon="9.5264875"><ele>13.0</ele><time>2026-04-07T12:02:34.345Z</time></trkpt><trkpt lat="40.9081318" lon="9.5265814"><ele>12.999999999999998</ele><time>2026-04-07T12:02:37.345Z</time></trkpt><trkpt lat="40.9080498" lon="9.5266216"><ele>13.0</ele><time>2026-04-07T12:02:40.345Z</time></trkpt><trkpt lat="40.9080329" lon="9.5265202"><ele>12.999999999999998</ele><time>2026-04-07T12:02:41.344Z</time></trkpt><trkpt lat="40.9080309" lon="9.5264152"><ele>13.0</ele><time>2026-04-07T12:02:43.345Z</time></trkpt><trkpt lat="40.9080636" lon="9.526339"><ele>13.0</ele><time>2026-04-07T12:02:45.345Z</time></trkpt><trkpt lat="40.9081563" lon="9.5263534"><ele>13.0</ele><time>2026-04-07T12:02:48.345Z</time></trkpt><trkpt lat="40.9082187" lon="9.5263666"><ele>12.999999999999998</ele><time>2026-04-07T12:02:52.344Z</time></trkpt><trkpt lat="40.9082808" lon="9.5263177"><ele>13.0</ele><time>2026-04-07T12:03:04.345Z</time></trkpt><trkpt lat="40.9082606" lon="9.5262089"><ele>13.0</ele><time>2026-04-07T12:03:07.344Z</time></trkpt><trkpt lat="40.9081744" lon="9.5261882"><ele>13.0</ele><time>2026-04-07T12:03:10.345Z</time></trkpt><trkpt lat="40.9080798" lon="9.5261779"><ele>13.0</ele><time>2026-04-07T12:03:13.345Z</time></trkpt><trkpt lat="40.9080096" lon="9.5261681"><ele>13.0</ele><time>2026-04-07T12:03:15.345Z</time></trkpt><trkpt lat="40.9080026" lon="9.5260588"><ele>13.0</ele><time>2026-04-07T12:03:17.345Z</time></trkpt><trkpt lat="40.9080224" lon="9.5258812"><ele>12.999999999999998</ele><time>2026-04-07T12:03:19.345Z</time></trkpt><trkpt lat="40.9080328" lon="9.5257799"><ele>13.0</ele><time>2026-04-07T12:03:20.345Z</time></trkpt><trkpt lat="40.9080419" lon="9.5256792"><ele>13.0</ele><time>2026-04-07T12:03:21.345Z</time></trkpt><trkpt lat="40.9080535" lon="9.5255688"><ele>13.0</ele><time>2026-04-07T12:03:22.345Z</time></trkpt><trkpt lat="40.9080636" lon="9.5254495"><ele>12.999999999999998</ele><time>2026-04-07T12:03:23.345Z</time></trkpt><trkpt lat="40.9080771" lon="9.5253278"><ele>13.0</ele><time>2026-04-07T12:03:24.345Z</time></trkpt><trkpt lat="40.908088" lon="9.5252024"><ele>13.0</ele><time>2026-04-07T12:03:25.344Z</time></trkpt><trkpt lat="40.9080992" lon="9.5250719"><ele>13.0</ele><time>2026-04-07T12:03:26.345Z</time></trkpt><trkpt lat="40.9081188" lon="9.524935"><ele>13.0</ele><time>2026-04-07T12:03:27.344Z</time></trkpt><trkpt lat="40.908132" lon="9.5247911"><ele>13.0</ele><time>2026-04-07T12:03:28.345Z</time></trkpt><trkpt lat="40.9081468" lon="9.5246402"><ele>13.0</ele><time>2026-04-07T12:03:29.345Z</time></trkpt><trkpt lat="40.9081823" lon="9.5243316"><ele>13.0</ele><time>2026-04-07T12:03:31.345Z</time></trkpt><trkpt lat="40.9081986" lon="9.5241859"><ele>13.0</ele><time>2026-04-07T12:03:32.345Z</time></trkpt><trkpt lat="40.9082359" lon="9.523889"><ele>13.0</ele><time>2026-04-07T12:03:34.345Z</time></trkpt><trkpt lat="40.90825" lon="9.5237424"><ele>12.4</ele><time>2026-04-07T12:03:35.345Z</time></trkpt><trkpt lat="40.9082609" lon="9.523593"><ele>11.8</ele><time>2026-04-07T12:03:36.345Z</time></trkpt><trkpt lat="40.9082781" lon="9.5234437"><ele>11.2</ele><time>2026-04-07T12:03:37.345Z</time></trkpt><trkpt lat="40.9082934" lon="9.5233001"><ele>10.6</ele><time>2026-04-07T12:03:38.345Z</time></trkpt><trkpt lat="40.9083115" lon="9.5231574"><ele>10.0</ele><time>2026-04-07T12:03:39.344Z</time></trkpt><trkpt lat="40.9083282" lon="9.5230179"><ele>10.0</ele><time>2026-04-07T12:03:40.344Z</time></trkpt><trkpt lat="40.9083374" lon="9.5228886"><ele>10.0</ele><time>2026-04-07T12:03:41.345Z</time></trkpt><trkpt lat="40.9083513" lon="9.5227705"><ele>10.0</ele><time>2026-04-07T12:03:42.345Z</time></trkpt><trkpt lat="40.9083688" lon="9.5226527"><ele>10.0</ele><time>2026-04-07T12:03:43.344Z</time></trkpt><trkpt lat="40.9083932" lon="9.5225388"><ele>10.0</ele><time>2026-04-07T12:03:44.344Z</time></trkpt><trkpt lat="40.9084245" lon="9.5224412"><ele>10.0</ele><time>2026-04-07T12:03:45.344Z</time></trkpt><trkpt lat="40.9084647" lon="9.5223504"><ele>10.0</ele><time>2026-04-07T12:03:46.345Z</time></trkpt><trkpt lat="40.9085135" lon="9.5222638"><ele>10.0</ele><time>2026-04-07T12:03:47.345Z</time></trkpt><trkpt lat="40.9085705" lon="9.5221763"><ele>10.0</ele><time>2026-04-07T12:03:48.345Z</time></trkpt><trkpt lat="40.9086316" lon="9.5220993"><ele>10.0</ele><time>2026-04-07T12:03:49.345Z</time></trkpt><trkpt lat="40.9087025" lon="9.5220348"><ele>10.0</ele><time>2026-04-07T12:03:50.345Z</time></trkpt><trkpt lat="40.9087801" lon="9.5219834"><ele>10.0</ele><time>2026-04-07T12:03:51.345Z</time></trkpt><trkpt lat="40.9088662" lon="9.5219439"><ele>9.8</ele><time>2026-04-07T12:03:52.344Z</time></trkpt><trkpt lat="40.9089531" lon="9.5219224"><ele>9.6</ele><time>2026-04-07T12:03:53.345Z</time></trkpt><trkpt lat="40.9090582" lon="9.5219256"><ele>9.4</ele><time>2026-04-07T12:03:54.344Z</time></trkpt><trkpt lat="40.9091565" lon="9.5219282"><ele>9.2</ele><time>2026-04-07T12:03:55.345Z</time></trkpt><trkpt lat="40.9092651" lon="9.5219418"><ele>9.0</ele><time>2026-04-07T12:03:56.345Z</time></trkpt><trkpt lat="40.9093703" lon="9.5219561"><ele>9.0</ele><time>2026-04-07T12:03:57.345Z</time></trkpt><trkpt lat="40.9094834" lon="9.5219741"><ele>9.0</ele><time>2026-04-07T12:03:58.345Z</time></trkpt><trkpt lat="40.9095945" lon="9.5219994"><ele>9.0</ele><time>2026-04-07T12:03:59.345Z</time></trkpt><trkpt lat="40.9097026" lon="9.5220177"><ele>9.0</ele><time>2026-04-07T12:04:00.344Z</time></trkpt><trkpt lat="40.9098093" lon="9.5220416"><ele>9.0</ele><time>2026-04-07T12:04:01.345Z</time></trkpt><trkpt lat="40.9099127" lon="9.5220637"><ele>9.4</ele><time>2026-04-07T12:04:02.345Z</time></trkpt><trkpt lat="40.9100139" lon="9.5220789"><ele>9.8</ele><time>2026-04-07T12:04:03.345Z</time></trkpt><trkpt lat="40.9101108" lon="9.5220946"><ele>10.200000000000001</ele><time>2026-04-07T12:04:04.345Z</time></trkpt><trkpt lat="40.9102048" lon="9.5221152"><ele>10.600000000000001</ele><time>2026-04-07T12:04:05.345Z</time></trkpt><trkpt lat="40.9102985" lon="9.5221298"><ele>11.0</ele><time>2026-04-07T12:04:06.344Z</time></trkpt><trkpt lat="40.9103922" lon="9.5221455"><ele>11.0</ele><time>2026-04-07T12:04:07.345Z</time></trkpt><trkpt lat="40.9104834" lon="9.5221614"><ele>11.0</ele><time>2026-04-07T12:04:08.345Z</time></trkpt><trkpt lat="40.9105834" lon="9.5221729"><ele>11.0</ele><time>2026-04-07T12:04:09.345Z</time></trkpt><trkpt lat="40.910679" lon="9.5221656"><ele>11.0</ele><time>2026-04-07T12:04:10.345Z</time></trkpt><trkpt lat="40.9107716" lon="9.5221435"><ele>11.0</ele><time>2026-04-07T12:04:11.345Z</time></trkpt><trkpt lat="40.9108571" lon="9.5221016"><ele>10.833333333333332</ele><time>2026-04-07T12:04:12.344Z</time></trkpt><trkpt lat="40.9109344" lon="9.5220471"><ele>10.666666666666666</ele><time>2026-04-07T12:04:13.345Z</time></trkpt><trkpt lat="40.9110008" lon="9.5219903"><ele>10.5</ele><time>2026-04-07T12:04:14.345Z</time></trkpt><trkpt lat="40.9110689" lon="9.5219318"><ele>10.333333333333334</ele><time>2026-04-07T12:04:15.345Z</time></trkpt><trkpt lat="40.9111388" lon="9.5218822"><ele>10.166666666666668</ele><time>2026-04-07T12:04:16.345Z</time></trkpt><trkpt lat="40.9112144" lon="9.5218324"><ele>10.0</ele><time>2026-04-07T12:04:17.345Z</time></trkpt><trkpt lat="40.9112907" lon="9.5217847"><ele>10.0</ele><time>2026-04-07T12:04:18.345Z</time></trkpt><trkpt lat="40.9113649" lon="9.5217261"><ele>10.0</ele><time>2026-04-07T12:04:19.344Z</time></trkpt><trkpt lat="40.9114366" lon="9.5216747"><ele>10.0</ele><time>2026-04-07T12:04:20.345Z</time></trkpt><trkpt lat="40.9115151" lon="9.5216259"><ele>10.0</ele><time>2026-04-07T12:04:21.345Z</time></trkpt><trkpt lat="40.9115948" lon="9.5215796"><ele>10.0</ele><time>2026-04-07T12:04:22.345Z</time></trkpt><trkpt lat="40.9116802" lon="9.5215226"><ele>10.0</ele><time>2026-04-07T12:04:23.344Z</time></trkpt><trkpt lat="40.9117681" lon="9.5214597"><ele>10.0</ele><time>2026-04-07T12:04:24.345Z</time></trkpt><trkpt lat="40.9118596" lon="9.5214008"><ele>10.0</ele><time>2026-04-07T12:04:25.345Z</time></trkpt><trkpt lat="40.9119539" lon="9.521342"><ele>10.0</ele><time>2026-04-07T12:04:26.345Z</time></trkpt><trkpt lat="40.9120501" lon="9.521274"><ele>10.0</ele><time>2026-04-07T12:04:27.345Z</time></trkpt><trkpt lat="40.9121479" lon="9.5212107"><ele>10.0</ele><time>2026-04-07T12:04:28.345Z</time></trkpt><trkpt lat="40.9122439" lon="9.5211448"><ele>9.75</ele><time>2026-04-07T12:04:29.345Z</time></trkpt><trkpt lat="40.9123461" lon="9.5210781"><ele>9.5</ele><time>2026-04-07T12:04:30.345Z</time></trkpt><trkpt lat="40.9124549" lon="9.5209986"><ele>9.25</ele><time>2026-04-07T12:04:31.345Z</time></trkpt><trkpt lat="40.9125623" lon="9.520915"><ele>9.0</ele><time>2026-04-07T12:04:32.345Z</time></trkpt><trkpt lat="40.9126679" lon="9.5208191"><ele>9.0</ele><time>2026-04-07T12:04:33.345Z</time></trkpt><trkpt lat="40.9127694" lon="9.5207189"><ele>9.0</ele><time>2026-04-07T12:04:34.345Z</time></trkpt><trkpt lat="40.9128684" lon="9.5206072"><ele>9.0</ele><time>2026-04-07T12:04:35.344Z</time></trkpt><trkpt lat="40.9129615" lon="9.5204852"><ele>9.0</ele><time>2026-04-07T12:04:36.345Z</time></trkpt><trkpt lat="40.9130466" lon="9.5203623"><ele>8.4</ele><time>2026-04-07T12:04:37.345Z</time></trkpt><trkpt lat="40.9131176" lon="9.5202376"><ele>7.800000000000001</ele><time>2026-04-07T12:04:38.345Z</time></trkpt><trkpt lat="40.9131745" lon="9.5201329"><ele>7.199999999999999</ele><time>2026-04-07T12:04:39.344Z</time></trkpt><trkpt lat="40.9132188" lon="9.5200327"><ele>6.6</ele><time>2026-04-07T12:04:40.345Z</time></trkpt><trkpt lat="40.9132536" lon="9.5199473"><ele>6.0</ele><time>2026-04-07T12:04:41.345Z</time></trkpt><trkpt lat="40.9132988" lon="9.5198204"><ele>6.0</ele><time>2026-04-07T12:04:43.345Z</time></trkpt><trkpt lat="40.9133017" lon="9.5197287"><ele>6.0</ele><time>2026-04-07T12:04:45.345Z</time></trkpt><trkpt lat="40.9132272" lon="9.5197748"><ele>6.0</ele><time>2026-04-07T12:04:49.345Z</time></trkpt><trkpt lat="40.9132244" lon="9.5199176"><ele>6.0</ele><time>2026-04-07T12:04:51.345Z</time></trkpt><trkpt lat="40.9131965" lon="9.520009"><ele>6.0</ele><time>2026-04-07T12:04:52.345Z</time></trkpt><trkpt lat="40.9131605" lon="9.5200995"><ele>6.0</ele><time>2026-04-07T12:04:53.344Z</time></trkpt><trkpt lat="40.913122" lon="9.5201895"><ele>6.0</ele><time>2026-04-07T12:04:54.345Z</time></trkpt><trkpt lat="40.9130757" lon="9.5202764"><ele>6.0</ele><time>2026-04-07T12:04:55.345Z</time></trkpt><trkpt lat="40.9130236" lon="9.5203641"><ele>6.0</ele><time>2026-04-07T12:04:56.345Z</time></trkpt><trkpt lat="40.9129681" lon="9.5204408"><ele>6.0</ele><time>2026-04-07T12:04:57.345Z</time></trkpt><trkpt lat="40.9129123" lon="9.520519"><ele>6.0</ele><time>2026-04-07T12:04:58.345Z</time></trkpt><trkpt lat="40.9128488" lon="9.5205963"><ele>6.0</ele><time>2026-04-07T12:04:59.345Z</time></trkpt><trkpt lat="40.9127838" lon="9.5206669"><ele>6.166666666666667</ele><time>2026-04-07T12:05:00.345Z</time></trkpt><trkpt lat="40.9127153" lon="9.5207329"><ele>6.333333333333334</ele><time>2026-04-07T12:05:01.344Z</time></trkpt><trkpt lat="40.9126486" lon="9.5208019"><ele>6.5</ele><time>2026-04-07T12:05:02.344Z</time></trkpt><trkpt lat="40.9125752" lon="9.5208692"><ele>6.666666666666667</ele><time>2026-04-07T12:05:03.344Z</time></trkpt><trkpt lat="40.9124974" lon="9.5209367"><ele>6.833333333333334</ele><time>2026-04-07T12:05:04.345Z</time></trkpt><trkpt lat="40.9124158" lon="9.520998"><ele>7.0</ele><time>2026-04-07T12:05:05.345Z</time></trkpt><trkpt lat="40.9123258" lon="9.521058"><ele>7.0</ele><time>2026-04-07T12:05:06.344Z</time></trkpt><trkpt lat="40.9122314" lon="9.5211198"><ele>6.999999999999999</ele><time>2026-04-07T12:05:07.345Z</time></trkpt><trkpt lat="40.9121336" lon="9.5211803"><ele>6.999999999999999</ele><time>2026-04-07T12:05:08.345Z</time></trkpt><trkpt lat="40.9120338" lon="9.5212553"><ele>7.0</ele><time>2026-04-07T12:05:09.344Z</time></trkpt><trkpt lat="40.9119288" lon="9.5213271"><ele>7.0</ele><time>2026-04-07T12:05:10.344Z</time></trkpt><trkpt lat="40.9118212" lon="9.5213912"><ele>7.75</ele><time>2026-04-07T12:05:11.344Z</time></trkpt><trkpt lat="40.9117249" lon="9.5214561"><ele>8.5</ele><time>2026-04-07T12:05:12.345Z</time></trkpt><trkpt lat="40.9116317" lon="9.5215119"><ele>9.25</ele><time>2026-04-07T12:05:13.344Z</time></trkpt><trkpt lat="40.9115418" lon="9.5215654"><ele>10.0</ele><time>2026-04-07T12:05:14.345Z</time></trkpt><trkpt lat="40.9113667" lon="9.5216914"><ele>10.0</ele><time>2026-04-07T12:05:16.345Z</time></trkpt><trkpt lat="40.9112766" lon="9.5217522"><ele>10.0</ele><time>2026-04-07T12:05:17.344Z</time></trkpt><trkpt lat="40.9111843" lon="9.5218067"><ele>10.0</ele><time>2026-04-07T12:05:18.345Z</time></trkpt><trkpt lat="40.9110922" lon="9.5218698"><ele>10.0</ele><time>2026-04-07T12:05:19.345Z</time></trkpt><trkpt lat="40.9110046" lon="9.5219389"><ele>10.0</ele><time>2026-04-07T12:05:20.345Z</time></trkpt><trkpt lat="40.9109129" lon="9.5220016"><ele>10.333333333333334</ele><time>2026-04-07T12:05:21.345Z</time></trkpt><trkpt lat="40.9107125" lon="9.5220836"><ele>10.666666666666666</ele><time>2026-04-07T12:05:23.345Z</time></trkpt><trkpt lat="40.910606" lon="9.5221004"><ele>11.0</ele><time>2026-04-07T12:05:24.345Z</time></trkpt><trkpt lat="40.9103987" lon="9.5220865"><ele>11.0</ele><time>2026-04-07T12:05:26.345Z</time></trkpt><trkpt lat="40.9102988" lon="9.522071"><ele>11.0</ele><time>2026-04-07T12:05:27.345Z</time></trkpt><trkpt lat="40.9102079" lon="9.5220601"><ele>11.0</ele><time>2026-04-07T12:05:28.345Z</time></trkpt><trkpt lat="40.9101328" lon="9.5220493"><ele>11.0</ele><time>2026-04-07T12:05:29.345Z</time></trkpt><trkpt lat="40.9100193" lon="9.5219669"><ele>11.0</ele><time>2026-04-07T12:05:31.345Z</time></trkpt><trkpt lat="40.9099975" lon="9.5218861"><ele>10.333333333333332</ele><time>2026-04-07T12:05:32.344Z</time></trkpt><trkpt lat="40.9099911" lon="9.5217851"><ele>9.666666666666666</ele><time>2026-04-07T12:05:33.345Z</time></trkpt><trkpt lat="40.9100213" lon="9.5215437"><ele>9.0</ele><time>2026-04-07T12:05:35.345Z</time></trkpt><trkpt lat="40.9100492" lon="9.5212888"><ele>8.75</ele><time>2026-04-07T12:05:37.345Z</time></trkpt><trkpt lat="40.9100636" lon="9.5211667"><ele>8.5</ele><time>2026-04-07T12:05:38.345Z</time></trkpt><trkpt lat="40.9101185" lon="9.5208994"><ele>8.25</ele><time>2026-04-07T12:05:40.345Z</time></trkpt><trkpt lat="40.9101482" lon="9.5207541"><ele>8.0</ele><time>2026-04-07T12:05:41.345Z</time></trkpt><trkpt lat="40.9101713" lon="9.5206029"><ele>7.25</ele><time>2026-04-07T12:05:42.344Z</time></trkpt><trkpt lat="40.9101857" lon="9.5204498"><ele>6.5</ele><time>2026-04-07T12:05:43.345Z</time></trkpt><trkpt lat="40.9102011" lon="9.5202909"><ele>5.75</ele><time>2026-04-07T12:05:44.345Z</time></trkpt><trkpt lat="40.9102168" lon="9.5201216"><ele>5.0</ele><time>2026-04-07T12:05:45.345Z</time></trkpt><trkpt lat="40.910241" lon="9.5199414"><ele>4.75</ele><time>2026-04-07T12:05:46.345Z</time></trkpt><trkpt lat="40.910262" lon="9.5197561"><ele>4.5</ele><time>2026-04-07T12:05:47.344Z</time></trkpt><trkpt lat="40.9102813" lon="9.5195617"><ele>4.25</ele><time>2026-04-07T12:05:48.344Z</time></trkpt><trkpt lat="40.910299" lon="9.5193672"><ele>4.0</ele><time>2026-04-07T12:05:49.345Z</time></trkpt><trkpt lat="40.9103207" lon="9.5191702"><ele>4.0</ele><time>2026-04-07T12:05:50.344Z</time></trkpt><trkpt lat="40.9103399" lon="9.5189798"><ele>4.0</ele><time>2026-04-07T12:05:51.344Z</time></trkpt><trkpt lat="40.9103566" lon="9.5187806"><ele>4.0</ele><time>2026-04-07T12:05:52.344Z</time></trkpt><trkpt lat="40.9103725" lon="9.5185805"><ele>4.0</ele><time>2026-04-07T12:05:53.344Z</time></trkpt><trkpt lat="40.9103913" lon="9.5183814"><ele>4.0</ele><time>2026-04-07T12:05:54.345Z</time></trkpt><trkpt lat="40.9104103" lon="9.5181826"><ele>4.0</ele><time>2026-04-07T12:05:55.345Z</time></trkpt><trkpt lat="40.9104301" lon="9.5179865"><ele>4.0</ele><time>2026-04-07T12:05:56.344Z</time></trkpt><trkpt lat="40.9104469" lon="9.5178002"><ele>4.0</ele><time>2026-04-07T12:05:57.344Z</time></trkpt><trkpt lat="40.9104664" lon="9.5176115"><ele>4.6</ele><time>2026-04-07T12:05:58.345Z</time></trkpt><trkpt lat="40.9104759" lon="9.5174352"><ele>5.2</ele><time>2026-04-07T12:05:59.344Z</time></trkpt><trkpt lat="40.9104662" lon="9.5172766"><ele>5.799999999999999</ele><time>2026-04-07T12:06:00.345Z</time></trkpt><trkpt lat="40.9104462" lon="9.5171454"><ele>6.3999999999999995</ele><time>2026-04-07T12:06:01.345Z</time></trkpt><trkpt lat="40.9104199" lon="9.5170418"><ele>7.0</ele><time>2026-04-07T12:06:02.345Z</time></trkpt><trkpt lat="40.9103873" lon="9.5169424"><ele>7.166666666666667</ele><time>2026-04-07T12:06:03.345Z</time></trkpt><trkpt lat="40.9103546" lon="9.516847"><ele>7.333333333333334</ele><time>2026-04-07T12:06:04.345Z</time></trkpt><trkpt lat="40.9103294" lon="9.5167624"><ele>7.5</ele><time>2026-04-07T12:06:05.345Z</time></trkpt><trkpt lat="40.9102756" lon="9.5166133"><ele>7.666666666666666</ele><time>2026-04-07T12:06:07.345Z</time></trkpt><trkpt lat="40.9102434" lon="9.5165245"><ele>7.833333333333333</ele><time>2026-04-07T12:06:08.344Z</time></trkpt><trkpt lat="40.9102075" lon="9.5164215"><ele>8.0</ele><time>2026-04-07T12:06:09.345Z</time></trkpt><trkpt lat="40.9101714" lon="9.5163098"><ele>7.800000000000001</ele><time>2026-04-07T12:06:10.344Z</time></trkpt><trkpt lat="40.9101385" lon="9.5161904"><ele>7.6000000000000005</ele><time>2026-04-07T12:06:11.345Z</time></trkpt><trkpt lat="40.9101127" lon="9.5160568"><ele>7.3999999999999995</ele><time>2026-04-07T12:06:12.345Z</time></trkpt><trkpt lat="40.9101033" lon="9.5159105"><ele>7.199999999999999</ele><time>2026-04-07T12:06:13.345Z</time></trkpt><trkpt lat="40.9100906" lon="9.5157632"><ele>7.0</ele><time>2026-04-07T12:06:14.345Z</time></trkpt><trkpt lat="40.9100773" lon="9.5156177"><ele>7.6</ele><time>2026-04-07T12:06:15.344Z</time></trkpt><trkpt lat="40.9100669" lon="9.5154701"><ele>8.2</ele><time>2026-04-07T12:06:16.344Z</time></trkpt><trkpt lat="40.9100576" lon="9.5153187"><ele>8.8</ele><time>2026-04-07T12:06:17.345Z</time></trkpt><trkpt lat="40.9100499" lon="9.5151728"><ele>9.4</ele><time>2026-04-07T12:06:18.345Z</time></trkpt><trkpt lat="40.9100367" lon="9.5150319"><ele>10.0</ele><time>2026-04-07T12:06:19.344Z</time></trkpt><trkpt lat="40.9100253" lon="9.5148979"><ele>10.2</ele><time>2026-04-07T12:06:20.344Z</time></trkpt><trkpt lat="40.9100165" lon="9.5147619"><ele>10.4</ele><time>2026-04-07T12:06:21.345Z</time></trkpt><trkpt lat="40.9100038" lon="9.5146201"><ele>10.600000000000001</ele><time>2026-04-07T12:06:22.345Z</time></trkpt><trkpt lat="40.9099924" lon="9.5144751"><ele>10.8</ele><time>2026-04-07T12:06:23.345Z</time></trkpt><trkpt lat="40.9099887" lon="9.5143301"><ele>11.0</ele><time>2026-04-07T12:06:24.345Z</time></trkpt><trkpt lat="40.9099979" lon="9.5141889"><ele>11.200000000000001</ele><time>2026-04-07T12:06:25.344Z</time></trkpt><trkpt lat="40.9100192" lon="9.5140474"><ele>11.4</ele><time>2026-04-07T12:06:26.344Z</time></trkpt><trkpt lat="40.9100498" lon="9.5139319"><ele>11.6</ele><time>2026-04-07T12:06:27.344Z</time></trkpt><trkpt lat="40.9100796" lon="9.5138098"><ele>11.8</ele><time>2026-04-07T12:06:28.344Z</time></trkpt><trkpt lat="40.9101148" lon="9.5136914"><ele>12.0</ele><time>2026-04-07T12:06:29.345Z</time></trkpt><trkpt lat="40.910144" lon="9.5135686"><ele>12.0</ele><time>2026-04-07T12:06:30.345Z</time></trkpt><trkpt lat="40.9101762" lon="9.513457"><ele>12.0</ele><time>2026-04-07T12:06:31.344Z</time></trkpt><trkpt lat="40.9102018" lon="9.5133404"><ele>12.0</ele><time>2026-04-07T12:06:32.345Z</time></trkpt><trkpt lat="40.9102337" lon="9.5132319"><ele>12.0</ele><time>2026-04-07T12:06:33.345Z</time></trkpt><trkpt lat="40.9102717" lon="9.5131216"><ele>12.0</ele><time>2026-04-07T12:06:34.345Z</time></trkpt><trkpt lat="40.9103091" lon="9.5130057"><ele>12.5</ele><time>2026-04-07T12:06:35.345Z</time></trkpt><trkpt lat="40.9103416" lon="9.5128952"><ele>13.0</ele><time>2026-04-07T12:06:36.345Z</time></trkpt><trkpt lat="40.910375" lon="9.5127787"><ele>13.5</ele><time>2026-04-07T12:06:37.345Z</time></trkpt><trkpt lat="40.9104056" lon="9.5126684"><ele>14.0</ele><time>2026-04-07T12:06:38.345Z</time></trkpt><trkpt lat="40.9104343" lon="9.5125729"><ele>14.5</ele><time>2026-04-07T12:06:39.345Z</time></trkpt><trkpt lat="40.9104583" lon="9.5124904"><ele>15.0</ele><time>2026-04-07T12:06:40.344Z</time></trkpt><trkpt lat="40.9104832" lon="9.5124071"><ele>15.0</ele><time>2026-04-07T12:06:41.345Z</time></trkpt><trkpt lat="40.9105089" lon="9.5123096"><ele>15.0</ele><time>2026-04-07T12:06:42.345Z</time></trkpt><trkpt lat="40.9105405" lon="9.5122238"><ele>15.0</ele><time>2026-04-07T12:06:43.345Z</time></trkpt><trkpt lat="40.9106341" lon="9.512152"><ele>15.0</ele><time>2026-04-07T12:06:45.345Z</time></trkpt><trkpt lat="40.9106995" lon="9.5121684"><ele>15.0</ele><time>2026-04-07T12:06:46.345Z</time></trkpt><trkpt lat="40.9107656" lon="9.5121841"><ele>15.0</ele><time>2026-04-07T12:06:47.345Z</time></trkpt><trkpt lat="40.910881" lon="9.5122347"><ele>14.857142857142858</ele><time>2026-04-07T12:06:49.344Z</time></trkpt><trkpt lat="40.9109478" lon="9.5122512"><ele>14.714285714285714</ele><time>2026-04-07T12:06:50.344Z</time></trkpt><trkpt lat="40.9110196" lon="9.5122694"><ele>14.571428571428571</ele><time>2026-04-07T12:06:51.345Z</time></trkpt><trkpt lat="40.91109" lon="9.5122939"><ele>14.428571428571429</ele><time>2026-04-07T12:06:52.344Z</time></trkpt><trkpt lat="40.9111641" lon="9.5123099"><ele>14.285714285714285</ele><time>2026-04-07T12:06:53.345Z</time></trkpt><trkpt lat="40.9112313" lon="9.5123251"><ele>14.142857142857142</ele><time>2026-04-07T12:06:54.345Z</time></trkpt><trkpt lat="40.9112972" lon="9.5123406"><ele>14.0</ele><time>2026-04-07T12:06:55.344Z</time></trkpt><trkpt lat="40.9114122" lon="9.512321"><ele>14.000000000000002</ele><time>2026-04-07T12:06:57.345Z</time></trkpt><trkpt lat="40.911485" lon="9.5122187"><ele>14.0</ele><time>2026-04-07T12:06:59.344Z</time></trkpt><trkpt lat="40.911532" lon="9.5120776"><ele>14.0</ele><time>2026-04-07T12:07:01.345Z</time></trkpt><trkpt lat="40.9115524" lon="9.5119979"><ele>14.0</ele><time>2026-04-07T12:07:02.345Z</time></trkpt><trkpt lat="40.911571" lon="9.5119143"><ele>14.000000000000002</ele><time>2026-04-07T12:07:03.345Z</time></trkpt><trkpt lat="40.9115938" lon="9.5118327"><ele>14.0</ele><time>2026-04-07T12:07:04.344Z</time></trkpt><trkpt lat="40.9116356" lon="9.5117655"><ele>13.799999999999999</ele><time>2026-04-07T12:07:05.345Z</time></trkpt><trkpt lat="40.9116988" lon="9.5117312"><ele>13.599999999999998</ele><time>2026-04-07T12:07:06.345Z</time></trkpt><trkpt lat="40.9117664" lon="9.5117399"><ele>13.4</ele><time>2026-04-07T12:07:07.345Z</time></trkpt><trkpt lat="40.9118728" lon="9.5118102"><ele>13.2</ele><time>2026-04-07T12:07:09.345Z</time></trkpt><trkpt lat="40.9119804" lon="9.5118357"><ele>13.0</ele><time>2026-04-07T12:07:11.345Z</time></trkpt><trkpt lat="40.9120936" lon="9.5118131"><ele>11.499999999999998</ele><time>2026-04-07T12:07:13.345Z</time></trkpt><trkpt lat="40.9122025" lon="9.5117843"><ele>10.0</ele><time>2026-04-07T12:07:15.345Z</time></trkpt><trkpt lat="40.9122729" lon="9.5117632"><ele>8.5</ele><time>2026-04-07T12:07:17.344Z</time></trkpt><trkpt lat="40.912352" lon="9.5117364"><ele>7.0</ele><time>2026-04-07T12:07:20.345Z</time></trkpt><trkpt lat="40.9124074" lon="9.5116898"><ele>5.5</ele><time>2026-04-07T12:07:23.345Z</time></trkpt><trkpt lat="40.9124183" lon="9.5115619"><ele>4.0</ele><time>2026-04-07T12:07:25.345Z</time></trkpt><trkpt lat="40.9124043" lon="9.5114725"><ele>4.0</ele><time>2026-04-07T12:07:26.344Z</time></trkpt><trkpt lat="40.9123885" lon="9.5113675"><ele>4.0</ele><time>2026-04-07T12:07:27.345Z</time></trkpt><trkpt lat="40.9123705" lon="9.5112455"><ele>4.0</ele><time>2026-04-07T12:07:28.344Z</time></trkpt><trkpt lat="40.9123439" lon="9.5111145"><ele>4.0</ele><time>2026-04-07T12:07:29.344Z</time></trkpt><trkpt lat="40.9123115" lon="9.5109989"><ele>4.0</ele><time>2026-04-07T12:07:30.345Z</time></trkpt><trkpt lat="40.912276" lon="9.5108872"><ele>3.6</ele><time>2026-04-07T12:07:31.345Z</time></trkpt><trkpt lat="40.9122346" lon="9.510768"><ele>3.2</ele><time>2026-04-07T12:07:32.345Z</time></trkpt><trkpt lat="40.9121896" lon="9.5106439"><ele>2.8000000000000003</ele><time>2026-04-07T12:07:33.345Z</time></trkpt><trkpt lat="40.9121413" lon="9.5105168"><ele>2.4000000000000004</ele><time>2026-04-07T12:07:34.345Z</time></trkpt><trkpt lat="40.9120909" lon="9.5103858"><ele>2.0</ele><time>2026-04-07T12:07:35.345Z</time></trkpt><trkpt lat="40.9120416" lon="9.5102386"><ele>2.0</ele><time>2026-04-07T12:07:36.344Z</time></trkpt><trkpt lat="40.9119931" lon="9.510109"><ele>2.0</ele><time>2026-04-07T12:07:37.345Z</time></trkpt><trkpt lat="40.9119373" lon="9.5099766"><ele>2.0</ele><time>2026-04-07T12:07:38.345Z</time></trkpt><trkpt lat="40.9118871" lon="9.5098461"><ele>2.0</ele><time>2026-04-07T12:07:39.345Z</time></trkpt><trkpt lat="40.9118289" lon="9.5097213"><ele>2.0</ele><time>2026-04-07T12:07:40.344Z</time></trkpt><trkpt lat="40.9117686" lon="9.5096019"><ele>2.2</ele><time>2026-04-07T12:07:41.345Z</time></trkpt><trkpt lat="40.9117003" lon="9.509487"><ele>2.4000000000000004</ele><time>2026-04-07T12:07:42.345Z</time></trkpt><trkpt lat="40.9116255" lon="9.5093767"><ele>2.5999999999999996</ele><time>2026-04-07T12:07:43.344Z</time></trkpt><trkpt lat="40.911543" lon="9.5092725"><ele>2.8</ele><time>2026-04-07T12:07:44.345Z</time></trkpt><trkpt lat="40.911466" lon="9.5091649"><ele>3.0</ele><time>2026-04-07T12:07:45.345Z</time></trkpt><trkpt lat="40.9113973" lon="9.5090745"><ele>3.0</ele><time>2026-04-07T12:07:46.345Z</time></trkpt><trkpt lat="40.9113323" lon="9.5089938"><ele>3.0</ele><time>2026-04-07T12:07:47.344Z</time></trkpt><trkpt lat="40.9112702" lon="9.5089058"><ele>3.0</ele><time>2026-04-07T12:07:48.345Z</time></trkpt><trkpt lat="40.9112143" lon="9.5088268"><ele>3.0</ele><time>2026-04-07T12:07:49.344Z</time></trkpt><trkpt lat="40.9111614" lon="9.5087554"><ele>3.0</ele><time>2026-04-07T12:07:50.345Z</time></trkpt><trkpt lat="40.9110958" lon="9.5086628"><ele>3.0</ele><time>2026-04-07T12:07:52.345Z</time></trkpt><trkpt lat="40.9110282" lon="9.508559"><ele>2.714285714285714</ele><time>2026-04-07T12:07:54.345Z</time></trkpt><trkpt lat="40.9109899" lon="9.5084924"><ele>2.4285714285714284</ele><time>2026-04-07T12:07:55.345Z</time></trkpt><trkpt lat="40.9109578" lon="9.5084165"><ele>2.142857142857143</ele><time>2026-04-07T12:07:56.345Z</time></trkpt><trkpt lat="40.9109329" lon="9.5083391"><ele>1.857142857142857</ele><time>2026-04-07T12:07:57.345Z</time></trkpt><trkpt lat="40.9109078" lon="9.508257"><ele>1.5714285714285712</ele><time>2026-04-07T12:07:58.344Z</time></trkpt><trkpt lat="40.9108655" lon="9.5081883"><ele>1.2857142857142856</ele><time>2026-04-07T12:07:59.344Z</time></trkpt><trkpt lat="40.9108069" lon="9.5081483"><ele>1.0</ele><time>2026-04-07T12:08:00.345Z</time></trkpt><trkpt lat="40.9106939" lon="9.5081909"><ele>1.6666666666666665</ele><time>2026-04-07T12:08:02.344Z</time></trkpt><trkpt lat="40.9106286" lon="9.5083353"><ele>2.3333333333333335</ele><time>2026-04-07T12:08:04.345Z</time></trkpt><trkpt lat="40.9106051" lon="9.5084182"><ele>3.0</ele><time>2026-04-07T12:08:05.345Z</time></trkpt><trkpt lat="40.9105695" lon="9.5084954"><ele>3.666666666666667</ele><time>2026-04-07T12:08:06.344Z</time></trkpt><trkpt lat="40.9105336" lon="9.5085646"><ele>4.333333333333334</ele><time>2026-04-07T12:08:07.345Z</time></trkpt><trkpt lat="40.9104421" lon="9.5086588"><ele>5.0</ele><time>2026-04-07T12:08:09.345Z</time></trkpt><trkpt lat="40.9103744" lon="9.5087057"><ele>5.0</ele><time>2026-04-07T12:08:11.345Z</time></trkpt><trkpt lat="40.9102929" lon="9.5087395"><ele>5.0</ele><time>2026-04-07T12:08:14.345Z</time></trkpt><trkpt lat="40.9101905" lon="9.5087051"><ele>5.0</ele><time>2026-04-07T12:08:17.344Z</time></trkpt><trkpt lat="40.9100999" lon="9.5086056"><ele>5.0</ele><time>2026-04-07T12:08:19.345Z</time></trkpt><trkpt lat="40.9100629" lon="9.5085306"><ele>5.0</ele><time>2026-04-07T12:08:20.345Z</time></trkpt><trkpt lat="40.9100214" lon="9.5084446"><ele>5.833333333333334</ele><time>2026-04-07T12:08:21.344Z</time></trkpt><trkpt lat="40.909981" lon="9.5083597"><ele>6.666666666666667</ele><time>2026-04-07T12:08:22.344Z</time></trkpt><trkpt lat="40.9099576" lon="9.5082561"><ele>7.5</ele><time>2026-04-07T12:08:23.345Z</time></trkpt><trkpt lat="40.9099385" lon="9.5081453"><ele>8.333333333333334</ele><time>2026-04-07T12:08:24.345Z</time></trkpt><trkpt lat="40.9099372" lon="9.508022"><ele>9.166666666666668</ele><time>2026-04-07T12:08:25.344Z</time></trkpt><trkpt lat="40.9099411" lon="9.5078918"><ele>10.0</ele><time>2026-04-07T12:08:26.345Z</time></trkpt><trkpt lat="40.9099496" lon="9.5077652"><ele>10.0</ele><time>2026-04-07T12:08:27.345Z</time></trkpt><trkpt lat="40.9099626" lon="9.5076329"><ele>10.0</ele><time>2026-04-07T12:08:28.344Z</time></trkpt><trkpt lat="40.9099792" lon="9.507497"><ele>10.0</ele><time>2026-04-07T12:08:29.345Z</time></trkpt><trkpt lat="40.9099961" lon="9.5073596"><ele>10.0</ele><time>2026-04-07T12:08:30.345Z</time></trkpt><trkpt lat="40.9100155" lon="9.5072109"><ele>10.0</ele><time>2026-04-07T12:08:31.344Z</time></trkpt><trkpt lat="40.9100371" lon="9.5070507"><ele>9.0</ele><time>2026-04-07T12:08:32.345Z</time></trkpt><trkpt lat="40.9100619" lon="9.5068766"><ele>8.0</ele><time>2026-04-07T12:08:33.345Z</time></trkpt><trkpt lat="40.91009" lon="9.5066934"><ele>7.0</ele><time>2026-04-07T12:08:34.345Z</time></trkpt><trkpt lat="40.9101212" lon="9.5065123"><ele>6.0</ele><time>2026-04-07T12:08:35.345Z</time></trkpt><trkpt lat="40.9101585" lon="9.5063314"><ele>5.75</ele><time>2026-04-07T12:08:36.344Z</time></trkpt><trkpt lat="40.9101973" lon="9.5061433"><ele>5.5</ele><time>2026-04-07T12:08:37.345Z</time></trkpt><trkpt lat="40.9102423" lon="9.5059564"><ele>5.25</ele><time>2026-04-07T12:08:38.345Z</time></trkpt><trkpt lat="40.9102911" lon="9.505777"><ele>5.0</ele><time>2026-04-07T12:08:39.345Z</time></trkpt><trkpt lat="40.9103407" lon="9.505604"><ele>5.0</ele><time>2026-04-07T12:08:40.344Z</time></trkpt><trkpt lat="40.9103947" lon="9.5054292"><ele>5.0</ele><time>2026-04-07T12:08:41.345Z</time></trkpt><trkpt lat="40.9104529" lon="9.5052511"><ele>5.0</ele><time>2026-04-07T12:08:42.344Z</time></trkpt><trkpt lat="40.9105185" lon="9.5050759"><ele>5.0</ele><time>2026-04-07T12:08:43.345Z</time></trkpt><trkpt lat="40.9105857" lon="9.5049008"><ele>5.0</ele><time>2026-04-07T12:08:44.345Z</time></trkpt><trkpt lat="40.9106628" lon="9.5047294"><ele>5.0</ele><time>2026-04-07T12:08:45.344Z</time></trkpt><trkpt lat="40.9107461" lon="9.5045579"><ele>5.0</ele><time>2026-04-07T12:08:46.345Z</time></trkpt><trkpt lat="40.9108369" lon="9.5043834"><ele>4.333333333333334</ele><time>2026-04-07T12:08:47.345Z</time></trkpt><trkpt lat="40.9109359" lon="9.5042077"><ele>3.666666666666667</ele><time>2026-04-07T12:08:48.345Z</time></trkpt><trkpt lat="40.9110357" lon="9.5040304"><ele>3.0</ele><time>2026-04-07T12:08:49.345Z</time></trkpt><trkpt lat="40.911144" lon="9.5038497"><ele>3.666666666666667</ele><time>2026-04-07T12:08:50.344Z</time></trkpt><trkpt lat="40.9112601" lon="9.5036696"><ele>4.333333333333334</ele><time>2026-04-07T12:08:51.345Z</time></trkpt><trkpt lat="40.9113749" lon="9.5035058"><ele>5.0</ele><time>2026-04-07T12:08:52.345Z</time></trkpt><trkpt lat="40.9114963" lon="9.5033551"><ele>5.0</ele><time>2026-04-07T12:08:53.345Z</time></trkpt><trkpt lat="40.9116214" lon="9.5032164"><ele>5.0</ele><time>2026-04-07T12:08:54.345Z</time></trkpt><trkpt lat="40.9117451" lon="9.5030868"><ele>5.0</ele><time>2026-04-07T12:08:55.345Z</time></trkpt><trkpt lat="40.9118709" lon="9.5029623"><ele>4.0</ele><time>2026-04-07T12:08:56.345Z</time></trkpt><trkpt lat="40.911999" lon="9.5028352"><ele>3.0</ele><time>2026-04-07T12:08:57.344Z</time></trkpt><trkpt lat="40.9121242" lon="9.5027214"><ele>2.0</ele><time>2026-04-07T12:08:58.345Z</time></trkpt><trkpt lat="40.9122572" lon="9.5026067"><ele>2.0</ele><time>2026-04-07T12:08:59.344Z</time></trkpt><trkpt lat="40.9123954" lon="9.5025002"><ele>2.0</ele><time>2026-04-07T12:09:00.344Z</time></trkpt><trkpt lat="40.9125382" lon="9.5023926"><ele>2.0</ele><time>2026-04-07T12:09:01.345Z</time></trkpt><trkpt lat="40.9126848" lon="9.502293"><ele>1.6666666666666665</ele><time>2026-04-07T12:09:02.344Z</time></trkpt><trkpt lat="40.9128385" lon="9.5022031"><ele>1.3333333333333333</ele><time>2026-04-07T12:09:03.345Z</time></trkpt><trkpt lat="40.9129932" lon="9.5021188"><ele>1.0</ele><time>2026-04-07T12:09:04.345Z</time></trkpt><trkpt lat="40.9131461" lon="9.5020478"><ele>1.0</ele><time>2026-04-07T12:09:05.344Z</time></trkpt><trkpt lat="40.9132994" lon="9.5019813"><ele>1.0</ele><time>2026-04-07T12:09:06.344Z</time></trkpt><trkpt lat="40.9134544" lon="9.50192"><ele>1.0</ele><time>2026-04-07T12:09:07.345Z</time></trkpt><trkpt lat="40.9136093" lon="9.5018707"><ele>2.0</ele><time>2026-04-07T12:09:08.345Z</time></trkpt><trkpt lat="40.9137587" lon="9.5018277"><ele>3.0</ele><time>2026-04-07T12:09:09.345Z</time></trkpt><trkpt lat="40.9139075" lon="9.5017896"><ele>4.0</ele><time>2026-04-07T12:09:10.345Z</time></trkpt><trkpt lat="40.9140444" lon="9.5017605"><ele>5.0</ele><time>2026-04-07T12:09:11.344Z</time></trkpt><trkpt lat="40.9141678" lon="9.5017339"><ele>4.8</ele><time>2026-04-07T12:09:12.344Z</time></trkpt><trkpt lat="40.9142771" lon="9.5017177"><ele>4.6</ele><time>2026-04-07T12:09:13.345Z</time></trkpt><trkpt lat="40.9143811" lon="9.5016992"><ele>4.4</ele><time>2026-04-07T12:09:14.345Z</time></trkpt><trkpt lat="40.9144777" lon="9.5016878"><ele>4.2</ele><time>2026-04-07T12:09:15.345Z</time></trkpt><trkpt lat="40.9145687" lon="9.5016859"><ele>4.0</ele><time>2026-04-07T12:09:16.344Z</time></trkpt><trkpt lat="40.9146624" lon="9.5016837"><ele>4.0</ele><time>2026-04-07T12:09:17.345Z</time></trkpt><trkpt lat="40.9147634" lon="9.5016782"><ele>4.0</ele><time>2026-04-07T12:09:18.344Z</time></trkpt><trkpt lat="40.9148709" lon="9.5016694"><ele>4.0</ele><time>2026-04-07T12:09:19.345Z</time></trkpt><trkpt lat="40.9149835" lon="9.5016595"><ele>4.0</ele><time>2026-04-07T12:09:20.345Z</time></trkpt><trkpt lat="40.9151012" lon="9.5016481"><ele>4.0</ele><time>2026-04-07T12:09:21.345Z</time></trkpt><trkpt lat="40.9152295" lon="9.5016457"><ele>3.25</ele><time>2026-04-07T12:09:22.345Z</time></trkpt><trkpt lat="40.915361" lon="9.5016364"><ele>2.5</ele><time>2026-04-07T12:09:23.345Z</time></trkpt><trkpt lat="40.9154941" lon="9.501632"><ele>1.75</ele><time>2026-04-07T12:09:24.345Z</time></trkpt><trkpt lat="40.9156355" lon="9.5016225"><ele>1.0</ele><time>2026-04-07T12:09:25.345Z</time></trkpt><trkpt lat="40.9157765" lon="9.5016123"><ele>1.0</ele><time>2026-04-07T12:09:26.345Z</time></trkpt><trkpt lat="40.9159058" lon="9.5016059"><ele>1.0</ele><time>2026-04-07T12:09:27.345Z</time></trkpt><trkpt lat="40.9160233" lon="9.5015974"><ele>1.0</ele><time>2026-04-07T12:09:28.345Z</time></trkpt><trkpt lat="40.9161413" lon="9.5015889"><ele>1.0</ele><time>2026-04-07T12:09:29.345Z</time></trkpt><trkpt lat="40.9162643" lon="9.501583"><ele>1.0</ele><time>2026-04-07T12:09:30.345Z</time></trkpt><trkpt lat="40.9164086" lon="9.5015721"><ele>1.0</ele><time>2026-04-07T12:09:31.345Z</time></trkpt><trkpt lat="40.9166085" lon="9.5015735"><ele>1.0</ele><time>2026-04-07T12:09:32.344Z</time></trkpt><trkpt lat="40.9167674" lon="9.5015792"><ele>0.6666666666666666</ele><time>2026-04-07T12:09:33.344Z</time></trkpt><trkpt lat="40.9169239" lon="9.5015845"><ele>0.3333333333333333</ele><time>2026-04-07T12:09:34.345Z</time></trkpt><trkpt lat="40.91707" lon="9.501579"><ele>0.0</ele><time>2026-04-07T12:09:35.345Z</time></trkpt><trkpt lat="40.9172172" lon="9.5015723"><ele>0.0</ele><time>2026-04-07T12:09:36.344Z</time></trkpt><trkpt lat="40.9173586" lon="9.501563"><ele>0.0</ele><time>2026-04-07T12:09:37.345Z</time></trkpt><trkpt lat="40.9174982" lon="9.5015551"><ele>0.0</ele><time>2026-04-07T12:09:38.345Z</time></trkpt><trkpt lat="40.9176308" lon="9.5015507"><ele>0.0</ele><time>2026-04-07T12:09:39.345Z</time></trkpt><trkpt lat="40.9177585" lon="9.5015477"><ele>0.0</ele><time>2026-04-07T12:09:40.345Z</time></trkpt><trkpt lat="40.9178875" lon="9.5015376"><ele>0.0</ele><time>2026-04-07T12:09:41.345Z</time></trkpt><trkpt lat="40.9180125" lon="9.5015282"><ele>0.0</ele><time>2026-04-07T12:09:42.344Z</time></trkpt><trkpt lat="40.9181358" lon="9.50152"><ele>0.0</ele><time>2026-04-07T12:09:43.345Z</time></trkpt><trkpt lat="40.9182565" lon="9.5015113"><ele>0.0</ele><time>2026-04-07T12:09:44.345Z</time></trkpt><trkpt lat="40.9183719" lon="9.5015032"><ele>0.0</ele><time>2026-04-07T12:09:45.345Z</time></trkpt><trkpt lat="40.9184826" lon="9.501497"><ele>0.0</ele><time>2026-04-07T12:09:46.345Z</time></trkpt><trkpt lat="40.9185964" lon="9.5014955"><ele>0.0</ele><time>2026-04-07T12:09:47.345Z</time></trkpt><trkpt lat="40.918709" lon="9.5014924"><ele>0.0</ele><time>2026-04-07T12:09:48.344Z</time></trkpt><trkpt lat="40.9188172" lon="9.5014848"><ele>0.0</ele><time>2026-04-07T12:09:49.345Z</time></trkpt><trkpt lat="40.9189214" lon="9.5014835"><ele>0.0</ele><time>2026-04-07T12:09:50.345Z</time></trkpt><trkpt lat="40.9190292" lon="9.5014789"><ele>0.0</ele><time>2026-04-07T12:09:51.345Z</time></trkpt><trkpt lat="40.9191427" lon="9.5014708"><ele>0.0</ele><time>2026-04-07T12:09:52.344Z</time></trkpt><trkpt lat="40.9192484" lon="9.5014681"><ele>0.0</ele><time>2026-04-07T12:09:53.345Z</time></trkpt><trkpt lat="40.9193539" lon="9.5014715"><ele>0.0</ele><time>2026-04-07T12:09:54.345Z</time></trkpt><trkpt lat="40.91946" lon="9.5014827"><ele>0.0</ele><time>2026-04-07T12:09:55.345Z</time></trkpt><trkpt lat="40.9195682" lon="9.5014959"><ele>0.0</ele><time>2026-04-07T12:09:56.345Z</time></trkpt><trkpt lat="40.9196727" lon="9.5015192"><ele>0.0</ele><time>2026-04-07T12:09:57.345Z</time></trkpt><trkpt lat="40.9197883" lon="9.5015434"><ele>0.0</ele><time>2026-04-07T12:09:58.345Z</time></trkpt><trkpt lat="40.9199074" lon="9.5015763"><ele>0.0</ele><time>2026-04-07T12:09:59.344Z</time></trkpt><trkpt lat="40.9200207" lon="9.5016178"><ele>0.0</ele><time>2026-04-07T12:10:00.345Z</time></trkpt><trkpt lat="40.9201351" lon="9.5016564"><ele>0.0</ele><time>2026-04-07T12:10:01.345Z</time></trkpt><trkpt lat="40.9202478" lon="9.5017036"><ele>1.0</ele><time>2026-04-07T12:10:02.345Z</time></trkpt><trkpt lat="40.9203548" lon="9.5017604"><ele>2.0</ele><time>2026-04-07T12:10:03.345Z</time></trkpt><trkpt lat="40.9204623" lon="9.5018235"><ele>3.0</ele><time>2026-04-07T12:10:04.345Z</time></trkpt><trkpt lat="40.9205647" lon="9.501892"><ele>4.0</ele><time>2026-04-07T12:10:05.345Z</time></trkpt><trkpt lat="40.9206664" lon="9.5019643"><ele>4.0</ele><time>2026-04-07T12:10:06.345Z</time></trkpt><trkpt lat="40.9207625" lon="9.5020431"><ele>4.0</ele><time>2026-04-07T12:10:07.345Z</time></trkpt><trkpt lat="40.9208527" lon="9.5021244"><ele>4.0</ele><time>2026-04-07T12:10:08.345Z</time></trkpt><trkpt lat="40.9209412" lon="9.5022097"><ele>4.0</ele><time>2026-04-07T12:10:09.345Z</time></trkpt><trkpt lat="40.9210248" lon="9.5023019"><ele>4.0</ele><time>2026-04-07T12:10:10.344Z</time></trkpt><trkpt lat="40.921111" lon="9.502401"><ele>5.0</ele><time>2026-04-07T12:10:11.345Z</time></trkpt><trkpt lat="40.9212052" lon="9.5025057"><ele>6.0</ele><time>2026-04-07T12:10:12.345Z</time></trkpt><trkpt lat="40.9212917" lon="9.5026196"><ele>7.0</ele><time>2026-04-07T12:10:13.344Z</time></trkpt><trkpt lat="40.9213706" lon="9.502748"><ele>8.0</ele><time>2026-04-07T12:10:14.345Z</time></trkpt><trkpt lat="40.9214459" lon="9.5028878"><ele>6.5</ele><time>2026-04-07T12:10:15.344Z</time></trkpt><trkpt lat="40.92151" lon="9.5030434"><ele>5.0</ele><time>2026-04-07T12:10:16.345Z</time></trkpt><trkpt lat="40.9215731" lon="9.5032052"><ele>3.5</ele><time>2026-04-07T12:10:17.343Z</time></trkpt><trkpt lat="40.9216376" lon="9.503379"><ele>2.0</ele><time>2026-04-07T12:10:18.345Z</time></trkpt><trkpt lat="40.921707" lon="9.5035651"><ele>2.0</ele><time>2026-04-07T12:10:19.344Z</time></trkpt><trkpt lat="40.921785" lon="9.5037544"><ele>2.0</ele><time>2026-04-07T12:10:20.345Z</time></trkpt><trkpt lat="40.9218585" lon="9.5039417"><ele>2.0</ele><time>2026-04-07T12:10:21.345Z</time></trkpt><trkpt lat="40.9219325" lon="9.5041316"><ele>2.0</ele><time>2026-04-07T12:10:22.344Z</time></trkpt><trkpt lat="40.9253905" lon="9.5073566"><ele>2.0</ele><time>2026-04-07T12:10:51.33Z</time></trkpt><trkpt lat="40.9255306" lon="9.5073861"><ele>2.0</ele><time>2026-04-07T12:10:52.326Z</time></trkpt><trkpt lat="40.9256687" lon="9.5074046"><ele>2.0</ele><time>2026-04-07T12:10:53.334Z</time></trkpt><trkpt lat="40.9257918" lon="9.5074253"><ele>2.0</ele><time>2026-04-07T12:10:54.33Z</time></trkpt><trkpt lat="40.9259243" lon="9.5074326"><ele>2.0</ele><time>2026-04-07T12:10:55.327Z</time></trkpt><trkpt lat="40.9260418" lon="9.5074495"><ele>2.0</ele><time>2026-04-07T12:10:56.328Z</time></trkpt><trkpt lat="40.9261584" lon="9.5074636"><ele>2.0</ele><time>2026-04-07T12:10:57.328Z</time></trkpt><trkpt lat="40.9262751" lon="9.5074776"><ele>2.0</ele><time>2026-04-07T12:10:58.328Z</time></trkpt><trkpt lat="40.9263973" lon="9.5074882"><ele>2.0</ele><time>2026-04-07T12:10:59.327Z</time></trkpt><trkpt lat="40.9265093" lon="9.5075049"><ele>2.0</ele><time>2026-04-07T12:11:00.328Z</time></trkpt><trkpt lat="40.9266198" lon="9.5075169"><ele>2.0</ele><time>2026-04-07T12:11:01.328Z</time></trkpt><trkpt lat="40.9267384" lon="9.5075391"><ele>2.0</ele><time>2026-04-07T12:11:02.328Z</time></trkpt><trkpt lat="40.9268548" lon="9.5075647"><ele>1.6</ele><time>2026-04-07T12:11:03.328Z</time></trkpt><trkpt lat="40.9269634" lon="9.5075962"><ele>1.2000000000000002</ele><time>2026-04-07T12:11:04.328Z</time></trkpt><trkpt lat="40.9270695" lon="9.5076256"><ele>0.8</ele><time>2026-04-07T12:11:05.328Z</time></trkpt><trkpt lat="40.9271771" lon="9.5076521"><ele>0.4</ele><time>2026-04-07T12:11:06.328Z</time></trkpt><trkpt lat="40.927296" lon="9.5076696"><ele>0.0</ele><time>2026-04-07T12:11:07.328Z</time></trkpt><trkpt lat="40.9274323" lon="9.5077081"><ele>0.0</ele><time>2026-04-07T12:11:08.328Z</time></trkpt><trkpt lat="40.9275829" lon="9.5077484"><ele>0.0</ele><time>2026-04-07T12:11:09.328Z</time></trkpt><trkpt lat="40.927745" lon="9.5077872"><ele>0.0</ele><time>2026-04-07T12:11:10.328Z</time></trkpt><trkpt lat="40.9279077" lon="9.5078277"><ele>0.0</ele><time>2026-04-07T12:11:11.327Z</time></trkpt><trkpt lat="40.9280623" lon="9.5078665"><ele>0.0</ele><time>2026-04-07T12:11:12.328Z</time></trkpt><trkpt lat="40.9282028" lon="9.5079112"><ele>0.0</ele><time>2026-04-07T12:11:13.328Z</time></trkpt><trkpt lat="40.9283459" lon="9.5079484"><ele>0.0</ele><time>2026-04-07T12:11:14.328Z</time></trkpt><trkpt lat="40.9284806" lon="9.5079844"><ele>0.6</ele><time>2026-04-07T12:11:15.328Z</time></trkpt><trkpt lat="40.9286048" lon="9.5080182"><ele>1.2</ele><time>2026-04-07T12:11:16.327Z</time></trkpt><trkpt lat="40.9287081" lon="9.5080559"><ele>1.7999999999999998</ele><time>2026-04-07T12:11:17.327Z</time></trkpt><trkpt lat="40.928804" lon="9.5080829"><ele>2.4</ele><time>2026-04-07T12:11:18.328Z</time></trkpt><trkpt lat="40.9288856" lon="9.5081038"><ele>3.0</ele><time>2026-04-07T12:11:19.328Z</time></trkpt><trkpt lat="40.9289706" lon="9.5081263"><ele>3.0</ele><time>2026-04-07T12:11:20.327Z</time></trkpt><trkpt lat="40.9290549" lon="9.5081471"><ele>3.0</ele><time>2026-04-07T12:11:21.328Z</time></trkpt><trkpt lat="40.9291415" lon="9.5081686"><ele>3.0</ele><time>2026-04-07T12:11:22.328Z</time></trkpt><trkpt lat="40.9292309" lon="9.5081934"><ele>3.0</ele><time>2026-04-07T12:11:23.328Z</time></trkpt><trkpt lat="40.9293224" lon="9.5082182"><ele>3.0</ele><time>2026-04-07T12:11:24.328Z</time></trkpt><trkpt lat="40.9294149" lon="9.50824"><ele>2.4</ele><time>2026-04-07T12:11:25.328Z</time></trkpt><trkpt lat="40.9295055" lon="9.5082672"><ele>1.7999999999999998</ele><time>2026-04-07T12:11:26.328Z</time></trkpt><trkpt lat="40.929605" lon="9.5082926"><ele>1.2</ele><time>2026-04-07T12:11:27.328Z</time></trkpt><trkpt lat="40.9297027" lon="9.5083138"><ele>0.6</ele><time>2026-04-07T12:11:28.328Z</time></trkpt><trkpt lat="40.9297988" lon="9.5083378"><ele>0.0</ele><time>2026-04-07T12:11:29.328Z</time></trkpt><trkpt lat="40.9298914" lon="9.5083643"><ele>0.0</ele><time>2026-04-07T12:11:30.328Z</time></trkpt><trkpt lat="40.9299855" lon="9.5083896"><ele>0.0</ele><time>2026-04-07T12:11:31.328Z</time></trkpt><trkpt lat="40.9300834" lon="9.5084162"><ele>0.0</ele><time>2026-04-07T12:11:32.328Z</time></trkpt><trkpt lat="40.9301934" lon="9.5084381"><ele>0.0</ele><time>2026-04-07T12:11:33.327Z</time></trkpt><trkpt lat="40.9303099" lon="9.5084651"><ele>0.0</ele><time>2026-04-07T12:11:34.328Z</time></trkpt><trkpt lat="40.9304375" lon="9.5084926"><ele>0.5</ele><time>2026-04-07T12:11:35.327Z</time></trkpt><trkpt lat="40.9305611" lon="9.5085175"><ele>1.0</ele><time>2026-04-07T12:11:36.328Z</time></trkpt><trkpt lat="40.9306777" lon="9.5085395"><ele>1.5</ele><time>2026-04-07T12:11:37.328Z</time></trkpt><trkpt lat="40.9307919" lon="9.5085546"><ele>2.0</ele><time>2026-04-07T12:11:38.328Z</time></trkpt><trkpt lat="40.9309062" lon="9.5085691"><ele>2.5</ele><time>2026-04-07T12:11:39.328Z</time></trkpt><trkpt lat="40.9310157" lon="9.5085858"><ele>3.0</ele><time>2026-04-07T12:11:40.328Z</time></trkpt><trkpt lat="40.9311363" lon="9.5085955"><ele>3.5</ele><time>2026-04-07T12:11:41.328Z</time></trkpt><trkpt lat="40.9312684" lon="9.5086065"><ele>4.0</ele><time>2026-04-07T12:11:42.327Z</time></trkpt><trkpt lat="40.9314022" lon="9.5086166"><ele>4.0</ele><time>2026-04-07T12:11:43.328Z</time></trkpt><trkpt lat="40.9315458" lon="9.5086236"><ele>4.0</ele><time>2026-04-07T12:11:44.328Z</time></trkpt><trkpt lat="40.931691" lon="9.5086291"><ele>4.0</ele><time>2026-04-07T12:11:45.328Z</time></trkpt><trkpt lat="40.9318459" lon="9.5086355"><ele>4.0</ele><time>2026-04-07T12:11:46.328Z</time></trkpt><trkpt lat="40.9320079" lon="9.5086355"><ele>4.666666666666666</ele><time>2026-04-07T12:11:47.327Z</time></trkpt><trkpt lat="40.932174" lon="9.5086339"><ele>5.333333333333333</ele><time>2026-04-07T12:11:48.327Z</time></trkpt><trkpt lat="40.9323375" lon="9.5086284"><ele>6.0</ele><time>2026-04-07T12:11:49.327Z</time></trkpt><trkpt lat="40.9325071" lon="9.5086216"><ele>5.333333333333333</ele><time>2026-04-07T12:11:50.327Z</time></trkpt><trkpt lat="40.9326731" lon="9.5086123"><ele>4.666666666666666</ele><time>2026-04-07T12:11:51.328Z</time></trkpt><trkpt lat="40.9328411" lon="9.5085979"><ele>4.0</ele><time>2026-04-07T12:11:52.328Z</time></trkpt><trkpt lat="40.9330049" lon="9.5085819"><ele>4.0</ele><time>2026-04-07T12:11:53.328Z</time></trkpt><trkpt lat="40.9331545" lon="9.5085714"><ele>4.0</ele><time>2026-04-07T12:11:54.328Z</time></trkpt><trkpt lat="40.9333006" lon="9.5085579"><ele>4.0</ele><time>2026-04-07T12:11:55.327Z</time></trkpt><trkpt lat="40.9334465" lon="9.5085412"><ele>4.0</ele><time>2026-04-07T12:11:56.327Z</time></trkpt><trkpt lat="40.9335924" lon="9.5085242"><ele>4.333333333333333</ele><time>2026-04-07T12:11:57.328Z</time></trkpt><trkpt lat="40.9337421" lon="9.5085114"><ele>4.666666666666667</ele><time>2026-04-07T12:11:58.327Z</time></trkpt><trkpt lat="40.9338943" lon="9.5084873"><ele>5.0</ele><time>2026-04-07T12:11:59.328Z</time></trkpt><trkpt lat="40.9340401" lon="9.5084687"><ele>5.0</ele><time>2026-04-07T12:12:00.328Z</time></trkpt><trkpt lat="40.9341855" lon="9.5084412"><ele>5.0</ele><time>2026-04-07T12:12:01.327Z</time></trkpt><trkpt lat="40.9343293" lon="9.5084139"><ele>5.0</ele><time>2026-04-07T12:12:02.327Z</time></trkpt><trkpt lat="40.934481" lon="9.5083842"><ele>5.0</ele><time>2026-04-07T12:12:03.327Z</time></trkpt><trkpt lat="40.934631" lon="9.508345"><ele>5.0</ele><time>2026-04-07T12:12:04.328Z</time></trkpt><trkpt lat="40.9347878" lon="9.5083116"><ele>5.0</ele><time>2026-04-07T12:12:05.328Z</time></trkpt><trkpt lat="40.9349447" lon="9.5082778"><ele>5.0</ele><time>2026-04-07T12:12:06.328Z</time></trkpt><trkpt lat="40.9350945" lon="9.5082442"><ele>5.5</ele><time>2026-04-07T12:12:07.328Z</time></trkpt><trkpt lat="40.9352406" lon="9.5082111"><ele>6.0</ele><time>2026-04-07T12:12:08.327Z</time></trkpt><trkpt lat="40.9353826" lon="9.508174"><ele>6.5</ele><time>2026-04-07T12:12:09.328Z</time></trkpt><trkpt lat="40.9355285" lon="9.5081314"><ele>7.0</ele><time>2026-04-07T12:12:10.328Z</time></trkpt><trkpt lat="40.9356726" lon="9.50809"><ele>7.0</ele><time>2026-04-07T12:12:11.328Z</time></trkpt><trkpt lat="40.9358192" lon="9.5080455"><ele>7.0</ele><time>2026-04-07T12:12:12.328Z</time></trkpt><trkpt lat="40.9359652" lon="9.5079994"><ele>7.0</ele><time>2026-04-07T12:12:13.328Z</time></trkpt><trkpt lat="40.9361158" lon="9.5079452"><ele>7.0</ele><time>2026-04-07T12:12:14.327Z</time></trkpt><trkpt lat="40.9362682" lon="9.5078903"><ele>7.0</ele><time>2026-04-07T12:12:15.328Z</time></trkpt><trkpt lat="40.9364165" lon="9.5078394"><ele>7.0</ele><time>2026-04-07T12:12:16.328Z</time></trkpt><trkpt lat="40.9365584" lon="9.5077863"><ele>7.0</ele><time>2026-04-07T12:12:17.327Z</time></trkpt><trkpt lat="40.9366914" lon="9.5077323"><ele>7.0</ele><time>2026-04-07T12:12:18.328Z</time></trkpt><trkpt lat="40.9368207" lon="9.5076828"><ele>7.0</ele><time>2026-04-07T12:12:19.327Z</time></trkpt><trkpt lat="40.9369521" lon="9.5076349"><ele>7.0</ele><time>2026-04-07T12:12:20.327Z</time></trkpt><trkpt lat="40.9370828" lon="9.5075803"><ele>8.0</ele><time>2026-04-07T12:12:21.328Z</time></trkpt><trkpt lat="40.9372121" lon="9.5075271"><ele>9.0</ele><time>2026-04-07T12:12:22.328Z</time></trkpt><trkpt lat="40.93734" lon="9.5074773"><ele>10.0</ele><time>2026-04-07T12:12:23.327Z</time></trkpt><trkpt lat="40.9374712" lon="9.5074199"><ele>11.0</ele><time>2026-04-07T12:12:24.328Z</time></trkpt><trkpt lat="40.9376061" lon="9.5073586"><ele>11.333333333333332</ele><time>2026-04-07T12:12:25.328Z</time></trkpt><trkpt lat="40.9377495" lon="9.5072956"><ele>11.666666666666666</ele><time>2026-04-07T12:12:26.328Z</time></trkpt><trkpt lat="40.9378922" lon="9.5072289"><ele>12.0</ele><time>2026-04-07T12:12:27.328Z</time></trkpt><trkpt lat="40.9380424" lon="9.5071523"><ele>12.0</ele><time>2026-04-07T12:12:28.328Z</time></trkpt><trkpt lat="40.9382053" lon="9.507078"><ele>12.0</ele><time>2026-04-07T12:12:29.327Z</time></trkpt><trkpt lat="40.9383705" lon="9.506999"><ele>12.0</ele><time>2026-04-07T12:12:30.328Z</time></trkpt><trkpt lat="40.9385348" lon="9.5069136"><ele>12.0</ele><time>2026-04-07T12:12:31.328Z</time></trkpt><trkpt lat="40.9386959" lon="9.5068386"><ele>12.0</ele><time>2026-04-07T12:12:32.328Z</time></trkpt><trkpt lat="40.9388489" lon="9.506769"><ele>12.0</ele><time>2026-04-07T12:12:33.328Z</time></trkpt><trkpt lat="40.9390012" lon="9.5066902"><ele>12.0</ele><time>2026-04-07T12:12:34.328Z</time></trkpt><trkpt lat="40.9391498" lon="9.5066097"><ele>12.0</ele><time>2026-04-07T12:12:35.328Z</time></trkpt><trkpt lat="40.9392985" lon="9.5065297"><ele>12.0</ele><time>2026-04-07T12:12:36.327Z</time></trkpt><trkpt lat="40.9394451" lon="9.5064514"><ele>12.0</ele><time>2026-04-07T12:12:37.328Z</time></trkpt><trkpt lat="40.9395935" lon="9.5063756"><ele>12.0</ele><time>2026-04-07T12:12:38.327Z</time></trkpt><trkpt lat="40.9397414" lon="9.5062972"><ele>12.0</ele><time>2026-04-07T12:12:39.328Z</time></trkpt><trkpt lat="40.939893" lon="9.5062243"><ele>12.333333333333332</ele><time>2026-04-07T12:12:40.328Z</time></trkpt><trkpt lat="40.9400427" lon="9.5061477"><ele>12.666666666666666</ele><time>2026-04-07T12:12:41.327Z</time></trkpt><trkpt lat="40.9401853" lon="9.5060764"><ele>13.0</ele><time>2026-04-07T12:12:42.328Z</time></trkpt><trkpt lat="40.940327" lon="9.5059979"><ele>13.25</ele><time>2026-04-07T12:12:43.328Z</time></trkpt><trkpt lat="40.9404666" lon="9.5059216"><ele>13.5</ele><time>2026-04-07T12:12:44.327Z</time></trkpt><trkpt lat="40.9406046" lon="9.5058496"><ele>13.75</ele><time>2026-04-07T12:12:45.328Z</time></trkpt><trkpt lat="40.9407369" lon="9.5057831"><ele>14.0</ele><time>2026-04-07T12:12:46.327Z</time></trkpt><trkpt lat="40.9408678" lon="9.5057147"><ele>14.75</ele><time>2026-04-07T12:12:47.328Z</time></trkpt><trkpt lat="40.9410076" lon="9.5056451"><ele>15.5</ele><time>2026-04-07T12:12:48.328Z</time></trkpt><trkpt lat="40.9411444" lon="9.5055733"><ele>16.25</ele><time>2026-04-07T12:12:49.327Z</time></trkpt><trkpt lat="40.9412831" lon="9.5054996"><ele>17.0</ele><time>2026-04-07T12:12:50.328Z</time></trkpt><trkpt lat="40.9414277" lon="9.5054304"><ele>18.0</ele><time>2026-04-07T12:12:51.328Z</time></trkpt><trkpt lat="40.9415711" lon="9.5053543"><ele>19.0</ele><time>2026-04-07T12:12:52.327Z</time></trkpt><trkpt lat="40.9417135" lon="9.5052824"><ele>20.0</ele><time>2026-04-07T12:12:53.328Z</time></trkpt><trkpt lat="40.9418601" lon="9.5052118"><ele>20.0</ele><time>2026-04-07T12:12:54.328Z</time></trkpt><trkpt lat="40.9420064" lon="9.5051382"><ele>20.0</ele><time>2026-04-07T12:12:55.328Z</time></trkpt><trkpt lat="40.9421558" lon="9.5050638"><ele>20.0</ele><time>2026-04-07T12:12:56.328Z</time></trkpt><trkpt lat="40.9423036" lon="9.5049894"><ele>20.0</ele><time>2026-04-07T12:12:57.327Z</time></trkpt><trkpt lat="40.9424535" lon="9.5049141"><ele>20.0</ele><time>2026-04-07T12:12:58.327Z</time></trkpt><trkpt lat="40.9426019" lon="9.5048331"><ele>20.0</ele><time>2026-04-07T12:12:59.328Z</time></trkpt><trkpt lat="40.9427552" lon="9.5047575"><ele>19.666666666666668</ele><time>2026-04-07T12:13:00.327Z</time></trkpt><trkpt lat="40.9429094" lon="9.504677"><ele>19.333333333333332</ele><time>2026-04-07T12:13:01.328Z</time></trkpt><trkpt lat="40.943064" lon="9.5045991"><ele>19.0</ele><time>2026-04-07T12:13:02.328Z</time></trkpt><trkpt lat="40.9432088" lon="9.5045237"><ele>19.25</ele><time>2026-04-07T12:13:03.328Z</time></trkpt><trkpt lat="40.9433483" lon="9.5044494"><ele>19.5</ele><time>2026-04-07T12:13:04.328Z</time></trkpt><trkpt lat="40.9434816" lon="9.5043752"><ele>19.75</ele><time>2026-04-07T12:13:05.328Z</time></trkpt><trkpt lat="40.9436126" lon="9.5043086"><ele>20.0</ele><time>2026-04-07T12:13:06.328Z</time></trkpt><trkpt lat="40.9437374" lon="9.5042413"><ele>20.0</ele><time>2026-04-07T12:13:07.328Z</time></trkpt><trkpt lat="40.9438531" lon="9.5041823"><ele>20.0</ele><time>2026-04-07T12:13:08.328Z</time></trkpt><trkpt lat="40.9439633" lon="9.5041272"><ele>20.0</ele><time>2026-04-07T12:13:09.328Z</time></trkpt><trkpt lat="40.9440676" lon="9.5040786"><ele>20.0</ele><time>2026-04-07T12:13:10.328Z</time></trkpt><trkpt lat="40.9441738" lon="9.5040305"><ele>20.2</ele><time>2026-04-07T12:13:11.328Z</time></trkpt><trkpt lat="40.9442748" lon="9.5039787"><ele>20.4</ele><time>2026-04-07T12:13:12.328Z</time></trkpt><trkpt lat="40.9443812" lon="9.5039338"><ele>20.6</ele><time>2026-04-07T12:13:13.327Z</time></trkpt><trkpt lat="40.9444855" lon="9.5038903"><ele>20.8</ele><time>2026-04-07T12:13:14.328Z</time></trkpt><trkpt lat="40.9445886" lon="9.5038685"><ele>21.0</ele><time>2026-04-07T12:13:15.328Z</time></trkpt><trkpt lat="40.9446834" lon="9.5038657"><ele>21.0</ele><time>2026-04-07T12:13:16.328Z</time></trkpt><trkpt lat="40.9447835" lon="9.5038753"><ele>21.0</ele><time>2026-04-07T12:13:17.328Z</time></trkpt><trkpt lat="40.9448838" lon="9.5038797"><ele>21.0</ele><time>2026-04-07T12:13:18.327Z</time></trkpt><trkpt lat="40.9449854" lon="9.5038447"><ele>21.0</ele><time>2026-04-07T12:13:19.327Z</time></trkpt><trkpt lat="40.9450832" lon="9.5037622"><ele>21.0</ele><time>2026-04-07T12:13:20.327Z</time></trkpt><trkpt lat="40.9451639" lon="9.5036498"><ele>21.75</ele><time>2026-04-07T12:13:21.328Z</time></trkpt><trkpt lat="40.945261" lon="9.5035354"><ele>22.5</ele><time>2026-04-07T12:13:22.327Z</time></trkpt><trkpt lat="40.9453818" lon="9.5034358"><ele>23.25</ele><time>2026-04-07T12:13:23.328Z</time></trkpt><trkpt lat="40.9455086" lon="9.5033521"><ele>24.0</ele><time>2026-04-07T12:13:24.327Z</time></trkpt><trkpt lat="40.9456425" lon="9.5032785"><ele>24.0</ele><time>2026-04-07T12:13:25.328Z</time></trkpt><trkpt lat="40.9457838" lon="9.5032056"><ele>24.0</ele><time>2026-04-07T12:13:26.328Z</time></trkpt><trkpt lat="40.9459276" lon="9.503127"><ele>24.0</ele><time>2026-04-07T12:13:27.328Z</time></trkpt><trkpt lat="40.9460758" lon="9.5030504"><ele>24.0</ele><time>2026-04-07T12:13:28.328Z</time></trkpt><trkpt lat="40.9462207" lon="9.5029719"><ele>24.0</ele><time>2026-04-07T12:13:29.327Z</time></trkpt><trkpt lat="40.9463708" lon="9.5028941"><ele>24.0</ele><time>2026-04-07T12:13:30.327Z</time></trkpt><trkpt lat="40.9465244" lon="9.5028154"><ele>24.0</ele><time>2026-04-07T12:13:31.327Z</time></trkpt><trkpt lat="40.9466816" lon="9.5027339"><ele>24.0</ele><time>2026-04-07T12:13:32.328Z</time></trkpt><trkpt lat="40.9468389" lon="9.5026487"><ele>24.0</ele><time>2026-04-07T12:13:33.328Z</time></trkpt><trkpt lat="40.9470034" lon="9.5025705"><ele>25.0</ele><time>2026-04-07T12:13:34.328Z</time></trkpt><trkpt lat="40.9471652" lon="9.5024833"><ele>26.0</ele><time>2026-04-07T12:13:35.328Z</time></trkpt><trkpt lat="40.9473321" lon="9.5023923"><ele>27.0</ele><time>2026-04-07T12:13:36.328Z</time></trkpt><trkpt lat="40.9475035" lon="9.5023041"><ele>28.333333333333336</ele><time>2026-04-07T12:13:37.327Z</time></trkpt><trkpt lat="40.9476769" lon="9.5022136"><ele>29.666666666666668</ele><time>2026-04-07T12:13:38.328Z</time></trkpt><trkpt lat="40.9478484" lon="9.5021351"><ele>31.0</ele><time>2026-04-07T12:13:39.328Z</time></trkpt><trkpt lat="40.9480173" lon="9.5020499"><ele>31.0</ele><time>2026-04-07T12:13:40.328Z</time></trkpt><trkpt lat="40.948183" lon="9.5019667"><ele>31.0</ele><time>2026-04-07T12:13:41.327Z</time></trkpt><trkpt lat="40.9483486" lon="9.5018857"><ele>31.0</ele><time>2026-04-07T12:13:42.328Z</time></trkpt><trkpt lat="40.9485141" lon="9.5018079"><ele>31.333333333333336</ele><time>2026-04-07T12:13:43.328Z</time></trkpt><trkpt lat="40.9486816" lon="9.5017265"><ele>31.666666666666664</ele><time>2026-04-07T12:13:44.328Z</time></trkpt><trkpt lat="40.9488434" lon="9.5016457"><ele>32.0</ele><time>2026-04-07T12:13:45.328Z</time></trkpt><trkpt lat="40.949003" lon="9.5015701"><ele>32.0</ele><time>2026-04-07T12:13:46.328Z</time></trkpt><trkpt lat="40.9491555" lon="9.5015042"><ele>32.0</ele><time>2026-04-07T12:13:47.327Z</time></trkpt><trkpt lat="40.9493123" lon="9.5014385"><ele>32.0</ele><time>2026-04-07T12:13:48.328Z</time></trkpt><trkpt lat="40.9494711" lon="9.5013821"><ele>32.666666666666664</ele><time>2026-04-07T12:13:49.328Z</time></trkpt><trkpt lat="40.9496318" lon="9.5013478"><ele>33.333333333333336</ele><time>2026-04-07T12:13:50.327Z</time></trkpt><trkpt lat="40.9497929" lon="9.5013315"><ele>34.0</ele><time>2026-04-07T12:13:51.328Z</time></trkpt><trkpt lat="40.9499415" lon="9.5013451"><ele>35.0</ele><time>2026-04-07T12:13:52.327Z</time></trkpt><trkpt lat="40.9500891" lon="9.5013799"><ele>36.0</ele><time>2026-04-07T12:13:53.328Z</time></trkpt><trkpt lat="40.9502286" lon="9.501432"><ele>37.0</ele><time>2026-04-07T12:13:54.327Z</time></trkpt><trkpt lat="40.9503702" lon="9.501518"><ele>37.0</ele><time>2026-04-07T12:13:55.328Z</time></trkpt><trkpt lat="40.9505035" lon="9.5016265"><ele>37.0</ele><time>2026-04-07T12:13:56.327Z</time></trkpt><trkpt lat="40.9506153" lon="9.5017395"><ele>37.0</ele><time>2026-04-07T12:13:57.328Z</time></trkpt><trkpt lat="40.9507189" lon="9.5018574"><ele>37.0</ele><time>2026-04-07T12:13:58.328Z</time></trkpt><trkpt lat="40.9507947" lon="9.5019755"><ele>37.0</ele><time>2026-04-07T12:13:59.328Z</time></trkpt><trkpt lat="40.9508396" lon="9.5020699"><ele>37.0</ele><time>2026-04-07T12:14:00.327Z</time></trkpt><trkpt lat="40.9508856" lon="9.5021714"><ele>37.0</ele><time>2026-04-07T12:14:01.328Z</time></trkpt><trkpt lat="40.9509277" lon="9.5022664"><ele>37.0</ele><time>2026-04-07T12:14:02.327Z</time></trkpt><trkpt lat="40.9509545" lon="9.5023578"><ele>37.0</ele><time>2026-04-07T12:14:03.328Z</time></trkpt><trkpt lat="40.9509781" lon="9.5024515"><ele>37.0</ele><time>2026-04-07T12:14:05.328Z</time></trkpt><trkpt lat="40.9510084" lon="9.5025538"><ele>36.6</ele><time>2026-04-07T12:14:36.328Z</time></trkpt><trkpt lat="40.9510161" lon="9.5026439"><ele>36.2</ele><time>2026-04-07T12:14:37.327Z</time></trkpt><trkpt lat="40.9510018" lon="9.5027654"><ele>35.8</ele><time>2026-04-07T12:14:38.328Z</time></trkpt><trkpt lat="40.9509697" lon="9.5029039"><ele>35.4</ele><time>2026-04-07T12:14:39.327Z</time></trkpt><trkpt lat="40.9509094" lon="9.5030412"><ele>35.0</ele><time>2026-04-07T12:14:40.328Z</time></trkpt><trkpt lat="40.9508295" lon="9.5031604"><ele>34.75</ele><time>2026-04-07T12:14:41.327Z</time></trkpt><trkpt lat="40.9507348" lon="9.5032613"><ele>34.5</ele><time>2026-04-07T12:14:42.328Z</time></trkpt><trkpt lat="40.9506242" lon="9.5033414"><ele>34.25</ele><time>2026-04-07T12:14:43.328Z</time></trkpt><trkpt lat="40.9505082" lon="9.5034074"><ele>34.0</ele><time>2026-04-07T12:14:44.327Z</time></trkpt><trkpt lat="40.9503789" lon="9.5034707"><ele>34.0</ele><time>2026-04-07T12:14:45.328Z</time></trkpt><trkpt lat="40.950249" lon="9.5035325"><ele>34.0</ele><time>2026-04-07T12:14:46.328Z</time></trkpt><trkpt lat="40.9501087" lon="9.5035924"><ele>34.0</ele><time>2026-04-07T12:14:47.327Z</time></trkpt><trkpt lat="40.9499594" lon="9.5036609"><ele>34.0</ele><time>2026-04-07T12:14:48.327Z</time></trkpt><trkpt lat="40.9498015" lon="9.5037258"><ele>33.66666666666667</ele><time>2026-04-07T12:14:49.328Z</time></trkpt><trkpt lat="40.9496418" lon="9.503798"><ele>33.333333333333336</ele><time>2026-04-07T12:14:50.328Z</time></trkpt><trkpt lat="40.9494756" lon="9.503871"><ele>33.0</ele><time>2026-04-07T12:14:51.328Z</time></trkpt><trkpt lat="40.9493159" lon="9.5039463"><ele>33.0</ele><time>2026-04-07T12:14:52.328Z</time></trkpt><trkpt lat="40.9491547" lon="9.5040164"><ele>33.0</ele><time>2026-04-07T12:14:53.328Z</time></trkpt><trkpt lat="40.9490091" lon="9.5040741"><ele>33.0</ele><time>2026-04-07T12:14:54.328Z</time></trkpt><trkpt lat="40.9488685" lon="9.5041372"><ele>33.0</ele><time>2026-04-07T12:14:55.327Z</time></trkpt><trkpt lat="40.9487304" lon="9.5041874"><ele>33.0</ele><time>2026-04-07T12:14:56.328Z</time></trkpt><trkpt lat="40.9486064" lon="9.5042099"><ele>33.0</ele><time>2026-04-07T12:14:57.328Z</time></trkpt><trkpt lat="40.9484768" lon="9.504199"><ele>33.0</ele><time>2026-04-07T12:14:58.327Z</time></trkpt><trkpt lat="40.9483559" lon="9.5041477"><ele>32.25</ele><time>2026-04-07T12:14:59.328Z</time></trkpt><trkpt lat="40.9482462" lon="9.5040663"><ele>31.5</ele><time>2026-04-07T12:15:00.327Z</time></trkpt><trkpt lat="40.9481503" lon="9.503951"><ele>30.75</ele><time>2026-04-07T12:15:01.328Z</time></trkpt><trkpt lat="40.9480874" lon="9.5038056"><ele>30.0</ele><time>2026-04-07T12:15:02.328Z</time></trkpt><trkpt lat="40.9480459" lon="9.5036415"><ele>30.0</ele><time>2026-04-07T12:15:03.328Z</time></trkpt><trkpt lat="40.9480455" lon="9.5034582"><ele>30.0</ele><time>2026-04-07T12:15:04.328Z</time></trkpt><trkpt lat="40.9480876" lon="9.5032702"><ele>30.0</ele><time>2026-04-07T12:15:05.328Z</time></trkpt><trkpt lat="40.94816" lon="9.5030966"><ele>30.0</ele><time>2026-04-07T12:15:06.327Z</time></trkpt><trkpt lat="40.9482669" lon="9.5029763"><ele>31.0</ele><time>2026-04-07T12:15:07.327Z</time></trkpt><trkpt lat="40.9483858" lon="9.5028935"><ele>32.0</ele><time>2026-04-07T12:15:08.327Z</time></trkpt><trkpt lat="40.9485219" lon="9.5028694"><ele>33.0</ele><time>2026-04-07T12:15:09.327Z</time></trkpt><trkpt lat="40.9486654" lon="9.5028909"><ele>34.0</ele><time>2026-04-07T12:15:10.328Z</time></trkpt><trkpt lat="40.9488101" lon="9.5029652"><ele>34.0</ele><time>2026-04-07T12:15:11.328Z</time></trkpt><trkpt lat="40.9489376" lon="9.5030946"><ele>34.0</ele><time>2026-04-07T12:15:12.328Z</time></trkpt><trkpt lat="40.949049" lon="9.5032512"><ele>34.0</ele><time>2026-04-07T12:15:13.327Z</time></trkpt><trkpt lat="40.9491321" lon="9.5034262"><ele>34.0</ele><time>2026-04-07T12:15:14.328Z</time></trkpt><trkpt lat="40.949194" lon="9.5036014"><ele>34.0</ele><time>2026-04-07T12:15:15.328Z</time></trkpt><trkpt lat="40.9492492" lon="9.5037878"><ele>34.0</ele><time>2026-04-07T12:15:16.328Z</time></trkpt><trkpt lat="40.9493031" lon="9.5039839"><ele>33.66666666666667</ele><time>2026-04-07T12:15:17.327Z</time></trkpt><trkpt lat="40.9493601" lon="9.5041893"><ele>33.333333333333336</ele><time>2026-04-07T12:15:18.328Z</time></trkpt><trkpt lat="40.949421" lon="9.5044061"><ele>33.0</ele><time>2026-04-07T12:15:19.327Z</time></trkpt><trkpt lat="40.9494789" lon="9.5046397"><ele>32.333333333333336</ele><time>2026-04-07T12:15:20.328Z</time></trkpt><trkpt lat="40.9495356" lon="9.5048773"><ele>31.666666666666668</ele><time>2026-04-07T12:15:21.328Z</time></trkpt><trkpt lat="40.9495897" lon="9.505119"><ele>31.0</ele><time>2026-04-07T12:15:22.328Z</time></trkpt><trkpt lat="40.9496334" lon="9.5053505"><ele>31.333333333333336</ele><time>2026-04-07T12:15:23.327Z</time></trkpt><trkpt lat="40.9496789" lon="9.5055802"><ele>31.666666666666664</ele><time>2026-04-07T12:15:24.328Z</time></trkpt><trkpt lat="40.9497184" lon="9.5058156"><ele>32.0</ele><time>2026-04-07T12:15:25.328Z</time></trkpt><trkpt lat="40.9497537" lon="9.506055"><ele>30.666666666666664</ele><time>2026-04-07T12:15:26.327Z</time></trkpt><trkpt lat="40.9497866" lon="9.5062927"><ele>29.333333333333336</ele><time>2026-04-07T12:15:27.328Z</time></trkpt><trkpt lat="40.9498126" lon="9.5065336"><ele>28.0</ele><time>2026-04-07T12:15:28.328Z</time></trkpt><trkpt lat="40.9498349" lon="9.5067827"><ele>28.0</ele><time>2026-04-07T12:15:29.328Z</time></trkpt><trkpt lat="40.9498509" lon="9.5070293"><ele>28.0</ele><time>2026-04-07T12:15:30.328Z</time></trkpt><trkpt lat="40.949864" lon="9.5072736"><ele>28.0</ele><time>2026-04-07T12:15:31.327Z</time></trkpt><trkpt lat="40.9498712" lon="9.5075118"><ele>27.333333333333336</ele><time>2026-04-07T12:15:32.327Z</time></trkpt><trkpt lat="40.9498725" lon="9.5077533"><ele>26.666666666666664</ele><time>2026-04-07T12:15:33.328Z</time></trkpt><trkpt lat="40.9498682" lon="9.5080018"><ele>26.0</ele><time>2026-04-07T12:15:34.328Z</time></trkpt><trkpt lat="40.9498579" lon="9.5082535"><ele>26.0</ele><time>2026-04-07T12:15:35.328Z</time></trkpt><trkpt lat="40.9498391" lon="9.5085099"><ele>26.0</ele><time>2026-04-07T12:15:36.328Z</time></trkpt><trkpt lat="40.9498124" lon="9.5087655"><ele>26.0</ele><time>2026-04-07T12:15:37.328Z</time></trkpt><trkpt lat="40.9497765" lon="9.5090249"><ele>26.333333333333332</ele><time>2026-04-07T12:15:38.328Z</time></trkpt><trkpt lat="40.9497376" lon="9.5092858"><ele>26.666666666666664</ele><time>2026-04-07T12:15:39.327Z</time></trkpt><trkpt lat="40.949695" lon="9.5095475"><ele>27.0</ele><time>2026-04-07T12:15:40.328Z</time></trkpt><trkpt lat="40.9496475" lon="9.5097999"><ele>28.333333333333336</ele><time>2026-04-07T12:15:41.328Z</time></trkpt><trkpt lat="40.9495908" lon="9.5100435"><ele>29.666666666666668</ele><time>2026-04-07T12:15:42.328Z</time></trkpt><trkpt lat="40.9495241" lon="9.5102786"><ele>31.0</ele><time>2026-04-07T12:15:43.328Z</time></trkpt><trkpt lat="40.9494628" lon="9.5105156"><ele>31.666666666666668</ele><time>2026-04-07T12:15:44.328Z</time></trkpt><trkpt lat="40.9493938" lon="9.5107454"><ele>32.333333333333336</ele><time>2026-04-07T12:15:45.328Z</time></trkpt><trkpt lat="40.9493236" lon="9.51097"><ele>33.0</ele><time>2026-04-07T12:15:46.328Z</time></trkpt><trkpt lat="40.9492524" lon="9.5111872"><ele>32.333333333333336</ele><time>2026-04-07T12:15:47.327Z</time></trkpt><trkpt lat="40.9491805" lon="9.5113991"><ele>31.666666666666668</ele><time>2026-04-07T12:15:48.328Z</time></trkpt><trkpt lat="40.9491062" lon="9.5116087"><ele>31.0</ele><time>2026-04-07T12:15:49.328Z</time></trkpt><trkpt lat="40.9490343" lon="9.5118184"><ele>31.0</ele><time>2026-04-07T12:15:50.328Z</time></trkpt><trkpt lat="40.9489599" lon="9.5120284"><ele>31.0</ele><time>2026-04-07T12:15:51.328Z</time></trkpt><trkpt lat="40.9488834" lon="9.5122351"><ele>31.0</ele><time>2026-04-07T12:15:52.327Z</time></trkpt><trkpt lat="40.9488129" lon="9.5124365"><ele>31.666666666666668</ele><time>2026-04-07T12:15:53.328Z</time></trkpt><trkpt lat="40.9487426" lon="9.5126319"><ele>32.333333333333336</ele><time>2026-04-07T12:15:54.327Z</time></trkpt><trkpt lat="40.9486758" lon="9.5128223"><ele>33.0</ele><time>2026-04-07T12:15:55.327Z</time></trkpt><trkpt lat="40.9486133" lon="9.5129953"><ele>33.25</ele><time>2026-04-07T12:15:56.328Z</time></trkpt><trkpt lat="40.9485542" lon="9.5131546"><ele>33.5</ele><time>2026-04-07T12:15:57.328Z</time></trkpt><trkpt lat="40.9485009" lon="9.5132943"><ele>33.75</ele><time>2026-04-07T12:15:58.327Z</time></trkpt><trkpt lat="40.9484495" lon="9.5134252"><ele>34.0</ele><time>2026-04-07T12:15:59.328Z</time></trkpt><trkpt lat="40.9483961" lon="9.5135494"><ele>34.0</ele><time>2026-04-07T12:16:00.328Z</time></trkpt><trkpt lat="40.9483404" lon="9.5136504"><ele>34.0</ele><time>2026-04-07T12:16:01.328Z</time></trkpt><trkpt lat="40.9482819" lon="9.5137428"><ele>34.0</ele><time>2026-04-07T12:16:02.327Z</time></trkpt><trkpt lat="40.9482225" lon="9.5138215"><ele>34.0</ele><time>2026-04-07T12:16:03.328Z</time></trkpt><trkpt lat="40.9481498" lon="9.51389"><ele>34.0</ele><time>2026-04-07T12:16:04.328Z</time></trkpt><trkpt lat="40.9480738" lon="9.5139577"><ele>34.0</ele><time>2026-04-07T12:16:05.328Z</time></trkpt><trkpt lat="40.9480115" lon="9.5140478"><ele>34.0</ele><time>2026-04-07T12:16:06.327Z</time></trkpt><trkpt lat="40.9479768" lon="9.5141655"><ele>34.0</ele><time>2026-04-07T12:16:07.327Z</time></trkpt><trkpt lat="40.947962" lon="9.5142953"><ele>34.0</ele><time>2026-04-07T12:16:08.328Z</time></trkpt><trkpt lat="40.9479667" lon="9.5144264"><ele>34.0</ele><time>2026-04-07T12:16:09.328Z</time></trkpt><trkpt lat="40.9479619" lon="9.514571"><ele>34.5</ele><time>2026-04-07T12:16:10.327Z</time></trkpt><trkpt lat="40.9479381" lon="9.5147211"><ele>35.0</ele><time>2026-04-07T12:16:11.327Z</time></trkpt><trkpt lat="40.9478949" lon="9.514877"><ele>35.5</ele><time>2026-04-07T12:16:12.328Z</time></trkpt><trkpt lat="40.9478399" lon="9.5150414"><ele>36.0</ele><time>2026-04-07T12:16:13.328Z</time></trkpt><trkpt lat="40.9477834" lon="9.5152076"><ele>36.0</ele><time>2026-04-07T12:16:14.328Z</time></trkpt><trkpt lat="40.9477305" lon="9.5153752"><ele>36.0</ele><time>2026-04-07T12:16:15.327Z</time></trkpt><trkpt lat="40.947665" lon="9.5155481"><ele>36.0</ele><time>2026-04-07T12:16:16.328Z</time></trkpt><trkpt lat="40.9475967" lon="9.515732"><ele>36.0</ele><time>2026-04-07T12:16:17.328Z</time></trkpt><trkpt lat="40.9475249" lon="9.5159208"><ele>36.0</ele><time>2026-04-07T12:16:18.328Z</time></trkpt><trkpt lat="40.9474575" lon="9.5161157"><ele>36.0</ele><time>2026-04-07T12:16:19.328Z</time></trkpt><trkpt lat="40.9473816" lon="9.5163137"><ele>36.0</ele><time>2026-04-07T12:16:20.328Z</time></trkpt><trkpt lat="40.9473092" lon="9.5165103"><ele>36.0</ele><time>2026-04-07T12:16:21.328Z</time></trkpt><trkpt lat="40.9472389" lon="9.5167043"><ele>36.0</ele><time>2026-04-07T12:16:22.327Z</time></trkpt><trkpt lat="40.9471695" lon="9.5168927"><ele>36.0</ele><time>2026-04-07T12:16:23.328Z</time></trkpt><trkpt lat="40.9470987" lon="9.5170781"><ele>36.666666666666664</ele><time>2026-04-07T12:16:24.327Z</time></trkpt><trkpt lat="40.9470271" lon="9.5172716"><ele>37.33333333333333</ele><time>2026-04-07T12:16:25.328Z</time></trkpt><trkpt lat="40.9469615" lon="9.5174647"><ele>38.0</ele><time>2026-04-07T12:16:26.328Z</time></trkpt><trkpt lat="40.9468972" lon="9.5176617"><ele>38.0</ele><time>2026-04-07T12:16:27.328Z</time></trkpt><trkpt lat="40.9468384" lon="9.5178619"><ele>38.0</ele><time>2026-04-07T12:16:28.328Z</time></trkpt><trkpt lat="40.9467835" lon="9.5180552"><ele>38.0</ele><time>2026-04-07T12:16:29.328Z</time></trkpt><trkpt lat="40.9467339" lon="9.5182558"><ele>36.666666666666664</ele><time>2026-04-07T12:16:30.328Z</time></trkpt><trkpt lat="40.9466855" lon="9.5184617"><ele>35.333333333333336</ele><time>2026-04-07T12:16:31.328Z</time></trkpt><trkpt lat="40.946636" lon="9.5186654"><ele>34.0</ele><time>2026-04-07T12:16:32.327Z</time></trkpt><trkpt lat="40.946596" lon="9.518868"><ele>34.0</ele><time>2026-04-07T12:16:33.328Z</time></trkpt><trkpt lat="40.9465211" lon="9.5192721"><ele>34.0</ele><time>2026-04-07T12:16:35.328Z</time></trkpt><trkpt lat="40.9464905" lon="9.5194677"><ele>33.25</ele><time>2026-04-07T12:16:36.327Z</time></trkpt><trkpt lat="40.9464649" lon="9.5196492"><ele>32.5</ele><time>2026-04-07T12:16:37.328Z</time></trkpt><trkpt lat="40.946439" lon="9.5198162"><ele>31.75</ele><time>2026-04-07T12:16:38.328Z</time></trkpt><trkpt lat="40.9464166" lon="9.5199754"><ele>31.0</ele><time>2026-04-07T12:16:39.327Z</time></trkpt><trkpt lat="40.9463933" lon="9.5201206"><ele>31.0</ele><time>2026-04-07T12:16:40.328Z</time></trkpt><trkpt lat="40.9463653" lon="9.520267"><ele>31.0</ele><time>2026-04-07T12:16:41.328Z</time></trkpt><trkpt lat="40.9463256" lon="9.5203944"><ele>31.0</ele><time>2026-04-07T12:16:42.328Z</time></trkpt><trkpt lat="40.9462699" lon="9.5205061"><ele>31.0</ele><time>2026-04-07T12:16:43.328Z</time></trkpt><trkpt lat="40.946216" lon="9.5206188"><ele>31.0</ele><time>2026-04-07T12:16:44.327Z</time></trkpt><trkpt lat="40.9461905" lon="9.520749"><ele>31.200000000000003</ele><time>2026-04-07T12:16:45.327Z</time></trkpt><trkpt lat="40.9461928" lon="9.5208795"><ele>31.400000000000002</ele><time>2026-04-07T12:16:46.328Z</time></trkpt><trkpt lat="40.9462233" lon="9.5209974"><ele>31.6</ele><time>2026-04-07T12:16:47.327Z</time></trkpt><trkpt lat="40.9462773" lon="9.5211137"><ele>31.8</ele><time>2026-04-07T12:16:48.328Z</time></trkpt><trkpt lat="40.9463198" lon="9.5212547"><ele>32.0</ele><time>2026-04-07T12:16:49.328Z</time></trkpt><trkpt lat="40.9463524" lon="9.5214144"><ele>32.5</ele><time>2026-04-07T12:16:50.328Z</time></trkpt><trkpt lat="40.9463715" lon="9.5215934"><ele>33.0</ele><time>2026-04-07T12:16:51.327Z</time></trkpt><trkpt lat="40.9463831" lon="9.5217873"><ele>33.5</ele><time>2026-04-07T12:16:52.327Z</time></trkpt><trkpt lat="40.9464027" lon="9.5219941"><ele>34.0</ele><time>2026-04-07T12:16:53.328Z</time></trkpt><trkpt lat="40.9464261" lon="9.522206"><ele>34.333333333333336</ele><time>2026-04-07T12:16:54.327Z</time></trkpt><trkpt lat="40.9464538" lon="9.5224211"><ele>34.666666666666664</ele><time>2026-04-07T12:16:55.328Z</time></trkpt><trkpt lat="40.9464832" lon="9.5226263"><ele>35.0</ele><time>2026-04-07T12:16:56.327Z</time></trkpt><trkpt lat="40.9465169" lon="9.5228217"><ele>33.33333333333333</ele><time>2026-04-07T12:16:57.328Z</time></trkpt><trkpt lat="40.9465587" lon="9.5230204"><ele>31.666666666666664</ele><time>2026-04-07T12:16:58.328Z</time></trkpt><trkpt lat="40.9466018" lon="9.5232191"><ele>30.0</ele><time>2026-04-07T12:16:59.327Z</time></trkpt><trkpt lat="40.94665" lon="9.5234192"><ele>30.0</ele><time>2026-04-07T12:17:00.327Z</time></trkpt><trkpt lat="40.9466975" lon="9.5236233"><ele>30.0</ele><time>2026-04-07T12:17:01.328Z</time></trkpt><trkpt lat="40.9467527" lon="9.5238384"><ele>30.0</ele><time>2026-04-07T12:17:02.328Z</time></trkpt><trkpt lat="40.9468086" lon="9.5240577"><ele>33.333333333333336</ele><time>2026-04-07T12:17:03.328Z</time></trkpt><trkpt lat="40.9468698" lon="9.5242859"><ele>36.66666666666667</ele><time>2026-04-07T12:17:04.328Z</time></trkpt><trkpt lat="40.9469337" lon="9.5245119"><ele>40.0</ele><time>2026-04-07T12:17:05.328Z</time></trkpt><trkpt lat="40.9469971" lon="9.524733"><ele>40.0</ele><time>2026-04-07T12:17:06.328Z</time></trkpt><trkpt lat="40.94706" lon="9.5249466"><ele>40.0</ele><time>2026-04-07T12:17:07.327Z</time></trkpt><trkpt lat="40.9471256" lon="9.5251666"><ele>40.0</ele><time>2026-04-07T12:17:08.327Z</time></trkpt><trkpt lat="40.9471888" lon="9.5253881"><ele>39.333333333333336</ele><time>2026-04-07T12:17:09.328Z</time></trkpt><trkpt lat="40.9472532" lon="9.5256103"><ele>38.666666666666664</ele><time>2026-04-07T12:17:10.328Z</time></trkpt><trkpt lat="40.9473209" lon="9.525838"><ele>38.0</ele><time>2026-04-07T12:17:11.327Z</time></trkpt><trkpt lat="40.9473897" lon="9.5260691"><ele>37.33333333333333</ele><time>2026-04-07T12:17:12.327Z</time></trkpt><trkpt lat="40.9474606" lon="9.5263071"><ele>36.666666666666664</ele><time>2026-04-07T12:17:13.328Z</time></trkpt><trkpt lat="40.9475323" lon="9.5265503"><ele>36.0</ele><time>2026-04-07T12:17:14.327Z</time></trkpt><trkpt lat="40.9476043" lon="9.5267944"><ele>36.0</ele><time>2026-04-07T12:17:15.327Z</time></trkpt><trkpt lat="40.9476743" lon="9.5270494"><ele>36.0</ele><time>2026-04-07T12:17:16.328Z</time></trkpt><trkpt lat="40.9477468" lon="9.5272996"><ele>36.0</ele><time>2026-04-07T12:17:17.327Z</time></trkpt><trkpt lat="40.94781" lon="9.5275396"><ele>34.666666666666664</ele><time>2026-04-07T12:17:18.328Z</time></trkpt><trkpt lat="40.9478805" lon="9.5277756"><ele>33.33333333333333</ele><time>2026-04-07T12:17:19.328Z</time></trkpt><trkpt lat="40.9479527" lon="9.5280168"><ele>32.0</ele><time>2026-04-07T12:17:20.328Z</time></trkpt><trkpt lat="40.9480191" lon="9.5282574"><ele>31.666666666666664</ele><time>2026-04-07T12:17:21.328Z</time></trkpt><trkpt lat="40.9480872" lon="9.5284993"><ele>31.333333333333336</ele><time>2026-04-07T12:17:22.327Z</time></trkpt><trkpt lat="40.9481552" lon="9.5287469"><ele>31.0</ele><time>2026-04-07T12:17:23.327Z</time></trkpt><trkpt lat="40.9482244" lon="9.5290094"><ele>31.0</ele><time>2026-04-07T12:17:24.328Z</time></trkpt><trkpt lat="40.9483013" lon="9.5292781"><ele>31.0</ele><time>2026-04-07T12:17:25.327Z</time></trkpt><trkpt lat="40.9483737" lon="9.5295536"><ele>31.0</ele><time>2026-04-07T12:17:26.328Z</time></trkpt><trkpt lat="40.948436" lon="9.5298316"><ele>33.333333333333336</ele><time>2026-04-07T12:17:27.328Z</time></trkpt><trkpt lat="40.9484983" lon="9.5301111"><ele>35.666666666666664</ele><time>2026-04-07T12:17:28.328Z</time></trkpt><trkpt lat="40.9485614" lon="9.5303901"><ele>38.0</ele><time>2026-04-07T12:17:29.328Z</time></trkpt><trkpt lat="40.9486181" lon="9.5306683"><ele>38.0</ele><time>2026-04-07T12:17:30.327Z</time></trkpt><trkpt lat="40.948668" lon="9.5309502"><ele>38.0</ele><time>2026-04-07T12:17:31.328Z</time></trkpt><trkpt lat="40.948713" lon="9.5312334"><ele>38.0</ele><time>2026-04-07T12:17:32.328Z</time></trkpt><trkpt lat="40.9487584" lon="9.5315232"><ele>37.33333333333333</ele><time>2026-04-07T12:17:33.328Z</time></trkpt><trkpt lat="40.9487997" lon="9.5318165"><ele>36.666666666666664</ele><time>2026-04-07T12:17:34.327Z</time></trkpt><trkpt lat="40.9488362" lon="9.5321081"><ele>36.0</ele><time>2026-04-07T12:17:35.328Z</time></trkpt><trkpt lat="40.9488725" lon="9.5324044"><ele>34.5</ele><time>2026-04-07T12:17:36.327Z</time></trkpt><trkpt lat="40.9489043" lon="9.5327014"><ele>33.0</ele><time>2026-04-07T12:17:37.328Z</time></trkpt><trkpt lat="40.948923" lon="9.5330083"><ele>29.5</ele><time>2026-04-07T12:17:38.327Z</time></trkpt><trkpt lat="40.9489501" lon="9.5333189"><ele>26.0</ele><time>2026-04-07T12:17:39.328Z</time></trkpt><trkpt lat="40.9489693" lon="9.5336177"><ele>25.0</ele><time>2026-04-07T12:17:40.328Z</time></trkpt><trkpt lat="40.9489923" lon="9.5339097"><ele>24.0</ele><time>2026-04-07T12:17:41.328Z</time></trkpt><trkpt lat="40.9490152" lon="9.5342031"><ele>23.0</ele><time>2026-04-07T12:17:42.328Z</time></trkpt><trkpt lat="40.9490344" lon="9.5344903"><ele>23.666666666666668</ele><time>2026-04-07T12:17:43.327Z</time></trkpt><trkpt lat="40.9490559" lon="9.5347798"><ele>24.333333333333336</ele><time>2026-04-07T12:17:44.328Z</time></trkpt><trkpt lat="40.9490811" lon="9.5350677"><ele>25.0</ele><time>2026-04-07T12:17:45.327Z</time></trkpt><trkpt lat="40.9491038" lon="9.5353593"><ele>26.333333333333336</ele><time>2026-04-07T12:17:46.328Z</time></trkpt><trkpt lat="40.9491278" lon="9.53565"><ele>27.666666666666664</ele><time>2026-04-07T12:17:47.327Z</time></trkpt><trkpt lat="40.9491506" lon="9.5359428"><ele>29.0</ele><time>2026-04-07T12:17:48.328Z</time></trkpt><trkpt lat="40.9491699" lon="9.5362366"><ele>30.333333333333332</ele><time>2026-04-07T12:17:49.328Z</time></trkpt><trkpt lat="40.9491916" lon="9.5365267"><ele>31.666666666666664</ele><time>2026-04-07T12:17:50.328Z</time></trkpt><trkpt lat="40.9492107" lon="9.5368216"><ele>33.0</ele><time>2026-04-07T12:17:51.328Z</time></trkpt><trkpt lat="40.9492321" lon="9.5371123"><ele>34.333333333333336</ele><time>2026-04-07T12:17:52.328Z</time></trkpt><trkpt lat="40.9492549" lon="9.5373994"><ele>35.66666666666667</ele><time>2026-04-07T12:17:53.328Z</time></trkpt><trkpt lat="40.9492807" lon="9.5376891"><ele>37.0</ele><time>2026-04-07T12:17:54.327Z</time></trkpt><trkpt lat="40.9492997" lon="9.5379826"><ele>41.5</ele><time>2026-04-07T12:17:55.328Z</time></trkpt><trkpt lat="40.9493198" lon="9.5382802"><ele>46.0</ele><time>2026-04-07T12:17:56.328Z</time></trkpt><trkpt lat="40.9493413" lon="9.5385828"><ele>49.5</ele><time>2026-04-07T12:17:57.327Z</time></trkpt><trkpt lat="40.9493632" lon="9.5388928"><ele>53.0</ele><time>2026-04-07T12:17:58.328Z</time></trkpt><trkpt lat="40.949388" lon="9.5392089"><ele>53.0</ele><time>2026-04-07T12:17:59.327Z</time></trkpt><trkpt lat="40.9494106" lon="9.5395315"><ele>53.0</ele><time>2026-04-07T12:18:00.328Z</time></trkpt><trkpt lat="40.9494292" lon="9.5398429"><ele>55.0</ele><time>2026-04-07T12:18:01.328Z</time></trkpt><trkpt lat="40.9494514" lon="9.5401556"><ele>57.0</ele><time>2026-04-07T12:18:02.328Z</time></trkpt><trkpt lat="40.9494768" lon="9.5404677"><ele>61.0</ele><time>2026-04-07T12:18:03.327Z</time></trkpt><trkpt lat="40.9495019" lon="9.5407726"><ele>65.0</ele><time>2026-04-07T12:18:04.328Z</time></trkpt><trkpt lat="40.9495306" lon="9.541078"><ele>71.0</ele><time>2026-04-07T12:18:05.328Z</time></trkpt><trkpt lat="40.949562" lon="9.5413801"><ele>77.0</ele><time>2026-04-07T12:18:06.327Z</time></trkpt><trkpt lat="40.949599" lon="9.5416755"><ele>77.0</ele><time>2026-04-07T12:18:07.328Z</time></trkpt><trkpt lat="40.9496414" lon="9.5419647"><ele>77.0</ele><time>2026-04-07T12:18:08.328Z</time></trkpt><trkpt lat="40.9496893" lon="9.5422455"><ele>77.0</ele><time>2026-04-07T12:18:09.328Z</time></trkpt><trkpt lat="40.9497445" lon="9.5425235"><ele>74.66666666666667</ele><time>2026-04-07T12:18:10.327Z</time></trkpt><trkpt lat="40.9498043" lon="9.5427996"><ele>72.33333333333333</ele><time>2026-04-07T12:18:11.327Z</time></trkpt><trkpt lat="40.9498769" lon="9.5430715"><ele>70.0</ele><time>2026-04-07T12:18:12.327Z</time></trkpt><trkpt lat="40.9499542" lon="9.5433348"><ele>70.66666666666666</ele><time>2026-04-07T12:18:13.328Z</time></trkpt><trkpt lat="40.9500377" lon="9.543597"><ele>71.33333333333333</ele><time>2026-04-07T12:18:14.328Z</time></trkpt><trkpt lat="40.9501242" lon="9.5438485"><ele>72.0</ele><time>2026-04-07T12:18:15.328Z</time></trkpt><trkpt lat="40.9502153" lon="9.5440961"><ele>72.0</ele><time>2026-04-07T12:18:16.328Z</time></trkpt><trkpt lat="40.9503096" lon="9.5443369"><ele>72.0</ele><time>2026-04-07T12:18:17.328Z</time></trkpt><trkpt lat="40.9504107" lon="9.5445779"><ele>72.0</ele><time>2026-04-07T12:18:18.327Z</time></trkpt><trkpt lat="40.9505161" lon="9.5448117"><ele>72.66666666666667</ele><time>2026-04-07T12:18:19.328Z</time></trkpt><trkpt lat="40.9506263" lon="9.5450359"><ele>73.33333333333334</ele><time>2026-04-07T12:18:20.328Z</time></trkpt><trkpt lat="40.9507323" lon="9.5452476"><ele>74.0</ele><time>2026-04-07T12:18:21.328Z</time></trkpt><trkpt lat="40.9508389" lon="9.545443"><ele>79.33333333333334</ele><time>2026-04-07T12:18:22.328Z</time></trkpt><trkpt lat="40.9509477" lon="9.545621"><ele>84.66666666666667</ele><time>2026-04-07T12:18:23.327Z</time></trkpt><trkpt lat="40.9510528" lon="9.5457835"><ele>90.0</ele><time>2026-04-07T12:18:24.328Z</time></trkpt><trkpt lat="40.9511516" lon="9.54593"><ele>90.0</ele><time>2026-04-07T12:18:25.327Z</time></trkpt><trkpt lat="40.9512482" lon="9.5460629"><ele>90.0</ele><time>2026-04-07T12:18:26.327Z</time></trkpt><trkpt lat="40.9513564" lon="9.546183"><ele>90.0</ele><time>2026-04-07T12:18:27.328Z</time></trkpt><trkpt lat="40.951458" lon="9.5463102"><ele>90.0</ele><time>2026-04-07T12:18:28.328Z</time></trkpt><trkpt lat="40.9515611" lon="9.5464334"><ele>61.0</ele><time>2026-04-07T12:18:29.328Z</time></trkpt><trkpt lat="40.9567875" lon="9.552308"><ele>61.0</ele><time>2026-04-07T12:19:11.323Z</time></trkpt><trkpt lat="40.9569558" lon="9.5524486"><ele>61.0</ele><time>2026-04-07T12:19:12.326Z</time></trkpt><trkpt lat="40.9571035" lon="9.5526033"><ele>61.0</ele><time>2026-04-07T12:19:13.322Z</time></trkpt><trkpt lat="40.9572527" lon="9.5527693"><ele>58.666666666666664</ele><time>2026-04-07T12:19:14.324Z</time></trkpt><trkpt lat="40.9574023" lon="9.5529359"><ele>56.33333333333333</ele><time>2026-04-07T12:19:15.328Z</time></trkpt><trkpt lat="40.9575525" lon="9.5531081"><ele>54.0</ele><time>2026-04-07T12:19:16.328Z</time></trkpt><trkpt lat="40.9577046" lon="9.5532868"><ele>53.0</ele><time>2026-04-07T12:19:17.328Z</time></trkpt><trkpt lat="40.9578556" lon="9.5534759"><ele>52.0</ele><time>2026-04-07T12:19:18.328Z</time></trkpt><trkpt lat="40.9580026" lon="9.5536677"><ele>51.0</ele><time>2026-04-07T12:19:19.328Z</time></trkpt><trkpt lat="40.9581376" lon="9.553864"><ele>50.0</ele><time>2026-04-07T12:19:20.328Z</time></trkpt><trkpt lat="40.9582662" lon="9.5540554"><ele>49.0</ele><time>2026-04-07T12:19:21.328Z</time></trkpt><trkpt lat="40.958381" lon="9.5542604"><ele>48.0</ele><time>2026-04-07T12:19:22.328Z</time></trkpt><trkpt lat="40.9584866" lon="9.554472"><ele>46.666666666666664</ele><time>2026-04-07T12:19:23.328Z</time></trkpt><trkpt lat="40.9585961" lon="9.5546908"><ele>45.33333333333333</ele><time>2026-04-07T12:19:24.327Z</time></trkpt><trkpt lat="40.9587046" lon="9.554913"><ele>44.0</ele><time>2026-04-07T12:19:25.328Z</time></trkpt><trkpt lat="40.9588121" lon="9.5551349"><ele>44.0</ele><time>2026-04-07T12:19:26.328Z</time></trkpt><trkpt lat="40.9589134" lon="9.5553592"><ele>44.0</ele><time>2026-04-07T12:19:27.328Z</time></trkpt><trkpt lat="40.959014" lon="9.5555908"><ele>44.0</ele><time>2026-04-07T12:19:28.328Z</time></trkpt><trkpt lat="40.9591024" lon="9.5558241"><ele>44.33333333333333</ele><time>2026-04-07T12:19:29.328Z</time></trkpt><trkpt lat="40.9591826" lon="9.5560638"><ele>44.666666666666664</ele><time>2026-04-07T12:19:30.328Z</time></trkpt><trkpt lat="40.9592566" lon="9.5563028"><ele>45.0</ele><time>2026-04-07T12:19:31.328Z</time></trkpt><trkpt lat="40.9593235" lon="9.5565484"><ele>45.0</ele><time>2026-04-07T12:19:32.327Z</time></trkpt><trkpt lat="40.9593864" lon="9.5567915"><ele>45.0</ele><time>2026-04-07T12:19:33.327Z</time></trkpt><trkpt lat="40.9594515" lon="9.557037"><ele>45.0</ele><time>2026-04-07T12:19:34.327Z</time></trkpt><trkpt lat="40.9595117" lon="9.5572885"><ele>43.666666666666664</ele><time>2026-04-07T12:19:35.328Z</time></trkpt><trkpt lat="40.9595679" lon="9.5575462"><ele>42.33333333333333</ele><time>2026-04-07T12:19:36.328Z</time></trkpt><trkpt lat="40.9596278" lon="9.5578046"><ele>41.0</ele><time>2026-04-07T12:19:37.328Z</time></trkpt><trkpt lat="40.9596951" lon="9.5580644"><ele>40.0</ele><time>2026-04-07T12:19:38.328Z</time></trkpt><trkpt lat="40.9597595" lon="9.5583164"><ele>39.0</ele><time>2026-04-07T12:19:39.328Z</time></trkpt><trkpt lat="40.9598264" lon="9.5585676"><ele>38.0</ele><time>2026-04-07T12:19:40.327Z</time></trkpt><trkpt lat="40.9598891" lon="9.5588211"><ele>38.0</ele><time>2026-04-07T12:19:41.328Z</time></trkpt><trkpt lat="40.9599567" lon="9.5590778"><ele>38.0</ele><time>2026-04-07T12:19:42.327Z</time></trkpt><trkpt lat="40.960027" lon="9.5593391"><ele>38.0</ele><time>2026-04-07T12:19:43.328Z</time></trkpt><trkpt lat="40.9601011" lon="9.559601"><ele>38.0</ele><time>2026-04-07T12:19:44.328Z</time></trkpt><trkpt lat="40.9601816" lon="9.5598632"><ele>38.0</ele><time>2026-04-07T12:19:45.327Z</time></trkpt><trkpt lat="40.9602684" lon="9.5601304"><ele>38.0</ele><time>2026-04-07T12:19:46.328Z</time></trkpt><trkpt lat="40.9603569" lon="9.5603918"><ele>36.0</ele><time>2026-04-07T12:19:47.328Z</time></trkpt><trkpt lat="40.9604464" lon="9.5606527"><ele>34.0</ele><time>2026-04-07T12:19:48.328Z</time></trkpt><trkpt lat="40.9605428" lon="9.5609041"><ele>32.0</ele><time>2026-04-07T12:19:49.328Z</time></trkpt><trkpt lat="40.9606479" lon="9.5611488"><ele>31.333333333333332</ele><time>2026-04-07T12:19:50.328Z</time></trkpt><trkpt lat="40.9607556" lon="9.561387"><ele>30.666666666666664</ele><time>2026-04-07T12:19:51.328Z</time></trkpt><trkpt lat="40.9608634" lon="9.5616222"><ele>30.0</ele><time>2026-04-07T12:19:52.327Z</time></trkpt><trkpt lat="40.9609754" lon="9.5618586"><ele>31.333333333333336</ele><time>2026-04-07T12:19:53.328Z</time></trkpt><trkpt lat="40.9610901" lon="9.5620806"><ele>32.66666666666667</ele><time>2026-04-07T12:19:54.327Z</time></trkpt><trkpt lat="40.9612102" lon="9.5623082"><ele>34.0</ele><time>2026-04-07T12:19:55.327Z</time></trkpt><trkpt lat="40.9613416" lon="9.5625374"><ele>34.0</ele><time>2026-04-07T12:19:56.327Z</time></trkpt><trkpt lat="40.9614852" lon="9.5627676"><ele>34.0</ele><time>2026-04-07T12:19:57.328Z</time></trkpt><trkpt lat="40.9616431" lon="9.5630108"><ele>35.0</ele><time>2026-04-07T12:19:58.327Z</time></trkpt><trkpt lat="40.9618092" lon="9.5632643"><ele>36.0</ele><time>2026-04-07T12:19:59.328Z</time></trkpt><trkpt lat="40.9619804" lon="9.5635403"><ele>36.0</ele><time>2026-04-07T12:20:00.328Z</time></trkpt><trkpt lat="40.9621653" lon="9.5638313"><ele>36.0</ele><time>2026-04-07T12:20:01.328Z</time></trkpt><trkpt lat="40.9623558" lon="9.5641344"><ele>36.0</ele><time>2026-04-07T12:20:02.327Z</time></trkpt><trkpt lat="40.9625501" lon="9.564454"><ele>36.0</ele><time>2026-04-07T12:20:03.328Z</time></trkpt><trkpt lat="40.9627461" lon="9.5647665"><ele>36.0</ele><time>2026-04-07T12:20:04.328Z</time></trkpt><trkpt lat="40.9629392" lon="9.5650716"><ele>36.0</ele><time>2026-04-07T12:20:05.328Z</time></trkpt><trkpt lat="40.9631241" lon="9.5653633"><ele>36.5</ele><time>2026-04-07T12:20:06.328Z</time></trkpt><trkpt lat="40.9633044" lon="9.5656416"><ele>37.0</ele><time>2026-04-07T12:20:07.328Z</time></trkpt><trkpt lat="40.9634796" lon="9.5659249"><ele>33.5</ele><time>2026-04-07T12:20:08.328Z</time></trkpt><trkpt lat="40.9636535" lon="9.5662015"><ele>30.0</ele><time>2026-04-07T12:20:09.328Z</time></trkpt><trkpt lat="40.9638244" lon="9.5664792"><ele>30.0</ele><time>2026-04-07T12:20:10.328Z</time></trkpt><trkpt lat="40.9639936" lon="9.5667589"><ele>30.0</ele><time>2026-04-07T12:20:11.327Z</time></trkpt><trkpt lat="40.9641555" lon="9.567044"><ele>29.0</ele><time>2026-04-07T12:20:12.328Z</time></trkpt><trkpt lat="40.9643113" lon="9.5673396"><ele>28.0</ele><time>2026-04-07T12:20:13.328Z</time></trkpt><trkpt lat="40.9644624" lon="9.5676408"><ele>28.5</ele><time>2026-04-07T12:20:14.328Z</time></trkpt><trkpt lat="40.9646102" lon="9.5679419"><ele>29.0</ele><time>2026-04-07T12:20:15.327Z</time></trkpt><trkpt lat="40.9647556" lon="9.5682413"><ele>29.0</ele><time>2026-04-07T12:20:16.328Z</time></trkpt><trkpt lat="40.9649002" lon="9.5685308"><ele>29.0</ele><time>2026-04-07T12:20:17.328Z</time></trkpt><trkpt lat="40.9650441" lon="9.568809"><ele>28.5</ele><time>2026-04-07T12:20:18.328Z</time></trkpt><trkpt lat="40.9651884" lon="9.5690805"><ele>28.0</ele><time>2026-04-07T12:20:19.327Z</time></trkpt><trkpt lat="40.9653389" lon="9.5693474"><ele>24.5</ele><time>2026-04-07T12:20:20.328Z</time></trkpt><trkpt lat="40.9655055" lon="9.5695971"><ele>21.0</ele><time>2026-04-07T12:20:21.328Z</time></trkpt><trkpt lat="40.9656863" lon="9.5698299"><ele>21.0</ele><time>2026-04-07T12:20:22.327Z</time></trkpt><trkpt lat="40.9658811" lon="9.5700514"><ele>21.0</ele><time>2026-04-07T12:20:23.328Z</time></trkpt><trkpt lat="40.9660905" lon="9.5702433"><ele>20.0</ele><time>2026-04-07T12:20:24.328Z</time></trkpt><trkpt lat="40.9663156" lon="9.570414"><ele>19.0</ele><time>2026-04-07T12:20:25.328Z</time></trkpt><trkpt lat="40.9665515" lon="9.5705535"><ele>19.5</ele><time>2026-04-07T12:20:26.328Z</time></trkpt><trkpt lat="40.9668039" lon="9.5706581"><ele>20.0</ele><time>2026-04-07T12:20:27.328Z</time></trkpt><trkpt lat="40.9670695" lon="9.5707369"><ele>20.0</ele><time>2026-04-07T12:20:28.328Z</time></trkpt><trkpt lat="40.9673347" lon="9.5707959"><ele>20.0</ele><time>2026-04-07T12:20:29.327Z</time></trkpt><trkpt lat="40.9675855" lon="9.5708442"><ele>22.0</ele><time>2026-04-07T12:20:30.328Z</time></trkpt><trkpt lat="40.9678248" lon="9.5708848"><ele>24.0</ele><time>2026-04-07T12:20:31.328Z</time></trkpt><trkpt lat="40.9680522" lon="9.5709233"><ele>24.0</ele><time>2026-04-07T12:20:32.327Z</time></trkpt><trkpt lat="40.9682611" lon="9.5709746"><ele>24.0</ele><time>2026-04-07T12:20:33.328Z</time></trkpt><trkpt lat="40.9684717" lon="9.571049"><ele>24.0</ele><time>2026-04-07T12:20:34.328Z</time></trkpt><trkpt lat="40.9686851" lon="9.5711499"><ele>23.5</ele><time>2026-04-07T12:20:35.327Z</time></trkpt><trkpt lat="40.9688981" lon="9.5712869"><ele>23.0</ele><time>2026-04-07T12:20:36.328Z</time></trkpt><trkpt lat="40.9691013" lon="9.5714419"><ele>27.0</ele><time>2026-04-07T12:20:37.328Z</time></trkpt><trkpt lat="40.9693063" lon="9.5715891"><ele>31.0</ele><time>2026-04-07T12:20:38.328Z</time></trkpt><trkpt lat="40.9695159" lon="9.5717363"><ele>31.0</ele><time>2026-04-07T12:20:39.328Z</time></trkpt><trkpt lat="40.9697245" lon="9.5718876"><ele>31.0</ele><time>2026-04-07T12:20:40.328Z</time></trkpt><trkpt lat="40.9699291" lon="9.5720404"><ele>35.0</ele><time>2026-04-07T12:20:41.328Z</time></trkpt><trkpt lat="40.970116" lon="9.5721885"><ele>39.0</ele><time>2026-04-07T12:20:42.328Z</time></trkpt><trkpt lat="40.9702907" lon="9.5723512"><ele>43.0</ele><time>2026-04-07T12:20:43.328Z</time></trkpt><trkpt lat="40.9704477" lon="9.5725513"><ele>43.0</ele><time>2026-04-07T12:20:44.328Z</time></trkpt><trkpt lat="40.9705845" lon="9.5727755"><ele>43.0</ele><time>2026-04-07T12:20:45.328Z</time></trkpt><trkpt lat="40.9707178" lon="9.5729906"><ele>43.0</ele><time>2026-04-07T12:20:46.328Z</time></trkpt><trkpt lat="40.97084" lon="9.5731902"><ele>44.333333333333336</ele><time>2026-04-07T12:20:47.328Z</time></trkpt><trkpt lat="40.9709551" lon="9.5733601"><ele>45.666666666666664</ele><time>2026-04-07T12:20:48.328Z</time></trkpt><trkpt lat="40.9710793" lon="9.5735103"><ele>47.0</ele><time>2026-04-07T12:20:49.328Z</time></trkpt><trkpt lat="40.9712151" lon="9.5736368"><ele>46.33333333333333</ele><time>2026-04-07T12:20:50.328Z</time></trkpt><trkpt lat="40.9713735" lon="9.5737215"><ele>45.666666666666664</ele><time>2026-04-07T12:20:51.327Z</time></trkpt><trkpt lat="40.9715418" lon="9.5737702"><ele>45.0</ele><time>2026-04-07T12:20:52.327Z</time></trkpt><trkpt lat="40.9717199" lon="9.5737761"><ele>45.0</ele><time>2026-04-07T12:20:53.328Z</time></trkpt><trkpt lat="40.9718938" lon="9.5737783"><ele>45.0</ele><time>2026-04-07T12:20:54.328Z</time></trkpt><trkpt lat="40.9720754" lon="9.5737741"><ele>45.0</ele><time>2026-04-07T12:20:55.328Z</time></trkpt><trkpt lat="40.9722673" lon="9.5737695"><ele>45.0</ele><time>2026-04-07T12:20:56.328Z</time></trkpt><trkpt lat="40.9724674" lon="9.5737661"><ele>45.0</ele><time>2026-04-07T12:20:57.327Z</time></trkpt><trkpt lat="40.9726683" lon="9.5737815"><ele>45.0</ele><time>2026-04-07T12:20:58.328Z</time></trkpt><trkpt lat="40.9728754" lon="9.5738285"><ele>45.666666666666664</ele><time>2026-04-07T12:20:59.327Z</time></trkpt><trkpt lat="40.9730757" lon="9.5739092"><ele>46.33333333333333</ele><time>2026-04-07T12:21:00.328Z</time></trkpt><trkpt lat="40.9732766" lon="9.5739989"><ele>47.0</ele><time>2026-04-07T12:21:01.327Z</time></trkpt><trkpt lat="40.9734823" lon="9.5740965"><ele>47.0</ele><time>2026-04-07T12:21:02.328Z</time></trkpt><trkpt lat="40.9736906" lon="9.5741904"><ele>47.0</ele><time>2026-04-07T12:21:03.327Z</time></trkpt><trkpt lat="40.9739021" lon="9.5742896"><ele>47.0</ele><time>2026-04-07T12:21:04.328Z</time></trkpt><trkpt lat="40.974121" lon="9.5743874"><ele>46.5</ele><time>2026-04-07T12:21:05.327Z</time></trkpt><trkpt lat="40.9743444" lon="9.5744854"><ele>46.0</ele><time>2026-04-07T12:21:06.328Z</time></trkpt><trkpt lat="40.9745711" lon="9.5745829"><ele>46.0</ele><time>2026-04-07T12:21:07.328Z</time></trkpt><trkpt lat="40.9747994" lon="9.5746883"><ele>46.0</ele><time>2026-04-07T12:21:08.328Z</time></trkpt><trkpt lat="40.9750274" lon="9.5748018"><ele>46.5</ele><time>2026-04-07T12:21:09.327Z</time></trkpt><trkpt lat="40.9752561" lon="9.5749185"><ele>47.0</ele><time>2026-04-07T12:21:10.327Z</time></trkpt><trkpt lat="40.9754824" lon="9.5750337"><ele>47.0</ele><time>2026-04-07T12:21:11.327Z</time></trkpt><trkpt lat="40.9757109" lon="9.575145"><ele>47.0</ele><time>2026-04-07T12:21:12.327Z</time></trkpt><trkpt lat="40.975942" lon="9.5752531"><ele>50.0</ele><time>2026-04-07T12:21:13.328Z</time></trkpt><trkpt lat="40.9761754" lon="9.5753642"><ele>53.0</ele><time>2026-04-07T12:21:14.327Z</time></trkpt><trkpt lat="40.9764084" lon="9.5754691"><ele>53.0</ele><time>2026-04-07T12:21:15.328Z</time></trkpt><trkpt lat="40.9766422" lon="9.5755729"><ele>53.0</ele><time>2026-04-07T12:21:16.328Z</time></trkpt><trkpt lat="40.9768751" lon="9.5756759"><ele>53.5</ele><time>2026-04-07T12:21:17.328Z</time></trkpt><trkpt lat="40.9771029" lon="9.575767"><ele>54.0</ele><time>2026-04-07T12:21:18.328Z</time></trkpt><trkpt lat="40.9773287" lon="9.5758614"><ele>54.0</ele><time>2026-04-07T12:21:19.328Z</time></trkpt><trkpt lat="40.9775426" lon="9.5759712"><ele>54.0</ele><time>2026-04-07T12:21:20.328Z</time></trkpt><trkpt lat="40.9777396" lon="9.5760929"><ele>54.0</ele><time>2026-04-07T12:21:21.327Z</time></trkpt><trkpt lat="40.9779197" lon="9.5762227"><ele>52.0</ele><time>2026-04-07T12:21:22.328Z</time></trkpt><trkpt lat="40.978101" lon="9.5763573"><ele>50.0</ele><time>2026-04-07T12:21:23.327Z</time></trkpt><trkpt lat="40.9782725" lon="9.5764907"><ele>48.0</ele><time>2026-04-07T12:21:24.328Z</time></trkpt><trkpt lat="40.9784344" lon="9.5766205"><ele>47.666666666666664</ele><time>2026-04-07T12:21:25.328Z</time></trkpt><trkpt lat="40.9785912" lon="9.5767316"><ele>47.33333333333333</ele><time>2026-04-07T12:21:26.327Z</time></trkpt><trkpt lat="40.9787469" lon="9.576802"><ele>47.0</ele><time>2026-04-07T12:21:27.328Z</time></trkpt><trkpt lat="40.9788964" lon="9.5768311"><ele>47.0</ele><time>2026-04-07T12:21:28.328Z</time></trkpt><trkpt lat="40.9790464" lon="9.5768152"><ele>47.0</ele><time>2026-04-07T12:21:29.328Z</time></trkpt><trkpt lat="40.9791924" lon="9.5767703"><ele>47.0</ele><time>2026-04-07T12:21:30.328Z</time></trkpt><trkpt lat="40.9793337" lon="9.5767081"><ele>47.0</ele><time>2026-04-07T12:21:31.328Z</time></trkpt><trkpt lat="40.979483" lon="9.576638"><ele>45.666666666666664</ele><time>2026-04-07T12:21:32.328Z</time></trkpt><trkpt lat="40.9796408" lon="9.5765879"><ele>44.333333333333336</ele><time>2026-04-07T12:21:33.328Z</time></trkpt><trkpt lat="40.979812" lon="9.5765689"><ele>43.0</ele><time>2026-04-07T12:21:34.327Z</time></trkpt><trkpt lat="40.9799888" lon="9.576603"><ele>44.0</ele><time>2026-04-07T12:21:35.328Z</time></trkpt><trkpt lat="40.9801646" lon="9.5766867"><ele>45.0</ele><time>2026-04-07T12:21:36.328Z</time></trkpt><trkpt lat="40.9803424" lon="9.576796"><ele>46.0</ele><time>2026-04-07T12:21:37.328Z</time></trkpt><trkpt lat="40.9805232" lon="9.5769102"><ele>46.0</ele><time>2026-04-07T12:21:38.327Z</time></trkpt><trkpt lat="40.9806978" lon="9.5770143"><ele>46.0</ele><time>2026-04-07T12:21:39.328Z</time></trkpt><trkpt lat="40.9808583" lon="9.5771128"><ele>46.0</ele><time>2026-04-07T12:21:40.328Z</time></trkpt><trkpt lat="40.9810136" lon="9.5771826"><ele>43.333333333333336</ele><time>2026-04-07T12:21:41.328Z</time></trkpt><trkpt lat="40.9811904" lon="9.5771983"><ele>40.666666666666664</ele><time>2026-04-07T12:21:42.328Z</time></trkpt><trkpt lat="40.9813629" lon="9.577165"><ele>38.0</ele><time>2026-04-07T12:21:43.328Z</time></trkpt><trkpt lat="40.9815518" lon="9.5770983"><ele>38.666666666666664</ele><time>2026-04-07T12:21:44.328Z</time></trkpt><trkpt lat="40.9817394" lon="9.5770204"><ele>39.333333333333336</ele><time>2026-04-07T12:21:45.328Z</time></trkpt><trkpt lat="40.9819331" lon="9.5769354"><ele>40.0</ele><time>2026-04-07T12:21:46.328Z</time></trkpt><trkpt lat="40.9821321" lon="9.5768462"><ele>40.333333333333336</ele><time>2026-04-07T12:21:47.327Z</time></trkpt><trkpt lat="40.9823407" lon="9.5767575"><ele>40.666666666666664</ele><time>2026-04-07T12:21:48.328Z</time></trkpt><trkpt lat="40.9825546" lon="9.5766686"><ele>41.0</ele><time>2026-04-07T12:21:49.328Z</time></trkpt><trkpt lat="40.9827738" lon="9.5765785"><ele>37.5</ele><time>2026-04-07T12:21:50.327Z</time></trkpt><trkpt lat="40.9829997" lon="9.5765026"><ele>34.0</ele><time>2026-04-07T12:21:51.327Z</time></trkpt><trkpt lat="40.9832325" lon="9.5764382"><ele>31.5</ele><time>2026-04-07T12:21:52.328Z</time></trkpt><trkpt lat="40.98347" lon="9.5763836"><ele>29.0</ele><time>2026-04-07T12:21:53.327Z</time></trkpt><trkpt lat="40.9837077" lon="9.5763244"><ele>29.0</ele><time>2026-04-07T12:21:54.328Z</time></trkpt><trkpt lat="40.9839456" lon="9.5762566"><ele>29.0</ele><time>2026-04-07T12:21:55.328Z</time></trkpt><trkpt lat="40.984181" lon="9.5761973"><ele>32.5</ele><time>2026-04-07T12:21:56.328Z</time></trkpt><trkpt lat="40.9844139" lon="9.5761448"><ele>36.0</ele><time>2026-04-07T12:21:57.327Z</time></trkpt><trkpt lat="40.9846318" lon="9.5761323"><ele>36.0</ele><time>2026-04-07T12:21:58.328Z</time></trkpt><trkpt lat="40.9848479" lon="9.5761628"><ele>36.0</ele><time>2026-04-07T12:21:59.328Z</time></trkpt><trkpt lat="40.9850545" lon="9.5762281"><ele>36.0</ele><time>2026-04-07T12:22:00.328Z</time></trkpt><trkpt lat="40.9852651" lon="9.576306"><ele>36.333333333333336</ele><time>2026-04-07T12:22:01.328Z</time></trkpt><trkpt lat="40.9854742" lon="9.5763901"><ele>36.66666666666667</ele><time>2026-04-07T12:22:02.328Z</time></trkpt><trkpt lat="40.9856821" lon="9.5764839"><ele>37.0</ele><time>2026-04-07T12:22:03.327Z</time></trkpt><trkpt lat="40.9858887" lon="9.5765693"><ele>38.66666666666667</ele><time>2026-04-07T12:22:04.328Z</time></trkpt><trkpt lat="40.986095" lon="9.5766582"><ele>40.333333333333336</ele><time>2026-04-07T12:22:05.328Z</time></trkpt><trkpt lat="40.9863003" lon="9.576747"><ele>42.0</ele><time>2026-04-07T12:22:06.328Z</time></trkpt><trkpt lat="40.9864964" lon="9.5768267"><ele>43.0</ele><time>2026-04-07T12:22:07.327Z</time></trkpt><trkpt lat="40.9866909" lon="9.5769018"><ele>44.0</ele><time>2026-04-07T12:22:08.327Z</time></trkpt><trkpt lat="40.9868811" lon="9.5769742"><ele>45.0</ele><time>2026-04-07T12:22:09.328Z</time></trkpt><trkpt lat="40.9870594" lon="9.5770444"><ele>43.0</ele><time>2026-04-07T12:22:10.328Z</time></trkpt><trkpt lat="40.9872343" lon="9.5770954"><ele>41.0</ele><time>2026-04-07T12:22:11.327Z</time></trkpt><trkpt lat="40.9874097" lon="9.5770957"><ele>39.0</ele><time>2026-04-07T12:22:12.328Z</time></trkpt><trkpt lat="40.9875943" lon="9.5770463"><ele>40.0</ele><time>2026-04-07T12:22:13.328Z</time></trkpt><trkpt lat="40.9877768" lon="9.5769662"><ele>41.0</ele><time>2026-04-07T12:22:14.328Z</time></trkpt><trkpt lat="40.9879604" lon="9.5768912"><ele>42.0</ele><time>2026-04-07T12:22:15.327Z</time></trkpt><trkpt lat="40.9881457" lon="9.5768158"><ele>42.0</ele><time>2026-04-07T12:22:16.327Z</time></trkpt><trkpt lat="40.9883252" lon="9.5767386"><ele>42.0</ele><time>2026-04-07T12:22:17.328Z</time></trkpt><trkpt lat="40.9884965" lon="9.576674"><ele>42.0</ele><time>2026-04-07T12:22:18.327Z</time></trkpt><trkpt lat="40.9886626" lon="9.5766479"><ele>43.0</ele><time>2026-04-07T12:22:19.328Z</time></trkpt><trkpt lat="40.9888379" lon="9.5766688"><ele>44.0</ele><time>2026-04-07T12:22:20.328Z</time></trkpt><trkpt lat="40.9890073" lon="9.5767553"><ele>45.0</ele><time>2026-04-07T12:22:21.328Z</time></trkpt><trkpt lat="40.9891757" lon="9.576868"><ele>45.333333333333336</ele><time>2026-04-07T12:22:22.328Z</time></trkpt><trkpt lat="40.9893527" lon="9.5769882"><ele>45.66666666666667</ele><time>2026-04-07T12:22:23.328Z</time></trkpt><trkpt lat="40.9895413" lon="9.5771126"><ele>46.0</ele><time>2026-04-07T12:22:24.328Z</time></trkpt><trkpt lat="40.9897355" lon="9.5772462"><ele>46.0</ele><time>2026-04-07T12:22:25.328Z</time></trkpt><trkpt lat="40.989935" lon="9.5773821"><ele>46.0</ele><time>2026-04-07T12:22:26.328Z</time></trkpt><trkpt lat="40.990134" lon="9.5775207"><ele>46.0</ele><time>2026-04-07T12:22:27.327Z</time></trkpt><trkpt lat="40.9903256" lon="9.5776608"><ele>47.333333333333336</ele><time>2026-04-07T12:22:28.328Z</time></trkpt><trkpt lat="40.9905135" lon="9.5777886"><ele>48.66666666666667</ele><time>2026-04-07T12:22:29.328Z</time></trkpt><trkpt lat="40.9907082" lon="9.5779225"><ele>50.0</ele><time>2026-04-07T12:22:30.328Z</time></trkpt><trkpt lat="40.9909114" lon="9.5780605"><ele>52.0</ele><time>2026-04-07T12:22:31.328Z</time></trkpt><trkpt lat="40.9911239" lon="9.5781782"><ele>54.0</ele><time>2026-04-07T12:22:32.327Z</time></trkpt><trkpt lat="40.9913565" lon="9.5782736"><ele>54.0</ele><time>2026-04-07T12:22:33.328Z</time></trkpt><trkpt lat="40.9915973" lon="9.5783545"><ele>54.0</ele><time>2026-04-07T12:22:34.328Z</time></trkpt><trkpt lat="40.9918511" lon="9.5784348"><ele>53.5</ele><time>2026-04-07T12:22:35.328Z</time></trkpt><trkpt lat="40.9921123" lon="9.5785256"><ele>53.0</ele><time>2026-04-07T12:22:36.328Z</time></trkpt><trkpt lat="40.9923739" lon="9.5786161"><ele>57.0</ele><time>2026-04-07T12:22:37.328Z</time></trkpt><trkpt lat="40.9926334" lon="9.5787044"><ele>61.0</ele><time>2026-04-07T12:22:38.328Z</time></trkpt><trkpt lat="40.9928902" lon="9.5787913"><ele>61.0</ele><time>2026-04-07T12:22:39.328Z</time></trkpt><trkpt lat="40.9931337" lon="9.5788772"><ele>61.0</ele><time>2026-04-07T12:22:40.328Z</time></trkpt><trkpt lat="40.9933601" lon="9.5789557"><ele>61.0</ele><time>2026-04-07T12:22:41.328Z</time></trkpt><trkpt lat="40.9935728" lon="9.5790311"><ele>61.0</ele><time>2026-04-07T12:22:42.327Z</time></trkpt><trkpt lat="40.9937668" lon="9.5791267"><ele>61.0</ele><time>2026-04-07T12:22:43.327Z</time></trkpt><trkpt lat="40.9939486" lon="9.5792518"><ele>61.0</ele><time>2026-04-07T12:22:44.328Z</time></trkpt><trkpt lat="40.994114" lon="9.5794071"><ele>61.0</ele><time>2026-04-07T12:22:45.328Z</time></trkpt><trkpt lat="40.9942773" lon="9.5795795"><ele>61.0</ele><time>2026-04-07T12:22:46.327Z</time></trkpt><trkpt lat="40.9944375" lon="9.5797586"><ele>61.33333333333333</ele><time>2026-04-07T12:22:47.327Z</time></trkpt><trkpt lat="40.994597" lon="9.5799432"><ele>61.66666666666667</ele><time>2026-04-07T12:22:48.328Z</time></trkpt><trkpt lat="40.994753" lon="9.5801255"><ele>62.0</ele><time>2026-04-07T12:22:49.328Z</time></trkpt><trkpt lat="40.9949118" lon="9.5803052"><ele>64.33333333333334</ele><time>2026-04-07T12:22:50.328Z</time></trkpt><trkpt lat="40.9950705" lon="9.5804804"><ele>66.66666666666667</ele><time>2026-04-07T12:22:51.328Z</time></trkpt><trkpt lat="40.9952244" lon="9.5806571"><ele>69.0</ele><time>2026-04-07T12:22:52.328Z</time></trkpt><trkpt lat="40.9953806" lon="9.5808412"><ele>69.0</ele><time>2026-04-07T12:22:53.327Z</time></trkpt><trkpt lat="40.9955414" lon="9.5810269"><ele>69.0</ele><time>2026-04-07T12:22:54.328Z</time></trkpt><trkpt lat="40.995709" lon="9.5812129"><ele>69.0</ele><time>2026-04-07T12:22:55.328Z</time></trkpt><trkpt lat="40.9958775" lon="9.5813989"><ele>72.5</ele><time>2026-04-07T12:22:56.328Z</time></trkpt><trkpt lat="40.9960523" lon="9.5815887"><ele>76.0</ele><time>2026-04-07T12:22:57.328Z</time></trkpt><trkpt lat="40.9962092" lon="9.5818034"><ele>76.5</ele><time>2026-04-07T12:22:58.327Z</time></trkpt><trkpt lat="40.9963498" lon="9.5820433"><ele>77.0</ele><time>2026-04-07T12:22:59.328Z</time></trkpt><trkpt lat="40.996466" lon="9.5823055"><ele>77.0</ele><time>2026-04-07T12:23:00.328Z</time></trkpt><trkpt lat="40.996583" lon="9.5825794"><ele>77.0</ele><time>2026-04-07T12:23:01.327Z</time></trkpt><trkpt lat="40.9966958" lon="9.5828551"><ele>80.0</ele><time>2026-04-07T12:23:02.328Z</time></trkpt><trkpt lat="40.9968054" lon="9.5831247"><ele>83.0</ele><time>2026-04-07T12:23:03.328Z</time></trkpt><trkpt lat="40.9969133" lon="9.5833862"><ele>83.0</ele><time>2026-04-07T12:23:04.328Z</time></trkpt><trkpt lat="40.9970153" lon="9.5836304"><ele>83.0</ele><time>2026-04-07T12:23:05.328Z</time></trkpt><trkpt lat="40.9971202" lon="9.5838713"><ele>83.0</ele><time>2026-04-07T12:23:06.327Z</time></trkpt><trkpt lat="40.99723" lon="9.5841155"><ele>81.0</ele><time>2026-04-07T12:23:07.328Z</time></trkpt><trkpt lat="40.997335" lon="9.5843618"><ele>79.0</ele><time>2026-04-07T12:23:08.328Z</time></trkpt><trkpt lat="40.9974357" lon="9.5845979"><ele>77.0</ele><time>2026-04-07T12:23:09.327Z</time></trkpt><trkpt lat="40.9975342" lon="9.5848318"><ele>73.33333333333334</ele><time>2026-04-07T12:23:10.328Z</time></trkpt><trkpt lat="40.9976306" lon="9.5850529"><ele>69.66666666666667</ele><time>2026-04-07T12:23:11.328Z</time></trkpt><trkpt lat="40.9977155" lon="9.5852638"><ele>66.0</ele><time>2026-04-07T12:23:12.327Z</time></trkpt><trkpt lat="40.9977732" lon="9.5854791"><ele>66.33333333333333</ele><time>2026-04-07T12:23:13.327Z</time></trkpt><trkpt lat="40.997805" lon="9.5857198"><ele>66.66666666666666</ele><time>2026-04-07T12:23:14.328Z</time></trkpt><trkpt lat="40.9978156" lon="9.585973"><ele>67.0</ele><time>2026-04-07T12:23:15.328Z</time></trkpt><trkpt lat="40.9978106" lon="9.586217"><ele>67.0</ele><time>2026-04-07T12:23:16.328Z</time></trkpt><trkpt lat="40.9977833" lon="9.5864478"><ele>67.0</ele><time>2026-04-07T12:23:17.327Z</time></trkpt><trkpt lat="40.9977316" lon="9.5866861"><ele>67.0</ele><time>2026-04-07T12:23:18.327Z</time></trkpt><trkpt lat="40.9976447" lon="9.5869257"><ele>68.0</ele><time>2026-04-07T12:23:19.327Z</time></trkpt><trkpt lat="40.9975356" lon="9.5871763"><ele>69.0</ele><time>2026-04-07T12:23:20.327Z</time></trkpt><trkpt lat="40.9974165" lon="9.5874325"><ele>70.0</ele><time>2026-04-07T12:23:21.328Z</time></trkpt><trkpt lat="40.997287" lon="9.5876844"><ele>72.66666666666666</ele><time>2026-04-07T12:23:22.327Z</time></trkpt><trkpt lat="40.9971623" lon="9.5879343"><ele>75.33333333333333</ele><time>2026-04-07T12:23:23.328Z</time></trkpt><trkpt lat="40.9970472" lon="9.5881591"><ele>78.0</ele><time>2026-04-07T12:23:24.327Z</time></trkpt><trkpt lat="40.9969382" lon="9.5883657"><ele>78.0</ele><time>2026-04-07T12:23:25.327Z</time></trkpt><trkpt lat="40.9968373" lon="9.5885594"><ele>78.0</ele><time>2026-04-07T12:23:26.328Z</time></trkpt><trkpt lat="40.9967432" lon="9.5887458"><ele>78.0</ele><time>2026-04-07T12:23:27.328Z</time></trkpt><trkpt lat="40.9966579" lon="9.5889185"><ele>78.0</ele><time>2026-04-07T12:23:28.328Z</time></trkpt><trkpt lat="40.9965679" lon="9.5891004"><ele>78.0</ele><time>2026-04-07T12:23:29.327Z</time></trkpt><trkpt lat="40.9964814" lon="9.589293"><ele>78.0</ele><time>2026-04-07T12:23:30.328Z</time></trkpt><trkpt lat="40.9964011" lon="9.5895059"><ele>81.0</ele><time>2026-04-07T12:23:31.328Z</time></trkpt><trkpt lat="40.9963315" lon="9.5897257"><ele>84.0</ele><time>2026-04-07T12:23:32.328Z</time></trkpt><trkpt lat="40.9962617" lon="9.5899252"><ele>87.0</ele><time>2026-04-07T12:23:33.328Z</time></trkpt><trkpt lat="40.9962065" lon="9.5901183"><ele>87.0</ele><time>2026-04-07T12:23:34.328Z</time></trkpt><trkpt lat="40.9961521" lon="9.5902998"><ele>87.0</ele><time>2026-04-07T12:23:35.328Z</time></trkpt><trkpt lat="40.9961046" lon="9.590493"><ele>87.0</ele><time>2026-04-07T12:23:36.328Z</time></trkpt><trkpt lat="40.9960935" lon="9.5906862"><ele>87.0</ele><time>2026-04-07T12:23:37.328Z</time></trkpt><trkpt lat="40.9961169" lon="9.5908822"><ele>86.66666666666667</ele><time>2026-04-07T12:23:38.328Z</time></trkpt><trkpt lat="40.9961821" lon="9.5910679"><ele>86.33333333333334</ele><time>2026-04-07T12:23:39.328Z</time></trkpt><trkpt lat="40.9962918" lon="9.5912328"><ele>86.0</ele><time>2026-04-07T12:23:40.328Z</time></trkpt><trkpt lat="40.9964472" lon="9.5913729"><ele>84.0</ele><time>2026-04-07T12:23:41.328Z</time></trkpt><trkpt lat="40.9966145" lon="9.5914812"><ele>82.0</ele><time>2026-04-07T12:23:42.327Z</time></trkpt><trkpt lat="40.9967897" lon="9.5915745"><ele>80.0</ele><time>2026-04-07T12:23:43.328Z</time></trkpt><trkpt lat="40.9969542" lon="9.591661"><ele>80.0</ele><time>2026-04-07T12:23:44.328Z</time></trkpt><trkpt lat="40.997116" lon="9.5917257"><ele>80.0</ele><time>2026-04-07T12:23:45.328Z</time></trkpt><trkpt lat="40.9972815" lon="9.5917628"><ele>80.0</ele><time>2026-04-07T12:23:46.327Z</time></trkpt><trkpt lat="40.9974591" lon="9.5917748"><ele>80.33333333333334</ele><time>2026-04-07T12:23:47.327Z</time></trkpt><trkpt lat="40.997626" lon="9.591762"><ele>80.66666666666667</ele><time>2026-04-07T12:23:48.328Z</time></trkpt><trkpt lat="40.9977848" lon="9.5917416"><ele>81.0</ele><time>2026-04-07T12:23:49.328Z</time></trkpt><trkpt lat="40.9979371" lon="9.5917326"><ele>81.0</ele><time>2026-04-07T12:23:50.328Z</time></trkpt><trkpt lat="40.9980746" lon="9.5917366"><ele>81.0</ele><time>2026-04-07T12:23:51.328Z</time></trkpt><trkpt lat="40.9982002" lon="9.5917619"><ele>81.0</ele><time>2026-04-07T12:23:52.328Z</time></trkpt><trkpt lat="40.9983145" lon="9.591811"><ele>81.0</ele><time>2026-04-07T12:23:53.327Z</time></trkpt><trkpt lat="40.9984147" lon="9.5918867"><ele>80.6</ele><time>2026-04-07T12:23:54.328Z</time></trkpt><trkpt lat="40.9984905" lon="9.5919726"><ele>80.19999999999999</ele><time>2026-04-07T12:23:55.328Z</time></trkpt><trkpt lat="40.9985381" lon="9.5920567"><ele>79.80000000000001</ele><time>2026-04-07T12:23:56.328Z</time></trkpt><trkpt lat="40.9985745" lon="9.5922043"><ele>79.4</ele><time>2026-04-07T12:23:58.328Z</time></trkpt><trkpt lat="40.998623" lon="9.5923371"><ele>79.0</ele><time>2026-04-07T12:24:00.328Z</time></trkpt><trkpt lat="40.9986384" lon="9.5924308"><ele>79.0</ele><time>2026-04-07T12:24:02.327Z</time></trkpt><trkpt lat="40.9987155" lon="9.592393"><ele>79.0</ele><time>2026-04-07T12:59:50.328Z</time></trkpt><trkpt lat="40.9987883" lon="9.592431"><ele>79.0</ele><time>2026-04-07T12:59:54.327Z</time></trkpt><trkpt lat="40.9988494" lon="9.5924516"><ele>79.0</ele><time>2026-04-07T12:59:58.327Z</time></trkpt><trkpt lat="40.9989199" lon="9.5924174"><ele>79.0</ele><time>2026-04-07T13:01:04.328Z</time></trkpt><trkpt lat="40.9990095" lon="9.5924358"><ele>79.0</ele><time>2026-04-07T13:01:06.327Z</time></trkpt><trkpt lat="40.999136" lon="9.5924997"><ele>79.83333333333333</ele><time>2026-04-07T13:01:08.328Z</time></trkpt><trkpt lat="40.9992015" lon="9.5925354"><ele>80.66666666666666</ele><time>2026-04-07T13:01:09.327Z</time></trkpt><trkpt lat="40.9992766" lon="9.5925694"><ele>81.5</ele><time>2026-04-07T13:01:10.328Z</time></trkpt><trkpt lat="40.9993517" lon="9.5926071"><ele>82.33333333333333</ele><time>2026-04-07T13:01:11.328Z</time></trkpt><trkpt lat="40.9994326" lon="9.5926454"><ele>83.16666666666667</ele><time>2026-04-07T13:01:12.328Z</time></trkpt><trkpt lat="40.9995123" lon="9.5926821"><ele>84.0</ele><time>2026-04-07T13:01:13.327Z</time></trkpt><trkpt lat="40.9995932" lon="9.5927249"><ele>84.0</ele><time>2026-04-07T13:01:14.327Z</time></trkpt><trkpt lat="40.9996729" lon="9.5927706"><ele>84.0</ele><time>2026-04-07T13:01:15.328Z</time></trkpt><trkpt lat="40.9997488" lon="9.5928316"><ele>84.0</ele><time>2026-04-07T13:01:16.328Z</time></trkpt><trkpt lat="40.9998219" lon="9.5929024"><ele>84.0</ele><time>2026-04-07T13:01:17.328Z</time></trkpt><trkpt lat="40.9998914" lon="9.59299"><ele>84.0</ele><time>2026-04-07T13:01:18.327Z</time></trkpt><trkpt lat="40.9999537" lon="9.5930805"><ele>80.8</ele><time>2026-04-07T13:01:19.328Z</time></trkpt><trkpt lat="41.0000141" lon="9.5931781"><ele>77.60000000000001</ele><time>2026-04-07T13:01:20.328Z</time></trkpt><trkpt lat="41.0000691" lon="9.5932752"><ele>74.4</ele><time>2026-04-07T13:01:21.328Z</time></trkpt><trkpt lat="41.0001286" lon="9.593376"><ele>71.2</ele><time>2026-04-07T13:01:22.328Z</time></trkpt><trkpt lat="41.0001952" lon="9.5934747"><ele>68.0</ele><time>2026-04-07T13:01:23.327Z</time></trkpt><trkpt lat="41.0002671" lon="9.5935679"><ele>68.0</ele><time>2026-04-07T13:01:24.328Z</time></trkpt><trkpt lat="41.0003438" lon="9.5936452"><ele>68.0</ele><time>2026-04-07T13:01:25.327Z</time></trkpt><trkpt lat="41.000435" lon="9.5937021"><ele>68.0</ele><time>2026-04-07T13:01:26.327Z</time></trkpt><trkpt lat="41.0005301" lon="9.5937446"><ele>68.0</ele><time>2026-04-07T13:01:27.328Z</time></trkpt><trkpt lat="41.0006308" lon="9.5937762"><ele>68.0</ele><time>2026-04-07T13:01:28.328Z</time></trkpt><trkpt lat="41.0007351" lon="9.593802"><ele>65.2</ele><time>2026-04-07T13:01:29.328Z</time></trkpt><trkpt lat="41.0008436" lon="9.5938278"><ele>62.4</ele><time>2026-04-07T13:01:30.327Z</time></trkpt><trkpt lat="41.0009499" lon="9.5938526"><ele>59.60000000000001</ele><time>2026-04-07T13:01:31.328Z</time></trkpt><trkpt lat="41.0010606" lon="9.5938807"><ele>56.800000000000004</ele><time>2026-04-07T13:01:32.328Z</time></trkpt><trkpt lat="41.0011734" lon="9.5939073"><ele>54.0</ele><time>2026-04-07T13:01:33.327Z</time></trkpt><trkpt lat="41.0012883" lon="9.5939377"><ele>54.0</ele><time>2026-04-07T13:01:34.328Z</time></trkpt><trkpt lat="41.0013985" lon="9.5939754"><ele>54.0</ele><time>2026-04-07T13:01:35.327Z</time></trkpt><trkpt lat="41.0015072" lon="9.5940284"><ele>54.0</ele><time>2026-04-07T13:01:36.327Z</time></trkpt><trkpt lat="41.001607" lon="9.5940939"><ele>54.0</ele><time>2026-04-07T13:01:37.328Z</time></trkpt><trkpt lat="41.0017056" lon="9.5941685"><ele>55.25</ele><time>2026-04-07T13:01:38.328Z</time></trkpt><trkpt lat="41.0018008" lon="9.5942504"><ele>56.5</ele><time>2026-04-07T13:01:39.328Z</time></trkpt><trkpt lat="41.0018949" lon="9.5943379"><ele>57.75</ele><time>2026-04-07T13:01:40.328Z</time></trkpt><trkpt lat="41.0019832" lon="9.5944302"><ele>59.0</ele><time>2026-04-07T13:01:41.328Z</time></trkpt><trkpt lat="41.0020595" lon="9.5945342"><ele>56.6</ele><time>2026-04-07T13:01:42.328Z</time></trkpt><trkpt lat="41.002137" lon="9.5946436"><ele>54.2</ele><time>2026-04-07T13:01:43.328Z</time></trkpt><trkpt lat="41.0022103" lon="9.5947593"><ele>51.800000000000004</ele><time>2026-04-07T13:01:44.327Z</time></trkpt><trkpt lat="41.0022703" lon="9.5948766"><ele>49.400000000000006</ele><time>2026-04-07T13:01:45.327Z</time></trkpt><trkpt lat="41.0023285" lon="9.5949946"><ele>47.0</ele><time>2026-04-07T13:01:46.328Z</time></trkpt><trkpt lat="41.0023882" lon="9.5951048"><ele>47.0</ele><time>2026-04-07T13:01:47.328Z</time></trkpt><trkpt lat="41.0024475" lon="9.5952108"><ele>47.0</ele><time>2026-04-07T13:01:48.328Z</time></trkpt><trkpt lat="41.0025119" lon="9.5953258"><ele>47.0</ele><time>2026-04-07T13:01:49.327Z</time></trkpt><trkpt lat="41.0025737" lon="9.5954361"><ele>47.0</ele><time>2026-04-07T13:01:50.328Z</time></trkpt><trkpt lat="41.0026336" lon="9.5955576"><ele>47.0</ele><time>2026-04-07T13:01:51.328Z</time></trkpt><trkpt lat="41.00269" lon="9.5956868"><ele>46.75</ele><time>2026-04-07T13:01:52.328Z</time></trkpt><trkpt lat="41.0027327" lon="9.5958286"><ele>46.5</ele><time>2026-04-07T13:01:53.328Z</time></trkpt><trkpt lat="41.0027612" lon="9.5959739"><ele>46.25</ele><time>2026-04-07T13:01:54.328Z</time></trkpt><trkpt lat="41.0027811" lon="9.5961278"><ele>46.0</ele><time>2026-04-07T13:01:55.328Z</time></trkpt><trkpt lat="41.002795" lon="9.5962893"><ele>46.5</ele><time>2026-04-07T13:01:56.328Z</time></trkpt><trkpt lat="41.0028108" lon="9.5964603"><ele>47.0</ele><time>2026-04-07T13:01:57.328Z</time></trkpt><trkpt lat="41.0028212" lon="9.5966303"><ele>47.5</ele><time>2026-04-07T13:01:58.328Z</time></trkpt><trkpt lat="41.0028345" lon="9.5968009"><ele>48.0</ele><time>2026-04-07T13:01:59.328Z</time></trkpt><trkpt lat="41.0028587" lon="9.5969695"><ele>47.75</ele><time>2026-04-07T13:02:00.327Z</time></trkpt><trkpt lat="41.0028924" lon="9.5971267"><ele>47.5</ele><time>2026-04-07T13:02:01.328Z</time></trkpt><trkpt lat="41.002946" lon="9.5972774"><ele>47.25</ele><time>2026-04-07T13:02:02.328Z</time></trkpt><trkpt lat="41.0030172" lon="9.5974176"><ele>47.0</ele><time>2026-04-07T13:02:03.328Z</time></trkpt><trkpt lat="41.0031087" lon="9.5975399"><ele>47.0</ele><time>2026-04-07T13:02:04.327Z</time></trkpt><trkpt lat="41.0032152" lon="9.5976488"><ele>47.0</ele><time>2026-04-07T13:02:05.328Z</time></trkpt><trkpt lat="41.0033298" lon="9.5977598"><ele>47.0</ele><time>2026-04-07T13:02:06.328Z</time></trkpt><trkpt lat="41.0034456" lon="9.5978721"><ele>47.0</ele><time>2026-04-07T13:02:07.327Z</time></trkpt><trkpt lat="41.0035539" lon="9.5979771"><ele>45.8</ele><time>2026-04-07T13:02:08.327Z</time></trkpt><trkpt lat="41.0036396" lon="9.5980946"><ele>44.6</ele><time>2026-04-07T13:02:09.328Z</time></trkpt><trkpt lat="41.0036856" lon="9.5982197"><ele>43.4</ele><time>2026-04-07T13:02:10.328Z</time></trkpt><trkpt lat="41.0036886" lon="9.5983526"><ele>42.199999999999996</ele><time>2026-04-07T13:02:11.328Z</time></trkpt><trkpt lat="41.0036599" lon="9.59848"><ele>41.0</ele><time>2026-04-07T13:02:12.328Z</time></trkpt><trkpt lat="41.003626" lon="9.5986039"><ele>39.8</ele><time>2026-04-07T13:02:13.328Z</time></trkpt><trkpt lat="41.0035848" lon="9.5987319"><ele>38.599999999999994</ele><time>2026-04-07T13:02:14.328Z</time></trkpt><trkpt lat="41.0035405" lon="9.5988632"><ele>37.4</ele><time>2026-04-07T13:02:15.327Z</time></trkpt><trkpt lat="41.0035008" lon="9.5989944"><ele>36.2</ele><time>2026-04-07T13:02:16.327Z</time></trkpt><trkpt lat="41.0034599" lon="9.5991207"><ele>35.0</ele><time>2026-04-07T13:02:17.328Z</time></trkpt><trkpt lat="41.0034222" lon="9.5992557"><ele>35.0</ele><time>2026-04-07T13:02:18.328Z</time></trkpt><trkpt lat="41.0034015" lon="9.5993949"><ele>35.0</ele><time>2026-04-07T13:02:19.328Z</time></trkpt><trkpt lat="41.003406" lon="9.5995382"><ele>35.0</ele><time>2026-04-07T13:02:20.328Z</time></trkpt><trkpt lat="41.0034269" lon="9.5996801"><ele>35.0</ele><time>2026-04-07T13:02:21.328Z</time></trkpt><trkpt lat="41.0034499" lon="9.5998319"><ele>35.0</ele><time>2026-04-07T13:02:22.328Z</time></trkpt><trkpt lat="41.003473" lon="9.599987"><ele>34.25</ele><time>2026-04-07T13:02:23.328Z</time></trkpt><trkpt lat="41.0034994" lon="9.6001412"><ele>33.5</ele><time>2026-04-07T13:02:24.328Z</time></trkpt><trkpt lat="41.0035332" lon="9.6002978"><ele>32.75</ele><time>2026-04-07T13:02:25.328Z</time></trkpt><trkpt lat="41.0035812" lon="9.6004532"><ele>32.0</ele><time>2026-04-07T13:02:26.328Z</time></trkpt><trkpt lat="41.0036544" lon="9.6005948"><ele>30.5</ele><time>2026-04-07T13:02:27.327Z</time></trkpt><trkpt lat="41.0037436" lon="9.6007311"><ele>29.0</ele><time>2026-04-07T13:02:28.328Z</time></trkpt><trkpt lat="41.0038406" lon="9.6008675"><ele>27.5</ele><time>2026-04-07T13:02:29.328Z</time></trkpt><trkpt lat="41.0039432" lon="9.6009969"><ele>26.0</ele><time>2026-04-07T13:02:30.328Z</time></trkpt><trkpt lat="41.0040484" lon="9.6011292"><ele>24.25</ele><time>2026-04-07T13:02:31.327Z</time></trkpt><trkpt lat="41.0041476" lon="9.6012595"><ele>22.5</ele><time>2026-04-07T13:02:32.327Z</time></trkpt><trkpt lat="41.0042473" lon="9.6013894"><ele>20.75</ele><time>2026-04-07T13:02:33.328Z</time></trkpt><trkpt lat="41.0043438" lon="9.6015151"><ele>19.0</ele><time>2026-04-07T13:02:34.327Z</time></trkpt><trkpt lat="41.0044371" lon="9.601634"><ele>19.0</ele><time>2026-04-07T13:02:35.328Z</time></trkpt><trkpt lat="41.0045147" lon="9.6017649"><ele>19.0</ele><time>2026-04-07T13:02:36.328Z</time></trkpt><trkpt lat="41.0045635" lon="9.6019275"><ele>19.0</ele><time>2026-04-07T13:02:37.328Z</time></trkpt><trkpt lat="41.0045716" lon="9.6021082"><ele>19.0</ele><time>2026-04-07T13:02:38.328Z</time></trkpt><trkpt lat="41.0045404" lon="9.60228"><ele>18.5</ele><time>2026-04-07T13:02:39.328Z</time></trkpt><trkpt lat="41.0044781" lon="9.6024226"><ele>18.0</ele><time>2026-04-07T13:02:40.328Z</time></trkpt><trkpt lat="41.0043979" lon="9.6025282"><ele>17.5</ele><time>2026-04-07T13:02:41.327Z</time></trkpt><trkpt lat="41.0042927" lon="9.6026033"><ele>17.0</ele><time>2026-04-07T13:02:42.328Z</time></trkpt><trkpt lat="41.0041853" lon="9.6026509"><ele>16.2</ele><time>2026-04-07T13:02:43.328Z</time></trkpt><trkpt lat="41.0040802" lon="9.6026948"><ele>15.399999999999999</ele><time>2026-04-07T13:02:44.327Z</time></trkpt><trkpt lat="41.003974" lon="9.6027389"><ele>14.600000000000001</ele><time>2026-04-07T13:02:45.328Z</time></trkpt><trkpt lat="41.003866" lon="9.6027808"><ele>13.8</ele><time>2026-04-07T13:02:46.328Z</time></trkpt><trkpt lat="41.0037583" lon="9.6028216"><ele>13.0</ele><time>2026-04-07T13:02:47.328Z</time></trkpt><trkpt lat="41.0036523" lon="9.6028622"><ele>13.0</ele><time>2026-04-07T13:02:48.328Z</time></trkpt><trkpt lat="41.0035466" lon="9.6029043"><ele>13.0</ele><time>2026-04-07T13:02:49.328Z</time></trkpt><trkpt lat="41.003449" lon="9.6029414"><ele>13.0</ele><time>2026-04-07T13:02:50.327Z</time></trkpt><trkpt lat="41.0033579" lon="9.6029759"><ele>13.0</ele><time>2026-04-07T13:02:51.328Z</time></trkpt><trkpt lat="41.0032617" lon="9.6030342"><ele>13.0</ele><time>2026-04-07T13:02:52.328Z</time></trkpt><trkpt lat="41.0031714" lon="9.603117"><ele>12.0</ele><time>2026-04-07T13:02:53.327Z</time></trkpt><trkpt lat="41.0030905" lon="9.6032211"><ele>11.0</ele><time>2026-04-07T13:02:54.328Z</time></trkpt><trkpt lat="41.0030172" lon="9.6033375"><ele>10.0</ele><time>2026-04-07T13:02:55.327Z</time></trkpt><trkpt lat="41.0029474" lon="9.6034615"><ele>9.0</ele><time>2026-04-07T13:02:56.327Z</time></trkpt><trkpt lat="41.0028756" lon="9.6035871"><ele>8.75</ele><time>2026-04-07T13:02:57.328Z</time></trkpt><trkpt lat="41.0028007" lon="9.6037058"><ele>8.5</ele><time>2026-04-07T13:02:58.328Z</time></trkpt><trkpt lat="41.0027266" lon="9.6038276"><ele>8.25</ele><time>2026-04-07T13:02:59.328Z</time></trkpt><trkpt lat="41.0026546" lon="9.6039465"><ele>8.0</ele><time>2026-04-07T13:03:00.328Z</time></trkpt><trkpt lat="41.002594" lon="9.6040728"><ele>8.0</ele><time>2026-04-07T13:03:01.328Z</time></trkpt><trkpt lat="41.0025423" lon="9.604204"><ele>8.0</ele><time>2026-04-07T13:03:02.328Z</time></trkpt><trkpt lat="41.0025162" lon="9.6043515"><ele>8.0</ele><time>2026-04-07T13:03:03.328Z</time></trkpt><trkpt lat="41.0025031" lon="9.6044986"><ele>8.0</ele><time>2026-04-07T13:03:04.327Z</time></trkpt><trkpt lat="41.0025109" lon="9.6046474"><ele>8.200000000000001</ele><time>2026-04-07T13:03:05.327Z</time></trkpt><trkpt lat="41.0025309" lon="9.6047949"><ele>8.4</ele><time>2026-04-07T13:03:06.327Z</time></trkpt><trkpt lat="41.0025615" lon="9.6049385"><ele>8.600000000000001</ele><time>2026-04-07T13:03:07.327Z</time></trkpt><trkpt lat="41.0025909" lon="9.6050721"><ele>8.8</ele><time>2026-04-07T13:03:08.327Z</time></trkpt><trkpt lat="41.0026158" lon="9.605201"><ele>9.0</ele><time>2026-04-07T13:03:09.328Z</time></trkpt><trkpt lat="41.0026425" lon="9.6053267"><ele>8.833333333333334</ele><time>2026-04-07T13:03:10.328Z</time></trkpt><trkpt lat="41.002669" lon="9.6054497"><ele>8.666666666666666</ele><time>2026-04-07T13:03:11.327Z</time></trkpt><trkpt lat="41.0026968" lon="9.6055666"><ele>8.5</ele><time>2026-04-07T13:03:12.327Z</time></trkpt><trkpt lat="41.0027225" lon="9.6056638"><ele>8.333333333333332</ele><time>2026-04-07T13:03:13.328Z</time></trkpt><trkpt lat="41.0027249" lon="9.6057565"><ele>8.166666666666666</ele><time>2026-04-07T13:03:14.328Z</time></trkpt><trkpt lat="41.0027004" lon="9.6058334"><ele>8.0</ele><time>2026-04-07T13:03:15.328Z</time></trkpt><trkpt lat="41.0026454" lon="9.6058925"><ele>7.999999999999999</ele><time>2026-04-07T13:03:16.328Z</time></trkpt><trkpt lat="41.0025735" lon="9.6059175"><ele>8.0</ele><time>2026-04-07T13:03:17.327Z</time></trkpt><trkpt lat="41.0024929" lon="9.6059096"><ele>8.0</ele><time>2026-04-07T13:03:18.328Z</time></trkpt><trkpt lat="41.0024144" lon="9.6058717"><ele>8.0</ele><time>2026-04-07T13:03:19.328Z</time></trkpt><trkpt lat="41.0023432" lon="9.6058223"><ele>7.999999999999999</ele><time>2026-04-07T13:03:20.328Z</time></trkpt><trkpt lat="41.002268" lon="9.6057659"><ele>8.0</ele><time>2026-04-07T13:03:21.328Z</time></trkpt><trkpt lat="41.0021914" lon="9.6057064"><ele>7.166666666666666</ele><time>2026-04-07T13:03:22.328Z</time></trkpt><trkpt lat="41.0021177" lon="9.6056521"><ele>6.333333333333333</ele><time>2026-04-07T13:03:23.328Z</time></trkpt><trkpt lat="41.0020381" lon="9.6056041"><ele>5.5</ele><time>2026-04-07T13:03:24.328Z</time></trkpt><trkpt lat="41.0019617" lon="9.6055782"><ele>4.666666666666666</ele><time>2026-04-07T13:03:25.328Z</time></trkpt><trkpt lat="41.0018827" lon="9.6055663"><ele>3.833333333333333</ele><time>2026-04-07T13:03:26.328Z</time></trkpt><trkpt lat="41.0017995" lon="9.6055724"><ele>3.0</ele><time>2026-04-07T13:03:27.327Z</time></trkpt><trkpt lat="41.0017131" lon="9.6055849"><ele>4.6</ele><time>2026-04-07T13:03:28.328Z</time></trkpt><trkpt lat="41.0016227" lon="9.6056065"><ele>6.2</ele><time>2026-04-07T13:03:29.328Z</time></trkpt><trkpt lat="41.0015316" lon="9.605637"><ele>7.800000000000001</ele><time>2026-04-07T13:03:30.328Z</time></trkpt><trkpt lat="41.001438" lon="9.6056682"><ele>9.4</ele><time>2026-04-07T13:03:31.328Z</time></trkpt><trkpt lat="41.0013396" lon="9.6056887"><ele>11.0</ele><time>2026-04-07T13:03:32.327Z</time></trkpt><trkpt lat="41.001239" lon="9.6056962"><ele>11.0</ele><time>2026-04-07T13:03:33.328Z</time></trkpt><trkpt lat="41.0011332" lon="9.6056864"><ele>11.0</ele><time>2026-04-07T13:03:34.328Z</time></trkpt><trkpt lat="41.0010323" lon="9.6056856"><ele>11.0</ele><time>2026-04-07T13:03:35.328Z</time></trkpt><trkpt lat="41.0009377" lon="9.6056955"><ele>11.0</ele><time>2026-04-07T13:03:36.328Z</time></trkpt><trkpt lat="41.0008455" lon="9.6057224"><ele>11.0</ele><time>2026-04-07T13:03:37.328Z</time></trkpt><trkpt lat="41.0007622" lon="9.6057762"><ele>12.200000000000001</ele><time>2026-04-07T13:03:38.328Z</time></trkpt><trkpt lat="41.0006866" lon="9.6058425"><ele>13.4</ele><time>2026-04-07T13:03:39.328Z</time></trkpt><trkpt lat="41.0006091" lon="9.6059052"><ele>14.6</ele><time>2026-04-07T13:03:40.328Z</time></trkpt><trkpt lat="41.0005331" lon="9.6059595"><ele>15.8</ele><time>2026-04-07T13:03:41.328Z</time></trkpt><trkpt lat="41.0004472" lon="9.6060103"><ele>17.0</ele><time>2026-04-07T13:03:42.328Z</time></trkpt><trkpt lat="41.000363" lon="9.6060518"><ele>17.0</ele><time>2026-04-07T13:03:43.328Z</time></trkpt><trkpt lat="41.0002912" lon="9.6060916"><ele>17.0</ele><time>2026-04-07T13:03:44.327Z</time></trkpt><trkpt lat="41.0002212" lon="9.6061311"><ele>17.0</ele><time>2026-04-07T13:03:45.328Z</time></trkpt><trkpt lat="41.000153" lon="9.6061642"><ele>17.0</ele><time>2026-04-07T13:03:46.328Z</time></trkpt><trkpt lat="41.0000836" lon="9.6061946"><ele>17.0</ele><time>2026-04-07T13:03:47.327Z</time></trkpt><trkpt lat="41.0000095" lon="9.6062234"><ele>17.0</ele><time>2026-04-07T13:03:48.328Z</time></trkpt><trkpt lat="40.9999289" lon="9.6062577"><ele>16.5</ele><time>2026-04-07T13:03:49.328Z</time></trkpt><trkpt lat="40.999846" lon="9.606294"><ele>16.0</ele><time>2026-04-07T13:03:50.328Z</time></trkpt><trkpt lat="40.9997613" lon="9.6063251"><ele>15.5</ele><time>2026-04-07T13:03:51.327Z</time></trkpt><trkpt lat="40.9996812" lon="9.6063539"><ele>15.0</ele><time>2026-04-07T13:03:52.328Z</time></trkpt><trkpt lat="40.9996098" lon="9.6063833"><ele>14.500000000000002</ele><time>2026-04-07T13:03:53.328Z</time></trkpt><trkpt lat="40.9995488" lon="9.6064139"><ele>14.0</ele><time>2026-04-07T13:03:54.328Z</time></trkpt><trkpt lat="40.9994414" lon="9.606461"><ele>14.0</ele><time>2026-04-07T13:03:56.327Z</time></trkpt><trkpt lat="40.999344" lon="9.6064971"><ele>14.0</ele><time>2026-04-07T13:03:58.328Z</time></trkpt><trkpt lat="40.9992344" lon="9.6065458"><ele>14.0</ele><time>2026-04-07T13:04:00.328Z</time></trkpt><trkpt lat="40.9991165" lon="9.6065905"><ele>14.0</ele><time>2026-04-07T13:04:02.328Z</time></trkpt><trkpt lat="40.9989858" lon="9.6066082"><ele>13.399999999999999</ele><time>2026-04-07T13:04:04.328Z</time></trkpt><trkpt lat="40.9989142" lon="9.6065981"><ele>12.799999999999999</ele><time>2026-04-07T13:04:05.328Z</time></trkpt><trkpt lat="40.9988484" lon="9.6065739"><ele>12.2</ele><time>2026-04-07T13:04:06.327Z</time></trkpt><trkpt lat="40.9987476" lon="9.6065082"><ele>11.600000000000001</ele><time>2026-04-07T13:04:08.328Z</time></trkpt><trkpt lat="40.9986541" lon="9.606541"><ele>11.0</ele><time>2026-04-07T13:04:10.328Z</time></trkpt><trkpt lat="40.9985784" lon="9.6066389"><ele>11.0</ele><time>2026-04-07T13:04:12.328Z</time></trkpt><trkpt lat="40.9985245" lon="9.6067562"><ele>11.0</ele><time>2026-04-07T13:04:14.327Z</time></trkpt><trkpt lat="40.9985437" lon="9.6068745"><ele>11.0</ele><time>2026-04-07T13:04:16.328Z</time></trkpt><trkpt lat="40.9986191" lon="9.6069919"><ele>11.0</ele><time>2026-04-07T13:04:18.328Z</time></trkpt><trkpt lat="40.9986559" lon="9.6070715"><ele>11.0</ele><time>2026-04-07T13:04:19.328Z</time></trkpt><trkpt lat="40.9986804" lon="9.6071604"><ele>10.5</ele><time>2026-04-07T13:04:20.328Z</time></trkpt><trkpt lat="40.9986977" lon="9.6072574"><ele>10.0</ele><time>2026-04-07T13:04:21.328Z</time></trkpt><trkpt lat="40.9987101" lon="9.6073623"><ele>9.5</ele><time>2026-04-07T13:04:22.327Z</time></trkpt><trkpt lat="40.9987201" lon="9.6074744"><ele>9.0</ele><time>2026-04-07T13:04:23.328Z</time></trkpt><trkpt lat="40.9987318" lon="9.6075876"><ele>8.5</ele><time>2026-04-07T13:04:24.328Z</time></trkpt><trkpt lat="40.9987446" lon="9.6076941"><ele>8.0</ele><time>2026-04-07T13:04:25.328Z</time></trkpt><trkpt lat="40.9987608" lon="9.6077963"><ele>8.0</ele><time>2026-04-07T13:04:26.327Z</time></trkpt><trkpt lat="40.9987713" lon="9.6078904"><ele>7.999999999999999</ele><time>2026-04-07T13:04:27.328Z</time></trkpt><trkpt lat="40.9987899" lon="9.6079781"><ele>8.0</ele><time>2026-04-07T13:04:28.328Z</time></trkpt><trkpt lat="40.9988008" lon="9.6080676"><ele>8.0</ele><time>2026-04-07T13:04:29.328Z</time></trkpt><trkpt lat="40.9988136" lon="9.6081551"><ele>7.999999999999999</ele><time>2026-04-07T13:04:30.327Z</time></trkpt><trkpt lat="40.9988141" lon="9.6082442"><ele>8.0</ele><time>2026-04-07T13:04:31.327Z</time></trkpt><trkpt lat="40.9988169" lon="9.6083349"><ele>8.0</ele><time>2026-04-07T13:04:32.327Z</time></trkpt><trkpt lat="40.9988229" lon="9.6084207"><ele>7.999999999999999</ele><time>2026-04-07T13:04:33.327Z</time></trkpt><trkpt lat="40.9988018" lon="9.6085488"><ele>8.0</ele><time>2026-04-07T13:04:35.328Z</time></trkpt><trkpt lat="40.998771" lon="9.6086324"><ele>8.0</ele><time>2026-04-07T13:04:38.327Z</time></trkpt><trkpt lat="40.9988265" lon="9.6085812"><ele>8.0</ele><time>2026-04-07T13:04:42.327Z</time></trkpt><trkpt lat="40.9988288" lon="9.6084525"><ele>7.999999999999999</ele><time>2026-04-07T13:04:44.328Z</time></trkpt><trkpt lat="40.9988258" lon="9.6083201"><ele>8.0</ele><time>2026-04-07T13:04:46.328Z</time></trkpt><trkpt lat="40.9988202" lon="9.6081989"><ele>7.999999999999999</ele><time>2026-04-07T13:04:48.328Z</time></trkpt><trkpt lat="40.9988053" lon="9.6080772"><ele>8.0</ele><time>2026-04-07T13:04:50.327Z</time></trkpt><trkpt lat="40.9987627" lon="9.6079779"><ele>8.0</ele><time>2026-04-07T13:04:52.328Z</time></trkpt><trkpt lat="40.9986923" lon="9.6079469"><ele>8.0</ele><time>2026-04-07T13:04:54.328Z</time></trkpt><trkpt lat="40.998626" lon="9.6079776"><ele>7.999999999999999</ele><time>2026-04-07T13:04:56.328Z</time></trkpt><trkpt lat="40.9985299" lon="9.608031"><ele>8.0</ele><time>2026-04-07T13:04:58.327Z</time></trkpt><trkpt lat="40.998437" lon="9.6080983"><ele>7.999999999999999</ele><time>2026-04-07T13:05:00.328Z</time></trkpt><trkpt lat="40.9983725" lon="9.6081883"><ele>8.0</ele><time>2026-04-07T13:05:02.328Z</time></trkpt><trkpt lat="40.9983448" lon="9.6082986"><ele>8.0</ele><time>2026-04-07T13:05:04.328Z</time></trkpt><trkpt lat="40.9983351" lon="9.6083927"><ele>8.0</ele><time>2026-04-07T13:05:06.328Z</time></trkpt><trkpt lat="40.9983598" lon="9.6084868"><ele>7.999999999999999</ele><time>2026-04-07T13:05:09.328Z</time></trkpt><trkpt lat="40.9983895" lon="9.608411"><ele>8.0</ele><time>2026-04-07T13:05:13.328Z</time></trkpt><trkpt lat="40.9983588" lon="9.6083248"><ele>8.0</ele><time>2026-04-07T13:05:15.327Z</time></trkpt><trkpt lat="40.9983807" lon="9.6082206"><ele>8.0</ele><time>2026-04-07T13:05:17.327Z</time></trkpt><trkpt lat="40.9984413" lon="9.6081232"><ele>8.0</ele><time>2026-04-07T13:05:19.328Z</time></trkpt><trkpt lat="40.9985299" lon="9.6080557"><ele>8.0</ele><time>2026-04-07T13:05:21.328Z</time></trkpt><trkpt lat="40.9986201" lon="9.6080002"><ele>8.0</ele><time>2026-04-07T13:05:23.328Z</time></trkpt><trkpt lat="40.9987057" lon="9.607959"><ele>7.999999999999999</ele><time>2026-04-07T13:05:25.327Z</time></trkpt><trkpt lat="40.9987773" lon="9.607885"><ele>8.0</ele><time>2026-04-07T13:05:28.328Z</time></trkpt><trkpt lat="40.998779" lon="9.607791"><ele>8.0</ele><time>2026-04-07T13:05:30.327Z</time></trkpt><trkpt lat="40.998763" lon="9.6076472"><ele>8.0</ele><time>2026-04-07T13:05:32.327Z</time></trkpt><trkpt lat="40.9987524" lon="9.6075622"><ele>7.999999999999999</ele><time>2026-04-07T13:05:33.327Z</time></trkpt><trkpt lat="40.9987437" lon="9.6074718"><ele>8.0</ele><time>2026-04-07T13:05:34.327Z</time></trkpt><trkpt lat="40.9987399" lon="9.6073781"><ele>8.0</ele><time>2026-04-07T13:05:35.327Z</time></trkpt><trkpt lat="40.9987302" lon="9.60729"><ele>7.999999999999999</ele><time>2026-04-07T13:05:36.327Z</time></trkpt><trkpt lat="40.9987183" lon="9.6072047"><ele>8.0</ele><time>2026-04-07T13:05:37.328Z</time></trkpt><trkpt lat="40.9987038" lon="9.6071211"><ele>8.0</ele><time>2026-04-07T13:05:38.328Z</time></trkpt><trkpt lat="40.99868" lon="9.6070363"><ele>7.999999999999999</ele><time>2026-04-07T13:05:39.327Z</time></trkpt><trkpt lat="40.998647" lon="9.6069551"><ele>8.0</ele><time>2026-04-07T13:05:40.327Z</time></trkpt><trkpt lat="40.9986021" lon="9.6068953"><ele>8.0</ele><time>2026-04-07T13:05:41.328Z</time></trkpt><trkpt lat="40.9985535" lon="9.6067825"><ele>8.5</ele><time>2026-04-07T13:05:43.328Z</time></trkpt><trkpt lat="40.9985839" lon="9.606672"><ele>9.0</ele><time>2026-04-07T13:05:45.328Z</time></trkpt><trkpt lat="40.99863" lon="9.6066054"><ele>9.5</ele><time>2026-04-07T13:05:47.328Z</time></trkpt><trkpt lat="40.9986836" lon="9.60655"><ele>10.0</ele><time>2026-04-07T13:05:50.328Z</time></trkpt><trkpt lat="40.9987499" lon="9.6065634"><ele>10.5</ele><time>2026-04-07T13:05:52.328Z</time></trkpt><trkpt lat="40.9988485" lon="9.6066169"><ele>11.0</ele><time>2026-04-07T13:05:54.328Z</time></trkpt><trkpt lat="40.9989753" lon="9.6066419"><ele>11.0</ele><time>2026-04-07T13:05:56.327Z</time></trkpt><trkpt lat="40.999049" lon="9.6066352"><ele>11.0</ele><time>2026-04-07T13:05:57.328Z</time></trkpt><trkpt lat="40.9991337" lon="9.606614"><ele>11.0</ele><time>2026-04-07T13:05:58.328Z</time></trkpt><trkpt lat="40.9992237" lon="9.6065745"><ele>11.0</ele><time>2026-04-07T13:05:59.327Z</time></trkpt><trkpt lat="40.9993064" lon="9.6065419"><ele>11.0</ele><time>2026-04-07T13:06:00.328Z</time></trkpt><trkpt lat="40.9993929" lon="9.6065012"><ele>11.0</ele><time>2026-04-07T13:06:01.327Z</time></trkpt><trkpt lat="40.9994846" lon="9.6064592"><ele>11.600000000000001</ele><time>2026-04-07T13:06:02.328Z</time></trkpt><trkpt lat="40.9995786" lon="9.606417"><ele>12.2</ele><time>2026-04-07T13:06:03.327Z</time></trkpt><trkpt lat="40.9996771" lon="9.6063729"><ele>12.799999999999999</ele><time>2026-04-07T13:06:04.328Z</time></trkpt><trkpt lat="40.9997768" lon="9.6063312"><ele>13.399999999999999</ele><time>2026-04-07T13:06:05.327Z</time></trkpt><trkpt lat="40.9998787" lon="9.6062909"><ele>14.0</ele><time>2026-04-07T13:06:06.328Z</time></trkpt><trkpt lat="40.999979" lon="9.6062475"><ele>14.0</ele><time>2026-04-07T13:06:07.328Z</time></trkpt><trkpt lat="41.0000744" lon="9.6062053"><ele>13.999999999999998</ele><time>2026-04-07T13:06:08.328Z</time></trkpt><trkpt lat="41.0001589" lon="9.6061665"><ele>13.999999999999998</ele><time>2026-04-07T13:06:09.328Z</time></trkpt><trkpt lat="41.0002432" lon="9.606132"><ele>14.0</ele><time>2026-04-07T13:06:10.328Z</time></trkpt><trkpt lat="41.000329" lon="9.6060944"><ele>14.0</ele><time>2026-04-07T13:06:11.328Z</time></trkpt><trkpt lat="41.000416" lon="9.6060525"><ele>14.6</ele><time>2026-04-07T13:06:12.328Z</time></trkpt><trkpt lat="41.0005046" lon="9.6060026"><ele>15.2</ele><time>2026-04-07T13:06:13.328Z</time></trkpt><trkpt lat="41.0005896" lon="9.605944"><ele>15.799999999999999</ele><time>2026-04-07T13:06:14.328Z</time></trkpt><trkpt lat="41.0006691" lon="9.6058844"><ele>16.4</ele><time>2026-04-07T13:06:15.327Z</time></trkpt><trkpt lat="41.0007534" lon="9.6058172"><ele>17.0</ele><time>2026-04-07T13:06:16.328Z</time></trkpt><trkpt lat="41.000845" lon="9.6057575"><ele>15.8</ele><time>2026-04-07T13:06:17.328Z</time></trkpt><trkpt lat="41.00094" lon="9.6057172"><ele>14.6</ele><time>2026-04-07T13:06:18.328Z</time></trkpt><trkpt lat="41.0010411" lon="9.6057067"><ele>13.4</ele><time>2026-04-07T13:06:19.328Z</time></trkpt><trkpt lat="41.0011407" lon="9.6057093"><ele>12.200000000000001</ele><time>2026-04-07T13:06:20.328Z</time></trkpt><trkpt lat="41.0012351" lon="9.6057136"><ele>11.0</ele><time>2026-04-07T13:06:21.327Z</time></trkpt><trkpt lat="41.0013264" lon="9.6057082"><ele>11.0</ele><time>2026-04-07T13:06:22.328Z</time></trkpt><trkpt lat="41.0014083" lon="9.6056995"><ele>11.0</ele><time>2026-04-07T13:06:23.328Z</time></trkpt><trkpt lat="41.0014896" lon="9.6056745"><ele>11.0</ele><time>2026-04-07T13:06:24.327Z</time></trkpt><trkpt lat="41.0015673" lon="9.6056433"><ele>11.0</ele><time>2026-04-07T13:06:25.328Z</time></trkpt><trkpt lat="41.0016459" lon="9.6056184"><ele>11.0</ele><time>2026-04-07T13:06:26.328Z</time></trkpt><trkpt lat="41.0017218" lon="9.6056006"><ele>11.0</ele><time>2026-04-07T13:06:27.328Z</time></trkpt><trkpt lat="41.0017975" lon="9.6055954"><ele>9.666666666666666</ele><time>2026-04-07T13:06:28.328Z</time></trkpt><trkpt lat="41.0018738" lon="9.6055988"><ele>8.333333333333332</ele><time>2026-04-07T13:06:29.328Z</time></trkpt><trkpt lat="41.0019498" lon="9.6056115"><ele>7.0</ele><time>2026-04-07T13:06:30.328Z</time></trkpt><trkpt lat="41.0020244" lon="9.605642"><ele>5.666666666666666</ele><time>2026-04-07T13:06:31.328Z</time></trkpt><trkpt lat="41.0020962" lon="9.60568"><ele>4.333333333333333</ele><time>2026-04-07T13:06:32.328Z</time></trkpt><trkpt lat="41.0021635" lon="9.6057352"><ele>3.0</ele><time>2026-04-07T13:06:33.328Z</time></trkpt><trkpt lat="41.0022325" lon="9.6057891"><ele>3.0</ele><time>2026-04-07T13:06:34.328Z</time></trkpt><trkpt lat="41.0022975" lon="9.6058443"><ele>3.0</ele><time>2026-04-07T13:06:35.328Z</time></trkpt><trkpt lat="41.0023646" lon="9.6058897"><ele>3.0</ele><time>2026-04-07T13:06:36.328Z</time></trkpt><trkpt lat="41.0024374" lon="9.6059223"><ele>3.0</ele><time>2026-04-07T13:06:37.328Z</time></trkpt><trkpt lat="41.0025168" lon="9.6059337"><ele>3.0</ele><time>2026-04-07T13:06:38.328Z</time></trkpt><trkpt lat="41.0025957" lon="9.6059214"><ele>3.0</ele><time>2026-04-07T13:06:39.328Z</time></trkpt><trkpt lat="41.0026672" lon="9.6059007"><ele>4.0</ele><time>2026-04-07T13:06:40.328Z</time></trkpt><trkpt lat="41.0027698" lon="9.6058584"><ele>5.0</ele><time>2026-04-07T13:06:42.328Z</time></trkpt><trkpt lat="41.0028391" lon="9.605856"><ele>6.000000000000001</ele><time>2026-04-07T13:06:44.327Z</time></trkpt><trkpt lat="41.002932" lon="9.6059455"><ele>7.0</ele><time>2026-04-07T13:06:46.327Z</time></trkpt><trkpt lat="41.002995" lon="9.6060261"><ele>8.0</ele><time>2026-04-07T13:06:47.328Z</time></trkpt><trkpt lat="41.0030509" lon="9.6061254"><ele>7.6000000000000005</ele><time>2026-04-07T13:06:48.328Z</time></trkpt><trkpt lat="41.0030983" lon="9.6062419"><ele>7.200000000000001</ele><time>2026-04-07T13:06:49.328Z</time></trkpt><trkpt lat="41.0031272" lon="9.6063743"><ele>6.8</ele><time>2026-04-07T13:06:50.328Z</time></trkpt><trkpt lat="41.0031376" lon="9.606515"><ele>6.4</ele><time>2026-04-07T13:06:51.328Z</time></trkpt><trkpt lat="41.0031248" lon="9.6066548"><ele>6.0</ele><time>2026-04-07T13:06:52.327Z</time></trkpt><trkpt lat="41.0031075" lon="9.6068002"><ele>6.0</ele><time>2026-04-07T13:06:53.327Z</time></trkpt><trkpt lat="41.0030878" lon="9.6069503"><ele>6.0</ele><time>2026-04-07T13:06:54.327Z</time></trkpt><trkpt lat="41.0030673" lon="9.6071049"><ele>6.0</ele><time>2026-04-07T13:06:55.328Z</time></trkpt><trkpt lat="41.0030561" lon="9.6072569"><ele>6.0</ele><time>2026-04-07T13:06:56.328Z</time></trkpt><trkpt lat="41.0030635" lon="9.60741"><ele>6.75</ele><time>2026-04-07T13:06:57.328Z</time></trkpt><trkpt lat="41.0030877" lon="9.6075557"><ele>7.5</ele><time>2026-04-07T13:06:58.328Z</time></trkpt><trkpt lat="41.003142" lon="9.6076891"><ele>8.25</ele><time>2026-04-07T13:06:59.328Z</time></trkpt><trkpt lat="41.0032142" lon="9.6078028"><ele>9.0</ele><time>2026-04-07T13:07:00.328Z</time></trkpt><trkpt lat="41.0033001" lon="9.6079005"><ele>8.75</ele><time>2026-04-07T13:07:01.327Z</time></trkpt><trkpt lat="41.0033932" lon="9.6079955"><ele>8.5</ele><time>2026-04-07T13:07:02.328Z</time></trkpt><trkpt lat="41.0034902" lon="9.6080864"><ele>8.25</ele><time>2026-04-07T13:07:03.328Z</time></trkpt><trkpt lat="41.0035885" lon="9.6081763"><ele>8.0</ele><time>2026-04-07T13:07:04.328Z</time></trkpt><trkpt lat="41.0036853" lon="9.6082602"><ele>8.0</ele><time>2026-04-07T13:07:05.327Z</time></trkpt><trkpt lat="41.0037782" lon="9.6083454"><ele>8.0</ele><time>2026-04-07T13:07:06.328Z</time></trkpt><trkpt lat="41.0038673" lon="9.6084273"><ele>8.0</ele><time>2026-04-07T13:07:07.327Z</time></trkpt><trkpt lat="41.003961" lon="9.6085112"><ele>8.0</ele><time>2026-04-07T13:07:08.328Z</time></trkpt><trkpt lat="41.004052" lon="9.6085897"><ele>8.0</ele><time>2026-04-07T13:07:09.327Z</time></trkpt><trkpt lat="41.0041435" lon="9.6086687"><ele>7.5</ele><time>2026-04-07T13:07:10.328Z</time></trkpt><trkpt lat="41.0042415" lon="9.608749"><ele>7.0</ele><time>2026-04-07T13:07:11.328Z</time></trkpt><trkpt lat="41.0043406" lon="9.608828"><ele>6.5</ele><time>2026-04-07T13:07:12.328Z</time></trkpt><trkpt lat="41.0044483" lon="9.6088969"><ele>6.0</ele><time>2026-04-07T13:07:13.328Z</time></trkpt><trkpt lat="41.0045587" lon="9.6089582"><ele>6.0</ele><time>2026-04-07T13:07:14.327Z</time></trkpt><trkpt lat="41.0046734" lon="9.609015"><ele>6.0</ele><time>2026-04-07T13:07:15.328Z</time></trkpt><trkpt lat="41.0047836" lon="9.6090661"><ele>6.0</ele><time>2026-04-07T13:07:16.327Z</time></trkpt><trkpt lat="41.0048874" lon="9.6091265"><ele>6.0</ele><time>2026-04-07T13:07:17.327Z</time></trkpt><trkpt lat="41.0049821" lon="9.6091973"><ele>5.833333333333333</ele><time>2026-04-07T13:07:18.327Z</time></trkpt><trkpt lat="41.0050625" lon="9.6092835"><ele>5.666666666666667</ele><time>2026-04-07T13:07:19.328Z</time></trkpt><trkpt lat="41.0051279" lon="9.6093788"><ele>5.5</ele><time>2026-04-07T13:07:20.328Z</time></trkpt><trkpt lat="41.0051706" lon="9.6094758"><ele>5.333333333333334</ele><time>2026-04-07T13:07:21.327Z</time></trkpt><trkpt lat="41.0051931" lon="9.6095781"><ele>5.166666666666667</ele><time>2026-04-07T13:07:22.327Z</time></trkpt><trkpt lat="41.0051963" lon="9.609677"><ele>5.0</ele><time>2026-04-07T13:07:23.328Z</time></trkpt><trkpt lat="41.0051895" lon="9.6097844"><ele>5.0</ele><time>2026-04-07T13:07:24.328Z</time></trkpt><trkpt lat="41.0051705" lon="9.6099078"><ele>5.0</ele><time>2026-04-07T13:07:25.327Z</time></trkpt><trkpt lat="41.0051313" lon="9.6100329"><ele>5.0</ele><time>2026-04-07T13:07:26.327Z</time></trkpt><trkpt lat="41.0050813" lon="9.6101541"><ele>5.0</ele><time>2026-04-07T13:07:27.328Z</time></trkpt><trkpt lat="41.0050163" lon="9.6102694"><ele>5.0</ele><time>2026-04-07T13:07:28.328Z</time></trkpt><trkpt lat="41.0049404" lon="9.610377"><ele>5.0</ele><time>2026-04-07T13:07:29.328Z</time></trkpt><trkpt lat="41.0048602" lon="9.6104901"><ele>5.0</ele><time>2026-04-07T13:07:30.328Z</time></trkpt><trkpt lat="41.0047852" lon="9.610597"><ele>5.0</ele><time>2026-04-07T13:07:31.327Z</time></trkpt><trkpt lat="41.0047103" lon="9.6107046"><ele>5.0</ele><time>2026-04-07T13:07:32.327Z</time></trkpt><trkpt lat="41.0046346" lon="9.6108134"><ele>5.0</ele><time>2026-04-07T13:07:33.328Z</time></trkpt><trkpt lat="41.0045622" lon="9.6109266"><ele>5.0</ele><time>2026-04-07T13:07:34.327Z</time></trkpt><trkpt lat="41.0044954" lon="9.6110503"><ele>5.0</ele><time>2026-04-07T13:07:35.328Z</time></trkpt><trkpt lat="41.0044422" lon="9.6111847"><ele>5.0</ele><time>2026-04-07T13:07:36.328Z</time></trkpt><trkpt lat="41.0044133" lon="9.6113326"><ele>5.0</ele><time>2026-04-07T13:07:37.328Z</time></trkpt><trkpt lat="41.0044112" lon="9.6114863"><ele>5.0</ele><time>2026-04-07T13:07:38.328Z</time></trkpt><trkpt lat="41.0044258" lon="9.6116383"><ele>5.0</ele><time>2026-04-07T13:07:39.328Z</time></trkpt><trkpt lat="41.0044542" lon="9.6117936"><ele>5.0</ele><time>2026-04-07T13:07:40.328Z</time></trkpt><trkpt lat="41.0044885" lon="9.6119471"><ele>5.0</ele><time>2026-04-07T13:07:41.328Z</time></trkpt><trkpt lat="41.0045256" lon="9.612101"><ele>4.75</ele><time>2026-04-07T13:07:42.327Z</time></trkpt><trkpt lat="41.0045646" lon="9.612251"><ele>4.5</ele><time>2026-04-07T13:07:43.327Z</time></trkpt><trkpt lat="41.004598" lon="9.6123998"><ele>4.25</ele><time>2026-04-07T13:07:44.327Z</time></trkpt><trkpt lat="41.0046315" lon="9.6125441"><ele>4.0</ele><time>2026-04-07T13:07:45.327Z</time></trkpt><trkpt lat="41.0046636" lon="9.6126832"><ele>4.0</ele><time>2026-04-07T13:07:46.328Z</time></trkpt><trkpt lat="41.0046927" lon="9.6128221"><ele>4.0</ele><time>2026-04-07T13:07:47.328Z</time></trkpt><trkpt lat="41.0047204" lon="9.6129579"><ele>4.0</ele><time>2026-04-07T13:07:48.328Z</time></trkpt><trkpt lat="41.0047515" lon="9.613093"><ele>4.0</ele><time>2026-04-07T13:07:49.327Z</time></trkpt><trkpt lat="41.004787" lon="9.6132244"><ele>4.0</ele><time>2026-04-07T13:07:50.328Z</time></trkpt><trkpt lat="41.0048179" lon="9.6133536"><ele>4.0</ele><time>2026-04-07T13:07:51.328Z</time></trkpt><trkpt lat="41.0048438" lon="9.6134783"><ele>4.0</ele><time>2026-04-07T13:07:52.328Z</time></trkpt><trkpt lat="41.0048576" lon="9.6136003"><ele>4.0</ele><time>2026-04-07T13:07:53.327Z</time></trkpt><trkpt lat="41.0048577" lon="9.613723"><ele>4.0</ele><time>2026-04-07T13:07:54.328Z</time></trkpt><trkpt lat="41.0048409" lon="9.6138381"><ele>4.0</ele><time>2026-04-07T13:07:55.327Z</time></trkpt><trkpt lat="41.0048084" lon="9.6139445"><ele>4.6</ele><time>2026-04-07T13:07:56.328Z</time></trkpt><trkpt lat="41.0047688" lon="9.614051"><ele>5.2</ele><time>2026-04-07T13:07:57.328Z</time></trkpt><trkpt lat="41.004727" lon="9.6141596"><ele>5.799999999999999</ele><time>2026-04-07T13:07:58.328Z</time></trkpt><trkpt lat="41.0046825" lon="9.6142717"><ele>6.3999999999999995</ele><time>2026-04-07T13:07:59.328Z</time></trkpt><trkpt lat="41.0046366" lon="9.6143844"><ele>7.0</ele><time>2026-04-07T13:08:00.328Z</time></trkpt><trkpt lat="41.0045863" lon="9.614496"><ele>7.3999999999999995</ele><time>2026-04-07T13:08:01.328Z</time></trkpt><trkpt lat="41.0045296" lon="9.6146056"><ele>7.799999999999999</ele><time>2026-04-07T13:08:02.328Z</time></trkpt><trkpt lat="41.0044784" lon="9.6147209"><ele>8.2</ele><time>2026-04-07T13:08:03.327Z</time></trkpt><trkpt lat="41.0044278" lon="9.6148362"><ele>8.6</ele><time>2026-04-07T13:08:04.327Z</time></trkpt><trkpt lat="41.004379" lon="9.614949"><ele>9.0</ele><time>2026-04-07T13:08:05.328Z</time></trkpt><trkpt lat="41.0043285" lon="9.6150565"><ele>9.0</ele><time>2026-04-07T13:08:06.328Z</time></trkpt><trkpt lat="41.0042815" lon="9.6151657"><ele>9.0</ele><time>2026-04-07T13:08:07.328Z</time></trkpt><trkpt lat="41.0042395" lon="9.6152815"><ele>9.0</ele><time>2026-04-07T13:08:08.327Z</time></trkpt><trkpt lat="41.0041958" lon="9.615395"><ele>9.0</ele><time>2026-04-07T13:08:09.327Z</time></trkpt><trkpt lat="41.0041519" lon="9.6155099"><ele>9.0</ele><time>2026-04-07T13:08:10.328Z</time></trkpt><trkpt lat="41.0041066" lon="9.6156261"><ele>8.2</ele><time>2026-04-07T13:08:11.327Z</time></trkpt><trkpt lat="41.0040678" lon="9.6157495"><ele>7.4</ele><time>2026-04-07T13:08:12.327Z</time></trkpt><trkpt lat="41.0040256" lon="9.615876"><ele>6.6</ele><time>2026-04-07T13:08:13.328Z</time></trkpt><trkpt lat="41.0039846" lon="9.6160071"><ele>5.8</ele><time>2026-04-07T13:08:14.328Z</time></trkpt><trkpt lat="41.003955" lon="9.6161383"><ele>5.0</ele><time>2026-04-07T13:08:15.328Z</time></trkpt><trkpt lat="41.0039339" lon="9.616275"><ele>5.0</ele><time>2026-04-07T13:08:16.328Z</time></trkpt><trkpt lat="41.0039376" lon="9.6164149"><ele>5.0</ele><time>2026-04-07T13:08:17.328Z</time></trkpt><trkpt lat="41.0039586" lon="9.6165533"><ele>5.0</ele><time>2026-04-07T13:08:18.327Z</time></trkpt><trkpt lat="41.0039954" lon="9.6166867"><ele>5.0</ele><time>2026-04-07T13:08:19.328Z</time></trkpt><trkpt lat="41.0040331" lon="9.6168149"><ele>5.0</ele><time>2026-04-07T13:08:20.328Z</time></trkpt><trkpt lat="41.0040688" lon="9.6169376"><ele>4.833333333333334</ele><time>2026-04-07T13:08:21.328Z</time></trkpt><trkpt lat="41.0041046" lon="9.6170536"><ele>4.666666666666667</ele><time>2026-04-07T13:08:22.328Z</time></trkpt><trkpt lat="41.0041378" lon="9.6171682"><ele>4.5</ele><time>2026-04-07T13:08:23.328Z</time></trkpt><trkpt lat="41.0041695" lon="9.6172744"><ele>4.333333333333333</ele><time>2026-04-07T13:08:24.327Z</time></trkpt><trkpt lat="41.0041987" lon="9.6173632"><ele>4.166666666666666</ele><time>2026-04-07T13:08:25.328Z</time></trkpt><trkpt lat="41.0042128" lon="9.6174458"><ele>4.0</ele><time>2026-04-07T13:08:26.328Z</time></trkpt><trkpt lat="41.0041592" lon="9.6175523"><ele>3.9999999999999996</ele><time>2026-04-07T13:08:28.327Z</time></trkpt><trkpt lat="41.0040636" lon="9.6175848"><ele>4.0</ele><time>2026-04-07T13:08:30.328Z</time></trkpt><trkpt lat="41.004001" lon="9.6176073"><ele>4.0</ele><time>2026-04-07T13:08:31.327Z</time></trkpt><trkpt lat="41.0039356" lon="9.6176318"><ele>4.0</ele><time>2026-04-07T13:08:32.328Z</time></trkpt><trkpt lat="41.0038643" lon="9.6176636"><ele>3.9999999999999996</ele><time>2026-04-07T13:08:33.328Z</time></trkpt><trkpt lat="41.0037932" lon="9.617691"><ele>4.0</ele><time>2026-04-07T13:08:34.328Z</time></trkpt><trkpt lat="41.0037233" lon="9.6177203"><ele>3.9999999999999996</ele><time>2026-04-07T13:08:35.328Z</time></trkpt><trkpt lat="41.0036537" lon="9.6177605"><ele>4.0</ele><time>2026-04-07T13:08:36.327Z</time></trkpt><trkpt lat="41.0035856" lon="9.617793"><ele>4.0</ele><time>2026-04-07T13:08:37.328Z</time></trkpt><trkpt lat="41.0035204" lon="9.6178226"><ele>4.0</ele><time>2026-04-07T13:08:38.328Z</time></trkpt><trkpt lat="41.0034556" lon="9.617851"><ele>3.9999999999999996</ele><time>2026-04-07T13:08:39.327Z</time></trkpt><trkpt lat="41.0033949" lon="9.6178809"><ele>4.0</ele><time>2026-04-07T13:08:40.327Z</time></trkpt><trkpt lat="41.003294" lon="9.6179317"><ele>3.4999999999999996</ele><time>2026-04-07T13:08:42.328Z</time></trkpt><trkpt lat="41.0032246" lon="9.6179524"><ele>3.0</ele><time>2026-04-07T13:08:45.328Z</time></trkpt><trkpt lat="41.0031704" lon="9.6180116"><ele>2.5</ele><time>2026-04-07T13:08:50.328Z</time></trkpt><trkpt lat="41.0031874" lon="9.6178999"><ele>2.0</ele><time>2026-04-07T13:09:20.328Z</time></trkpt><trkpt lat="41.0032022" lon="9.6178013"><ele>1.5</ele><time>2026-04-07T13:09:22.328Z</time></trkpt><trkpt lat="41.0032115" lon="9.6176989"><ele>1.0</ele><time>2026-04-07T13:09:24.328Z</time></trkpt><trkpt lat="41.0032179" lon="9.6175996"><ele>0.9999999999999999</ele><time>2026-04-07T13:09:26.327Z</time></trkpt><trkpt lat="41.003222" lon="9.6175038"><ele>1.0</ele><time>2026-04-07T13:09:28.328Z</time></trkpt><trkpt lat="41.003242" lon="9.6173903"><ele>1.0</ele><time>2026-04-07T13:09:31.328Z</time></trkpt><trkpt lat="41.003237" lon="9.6172615"><ele>1.0</ele><time>2026-04-07T13:21:52.327Z</time></trkpt><trkpt lat="41.0032336" lon="9.6171483"><ele>0.9999999999999999</ele><time>2026-04-07T13:21:54.328Z</time></trkpt><trkpt lat="41.0032323" lon="9.6170422"><ele>1.0</ele><time>2026-04-07T13:21:56.328Z</time></trkpt><trkpt lat="41.0032319" lon="9.616943"><ele>0.8</ele><time>2026-04-07T13:21:58.327Z</time></trkpt><trkpt lat="41.0032439" lon="9.6168307"><ele>0.6000000000000001</ele><time>2026-04-07T13:22:00.328Z</time></trkpt><trkpt lat="41.0032793" lon="9.6167222"><ele>0.4</ele><time>2026-04-07T13:22:02.328Z</time></trkpt><trkpt lat="41.0033777" lon="9.6166845"><ele>0.2</ele><time>2026-04-07T13:22:04.328Z</time></trkpt><trkpt lat="41.0034805" lon="9.6166502"><ele>0.0</ele><time>2026-04-07T13:22:06.327Z</time></trkpt><trkpt lat="41.0035841" lon="9.6166032"><ele>1.0</ele><time>2026-04-07T13:22:08.328Z</time></trkpt><trkpt lat="41.0036961" lon="9.6165631"><ele>2.0</ele><time>2026-04-07T13:22:10.328Z</time></trkpt><trkpt lat="41.003801" lon="9.6165218"><ele>3.0</ele><time>2026-04-07T13:22:12.327Z</time></trkpt><trkpt lat="41.0038806" lon="9.6164829"><ele>4.0</ele><time>2026-04-07T13:22:14.328Z</time></trkpt><trkpt lat="41.0039342" lon="9.6164243"><ele>5.0</ele><time>2026-04-07T13:22:16.328Z</time></trkpt><trkpt lat="41.0039654" lon="9.6162687"><ele>5.0</ele><time>2026-04-07T13:22:18.328Z</time></trkpt><trkpt lat="41.0039861" lon="9.6161699"><ele>5.0</ele><time>2026-04-07T13:22:19.328Z</time></trkpt><trkpt lat="41.0040079" lon="9.6160778"><ele>5.0</ele><time>2026-04-07T13:22:20.327Z</time></trkpt><trkpt lat="41.0040335" lon="9.6159928"><ele>5.0</ele><time>2026-04-07T13:22:21.327Z</time></trkpt><trkpt lat="41.0040638" lon="9.6158991"><ele>5.0</ele><time>2026-04-07T13:22:22.328Z</time></trkpt><trkpt lat="41.0040913" lon="9.6158025"><ele>5.0</ele><time>2026-04-07T13:22:23.328Z</time></trkpt><trkpt lat="41.0041217" lon="9.6157107"><ele>5.0</ele><time>2026-04-07T13:22:24.328Z</time></trkpt><trkpt lat="41.0041514" lon="9.615619"><ele>5.0</ele><time>2026-04-07T13:22:25.328Z</time></trkpt><trkpt lat="41.004185" lon="9.6155301"><ele>5.0</ele><time>2026-04-07T13:22:26.328Z</time></trkpt><trkpt lat="41.0042179" lon="9.6154414"><ele>5.0</ele><time>2026-04-07T13:22:27.328Z</time></trkpt><trkpt lat="41.0042556" lon="9.615357"><ele>5.0</ele><time>2026-04-07T13:22:28.327Z</time></trkpt><trkpt lat="41.0042911" lon="9.6152687"><ele>5.0</ele><time>2026-04-07T13:22:29.328Z</time></trkpt><trkpt lat="41.0043283" lon="9.6151833"><ele>5.0</ele><time>2026-04-07T13:22:30.328Z</time></trkpt><trkpt lat="41.004369" lon="9.6150934"><ele>5.666666666666667</ele><time>2026-04-07T13:22:31.328Z</time></trkpt><trkpt lat="41.0044053" lon="9.6149979"><ele>6.333333333333334</ele><time>2026-04-07T13:22:32.328Z</time></trkpt><trkpt lat="41.0044491" lon="9.6149025"><ele>7.0</ele><time>2026-04-07T13:22:33.328Z</time></trkpt><trkpt lat="41.0044879" lon="9.6148067"><ele>7.666666666666667</ele><time>2026-04-07T13:22:34.327Z</time></trkpt><trkpt lat="41.0045294" lon="9.6147062"><ele>8.333333333333334</ele><time>2026-04-07T13:22:35.327Z</time></trkpt><trkpt lat="41.0045698" lon="9.6146048"><ele>9.0</ele><time>2026-04-07T13:22:36.328Z</time></trkpt><trkpt lat="41.0046129" lon="9.6145006"><ele>8.6</ele><time>2026-04-07T13:22:37.328Z</time></trkpt><trkpt lat="41.0046588" lon="9.6143909"><ele>8.2</ele><time>2026-04-07T13:22:38.328Z</time></trkpt><trkpt lat="41.0047099" lon="9.6142721"><ele>7.799999999999999</ele><time>2026-04-07T13:22:39.327Z</time></trkpt><trkpt lat="41.0047646" lon="9.6141503"><ele>7.3999999999999995</ele><time>2026-04-07T13:22:40.328Z</time></trkpt><trkpt lat="41.0048139" lon="9.6140306"><ele>7.0</ele><time>2026-04-07T13:22:41.328Z</time></trkpt><trkpt lat="41.0048558" lon="9.6138938"><ele>7.0</ele><time>2026-04-07T13:22:42.327Z</time></trkpt><trkpt lat="41.004884" lon="9.6137484"><ele>7.0</ele><time>2026-04-07T13:22:43.328Z</time></trkpt><trkpt lat="41.0048902" lon="9.6135926"><ele>7.0</ele><time>2026-04-07T13:22:44.327Z</time></trkpt><trkpt lat="41.0048768" lon="9.6134401"><ele>7.0</ele><time>2026-04-07T13:22:45.328Z</time></trkpt><trkpt lat="41.0048483" lon="9.6132993"><ele>6.3999999999999995</ele><time>2026-04-07T13:22:46.327Z</time></trkpt><trkpt lat="41.0048209" lon="9.6131703"><ele>5.799999999999999</ele><time>2026-04-07T13:22:47.328Z</time></trkpt><trkpt lat="41.0047877" lon="9.6130443"><ele>5.2</ele><time>2026-04-07T13:22:48.327Z</time></trkpt><trkpt lat="41.004755" lon="9.6129139"><ele>4.6</ele><time>2026-04-07T13:22:49.328Z</time></trkpt><trkpt lat="41.0047229" lon="9.6127838"><ele>4.0</ele><time>2026-04-07T13:22:50.328Z</time></trkpt><trkpt lat="41.0046935" lon="9.6126536"><ele>4.0</ele><time>2026-04-07T13:22:51.328Z</time></trkpt><trkpt lat="41.004663" lon="9.6125252"><ele>4.0</ele><time>2026-04-07T13:22:52.328Z</time></trkpt><trkpt lat="41.004632" lon="9.6123954"><ele>4.0</ele><time>2026-04-07T13:22:53.328Z</time></trkpt><trkpt lat="41.0046017" lon="9.6122638"><ele>4.0</ele><time>2026-04-07T13:22:54.328Z</time></trkpt><trkpt lat="41.0045754" lon="9.612131"><ele>4.0</ele><time>2026-04-07T13:22:55.327Z</time></trkpt><trkpt lat="41.0045414" lon="9.611997"><ele>4.2</ele><time>2026-04-07T13:22:56.327Z</time></trkpt><trkpt lat="41.0045103" lon="9.6118612"><ele>4.4</ele><time>2026-04-07T13:22:57.328Z</time></trkpt><trkpt lat="41.0044838" lon="9.611724"><ele>4.6</ele><time>2026-04-07T13:22:58.328Z</time></trkpt><trkpt lat="41.0044658" lon="9.611584"><ele>4.8</ele><time>2026-04-07T13:22:59.327Z</time></trkpt><trkpt lat="41.0044613" lon="9.6114387"><ele>5.0</ele><time>2026-04-07T13:23:00.328Z</time></trkpt><trkpt lat="41.004475" lon="9.6112922"><ele>5.0</ele><time>2026-04-07T13:23:01.328Z</time></trkpt><trkpt lat="41.0045102" lon="9.6111534"><ele>5.0</ele><time>2026-04-07T13:23:02.328Z</time></trkpt><trkpt lat="41.0045698" lon="9.6110245"><ele>5.0</ele><time>2026-04-07T13:23:03.328Z</time></trkpt><trkpt lat="41.0046431" lon="9.6109011"><ele>5.0</ele><time>2026-04-07T13:23:04.327Z</time></trkpt><trkpt lat="41.0047252" lon="9.6107833"><ele>5.0</ele><time>2026-04-07T13:23:05.327Z</time></trkpt><trkpt lat="41.0048031" lon="9.6106623"><ele>5.0</ele><time>2026-04-07T13:23:06.327Z</time></trkpt><trkpt lat="41.0048859" lon="9.6105427"><ele>5.0</ele><time>2026-04-07T13:23:07.327Z</time></trkpt><trkpt lat="41.0049638" lon="9.6104284"><ele>5.0</ele><time>2026-04-07T13:23:08.327Z</time></trkpt><trkpt lat="41.0050378" lon="9.6103225"><ele>5.0</ele><time>2026-04-07T13:23:09.327Z</time></trkpt><trkpt lat="41.0051023" lon="9.6102114"><ele>5.0</ele><time>2026-04-07T13:23:10.327Z</time></trkpt><trkpt lat="41.0051652" lon="9.6101054"><ele>5.0</ele><time>2026-04-07T13:23:11.328Z</time></trkpt><trkpt lat="41.0052188" lon="9.6100028"><ele>5.0</ele><time>2026-04-07T13:23:12.328Z</time></trkpt><trkpt lat="41.0052604" lon="9.6099117"><ele>5.0</ele><time>2026-04-07T13:23:13.327Z</time></trkpt><trkpt lat="41.0053031" lon="9.6098327"><ele>5.0</ele><time>2026-04-07T13:23:14.328Z</time></trkpt><trkpt lat="41.005346" lon="9.6097535"><ele>5.0</ele><time>2026-04-07T13:23:15.328Z</time></trkpt><trkpt lat="41.0053658" lon="9.6096589"><ele>5.0</ele><time>2026-04-07T13:23:16.328Z</time></trkpt><trkpt lat="41.0053503" lon="9.6095545"><ele>5.0</ele><time>2026-04-07T13:23:17.328Z</time></trkpt><trkpt lat="41.0053082" lon="9.6094553"><ele>5.0</ele><time>2026-04-07T13:23:18.328Z</time></trkpt><trkpt lat="41.0052424" lon="9.6093663"><ele>5.0</ele><time>2026-04-07T13:23:19.328Z</time></trkpt><trkpt lat="41.0051668" lon="9.6092833"><ele>5.0</ele><time>2026-04-07T13:23:20.327Z</time></trkpt><trkpt lat="41.0050934" lon="9.6092133"><ele>5.0</ele><time>2026-04-07T13:23:21.327Z</time></trkpt><trkpt lat="41.0050045" lon="9.6091365"><ele>5.0</ele><time>2026-04-07T13:23:22.327Z</time></trkpt><trkpt lat="41.0049046" lon="9.6090701"><ele>5.0</ele><time>2026-04-07T13:23:23.327Z</time></trkpt><trkpt lat="41.0047907" lon="9.6090099"><ele>5.0</ele><time>2026-04-07T13:23:24.328Z</time></trkpt><trkpt lat="41.0046669" lon="9.6089548"><ele>5.0</ele><time>2026-04-07T13:23:25.328Z</time></trkpt><trkpt lat="41.0045428" lon="9.6088924"><ele>5.0</ele><time>2026-04-07T13:23:26.327Z</time></trkpt><trkpt lat="41.0044156" lon="9.6088188"><ele>5.0</ele><time>2026-04-07T13:23:27.328Z</time></trkpt><trkpt lat="41.0043" lon="9.6087354"><ele>5.0</ele><time>2026-04-07T13:23:28.328Z</time></trkpt><trkpt lat="41.0041972" lon="9.6086576"><ele>5.6</ele><time>2026-04-07T13:23:29.328Z</time></trkpt><trkpt lat="41.004103" lon="9.6085748"><ele>6.2</ele><time>2026-04-07T13:23:30.328Z</time></trkpt><trkpt lat="41.0040183" lon="9.6084941"><ele>6.800000000000001</ele><time>2026-04-07T13:23:31.328Z</time></trkpt><trkpt lat="41.0039384" lon="9.6084208"><ele>7.4</ele><time>2026-04-07T13:23:32.327Z</time></trkpt><trkpt lat="41.003854" lon="9.608347"><ele>8.0</ele><time>2026-04-07T13:23:33.327Z</time></trkpt><trkpt lat="41.0037715" lon="9.6082699"><ele>8.0</ele><time>2026-04-07T13:23:34.328Z</time></trkpt><trkpt lat="41.003683" lon="9.6081925"><ele>8.0</ele><time>2026-04-07T13:23:35.328Z</time></trkpt><trkpt lat="41.0036002" lon="9.6081109"><ele>8.0</ele><time>2026-04-07T13:23:36.328Z</time></trkpt><trkpt lat="41.0035055" lon="9.6080302"><ele>8.0</ele><time>2026-04-07T13:23:37.328Z</time></trkpt><trkpt lat="41.0034053" lon="9.6079338"><ele>8.0</ele><time>2026-04-07T13:23:38.328Z</time></trkpt><trkpt lat="41.0033057" lon="9.6078399"><ele>8.25</ele><time>2026-04-07T13:23:39.328Z</time></trkpt><trkpt lat="41.0032223" lon="9.6077388"><ele>8.5</ele><time>2026-04-07T13:23:40.327Z</time></trkpt><trkpt lat="41.0031526" lon="9.6076223"><ele>8.75</ele><time>2026-04-07T13:23:41.328Z</time></trkpt><trkpt lat="41.0031006" lon="9.60748"><ele>9.0</ele><time>2026-04-07T13:23:42.328Z</time></trkpt><trkpt lat="41.003086" lon="9.6073328"><ele>9.0</ele><time>2026-04-07T13:23:43.327Z</time></trkpt><trkpt lat="41.0030894" lon="9.6072078"><ele>9.0</ele><time>2026-04-07T13:23:44.327Z</time></trkpt><trkpt lat="41.0031021" lon="9.6071091"><ele>9.0</ele><time>2026-04-07T13:23:45.328Z</time></trkpt><trkpt lat="41.0031237" lon="9.6070236"><ele>9.0</ele><time>2026-04-07T13:23:46.328Z</time></trkpt><trkpt lat="41.0031613" lon="9.6068944"><ele>9.0</ele><time>2026-04-07T13:23:48.328Z</time></trkpt><trkpt lat="41.0031723" lon="9.6068103"><ele>9.0</ele><time>2026-04-07T13:23:50.327Z</time></trkpt><trkpt lat="41.0031805" lon="9.6067202"><ele>9.0</ele><time>2026-04-07T13:23:54.328Z</time></trkpt><trkpt lat="41.0031034" lon="9.606766"><ele>9.0</ele><time>2026-04-07T13:24:00.328Z</time></trkpt><trkpt lat="41.0030901" lon="9.6068684"><ele>9.0</ele><time>2026-04-07T13:24:02.328Z</time></trkpt><trkpt lat="41.0030743" lon="9.6070475"><ele>9.0</ele><time>2026-04-07T13:24:04.328Z</time></trkpt><trkpt lat="41.0030579" lon="9.6071713"><ele>9.0</ele><time>2026-04-07T13:24:05.328Z</time></trkpt><trkpt lat="41.0030514" lon="9.6073057"><ele>9.0</ele><time>2026-04-07T13:24:06.328Z</time></trkpt><trkpt lat="41.0030654" lon="9.6074481"><ele>9.0</ele><time>2026-04-07T13:24:07.328Z</time></trkpt><trkpt lat="41.0031069" lon="9.6076037"><ele>9.0</ele><time>2026-04-07T13:24:08.328Z</time></trkpt><trkpt lat="41.003174" lon="9.6077448"><ele>9.0</ele><time>2026-04-07T13:24:09.328Z</time></trkpt><trkpt lat="41.0032693" lon="9.6078651"><ele>8.8</ele><time>2026-04-07T13:24:10.328Z</time></trkpt><trkpt lat="41.0033718" lon="9.6079616"><ele>8.600000000000001</ele><time>2026-04-07T13:24:11.328Z</time></trkpt><trkpt lat="41.0034667" lon="9.6080506"><ele>8.4</ele><time>2026-04-07T13:24:12.328Z</time></trkpt><trkpt lat="41.0035548" lon="9.6081278"><ele>8.200000000000001</ele><time>2026-04-07T13:24:13.327Z</time></trkpt><trkpt lat="41.0036394" lon="9.6082001"><ele>8.0</ele><time>2026-04-07T13:24:14.328Z</time></trkpt><trkpt lat="41.003714" lon="9.6082673"><ele>7.999999999999999</ele><time>2026-04-07T13:24:15.328Z</time></trkpt><trkpt lat="41.0037793" lon="9.6083328"><ele>8.0</ele><time>2026-04-07T13:24:16.328Z</time></trkpt><trkpt lat="41.0038377" lon="9.608383"><ele>8.0</ele><time>2026-04-07T13:24:17.328Z</time></trkpt><trkpt lat="41.0039015" lon="9.6084346"><ele>8.0</ele><time>2026-04-07T13:24:18.328Z</time></trkpt><trkpt lat="41.0039646" lon="9.6084937"><ele>7.999999999999999</ele><time>2026-04-07T13:24:19.328Z</time></trkpt><trkpt lat="41.0040283" lon="9.6085519"><ele>8.0</ele><time>2026-04-07T13:24:20.328Z</time></trkpt><trkpt lat="41.0040923" lon="9.6086083"><ele>7.666666666666666</ele><time>2026-04-07T13:24:21.328Z</time></trkpt><trkpt lat="41.00415" lon="9.6086618"><ele>7.333333333333333</ele><time>2026-04-07T13:24:22.328Z</time></trkpt><trkpt lat="41.0042059" lon="9.6087028"><ele>7.0</ele><time>2026-04-07T13:24:23.327Z</time></trkpt><trkpt lat="41.0043127" lon="9.608715"><ele>6.666666666666666</ele><time>2026-04-07T13:24:25.328Z</time></trkpt><trkpt lat="41.0043792" lon="9.6086381"><ele>6.333333333333333</ele><time>2026-04-07T13:24:27.328Z</time></trkpt><trkpt lat="41.004366" lon="9.6085519"><ele>6.0</ele><time>2026-04-07T13:24:29.328Z</time></trkpt><trkpt lat="41.0043283" lon="9.6084774"><ele>5.8</ele><time>2026-04-07T13:24:31.328Z</time></trkpt><trkpt lat="41.0042242" lon="9.6084662"><ele>5.6</ele><time>2026-04-07T13:24:33.328Z</time></trkpt><trkpt lat="41.0041513" lon="9.6085172"><ele>5.4</ele><time>2026-04-07T13:24:35.328Z</time></trkpt><trkpt lat="41.0040481" lon="9.6085028"><ele>5.2</ele><time>2026-04-07T13:24:37.327Z</time></trkpt><trkpt lat="41.0039748" lon="9.6084527"><ele>5.0</ele><time>2026-04-07T13:24:38.328Z</time></trkpt><trkpt lat="41.0038909" lon="9.6083825"><ele>5.75</ele><time>2026-04-07T13:24:39.327Z</time></trkpt><trkpt lat="41.0037936" lon="9.6082947"><ele>6.5</ele><time>2026-04-07T13:24:40.328Z</time></trkpt><trkpt lat="41.0036859" lon="9.6082026"><ele>7.25</ele><time>2026-04-07T13:24:41.328Z</time></trkpt><trkpt lat="41.0035784" lon="9.6080997"><ele>8.0</ele><time>2026-04-07T13:24:42.327Z</time></trkpt><trkpt lat="41.0034619" lon="9.6079912"><ele>8.0</ele><time>2026-04-07T13:24:43.328Z</time></trkpt><trkpt lat="41.0033532" lon="9.6078959"><ele>8.0</ele><time>2026-04-07T13:24:44.327Z</time></trkpt><trkpt lat="41.0032576" lon="9.6077929"><ele>8.0</ele><time>2026-04-07T13:24:45.328Z</time></trkpt><trkpt lat="41.003177" lon="9.6076757"><ele>8.0</ele><time>2026-04-07T13:24:46.327Z</time></trkpt><trkpt lat="41.0031194" lon="9.607539"><ele>8.25</ele><time>2026-04-07T13:24:47.328Z</time></trkpt><trkpt lat="41.0030868" lon="9.6073874"><ele>8.5</ele><time>2026-04-07T13:24:48.328Z</time></trkpt><trkpt lat="41.0030838" lon="9.6072307"><ele>8.75</ele><time>2026-04-07T13:24:49.328Z</time></trkpt><trkpt lat="41.0031042" lon="9.6070758"><ele>9.0</ele><time>2026-04-07T13:24:50.328Z</time></trkpt><trkpt lat="41.0031314" lon="9.6069233"><ele>8.25</ele><time>2026-04-07T13:24:51.327Z</time></trkpt><trkpt lat="41.0031519" lon="9.6067709"><ele>7.5</ele><time>2026-04-07T13:24:52.327Z</time></trkpt><trkpt lat="41.0031661" lon="9.6066169"><ele>6.75</ele><time>2026-04-07T13:24:53.327Z</time></trkpt><trkpt lat="41.0031711" lon="9.606454"><ele>6.0</ele><time>2026-04-07T13:24:54.328Z</time></trkpt><trkpt lat="41.0031453" lon="9.6062828"><ele>6.5</ele><time>2026-04-07T13:24:55.327Z</time></trkpt><trkpt lat="41.0030882" lon="9.6061237"><ele>7.0</ele><time>2026-04-07T13:24:56.328Z</time></trkpt><trkpt lat="41.0030098" lon="9.6059849"><ele>7.5</ele><time>2026-04-07T13:24:57.328Z</time></trkpt><trkpt lat="41.0029178" lon="9.605847"><ele>8.0</ele><time>2026-04-07T13:24:58.328Z</time></trkpt><trkpt lat="41.0028291" lon="9.6056945"><ele>8.0</ele><time>2026-04-07T13:24:59.328Z</time></trkpt><trkpt lat="41.0027563" lon="9.6055267"><ele>8.0</ele><time>2026-04-07T13:25:00.327Z</time></trkpt><trkpt lat="41.0027013" lon="9.6053562"><ele>8.0</ele><time>2026-04-07T13:25:01.328Z</time></trkpt><trkpt lat="41.0026511" lon="9.6051787"><ele>8.0</ele><time>2026-04-07T13:25:02.328Z</time></trkpt><trkpt lat="41.0026093" lon="9.6049975"><ele>8.0</ele><time>2026-04-07T13:25:03.328Z</time></trkpt><trkpt lat="41.0025758" lon="9.6048121"><ele>8.0</ele><time>2026-04-07T13:25:04.327Z</time></trkpt><trkpt lat="41.0025453" lon="9.6046271"><ele>8.0</ele><time>2026-04-07T13:25:05.328Z</time></trkpt><trkpt lat="41.002539" lon="9.6044502"><ele>8.0</ele><time>2026-04-07T13:25:06.328Z</time></trkpt><trkpt lat="41.0025661" lon="9.6042712"><ele>8.0</ele><time>2026-04-07T13:25:07.327Z</time></trkpt><trkpt lat="41.0026268" lon="9.6040949"><ele>8.0</ele><time>2026-04-07T13:25:08.328Z</time></trkpt><trkpt lat="41.0027196" lon="9.6039262"><ele>8.0</ele><time>2026-04-07T13:25:09.327Z</time></trkpt><trkpt lat="41.0028244" lon="9.6037484"><ele>8.333333333333332</ele><time>2026-04-07T13:25:10.328Z</time></trkpt><trkpt lat="41.0029311" lon="9.6035598"><ele>8.666666666666666</ele><time>2026-04-07T13:25:11.328Z</time></trkpt><trkpt lat="41.0030368" lon="9.6033686"><ele>9.0</ele><time>2026-04-07T13:25:12.328Z</time></trkpt><trkpt lat="41.0031487" lon="9.6032014"><ele>9.0</ele><time>2026-04-07T13:25:13.327Z</time></trkpt><trkpt lat="41.0032835" lon="9.6030802"><ele>9.0</ele><time>2026-04-07T13:25:14.328Z</time></trkpt><trkpt lat="41.0034392" lon="9.6029931"><ele>9.0</ele><time>2026-04-07T13:25:15.328Z</time></trkpt><trkpt lat="41.0035991" lon="9.6029204"><ele>10.333333333333332</ele><time>2026-04-07T13:25:16.328Z</time></trkpt><trkpt lat="41.0037679" lon="9.6028581"><ele>11.666666666666666</ele><time>2026-04-07T13:25:17.328Z</time></trkpt><trkpt lat="41.003939" lon="9.6027945"><ele>13.0</ele><time>2026-04-07T13:25:18.327Z</time></trkpt><trkpt lat="41.004099" lon="9.6027353"><ele>14.0</ele><time>2026-04-07T13:25:19.328Z</time></trkpt><trkpt lat="41.0042438" lon="9.6026763"><ele>15.0</ele><time>2026-04-07T13:25:20.328Z</time></trkpt><trkpt lat="41.0043731" lon="9.6025964"><ele>16.0</ele><time>2026-04-07T13:25:21.327Z</time></trkpt><trkpt lat="41.004483" lon="9.6024688"><ele>17.0</ele><time>2026-04-07T13:25:22.328Z</time></trkpt><trkpt lat="41.0045691" lon="9.6023115"><ele>17.0</ele><time>2026-04-07T13:25:23.328Z</time></trkpt><trkpt lat="41.0046094" lon="9.6021264"><ele>17.0</ele><time>2026-04-07T13:25:24.328Z</time></trkpt><trkpt lat="41.0046027" lon="9.6019405"><ele>17.0</ele><time>2026-04-07T13:25:25.327Z</time></trkpt><trkpt lat="41.0045531" lon="9.6017608"><ele>17.0</ele><time>2026-04-07T13:25:26.328Z</time></trkpt><trkpt lat="41.0044638" lon="9.601594"><ele>17.666666666666668</ele><time>2026-04-07T13:25:27.328Z</time></trkpt><trkpt lat="41.0043479" lon="9.6014447"><ele>18.333333333333332</ele><time>2026-04-07T13:25:28.328Z</time></trkpt><trkpt lat="41.0042247" lon="9.6012869"><ele>19.0</ele><time>2026-04-07T13:25:29.328Z</time></trkpt><trkpt lat="41.0041019" lon="9.6011239"><ele>21.333333333333332</ele><time>2026-04-07T13:25:30.328Z</time></trkpt><trkpt lat="41.003971" lon="9.6009535"><ele>23.666666666666664</ele><time>2026-04-07T13:25:31.328Z</time></trkpt><trkpt lat="41.0038412" lon="9.6007857"><ele>26.0</ele><time>2026-04-07T13:25:32.328Z</time></trkpt><trkpt lat="41.0037293" lon="9.6006216"><ele>26.0</ele><time>2026-04-07T13:25:33.328Z</time></trkpt><trkpt lat="41.0036332" lon="9.6004371"><ele>26.0</ele><time>2026-04-07T13:25:34.328Z</time></trkpt><trkpt lat="41.0035682" lon="9.6002281"><ele>26.0</ele><time>2026-04-07T13:25:35.328Z</time></trkpt><trkpt lat="41.0035183" lon="9.6000073"><ele>28.0</ele><time>2026-04-07T13:25:36.328Z</time></trkpt><trkpt lat="41.003473" lon="9.5997838"><ele>30.0</ele><time>2026-04-07T13:25:37.327Z</time></trkpt><trkpt lat="41.0034351" lon="9.5995762"><ele>32.0</ele><time>2026-04-07T13:25:38.328Z</time></trkpt><trkpt lat="41.0034364" lon="9.599361"><ele>33.0</ele><time>2026-04-07T13:25:39.328Z</time></trkpt><trkpt lat="41.0034911" lon="9.599134"><ele>34.0</ele><time>2026-04-07T13:25:40.328Z</time></trkpt><trkpt lat="41.0035659" lon="9.5989132"><ele>35.0</ele><time>2026-04-07T13:25:41.328Z</time></trkpt><trkpt lat="41.0036336" lon="9.598705"><ele>36.5</ele><time>2026-04-07T13:25:42.327Z</time></trkpt><trkpt lat="41.0036934" lon="9.598517"><ele>38.0</ele><time>2026-04-07T13:25:43.328Z</time></trkpt><trkpt lat="41.0037245" lon="9.5983388"><ele>39.5</ele><time>2026-04-07T13:25:44.327Z</time></trkpt><trkpt lat="41.0037116" lon="9.5981815"><ele>41.0</ele><time>2026-04-07T13:25:45.328Z</time></trkpt><trkpt lat="41.0036496" lon="9.5980364"><ele>41.0</ele><time>2026-04-07T13:25:46.328Z</time></trkpt><trkpt lat="41.0035546" lon="9.5979191"><ele>41.0</ele><time>2026-04-07T13:25:47.328Z</time></trkpt><trkpt lat="41.0034553" lon="9.5978213"><ele>41.0</ele><time>2026-04-07T13:25:48.327Z</time></trkpt><trkpt lat="41.0033487" lon="9.5977223"><ele>41.0</ele><time>2026-04-07T13:25:49.328Z</time></trkpt><trkpt lat="41.003242" lon="9.5976185"><ele>42.5</ele><time>2026-04-07T13:25:50.328Z</time></trkpt><trkpt lat="41.0031447" lon="9.5975174"><ele>44.0</ele><time>2026-04-07T13:25:51.327Z</time></trkpt><trkpt lat="41.0030549" lon="9.5974034"><ele>45.5</ele><time>2026-04-07T13:25:52.328Z</time></trkpt><trkpt lat="41.0029789" lon="9.597257"><ele>47.0</ele><time>2026-04-07T13:25:53.328Z</time></trkpt><trkpt lat="41.0029298" lon="9.5970882"><ele>47.25</ele><time>2026-04-07T13:25:54.328Z</time></trkpt><trkpt lat="41.0028958" lon="9.5969119"><ele>47.5</ele><time>2026-04-07T13:25:55.327Z</time></trkpt><trkpt lat="41.0028711" lon="9.5967429"><ele>47.75</ele><time>2026-04-07T13:25:56.327Z</time></trkpt><trkpt lat="41.0028526" lon="9.5965848"><ele>48.0</ele><time>2026-04-07T13:25:57.328Z</time></trkpt><trkpt lat="41.002841" lon="9.5964385"><ele>48.0</ele><time>2026-04-07T13:25:58.327Z</time></trkpt><trkpt lat="41.0028285" lon="9.5963083"><ele>48.0</ele><time>2026-04-07T13:25:59.328Z</time></trkpt><trkpt lat="41.0028218" lon="9.5961843"><ele>48.0</ele><time>2026-04-07T13:26:00.328Z</time></trkpt><trkpt lat="41.0028211" lon="9.5960637"><ele>48.0</ele><time>2026-04-07T13:26:01.328Z</time></trkpt><trkpt lat="41.0028373" lon="9.5959462"><ele>48.0</ele><time>2026-04-07T13:26:02.328Z</time></trkpt><trkpt lat="41.00287" lon="9.5958288"><ele>47.599999999999994</ele><time>2026-04-07T13:26:03.328Z</time></trkpt><trkpt lat="41.0029273" lon="9.5957212"><ele>47.199999999999996</ele><time>2026-04-07T13:26:04.328Z</time></trkpt><trkpt lat="41.0030027" lon="9.5956253"><ele>46.8</ele><time>2026-04-07T13:26:05.328Z</time></trkpt><trkpt lat="41.0030983" lon="9.5955526"><ele>46.4</ele><time>2026-04-07T13:26:06.328Z</time></trkpt><trkpt lat="41.0031942" lon="9.595471"><ele>46.0</ele><time>2026-04-07T13:26:07.328Z</time></trkpt><trkpt lat="41.0032712" lon="9.5953731"><ele>46.8</ele><time>2026-04-07T13:26:08.327Z</time></trkpt><trkpt lat="41.0033265" lon="9.5952634"><ele>47.599999999999994</ele><time>2026-04-07T13:26:09.328Z</time></trkpt><trkpt lat="41.0033606" lon="9.5951446"><ele>48.4</ele><time>2026-04-07T13:26:10.328Z</time></trkpt><trkpt lat="41.003373" lon="9.595015"><ele>49.2</ele><time>2026-04-07T13:26:11.327Z</time></trkpt><trkpt lat="41.0033707" lon="9.5948849"><ele>50.0</ele><time>2026-04-07T13:26:12.328Z</time></trkpt><trkpt lat="41.0033591" lon="9.5947524"><ele>50.0</ele><time>2026-04-07T13:26:13.328Z</time></trkpt><trkpt lat="41.0033465" lon="9.5946109"><ele>50.0</ele><time>2026-04-07T13:26:14.328Z</time></trkpt><trkpt lat="41.0033351" lon="9.5944586"><ele>50.0</ele><time>2026-04-07T13:26:15.328Z</time></trkpt><trkpt lat="41.0033267" lon="9.5942945"><ele>50.0</ele><time>2026-04-07T13:26:16.327Z</time></trkpt><trkpt lat="41.0033272" lon="9.594124"><ele>50.25</ele><time>2026-04-07T13:26:17.328Z</time></trkpt><trkpt lat="41.0033309" lon="9.5939544"><ele>50.5</ele><time>2026-04-07T13:26:18.328Z</time></trkpt><trkpt lat="41.0033352" lon="9.593778"><ele>50.75</ele><time>2026-04-07T13:26:19.327Z</time></trkpt><trkpt lat="41.003351" lon="9.5935902"><ele>51.0</ele><time>2026-04-07T13:26:20.328Z</time></trkpt><trkpt lat="41.0033788" lon="9.5933958"><ele>50.25</ele><time>2026-04-07T13:26:21.328Z</time></trkpt><trkpt lat="41.0034002" lon="9.5932121"><ele>49.5</ele><time>2026-04-07T13:26:22.328Z</time></trkpt><trkpt lat="41.0034157" lon="9.5930306"><ele>48.75</ele><time>2026-04-07T13:26:23.328Z</time></trkpt><trkpt lat="41.0034287" lon="9.5928462"><ele>48.0</ele><time>2026-04-07T13:26:24.328Z</time></trkpt><trkpt lat="41.0034327" lon="9.5926667"><ele>47.25</ele><time>2026-04-07T13:26:25.328Z</time></trkpt><trkpt lat="41.0034251" lon="9.5924931"><ele>46.5</ele><time>2026-04-07T13:26:26.328Z</time></trkpt><trkpt lat="41.0033984" lon="9.5923305"><ele>45.75</ele><time>2026-04-07T13:26:27.328Z</time></trkpt><trkpt lat="41.0033456" lon="9.5921927"><ele>45.0</ele><time>2026-04-07T13:26:28.328Z</time></trkpt><trkpt lat="41.0032801" lon="9.59207"><ele>46.6</ele><time>2026-04-07T13:26:29.328Z</time></trkpt><trkpt lat="41.0032143" lon="9.5919534"><ele>48.2</ele><time>2026-04-07T13:26:30.327Z</time></trkpt><trkpt lat="41.0031582" lon="9.5918305"><ele>49.8</ele><time>2026-04-07T13:26:31.328Z</time></trkpt><trkpt lat="41.0031113" lon="9.5917028"><ele>51.4</ele><time>2026-04-07T13:26:32.328Z</time></trkpt><trkpt lat="41.0030903" lon="9.5915575"><ele>53.0</ele><time>2026-04-07T13:26:33.328Z</time></trkpt><trkpt lat="41.0030967" lon="9.5913976"><ele>53.0</ele><time>2026-04-07T13:26:34.328Z</time></trkpt><trkpt lat="41.0031094" lon="9.591224"><ele>53.0</ele><time>2026-04-07T13:26:35.328Z</time></trkpt><trkpt lat="41.0031299" lon="9.5910378"><ele>53.0</ele><time>2026-04-07T13:26:36.328Z</time></trkpt><trkpt lat="41.0031547" lon="9.590845"><ele>53.0</ele><time>2026-04-07T13:26:37.327Z</time></trkpt><trkpt lat="41.0031776" lon="9.5906452"><ele>52.0</ele><time>2026-04-07T13:26:38.328Z</time></trkpt><trkpt lat="41.0032006" lon="9.5904504"><ele>51.0</ele><time>2026-04-07T13:26:39.327Z</time></trkpt><trkpt lat="41.0032187" lon="9.5902504"><ele>50.0</ele><time>2026-04-07T13:26:40.328Z</time></trkpt><trkpt lat="41.0032232" lon="9.5900481"><ele>50.0</ele><time>2026-04-07T13:26:41.328Z</time></trkpt><trkpt lat="41.003199" lon="9.5898506"><ele>50.0</ele><time>2026-04-07T13:26:42.328Z</time></trkpt><trkpt lat="41.0031597" lon="9.5896597"><ele>50.0</ele><time>2026-04-07T13:26:43.327Z</time></trkpt><trkpt lat="41.0031172" lon="9.5894738"><ele>50.0</ele><time>2026-04-07T13:26:44.328Z</time></trkpt><trkpt lat="41.0030688" lon="9.5892898"><ele>48.66666666666667</ele><time>2026-04-07T13:26:45.327Z</time></trkpt><trkpt lat="41.0030049" lon="9.5891122"><ele>47.333333333333336</ele><time>2026-04-07T13:26:46.327Z</time></trkpt><trkpt lat="41.0029293" lon="9.5889388"><ele>46.0</ele><time>2026-04-07T13:26:47.328Z</time></trkpt><trkpt lat="41.0028464" lon="9.5887684"><ele>43.0</ele><time>2026-04-07T13:26:48.328Z</time></trkpt><trkpt lat="41.0027636" lon="9.5885965"><ele>40.0</ele><time>2026-04-07T13:26:49.327Z</time></trkpt><trkpt lat="41.0026838" lon="9.5884145"><ele>37.0</ele><time>2026-04-07T13:26:50.328Z</time></trkpt><trkpt lat="41.0026131" lon="9.588225"><ele>37.0</ele><time>2026-04-07T13:26:51.328Z</time></trkpt><trkpt lat="41.0025638" lon="9.5880217"><ele>37.0</ele><time>2026-04-07T13:26:52.327Z</time></trkpt><trkpt lat="41.0025312" lon="9.5878126"><ele>37.0</ele><time>2026-04-07T13:26:53.328Z</time></trkpt><trkpt lat="41.0025021" lon="9.587605"><ele>38.66666666666667</ele><time>2026-04-07T13:26:54.328Z</time></trkpt><trkpt lat="41.0024721" lon="9.5873975"><ele>40.333333333333336</ele><time>2026-04-07T13:26:55.328Z</time></trkpt><trkpt lat="41.0024443" lon="9.5871845"><ele>42.0</ele><time>2026-04-07T13:26:56.328Z</time></trkpt><trkpt lat="41.0024187" lon="9.5869698"><ele>42.0</ele><time>2026-04-07T13:26:57.328Z</time></trkpt><trkpt lat="41.0023907" lon="9.5867626"><ele>42.0</ele><time>2026-04-07T13:26:58.327Z</time></trkpt><trkpt lat="41.0023643" lon="9.5865572"><ele>42.0</ele><time>2026-04-07T13:26:59.327Z</time></trkpt><trkpt lat="41.0023356" lon="9.5863527"><ele>40.333333333333336</ele><time>2026-04-07T13:27:00.328Z</time></trkpt><trkpt lat="41.0023001" lon="9.5861508"><ele>38.66666666666667</ele><time>2026-04-07T13:27:01.327Z</time></trkpt><trkpt lat="41.0022417" lon="9.5859581"><ele>37.0</ele><time>2026-04-07T13:27:02.328Z</time></trkpt><trkpt lat="41.0021704" lon="9.5857737"><ele>37.0</ele><time>2026-04-07T13:27:03.328Z</time></trkpt><trkpt lat="41.0020876" lon="9.5855963"><ele>37.0</ele><time>2026-04-07T13:27:04.328Z</time></trkpt><trkpt lat="41.0019976" lon="9.5854286"><ele>37.0</ele><time>2026-04-07T13:27:05.328Z</time></trkpt><trkpt lat="41.0019128" lon="9.5852627"><ele>35.0</ele><time>2026-04-07T13:27:06.327Z</time></trkpt><trkpt lat="41.0018279" lon="9.5850947"><ele>33.0</ele><time>2026-04-07T13:27:07.328Z</time></trkpt><trkpt lat="41.0017496" lon="9.5849305"><ele>31.0</ele><time>2026-04-07T13:27:08.327Z</time></trkpt><trkpt lat="41.0017006" lon="9.5847579"><ele>29.0</ele><time>2026-04-07T13:27:09.328Z</time></trkpt><trkpt lat="41.0016848" lon="9.5845736"><ele>28.666666666666664</ele><time>2026-04-07T13:27:10.327Z</time></trkpt><trkpt lat="41.0017051" lon="9.5843815"><ele>28.333333333333336</ele><time>2026-04-07T13:27:11.328Z</time></trkpt><trkpt lat="41.0017624" lon="9.5841878"><ele>28.0</ele><time>2026-04-07T13:27:12.327Z</time></trkpt><trkpt lat="41.0018358" lon="9.5839955"><ele>28.0</ele><time>2026-04-07T13:27:13.327Z</time></trkpt><trkpt lat="41.0019132" lon="9.5838026"><ele>28.0</ele><time>2026-04-07T13:27:14.327Z</time></trkpt><trkpt lat="41.0019899" lon="9.58361"><ele>28.0</ele><time>2026-04-07T13:27:15.328Z</time></trkpt><trkpt lat="41.0020677" lon="9.5834269"><ele>29.25</ele><time>2026-04-07T13:27:16.328Z</time></trkpt><trkpt lat="41.0021385" lon="9.5832559"><ele>30.5</ele><time>2026-04-07T13:27:17.328Z</time></trkpt><trkpt lat="41.002203" lon="9.5830899"><ele>31.75</ele><time>2026-04-07T13:27:18.327Z</time></trkpt><trkpt lat="41.0022438" lon="9.5829111"><ele>33.0</ele><time>2026-04-07T13:27:19.328Z</time></trkpt><trkpt lat="41.0022502" lon="9.5827267"><ele>33.25</ele><time>2026-04-07T13:27:20.328Z</time></trkpt><trkpt lat="41.0022198" lon="9.582545"><ele>33.5</ele><time>2026-04-07T13:27:21.328Z</time></trkpt><trkpt lat="41.0021574" lon="9.5823745"><ele>33.75</ele><time>2026-04-07T13:27:22.328Z</time></trkpt><trkpt lat="41.0020712" lon="9.5822219"><ele>34.0</ele><time>2026-04-07T13:27:23.327Z</time></trkpt><trkpt lat="41.0019677" lon="9.5820785"><ele>33.25</ele><time>2026-04-07T13:27:24.327Z</time></trkpt><trkpt lat="41.0018678" lon="9.5819307"><ele>32.5</ele><time>2026-04-07T13:27:25.328Z</time></trkpt><trkpt lat="41.001773" lon="9.5817888"><ele>31.75</ele><time>2026-04-07T13:27:26.327Z</time></trkpt><trkpt lat="41.0016724" lon="9.581643"><ele>31.0</ele><time>2026-04-07T13:27:27.328Z</time></trkpt><trkpt lat="41.0015687" lon="9.5814964"><ele>30.75</ele><time>2026-04-07T13:27:28.328Z</time></trkpt><trkpt lat="41.0014756" lon="9.5813584"><ele>30.5</ele><time>2026-04-07T13:27:29.327Z</time></trkpt><trkpt lat="41.0013633" lon="9.5812475"><ele>30.25</ele><time>2026-04-07T13:27:30.328Z</time></trkpt><trkpt lat="41.001231" lon="9.5811628"><ele>30.0</ele><time>2026-04-07T13:27:31.327Z</time></trkpt><trkpt lat="41.001085" lon="9.5810889"><ele>30.0</ele><time>2026-04-07T13:27:32.327Z</time></trkpt><trkpt lat="41.0009386" lon="9.5810201"><ele>30.0</ele><time>2026-04-07T13:27:33.327Z</time></trkpt><trkpt lat="41.0007975" lon="9.5809463"><ele>30.0</ele><time>2026-04-07T13:27:34.327Z</time></trkpt><trkpt lat="41.0006597" lon="9.5808626"><ele>31.333333333333336</ele><time>2026-04-07T13:27:35.328Z</time></trkpt><trkpt lat="41.0005365" lon="9.5807569"><ele>32.66666666666667</ele><time>2026-04-07T13:27:36.328Z</time></trkpt><trkpt lat="41.0004312" lon="9.5806114"><ele>34.0</ele><time>2026-04-07T13:27:37.327Z</time></trkpt><trkpt lat="41.0003639" lon="9.5804325"><ele>32.25</ele><time>2026-04-07T13:27:38.328Z</time></trkpt><trkpt lat="41.0003308" lon="9.5802478"><ele>30.5</ele><time>2026-04-07T13:27:39.328Z</time></trkpt><trkpt lat="41.000297" lon="9.5800649"><ele>28.75</ele><time>2026-04-07T13:27:40.328Z</time></trkpt><trkpt lat="41.0002634" lon="9.5798791"><ele>27.0</ele><time>2026-04-07T13:27:41.328Z</time></trkpt><trkpt lat="41.0002142" lon="9.5796949"><ele>27.0</ele><time>2026-04-07T13:27:42.327Z</time></trkpt><trkpt lat="41.0001397" lon="9.5795173"><ele>27.0</ele><time>2026-04-07T13:27:43.327Z</time></trkpt><trkpt lat="41.0000343" lon="9.5793593"><ele>27.0</ele><time>2026-04-07T13:27:44.328Z</time></trkpt><trkpt lat="40.9999063" lon="9.5792159"><ele>24.666666666666668</ele><time>2026-04-07T13:27:45.328Z</time></trkpt><trkpt lat="40.9997692" lon="9.5790699"><ele>22.333333333333336</ele><time>2026-04-07T13:27:46.328Z</time></trkpt><trkpt lat="40.9996276" lon="9.5789201"><ele>20.0</ele><time>2026-04-07T13:27:47.328Z</time></trkpt><trkpt lat="40.9994843" lon="9.5787637"><ele>19.0</ele><time>2026-04-07T13:27:48.328Z</time></trkpt><trkpt lat="40.9993429" lon="9.5786093"><ele>18.0</ele><time>2026-04-07T13:27:49.328Z</time></trkpt><trkpt lat="40.9992033" lon="9.5784521"><ele>17.0</ele><time>2026-04-07T13:27:50.328Z</time></trkpt><trkpt lat="40.9990658" lon="9.5782872"><ele>17.0</ele><time>2026-04-07T13:27:51.328Z</time></trkpt><trkpt lat="40.9989305" lon="9.5781108"><ele>17.0</ele><time>2026-04-07T13:27:52.327Z</time></trkpt><trkpt lat="40.9988007" lon="9.5779284"><ele>17.0</ele><time>2026-04-07T13:27:53.328Z</time></trkpt><trkpt lat="40.9986655" lon="9.5777471"><ele>17.0</ele><time>2026-04-07T13:27:54.327Z</time></trkpt><trkpt lat="40.9985271" lon="9.5775668"><ele>17.0</ele><time>2026-04-07T13:27:55.328Z</time></trkpt><trkpt lat="40.9983908" lon="9.5773962"><ele>17.0</ele><time>2026-04-07T13:27:56.328Z</time></trkpt><trkpt lat="40.9982604" lon="9.577224"><ele>17.0</ele><time>2026-04-07T13:27:57.327Z</time></trkpt><trkpt lat="40.9981357" lon="9.5770629"><ele>17.0</ele><time>2026-04-07T13:27:58.328Z</time></trkpt><trkpt lat="40.998018" lon="9.5769083"><ele>17.0</ele><time>2026-04-07T13:27:59.328Z</time></trkpt><trkpt lat="40.9979068" lon="9.5767394"><ele>16.0</ele><time>2026-04-07T13:28:00.327Z</time></trkpt><trkpt lat="40.9978139" lon="9.5765379"><ele>15.0</ele><time>2026-04-07T13:28:01.328Z</time></trkpt><trkpt lat="40.9977432" lon="9.5763191"><ele>14.0</ele><time>2026-04-07T13:28:02.328Z</time></trkpt><trkpt lat="40.9976824" lon="9.5760966"><ele>13.666666666666668</ele><time>2026-04-07T13:28:03.328Z</time></trkpt><trkpt lat="40.9976251" lon="9.5758823"><ele>13.333333333333332</ele><time>2026-04-07T13:28:04.328Z</time></trkpt><trkpt lat="40.9975727" lon="9.5756724"><ele>13.0</ele><time>2026-04-07T13:28:05.328Z</time></trkpt><trkpt lat="40.9975178" lon="9.575462"><ele>13.333333333333332</ele><time>2026-04-07T13:28:06.328Z</time></trkpt><trkpt lat="40.9974622" lon="9.5752479"><ele>13.666666666666668</ele><time>2026-04-07T13:28:07.328Z</time></trkpt><trkpt lat="40.9974031" lon="9.5750314"><ele>14.0</ele><time>2026-04-07T13:28:08.328Z</time></trkpt><trkpt lat="40.9973414" lon="9.5748093"><ele>14.0</ele><time>2026-04-07T13:28:09.328Z</time></trkpt><trkpt lat="40.9972804" lon="9.5745863"><ele>14.0</ele><time>2026-04-07T13:28:10.328Z</time></trkpt><trkpt lat="40.9972283" lon="9.574367"><ele>14.0</ele><time>2026-04-07T13:28:11.327Z</time></trkpt><trkpt lat="40.9972013" lon="9.5741381"><ele>14.333333333333334</ele><time>2026-04-07T13:28:12.327Z</time></trkpt><trkpt lat="40.9972144" lon="9.5739063"><ele>14.666666666666668</ele><time>2026-04-07T13:28:13.328Z</time></trkpt><trkpt lat="40.9972774" lon="9.5736967"><ele>15.0</ele><time>2026-04-07T13:28:14.328Z</time></trkpt><trkpt lat="40.9973827" lon="9.5734953"><ele>16.0</ele><time>2026-04-07T13:28:15.328Z</time></trkpt><trkpt lat="40.9974856" lon="9.5733029"><ele>17.0</ele><time>2026-04-07T13:28:16.328Z</time></trkpt><trkpt lat="40.9975776" lon="9.5731014"><ele>18.0</ele><time>2026-04-07T13:28:17.328Z</time></trkpt><trkpt lat="40.9976495" lon="9.5728818"><ele>17.666666666666668</ele><time>2026-04-07T13:28:18.328Z</time></trkpt><trkpt lat="40.997704" lon="9.5726532"><ele>17.333333333333336</ele><time>2026-04-07T13:28:19.327Z</time></trkpt><trkpt lat="40.9977564" lon="9.5724235"><ele>17.0</ele><time>2026-04-07T13:28:20.327Z</time></trkpt><trkpt lat="40.9978067" lon="9.572201"><ele>18.666666666666668</ele><time>2026-04-07T13:28:21.327Z</time></trkpt><trkpt lat="40.9978575" lon="9.5719735"><ele>20.333333333333332</ele><time>2026-04-07T13:28:22.327Z</time></trkpt><trkpt lat="40.99791" lon="9.5717456"><ele>22.0</ele><time>2026-04-07T13:28:23.327Z</time></trkpt><trkpt lat="40.9979741" lon="9.5715238"><ele>22.0</ele><time>2026-04-07T13:28:24.328Z</time></trkpt><trkpt lat="40.9980558" lon="9.5713039"><ele>22.0</ele><time>2026-04-07T13:28:25.328Z</time></trkpt><trkpt lat="40.9981393" lon="9.5710843"><ele>22.0</ele><time>2026-04-07T13:28:26.328Z</time></trkpt><trkpt lat="40.9982273" lon="9.5708651"><ele>21.0</ele><time>2026-04-07T13:28:27.328Z</time></trkpt><trkpt lat="40.9983109" lon="9.5706373"><ele>20.0</ele><time>2026-04-07T13:28:28.328Z</time></trkpt><trkpt lat="40.9983862" lon="9.5703982"><ele>19.0</ele><time>2026-04-07T13:28:29.327Z</time></trkpt><trkpt lat="40.9984475" lon="9.5701535"><ele>19.0</ele><time>2026-04-07T13:28:30.328Z</time></trkpt><trkpt lat="40.9985052" lon="9.5699024"><ele>19.0</ele><time>2026-04-07T13:28:31.328Z</time></trkpt><trkpt lat="40.9985579" lon="9.5696485"><ele>19.0</ele><time>2026-04-07T13:28:32.328Z</time></trkpt><trkpt lat="40.998613" lon="9.569394"><ele>20.0</ele><time>2026-04-07T13:28:33.328Z</time></trkpt><trkpt lat="40.9986668" lon="9.5691328"><ele>21.0</ele><time>2026-04-07T13:28:34.328Z</time></trkpt><trkpt lat="40.998717" lon="9.5688693"><ele>22.0</ele><time>2026-04-07T13:28:35.327Z</time></trkpt><trkpt lat="40.9987634" lon="9.5686029"><ele>23.333333333333332</ele><time>2026-04-07T13:28:36.327Z</time></trkpt><trkpt lat="40.9987952" lon="9.5683309"><ele>24.666666666666664</ele><time>2026-04-07T13:28:37.328Z</time></trkpt><trkpt lat="40.9988163" lon="9.5680563"><ele>26.0</ele><time>2026-04-07T13:28:38.328Z</time></trkpt><trkpt lat="40.9988308" lon="9.5677797"><ele>27.0</ele><time>2026-04-07T13:28:39.328Z</time></trkpt><trkpt lat="40.998841" lon="9.5674949"><ele>28.0</ele><time>2026-04-07T13:28:40.327Z</time></trkpt><trkpt lat="40.9988376" lon="9.5672075"><ele>29.0</ele><time>2026-04-07T13:28:41.328Z</time></trkpt><trkpt lat="40.998823" lon="9.5669144"><ele>29.0</ele><time>2026-04-07T13:28:42.327Z</time></trkpt><trkpt lat="40.9988051" lon="9.5666185"><ele>29.0</ele><time>2026-04-07T13:28:43.328Z</time></trkpt><trkpt lat="40.9987843" lon="9.5663155"><ele>27.666666666666664</ele><time>2026-04-07T13:28:44.328Z</time></trkpt><trkpt lat="40.998764" lon="9.566016"><ele>26.333333333333336</ele><time>2026-04-07T13:28:45.328Z</time></trkpt><trkpt lat="40.9987443" lon="9.5657367"><ele>25.0</ele><time>2026-04-07T13:28:46.328Z</time></trkpt><trkpt lat="40.9987268" lon="9.5654647"><ele>23.666666666666668</ele><time>2026-04-07T13:28:47.327Z</time></trkpt><trkpt lat="40.9987138" lon="9.5652055"><ele>22.333333333333336</ele><time>2026-04-07T13:28:48.328Z</time></trkpt><trkpt lat="40.9987115" lon="9.5649404"><ele>21.0</ele><time>2026-04-07T13:28:49.328Z</time></trkpt><trkpt lat="40.9987288" lon="9.5646755"><ele>20.666666666666668</ele><time>2026-04-07T13:28:50.328Z</time></trkpt><trkpt lat="40.9987528" lon="9.5644071"><ele>20.333333333333336</ele><time>2026-04-07T13:28:51.328Z</time></trkpt><trkpt lat="40.9987768" lon="9.564134"><ele>20.0</ele><time>2026-04-07T13:28:52.328Z</time></trkpt><trkpt lat="40.9988046" lon="9.5638562"><ele>19.333333333333336</ele><time>2026-04-07T13:28:53.328Z</time></trkpt><trkpt lat="40.9988327" lon="9.5635905"><ele>18.666666666666668</ele><time>2026-04-07T13:28:54.327Z</time></trkpt><trkpt lat="40.9988591" lon="9.5633182"><ele>18.0</ele><time>2026-04-07T13:28:55.328Z</time></trkpt><trkpt lat="40.9988887" lon="9.5630484"><ele>18.0</ele><time>2026-04-07T13:28:56.328Z</time></trkpt><trkpt lat="40.9989154" lon="9.5627756"><ele>18.0</ele><time>2026-04-07T13:28:57.328Z</time></trkpt><trkpt lat="40.9989399" lon="9.5625014"><ele>18.0</ele><time>2026-04-07T13:28:58.328Z</time></trkpt><trkpt lat="40.9989486" lon="9.562219"><ele>17.333333333333332</ele><time>2026-04-07T13:28:59.328Z</time></trkpt><trkpt lat="40.9989468" lon="9.5619289"><ele>16.666666666666664</ele><time>2026-04-07T13:29:00.328Z</time></trkpt><trkpt lat="40.9989365" lon="9.5616315"><ele>16.0</ele><time>2026-04-07T13:29:01.328Z</time></trkpt><trkpt lat="40.9989265" lon="9.5613392"><ele>16.0</ele><time>2026-04-07T13:29:02.328Z</time></trkpt><trkpt lat="40.9989225" lon="9.5610501"><ele>16.0</ele><time>2026-04-07T13:29:03.328Z</time></trkpt><trkpt lat="40.998929" lon="9.5607561"><ele>16.0</ele><time>2026-04-07T13:29:04.327Z</time></trkpt><trkpt lat="40.9989408" lon="9.5604578"><ele>16.333333333333332</ele><time>2026-04-07T13:29:05.328Z</time></trkpt><trkpt lat="40.9989591" lon="9.5601627"><ele>16.666666666666668</ele><time>2026-04-07T13:29:06.328Z</time></trkpt><trkpt lat="40.9989832" lon="9.5598734"><ele>17.0</ele><time>2026-04-07T13:29:07.327Z</time></trkpt><trkpt lat="40.9990057" lon="9.5595954"><ele>16.333333333333336</ele><time>2026-04-07T13:29:08.327Z</time></trkpt><trkpt lat="40.9990061" lon="9.5593328"><ele>15.666666666666668</ele><time>2026-04-07T13:29:09.328Z</time></trkpt><trkpt lat="40.9989676" lon="9.5590863"><ele>15.0</ele><time>2026-04-07T13:29:10.328Z</time></trkpt><trkpt lat="40.9988954" lon="9.5588561"><ele>13.666666666666666</ele><time>2026-04-07T13:29:11.328Z</time></trkpt><trkpt lat="40.9988158" lon="9.5586289"><ele>12.333333333333332</ele><time>2026-04-07T13:29:12.328Z</time></trkpt><trkpt lat="40.99874" lon="9.5583983"><ele>11.0</ele><time>2026-04-07T13:29:13.327Z</time></trkpt><trkpt lat="40.9986975" lon="9.5581642"><ele>11.0</ele><time>2026-04-07T13:29:14.328Z</time></trkpt><trkpt lat="40.9986894" lon="9.5579169"><ele>11.0</ele><time>2026-04-07T13:29:15.328Z</time></trkpt><trkpt lat="40.9987041" lon="9.5576648"><ele>11.0</ele><time>2026-04-07T13:29:16.328Z</time></trkpt><trkpt lat="40.9987282" lon="9.5574135"><ele>11.333333333333332</ele><time>2026-04-07T13:29:17.327Z</time></trkpt><trkpt lat="40.9987532" lon="9.5571617"><ele>11.666666666666666</ele><time>2026-04-07T13:29:18.328Z</time></trkpt><trkpt lat="40.9987646" lon="9.5569035"><ele>12.0</ele><time>2026-04-07T13:29:19.327Z</time></trkpt><trkpt lat="40.9987508" lon="9.5566493"><ele>12.666666666666668</ele><time>2026-04-07T13:29:20.328Z</time></trkpt><trkpt lat="40.998724" lon="9.5564148"><ele>13.333333333333334</ele><time>2026-04-07T13:29:21.328Z</time></trkpt><trkpt lat="40.9986978" lon="9.5561829"><ele>14.0</ele><time>2026-04-07T13:29:22.327Z</time></trkpt><trkpt lat="40.9986767" lon="9.555963"><ele>14.0</ele><time>2026-04-07T13:29:23.328Z</time></trkpt><trkpt lat="40.9986741" lon="9.5557394"><ele>14.0</ele><time>2026-04-07T13:29:24.328Z</time></trkpt><trkpt lat="40.9987021" lon="9.5555182"><ele>14.0</ele><time>2026-04-07T13:29:25.327Z</time></trkpt><trkpt lat="40.9987342" lon="9.5552969"><ele>14.0</ele><time>2026-04-07T13:29:26.327Z</time></trkpt><trkpt lat="40.9987667" lon="9.5550723"><ele>14.0</ele><time>2026-04-07T13:29:27.328Z</time></trkpt><trkpt lat="40.998796" lon="9.5548505"><ele>14.0</ele><time>2026-04-07T13:29:28.328Z</time></trkpt><trkpt lat="40.9988122" lon="9.5546259"><ele>13.333333333333334</ele><time>2026-04-07T13:29:29.328Z</time></trkpt><trkpt lat="40.9988243" lon="9.5543958"><ele>12.666666666666668</ele><time>2026-04-07T13:29:30.328Z</time></trkpt><trkpt lat="40.9988349" lon="9.5541616"><ele>12.0</ele><time>2026-04-07T13:29:31.328Z</time></trkpt><trkpt lat="40.9988473" lon="9.5539234"><ele>12.0</ele><time>2026-04-07T13:29:32.327Z</time></trkpt><trkpt lat="40.9988575" lon="9.5536921"><ele>12.0</ele><time>2026-04-07T13:29:33.328Z</time></trkpt><trkpt lat="40.9988681" lon="9.5534664"><ele>12.0</ele><time>2026-04-07T13:29:34.327Z</time></trkpt><trkpt lat="40.9988779" lon="9.5532488"><ele>12.0</ele><time>2026-04-07T13:29:35.327Z</time></trkpt><trkpt lat="40.9988844" lon="9.5530313"><ele>12.0</ele><time>2026-04-07T13:29:36.328Z</time></trkpt><trkpt lat="40.9988794" lon="9.5528116"><ele>12.0</ele><time>2026-04-07T13:29:37.328Z</time></trkpt><trkpt lat="40.9988493" lon="9.5525928"><ele>12.0</ele><time>2026-04-07T13:29:38.327Z</time></trkpt><trkpt lat="40.9987863" lon="9.5523842"><ele>12.0</ele><time>2026-04-07T13:29:39.327Z</time></trkpt><trkpt lat="40.9987055" lon="9.5521863"><ele>12.0</ele><time>2026-04-07T13:29:40.328Z</time></trkpt><trkpt lat="40.9986123" lon="9.551996"><ele>11.333333333333334</ele><time>2026-04-07T13:29:41.328Z</time></trkpt><trkpt lat="40.9985147" lon="9.5518049"><ele>10.666666666666668</ele><time>2026-04-07T13:29:42.328Z</time></trkpt><trkpt lat="40.9984175" lon="9.5516178"><ele>10.0</ele><time>2026-04-07T13:29:43.328Z</time></trkpt><trkpt lat="40.9983189" lon="9.5514324"><ele>11.0</ele><time>2026-04-07T13:29:44.328Z</time></trkpt><trkpt lat="40.9982196" lon="9.5512466"><ele>12.0</ele><time>2026-04-07T13:29:45.328Z</time></trkpt><trkpt lat="40.9981206" lon="9.5510622"><ele>13.0</ele><time>2026-04-07T13:29:46.328Z</time></trkpt><trkpt lat="40.9980253" lon="9.5508714"><ele>13.0</ele><time>2026-04-07T13:29:47.328Z</time></trkpt><trkpt lat="40.9979387" lon="9.5506696"><ele>13.0</ele><time>2026-04-07T13:29:48.327Z</time></trkpt><trkpt lat="40.9978667" lon="9.5504532"><ele>13.0</ele><time>2026-04-07T13:29:49.328Z</time></trkpt><trkpt lat="40.9978074" lon="9.550226"><ele>13.0</ele><time>2026-04-07T13:29:50.327Z</time></trkpt><trkpt lat="40.9977552" lon="9.5499907"><ele>13.0</ele><time>2026-04-07T13:29:51.327Z</time></trkpt><trkpt lat="40.9977058" lon="9.5497599"><ele>13.0</ele><time>2026-04-07T13:29:52.327Z</time></trkpt><trkpt lat="40.9976551" lon="9.5495313"><ele>13.333333333333332</ele><time>2026-04-07T13:29:53.327Z</time></trkpt><trkpt lat="40.9976065" lon="9.5493002"><ele>13.666666666666668</ele><time>2026-04-07T13:29:54.328Z</time></trkpt><trkpt lat="40.9975577" lon="9.5490723"><ele>14.0</ele><time>2026-04-07T13:29:55.328Z</time></trkpt><trkpt lat="40.9975083" lon="9.54884"><ele>15.333333333333334</ele><time>2026-04-07T13:29:56.328Z</time></trkpt><trkpt lat="40.9974581" lon="9.548607"><ele>16.666666666666668</ele><time>2026-04-07T13:29:57.328Z</time></trkpt><trkpt lat="40.9974097" lon="9.5483744"><ele>18.0</ele><time>2026-04-07T13:29:58.327Z</time></trkpt><trkpt lat="40.9973643" lon="9.5481539"><ele>18.0</ele><time>2026-04-07T13:29:59.327Z</time></trkpt><trkpt lat="40.9973193" lon="9.5479463"><ele>18.0</ele><time>2026-04-07T13:30:00.328Z</time></trkpt><trkpt lat="40.9972706" lon="9.5477545"><ele>18.0</ele><time>2026-04-07T13:30:01.327Z</time></trkpt><trkpt lat="40.9972076" lon="9.5475734"><ele>17.75</ele><time>2026-04-07T13:30:02.328Z</time></trkpt><trkpt lat="40.9971387" lon="9.5473977"><ele>17.5</ele><time>2026-04-07T13:30:03.328Z</time></trkpt><trkpt lat="40.9970711" lon="9.5472324"><ele>17.25</ele><time>2026-04-07T13:30:04.328Z</time></trkpt><trkpt lat="40.9970111" lon="9.547074"><ele>17.0</ele><time>2026-04-07T13:30:05.327Z</time></trkpt><trkpt lat="40.9969579" lon="9.5469344"><ele>17.6</ele><time>2026-04-07T13:30:06.328Z</time></trkpt><trkpt lat="40.9969142" lon="9.5468099"><ele>18.2</ele><time>2026-04-07T13:30:07.327Z</time></trkpt><trkpt lat="40.9968846" lon="9.5466816"><ele>18.8</ele><time>2026-04-07T13:30:08.328Z</time></trkpt><trkpt lat="40.9968661" lon="9.5465582"><ele>19.4</ele><time>2026-04-07T13:30:09.327Z</time></trkpt><trkpt lat="40.9968637" lon="9.5464265"><ele>20.0</ele><time>2026-04-07T13:30:10.328Z</time></trkpt><trkpt lat="40.996874" lon="9.5462832"><ele>20.75</ele><time>2026-04-07T13:30:11.328Z</time></trkpt><trkpt lat="40.996903" lon="9.5461341"><ele>21.5</ele><time>2026-04-07T13:30:12.327Z</time></trkpt><trkpt lat="40.9969449" lon="9.5459947"><ele>22.25</ele><time>2026-04-07T13:30:13.328Z</time></trkpt><trkpt lat="40.997002" lon="9.5458649"><ele>23.0</ele><time>2026-04-07T13:30:14.328Z</time></trkpt><trkpt lat="40.9970687" lon="9.5457342"><ele>23.0</ele><time>2026-04-07T13:30:15.328Z</time></trkpt><trkpt lat="40.9971347" lon="9.545607"><ele>23.0</ele><time>2026-04-07T13:30:16.328Z</time></trkpt><trkpt lat="40.9972001" lon="9.5454783"><ele>23.0</ele><time>2026-04-07T13:30:17.327Z</time></trkpt><trkpt lat="40.9972657" lon="9.5453543"><ele>23.0</ele><time>2026-04-07T13:30:18.328Z</time></trkpt><trkpt lat="40.997333" lon="9.5452212"><ele>24.0</ele><time>2026-04-07T13:30:19.328Z</time></trkpt><trkpt lat="40.997399" lon="9.5450825"><ele>25.0</ele><time>2026-04-07T13:30:20.328Z</time></trkpt><trkpt lat="40.9974604" lon="9.5449327"><ele>26.0</ele><time>2026-04-07T13:30:21.328Z</time></trkpt><trkpt lat="40.997512" lon="9.5447832"><ele>27.0</ele><time>2026-04-07T13:30:22.327Z</time></trkpt><trkpt lat="40.9975592" lon="9.5446319"><ele>28.0</ele><time>2026-04-07T13:30:23.328Z</time></trkpt><trkpt lat="40.9976043" lon="9.5444694"><ele>29.0</ele><time>2026-04-07T13:30:24.327Z</time></trkpt><trkpt lat="40.9976401" lon="9.5443066"><ele>30.0</ele><time>2026-04-07T13:30:25.327Z</time></trkpt><trkpt lat="40.9976694" lon="9.5441325"><ele>31.0</ele><time>2026-04-07T13:30:26.328Z</time></trkpt><trkpt lat="40.9976973" lon="9.5439569"><ele>31.0</ele><time>2026-04-07T13:30:27.327Z</time></trkpt><trkpt lat="40.9977098" lon="9.5437795"><ele>31.0</ele><time>2026-04-07T13:30:28.327Z</time></trkpt><trkpt lat="40.9977176" lon="9.5435978"><ele>31.0</ele><time>2026-04-07T13:30:29.328Z</time></trkpt><trkpt lat="40.9977198" lon="9.5434064"><ele>31.0</ele><time>2026-04-07T13:30:30.328Z</time></trkpt><trkpt lat="40.9977146" lon="9.5432128"><ele>32.0</ele><time>2026-04-07T13:30:31.328Z</time></trkpt><trkpt lat="40.9976981" lon="9.5430139"><ele>33.0</ele><time>2026-04-07T13:30:32.328Z</time></trkpt><trkpt lat="40.9976741" lon="9.5428169"><ele>34.0</ele><time>2026-04-07T13:30:33.327Z</time></trkpt><trkpt lat="40.9976456" lon="9.5426318"><ele>35.0</ele><time>2026-04-07T13:30:34.327Z</time></trkpt><trkpt lat="40.9976057" lon="9.5424472"><ele>36.0</ele><time>2026-04-07T13:30:35.328Z</time></trkpt><trkpt lat="40.997562" lon="9.542262"><ele>37.0</ele><time>2026-04-07T13:30:36.328Z</time></trkpt><trkpt lat="40.9975147" lon="9.5420737"><ele>38.0</ele><time>2026-04-07T13:30:37.328Z</time></trkpt><trkpt lat="40.9974691" lon="9.5418835"><ele>39.0</ele><time>2026-04-07T13:30:38.328Z</time></trkpt><trkpt lat="40.9974243" lon="9.5416939"><ele>40.25</ele><time>2026-04-07T13:30:39.328Z</time></trkpt><trkpt lat="40.9973799" lon="9.5415122"><ele>41.5</ele><time>2026-04-07T13:30:40.328Z</time></trkpt><trkpt lat="40.9973346" lon="9.5413262"><ele>42.75</ele><time>2026-04-07T13:30:41.328Z</time></trkpt><trkpt lat="40.9972909" lon="9.5411546"><ele>44.0</ele><time>2026-04-07T13:30:42.328Z</time></trkpt><trkpt lat="40.99725" lon="9.5409817"><ele>45.25</ele><time>2026-04-07T13:30:43.327Z</time></trkpt><trkpt lat="40.9972109" lon="9.5408093"><ele>46.5</ele><time>2026-04-07T13:30:44.327Z</time></trkpt><trkpt lat="40.9971709" lon="9.5406364"><ele>47.75</ele><time>2026-04-07T13:30:45.328Z</time></trkpt><trkpt lat="40.9971364" lon="9.5404588"><ele>49.0</ele><time>2026-04-07T13:30:46.328Z</time></trkpt><trkpt lat="40.9971123" lon="9.5402823"><ele>49.75</ele><time>2026-04-07T13:30:47.327Z</time></trkpt><trkpt lat="40.9970915" lon="9.5400962"><ele>50.5</ele><time>2026-04-07T13:30:48.327Z</time></trkpt><trkpt lat="40.9970782" lon="9.539907"><ele>51.25</ele><time>2026-04-07T13:30:49.328Z</time></trkpt><trkpt lat="40.997069" lon="9.5397155"><ele>52.0</ele><time>2026-04-07T13:30:50.328Z</time></trkpt><trkpt lat="40.9970704" lon="9.5395225"><ele>52.0</ele><time>2026-04-07T13:30:51.327Z</time></trkpt><trkpt lat="40.9970819" lon="9.5393278"><ele>52.0</ele><time>2026-04-07T13:30:52.327Z</time></trkpt><trkpt lat="40.9971029" lon="9.5391283"><ele>52.0</ele><time>2026-04-07T13:30:53.328Z</time></trkpt><trkpt lat="40.9971331" lon="9.5389263"><ele>52.0</ele><time>2026-04-07T13:30:54.328Z</time></trkpt><trkpt lat="40.9971759" lon="9.5387281"><ele>52.0</ele><time>2026-04-07T13:30:55.328Z</time></trkpt><trkpt lat="40.9972313" lon="9.538528"><ele>52.0</ele><time>2026-04-07T13:30:56.328Z</time></trkpt><trkpt lat="40.9972887" lon="9.5383246"><ele>52.0</ele><time>2026-04-07T13:30:57.328Z</time></trkpt><trkpt lat="40.9973483" lon="9.5381222"><ele>52.0</ele><time>2026-04-07T13:30:58.328Z</time></trkpt><trkpt lat="40.9974007" lon="9.5379332"><ele>52.0</ele><time>2026-04-07T13:30:59.328Z</time></trkpt><trkpt lat="40.9974498" lon="9.5377494"><ele>52.25</ele><time>2026-04-07T13:31:00.327Z</time></trkpt><trkpt lat="40.9975018" lon="9.5375639"><ele>52.5</ele><time>2026-04-07T13:31:01.327Z</time></trkpt><trkpt lat="40.9975527" lon="9.5373763"><ele>52.75</ele><time>2026-04-07T13:31:02.328Z</time></trkpt><trkpt lat="40.9976025" lon="9.5371895"><ele>53.0</ele><time>2026-04-07T13:31:03.327Z</time></trkpt><trkpt lat="40.9976585" lon="9.5370033"><ele>53.333333333333336</ele><time>2026-04-07T13:31:04.328Z</time></trkpt><trkpt lat="40.9977167" lon="9.5368179"><ele>53.66666666666667</ele><time>2026-04-07T13:31:05.328Z</time></trkpt><trkpt lat="40.9977712" lon="9.536625"><ele>54.0</ele><time>2026-04-07T13:31:06.328Z</time></trkpt><trkpt lat="40.9978249" lon="9.5364287"><ele>54.0</ele><time>2026-04-07T13:31:07.328Z</time></trkpt><trkpt lat="40.997883" lon="9.5362258"><ele>54.0</ele><time>2026-04-07T13:31:08.328Z</time></trkpt><trkpt lat="40.9979411" lon="9.5360239"><ele>54.0</ele><time>2026-04-07T13:31:09.327Z</time></trkpt><trkpt lat="40.9979933" lon="9.5358293"><ele>54.0</ele><time>2026-04-07T13:31:10.328Z</time></trkpt><trkpt lat="40.9980481" lon="9.5356378"><ele>54.0</ele><time>2026-04-07T13:31:11.327Z</time></trkpt><trkpt lat="40.9981038" lon="9.5354407"><ele>54.0</ele><time>2026-04-07T13:31:12.328Z</time></trkpt><trkpt lat="40.9981594" lon="9.5352377"><ele>54.0</ele><time>2026-04-07T13:31:13.327Z</time></trkpt><trkpt lat="40.9982176" lon="9.535033"><ele>54.0</ele><time>2026-04-07T13:31:14.328Z</time></trkpt><trkpt lat="40.9982748" lon="9.5348245"><ele>54.0</ele><time>2026-04-07T13:31:15.328Z</time></trkpt><trkpt lat="40.9983318" lon="9.5346221"><ele>53.0</ele><time>2026-04-07T13:31:16.328Z</time></trkpt><trkpt lat="40.9983888" lon="9.5344134"><ele>52.0</ele><time>2026-04-07T13:31:17.328Z</time></trkpt><trkpt lat="40.9984469" lon="9.5342117"><ele>51.0</ele><time>2026-04-07T13:31:18.328Z</time></trkpt><trkpt lat="40.9984999" lon="9.5340118"><ele>51.0</ele><time>2026-04-07T13:31:19.328Z</time></trkpt><trkpt lat="40.9985546" lon="9.5338136"><ele>51.0</ele><time>2026-04-07T13:31:20.328Z</time></trkpt><trkpt lat="40.998606" lon="9.5336279"><ele>51.0</ele><time>2026-04-07T13:31:21.327Z</time></trkpt><trkpt lat="40.998651" lon="9.5334556"><ele>51.0</ele><time>2026-04-07T13:31:22.328Z</time></trkpt><trkpt lat="40.998693" lon="9.5333076"><ele>51.199999999999996</ele><time>2026-04-07T13:31:23.328Z</time></trkpt><trkpt lat="40.9987286" lon="9.5331707"><ele>51.4</ele><time>2026-04-07T13:31:24.328Z</time></trkpt><trkpt lat="40.9987637" lon="9.5330381"><ele>51.6</ele><time>2026-04-07T13:31:25.328Z</time></trkpt><trkpt lat="40.9988021" lon="9.5329133"><ele>51.8</ele><time>2026-04-07T13:31:26.328Z</time></trkpt><trkpt lat="40.9988507" lon="9.5327987"><ele>52.0</ele><time>2026-04-07T13:31:27.327Z</time></trkpt><trkpt lat="40.9989126" lon="9.5327148"><ele>51.99999999999999</ele><time>2026-04-07T13:31:28.328Z</time></trkpt><trkpt lat="40.9989823" lon="9.5326455"><ele>52.0</ele><time>2026-04-07T13:31:29.328Z</time></trkpt><trkpt lat="40.9990316" lon="9.532562"><ele>52.0</ele><time>2026-04-07T13:31:30.328Z</time></trkpt><trkpt lat="40.9990561" lon="9.5324769"><ele>52.0</ele><time>2026-04-07T13:31:31.328Z</time></trkpt><trkpt lat="40.9990598" lon="9.5323855"><ele>51.99999999999999</ele><time>2026-04-07T13:31:32.327Z</time></trkpt><trkpt lat="40.9990612" lon="9.5322917"><ele>52.0</ele><time>2026-04-07T13:31:33.327Z</time></trkpt><trkpt lat="40.9990663" lon="9.5321901"><ele>52.0</ele><time>2026-04-07T13:31:34.328Z</time></trkpt><trkpt lat="40.9990739" lon="9.5320677"><ele>52.0</ele><time>2026-04-07T13:31:35.328Z</time></trkpt><trkpt lat="40.9990922" lon="9.5319454"><ele>52.0</ele><time>2026-04-07T13:31:36.328Z</time></trkpt><trkpt lat="40.9991147" lon="9.5318187"><ele>52.0</ele><time>2026-04-07T13:31:37.327Z</time></trkpt><trkpt lat="40.9991362" lon="9.5316958"><ele>52.0</ele><time>2026-04-07T13:31:38.328Z</time></trkpt><trkpt lat="40.9991564" lon="9.5315741"><ele>51.8</ele><time>2026-04-07T13:31:39.328Z</time></trkpt><trkpt lat="40.9991768" lon="9.5314485"><ele>51.6</ele><time>2026-04-07T13:31:40.328Z</time></trkpt><trkpt lat="40.9991916" lon="9.5313145"><ele>51.4</ele><time>2026-04-07T13:31:41.328Z</time></trkpt><trkpt lat="40.9992015" lon="9.5311732"><ele>51.199999999999996</ele><time>2026-04-07T13:31:42.328Z</time></trkpt><trkpt lat="40.9992122" lon="9.5310132"><ele>51.0</ele><time>2026-04-07T13:31:43.328Z</time></trkpt><trkpt lat="40.9992133" lon="9.5308427"><ele>51.0</ele><time>2026-04-07T13:31:44.328Z</time></trkpt><trkpt lat="40.9992045" lon="9.5306611"><ele>51.0</ele><time>2026-04-07T13:31:45.328Z</time></trkpt><trkpt lat="40.9991841" lon="9.5304697"><ele>51.0</ele><time>2026-04-07T13:31:46.328Z</time></trkpt><trkpt lat="40.9991607" lon="9.530274"><ele>51.0</ele><time>2026-04-07T13:31:47.327Z</time></trkpt><trkpt lat="40.9991356" lon="9.5300924"><ele>50.5</ele><time>2026-04-07T13:31:48.328Z</time></trkpt><trkpt lat="40.9991082" lon="9.5299276"><ele>50.0</ele><time>2026-04-07T13:31:49.328Z</time></trkpt><trkpt lat="40.9990809" lon="9.529776"><ele>49.5</ele><time>2026-04-07T13:31:50.328Z</time></trkpt><trkpt lat="40.9990556" lon="9.5296294"><ele>49.0</ele><time>2026-04-07T13:31:51.327Z</time></trkpt><trkpt lat="40.999033" lon="9.5294961"><ele>49.0</ele><time>2026-04-07T13:31:52.328Z</time></trkpt><trkpt lat="40.9990153" lon="9.5293791"><ele>49.0</ele><time>2026-04-07T13:31:53.328Z</time></trkpt><trkpt lat="40.9989972" lon="9.5292717"><ele>49.0</ele><time>2026-04-07T13:31:54.328Z</time></trkpt><trkpt lat="40.9989771" lon="9.5291737"><ele>49.0</ele><time>2026-04-07T13:31:55.328Z</time></trkpt><trkpt lat="40.9989225" lon="9.5290349"><ele>49.0</ele><time>2026-04-07T13:31:57.327Z</time></trkpt><trkpt lat="40.9988386" lon="9.5289504"><ele>48.99999999999999</ele><time>2026-04-07T13:31:59.328Z</time></trkpt><trkpt lat="40.9987758" lon="9.5288839"><ele>49.0</ele><time>2026-04-07T13:32:01.327Z</time></trkpt><trkpt lat="40.9987609" lon="9.5287903"><ele>49.0</ele><time>2026-04-07T13:32:03.328Z</time></trkpt><trkpt lat="40.9987432" lon="9.5286758"><ele>49.0</ele><time>2026-04-07T13:32:06.328Z</time></trkpt><trkpt lat="40.9987045" lon="9.5285847"><ele>48.99999999999999</ele><time>2026-04-07T13:32:09.327Z</time></trkpt><trkpt lat="40.9986275" lon="9.528619"><ele>49.0</ele><time>2026-04-07T13:32:12.327Z</time></trkpt><trkpt lat="40.9986506" lon="9.5287126"><ele>49.0</ele><time>2026-04-07T13:32:16.328Z</time></trkpt><trkpt lat="40.9986951" lon="9.5287784"><ele>49.0</ele><time>2026-04-07T13:32:21.328Z</time></trkpt><trkpt lat="40.9986688" lon="9.5288608"><ele>49.0</ele><time>2026-04-07T13:39:02.328Z</time></trkpt><trkpt lat="40.9986689" lon="9.528962"><ele>49.0</ele><time>2026-04-07T13:39:05.328Z</time></trkpt><trkpt lat="40.9987357" lon="9.5289956"><ele>49.0</ele><time>2026-04-07T13:39:07.327Z</time></trkpt><trkpt lat="40.9988088" lon="9.5289859"><ele>49.0</ele><time>2026-04-07T13:39:09.328Z</time></trkpt><trkpt lat="40.9988775" lon="9.5289401"><ele>49.0</ele><time>2026-04-07T13:39:12.327Z</time></trkpt><trkpt lat="40.9989108" lon="9.5288318"><ele>48.99999999999999</ele><time>2026-04-07T13:39:14.328Z</time></trkpt><trkpt lat="40.9989124" lon="9.5287457"><ele>49.0</ele><time>2026-04-07T13:39:15.328Z</time></trkpt><trkpt lat="40.9989021" lon="9.5286468"><ele>49.0</ele><time>2026-04-07T13:39:16.328Z</time></trkpt><trkpt lat="40.9988891" lon="9.5285329"><ele>49.0</ele><time>2026-04-07T13:39:17.328Z</time></trkpt><trkpt lat="40.9988707" lon="9.528415"><ele>48.99999999999999</ele><time>2026-04-07T13:39:18.328Z</time></trkpt><trkpt lat="40.9988508" lon="9.5282909"><ele>49.0</ele><time>2026-04-07T13:39:19.327Z</time></trkpt><trkpt lat="40.9988281" lon="9.5281645"><ele>49.0</ele><time>2026-04-07T13:39:20.327Z</time></trkpt><trkpt lat="40.9988037" lon="9.5280314"><ele>49.0</ele><time>2026-04-07T13:39:21.328Z</time></trkpt><trkpt lat="40.9987831" lon="9.527891"><ele>49.0</ele><time>2026-04-07T13:39:22.328Z</time></trkpt><trkpt lat="40.9987595" lon="9.5277485"><ele>49.0</ele><time>2026-04-07T13:39:23.327Z</time></trkpt><trkpt lat="40.9987325" lon="9.5276062"><ele>49.0</ele><time>2026-04-07T13:39:24.328Z</time></trkpt><trkpt lat="40.9987045" lon="9.5274548"><ele>49.5</ele><time>2026-04-07T13:39:25.328Z</time></trkpt><trkpt lat="40.9986804" lon="9.5273071"><ele>50.0</ele><time>2026-04-07T13:39:26.327Z</time></trkpt><trkpt lat="40.9986535" lon="9.5271539"><ele>50.5</ele><time>2026-04-07T13:39:27.328Z</time></trkpt><trkpt lat="40.9986278" lon="9.5269988"><ele>51.0</ele><time>2026-04-07T13:39:28.328Z</time></trkpt><trkpt lat="40.998598" lon="9.5268464"><ele>53.0</ele><time>2026-04-07T13:39:29.327Z</time></trkpt><trkpt lat="40.9985675" lon="9.5266932"><ele>55.0</ele><time>2026-04-07T13:39:30.328Z</time></trkpt><trkpt lat="40.9985335" lon="9.5265362"><ele>57.0</ele><time>2026-04-07T13:39:31.328Z</time></trkpt><trkpt lat="40.9984948" lon="9.5263794"><ele>59.0</ele><time>2026-04-07T13:39:32.327Z</time></trkpt><trkpt lat="40.998453" lon="9.5262234"><ele>59.75</ele><time>2026-04-07T13:39:33.328Z</time></trkpt><trkpt lat="40.9984057" lon="9.5260589"><ele>60.5</ele><time>2026-04-07T13:39:34.328Z</time></trkpt><trkpt lat="40.9983525" lon="9.5259061"><ele>61.25</ele><time>2026-04-07T13:39:35.328Z</time></trkpt><trkpt lat="40.9982939" lon="9.5257518"><ele>62.0</ele><time>2026-04-07T13:39:36.327Z</time></trkpt><trkpt lat="40.9982327" lon="9.5255987"><ele>62.0</ele><time>2026-04-07T13:39:37.328Z</time></trkpt><trkpt lat="40.9981682" lon="9.5254437"><ele>62.0</ele><time>2026-04-07T13:39:38.328Z</time></trkpt><trkpt lat="40.9981062" lon="9.525283"><ele>62.0</ele><time>2026-04-07T13:39:39.327Z</time></trkpt><trkpt lat="40.9980414" lon="9.5251196"><ele>62.0</ele><time>2026-04-07T13:39:40.327Z</time></trkpt><trkpt lat="40.9979769" lon="9.5249528"><ele>62.25</ele><time>2026-04-07T13:39:41.328Z</time></trkpt><trkpt lat="40.997906" lon="9.5247891"><ele>62.5</ele><time>2026-04-07T13:39:42.327Z</time></trkpt><trkpt lat="40.9978356" lon="9.5246159"><ele>62.75</ele><time>2026-04-07T13:39:43.327Z</time></trkpt><trkpt lat="40.9977611" lon="9.5244403"><ele>63.0</ele><time>2026-04-07T13:39:44.328Z</time></trkpt><trkpt lat="40.9976851" lon="9.5242574"><ele>65.33333333333333</ele><time>2026-04-07T13:39:45.328Z</time></trkpt><trkpt lat="40.9976082" lon="9.5240706"><ele>67.66666666666666</ele><time>2026-04-07T13:39:46.328Z</time></trkpt><trkpt lat="40.9975337" lon="9.5238791"><ele>70.0</ele><time>2026-04-07T13:39:47.328Z</time></trkpt><trkpt lat="40.9974582" lon="9.5236895"><ele>70.66666666666666</ele><time>2026-04-07T13:39:48.328Z</time></trkpt><trkpt lat="40.9973785" lon="9.523495"><ele>71.33333333333333</ele><time>2026-04-07T13:39:49.328Z</time></trkpt><trkpt lat="40.9972993" lon="9.5233041"><ele>72.0</ele><time>2026-04-07T13:39:50.327Z</time></trkpt><trkpt lat="40.9972265" lon="9.5231137"><ele>72.0</ele><time>2026-04-07T13:39:51.328Z</time></trkpt><trkpt lat="40.9971557" lon="9.5229228"><ele>72.0</ele><time>2026-04-07T13:39:52.328Z</time></trkpt><trkpt lat="40.9970865" lon="9.5227387"><ele>72.0</ele><time>2026-04-07T13:39:53.328Z</time></trkpt><trkpt lat="40.9970206" lon="9.5225609"><ele>72.5</ele><time>2026-04-07T13:39:54.328Z</time></trkpt><trkpt lat="40.9969632" lon="9.5223879"><ele>73.0</ele><time>2026-04-07T13:39:55.327Z</time></trkpt><trkpt lat="40.996908" lon="9.5222073"><ele>73.5</ele><time>2026-04-07T13:39:56.327Z</time></trkpt><trkpt lat="40.9968566" lon="9.522013"><ele>74.0</ele><time>2026-04-07T13:39:57.328Z</time></trkpt><trkpt lat="40.9968085" lon="9.5218088"><ele>74.0</ele><time>2026-04-07T13:39:58.327Z</time></trkpt><trkpt lat="40.9967587" lon="9.521599"><ele>74.0</ele><time>2026-04-07T13:39:59.327Z</time></trkpt><trkpt lat="40.9967049" lon="9.521379"><ele>74.0</ele><time>2026-04-07T13:40:00.328Z</time></trkpt><trkpt lat="40.996651" lon="9.5211528"><ele>75.33333333333334</ele><time>2026-04-07T13:40:01.328Z</time></trkpt><trkpt lat="40.9965946" lon="9.5209176"><ele>76.66666666666667</ele><time>2026-04-07T13:40:02.328Z</time></trkpt><trkpt lat="40.996539" lon="9.5206758"><ele>78.0</ele><time>2026-04-07T13:40:03.327Z</time></trkpt><trkpt lat="40.9964823" lon="9.5204322"><ele>77.0</ele><time>2026-04-07T13:40:04.328Z</time></trkpt><trkpt lat="40.9964239" lon="9.5201849"><ele>76.0</ele><time>2026-04-07T13:40:05.327Z</time></trkpt><trkpt lat="40.996366" lon="9.5199392"><ele>75.0</ele><time>2026-04-07T13:40:06.328Z</time></trkpt><trkpt lat="40.9963122" lon="9.519705"><ele>77.0</ele><time>2026-04-07T13:40:07.327Z</time></trkpt><trkpt lat="40.9962543" lon="9.5194665"><ele>79.0</ele><time>2026-04-07T13:40:08.328Z</time></trkpt><trkpt lat="40.9961963" lon="9.5192172"><ele>81.0</ele><time>2026-04-07T13:40:09.328Z</time></trkpt><trkpt lat="40.9961366" lon="9.5189674"><ele>81.66666666666667</ele><time>2026-04-07T13:40:10.328Z</time></trkpt><trkpt lat="40.9960782" lon="9.5187114"><ele>82.33333333333334</ele><time>2026-04-07T13:40:11.328Z</time></trkpt><trkpt lat="40.9960227" lon="9.5184542"><ele>83.0</ele><time>2026-04-07T13:40:12.328Z</time></trkpt><trkpt lat="40.9959622" lon="9.5181933"><ele>83.0</ele><time>2026-04-07T13:40:13.327Z</time></trkpt><trkpt lat="40.9958958" lon="9.5179334"><ele>83.0</ele><time>2026-04-07T13:40:14.328Z</time></trkpt><trkpt lat="40.9958254" lon="9.5176673"><ele>83.0</ele><time>2026-04-07T13:40:15.328Z</time></trkpt><trkpt lat="40.9957469" lon="9.5174093"><ele>81.33333333333334</ele><time>2026-04-07T13:40:16.328Z</time></trkpt><trkpt lat="40.9956597" lon="9.5171531"><ele>79.66666666666667</ele><time>2026-04-07T13:40:17.327Z</time></trkpt><trkpt lat="40.9955743" lon="9.5168915"><ele>78.0</ele><time>2026-04-07T13:40:18.328Z</time></trkpt><trkpt lat="40.9954862" lon="9.5166328"><ele>77.0</ele><time>2026-04-07T13:40:19.328Z</time></trkpt><trkpt lat="40.9954026" lon="9.5163766"><ele>76.0</ele><time>2026-04-07T13:40:20.328Z</time></trkpt><trkpt lat="40.9953213" lon="9.5161234"><ele>75.0</ele><time>2026-04-07T13:40:21.328Z</time></trkpt><trkpt lat="40.9952387" lon="9.515875"><ele>74.0</ele><time>2026-04-07T13:40:22.328Z</time></trkpt><trkpt lat="40.9951524" lon="9.5156217"><ele>73.0</ele><time>2026-04-07T13:40:23.327Z</time></trkpt><trkpt lat="40.9950705" lon="9.5153756"><ele>72.0</ele><time>2026-04-07T13:40:24.328Z</time></trkpt><trkpt lat="40.9949905" lon="9.5151351"><ele>71.33333333333333</ele><time>2026-04-07T13:40:25.327Z</time></trkpt><trkpt lat="40.9949126" lon="9.5148975"><ele>70.66666666666666</ele><time>2026-04-07T13:40:26.327Z</time></trkpt><trkpt lat="40.9948318" lon="9.5146555"><ele>70.0</ele><time>2026-04-07T13:40:27.328Z</time></trkpt><trkpt lat="40.9947495" lon="9.5144098"><ele>70.0</ele><time>2026-04-07T13:40:28.327Z</time></trkpt><trkpt lat="40.9946646" lon="9.5141591"><ele>70.0</ele><time>2026-04-07T13:40:29.328Z</time></trkpt><trkpt lat="40.9945777" lon="9.5139052"><ele>70.0</ele><time>2026-04-07T13:40:30.328Z</time></trkpt><trkpt lat="40.9944912" lon="9.5136495"><ele>69.66666666666666</ele><time>2026-04-07T13:40:31.328Z</time></trkpt><trkpt lat="40.9944049" lon="9.5133893"><ele>69.33333333333333</ele><time>2026-04-07T13:40:32.328Z</time></trkpt><trkpt lat="40.9943178" lon="9.5131293"><ele>69.0</ele><time>2026-04-07T13:40:33.328Z</time></trkpt><trkpt lat="40.9942317" lon="9.5128778"><ele>65.66666666666667</ele><time>2026-04-07T13:40:34.327Z</time></trkpt><trkpt lat="40.9941479" lon="9.512637"><ele>62.333333333333336</ele><time>2026-04-07T13:40:35.327Z</time></trkpt><trkpt lat="40.9940687" lon="9.5123989"><ele>59.0</ele><time>2026-04-07T13:40:36.328Z</time></trkpt><trkpt lat="40.9939922" lon="9.5121627"><ele>58.0</ele><time>2026-04-07T13:40:37.327Z</time></trkpt><trkpt lat="40.9939132" lon="9.5119268"><ele>57.0</ele><time>2026-04-07T13:40:38.328Z</time></trkpt><trkpt lat="40.9938328" lon="9.5116867"><ele>56.0</ele><time>2026-04-07T13:40:39.327Z</time></trkpt><trkpt lat="40.9937497" lon="9.5114427"><ele>54.66666666666667</ele><time>2026-04-07T13:40:40.327Z</time></trkpt><trkpt lat="40.9936579" lon="9.5112012"><ele>53.33333333333333</ele><time>2026-04-07T13:40:41.328Z</time></trkpt><trkpt lat="40.9935506" lon="9.510968"><ele>52.0</ele><time>2026-04-07T13:40:42.328Z</time></trkpt><trkpt lat="40.9934318" lon="9.5107368"><ele>51.666666666666664</ele><time>2026-04-07T13:40:43.328Z</time></trkpt><trkpt lat="40.9932963" lon="9.510514"><ele>51.33333333333333</ele><time>2026-04-07T13:40:44.328Z</time></trkpt><trkpt lat="40.9931546" lon="9.5103022"><ele>51.0</ele><time>2026-04-07T13:40:45.328Z</time></trkpt><trkpt lat="40.9930052" lon="9.5100935"><ele>50.33333333333333</ele><time>2026-04-07T13:40:46.327Z</time></trkpt><trkpt lat="40.9928573" lon="9.5098867"><ele>49.666666666666664</ele><time>2026-04-07T13:40:47.328Z</time></trkpt><trkpt lat="40.9927119" lon="9.509685"><ele>49.0</ele><time>2026-04-07T13:40:48.328Z</time></trkpt><trkpt lat="40.9925701" lon="9.5094933"><ele>46.0</ele><time>2026-04-07T13:40:49.328Z</time></trkpt><trkpt lat="40.9924325" lon="9.5093083"><ele>43.0</ele><time>2026-04-07T13:40:50.328Z</time></trkpt><trkpt lat="40.9923015" lon="9.509127"><ele>40.0</ele><time>2026-04-07T13:40:51.327Z</time></trkpt><trkpt lat="40.9921658" lon="9.5089451"><ele>40.0</ele><time>2026-04-07T13:40:52.328Z</time></trkpt><trkpt lat="40.9920318" lon="9.5087647"><ele>40.0</ele><time>2026-04-07T13:40:53.328Z</time></trkpt><trkpt lat="40.9918997" lon="9.5085817"><ele>40.0</ele><time>2026-04-07T13:40:54.328Z</time></trkpt><trkpt lat="40.9917727" lon="9.5083961"><ele>39.66666666666667</ele><time>2026-04-07T13:40:55.328Z</time></trkpt><trkpt lat="40.9916494" lon="9.5082084"><ele>39.333333333333336</ele><time>2026-04-07T13:40:56.328Z</time></trkpt><trkpt lat="40.9915375" lon="9.5080049"><ele>39.0</ele><time>2026-04-07T13:40:57.327Z</time></trkpt><trkpt lat="40.9914428" lon="9.5077912"><ele>36.333333333333336</ele><time>2026-04-07T13:40:58.328Z</time></trkpt><trkpt lat="40.9913573" lon="9.5075692"><ele>33.66666666666667</ele><time>2026-04-07T13:40:59.327Z</time></trkpt><trkpt lat="40.9912837" lon="9.507346"><ele>31.0</ele><time>2026-04-07T13:41:00.327Z</time></trkpt><trkpt lat="40.9912217" lon="9.5071234"><ele>30.0</ele><time>2026-04-07T13:41:01.328Z</time></trkpt><trkpt lat="40.9911784" lon="9.506897"><ele>29.0</ele><time>2026-04-07T13:41:02.327Z</time></trkpt><trkpt lat="40.9911477" lon="9.5066675"><ele>28.0</ele><time>2026-04-07T13:41:03.328Z</time></trkpt><trkpt lat="40.991131" lon="9.5064353"><ele>27.666666666666668</ele><time>2026-04-07T13:41:04.328Z</time></trkpt><trkpt lat="40.9911249" lon="9.5061978"><ele>27.333333333333336</ele><time>2026-04-07T13:41:05.328Z</time></trkpt><trkpt lat="40.9911224" lon="9.5059569"><ele>27.0</ele><time>2026-04-07T13:41:06.327Z</time></trkpt><trkpt lat="40.9911248" lon="9.5057145"><ele>27.0</ele><time>2026-04-07T13:41:07.328Z</time></trkpt><trkpt lat="40.991131" lon="9.5054658"><ele>27.0</ele><time>2026-04-07T13:41:08.328Z</time></trkpt><trkpt lat="40.991131" lon="9.5052118"><ele>27.0</ele><time>2026-04-07T13:41:09.327Z</time></trkpt><trkpt lat="40.9911321" lon="9.5049505"><ele>26.333333333333336</ele><time>2026-04-07T13:41:10.327Z</time></trkpt><trkpt lat="40.9911356" lon="9.5046987"><ele>25.666666666666668</ele><time>2026-04-07T13:41:11.327Z</time></trkpt><trkpt lat="40.9911421" lon="9.504446"><ele>25.0</ele><time>2026-04-07T13:41:12.328Z</time></trkpt><trkpt lat="40.9911478" lon="9.504198"><ele>23.666666666666668</ele><time>2026-04-07T13:41:13.327Z</time></trkpt><trkpt lat="40.9911498" lon="9.5039469"><ele>22.333333333333336</ele><time>2026-04-07T13:41:14.328Z</time></trkpt><trkpt lat="40.9911557" lon="9.5036995"><ele>21.0</ele><time>2026-04-07T13:41:15.328Z</time></trkpt><trkpt lat="40.9911617" lon="9.503452"><ele>19.666666666666668</ele><time>2026-04-07T13:41:16.328Z</time></trkpt><trkpt lat="40.9911674" lon="9.5032097"><ele>18.333333333333336</ele><time>2026-04-07T13:41:17.328Z</time></trkpt><trkpt lat="40.9911733" lon="9.5029666"><ele>17.0</ele><time>2026-04-07T13:41:18.327Z</time></trkpt><trkpt lat="40.991178" lon="9.5027246"><ele>16.333333333333336</ele><time>2026-04-07T13:41:19.328Z</time></trkpt><trkpt lat="40.9911827" lon="9.502484"><ele>15.666666666666668</ele><time>2026-04-07T13:41:20.327Z</time></trkpt><trkpt lat="40.991192" lon="9.5022492"><ele>15.0</ele><time>2026-04-07T13:41:21.328Z</time></trkpt><trkpt lat="40.9911943" lon="9.5020191"><ele>14.333333333333332</ele><time>2026-04-07T13:41:22.328Z</time></trkpt><trkpt lat="40.9911974" lon="9.5017943"><ele>13.666666666666666</ele><time>2026-04-07T13:41:23.327Z</time></trkpt><trkpt lat="40.9912033" lon="9.5015805"><ele>13.0</ele><time>2026-04-07T13:41:24.327Z</time></trkpt><trkpt lat="40.9912058" lon="9.50138"><ele>13.0</ele><time>2026-04-07T13:41:25.328Z</time></trkpt><trkpt lat="40.9912146" lon="9.5011909"><ele>13.0</ele><time>2026-04-07T13:41:26.328Z</time></trkpt><trkpt lat="40.9912396" lon="9.50102"><ele>13.0</ele><time>2026-04-07T13:41:27.327Z</time></trkpt><trkpt lat="40.9912792" lon="9.500872"><ele>13.0</ele><time>2026-04-07T13:41:28.328Z</time></trkpt><trkpt lat="40.9913301" lon="9.5007497"><ele>12.999999999999998</ele><time>2026-04-07T13:41:29.327Z</time></trkpt><trkpt lat="40.9913948" lon="9.5006582"><ele>13.0</ele><time>2026-04-07T13:41:30.327Z</time></trkpt><trkpt lat="40.9914589" lon="9.5005963"><ele>13.0</ele><time>2026-04-07T13:41:31.328Z</time></trkpt><trkpt lat="40.9915401" lon="9.5005522"><ele>13.0</ele><time>2026-04-07T13:41:33.327Z</time></trkpt><trkpt lat="40.9916034" lon="9.500534"><ele>12.999999999999998</ele><time>2026-04-07T13:41:35.328Z</time></trkpt><trkpt lat="40.9916815" lon="9.5005183"><ele>13.0</ele><time>2026-04-07T13:41:37.328Z</time></trkpt><trkpt lat="40.9917509" lon="9.5005081"><ele>12.5</ele><time>2026-04-07T13:41:38.327Z</time></trkpt><trkpt lat="40.9918486" lon="9.5004887"><ele>12.0</ele><time>2026-04-07T13:41:39.328Z</time></trkpt><trkpt lat="40.9919665" lon="9.5004707"><ele>11.5</ele><time>2026-04-07T13:41:40.328Z</time></trkpt><trkpt lat="40.9921081" lon="9.5004497"><ele>11.0</ele><time>2026-04-07T13:41:41.328Z</time></trkpt><trkpt lat="40.9922671" lon="9.5004281"><ele>12.333333333333332</ele><time>2026-04-07T13:41:42.328Z</time></trkpt><trkpt lat="40.9924389" lon="9.5004046"><ele>13.666666666666666</ele><time>2026-04-07T13:41:43.327Z</time></trkpt><trkpt lat="40.992626" lon="9.5003854"><ele>15.0</ele><time>2026-04-07T13:41:44.328Z</time></trkpt><trkpt lat="40.9928213" lon="9.5004045"><ele>14.666666666666668</ele><time>2026-04-07T13:41:45.328Z</time></trkpt><trkpt lat="40.993011" lon="9.5004828"><ele>14.333333333333334</ele><time>2026-04-07T13:41:46.328Z</time></trkpt><trkpt lat="40.9931778" lon="9.5005939"><ele>14.0</ele><time>2026-04-07T13:41:47.328Z</time></trkpt><trkpt lat="40.9933219" lon="9.5007558"><ele>14.666666666666668</ele><time>2026-04-07T13:41:48.328Z</time></trkpt><trkpt lat="40.9934537" lon="9.5009582"><ele>15.333333333333332</ele><time>2026-04-07T13:41:49.328Z</time></trkpt><trkpt lat="40.9935748" lon="9.5011742"><ele>16.0</ele><time>2026-04-07T13:41:50.328Z</time></trkpt><trkpt lat="40.9937018" lon="9.5013981"><ele>14.666666666666666</ele><time>2026-04-07T13:41:51.327Z</time></trkpt><trkpt lat="40.9938443" lon="9.5016169"><ele>13.333333333333332</ele><time>2026-04-07T13:41:52.328Z</time></trkpt><trkpt lat="40.9939912" lon="9.5018147"><ele>12.0</ele><time>2026-04-07T13:41:53.328Z</time></trkpt><trkpt lat="40.9941321" lon="9.5019986"><ele>12.0</ele><time>2026-04-07T13:41:54.327Z</time></trkpt><trkpt lat="40.9942712" lon="9.5021766"><ele>12.0</ele><time>2026-04-07T13:41:55.327Z</time></trkpt><trkpt lat="40.9944083" lon="9.5023403"><ele>12.0</ele><time>2026-04-07T13:41:56.328Z</time></trkpt><trkpt lat="40.9945539" lon="9.5024988"><ele>12.0</ele><time>2026-04-07T13:41:57.327Z</time></trkpt><trkpt lat="40.9947127" lon="9.5026419"><ele>12.0</ele><time>2026-04-07T13:41:58.328Z</time></trkpt><trkpt lat="40.9948732" lon="9.5027661"><ele>12.0</ele><time>2026-04-07T13:41:59.328Z</time></trkpt><trkpt lat="40.9950435" lon="9.5028812"><ele>11.666666666666666</ele><time>2026-04-07T13:42:00.328Z</time></trkpt><trkpt lat="40.9952202" lon="9.5029915"><ele>11.333333333333332</ele><time>2026-04-07T13:42:01.328Z</time></trkpt><trkpt lat="40.995396" lon="9.5031041"><ele>11.0</ele><time>2026-04-07T13:42:02.328Z</time></trkpt><trkpt lat="40.9955762" lon="9.503214"><ele>11.0</ele><time>2026-04-07T13:42:03.328Z</time></trkpt><trkpt lat="40.9957586" lon="9.5033283"><ele>11.0</ele><time>2026-04-07T13:42:04.328Z</time></trkpt><trkpt lat="40.9959399" lon="9.5034416"><ele>11.0</ele><time>2026-04-07T13:42:05.328Z</time></trkpt><trkpt lat="40.9961215" lon="9.5035544"><ele>10.333333333333332</ele><time>2026-04-07T13:42:06.327Z</time></trkpt><trkpt lat="40.9963006" lon="9.5036632"><ele>9.666666666666666</ele><time>2026-04-07T13:42:07.327Z</time></trkpt><trkpt lat="40.9964832" lon="9.5037778"><ele>9.0</ele><time>2026-04-07T13:42:08.327Z</time></trkpt><trkpt lat="40.9966611" lon="9.5038934"><ele>8.666666666666666</ele><time>2026-04-07T13:42:09.327Z</time></trkpt><trkpt lat="40.9968429" lon="9.5040077"><ele>8.333333333333332</ele><time>2026-04-07T13:42:10.328Z</time></trkpt><trkpt lat="40.9970225" lon="9.5041254"><ele>8.0</ele><time>2026-04-07T13:42:11.328Z</time></trkpt><trkpt lat="40.9971999" lon="9.5042431"><ele>8.0</ele><time>2026-04-07T13:42:12.327Z</time></trkpt><trkpt lat="40.9973714" lon="9.5043707"><ele>8.0</ele><time>2026-04-07T13:42:13.328Z</time></trkpt><trkpt lat="40.9975324" lon="9.5044976"><ele>8.0</ele><time>2026-04-07T13:42:14.327Z</time></trkpt><trkpt lat="40.9976876" lon="9.504626"><ele>8.0</ele><time>2026-04-07T13:42:15.328Z</time></trkpt><trkpt lat="40.9978416" lon="9.504748"><ele>8.0</ele><time>2026-04-07T13:42:16.328Z</time></trkpt><trkpt lat="40.9979967" lon="9.5048729"><ele>8.0</ele><time>2026-04-07T13:42:17.328Z</time></trkpt><trkpt lat="40.9981585" lon="9.5049984"><ele>8.0</ele><time>2026-04-07T13:42:18.327Z</time></trkpt><trkpt lat="40.9983257" lon="9.5051145"><ele>8.0</ele><time>2026-04-07T13:42:19.327Z</time></trkpt><trkpt lat="40.9985024" lon="9.5052087"><ele>8.0</ele><time>2026-04-07T13:42:20.328Z</time></trkpt><trkpt lat="40.9986892" lon="9.505266"><ele>8.0</ele><time>2026-04-07T13:42:21.327Z</time></trkpt><trkpt lat="40.9988917" lon="9.5052853"><ele>8.0</ele><time>2026-04-07T13:42:22.328Z</time></trkpt><trkpt lat="40.9991065" lon="9.505273"><ele>8.0</ele><time>2026-04-07T13:42:23.328Z</time></trkpt><trkpt lat="40.9993177" lon="9.5052363"><ele>6.333333333333333</ele><time>2026-04-07T13:42:24.327Z</time></trkpt><trkpt lat="40.9995356" lon="9.5051984"><ele>4.666666666666666</ele><time>2026-04-07T13:42:25.328Z</time></trkpt><trkpt lat="40.9997536" lon="9.5051606"><ele>3.0</ele><time>2026-04-07T13:42:26.328Z</time></trkpt><trkpt lat="40.9999678" lon="9.5051221"><ele>3.0</ele><time>2026-04-07T13:42:27.328Z</time></trkpt><trkpt lat="41.000169" lon="9.505085"><ele>3.0</ele><time>2026-04-07T13:42:28.327Z</time></trkpt><trkpt lat="41.0003695" lon="9.5050446"><ele>3.0</ele><time>2026-04-07T13:42:29.327Z</time></trkpt><trkpt lat="41.0005647" lon="9.505013"><ele>3.0</ele><time>2026-04-07T13:42:30.327Z</time></trkpt><trkpt lat="41.0007614" lon="9.5049772"><ele>3.0</ele><time>2026-04-07T13:42:31.328Z</time></trkpt><trkpt lat="41.0009595" lon="9.5049497"><ele>3.0</ele><time>2026-04-07T13:42:32.327Z</time></trkpt><trkpt lat="41.0011524" lon="9.5049168"><ele>3.333333333333333</ele><time>2026-04-07T13:42:33.328Z</time></trkpt><trkpt lat="41.0013453" lon="9.5048826"><ele>3.6666666666666665</ele><time>2026-04-07T13:42:34.328Z</time></trkpt><trkpt lat="41.0015391" lon="9.5048528"><ele>4.0</ele><time>2026-04-07T13:42:35.328Z</time></trkpt><trkpt lat="41.0017335" lon="9.5048214"><ele>4.0</ele><time>2026-04-07T13:42:36.328Z</time></trkpt><trkpt lat="41.0019281" lon="9.5047901"><ele>4.0</ele><time>2026-04-07T13:42:37.328Z</time></trkpt><trkpt lat="41.00212" lon="9.5047536"><ele>4.0</ele><time>2026-04-07T13:42:38.328Z</time></trkpt><trkpt lat="41.002312" lon="9.504722"><ele>4.0</ele><time>2026-04-07T13:42:39.328Z</time></trkpt><trkpt lat="41.0025024" lon="9.5046905"><ele>4.0</ele><time>2026-04-07T13:42:40.328Z</time></trkpt><trkpt lat="41.0026875" lon="9.5046623"><ele>4.0</ele><time>2026-04-07T13:42:41.328Z</time></trkpt><trkpt lat="41.0028683" lon="9.5046418"><ele>4.0</ele><time>2026-04-07T13:42:42.328Z</time></trkpt><trkpt lat="41.0030477" lon="9.5046291"><ele>4.0</ele><time>2026-04-07T13:42:43.327Z</time></trkpt><trkpt lat="41.0032252" lon="9.5046212"><ele>4.0</ele><time>2026-04-07T13:42:44.327Z</time></trkpt><trkpt lat="41.003398" lon="9.5046179"><ele>4.333333333333333</ele><time>2026-04-07T13:42:45.327Z</time></trkpt><trkpt lat="41.0035717" lon="9.5046149"><ele>4.666666666666667</ele><time>2026-04-07T13:42:46.328Z</time></trkpt><trkpt lat="41.0037461" lon="9.5046105"><ele>5.0</ele><time>2026-04-07T13:42:47.327Z</time></trkpt><trkpt lat="41.0039213" lon="9.5046098"><ele>5.0</ele><time>2026-04-07T13:42:48.328Z</time></trkpt><trkpt lat="41.0040961" lon="9.5046114"><ele>5.0</ele><time>2026-04-07T13:42:49.328Z</time></trkpt><trkpt lat="41.0042732" lon="9.5046122"><ele>5.0</ele><time>2026-04-07T13:42:50.328Z</time></trkpt><trkpt lat="41.0044516" lon="9.5046152"><ele>5.0</ele><time>2026-04-07T13:42:51.328Z</time></trkpt><trkpt lat="41.0046238" lon="9.5046145"><ele>5.0</ele><time>2026-04-07T13:42:52.328Z</time></trkpt><trkpt lat="41.0047882" lon="9.5046111"><ele>5.0</ele><time>2026-04-07T13:42:53.328Z</time></trkpt><trkpt lat="41.0049527" lon="9.5046099"><ele>4.666666666666667</ele><time>2026-04-07T13:42:54.328Z</time></trkpt><trkpt lat="41.005114" lon="9.5046064"><ele>4.333333333333333</ele><time>2026-04-07T13:42:55.328Z</time></trkpt><trkpt lat="41.0052752" lon="9.5045911"><ele>4.0</ele><time>2026-04-07T13:42:56.327Z</time></trkpt><trkpt lat="41.0054394" lon="9.5045537"><ele>3.6666666666666665</ele><time>2026-04-07T13:42:57.328Z</time></trkpt><trkpt lat="41.0056061" lon="9.5044917"><ele>3.333333333333333</ele><time>2026-04-07T13:42:58.328Z</time></trkpt><trkpt lat="41.0057708" lon="9.5044181"><ele>3.0</ele><time>2026-04-07T13:42:59.327Z</time></trkpt><trkpt lat="41.0059368" lon="9.5043434"><ele>3.0</ele><time>2026-04-07T13:43:00.328Z</time></trkpt><trkpt lat="41.0061037" lon="9.5042666"><ele>3.0</ele><time>2026-04-07T13:43:01.328Z</time></trkpt><trkpt lat="41.0062754" lon="9.504193"><ele>3.0</ele><time>2026-04-07T13:43:02.328Z</time></trkpt><trkpt lat="41.0064452" lon="9.5041195"><ele>3.0</ele><time>2026-04-07T13:43:03.328Z</time></trkpt><trkpt lat="41.0066092" lon="9.5040423"><ele>3.0</ele><time>2026-04-07T13:43:04.328Z</time></trkpt><trkpt lat="41.0067714" lon="9.503967"><ele>3.0</ele><time>2026-04-07T13:43:05.328Z</time></trkpt><trkpt lat="41.0069345" lon="9.5038934"><ele>2.6666666666666665</ele><time>2026-04-07T13:43:06.328Z</time></trkpt><trkpt lat="41.0070984" lon="9.5038215"><ele>2.333333333333333</ele><time>2026-04-07T13:43:07.328Z</time></trkpt><trkpt lat="41.0072663" lon="9.503744"><ele>2.0</ele><time>2026-04-07T13:43:08.328Z</time></trkpt><trkpt lat="41.0074361" lon="9.5036708"><ele>2.0</ele><time>2026-04-07T13:43:09.328Z</time></trkpt><trkpt lat="41.0076064" lon="9.5035885"><ele>2.0</ele><time>2026-04-07T13:43:10.328Z</time></trkpt><trkpt lat="41.0077669" lon="9.5034842"><ele>2.0</ele><time>2026-04-07T13:43:11.328Z</time></trkpt><trkpt lat="41.0079243" lon="9.5033573"><ele>2.0</ele><time>2026-04-07T13:43:12.328Z</time></trkpt><trkpt lat="41.0080801" lon="9.5032167"><ele>2.0</ele><time>2026-04-07T13:43:13.328Z</time></trkpt><trkpt lat="41.0082393" lon="9.5030701"><ele>2.0</ele><time>2026-04-07T13:43:14.327Z</time></trkpt><trkpt lat="41.0084098" lon="9.5029159"><ele>2.333333333333333</ele><time>2026-04-07T13:43:15.327Z</time></trkpt><trkpt lat="41.0085816" lon="9.5027443"><ele>2.6666666666666665</ele><time>2026-04-07T13:43:16.328Z</time></trkpt><trkpt lat="41.0087609" lon="9.5025898"><ele>3.0</ele><time>2026-04-07T13:43:17.328Z</time></trkpt><trkpt lat="41.0089298" lon="9.5024413"><ele>3.0</ele><time>2026-04-07T13:43:18.328Z</time></trkpt><trkpt lat="41.0090833" lon="9.5022995"><ele>3.0</ele><time>2026-04-07T13:43:19.327Z</time></trkpt><trkpt lat="41.0092316" lon="9.5021606"><ele>3.0</ele><time>2026-04-07T13:43:20.327Z</time></trkpt><trkpt lat="41.0093707" lon="9.5020326"><ele>3.666666666666667</ele><time>2026-04-07T13:43:21.327Z</time></trkpt><trkpt lat="41.0095149" lon="9.5019136"><ele>4.333333333333334</ele><time>2026-04-07T13:43:22.327Z</time></trkpt><trkpt lat="41.0096477" lon="9.501794"><ele>5.0</ele><time>2026-04-07T13:43:23.327Z</time></trkpt><trkpt lat="41.0097732" lon="9.501677"><ele>5.0</ele><time>2026-04-07T13:43:24.328Z</time></trkpt><trkpt lat="41.0098932" lon="9.5015646"><ele>5.0</ele><time>2026-04-07T13:43:25.328Z</time></trkpt><trkpt lat="41.0100097" lon="9.5014576"><ele>5.0</ele><time>2026-04-07T13:43:26.328Z</time></trkpt><trkpt lat="41.0101299" lon="9.5013604"><ele>5.0</ele><time>2026-04-07T13:43:27.328Z</time></trkpt><trkpt lat="41.0102591" lon="9.5012867"><ele>4.5</ele><time>2026-04-07T13:43:28.328Z</time></trkpt><trkpt lat="41.0103969" lon="9.5012465"><ele>4.0</ele><time>2026-04-07T13:43:29.328Z</time></trkpt><trkpt lat="41.0105373" lon="9.501244"><ele>3.5</ele><time>2026-04-07T13:43:30.327Z</time></trkpt><trkpt lat="41.0106748" lon="9.5012924"><ele>3.0</ele><time>2026-04-07T13:43:31.328Z</time></trkpt><trkpt lat="41.0108005" lon="9.5013858"><ele>2.5</ele><time>2026-04-07T13:43:32.328Z</time></trkpt><trkpt lat="41.0109034" lon="9.5015186"><ele>2.0</ele><time>2026-04-07T13:43:33.328Z</time></trkpt><trkpt lat="41.0109833" lon="9.5016832"><ele>1.5</ele><time>2026-04-07T13:43:34.328Z</time></trkpt><trkpt lat="41.0110477" lon="9.5018521"><ele>1.0</ele><time>2026-04-07T13:43:35.328Z</time></trkpt><trkpt lat="41.0111092" lon="9.502023"><ele>0.75</ele><time>2026-04-07T13:43:36.328Z</time></trkpt><trkpt lat="41.0111666" lon="9.5021945"><ele>0.5</ele><time>2026-04-07T13:43:37.328Z</time></trkpt><trkpt lat="41.0112276" lon="9.5023631"><ele>0.25</ele><time>2026-04-07T13:43:38.328Z</time></trkpt><trkpt lat="41.0112927" lon="9.5025254"><ele>0.0</ele><time>2026-04-07T13:43:39.328Z</time></trkpt><trkpt lat="41.0113711" lon="9.5026754"><ele>0.0</ele><time>2026-04-07T13:43:40.328Z</time></trkpt><trkpt lat="41.0114663" lon="9.5028108"><ele>0.0</ele><time>2026-04-07T13:43:41.327Z</time></trkpt><trkpt lat="41.0115688" lon="9.5029367"><ele>0.0</ele><time>2026-04-07T13:43:42.328Z</time></trkpt><trkpt lat="41.0116782" lon="9.5030668"><ele>0.0</ele><time>2026-04-07T13:43:43.328Z</time></trkpt><trkpt lat="41.0117923" lon="9.5031978"><ele>0.6666666666666666</ele><time>2026-04-07T13:43:44.328Z</time></trkpt><trkpt lat="41.0119105" lon="9.5033394"><ele>1.3333333333333333</ele><time>2026-04-07T13:43:45.328Z</time></trkpt><trkpt lat="41.0120245" lon="9.5034761"><ele>2.0</ele><time>2026-04-07T13:43:46.328Z</time></trkpt><trkpt lat="41.0121429" lon="9.5036181"><ele>1.6666666666666665</ele><time>2026-04-07T13:43:47.327Z</time></trkpt><trkpt lat="41.0122611" lon="9.5037553"><ele>1.3333333333333333</ele><time>2026-04-07T13:43:48.327Z</time></trkpt><trkpt lat="41.0123839" lon="9.503889"><ele>1.0</ele><time>2026-04-07T13:43:49.328Z</time></trkpt><trkpt lat="41.0125038" lon="9.5040231"><ele>2.0</ele><time>2026-04-07T13:43:50.328Z</time></trkpt><trkpt lat="41.0126259" lon="9.5041531"><ele>3.0</ele><time>2026-04-07T13:43:51.327Z</time></trkpt><trkpt lat="41.012755" lon="9.5042814"><ele>4.0</ele><time>2026-04-07T13:43:52.327Z</time></trkpt><trkpt lat="41.0128882" lon="9.5044063"><ele>4.0</ele><time>2026-04-07T13:43:53.328Z</time></trkpt><trkpt lat="41.0130224" lon="9.5045345"><ele>4.0</ele><time>2026-04-07T13:43:54.328Z</time></trkpt><trkpt lat="41.013156" lon="9.504655"><ele>4.0</ele><time>2026-04-07T13:43:55.328Z</time></trkpt><trkpt lat="41.013292" lon="9.5047722"><ele>4.333333333333333</ele><time>2026-04-07T13:43:56.327Z</time></trkpt><trkpt lat="41.0134254" lon="9.5048884"><ele>4.666666666666667</ele><time>2026-04-07T13:43:57.328Z</time></trkpt><trkpt lat="41.0135626" lon="9.5050073"><ele>5.0</ele><time>2026-04-07T13:43:58.328Z</time></trkpt><trkpt lat="41.0137042" lon="9.5051298"><ele>5.0</ele><time>2026-04-07T13:43:59.327Z</time></trkpt><trkpt lat="41.0138571" lon="9.5052627"><ele>5.0</ele><time>2026-04-07T13:44:00.328Z</time></trkpt><trkpt lat="41.0140174" lon="9.5054186"><ele>5.0</ele><time>2026-04-07T13:44:01.327Z</time></trkpt><trkpt lat="41.0141868" lon="9.5056046"><ele>4.5</ele><time>2026-04-07T13:44:02.328Z</time></trkpt><trkpt lat="41.0143682" lon="9.5058079"><ele>4.0</ele><time>2026-04-07T13:44:03.328Z</time></trkpt><trkpt lat="41.0145651" lon="9.5060337"><ele>3.0</ele><time>2026-04-07T13:44:04.328Z</time></trkpt><trkpt lat="41.0147774" lon="9.5062696"><ele>2.0</ele><time>2026-04-07T13:44:05.327Z</time></trkpt><trkpt lat="41.0149938" lon="9.5065179"><ele>2.0</ele><time>2026-04-07T13:44:06.328Z</time></trkpt><trkpt lat="41.0152192" lon="9.5067862"><ele>2.0</ele><time>2026-04-07T13:44:07.328Z</time></trkpt><trkpt lat="41.0154447" lon="9.5070627"><ele>2.5</ele><time>2026-04-07T13:44:08.327Z</time></trkpt><trkpt lat="41.0156607" lon="9.5073145"><ele>3.0</ele><time>2026-04-07T13:44:09.328Z</time></trkpt><trkpt lat="41.0158773" lon="9.5075624"><ele>3.0</ele><time>2026-04-07T13:44:10.328Z</time></trkpt><trkpt lat="41.0160835" lon="9.5077943"><ele>3.0</ele><time>2026-04-07T13:44:11.328Z</time></trkpt><trkpt lat="41.016286" lon="9.5080313"><ele>3.5</ele><time>2026-04-07T13:44:12.328Z</time></trkpt><trkpt lat="41.0164825" lon="9.5082654"><ele>4.0</ele><time>2026-04-07T13:44:13.328Z</time></trkpt><trkpt lat="41.016677" lon="9.5085111"><ele>3.0</ele><time>2026-04-07T13:44:14.327Z</time></trkpt><trkpt lat="41.0168638" lon="9.5087638"><ele>2.0</ele><time>2026-04-07T13:44:15.328Z</time></trkpt><trkpt lat="41.0170463" lon="9.5090196"><ele>2.0</ele><time>2026-04-07T13:44:16.328Z</time></trkpt><trkpt lat="41.0172227" lon="9.5092781"><ele>2.0</ele><time>2026-04-07T13:44:17.328Z</time></trkpt><trkpt lat="41.0173918" lon="9.5095319"><ele>3.0</ele><time>2026-04-07T13:44:18.327Z</time></trkpt><trkpt lat="41.0175528" lon="9.5097735"><ele>4.0</ele><time>2026-04-07T13:44:19.328Z</time></trkpt><trkpt lat="41.0177015" lon="9.5100061"><ele>4.0</ele><time>2026-04-07T13:44:20.328Z</time></trkpt><trkpt lat="41.0178427" lon="9.5102247"><ele>4.0</ele><time>2026-04-07T13:44:21.327Z</time></trkpt><trkpt lat="41.0179735" lon="9.5104303"><ele>4.0</ele><time>2026-04-07T13:44:22.328Z</time></trkpt><trkpt lat="41.0180832" lon="9.5106026"><ele>3.5</ele><time>2026-04-07T13:44:23.327Z</time></trkpt><trkpt lat="41.018182" lon="9.51076"><ele>3.0</ele><time>2026-04-07T13:44:24.327Z</time></trkpt><trkpt lat="41.0182795" lon="9.5109148"><ele>2.5</ele><time>2026-04-07T13:44:25.328Z</time></trkpt><trkpt lat="41.0183701" lon="9.5110551"><ele>2.0</ele><time>2026-04-07T13:44:26.328Z</time></trkpt><trkpt lat="41.0184573" lon="9.5111872"><ele>2.75</ele><time>2026-04-07T13:44:27.328Z</time></trkpt><trkpt lat="41.0185424" lon="9.5113163"><ele>3.5</ele><time>2026-04-07T13:44:28.328Z</time></trkpt><trkpt lat="41.0186336" lon="9.5114515"><ele>4.25</ele><time>2026-04-07T13:44:29.328Z</time></trkpt><trkpt lat="41.0187279" lon="9.5116027"><ele>5.0</ele><time>2026-04-07T13:44:30.328Z</time></trkpt><trkpt lat="41.0188224" lon="9.5117675"><ele>5.0</ele><time>2026-04-07T13:44:31.328Z</time></trkpt><trkpt lat="41.0189176" lon="9.5119512"><ele>5.0</ele><time>2026-04-07T13:44:32.328Z</time></trkpt><trkpt lat="41.0190116" lon="9.5121506"><ele>5.0</ele><time>2026-04-07T13:44:33.327Z</time></trkpt><trkpt lat="41.0191084" lon="9.5123605"><ele>5.0</ele><time>2026-04-07T13:44:34.328Z</time></trkpt><trkpt lat="41.0192103" lon="9.512579"><ele>5.0</ele><time>2026-04-07T13:44:35.327Z</time></trkpt><trkpt lat="41.019311" lon="9.5127982"><ele>5.0</ele><time>2026-04-07T13:44:36.328Z</time></trkpt><trkpt lat="41.0194147" lon="9.5130035"><ele>4.333333333333334</ele><time>2026-04-07T13:44:37.328Z</time></trkpt><trkpt lat="41.0195189" lon="9.5132078"><ele>3.666666666666667</ele><time>2026-04-07T13:44:38.328Z</time></trkpt><trkpt lat="41.0196425" lon="9.5133945"><ele>3.0</ele><time>2026-04-07T13:44:39.328Z</time></trkpt><trkpt lat="41.0197725" lon="9.5135514"><ele>3.0</ele><time>2026-04-07T13:44:40.328Z</time></trkpt><trkpt lat="41.0199055" lon="9.513699"><ele>3.0</ele><time>2026-04-07T13:44:41.328Z</time></trkpt><trkpt lat="41.0200445" lon="9.5138444"><ele>3.0</ele><time>2026-04-07T13:44:42.328Z</time></trkpt><trkpt lat="41.0201792" lon="9.513995"><ele>3.666666666666667</ele><time>2026-04-07T13:44:43.328Z</time></trkpt><trkpt lat="41.0203196" lon="9.5141468"><ele>4.333333333333334</ele><time>2026-04-07T13:44:44.327Z</time></trkpt><trkpt lat="41.0204573" lon="9.5142923"><ele>5.0</ele><time>2026-04-07T13:44:45.328Z</time></trkpt><trkpt lat="41.0205947" lon="9.514443"><ele>4.666666666666667</ele><time>2026-04-07T13:44:46.328Z</time></trkpt><trkpt lat="41.0207356" lon="9.5145885"><ele>4.333333333333333</ele><time>2026-04-07T13:44:47.327Z</time></trkpt><trkpt lat="41.0208777" lon="9.5147238"><ele>4.0</ele><time>2026-04-07T13:44:48.327Z</time></trkpt><trkpt lat="41.0210172" lon="9.5148503"><ele>4.0</ele><time>2026-04-07T13:44:49.328Z</time></trkpt><trkpt lat="41.0211501" lon="9.5149629"><ele>4.0</ele><time>2026-04-07T13:44:50.327Z</time></trkpt><trkpt lat="41.0212789" lon="9.5150726"><ele>4.0</ele><time>2026-04-07T13:44:51.328Z</time></trkpt><trkpt lat="41.0214171" lon="9.5151839"><ele>4.0</ele><time>2026-04-07T13:44:52.328Z</time></trkpt><trkpt lat="41.0215581" lon="9.515303"><ele>4.0</ele><time>2026-04-07T13:44:53.328Z</time></trkpt><trkpt lat="41.0216999" lon="9.5154194"><ele>4.0</ele><time>2026-04-07T13:44:54.328Z</time></trkpt><trkpt lat="41.0218374" lon="9.5155439"><ele>3.333333333333333</ele><time>2026-04-07T13:44:55.328Z</time></trkpt><trkpt lat="41.0219716" lon="9.5156581"><ele>2.6666666666666665</ele><time>2026-04-07T13:44:56.328Z</time></trkpt><trkpt lat="41.0221041" lon="9.5157723"><ele>2.0</ele><time>2026-04-07T13:44:57.328Z</time></trkpt><trkpt lat="41.0222336" lon="9.5158812"><ele>2.0</ele><time>2026-04-07T13:44:58.327Z</time></trkpt><trkpt lat="41.0223535" lon="9.5159903"><ele>2.0</ele><time>2026-04-07T13:44:59.327Z</time></trkpt><trkpt lat="41.0224724" lon="9.5160945"><ele>2.0</ele><time>2026-04-07T13:45:00.328Z</time></trkpt><trkpt lat="41.0225903" lon="9.5161984"><ele>2.0</ele><time>2026-04-07T13:45:01.328Z</time></trkpt><trkpt lat="41.0227115" lon="9.5163006"><ele>2.0</ele><time>2026-04-07T13:45:02.328Z</time></trkpt><trkpt lat="41.0228463" lon="9.5163898"><ele>2.0</ele><time>2026-04-07T13:45:03.328Z</time></trkpt><trkpt lat="41.0229807" lon="9.5164663"><ele>2.0</ele><time>2026-04-07T13:45:04.328Z</time></trkpt><trkpt lat="41.023137" lon="9.5165309"><ele>2.0</ele><time>2026-04-07T13:45:05.328Z</time></trkpt><trkpt lat="41.0232953" lon="9.5165971"><ele>2.0</ele><time>2026-04-07T13:45:06.328Z</time></trkpt><trkpt lat="41.023464" lon="9.516665"><ele>2.0</ele><time>2026-04-07T13:45:07.328Z</time></trkpt><trkpt lat="41.0236373" lon="9.5167377"><ele>2.333333333333333</ele><time>2026-04-07T13:45:08.328Z</time></trkpt><trkpt lat="41.0238152" lon="9.5168124"><ele>2.6666666666666665</ele><time>2026-04-07T13:45:09.327Z</time></trkpt><trkpt lat="41.023995" lon="9.5168933"><ele>3.0</ele><time>2026-04-07T13:45:10.328Z</time></trkpt><trkpt lat="41.0241822" lon="9.5169837"><ele>2.0</ele><time>2026-04-07T13:45:11.328Z</time></trkpt><trkpt lat="41.0243651" lon="9.5170937"><ele>1.0</ele><time>2026-04-07T13:45:12.328Z</time></trkpt><trkpt lat="41.0245343" lon="9.5172025"><ele>0.0</ele><time>2026-04-07T13:45:13.327Z</time></trkpt><trkpt lat="41.0246952" lon="9.5173109"><ele>0.0</ele><time>2026-04-07T13:45:14.327Z</time></trkpt><trkpt lat="41.0248568" lon="9.5174121"><ele>0.0</ele><time>2026-04-07T13:45:15.328Z</time></trkpt><trkpt lat="41.0250149" lon="9.5175172"><ele>0.0</ele><time>2026-04-07T13:45:16.328Z</time></trkpt><trkpt lat="41.0251718" lon="9.5176205"><ele>0.3333333333333333</ele><time>2026-04-07T13:45:17.328Z</time></trkpt><trkpt lat="41.0253276" lon="9.5177258"><ele>0.6666666666666666</ele><time>2026-04-07T13:45:18.328Z</time></trkpt><trkpt lat="41.0254656" lon="9.5178247"><ele>1.0</ele><time>2026-04-07T13:45:19.328Z</time></trkpt><trkpt lat="41.0255987" lon="9.517909"><ele>1.0</ele><time>2026-04-07T13:45:20.327Z</time></trkpt><trkpt lat="41.0257254" lon="9.5179923"><ele>1.0</ele><time>2026-04-07T13:45:21.327Z</time></trkpt><trkpt lat="41.0258421" lon="9.5180655"><ele>1.0</ele><time>2026-04-07T13:45:22.328Z</time></trkpt><trkpt lat="41.025951" lon="9.5181193"><ele>1.0</ele><time>2026-04-07T13:45:23.327Z</time></trkpt><trkpt lat="41.0260525" lon="9.5181483"><ele>1.25</ele><time>2026-04-07T13:45:24.328Z</time></trkpt><trkpt lat="41.0261611" lon="9.5181529"><ele>1.5</ele><time>2026-04-07T13:45:25.327Z</time></trkpt><trkpt lat="41.0263004" lon="9.5181253"><ele>1.75</ele><time>2026-04-07T13:45:26.328Z</time></trkpt><trkpt lat="41.0264713" lon="9.5180849"><ele>2.0</ele><time>2026-04-07T13:45:27.327Z</time></trkpt><trkpt lat="41.0266297" lon="9.5180482"><ele>2.5</ele><time>2026-04-07T13:45:28.327Z</time></trkpt><trkpt lat="41.0267796" lon="9.5180063"><ele>3.0</ele><time>2026-04-07T13:45:29.328Z</time></trkpt><trkpt lat="41.0269168" lon="9.5179504"><ele>3.5</ele><time>2026-04-07T13:45:30.328Z</time></trkpt><trkpt lat="41.0270475" lon="9.5179125"><ele>4.0</ele><time>2026-04-07T13:45:31.328Z</time></trkpt><trkpt lat="41.0271863" lon="9.5178811"><ele>4.333333333333333</ele><time>2026-04-07T13:45:32.327Z</time></trkpt><trkpt lat="41.0273429" lon="9.517897"><ele>4.666666666666667</ele><time>2026-04-07T13:45:33.327Z</time></trkpt><trkpt lat="41.0275387" lon="9.5179686"><ele>5.0</ele><time>2026-04-07T13:45:34.328Z</time></trkpt><trkpt lat="41.027737" lon="9.5180518"><ele>5.0</ele><time>2026-04-07T13:45:35.328Z</time></trkpt><trkpt lat="41.0279606" lon="9.5180995"><ele>5.0</ele><time>2026-04-07T13:45:36.328Z</time></trkpt><trkpt lat="41.0282045" lon="9.5181053"><ele>6.5</ele><time>2026-04-07T13:45:37.327Z</time></trkpt><trkpt lat="41.0284554" lon="9.5180864"><ele>8.0</ele><time>2026-04-07T13:45:38.327Z</time></trkpt><trkpt lat="41.028683" lon="9.5180781"><ele>8.0</ele><time>2026-04-07T13:45:39.328Z</time></trkpt><trkpt lat="41.0288792" lon="9.5180809"><ele>8.0</ele><time>2026-04-07T13:45:40.327Z</time></trkpt><trkpt lat="41.0290608" lon="9.5181217"><ele>8.0</ele><time>2026-04-07T13:45:41.327Z</time></trkpt><trkpt lat="41.0292409" lon="9.518228"><ele>10.333333333333332</ele><time>2026-04-07T13:45:42.328Z</time></trkpt><trkpt lat="41.029412" lon="9.5183697"><ele>12.666666666666666</ele><time>2026-04-07T13:45:43.327Z</time></trkpt><trkpt lat="41.0295609" lon="9.5184996"><ele>15.0</ele><time>2026-04-07T13:45:44.328Z</time></trkpt><trkpt lat="41.0296943" lon="9.5186719"><ele>13.333333333333334</ele><time>2026-04-07T13:45:45.327Z</time></trkpt><trkpt lat="41.0298014" lon="9.5188989"><ele>11.666666666666668</ele><time>2026-04-07T13:45:46.327Z</time></trkpt><trkpt lat="41.0298777" lon="9.5191193"><ele>10.0</ele><time>2026-04-07T13:45:47.327Z</time></trkpt><trkpt lat="41.0299397" lon="9.5192989"><ele>11.5</ele><time>2026-04-07T13:45:48.328Z</time></trkpt><trkpt lat="41.0300248" lon="9.5194607"><ele>13.0</ele><time>2026-04-07T13:45:49.328Z</time></trkpt><trkpt lat="41.0301392" lon="9.5195932"><ele>14.5</ele><time>2026-04-07T13:45:50.328Z</time></trkpt><trkpt lat="41.0302684" lon="9.5196827"><ele>16.0</ele><time>2026-04-07T13:45:51.327Z</time></trkpt><trkpt lat="41.0304503" lon="9.5196949"><ele>16.0</ele><time>2026-04-07T13:45:52.328Z</time></trkpt><trkpt lat="41.030637" lon="9.519704"><ele>16.0</ele><time>2026-04-07T13:45:53.327Z</time></trkpt><trkpt lat="41.0308422" lon="9.5196685"><ele>16.0</ele><time>2026-04-07T13:45:54.327Z</time></trkpt><trkpt lat="41.0310517" lon="9.5195927"><ele>26.0</ele><time>2026-04-07T13:45:55.327Z</time></trkpt><trkpt lat="41.0312655" lon="9.5194788"><ele>36.0</ele><time>2026-04-07T13:45:56.327Z</time></trkpt><trkpt lat="41.0314766" lon="9.5193835"><ele>37.5</ele><time>2026-04-07T13:45:57.328Z</time></trkpt><trkpt lat="41.0316951" lon="9.5193181"><ele>39.0</ele><time>2026-04-07T13:45:58.328Z</time></trkpt><trkpt lat="41.0319285" lon="9.5192933"><ele>39.0</ele><time>2026-04-07T13:45:59.327Z</time></trkpt><trkpt lat="41.0321518" lon="9.5192605"><ele>39.0</ele><time>2026-04-07T13:46:00.327Z</time></trkpt><trkpt lat="41.0323806" lon="9.5191791"><ele>39.333333333333336</ele><time>2026-04-07T13:46:01.327Z</time></trkpt><trkpt lat="41.0325784" lon="9.5190729"><ele>39.66666666666667</ele><time>2026-04-07T13:46:02.328Z</time></trkpt><trkpt lat="41.0327613" lon="9.5189962"><ele>40.0</ele><time>2026-04-07T13:46:03.328Z</time></trkpt><trkpt lat="41.0329478" lon="9.5189692"><ele>40.0</ele><time>2026-04-07T13:46:04.327Z</time></trkpt><trkpt lat="41.0331391" lon="9.518992"><ele>40.0</ele><time>2026-04-07T13:46:05.328Z</time></trkpt><trkpt lat="41.0333128" lon="9.5190096"><ele>40.0</ele><time>2026-04-07T13:46:06.327Z</time></trkpt><trkpt lat="41.0334534" lon="9.5189935"><ele>41.333333333333336</ele><time>2026-04-07T13:46:07.327Z</time></trkpt><trkpt lat="41.0336176" lon="9.5189771"><ele>42.666666666666664</ele><time>2026-04-07T13:46:08.328Z</time></trkpt><trkpt lat="41.0337841" lon="9.5189074"><ele>44.0</ele><time>2026-04-07T13:46:09.328Z</time></trkpt><trkpt lat="41.0338334" lon="9.5186085"><ele>47.0</ele><time>2026-04-07T13:46:10.327Z</time></trkpt><trkpt lat="41.0339777" lon="9.5184551"><ele>50.0</ele><time>2026-04-07T13:46:11.328Z</time></trkpt><trkpt lat="41.0341517" lon="9.5183053"><ele>53.0</ele><time>2026-04-07T13:46:12.327Z</time></trkpt><trkpt lat="41.0343529" lon="9.5181754"><ele>53.0</ele><time>2026-04-07T13:46:13.328Z</time></trkpt><trkpt lat="41.0345507" lon="9.5180501"><ele>53.0</ele><time>2026-04-07T13:46:14.327Z</time></trkpt><trkpt lat="41.0347183" lon="9.5179152"><ele>53.0</ele><time>2026-04-07T13:46:15.328Z</time></trkpt><trkpt lat="41.0348683" lon="9.5177735"><ele>56.0</ele><time>2026-04-07T13:46:16.328Z</time></trkpt><trkpt lat="41.0350058" lon="9.5176281"><ele>59.0</ele><time>2026-04-07T13:46:17.327Z</time></trkpt><trkpt lat="41.0351168" lon="9.5174762"><ele>62.0</ele><time>2026-04-07T13:46:18.327Z</time></trkpt><trkpt lat="41.0352045" lon="9.5173252"><ele>62.0</ele><time>2026-04-07T13:46:19.328Z</time></trkpt><trkpt lat="41.0352709" lon="9.5171748"><ele>62.0</ele><time>2026-04-07T13:46:20.328Z</time></trkpt><trkpt lat="41.03533" lon="9.5170432"><ele>62.0</ele><time>2026-04-07T13:46:21.328Z</time></trkpt><trkpt lat="41.0353919" lon="9.5169199"><ele>62.0</ele><time>2026-04-07T13:46:22.328Z</time></trkpt><trkpt lat="41.0354617" lon="9.5168148"><ele>63.2</ele><time>2026-04-07T13:46:23.327Z</time></trkpt><trkpt lat="41.0355529" lon="9.5167403"><ele>64.4</ele><time>2026-04-07T13:46:24.328Z</time></trkpt><trkpt lat="41.0356567" lon="9.5167046"><ele>65.6</ele><time>2026-04-07T13:46:25.327Z</time></trkpt><trkpt lat="41.0357664" lon="9.5166929"><ele>66.8</ele><time>2026-04-07T13:46:26.328Z</time></trkpt><trkpt lat="41.0358714" lon="9.5167181"><ele>68.0</ele><time>2026-04-07T13:46:27.328Z</time></trkpt><trkpt lat="41.0359692" lon="9.516761"><ele>68.0</ele><time>2026-04-07T13:46:28.328Z</time></trkpt><trkpt lat="41.036053" lon="9.5168021"><ele>68.0</ele><time>2026-04-07T13:46:29.328Z</time></trkpt><trkpt lat="41.0361316" lon="9.5168504"><ele>68.0</ele><time>2026-04-07T13:46:30.328Z</time></trkpt><trkpt lat="41.0362133" lon="9.5168971"><ele>68.0</ele><time>2026-04-07T13:46:31.328Z</time></trkpt><trkpt lat="41.0362972" lon="9.5169528"><ele>68.0</ele><time>2026-04-07T13:46:32.328Z</time></trkpt><trkpt lat="41.0363843" lon="9.5169989"><ele>68.0</ele><time>2026-04-07T13:46:33.327Z</time></trkpt><trkpt lat="41.0364742" lon="9.5170455"><ele>68.0</ele><time>2026-04-07T13:46:34.327Z</time></trkpt><trkpt lat="41.0365686" lon="9.5170702"><ele>68.0</ele><time>2026-04-07T13:46:35.328Z</time></trkpt><trkpt lat="41.0366682" lon="9.5170668"><ele>68.0</ele><time>2026-04-07T13:46:36.328Z</time></trkpt><trkpt lat="41.0367727" lon="9.5170519"><ele>68.0</ele><time>2026-04-07T13:46:37.328Z</time></trkpt><trkpt lat="41.0368804" lon="9.5170114"><ele>68.0</ele><time>2026-04-07T13:46:38.327Z</time></trkpt><trkpt lat="41.0369801" lon="9.5169356"><ele>68.0</ele><time>2026-04-07T13:46:39.328Z</time></trkpt><trkpt lat="41.0370809" lon="9.5168217"><ele>68.0</ele><time>2026-04-07T13:46:40.327Z</time></trkpt><trkpt lat="41.0371741" lon="9.516706"><ele>68.0</ele><time>2026-04-07T13:46:41.328Z</time></trkpt><trkpt lat="41.0372724" lon="9.5166134"><ele>68.0</ele><time>2026-04-07T13:46:42.328Z</time></trkpt><trkpt lat="41.0373792" lon="9.5165443"><ele>68.0</ele><time>2026-04-07T13:46:43.328Z</time></trkpt><trkpt lat="41.0375003" lon="9.5165112"><ele>68.0</ele><time>2026-04-07T13:46:44.328Z</time></trkpt><trkpt lat="41.0376407" lon="9.5165274"><ele>68.0</ele><time>2026-04-07T13:46:45.328Z</time></trkpt><trkpt lat="41.0377866" lon="9.5165897"><ele>63.333333333333336</ele><time>2026-04-07T13:46:46.328Z</time></trkpt><trkpt lat="41.037939" lon="9.5166773"><ele>58.66666666666667</ele><time>2026-04-07T13:46:47.328Z</time></trkpt><trkpt lat="41.0380909" lon="9.5167747"><ele>54.0</ele><time>2026-04-07T13:46:48.328Z</time></trkpt><trkpt lat="41.038254" lon="9.5168715"><ele>54.33333333333333</ele><time>2026-04-07T13:46:49.328Z</time></trkpt><trkpt lat="41.038425" lon="9.5169429"><ele>54.666666666666664</ele><time>2026-04-07T13:46:50.327Z</time></trkpt><trkpt lat="41.038616" lon="9.5169797"><ele>55.0</ele><time>2026-04-07T13:46:51.327Z</time></trkpt><trkpt lat="41.0388239" lon="9.5169803"><ele>55.0</ele><time>2026-04-07T13:46:52.328Z</time></trkpt><trkpt lat="41.0390393" lon="9.5169518"><ele>55.0</ele><time>2026-04-07T13:46:53.327Z</time></trkpt><trkpt lat="41.0392621" lon="9.5169226"><ele>55.0</ele><time>2026-04-07T13:46:54.328Z</time></trkpt><trkpt lat="41.03947" lon="9.5168942"><ele>52.33333333333333</ele><time>2026-04-07T13:46:55.327Z</time></trkpt><trkpt lat="41.039669" lon="9.5168646"><ele>49.666666666666664</ele><time>2026-04-07T13:46:56.328Z</time></trkpt><trkpt lat="41.0398568" lon="9.5168704"><ele>47.0</ele><time>2026-04-07T13:46:57.327Z</time></trkpt><trkpt lat="41.0400349" lon="9.5169229"><ele>47.0</ele><time>2026-04-07T13:46:58.327Z</time></trkpt><trkpt lat="41.0402122" lon="9.5170175"><ele>47.0</ele><time>2026-04-07T13:46:59.328Z</time></trkpt><trkpt lat="41.0403888" lon="9.5171444"><ele>47.0</ele><time>2026-04-07T13:47:00.327Z</time></trkpt><trkpt lat="41.0405683" lon="9.5172827"><ele>44.0</ele><time>2026-04-07T13:47:01.328Z</time></trkpt><trkpt lat="41.0407461" lon="9.5174227"><ele>41.0</ele><time>2026-04-07T13:47:02.328Z</time></trkpt><trkpt lat="41.040926" lon="9.5175608"><ele>38.0</ele><time>2026-04-07T13:47:03.328Z</time></trkpt><trkpt lat="41.0410999" lon="9.5177036"><ele>37.666666666666664</ele><time>2026-04-07T13:47:04.328Z</time></trkpt><trkpt lat="41.0412759" lon="9.5178419"><ele>37.333333333333336</ele><time>2026-04-07T13:47:05.328Z</time></trkpt><trkpt lat="41.0414528" lon="9.5179771"><ele>37.0</ele><time>2026-04-07T13:47:06.328Z</time></trkpt><trkpt lat="41.0416393" lon="9.5180832"><ele>35.333333333333336</ele><time>2026-04-07T13:47:07.328Z</time></trkpt><trkpt lat="41.0418441" lon="9.5181515"><ele>33.666666666666664</ele><time>2026-04-07T13:47:08.327Z</time></trkpt><trkpt lat="41.0420511" lon="9.5181987"><ele>32.0</ele><time>2026-04-07T13:47:09.327Z</time></trkpt><trkpt lat="41.0422589" lon="9.5182369"><ele>31.333333333333332</ele><time>2026-04-07T13:47:10.328Z</time></trkpt><trkpt lat="41.0424691" lon="9.5182834"><ele>30.666666666666664</ele><time>2026-04-07T13:47:11.328Z</time></trkpt><trkpt lat="41.04267" lon="9.5183255"><ele>30.0</ele><time>2026-04-07T13:47:12.328Z</time></trkpt><trkpt lat="41.0428742" lon="9.5183649"><ele>30.0</ele><time>2026-04-07T13:47:13.328Z</time></trkpt><trkpt lat="41.0430886" lon="9.5184041"><ele>30.0</ele><time>2026-04-07T13:47:14.327Z</time></trkpt><trkpt lat="41.0433054" lon="9.5184459"><ele>30.0</ele><time>2026-04-07T13:47:15.327Z</time></trkpt><trkpt lat="41.0435155" lon="9.5184802"><ele>30.333333333333336</ele><time>2026-04-07T13:47:16.327Z</time></trkpt><trkpt lat="41.0437083" lon="9.5185127"><ele>30.666666666666668</ele><time>2026-04-07T13:47:17.327Z</time></trkpt><trkpt lat="41.0438726" lon="9.5185427"><ele>31.0</ele><time>2026-04-07T13:47:18.328Z</time></trkpt><trkpt lat="41.0440144" lon="9.5185697"><ele>30.200000000000003</ele><time>2026-04-07T13:47:19.328Z</time></trkpt><trkpt lat="41.0441349" lon="9.5185941"><ele>29.400000000000002</ele><time>2026-04-07T13:47:20.328Z</time></trkpt><trkpt lat="41.0442321" lon="9.5186155"><ele>28.6</ele><time>2026-04-07T13:47:21.327Z</time></trkpt><trkpt lat="41.0443189" lon="9.5186318"><ele>27.8</ele><time>2026-04-07T13:47:22.328Z</time></trkpt><trkpt lat="41.0444089" lon="9.5186458"><ele>27.0</ele><time>2026-04-07T13:47:23.328Z</time></trkpt><trkpt lat="41.0444945" lon="9.5186608"><ele>27.0</ele><time>2026-04-07T13:47:24.327Z</time></trkpt><trkpt lat="41.0445731" lon="9.5186805"><ele>27.000000000000004</ele><time>2026-04-07T13:47:25.328Z</time></trkpt><trkpt lat="41.0446581" lon="9.5186923"><ele>27.000000000000004</ele><time>2026-04-07T13:47:26.327Z</time></trkpt><trkpt lat="41.0447559" lon="9.5187067"><ele>27.0</ele><time>2026-04-07T13:47:27.328Z</time></trkpt><trkpt lat="41.0448578" lon="9.5187218"><ele>27.0</ele><time>2026-04-07T13:47:28.328Z</time></trkpt><trkpt lat="41.0449792" lon="9.5187293"><ele>25.666666666666668</ele><time>2026-04-07T13:47:29.328Z</time></trkpt><trkpt lat="41.0451156" lon="9.5187354"><ele>24.333333333333336</ele><time>2026-04-07T13:47:30.328Z</time></trkpt><trkpt lat="41.0452684" lon="9.5187201"><ele>23.0</ele><time>2026-04-07T13:47:31.328Z</time></trkpt><trkpt lat="41.0454378" lon="9.5186816"><ele>23.0</ele><time>2026-04-07T13:47:32.327Z</time></trkpt><trkpt lat="41.0456196" lon="9.5186352"><ele>23.0</ele><time>2026-04-07T13:47:33.328Z</time></trkpt><trkpt lat="41.0458156" lon="9.5185749"><ele>23.0</ele><time>2026-04-07T13:47:34.328Z</time></trkpt><trkpt lat="41.0460239" lon="9.5185099"><ele>19.5</ele><time>2026-04-07T13:47:35.328Z</time></trkpt><trkpt lat="41.0462423" lon="9.5184426"><ele>16.0</ele><time>2026-04-07T13:47:36.328Z</time></trkpt><trkpt lat="41.0464693" lon="9.5183767"><ele>14.0</ele><time>2026-04-07T13:47:37.328Z</time></trkpt><trkpt lat="41.0467091" lon="9.5183021"><ele>12.0</ele><time>2026-04-07T13:47:38.328Z</time></trkpt><trkpt lat="41.0469521" lon="9.5182141"><ele>12.0</ele><time>2026-04-07T13:47:39.328Z</time></trkpt><trkpt lat="41.047198" lon="9.5181013"><ele>12.0</ele><time>2026-04-07T13:47:40.327Z</time></trkpt><trkpt lat="41.0474436" lon="9.5179717"><ele>15.0</ele><time>2026-04-07T13:47:41.327Z</time></trkpt><trkpt lat="41.0476896" lon="9.5178372"><ele>18.0</ele><time>2026-04-07T13:47:42.328Z</time></trkpt><trkpt lat="41.0479118" lon="9.5177025"><ele>18.0</ele><time>2026-04-07T13:47:43.328Z</time></trkpt><trkpt lat="41.048128" lon="9.517583"><ele>18.0</ele><time>2026-04-07T13:47:44.328Z</time></trkpt><trkpt lat="41.0483361" lon="9.5174693"><ele>17.333333333333332</ele><time>2026-04-07T13:47:45.328Z</time></trkpt><trkpt lat="41.0485386" lon="9.5173701"><ele>16.666666666666664</ele><time>2026-04-07T13:47:46.328Z</time></trkpt><trkpt lat="41.0487383" lon="9.5172883"><ele>16.0</ele><time>2026-04-07T13:47:47.328Z</time></trkpt><trkpt lat="41.0489362" lon="9.5172163"><ele>15.333333333333332</ele><time>2026-04-07T13:47:48.327Z</time></trkpt><trkpt lat="41.049134" lon="9.517146"><ele>14.666666666666668</ele><time>2026-04-07T13:47:49.327Z</time></trkpt><trkpt lat="41.0493355" lon="9.5170734"><ele>14.0</ele><time>2026-04-07T13:47:50.328Z</time></trkpt><trkpt lat="41.0495394" lon="9.5170041"><ele>14.0</ele><time>2026-04-07T13:47:51.328Z</time></trkpt><trkpt lat="41.0497433" lon="9.5169261"><ele>14.0</ele><time>2026-04-07T13:47:52.328Z</time></trkpt><trkpt lat="41.0499527" lon="9.516848"><ele>14.0</ele><time>2026-04-07T13:47:53.328Z</time></trkpt><trkpt lat="41.0501666" lon="9.516777"><ele>16.5</ele><time>2026-04-07T13:47:54.328Z</time></trkpt><trkpt lat="41.0503851" lon="9.516706"><ele>19.0</ele><time>2026-04-07T13:47:55.328Z</time></trkpt><trkpt lat="41.0506033" lon="9.5166341"><ele>17.5</ele><time>2026-04-07T13:47:56.328Z</time></trkpt><trkpt lat="41.0508274" lon="9.5165603"><ele>16.0</ele><time>2026-04-07T13:47:57.328Z</time></trkpt><trkpt lat="41.0510533" lon="9.516484"><ele>16.0</ele><time>2026-04-07T13:47:58.327Z</time></trkpt><trkpt lat="41.0512825" lon="9.5164045"><ele>16.0</ele><time>2026-04-07T13:47:59.327Z</time></trkpt><trkpt lat="41.0515138" lon="9.5163286"><ele>16.5</ele><time>2026-04-07T13:48:00.327Z</time></trkpt><trkpt lat="41.0517411" lon="9.5162525"><ele>17.0</ele><time>2026-04-07T13:48:01.328Z</time></trkpt><trkpt lat="41.051965" lon="9.5161792"><ele>21.5</ele><time>2026-04-07T13:48:02.327Z</time></trkpt><trkpt lat="41.0521926" lon="9.5161304"><ele>26.0</ele><time>2026-04-07T13:48:03.328Z</time></trkpt><trkpt lat="41.0524214" lon="9.5161229"><ele>26.0</ele><time>2026-04-07T13:48:04.328Z</time></trkpt><trkpt lat="41.0526502" lon="9.5161502"><ele>26.0</ele><time>2026-04-07T13:48:05.328Z</time></trkpt><trkpt lat="41.0528848" lon="9.5162249"><ele>25.5</ele><time>2026-04-07T13:48:06.327Z</time></trkpt><trkpt lat="41.053112" lon="9.516311"><ele>25.0</ele><time>2026-04-07T13:48:07.328Z</time></trkpt><trkpt lat="41.0533368" lon="9.516402"><ele>22.5</ele><time>2026-04-07T13:48:08.328Z</time></trkpt><trkpt lat="41.0535615" lon="9.5165104"><ele>20.0</ele><time>2026-04-07T13:48:09.328Z</time></trkpt><trkpt lat="41.0537756" lon="9.5166586"><ele>20.0</ele><time>2026-04-07T13:48:10.328Z</time></trkpt><trkpt lat="41.0539646" lon="9.5168296"><ele>20.0</ele><time>2026-04-07T13:48:11.328Z</time></trkpt><trkpt lat="41.0541319" lon="9.5170135"><ele>20.0</ele><time>2026-04-07T13:48:12.328Z</time></trkpt><trkpt lat="41.0542819" lon="9.517202"><ele>18.0</ele><time>2026-04-07T13:48:13.328Z</time></trkpt><trkpt lat="41.0544239" lon="9.5173898"><ele>16.0</ele><time>2026-04-07T13:48:14.328Z</time></trkpt><trkpt lat="41.0545575" lon="9.5175684"><ele>14.0</ele><time>2026-04-07T13:48:15.328Z</time></trkpt><trkpt lat="41.0546951" lon="9.5177445"><ele>13.666666666666668</ele><time>2026-04-07T13:48:16.328Z</time></trkpt><trkpt lat="41.0548287" lon="9.5179165"><ele>13.333333333333332</ele><time>2026-04-07T13:48:17.328Z</time></trkpt><trkpt lat="41.0549572" lon="9.5180862"><ele>13.0</ele><time>2026-04-07T13:48:18.327Z</time></trkpt><trkpt lat="41.0551013" lon="9.5182332"><ele>13.0</ele><time>2026-04-07T13:48:19.328Z</time></trkpt><trkpt lat="41.0552564" lon="9.518348"><ele>13.0</ele><time>2026-04-07T13:48:20.328Z</time></trkpt><trkpt lat="41.0554223" lon="9.5184414"><ele>13.0</ele><time>2026-04-07T13:48:21.328Z</time></trkpt><trkpt lat="41.0555982" lon="9.518507"><ele>13.0</ele><time>2026-04-07T13:48:22.328Z</time></trkpt><trkpt lat="41.0557865" lon="9.5185556"><ele>13.0</ele><time>2026-04-07T13:48:23.328Z</time></trkpt><trkpt lat="41.0559808" lon="9.5186"><ele>13.0</ele><time>2026-04-07T13:48:24.327Z</time></trkpt><trkpt lat="41.05618" lon="9.5186435"><ele>13.333333333333332</ele><time>2026-04-07T13:48:25.328Z</time></trkpt><trkpt lat="41.0563774" lon="9.5186849"><ele>13.666666666666668</ele><time>2026-04-07T13:48:26.327Z</time></trkpt><trkpt lat="41.0565718" lon="9.5187245"><ele>14.0</ele><time>2026-04-07T13:48:27.328Z</time></trkpt><trkpt lat="41.0567586" lon="9.5187437"><ele>16.0</ele><time>2026-04-07T13:48:28.328Z</time></trkpt><trkpt lat="41.0569436" lon="9.5187371"><ele>18.0</ele><time>2026-04-07T13:48:29.328Z</time></trkpt><trkpt lat="41.0571231" lon="9.5186944"><ele>20.0</ele><time>2026-04-07T13:48:30.328Z</time></trkpt><trkpt lat="41.0572886" lon="9.5186037"><ele>20.333333333333336</ele><time>2026-04-07T13:48:31.328Z</time></trkpt><trkpt lat="41.0574446" lon="9.5184717"><ele>20.666666666666668</ele><time>2026-04-07T13:48:32.328Z</time></trkpt><trkpt lat="41.0575897" lon="9.5183106"><ele>21.0</ele><time>2026-04-07T13:48:33.327Z</time></trkpt><trkpt lat="41.0577261" lon="9.5181323"><ele>22.0</ele><time>2026-04-07T13:48:34.328Z</time></trkpt><trkpt lat="41.0578657" lon="9.5179442"><ele>23.0</ele><time>2026-04-07T13:48:35.328Z</time></trkpt><trkpt lat="41.0580068" lon="9.5177571"><ele>24.0</ele><time>2026-04-07T13:48:36.328Z</time></trkpt><trkpt lat="41.0581469" lon="9.5175686"><ele>24.0</ele><time>2026-04-07T13:48:37.327Z</time></trkpt><trkpt lat="41.0582918" lon="9.5173827"><ele>24.0</ele><time>2026-04-07T13:48:38.328Z</time></trkpt><trkpt lat="41.0584476" lon="9.5172059"><ele>24.0</ele><time>2026-04-07T13:48:39.328Z</time></trkpt><trkpt lat="41.0586151" lon="9.5170487"><ele>26.333333333333336</ele><time>2026-04-07T13:48:40.328Z</time></trkpt><trkpt lat="41.0587923" lon="9.5169145"><ele>28.666666666666668</ele><time>2026-04-07T13:48:41.328Z</time></trkpt><trkpt lat="41.0589786" lon="9.5167787"><ele>31.0</ele><time>2026-04-07T13:48:42.328Z</time></trkpt><trkpt lat="41.0591638" lon="9.5166414"><ele>31.0</ele><time>2026-04-07T13:48:43.328Z</time></trkpt><trkpt lat="41.059349" lon="9.5165072"><ele>31.0</ele><time>2026-04-07T13:48:44.328Z</time></trkpt><trkpt lat="41.059533" lon="9.5163703"><ele>31.0</ele><time>2026-04-07T13:48:45.328Z</time></trkpt><trkpt lat="41.0597119" lon="9.5162379"><ele>32.0</ele><time>2026-04-07T13:48:46.328Z</time></trkpt><trkpt lat="41.0598914" lon="9.5161101"><ele>33.0</ele><time>2026-04-07T13:48:47.328Z</time></trkpt><trkpt lat="41.0600706" lon="9.5159801"><ele>34.0</ele><time>2026-04-07T13:48:48.328Z</time></trkpt><trkpt lat="41.060251" lon="9.5158514"><ele>34.0</ele><time>2026-04-07T13:48:49.328Z</time></trkpt><trkpt lat="41.0604261" lon="9.5157209"><ele>34.0</ele><time>2026-04-07T13:48:50.327Z</time></trkpt><trkpt lat="41.0605978" lon="9.5155949"><ele>34.0</ele><time>2026-04-07T13:48:51.328Z</time></trkpt><trkpt lat="41.0607572" lon="9.5154688"><ele>35.0</ele><time>2026-04-07T13:48:52.328Z</time></trkpt><trkpt lat="41.06091" lon="9.5153435"><ele>36.0</ele><time>2026-04-07T13:48:53.328Z</time></trkpt><trkpt lat="41.0610507" lon="9.5152041"><ele>37.0</ele><time>2026-04-07T13:48:54.327Z</time></trkpt><trkpt lat="41.0611802" lon="9.5150402"><ele>37.0</ele><time>2026-04-07T13:48:55.328Z</time></trkpt><trkpt lat="41.0612889" lon="9.5148544"><ele>37.0</ele><time>2026-04-07T13:48:56.328Z</time></trkpt><trkpt lat="41.061386" lon="9.5146472"><ele>37.0</ele><time>2026-04-07T13:48:57.328Z</time></trkpt><trkpt lat="41.0614737" lon="9.5144348"><ele>37.66666666666667</ele><time>2026-04-07T13:48:58.327Z</time></trkpt><trkpt lat="41.0615641" lon="9.5142202"><ele>38.333333333333336</ele><time>2026-04-07T13:48:59.328Z</time></trkpt><trkpt lat="41.0616529" lon="9.5140092"><ele>39.0</ele><time>2026-04-07T13:49:00.328Z</time></trkpt><trkpt lat="41.061757" lon="9.5138121"><ele>41.666666666666664</ele><time>2026-04-07T13:49:01.328Z</time></trkpt><trkpt lat="41.0618862" lon="9.5136367"><ele>44.33333333333333</ele><time>2026-04-07T13:49:02.328Z</time></trkpt><trkpt lat="41.0620347" lon="9.5134994"><ele>47.0</ele><time>2026-04-07T13:49:03.328Z</time></trkpt><trkpt lat="41.0621986" lon="9.5133941"><ele>47.0</ele><time>2026-04-07T13:49:04.328Z</time></trkpt><trkpt lat="41.0623724" lon="9.5133375"><ele>47.0</ele><time>2026-04-07T13:49:05.328Z</time></trkpt><trkpt lat="41.0625537" lon="9.5133148"><ele>47.0</ele><time>2026-04-07T13:49:06.328Z</time></trkpt><trkpt lat="41.0627366" lon="9.5132998"><ele>45.666666666666664</ele><time>2026-04-07T13:49:07.328Z</time></trkpt><trkpt lat="41.0629176" lon="9.5132857"><ele>44.333333333333336</ele><time>2026-04-07T13:49:08.328Z</time></trkpt><trkpt lat="41.0631017" lon="9.5132712"><ele>43.0</ele><time>2026-04-07T13:49:09.328Z</time></trkpt><trkpt lat="41.0632849" lon="9.5132519"><ele>46.66666666666667</ele><time>2026-04-07T13:49:10.328Z</time></trkpt><trkpt lat="41.0634603" lon="9.5132342"><ele>50.333333333333336</ele><time>2026-04-07T13:49:11.328Z</time></trkpt><trkpt lat="41.0636396" lon="9.5132187"><ele>54.0</ele><time>2026-04-07T13:49:12.327Z</time></trkpt><trkpt lat="41.0638191" lon="9.5132053"><ele>54.0</ele><time>2026-04-07T13:49:13.327Z</time></trkpt><trkpt lat="41.0640011" lon="9.5131862"><ele>54.0</ele><time>2026-04-07T13:49:14.327Z</time></trkpt><trkpt lat="41.0641849" lon="9.5131599"><ele>54.0</ele><time>2026-04-07T13:49:15.328Z</time></trkpt><trkpt lat="41.0643761" lon="9.5131237"><ele>55.0</ele><time>2026-04-07T13:49:16.328Z</time></trkpt><trkpt lat="41.064571" lon="9.5130856"><ele>56.0</ele><time>2026-04-07T13:49:17.327Z</time></trkpt><trkpt lat="41.0647666" lon="9.5130417"><ele>57.0</ele><time>2026-04-07T13:49:18.328Z</time></trkpt><trkpt lat="41.0649606" lon="9.5129999"><ele>57.33333333333333</ele><time>2026-04-07T13:49:19.328Z</time></trkpt><trkpt lat="41.0651458" lon="9.5129333"><ele>57.666666666666664</ele><time>2026-04-07T13:49:20.328Z</time></trkpt><trkpt lat="41.0653149" lon="9.5128312"><ele>58.0</ele><time>2026-04-07T13:49:21.328Z</time></trkpt><trkpt lat="41.0654614" lon="9.5127023"><ele>62.666666666666664</ele><time>2026-04-07T13:49:22.327Z</time></trkpt><trkpt lat="41.0655793" lon="9.5125417"><ele>67.33333333333333</ele><time>2026-04-07T13:49:23.328Z</time></trkpt><trkpt lat="41.0656713" lon="9.5123489"><ele>72.0</ele><time>2026-04-07T13:49:24.328Z</time></trkpt><trkpt lat="41.065753" lon="9.5121384"><ele>72.33333333333333</ele><time>2026-04-07T13:49:25.328Z</time></trkpt><trkpt lat="41.065855" lon="9.5119409"><ele>72.66666666666666</ele><time>2026-04-07T13:49:26.328Z</time></trkpt><trkpt lat="41.0659782" lon="9.511762"><ele>73.0</ele><time>2026-04-07T13:49:27.328Z</time></trkpt><trkpt lat="41.0661167" lon="9.511599"><ele>73.0</ele><time>2026-04-07T13:49:28.327Z</time></trkpt><trkpt lat="41.0662598" lon="9.5114499"><ele>73.0</ele><time>2026-04-07T13:49:29.328Z</time></trkpt><trkpt lat="41.0663927" lon="9.5112975"><ele>73.0</ele><time>2026-04-07T13:49:30.328Z</time></trkpt><trkpt lat="41.0665189" lon="9.5111398"><ele>73.66666666666666</ele><time>2026-04-07T13:49:31.328Z</time></trkpt><trkpt lat="41.0666327" lon="9.5109769"><ele>74.33333333333333</ele><time>2026-04-07T13:49:32.327Z</time></trkpt><trkpt lat="41.0667223" lon="9.5107887"><ele>75.0</ele><time>2026-04-07T13:49:33.327Z</time></trkpt><trkpt lat="41.0667898" lon="9.510586"><ele>76.33333333333333</ele><time>2026-04-07T13:49:34.327Z</time></trkpt><trkpt lat="41.0668379" lon="9.5103657"><ele>77.66666666666666</ele><time>2026-04-07T13:49:35.327Z</time></trkpt><trkpt lat="41.0668555" lon="9.5101425"><ele>79.0</ele><time>2026-04-07T13:49:36.328Z</time></trkpt><trkpt lat="41.0668512" lon="9.5099239"><ele>79.0</ele><time>2026-04-07T13:49:37.328Z</time></trkpt><trkpt lat="41.06684" lon="9.5097103"><ele>79.0</ele><time>2026-04-07T13:49:38.328Z</time></trkpt><trkpt lat="41.0668327" lon="9.5095039"><ele>79.0</ele><time>2026-04-07T13:49:39.328Z</time></trkpt><trkpt lat="41.0668234" lon="9.5093123"><ele>80.75</ele><time>2026-04-07T13:49:40.328Z</time></trkpt><trkpt lat="41.066819" lon="9.5091338"><ele>82.5</ele><time>2026-04-07T13:49:41.328Z</time></trkpt><trkpt lat="41.0668228" lon="9.5089537"><ele>84.25</ele><time>2026-04-07T13:49:42.328Z</time></trkpt><trkpt lat="41.0668433" lon="9.5087778"><ele>86.0</ele><time>2026-04-07T13:49:43.328Z</time></trkpt><trkpt lat="41.066882" lon="9.508612"><ele>86.5</ele><time>2026-04-07T13:49:44.328Z</time></trkpt><trkpt lat="41.0669483" lon="9.5084517"><ele>87.0</ele><time>2026-04-07T13:49:45.327Z</time></trkpt><trkpt lat="41.0670411" lon="9.5082991"><ele>87.5</ele><time>2026-04-07T13:49:46.327Z</time></trkpt><trkpt lat="41.067154" lon="9.5081612"><ele>88.0</ele><time>2026-04-07T13:49:47.328Z</time></trkpt><trkpt lat="41.0672771" lon="9.5080505"><ele>88.0</ele><time>2026-04-07T13:49:48.328Z</time></trkpt><trkpt lat="41.067411" lon="9.507966"><ele>88.0</ele><time>2026-04-07T13:49:49.328Z</time></trkpt><trkpt lat="41.0675517" lon="9.5079052"><ele>88.0</ele><time>2026-04-07T13:49:50.327Z</time></trkpt><trkpt lat="41.067697" lon="9.5078531"><ele>88.0</ele><time>2026-04-07T13:49:51.328Z</time></trkpt><trkpt lat="41.0678419" lon="9.507805"><ele>88.5</ele><time>2026-04-07T13:49:52.328Z</time></trkpt><trkpt lat="41.067984" lon="9.5077477"><ele>89.0</ele><time>2026-04-07T13:49:53.327Z</time></trkpt><trkpt lat="41.0681272" lon="9.5076904"><ele>89.5</ele><time>2026-04-07T13:49:54.327Z</time></trkpt><trkpt lat="41.0682666" lon="9.507637"><ele>90.0</ele><time>2026-04-07T13:49:55.327Z</time></trkpt><trkpt lat="41.0684043" lon="9.5075844"><ele>90.75</ele><time>2026-04-07T13:49:56.328Z</time></trkpt><trkpt lat="41.0685467" lon="9.507536"><ele>91.5</ele><time>2026-04-07T13:49:57.328Z</time></trkpt><trkpt lat="41.0686915" lon="9.5074933"><ele>92.25</ele><time>2026-04-07T13:49:58.327Z</time></trkpt><trkpt lat="41.0688355" lon="9.5074389"><ele>93.0</ele><time>2026-04-07T13:49:59.328Z</time></trkpt><trkpt lat="41.0689751" lon="9.5073905"><ele>93.75</ele><time>2026-04-07T13:50:00.328Z</time></trkpt><trkpt lat="41.0691127" lon="9.5073361"><ele>94.5</ele><time>2026-04-07T13:50:01.328Z</time></trkpt><trkpt lat="41.0692463" lon="9.5072867"><ele>95.25</ele><time>2026-04-07T13:50:02.328Z</time></trkpt><trkpt lat="41.0693812" lon="9.5072362"><ele>96.0</ele><time>2026-04-07T13:50:03.328Z</time></trkpt><trkpt lat="41.0695176" lon="9.5071839"><ele>96.0</ele><time>2026-04-07T13:50:04.328Z</time></trkpt><trkpt lat="41.0696576" lon="9.5071306"><ele>96.0</ele><time>2026-04-07T13:50:05.328Z</time></trkpt><trkpt lat="41.0697997" lon="9.5070781"><ele>96.0</ele><time>2026-04-07T13:50:06.328Z</time></trkpt><trkpt lat="41.0699478" lon="9.5070208"><ele>96.0</ele><time>2026-04-07T13:50:07.328Z</time></trkpt><trkpt lat="41.0700979" lon="9.5069708"><ele>93.0</ele><time>2026-04-07T13:50:08.328Z</time></trkpt><trkpt lat="41.0702529" lon="9.5069134"><ele>90.0</ele><time>2026-04-07T13:50:09.328Z</time></trkpt><trkpt lat="41.07041" lon="9.5068568"><ele>87.0</ele><time>2026-04-07T13:50:10.328Z</time></trkpt><trkpt lat="41.0705694" lon="9.5068122"><ele>87.0</ele><time>2026-04-07T13:50:11.328Z</time></trkpt><trkpt lat="41.0707316" lon="9.5067973"><ele>87.0</ele><time>2026-04-07T13:50:12.327Z</time></trkpt><trkpt lat="41.0708931" lon="9.5068098"><ele>87.0</ele><time>2026-04-07T13:50:13.328Z</time></trkpt><trkpt lat="41.0710476" lon="9.5068617"><ele>87.0</ele><time>2026-04-07T13:50:14.328Z</time></trkpt><trkpt lat="41.0711902" lon="9.50695"><ele>87.0</ele><time>2026-04-07T13:50:15.327Z</time></trkpt><trkpt lat="41.071324" lon="9.5070585"><ele>87.0</ele><time>2026-04-07T13:50:16.328Z</time></trkpt><trkpt lat="41.0714405" lon="9.5071987"><ele>86.0</ele><time>2026-04-07T13:50:17.327Z</time></trkpt><trkpt lat="41.071545" lon="9.5073524"><ele>85.0</ele><time>2026-04-07T13:50:18.327Z</time></trkpt><trkpt lat="41.0716403" lon="9.5075127"><ele>84.0</ele><time>2026-04-07T13:50:19.328Z</time></trkpt><trkpt lat="41.0717368" lon="9.5076753"><ele>84.0</ele><time>2026-04-07T13:50:20.328Z</time></trkpt><trkpt lat="41.0718322" lon="9.5078424"><ele>84.0</ele><time>2026-04-07T13:50:21.328Z</time></trkpt><trkpt lat="41.0719286" lon="9.5080061"><ele>84.0</ele><time>2026-04-07T13:50:22.327Z</time></trkpt><trkpt lat="41.0720247" lon="9.5081713"><ele>86.66666666666667</ele><time>2026-04-07T13:50:23.328Z</time></trkpt><trkpt lat="41.0721238" lon="9.5083356"><ele>89.33333333333334</ele><time>2026-04-07T13:50:24.328Z</time></trkpt><trkpt lat="41.0722187" lon="9.5085082"><ele>92.0</ele><time>2026-04-07T13:50:25.328Z</time></trkpt><trkpt lat="41.0723183" lon="9.5086812"><ele>91.33333333333334</ele><time>2026-04-07T13:50:26.327Z</time></trkpt><trkpt lat="41.0724144" lon="9.5088535"><ele>90.66666666666667</ele><time>2026-04-07T13:50:27.328Z</time></trkpt><trkpt lat="41.0725138" lon="9.5090228"><ele>90.0</ele><time>2026-04-07T13:50:28.328Z</time></trkpt><trkpt lat="41.0726139" lon="9.5091855"><ele>90.0</ele><time>2026-04-07T13:50:29.328Z</time></trkpt><trkpt lat="41.0727248" lon="9.5093391"><ele>90.0</ele><time>2026-04-07T13:50:30.327Z</time></trkpt><trkpt lat="41.0728591" lon="9.5094654"><ele>90.0</ele><time>2026-04-07T13:50:31.327Z</time></trkpt><trkpt lat="41.0730025" lon="9.5095591"><ele>88.66666666666667</ele><time>2026-04-07T13:50:32.328Z</time></trkpt><trkpt lat="41.0731574" lon="9.5096244"><ele>87.33333333333334</ele><time>2026-04-07T13:50:33.328Z</time></trkpt><trkpt lat="41.073318" lon="9.5096461"><ele>86.0</ele><time>2026-04-07T13:50:34.328Z</time></trkpt><trkpt lat="41.0734781" lon="9.5096365"><ele>84.0</ele><time>2026-04-07T13:50:35.327Z</time></trkpt><trkpt lat="41.0736311" lon="9.5096086"><ele>82.0</ele><time>2026-04-07T13:50:36.328Z</time></trkpt><trkpt lat="41.0737813" lon="9.5095753"><ele>80.0</ele><time>2026-04-07T13:50:37.327Z</time></trkpt><trkpt lat="41.0739312" lon="9.5095395"><ele>86.66666666666667</ele><time>2026-04-07T13:50:38.328Z</time></trkpt><trkpt lat="41.0740847" lon="9.5095038"><ele>93.33333333333334</ele><time>2026-04-07T13:50:39.328Z</time></trkpt><trkpt lat="41.0742411" lon="9.5094655"><ele>100.0</ele><time>2026-04-07T13:50:40.328Z</time></trkpt><trkpt lat="41.0744001" lon="9.5094273"><ele>100.66666666666667</ele><time>2026-04-07T13:50:41.328Z</time></trkpt><trkpt lat="41.0745634" lon="9.5093889"><ele>101.33333333333334</ele><time>2026-04-07T13:50:42.327Z</time></trkpt><trkpt lat="41.0747251" lon="9.5093564"><ele>102.0</ele><time>2026-04-07T13:50:43.328Z</time></trkpt><trkpt lat="41.0748845" lon="9.50933"><ele>102.0</ele><time>2026-04-07T13:50:44.328Z</time></trkpt><trkpt lat="41.0750426" lon="9.5093249"><ele>102.0</ele><time>2026-04-07T13:50:45.328Z</time></trkpt><trkpt lat="41.0751969" lon="9.5093488"><ele>102.0</ele><time>2026-04-07T13:50:46.328Z</time></trkpt><trkpt lat="41.075349" lon="9.5093956"><ele>102.0</ele><time>2026-04-07T13:50:47.328Z</time></trkpt><trkpt lat="41.0754819" lon="9.5094806"><ele>102.0</ele><time>2026-04-07T13:50:48.328Z</time></trkpt><trkpt lat="41.0756039" lon="9.5095959"><ele>102.0</ele><time>2026-04-07T13:50:49.328Z</time></trkpt><trkpt lat="41.0757018" lon="9.5097217"><ele>102.0</ele><time>2026-04-07T13:50:50.327Z</time></trkpt><trkpt lat="41.0757798" lon="9.5098576"><ele>101.75</ele><time>2026-04-07T13:50:51.327Z</time></trkpt><trkpt lat="41.0758431" lon="9.5100176"><ele>101.5</ele><time>2026-04-07T13:50:52.327Z</time></trkpt><trkpt lat="41.0758823" lon="9.5101903"><ele>101.25</ele><time>2026-04-07T13:50:53.328Z</time></trkpt><trkpt lat="41.0759051" lon="9.5103701"><ele>101.0</ele><time>2026-04-07T13:50:54.328Z</time></trkpt><trkpt lat="41.0759117" lon="9.5105384"><ele>101.5</ele><time>2026-04-07T13:50:55.328Z</time></trkpt><trkpt lat="41.0759107" lon="9.510711"><ele>102.0</ele><time>2026-04-07T13:50:56.328Z</time></trkpt><trkpt lat="41.0759026" lon="9.5108804"><ele>102.5</ele><time>2026-04-07T13:50:57.328Z</time></trkpt><trkpt lat="41.0758959" lon="9.5110547"><ele>103.0</ele><time>2026-04-07T13:50:58.328Z</time></trkpt><trkpt lat="41.0758821" lon="9.5112264"><ele>104.0</ele><time>2026-04-07T13:50:59.328Z</time></trkpt><trkpt lat="41.0758706" lon="9.5113963"><ele>105.0</ele><time>2026-04-07T13:51:00.328Z</time></trkpt><trkpt lat="41.0758637" lon="9.5115734"><ele>106.0</ele><time>2026-04-07T13:51:01.328Z</time></trkpt><trkpt lat="41.0758526" lon="9.5117498"><ele>107.0</ele><time>2026-04-07T13:51:02.328Z</time></trkpt><trkpt lat="41.0758424" lon="9.5119357"><ele>107.75</ele><time>2026-04-07T13:51:03.328Z</time></trkpt><trkpt lat="41.075833" lon="9.5121201"><ele>108.5</ele><time>2026-04-07T13:51:04.327Z</time></trkpt><trkpt lat="41.0758194" lon="9.5123043"><ele>109.25</ele><time>2026-04-07T13:51:05.328Z</time></trkpt><trkpt lat="41.0758061" lon="9.5124895"><ele>110.0</ele><time>2026-04-07T13:51:06.327Z</time></trkpt><trkpt lat="41.0757889" lon="9.5126811"><ele>110.0</ele><time>2026-04-07T13:51:07.327Z</time></trkpt><trkpt lat="41.0757707" lon="9.5128712"><ele>110.0</ele><time>2026-04-07T13:51:08.327Z</time></trkpt><trkpt lat="41.0757518" lon="9.5130593"><ele>110.0</ele><time>2026-04-07T13:51:09.327Z</time></trkpt><trkpt lat="41.0757312" lon="9.5132463"><ele>110.0</ele><time>2026-04-07T13:51:10.327Z</time></trkpt><trkpt lat="41.0757102" lon="9.5134293"><ele>105.75</ele><time>2026-04-07T13:51:11.328Z</time></trkpt><trkpt lat="41.0756885" lon="9.51361"><ele>101.5</ele><time>2026-04-07T13:51:12.328Z</time></trkpt><trkpt lat="41.0756673" lon="9.513787"><ele>97.25</ele><time>2026-04-07T13:51:13.328Z</time></trkpt><trkpt lat="41.0756469" lon="9.5139605"><ele>93.0</ele><time>2026-04-07T13:51:14.328Z</time></trkpt><trkpt lat="41.0756301" lon="9.5141257"><ele>92.5</ele><time>2026-04-07T13:51:15.328Z</time></trkpt><trkpt lat="41.0756116" lon="9.514287"><ele>92.0</ele><time>2026-04-07T13:51:16.328Z</time></trkpt><trkpt lat="41.0755953" lon="9.5144432"><ele>91.5</ele><time>2026-04-07T13:51:17.327Z</time></trkpt><trkpt lat="41.0755872" lon="9.5146004"><ele>91.0</ele><time>2026-04-07T13:51:18.328Z</time></trkpt><trkpt lat="41.0755878" lon="9.5147611"><ele>92.0</ele><time>2026-04-07T13:51:19.328Z</time></trkpt><trkpt lat="41.075592" lon="9.514919"><ele>93.0</ele><time>2026-04-07T13:51:20.327Z</time></trkpt><trkpt lat="41.075602" lon="9.5150818"><ele>94.0</ele><time>2026-04-07T13:51:21.328Z</time></trkpt><trkpt lat="41.0756181" lon="9.5152499"><ele>95.0</ele><time>2026-04-07T13:51:22.327Z</time></trkpt><trkpt lat="41.0756354" lon="9.5154234"><ele>95.0</ele><time>2026-04-07T13:51:23.328Z</time></trkpt><trkpt lat="41.0756484" lon="9.5155977"><ele>95.0</ele><time>2026-04-07T13:51:24.328Z</time></trkpt><trkpt lat="41.075663" lon="9.5157712"><ele>95.0</ele><time>2026-04-07T13:51:25.328Z</time></trkpt><trkpt lat="41.0756809" lon="9.5159452"><ele>95.0</ele><time>2026-04-07T13:51:26.327Z</time></trkpt><trkpt lat="41.0757021" lon="9.5161149"><ele>94.25</ele><time>2026-04-07T13:51:27.328Z</time></trkpt><trkpt lat="41.0757238" lon="9.5162815"><ele>93.5</ele><time>2026-04-07T13:51:28.328Z</time></trkpt><trkpt lat="41.0757533" lon="9.5164429"><ele>92.75</ele><time>2026-04-07T13:51:29.328Z</time></trkpt><trkpt lat="41.0757814" lon="9.5165999"><ele>92.0</ele><time>2026-04-07T13:51:30.328Z</time></trkpt><trkpt lat="41.0758185" lon="9.5167622"><ele>97.75</ele><time>2026-04-07T13:51:31.328Z</time></trkpt><trkpt lat="41.0758557" lon="9.5169237"><ele>103.5</ele><time>2026-04-07T13:51:32.328Z</time></trkpt><trkpt lat="41.0758929" lon="9.5170951"><ele>109.25</ele><time>2026-04-07T13:51:33.328Z</time></trkpt><trkpt lat="41.07593" lon="9.5172685"><ele>115.0</ele><time>2026-04-07T13:51:34.328Z</time></trkpt><trkpt lat="41.0759678" lon="9.5174426"><ele>115.0</ele><time>2026-04-07T13:51:35.328Z</time></trkpt><trkpt lat="41.0760052" lon="9.5176045"><ele>115.0</ele><time>2026-04-07T13:51:36.327Z</time></trkpt><trkpt lat="41.0760457" lon="9.5177457"><ele>115.0</ele><time>2026-04-07T13:51:37.328Z</time></trkpt><trkpt lat="41.0760899" lon="9.5178724"><ele>115.0</ele><time>2026-04-07T13:51:38.328Z</time></trkpt><trkpt lat="41.0761387" lon="9.5179875"><ele>115.0</ele><time>2026-04-07T13:51:39.328Z</time></trkpt><trkpt lat="41.0761919" lon="9.5180914"><ele>112.0</ele><time>2026-04-07T13:51:40.328Z</time></trkpt><trkpt lat="41.0762528" lon="9.5181859"><ele>109.0</ele><time>2026-04-07T13:51:41.328Z</time></trkpt><trkpt lat="41.0763218" lon="9.5182686"><ele>106.0</ele><time>2026-04-07T13:51:42.327Z</time></trkpt><trkpt lat="41.0764015" lon="9.5183439"><ele>103.0</ele><time>2026-04-07T13:51:43.327Z</time></trkpt><trkpt lat="41.0764898" lon="9.5184129"><ele>100.0</ele><time>2026-04-07T13:51:44.328Z</time></trkpt><trkpt lat="41.0765858" lon="9.5184784"><ele>98.5</ele><time>2026-04-07T13:51:45.328Z</time></trkpt><trkpt lat="41.0766943" lon="9.5185477"><ele>97.0</ele><time>2026-04-07T13:51:46.328Z</time></trkpt><trkpt lat="41.0768097" lon="9.5186247"><ele>95.5</ele><time>2026-04-07T13:51:47.328Z</time></trkpt><trkpt lat="41.0769415" lon="9.5187052"><ele>94.0</ele><time>2026-04-07T13:51:48.328Z</time></trkpt><trkpt lat="41.0770818" lon="9.5187859"><ele>94.0</ele><time>2026-04-07T13:51:49.327Z</time></trkpt><trkpt lat="41.077229" lon="9.5188764"><ele>94.0</ele><time>2026-04-07T13:51:50.328Z</time></trkpt><trkpt lat="41.0773872" lon="9.5189721"><ele>94.0</ele><time>2026-04-07T13:51:51.328Z</time></trkpt><trkpt lat="41.0775467" lon="9.5190686"><ele>97.66666666666666</ele><time>2026-04-07T13:51:52.328Z</time></trkpt><trkpt lat="41.0777156" lon="9.5191681"><ele>101.33333333333333</ele><time>2026-04-07T13:51:53.328Z</time></trkpt><trkpt lat="41.0778783" lon="9.5192685"><ele>105.0</ele><time>2026-04-07T13:51:54.328Z</time></trkpt><trkpt lat="41.0780357" lon="9.5193633"><ele>105.0</ele><time>2026-04-07T13:51:55.328Z</time></trkpt><trkpt lat="41.0781915" lon="9.5194545"><ele>105.0</ele><time>2026-04-07T13:51:56.328Z</time></trkpt><trkpt lat="41.0783422" lon="9.519543"><ele>105.0</ele><time>2026-04-07T13:51:57.327Z</time></trkpt><trkpt lat="41.0784901" lon="9.5196333"><ele>105.33333333333334</ele><time>2026-04-07T13:51:58.328Z</time></trkpt><trkpt lat="41.0786349" lon="9.5197144"><ele>105.66666666666667</ele><time>2026-04-07T13:51:59.327Z</time></trkpt><trkpt lat="41.0787845" lon="9.519803"><ele>106.0</ele><time>2026-04-07T13:52:00.327Z</time></trkpt><trkpt lat="41.0789312" lon="9.51989"><ele>106.0</ele><time>2026-04-07T13:52:01.328Z</time></trkpt><trkpt lat="41.0790815" lon="9.5199823"><ele>106.0</ele><time>2026-04-07T13:52:02.328Z</time></trkpt><trkpt lat="41.0792356" lon="9.5200777"><ele>106.0</ele><time>2026-04-07T13:52:03.328Z</time></trkpt><trkpt lat="41.0793873" lon="9.5201745"><ele>105.0</ele><time>2026-04-07T13:52:04.328Z</time></trkpt><trkpt lat="41.0795408" lon="9.5202719"><ele>104.0</ele><time>2026-04-07T13:52:05.328Z</time></trkpt><trkpt lat="41.0796863" lon="9.5203694"><ele>103.0</ele><time>2026-04-07T13:52:06.328Z</time></trkpt><trkpt lat="41.0798132" lon="9.5204804"><ele>103.0</ele><time>2026-04-07T13:52:07.327Z</time></trkpt><trkpt lat="41.0799252" lon="9.5206064"><ele>103.0</ele><time>2026-04-07T13:52:08.328Z</time></trkpt><trkpt lat="41.0800208" lon="9.5207443"><ele>103.0</ele><time>2026-04-07T13:52:09.328Z</time></trkpt><trkpt lat="41.0801027" lon="9.5208959"><ele>103.0</ele><time>2026-04-07T13:52:10.327Z</time></trkpt><trkpt lat="41.0801818" lon="9.5210523"><ele>103.0</ele><time>2026-04-07T13:52:11.328Z</time></trkpt><trkpt lat="41.080259" lon="9.5212149"><ele>103.0</ele><time>2026-04-07T13:52:12.328Z</time></trkpt><trkpt lat="41.0803443" lon="9.521374"><ele>103.0</ele><time>2026-04-07T13:52:13.327Z</time></trkpt><trkpt lat="41.0804337" lon="9.5215293"><ele>103.0</ele><time>2026-04-07T13:52:14.328Z</time></trkpt><trkpt lat="41.0805303" lon="9.521671"><ele>102.0</ele><time>2026-04-07T13:52:15.328Z</time></trkpt><trkpt lat="41.080641" lon="9.5217984"><ele>101.0</ele><time>2026-04-07T13:52:16.328Z</time></trkpt><trkpt lat="41.0807685" lon="9.5219056"><ele>100.0</ele><time>2026-04-07T13:52:17.328Z</time></trkpt><trkpt lat="41.0809028" lon="9.5219947"><ele>99.0</ele><time>2026-04-07T13:52:18.328Z</time></trkpt><trkpt lat="41.0810463" lon="9.5220593"><ele>96.5</ele><time>2026-04-07T13:52:19.328Z</time></trkpt><trkpt lat="41.0811913" lon="9.5221104"><ele>94.0</ele><time>2026-04-07T13:52:20.327Z</time></trkpt><trkpt lat="41.0813316" lon="9.5221543"><ele>91.5</ele><time>2026-04-07T13:52:21.323Z</time></trkpt><trkpt lat="41.0814728" lon="9.5222042"><ele>89.0</ele><time>2026-04-07T13:52:22.328Z</time></trkpt><trkpt lat="41.0816103" lon="9.5222583"><ele>88.75</ele><time>2026-04-07T13:52:23.328Z</time></trkpt><trkpt lat="41.0817453" lon="9.5223208"><ele>88.5</ele><time>2026-04-07T13:52:24.328Z</time></trkpt><trkpt lat="41.0818794" lon="9.5223979"><ele>88.25</ele><time>2026-04-07T13:52:25.328Z</time></trkpt><trkpt lat="41.0820072" lon="9.5224832"><ele>88.0</ele><time>2026-04-07T13:52:26.328Z</time></trkpt><trkpt lat="41.0821443" lon="9.522567"><ele>88.0</ele><time>2026-04-07T13:52:27.328Z</time></trkpt><trkpt lat="41.0822781" lon="9.5226578"><ele>88.0</ele><time>2026-04-07T13:52:28.328Z</time></trkpt><trkpt lat="41.0824169" lon="9.5227462"><ele>88.0</ele><time>2026-04-07T13:52:29.327Z</time></trkpt><trkpt lat="41.0825331" lon="9.5228409"><ele>88.0</ele><time>2026-04-07T13:52:30.328Z</time></trkpt><trkpt lat="41.0826393" lon="9.5229424"><ele>87.0</ele><time>2026-04-07T13:52:31.328Z</time></trkpt><trkpt lat="41.08274" lon="9.5230653"><ele>86.0</ele><time>2026-04-07T13:52:32.328Z</time></trkpt><trkpt lat="41.0828269" lon="9.5232059"><ele>85.0</ele><time>2026-04-07T13:52:33.327Z</time></trkpt><trkpt lat="41.0828985" lon="9.5233521"><ele>84.0</ele><time>2026-04-07T13:52:34.328Z</time></trkpt><trkpt lat="41.0829647" lon="9.5234991"><ele>84.0</ele><time>2026-04-07T13:52:35.327Z</time></trkpt><trkpt lat="41.0830322" lon="9.523639"><ele>84.0</ele><time>2026-04-07T13:52:36.328Z</time></trkpt><trkpt lat="41.0830998" lon="9.5237812"><ele>84.0</ele><time>2026-04-07T13:52:37.327Z</time></trkpt><trkpt lat="41.0831698" lon="9.5239184"><ele>84.0</ele><time>2026-04-07T13:52:38.328Z</time></trkpt><trkpt lat="41.0832392" lon="9.5240521"><ele>84.0</ele><time>2026-04-07T13:52:39.327Z</time></trkpt><trkpt lat="41.0833134" lon="9.5241832"><ele>84.0</ele><time>2026-04-07T13:52:40.328Z</time></trkpt><trkpt lat="41.083391" lon="9.5243141"><ele>84.0</ele><time>2026-04-07T13:52:41.328Z</time></trkpt><trkpt lat="41.08347" lon="9.5244423"><ele>84.0</ele><time>2026-04-07T13:52:42.327Z</time></trkpt><trkpt lat="41.0835555" lon="9.5245682"><ele>81.75</ele><time>2026-04-07T13:52:43.328Z</time></trkpt><trkpt lat="41.0836469" lon="9.5246988"><ele>79.5</ele><time>2026-04-07T13:52:44.327Z</time></trkpt><trkpt lat="41.0837411" lon="9.5248303"><ele>77.25</ele><time>2026-04-07T13:52:45.328Z</time></trkpt><trkpt lat="41.0838434" lon="9.5249586"><ele>75.0</ele><time>2026-04-07T13:52:46.328Z</time></trkpt><trkpt lat="41.0839547" lon="9.5250777"><ele>75.0</ele><time>2026-04-07T13:52:47.327Z</time></trkpt><trkpt lat="41.0840794" lon="9.525173"><ele>75.0</ele><time>2026-04-07T13:52:48.328Z</time></trkpt><trkpt lat="41.0842097" lon="9.5252421"><ele>75.0</ele><time>2026-04-07T13:52:49.327Z</time></trkpt><trkpt lat="41.0843436" lon="9.5252944"><ele>75.0</ele><time>2026-04-07T13:52:50.328Z</time></trkpt><trkpt lat="41.0844812" lon="9.5253368"><ele>74.75</ele><time>2026-04-07T13:52:51.328Z</time></trkpt><trkpt lat="41.0846127" lon="9.525371"><ele>74.5</ele><time>2026-04-07T13:52:52.328Z</time></trkpt><trkpt lat="41.0847479" lon="9.5254093"><ele>74.25</ele><time>2026-04-07T13:52:53.327Z</time></trkpt><trkpt lat="41.0848832" lon="9.5254404"><ele>74.0</ele><time>2026-04-07T13:52:54.328Z</time></trkpt><trkpt lat="41.0850244" lon="9.5254763"><ele>72.5</ele><time>2026-04-07T13:52:55.327Z</time></trkpt><trkpt lat="41.085164" lon="9.5255192"><ele>71.0</ele><time>2026-04-07T13:52:56.328Z</time></trkpt><trkpt lat="41.0853066" lon="9.5255633"><ele>69.5</ele><time>2026-04-07T13:52:57.328Z</time></trkpt><trkpt lat="41.0854426" lon="9.5256055"><ele>68.0</ele><time>2026-04-07T13:52:58.328Z</time></trkpt><trkpt lat="41.0855761" lon="9.5256579"><ele>68.0</ele><time>2026-04-07T13:52:59.328Z</time></trkpt><trkpt lat="41.0857009" lon="9.5257169"><ele>68.0</ele><time>2026-04-07T13:53:00.328Z</time></trkpt><trkpt lat="41.0858211" lon="9.5258017"><ele>68.0</ele><time>2026-04-07T13:53:01.327Z</time></trkpt><trkpt lat="41.0859272" lon="9.525899"><ele>68.0</ele><time>2026-04-07T13:53:02.328Z</time></trkpt><trkpt lat="41.0860259" lon="9.5260187"><ele>67.0</ele><time>2026-04-07T13:53:03.328Z</time></trkpt><trkpt lat="41.086112" lon="9.5261549"><ele>66.0</ele><time>2026-04-07T13:53:04.328Z</time></trkpt><trkpt lat="41.0861845" lon="9.5263151"><ele>65.0</ele><time>2026-04-07T13:53:05.328Z</time></trkpt><trkpt lat="41.0862509" lon="9.5264943"><ele>64.0</ele><time>2026-04-07T13:53:06.328Z</time></trkpt><trkpt lat="41.0863159" lon="9.5266832"><ele>62.25</ele><time>2026-04-07T13:53:07.328Z</time></trkpt><trkpt lat="41.0863753" lon="9.5268631"><ele>60.5</ele><time>2026-04-07T13:53:08.327Z</time></trkpt><trkpt lat="41.0864371" lon="9.5270404"><ele>58.75</ele><time>2026-04-07T13:53:09.327Z</time></trkpt><trkpt lat="41.0865002" lon="9.5272092"><ele>57.0</ele><time>2026-04-07T13:53:10.327Z</time></trkpt><trkpt lat="41.0865573" lon="9.5273824"><ele>58.0</ele><time>2026-04-07T13:53:11.328Z</time></trkpt><trkpt lat="41.0866244" lon="9.5275607"><ele>59.0</ele><time>2026-04-07T13:53:12.327Z</time></trkpt><trkpt lat="41.0866911" lon="9.5277425"><ele>60.0</ele><time>2026-04-07T13:53:13.327Z</time></trkpt><trkpt lat="41.0867523" lon="9.5279244"><ele>58.0</ele><time>2026-04-07T13:53:14.328Z</time></trkpt><trkpt lat="41.0868143" lon="9.5281031"><ele>56.0</ele><time>2026-04-07T13:53:15.328Z</time></trkpt><trkpt lat="41.0868767" lon="9.5282814"><ele>54.0</ele><time>2026-04-07T13:53:16.328Z</time></trkpt><trkpt lat="41.0869451" lon="9.5284563"><ele>52.0</ele><time>2026-04-07T13:53:17.328Z</time></trkpt><trkpt lat="41.0870285" lon="9.5286191"><ele>51.25</ele><time>2026-04-07T13:53:18.327Z</time></trkpt><trkpt lat="41.0871199" lon="9.5287636"><ele>50.5</ele><time>2026-04-07T13:53:19.327Z</time></trkpt><trkpt lat="41.0872355" lon="9.5288978"><ele>49.75</ele><time>2026-04-07T13:53:20.328Z</time></trkpt><trkpt lat="41.0873521" lon="9.5290158"><ele>49.0</ele><time>2026-04-07T13:53:21.328Z</time></trkpt><trkpt lat="41.0874797" lon="9.5291194"><ele>49.0</ele><time>2026-04-07T13:53:22.328Z</time></trkpt><trkpt lat="41.0876183" lon="9.5292186"><ele>49.0</ele><time>2026-04-07T13:53:23.327Z</time></trkpt><trkpt lat="41.0877539" lon="9.5293134"><ele>49.0</ele><time>2026-04-07T13:53:24.328Z</time></trkpt><trkpt lat="41.0878877" lon="9.5294115"><ele>49.0</ele><time>2026-04-07T13:53:25.328Z</time></trkpt><trkpt lat="41.0880293" lon="9.5294939"><ele>49.0</ele><time>2026-04-07T13:53:26.328Z</time></trkpt><trkpt lat="41.0881815" lon="9.5295694"><ele>49.0</ele><time>2026-04-07T13:53:27.328Z</time></trkpt><trkpt lat="41.0883376" lon="9.5296395"><ele>44.33333333333333</ele><time>2026-04-07T13:53:28.328Z</time></trkpt><trkpt lat="41.0884992" lon="9.5297006"><ele>39.666666666666664</ele><time>2026-04-07T13:53:29.327Z</time></trkpt><trkpt lat="41.0886604" lon="9.5297593"><ele>35.0</ele><time>2026-04-07T13:53:30.328Z</time></trkpt><trkpt lat="41.0888213" lon="9.5298186"><ele>35.0</ele><time>2026-04-07T13:53:31.327Z</time></trkpt><trkpt lat="41.0889742" lon="9.5298773"><ele>35.0</ele><time>2026-04-07T13:53:32.327Z</time></trkpt><trkpt lat="41.0891251" lon="9.5299294"><ele>35.0</ele><time>2026-04-07T13:53:33.328Z</time></trkpt><trkpt lat="41.0892721" lon="9.5299829"><ele>35.75</ele><time>2026-04-07T13:53:34.328Z</time></trkpt><trkpt lat="41.0894151" lon="9.5300357"><ele>36.5</ele><time>2026-04-07T13:53:35.328Z</time></trkpt><trkpt lat="41.0895624" lon="9.5300877"><ele>37.25</ele><time>2026-04-07T13:53:36.328Z</time></trkpt><trkpt lat="41.0897062" lon="9.530133"><ele>38.0</ele><time>2026-04-07T13:53:37.327Z</time></trkpt><trkpt lat="41.0898423" lon="9.5301816"><ele>37.75</ele><time>2026-04-07T13:53:38.327Z</time></trkpt><trkpt lat="41.089979" lon="9.5302306"><ele>37.5</ele><time>2026-04-07T13:53:39.327Z</time></trkpt><trkpt lat="41.090109" lon="9.5302719"><ele>37.25</ele><time>2026-04-07T13:53:40.328Z</time></trkpt><trkpt lat="41.0902404" lon="9.5303169"><ele>37.0</ele><time>2026-04-07T13:53:41.327Z</time></trkpt><trkpt lat="41.0903631" lon="9.5303588"><ele>37.8</ele><time>2026-04-07T13:53:42.328Z</time></trkpt><trkpt lat="41.0904793" lon="9.5304043"><ele>38.6</ele><time>2026-04-07T13:53:43.327Z</time></trkpt><trkpt lat="41.0905855" lon="9.530445"><ele>39.4</ele><time>2026-04-07T13:53:44.327Z</time></trkpt><trkpt lat="41.0906844" lon="9.5304814"><ele>40.199999999999996</ele><time>2026-04-07T13:53:45.328Z</time></trkpt><trkpt lat="41.0907686" lon="9.5305115"><ele>41.0</ele><time>2026-04-07T13:53:46.327Z</time></trkpt><trkpt lat="41.0908412" lon="9.5305335"><ele>42.0</ele><time>2026-04-07T13:53:47.328Z</time></trkpt><trkpt lat="41.0909509" lon="9.5305793"><ele>43.0</ele><time>2026-04-07T13:53:49.328Z</time></trkpt><trkpt lat="41.091031" lon="9.5306607"><ele>44.0</ele><time>2026-04-07T13:53:51.328Z</time></trkpt><trkpt lat="41.0910731" lon="9.5307313"><ele>45.0</ele><time>2026-04-07T13:53:53.328Z</time></trkpt><trkpt lat="41.091126" lon="9.5308377"><ele>46.0</ele><time>2026-04-07T13:53:56.328Z</time></trkpt><trkpt lat="41.0911915" lon="9.5309093"><ele>46.0</ele><time>2026-04-07T13:53:58.327Z</time></trkpt><trkpt lat="41.0912565" lon="9.5309675"><ele>46.0</ele><time>2026-04-07T13:54:00.328Z</time></trkpt><trkpt lat="41.0913931" lon="9.5309526"><ele>46.0</ele><time>2026-04-07T13:54:02.328Z</time></trkpt><trkpt lat="41.0914759" lon="9.5309138"><ele>46.0</ele><time>2026-04-07T13:54:03.328Z</time></trkpt><trkpt lat="41.0915487" lon="9.5308745"><ele>46.0</ele><time>2026-04-07T13:54:04.328Z</time></trkpt><trkpt lat="41.0916262" lon="9.5308357"><ele>46.0</ele><time>2026-04-07T13:54:05.328Z</time></trkpt><trkpt lat="41.0917008" lon="9.5307962"><ele>46.0</ele><time>2026-04-07T13:54:06.327Z</time></trkpt><trkpt lat="41.0917775" lon="9.5307526"><ele>46.0</ele><time>2026-04-07T13:54:07.327Z</time></trkpt><trkpt lat="41.0918569" lon="9.5307024"><ele>46.0</ele><time>2026-04-07T13:54:08.328Z</time></trkpt><trkpt lat="41.0919428" lon="9.5306563"><ele>46.0</ele><time>2026-04-07T13:54:09.328Z</time></trkpt><trkpt lat="41.0920357" lon="9.5306121"><ele>46.0</ele><time>2026-04-07T13:54:10.328Z</time></trkpt><trkpt lat="41.0921319" lon="9.5305622"><ele>46.0</ele><time>2026-04-07T13:54:11.328Z</time></trkpt><trkpt lat="41.0922315" lon="9.5305008"><ele>46.0</ele><time>2026-04-07T13:54:12.328Z</time></trkpt><trkpt lat="41.0923366" lon="9.5304394"><ele>46.0</ele><time>2026-04-07T13:54:13.328Z</time></trkpt><trkpt lat="41.0924422" lon="9.5303757"><ele>46.0</ele><time>2026-04-07T13:54:14.327Z</time></trkpt><trkpt lat="41.0925402" lon="9.5303199"><ele>46.0</ele><time>2026-04-07T13:54:15.328Z</time></trkpt><trkpt lat="41.092627" lon="9.5302767"><ele>45.833333333333336</ele><time>2026-04-07T13:54:16.328Z</time></trkpt><trkpt lat="41.0927056" lon="9.53024"><ele>45.66666666666667</ele><time>2026-04-07T13:54:17.328Z</time></trkpt><trkpt lat="41.0927819" lon="9.5301893"><ele>45.5</ele><time>2026-04-07T13:54:18.328Z</time></trkpt><trkpt lat="41.0928507" lon="9.5301302"><ele>45.333333333333336</ele><time>2026-04-07T13:54:19.328Z</time></trkpt><trkpt lat="41.0929211" lon="9.5300605"><ele>45.166666666666664</ele><time>2026-04-07T13:54:20.328Z</time></trkpt><trkpt lat="41.0929851" lon="9.5299856"><ele>45.0</ele><time>2026-04-07T13:54:21.328Z</time></trkpt><trkpt lat="41.093049" lon="9.5299088"><ele>45.0</ele><time>2026-04-07T13:54:22.328Z</time></trkpt><trkpt lat="41.0931006" lon="9.5298226"><ele>45.0</ele><time>2026-04-07T13:54:23.328Z</time></trkpt><trkpt lat="41.0931413" lon="9.5297364"><ele>45.0</ele><time>2026-04-07T13:54:24.328Z</time></trkpt><trkpt lat="41.0931588" lon="9.5296491"><ele>45.0</ele><time>2026-04-07T13:54:25.328Z</time></trkpt><trkpt lat="41.0931295" lon="9.5295003"><ele>45.0</ele><time>2026-04-07T13:54:27.328Z</time></trkpt><trkpt lat="41.0930888" lon="9.5293915"><ele>45.0</ele><time>2026-04-07T13:54:29.327Z</time></trkpt><trkpt lat="41.0930562" lon="9.5293056"><ele>45.2</ele><time>2026-04-07T13:54:31.328Z</time></trkpt><trkpt lat="41.0930556" lon="9.5291798"><ele>45.4</ele><time>2026-04-07T13:54:33.327Z</time></trkpt><trkpt lat="41.0931478" lon="9.5290745"><ele>45.599999999999994</ele><time>2026-04-07T13:54:35.327Z</time></trkpt><trkpt lat="41.0932683" lon="9.529087"><ele>45.8</ele><time>2026-04-07T13:54:37.328Z</time></trkpt><trkpt lat="41.0933148" lon="9.5291488"><ele>46.0</ele><time>2026-04-07T13:54:38.327Z</time></trkpt><trkpt lat="41.093362" lon="9.5292887"><ele>47.42857142857143</ele><time>2026-04-07T13:54:40.328Z</time></trkpt><trkpt lat="41.0933895" lon="9.5293642"><ele>48.857142857142854</ele><time>2026-04-07T13:54:41.328Z</time></trkpt><trkpt lat="41.0934232" lon="9.5294414"><ele>50.285714285714285</ele><time>2026-04-07T13:54:42.327Z</time></trkpt><trkpt lat="41.0934643" lon="9.5295202"><ele>51.714285714285715</ele><time>2026-04-07T13:54:43.327Z</time></trkpt><trkpt lat="41.0935143" lon="9.5296012"><ele>53.14285714285714</ele><time>2026-04-07T13:54:44.327Z</time></trkpt><trkpt lat="41.0935647" lon="9.5296829"><ele>54.57142857142857</ele><time>2026-04-07T13:54:45.328Z</time></trkpt><trkpt lat="41.0936177" lon="9.5297479"><ele>56.0</ele><time>2026-04-07T13:54:46.327Z</time></trkpt><trkpt lat="41.0936761" lon="9.5298074"><ele>56.00000000000001</ele><time>2026-04-07T13:54:47.327Z</time></trkpt><trkpt lat="41.0937451" lon="9.5298555"><ele>56.0</ele><time>2026-04-07T13:54:48.328Z</time></trkpt><trkpt lat="41.0938279" lon="9.5298882"><ele>56.0</ele><time>2026-04-07T13:54:49.328Z</time></trkpt><trkpt lat="41.0939118" lon="9.5299031"><ele>56.0</ele><time>2026-04-07T13:54:50.328Z</time></trkpt><trkpt lat="41.0939909" lon="9.5299104"><ele>56.00000000000001</ele><time>2026-04-07T13:54:51.327Z</time></trkpt><trkpt lat="41.0940629" lon="9.5299155"><ele>56.0</ele><time>2026-04-07T13:54:52.328Z</time></trkpt><trkpt lat="41.0941384" lon="9.5299106"><ele>57.57142857142857</ele><time>2026-04-07T13:54:53.328Z</time></trkpt><trkpt lat="41.0942135" lon="9.5298977"><ele>59.14285714285714</ele><time>2026-04-07T13:54:54.327Z</time></trkpt><trkpt lat="41.0942761" lon="9.52987"><ele>60.714285714285715</ele><time>2026-04-07T13:54:55.327Z</time></trkpt><trkpt lat="41.0943382" lon="9.5298298"><ele>62.285714285714285</ele><time>2026-04-07T13:54:56.328Z</time></trkpt><trkpt lat="41.0943948" lon="9.5297774"><ele>63.857142857142854</ele><time>2026-04-07T13:54:57.328Z</time></trkpt><trkpt lat="41.0944494" lon="9.5297062"><ele>65.42857142857143</ele><time>2026-04-07T13:54:58.328Z</time></trkpt><trkpt lat="41.0944935" lon="9.5296294"><ele>67.0</ele><time>2026-04-07T13:54:59.327Z</time></trkpt><trkpt lat="41.0945309" lon="9.5295452"><ele>68.0</ele><time>2026-04-07T13:55:00.328Z</time></trkpt><trkpt lat="41.094552" lon="9.5294643"><ele>69.0</ele><time>2026-04-07T13:55:01.327Z</time></trkpt><trkpt lat="41.0945535" lon="9.5293191"><ele>70.0</ele><time>2026-04-07T13:55:03.328Z</time></trkpt><trkpt lat="41.0944831" lon="9.5291915"><ele>71.0</ele><time>2026-04-07T13:55:05.328Z</time></trkpt><trkpt lat="41.0943793" lon="9.5291082"><ele>72.0</ele><time>2026-04-07T13:55:07.328Z</time></trkpt><trkpt lat="41.0942897" lon="9.5290017"><ele>72.0</ele><time>2026-04-07T13:55:09.328Z</time></trkpt><trkpt lat="41.0942607" lon="9.5288752"><ele>72.0</ele><time>2026-04-07T13:55:11.327Z</time></trkpt><trkpt lat="41.0943011" lon="9.5287523"><ele>72.0</ele><time>2026-04-07T13:55:13.328Z</time></trkpt><trkpt lat="41.0943639" lon="9.5287002"><ele>72.0</ele><time>2026-04-07T13:55:15.328Z</time></trkpt><trkpt lat="41.0944682" lon="9.5287224"><ele>72.0</ele><time>2026-04-07T13:55:17.327Z</time></trkpt><trkpt lat="41.094519" lon="9.5287924"><ele>72.0</ele><time>2026-04-07T13:55:18.328Z</time></trkpt><trkpt lat="41.094558" lon="9.5288775"><ele>72.0</ele><time>2026-04-07T13:55:19.327Z</time></trkpt><trkpt lat="41.0945848" lon="9.5289574"><ele>72.0</ele><time>2026-04-07T13:55:20.328Z</time></trkpt><trkpt lat="41.0946703" lon="9.5290802"><ele>72.0</ele><time>2026-04-07T13:55:22.328Z</time></trkpt><trkpt lat="41.0947823" lon="9.5291105"><ele>72.0</ele><time>2026-04-07T13:55:24.328Z</time></trkpt><trkpt lat="41.0948992" lon="9.5290416"><ele>73.83333333333333</ele><time>2026-04-07T13:55:26.327Z</time></trkpt><trkpt lat="41.0949566" lon="9.528979"><ele>75.66666666666667</ele><time>2026-04-07T13:55:27.328Z</time></trkpt><trkpt lat="41.0950163" lon="9.5289059"><ele>77.5</ele><time>2026-04-07T13:55:28.328Z</time></trkpt><trkpt lat="41.0950766" lon="9.5288374"><ele>79.33333333333334</ele><time>2026-04-07T13:55:29.327Z</time></trkpt><trkpt lat="41.0951482" lon="9.5287846"><ele>81.16666666666667</ele><time>2026-04-07T13:55:30.328Z</time></trkpt><trkpt lat="41.0952214" lon="9.5287411"><ele>83.0</ele><time>2026-04-07T13:55:31.328Z</time></trkpt><trkpt lat="41.0953009" lon="9.5287157"><ele>83.5</ele><time>2026-04-07T13:55:32.328Z</time></trkpt><trkpt lat="41.0953775" lon="9.5286978"><ele>84.0</ele><time>2026-04-07T13:55:33.328Z</time></trkpt><trkpt lat="41.0954522" lon="9.528692"><ele>84.5</ele><time>2026-04-07T13:55:34.328Z</time></trkpt><trkpt lat="41.0955274" lon="9.5286965"><ele>85.0</ele><time>2026-04-07T13:55:35.328Z</time></trkpt><trkpt lat="41.0956024" lon="9.5286996"><ele>85.5</ele><time>2026-04-07T13:55:36.327Z</time></trkpt><trkpt lat="41.0956795" lon="9.5286942"><ele>86.0</ele><time>2026-04-07T13:55:37.328Z</time></trkpt><trkpt lat="41.0957613" lon="9.5286805"><ele>87.66666666666667</ele><time>2026-04-07T13:55:38.328Z</time></trkpt><trkpt lat="41.0958437" lon="9.5286383"><ele>89.33333333333334</ele><time>2026-04-07T13:55:39.328Z</time></trkpt><trkpt lat="41.095924" lon="9.5285815"><ele>91.0</ele><time>2026-04-07T13:55:40.328Z</time></trkpt><trkpt lat="41.0959896" lon="9.5285092"><ele>92.66666666666667</ele><time>2026-04-07T13:55:41.328Z</time></trkpt><trkpt lat="41.0960413" lon="9.5284177"><ele>94.33333333333333</ele><time>2026-04-07T13:55:42.328Z</time></trkpt><trkpt lat="41.0960929" lon="9.5283169"><ele>96.0</ele><time>2026-04-07T13:55:43.328Z</time></trkpt><trkpt lat="41.096137" lon="9.5282068"><ele>96.0</ele><time>2026-04-07T13:55:44.327Z</time></trkpt><trkpt lat="41.0961786" lon="9.5280879"><ele>96.0</ele><time>2026-04-07T13:55:45.328Z</time></trkpt><trkpt lat="41.0962249" lon="9.5279638"><ele>96.0</ele><time>2026-04-07T13:55:46.327Z</time></trkpt><trkpt lat="41.0962663" lon="9.527836"><ele>96.0</ele><time>2026-04-07T13:55:47.328Z</time></trkpt><trkpt lat="41.0963152" lon="9.5277132"><ele>96.0</ele><time>2026-04-07T13:55:48.328Z</time></trkpt><trkpt lat="41.0963626" lon="9.5275876"><ele>97.4</ele><time>2026-04-07T13:55:49.327Z</time></trkpt><trkpt lat="41.0964062" lon="9.5274758"><ele>98.8</ele><time>2026-04-07T13:55:50.328Z</time></trkpt><trkpt lat="41.0964463" lon="9.5273645"><ele>100.2</ele><time>2026-04-07T13:55:51.328Z</time></trkpt><trkpt lat="41.0964907" lon="9.5272582"><ele>101.60000000000001</ele><time>2026-04-07T13:55:52.328Z</time></trkpt><trkpt lat="41.0965432" lon="9.5271654"><ele>103.0</ele><time>2026-04-07T13:55:53.327Z</time></trkpt><trkpt lat="41.0966079" lon="9.527078"><ele>104.60000000000001</ele><time>2026-04-07T13:55:54.328Z</time></trkpt><trkpt lat="41.0966841" lon="9.5270016"><ele>106.2</ele><time>2026-04-07T13:55:55.328Z</time></trkpt><trkpt lat="41.0967718" lon="9.5269325"><ele>107.8</ele><time>2026-04-07T13:55:56.327Z</time></trkpt><trkpt lat="41.0968683" lon="9.5268712"><ele>109.4</ele><time>2026-04-07T13:55:57.328Z</time></trkpt><trkpt lat="41.0969624" lon="9.5268192"><ele>111.0</ele><time>2026-04-07T13:55:58.328Z</time></trkpt><trkpt lat="41.0970522" lon="9.5267603"><ele>111.0</ele><time>2026-04-07T13:55:59.327Z</time></trkpt><trkpt lat="41.0971413" lon="9.5267032"><ele>111.0</ele><time>2026-04-07T13:56:00.328Z</time></trkpt><trkpt lat="41.0972392" lon="9.5266489"><ele>111.0</ele><time>2026-04-07T13:56:01.327Z</time></trkpt><trkpt lat="41.0973455" lon="9.5265912"><ele>111.0</ele><time>2026-04-07T13:56:02.328Z</time></trkpt><trkpt lat="41.0974473" lon="9.5265193"><ele>111.0</ele><time>2026-04-07T13:56:03.327Z</time></trkpt><trkpt lat="41.0975483" lon="9.5264583"><ele>112.6</ele><time>2026-04-07T13:56:04.327Z</time></trkpt><trkpt lat="41.0976393" lon="9.5263761"><ele>114.19999999999999</ele><time>2026-04-07T13:56:05.328Z</time></trkpt><trkpt lat="41.0977252" lon="9.5262827"><ele>115.80000000000001</ele><time>2026-04-07T13:56:06.328Z</time></trkpt><trkpt lat="41.0978031" lon="9.526184"><ele>117.4</ele><time>2026-04-07T13:56:07.327Z</time></trkpt><trkpt lat="41.0978695" lon="9.5260791"><ele>119.0</ele><time>2026-04-07T13:56:08.328Z</time></trkpt><trkpt lat="41.0979234" lon="9.5259737"><ele>119.0</ele><time>2026-04-07T13:56:09.327Z</time></trkpt><trkpt lat="41.097978" lon="9.5258595"><ele>119.0</ele><time>2026-04-07T13:56:10.328Z</time></trkpt><trkpt lat="41.0980325" lon="9.5257434"><ele>119.0</ele><time>2026-04-07T13:56:11.328Z</time></trkpt><trkpt lat="41.0980815" lon="9.525619"><ele>119.0</ele><time>2026-04-07T13:56:12.328Z</time></trkpt><trkpt lat="41.0981274" lon="9.5254973"><ele>119.0</ele><time>2026-04-07T13:56:13.327Z</time></trkpt><trkpt lat="41.0981674" lon="9.5253715"><ele>118.80000000000001</ele><time>2026-04-07T13:56:14.328Z</time></trkpt><trkpt lat="41.0982125" lon="9.5252466"><ele>118.60000000000001</ele><time>2026-04-07T13:56:15.328Z</time></trkpt><trkpt lat="41.0982603" lon="9.525119"><ele>118.4</ele><time>2026-04-07T13:56:16.328Z</time></trkpt><trkpt lat="41.0983112" lon="9.5249877"><ele>118.2</ele><time>2026-04-07T13:56:17.328Z</time></trkpt><trkpt lat="41.0983685" lon="9.5248607"><ele>118.0</ele><time>2026-04-07T13:56:18.328Z</time></trkpt><trkpt lat="41.0984263" lon="9.524729"><ele>117.80000000000001</ele><time>2026-04-07T13:56:19.327Z</time></trkpt><trkpt lat="41.0984843" lon="9.5246024"><ele>117.60000000000001</ele><time>2026-04-07T13:56:20.328Z</time></trkpt><trkpt lat="41.0985498" lon="9.5244846"><ele>117.39999999999999</ele><time>2026-04-07T13:56:21.328Z</time></trkpt><trkpt lat="41.09862" lon="9.524366"><ele>117.19999999999999</ele><time>2026-04-07T13:56:22.328Z</time></trkpt><trkpt lat="41.0986867" lon="9.524249"><ele>117.0</ele><time>2026-04-07T13:56:23.328Z</time></trkpt><trkpt lat="41.098751" lon="9.5241384"><ele>116.39999999999999</ele><time>2026-04-07T13:56:24.327Z</time></trkpt><trkpt lat="41.098816" lon="9.5240272"><ele>115.79999999999998</ele><time>2026-04-07T13:56:25.328Z</time></trkpt><trkpt lat="41.0988813" lon="9.5239098"><ele>115.2</ele><time>2026-04-07T13:56:26.327Z</time></trkpt><trkpt lat="41.0989532" lon="9.5237853"><ele>114.6</ele><time>2026-04-07T13:56:27.328Z</time></trkpt><trkpt lat="41.0990236" lon="9.5236663"><ele>114.0</ele><time>2026-04-07T13:56:28.328Z</time></trkpt><trkpt lat="41.0990918" lon="9.5235471"><ele>112.5</ele><time>2026-04-07T13:56:29.328Z</time></trkpt><trkpt lat="41.0991618" lon="9.5234221"><ele>111.0</ele><time>2026-04-07T13:56:30.328Z</time></trkpt><trkpt lat="41.0992288" lon="9.5232987"><ele>109.5</ele><time>2026-04-07T13:56:31.327Z</time></trkpt><trkpt lat="41.099297" lon="9.5231724"><ele>108.0</ele><time>2026-04-07T13:56:32.328Z</time></trkpt><trkpt lat="41.0993681" lon="9.5230558"><ele>108.0</ele><time>2026-04-07T13:56:33.328Z</time></trkpt><trkpt lat="41.0994407" lon="9.5229372"><ele>108.00000000000001</ele><time>2026-04-07T13:56:34.328Z</time></trkpt><trkpt lat="41.0995102" lon="9.5228297"><ele>108.00000000000001</ele><time>2026-04-07T13:56:35.328Z</time></trkpt><trkpt lat="41.0995808" lon="9.522737"><ele>108.0</ele><time>2026-04-07T13:56:36.327Z</time></trkpt><trkpt lat="41.0996463" lon="9.5226539"><ele>108.0</ele><time>2026-04-07T13:56:37.328Z</time></trkpt><trkpt lat="41.0997146" lon="9.5225733"><ele>108.0</ele><time>2026-04-07T13:56:38.328Z</time></trkpt><trkpt lat="41.0997863" lon="9.5224994"><ele>108.0</ele><time>2026-04-07T13:56:39.328Z</time></trkpt><trkpt lat="41.0998671" lon="9.5224373"><ele>108.0</ele><time>2026-04-07T13:56:40.327Z</time></trkpt><trkpt lat="41.0999561" lon="9.5224038"><ele>108.0</ele><time>2026-04-07T13:56:41.328Z</time></trkpt><trkpt lat="41.1000352" lon="9.5223903"><ele>108.0</ele><time>2026-04-07T13:56:42.327Z</time></trkpt><trkpt lat="41.1001117" lon="9.5223997"><ele>108.0</ele><time>2026-04-07T13:56:43.328Z</time></trkpt><trkpt lat="41.1001968" lon="9.5224338"><ele>108.0</ele><time>2026-04-07T13:56:44.328Z</time></trkpt><trkpt lat="41.1002799" lon="9.5224954"><ele>108.00000000000001</ele><time>2026-04-07T13:56:45.327Z</time></trkpt><trkpt lat="41.1003527" lon="9.5225893"><ele>108.00000000000001</ele><time>2026-04-07T13:56:46.327Z</time></trkpt><trkpt lat="41.100412" lon="9.5227068"><ele>108.0</ele><time>2026-04-07T13:56:47.328Z</time></trkpt><trkpt lat="41.1004674" lon="9.5228225"><ele>108.0</ele><time>2026-04-07T13:56:48.328Z</time></trkpt><trkpt lat="41.1005292" lon="9.5229405"><ele>108.0</ele><time>2026-04-07T13:56:49.327Z</time></trkpt><trkpt lat="41.1005906" lon="9.5230615"><ele>108.00000000000001</ele><time>2026-04-07T13:56:50.328Z</time></trkpt><trkpt lat="41.1006507" lon="9.5231711"><ele>108.00000000000001</ele><time>2026-04-07T13:56:51.328Z</time></trkpt><trkpt lat="41.1007063" lon="9.5232796"><ele>108.0</ele><time>2026-04-07T13:56:52.328Z</time></trkpt><trkpt lat="41.1007594" lon="9.5233821"><ele>108.0</ele><time>2026-04-07T13:56:53.327Z</time></trkpt><trkpt lat="41.1008102" lon="9.5234806"><ele>107.60000000000001</ele><time>2026-04-07T13:56:54.327Z</time></trkpt><trkpt lat="41.1008598" lon="9.5235746"><ele>107.20000000000002</ele><time>2026-04-07T13:56:55.327Z</time></trkpt><trkpt lat="41.1009074" lon="9.5236763"><ele>106.8</ele><time>2026-04-07T13:56:56.328Z</time></trkpt><trkpt lat="41.1009606" lon="9.5237766"><ele>106.4</ele><time>2026-04-07T13:56:57.328Z</time></trkpt><trkpt lat="41.1010111" lon="9.5238796"><ele>106.0</ele><time>2026-04-07T13:56:58.327Z</time></trkpt><trkpt lat="41.1010663" lon="9.5239812"><ele>106.0</ele><time>2026-04-07T13:56:59.327Z</time></trkpt><trkpt lat="41.1011229" lon="9.5240842"><ele>106.0</ele><time>2026-04-07T13:57:00.327Z</time></trkpt><trkpt lat="41.1011784" lon="9.5241809"><ele>106.0</ele><time>2026-04-07T13:57:01.328Z</time></trkpt><trkpt lat="41.1012354" lon="9.5242725"><ele>106.0</ele><time>2026-04-07T13:57:02.328Z</time></trkpt><trkpt lat="41.1012869" lon="9.5243647"><ele>106.0</ele><time>2026-04-07T13:57:03.328Z</time></trkpt><trkpt lat="41.1013408" lon="9.5244539"><ele>106.00000000000001</ele><time>2026-04-07T13:57:04.327Z</time></trkpt><trkpt lat="41.1013938" lon="9.5245436"><ele>106.0</ele><time>2026-04-07T13:57:05.328Z</time></trkpt><trkpt lat="41.1014475" lon="9.524627"><ele>106.0</ele><time>2026-04-07T13:57:06.327Z</time></trkpt><trkpt lat="41.1015026" lon="9.5247118"><ele>106.0</ele><time>2026-04-07T13:57:07.328Z</time></trkpt><trkpt lat="41.1015564" lon="9.5247969"><ele>106.00000000000001</ele><time>2026-04-07T13:57:08.328Z</time></trkpt><trkpt lat="41.1016105" lon="9.5248819"><ele>106.0</ele><time>2026-04-07T13:57:09.328Z</time></trkpt><trkpt lat="41.1016642" lon="9.5249703"><ele>104.8</ele><time>2026-04-07T13:57:10.328Z</time></trkpt><trkpt lat="41.1017191" lon="9.5250581"><ele>103.6</ele><time>2026-04-07T13:57:11.327Z</time></trkpt><trkpt lat="41.1017755" lon="9.525149"><ele>102.4</ele><time>2026-04-07T13:57:12.328Z</time></trkpt><trkpt lat="41.1018372" lon="9.5252462"><ele>101.2</ele><time>2026-04-07T13:57:13.328Z</time></trkpt><trkpt lat="41.1019013" lon="9.5253449"><ele>100.0</ele><time>2026-04-07T13:57:14.328Z</time></trkpt><trkpt lat="41.101959" lon="9.525442"><ele>100.0</ele><time>2026-04-07T13:57:15.328Z</time></trkpt><trkpt lat="41.1020176" lon="9.5255377"><ele>100.0</ele><time>2026-04-07T13:57:16.328Z</time></trkpt><trkpt lat="41.1020777" lon="9.5256311"><ele>100.0</ele><time>2026-04-07T13:57:17.328Z</time></trkpt><trkpt lat="41.1021344" lon="9.5257277"><ele>100.0</ele><time>2026-04-07T13:57:18.328Z</time></trkpt><trkpt lat="41.1021909" lon="9.525814"><ele>100.0</ele><time>2026-04-07T13:57:19.328Z</time></trkpt><trkpt lat="41.10225" lon="9.5259012"><ele>100.0</ele><time>2026-04-07T13:57:20.328Z</time></trkpt><trkpt lat="41.1023133" lon="9.5259953"><ele>100.0</ele><time>2026-04-07T13:57:21.327Z</time></trkpt><trkpt lat="41.1023806" lon="9.5260938"><ele>100.0</ele><time>2026-04-07T13:57:22.328Z</time></trkpt><trkpt lat="41.1024535" lon="9.5262045"><ele>100.0</ele><time>2026-04-07T13:57:23.328Z</time></trkpt><trkpt lat="41.1025319" lon="9.526332"><ele>100.0</ele><time>2026-04-07T13:57:24.328Z</time></trkpt><trkpt lat="41.102613" lon="9.5264628"><ele>96.0</ele><time>2026-04-07T13:57:25.327Z</time></trkpt><trkpt lat="41.1027085" lon="9.5265971"><ele>92.0</ele><time>2026-04-07T13:57:26.328Z</time></trkpt><trkpt lat="41.1028173" lon="9.5267194"><ele>88.0</ele><time>2026-04-07T13:57:27.328Z</time></trkpt><trkpt lat="41.1029391" lon="9.5268382"><ele>84.0</ele><time>2026-04-07T13:57:28.328Z</time></trkpt><trkpt lat="41.1030657" lon="9.5269594"><ele>84.0</ele><time>2026-04-07T13:57:29.328Z</time></trkpt><trkpt lat="41.103201" lon="9.527084"><ele>84.0</ele><time>2026-04-07T13:57:30.327Z</time></trkpt><trkpt lat="41.1033443" lon="9.5272053"><ele>84.0</ele><time>2026-04-07T13:57:31.328Z</time></trkpt><trkpt lat="41.103497" lon="9.5273292"><ele>80.0</ele><time>2026-04-07T13:57:32.328Z</time></trkpt><trkpt lat="41.1036534" lon="9.5274524"><ele>76.0</ele><time>2026-04-07T13:57:33.327Z</time></trkpt><trkpt lat="41.1037981" lon="9.527586"><ele>72.0</ele><time>2026-04-07T13:57:34.328Z</time></trkpt><trkpt lat="41.1039539" lon="9.5277242"><ele>73.66666666666667</ele><time>2026-04-07T13:57:35.327Z</time></trkpt><trkpt lat="41.1041067" lon="9.5278653"><ele>75.33333333333334</ele><time>2026-04-07T13:57:36.327Z</time></trkpt><trkpt lat="41.1042568" lon="9.5280153"><ele>77.0</ele><time>2026-04-07T13:57:37.327Z</time></trkpt><trkpt lat="41.1043888" lon="9.5281828"><ele>70.33333333333334</ele><time>2026-04-07T13:57:38.328Z</time></trkpt><trkpt lat="41.1045121" lon="9.5283701"><ele>63.66666666666667</ele><time>2026-04-07T13:57:39.328Z</time></trkpt><trkpt lat="41.1046355" lon="9.5285676"><ele>57.0</ele><time>2026-04-07T13:57:40.328Z</time></trkpt><trkpt lat="41.1047605" lon="9.5287685"><ele>55.33333333333333</ele><time>2026-04-07T13:57:41.328Z</time></trkpt><trkpt lat="41.1048843" lon="9.5289624"><ele>53.666666666666664</ele><time>2026-04-07T13:57:42.328Z</time></trkpt><trkpt lat="41.1050044" lon="9.5291557"><ele>52.0</ele><time>2026-04-07T13:57:43.328Z</time></trkpt><trkpt lat="41.1051212" lon="9.5293452"><ele>51.0</ele><time>2026-04-07T13:57:44.328Z</time></trkpt><trkpt lat="41.1052295" lon="9.5295254"><ele>50.0</ele><time>2026-04-07T13:57:45.327Z</time></trkpt><trkpt lat="41.1053364" lon="9.5296977"><ele>49.0</ele><time>2026-04-07T13:57:46.328Z</time></trkpt><trkpt lat="41.1054406" lon="9.5298616"><ele>48.33333333333333</ele><time>2026-04-07T13:57:47.328Z</time></trkpt><trkpt lat="41.1055489" lon="9.5300159"><ele>47.666666666666664</ele><time>2026-04-07T13:57:48.328Z</time></trkpt><trkpt lat="41.1056515" lon="9.530164"><ele>47.0</ele><time>2026-04-07T13:57:49.328Z</time></trkpt><trkpt lat="41.1057505" lon="9.5303076"><ele>44.75</ele><time>2026-04-07T13:57:50.328Z</time></trkpt><trkpt lat="41.1058499" lon="9.5304408"><ele>42.5</ele><time>2026-04-07T13:57:51.328Z</time></trkpt><trkpt lat="41.1059561" lon="9.5305699"><ele>40.25</ele><time>2026-04-07T13:57:52.327Z</time></trkpt><trkpt lat="41.1060635" lon="9.5306967"><ele>38.0</ele><time>2026-04-07T13:57:53.328Z</time></trkpt><trkpt lat="41.1061687" lon="9.5308222"><ele>38.0</ele><time>2026-04-07T13:57:54.328Z</time></trkpt><trkpt lat="41.1062759" lon="9.5309446"><ele>38.0</ele><time>2026-04-07T13:57:55.328Z</time></trkpt><trkpt lat="41.1063837" lon="9.5310621"><ele>38.0</ele><time>2026-04-07T13:57:56.327Z</time></trkpt><trkpt lat="41.1064894" lon="9.5311791"><ele>38.0</ele><time>2026-04-07T13:57:57.328Z</time></trkpt><trkpt lat="41.1065981" lon="9.5313032"><ele>37.0</ele><time>2026-04-07T13:57:58.328Z</time></trkpt><trkpt lat="41.1067163" lon="9.5314272"><ele>36.0</ele><time>2026-04-07T13:57:59.328Z</time></trkpt><trkpt lat="41.1068355" lon="9.5315569"><ele>35.0</ele><time>2026-04-07T13:58:00.328Z</time></trkpt><trkpt lat="41.1069522" lon="9.5316802"><ele>35.0</ele><time>2026-04-07T13:58:01.327Z</time></trkpt><trkpt lat="41.1070712" lon="9.5317968"><ele>35.0</ele><time>2026-04-07T13:58:02.328Z</time></trkpt><trkpt lat="41.1071875" lon="9.5319089"><ele>35.0</ele><time>2026-04-07T13:58:03.328Z</time></trkpt><trkpt lat="41.1073076" lon="9.5320087"><ele>35.0</ele><time>2026-04-07T13:58:04.328Z</time></trkpt><trkpt lat="41.1074272" lon="9.5321052"><ele>33.75</ele><time>2026-04-07T13:58:05.327Z</time></trkpt><trkpt lat="41.1075438" lon="9.5322097"><ele>32.5</ele><time>2026-04-07T13:58:06.328Z</time></trkpt><trkpt lat="41.1076664" lon="9.5323166"><ele>31.25</ele><time>2026-04-07T13:58:07.328Z</time></trkpt><trkpt lat="41.107791" lon="9.5324279"><ele>30.0</ele><time>2026-04-07T13:58:08.328Z</time></trkpt><trkpt lat="41.107919" lon="9.5325346"><ele>30.0</ele><time>2026-04-07T13:58:09.327Z</time></trkpt><trkpt lat="41.1080462" lon="9.5326411"><ele>30.0</ele><time>2026-04-07T13:58:10.328Z</time></trkpt><trkpt lat="41.1081673" lon="9.5327533"><ele>30.0</ele><time>2026-04-07T13:58:11.328Z</time></trkpt><trkpt lat="41.1082822" lon="9.5328675"><ele>30.0</ele><time>2026-04-07T13:58:12.327Z</time></trkpt><trkpt lat="41.1083937" lon="9.5329846"><ele>28.25</ele><time>2026-04-07T13:58:13.328Z</time></trkpt><trkpt lat="41.1085068" lon="9.5331033"><ele>26.5</ele><time>2026-04-07T13:58:14.327Z</time></trkpt><trkpt lat="41.1086215" lon="9.5332182"><ele>24.75</ele><time>2026-04-07T13:58:15.328Z</time></trkpt><trkpt lat="41.1087408" lon="9.5333266"><ele>23.0</ele><time>2026-04-07T13:58:16.328Z</time></trkpt><trkpt lat="41.108866" lon="9.5334295"><ele>23.0</ele><time>2026-04-07T13:58:17.328Z</time></trkpt><trkpt lat="41.1089946" lon="9.5335261"><ele>23.0</ele><time>2026-04-07T13:58:18.327Z</time></trkpt><trkpt lat="41.1091214" lon="9.5336204"><ele>23.0</ele><time>2026-04-07T13:58:19.328Z</time></trkpt><trkpt lat="41.1092475" lon="9.5337103"><ele>23.0</ele><time>2026-04-07T13:58:20.328Z</time></trkpt><trkpt lat="41.1093724" lon="9.533801"><ele>22.75</ele><time>2026-04-07T13:58:21.327Z</time></trkpt><trkpt lat="41.1094952" lon="9.5338889"><ele>22.5</ele><time>2026-04-07T13:58:22.328Z</time></trkpt><trkpt lat="41.1096213" lon="9.5339773"><ele>22.25</ele><time>2026-04-07T13:58:23.328Z</time></trkpt><trkpt lat="41.1097503" lon="9.5340684"><ele>22.0</ele><time>2026-04-07T13:58:24.328Z</time></trkpt><trkpt lat="41.109876" lon="9.5341573"><ele>20.75</ele><time>2026-04-07T13:58:25.327Z</time></trkpt><trkpt lat="41.1100107" lon="9.5342363"><ele>19.5</ele><time>2026-04-07T13:58:26.328Z</time></trkpt><trkpt lat="41.1101447" lon="9.5342882"><ele>18.25</ele><time>2026-04-07T13:58:27.327Z</time></trkpt><trkpt lat="41.1102854" lon="9.5343249"><ele>17.0</ele><time>2026-04-07T13:58:28.328Z</time></trkpt><trkpt lat="41.1104302" lon="9.5343458"><ele>17.0</ele><time>2026-04-07T13:58:29.328Z</time></trkpt><trkpt lat="41.1105697" lon="9.534356"><ele>17.0</ele><time>2026-04-07T13:58:30.328Z</time></trkpt><trkpt lat="41.1107108" lon="9.534358"><ele>17.0</ele><time>2026-04-07T13:58:31.328Z</time></trkpt><trkpt lat="41.110853" lon="9.5343508"><ele>17.0</ele><time>2026-04-07T13:58:32.327Z</time></trkpt><trkpt lat="41.1109949" lon="9.5343322"><ele>18.25</ele><time>2026-04-07T13:58:33.328Z</time></trkpt><trkpt lat="41.1111374" lon="9.5342901"><ele>19.5</ele><time>2026-04-07T13:58:34.328Z</time></trkpt><trkpt lat="41.111276" lon="9.53423"><ele>20.75</ele><time>2026-04-07T13:58:35.328Z</time></trkpt><trkpt lat="41.1114147" lon="9.5341617"><ele>22.0</ele><time>2026-04-07T13:58:36.328Z</time></trkpt><trkpt lat="41.1115577" lon="9.5341074"><ele>24.0</ele><time>2026-04-07T13:58:37.328Z</time></trkpt><trkpt lat="41.1117118" lon="9.5340751"><ele>26.0</ele><time>2026-04-07T13:58:38.327Z</time></trkpt><trkpt lat="41.1118701" lon="9.5340672"><ele>28.0</ele><time>2026-04-07T13:58:39.328Z</time></trkpt><trkpt lat="41.1120279" lon="9.5340945"><ele>28.0</ele><time>2026-04-07T13:58:40.328Z</time></trkpt><trkpt lat="41.1121775" lon="9.5341551"><ele>28.0</ele><time>2026-04-07T13:58:41.328Z</time></trkpt><trkpt lat="41.1123175" lon="9.5342286"><ele>28.0</ele><time>2026-04-07T13:58:42.328Z</time></trkpt><trkpt lat="41.1124486" lon="9.5343106"><ele>29.25</ele><time>2026-04-07T13:58:43.328Z</time></trkpt><trkpt lat="41.1125804" lon="9.5343875"><ele>30.5</ele><time>2026-04-07T13:58:44.328Z</time></trkpt><trkpt lat="41.1127147" lon="9.5344542"><ele>31.75</ele><time>2026-04-07T13:58:45.327Z</time></trkpt><trkpt lat="41.1128535" lon="9.5345291"><ele>33.0</ele><time>2026-04-07T13:58:46.328Z</time></trkpt><trkpt lat="41.1129908" lon="9.5346033"><ele>32.333333333333336</ele><time>2026-04-07T13:58:47.328Z</time></trkpt><trkpt lat="41.1131316" lon="9.5346809"><ele>31.666666666666668</ele><time>2026-04-07T13:58:48.328Z</time></trkpt><trkpt lat="41.1132753" lon="9.5347598"><ele>31.0</ele><time>2026-04-07T13:58:49.328Z</time></trkpt><trkpt lat="41.1134236" lon="9.5348401"><ele>31.0</ele><time>2026-04-07T13:58:50.328Z</time></trkpt><trkpt lat="41.113575" lon="9.5349252"><ele>31.0</ele><time>2026-04-07T13:58:51.327Z</time></trkpt><trkpt lat="41.1137204" lon="9.5350026"><ele>31.0</ele><time>2026-04-07T13:58:52.328Z</time></trkpt><trkpt lat="41.1138628" lon="9.5350805"><ele>31.0</ele><time>2026-04-07T13:58:53.328Z</time></trkpt><trkpt lat="41.1140029" lon="9.5351553"><ele>31.0</ele><time>2026-04-07T13:58:54.328Z</time></trkpt><trkpt lat="41.1141445" lon="9.53523"><ele>31.0</ele><time>2026-04-07T13:58:55.327Z</time></trkpt><trkpt lat="41.1142922" lon="9.5352948"><ele>34.66666666666667</ele><time>2026-04-07T13:58:56.327Z</time></trkpt><trkpt lat="41.1144471" lon="9.5353478"><ele>38.333333333333336</ele><time>2026-04-07T13:58:57.328Z</time></trkpt><trkpt lat="41.1146097" lon="9.5353816"><ele>42.0</ele><time>2026-04-07T13:58:58.328Z</time></trkpt><trkpt lat="41.1147733" lon="9.5354096"><ele>40.0</ele><time>2026-04-07T13:58:59.328Z</time></trkpt><trkpt lat="41.1149424" lon="9.5354351"><ele>38.0</ele><time>2026-04-07T13:59:00.327Z</time></trkpt><trkpt lat="41.1151085" lon="9.5354569"><ele>36.0</ele><time>2026-04-07T13:59:01.328Z</time></trkpt><trkpt lat="41.115273" lon="9.5354761"><ele>36.0</ele><time>2026-04-07T13:59:02.328Z</time></trkpt><trkpt lat="41.1154345" lon="9.5354967"><ele>36.0</ele><time>2026-04-07T13:59:03.328Z</time></trkpt><trkpt lat="41.1155936" lon="9.5355151"><ele>36.0</ele><time>2026-04-07T13:59:04.327Z</time></trkpt><trkpt lat="41.1157492" lon="9.5355327"><ele>32.333333333333336</ele><time>2026-04-07T13:59:05.328Z</time></trkpt><trkpt lat="41.1159067" lon="9.535555"><ele>28.666666666666668</ele><time>2026-04-07T13:59:06.328Z</time></trkpt><trkpt lat="41.1160627" lon="9.535572"><ele>25.0</ele><time>2026-04-07T13:59:07.328Z</time></trkpt><trkpt lat="41.1162263" lon="9.5355878"><ele>25.0</ele><time>2026-04-07T13:59:08.328Z</time></trkpt><trkpt lat="41.1163973" lon="9.5356105"><ele>25.0</ele><time>2026-04-07T13:59:09.328Z</time></trkpt><trkpt lat="41.1165679" lon="9.5356365"><ele>25.0</ele><time>2026-04-07T13:59:10.328Z</time></trkpt><trkpt lat="41.1167402" lon="9.5356588"><ele>23.666666666666668</ele><time>2026-04-07T13:59:11.327Z</time></trkpt><trkpt lat="41.116906" lon="9.535681"><ele>22.333333333333336</ele><time>2026-04-07T13:59:12.327Z</time></trkpt><trkpt lat="41.1170702" lon="9.5356963"><ele>21.0</ele><time>2026-04-07T13:59:13.328Z</time></trkpt><trkpt lat="41.1172344" lon="9.5356914"><ele>21.0</ele><time>2026-04-07T13:59:14.327Z</time></trkpt><trkpt lat="41.1173975" lon="9.5356582"><ele>21.0</ele><time>2026-04-07T13:59:15.328Z</time></trkpt><trkpt lat="41.1175544" lon="9.5356003"><ele>21.0</ele><time>2026-04-07T13:59:16.328Z</time></trkpt><trkpt lat="41.1177096" lon="9.5355262"><ele>21.666666666666668</ele><time>2026-04-07T13:59:17.328Z</time></trkpt><trkpt lat="41.1178596" lon="9.5354304"><ele>22.333333333333336</ele><time>2026-04-07T13:59:18.328Z</time></trkpt><trkpt lat="41.1179997" lon="9.5353245"><ele>23.0</ele><time>2026-04-07T13:59:19.328Z</time></trkpt><trkpt lat="41.1181335" lon="9.5352195"><ele>24.75</ele><time>2026-04-07T13:59:20.328Z</time></trkpt><trkpt lat="41.118265" lon="9.5351209"><ele>26.5</ele><time>2026-04-07T13:59:21.323Z</time></trkpt><trkpt lat="41.1183865" lon="9.5350257"><ele>28.25</ele><time>2026-04-07T13:59:22.327Z</time></trkpt><trkpt lat="41.1185041" lon="9.534936"><ele>30.0</ele><time>2026-04-07T13:59:23.328Z</time></trkpt><trkpt lat="41.1186206" lon="9.5348565"><ele>30.0</ele><time>2026-04-07T13:59:24.328Z</time></trkpt><trkpt lat="41.1187475" lon="9.5347852"><ele>30.0</ele><time>2026-04-07T13:59:25.328Z</time></trkpt><trkpt lat="41.1188859" lon="9.5347304"><ele>30.0</ele><time>2026-04-07T13:59:26.328Z</time></trkpt><trkpt lat="41.1190351" lon="9.5346994"><ele>30.0</ele><time>2026-04-07T13:59:27.328Z</time></trkpt><trkpt lat="41.1191924" lon="9.5347011"><ele>29.333333333333336</ele><time>2026-04-07T13:59:28.328Z</time></trkpt><trkpt lat="41.1193504" lon="9.5347358"><ele>28.666666666666668</ele><time>2026-04-07T13:59:29.328Z</time></trkpt><trkpt lat="41.1195008" lon="9.5347951"><ele>28.0</ele><time>2026-04-07T13:59:30.328Z</time></trkpt><trkpt lat="41.119647" lon="9.5348576"><ele>28.0</ele><time>2026-04-07T13:59:31.328Z</time></trkpt><trkpt lat="41.1197898" lon="9.5349257"><ele>28.0</ele><time>2026-04-07T13:59:32.328Z</time></trkpt><trkpt lat="41.1199378" lon="9.534992"><ele>28.0</ele><time>2026-04-07T13:59:33.328Z</time></trkpt><trkpt lat="41.1200877" lon="9.5350619"><ele>23.333333333333336</ele><time>2026-04-07T13:59:34.328Z</time></trkpt><trkpt lat="41.1202381" lon="9.5351351"><ele>18.666666666666668</ele><time>2026-04-07T13:59:35.328Z</time></trkpt><trkpt lat="41.1203856" lon="9.5352078"><ele>14.0</ele><time>2026-04-07T13:59:36.328Z</time></trkpt><trkpt lat="41.1205293" lon="9.5352836"><ele>14.0</ele><time>2026-04-07T13:59:37.327Z</time></trkpt><trkpt lat="41.1206779" lon="9.5353602"><ele>14.0</ele><time>2026-04-07T13:59:38.328Z</time></trkpt><trkpt lat="41.1208237" lon="9.5354352"><ele>14.0</ele><time>2026-04-07T13:59:39.328Z</time></trkpt><trkpt lat="41.1209739" lon="9.5355087"><ele>11.666666666666668</ele><time>2026-04-07T13:59:40.327Z</time></trkpt><trkpt lat="41.1211265" lon="9.5355836"><ele>9.333333333333334</ele><time>2026-04-07T13:59:41.328Z</time></trkpt><trkpt lat="41.1212749" lon="9.5356572"><ele>7.0</ele><time>2026-04-07T13:59:42.327Z</time></trkpt><trkpt lat="41.1214295" lon="9.53573"><ele>8.666666666666668</ele><time>2026-04-07T13:59:43.328Z</time></trkpt><trkpt lat="41.1215785" lon="9.535798"><ele>10.333333333333334</ele><time>2026-04-07T13:59:44.327Z</time></trkpt><trkpt lat="41.1217184" lon="9.5358615"><ele>12.0</ele><time>2026-04-07T13:59:45.328Z</time></trkpt><trkpt lat="41.1218579" lon="9.5359205"><ele>12.0</ele><time>2026-04-07T13:59:46.328Z</time></trkpt><trkpt lat="41.1219977" lon="9.5359724"><ele>12.0</ele><time>2026-04-07T13:59:47.328Z</time></trkpt><trkpt lat="41.1221446" lon="9.5360096"><ele>12.0</ele><time>2026-04-07T13:59:48.328Z</time></trkpt><trkpt lat="41.1222931" lon="9.5360441"><ele>12.0</ele><time>2026-04-07T13:59:49.328Z</time></trkpt><trkpt lat="41.1224438" lon="9.5360762"><ele>12.0</ele><time>2026-04-07T13:59:50.328Z</time></trkpt><trkpt lat="41.1225961" lon="9.5361167"><ele>12.0</ele><time>2026-04-07T13:59:51.328Z</time></trkpt><trkpt lat="41.1227519" lon="9.5361611"><ele>12.0</ele><time>2026-04-07T13:59:52.328Z</time></trkpt><trkpt lat="41.1229032" lon="9.5362175"><ele>10.0</ele><time>2026-04-07T13:59:53.327Z</time></trkpt><trkpt lat="41.123058" lon="9.5362755"><ele>8.0</ele><time>2026-04-07T13:59:54.328Z</time></trkpt><trkpt lat="41.1232112" lon="9.5363376"><ele>6.0</ele><time>2026-04-07T13:59:55.327Z</time></trkpt><trkpt lat="41.123365" lon="9.5364009"><ele>6.0</ele><time>2026-04-07T13:59:56.328Z</time></trkpt><trkpt lat="41.1235178" lon="9.5364656"><ele>6.0</ele><time>2026-04-07T13:59:57.328Z</time></trkpt><trkpt lat="41.1236677" lon="9.5365244"><ele>6.0</ele><time>2026-04-07T13:59:58.327Z</time></trkpt><trkpt lat="41.1238122" lon="9.5365851"><ele>6.0</ele><time>2026-04-07T13:59:59.327Z</time></trkpt><trkpt lat="41.1239476" lon="9.5366332"><ele>6.0</ele><time>2026-04-07T14:00:00.328Z</time></trkpt><trkpt lat="41.12408" lon="9.5366763"><ele>6.0</ele><time>2026-04-07T14:00:01.328Z</time></trkpt><trkpt lat="41.1242056" lon="9.536703"><ele>6.0</ele><time>2026-04-07T14:00:02.328Z</time></trkpt><trkpt lat="41.124336" lon="9.5367138"><ele>7.25</ele><time>2026-04-07T14:00:03.328Z</time></trkpt><trkpt lat="41.1244641" lon="9.5367124"><ele>8.5</ele><time>2026-04-07T14:00:04.328Z</time></trkpt><trkpt lat="41.1245946" lon="9.5366976"><ele>9.75</ele><time>2026-04-07T14:00:05.328Z</time></trkpt><trkpt lat="41.1247288" lon="9.5366589"><ele>11.0</ele><time>2026-04-07T14:00:06.328Z</time></trkpt><trkpt lat="41.1248593" lon="9.5366047"><ele>13.25</ele><time>2026-04-07T14:00:07.328Z</time></trkpt><trkpt lat="41.1249858" lon="9.5365339"><ele>15.5</ele><time>2026-04-07T14:00:08.328Z</time></trkpt><trkpt lat="41.1251037" lon="9.5364499"><ele>17.75</ele><time>2026-04-07T14:00:09.328Z</time></trkpt><trkpt lat="41.1252137" lon="9.5363508"><ele>20.0</ele><time>2026-04-07T14:00:10.328Z</time></trkpt><trkpt lat="41.1253224" lon="9.5362493"><ele>20.25</ele><time>2026-04-07T14:00:11.327Z</time></trkpt><trkpt lat="41.1254275" lon="9.5361487"><ele>20.5</ele><time>2026-04-07T14:00:12.327Z</time></trkpt><trkpt lat="41.1255382" lon="9.536053"><ele>20.75</ele><time>2026-04-07T14:00:13.327Z</time></trkpt><trkpt lat="41.1256569" lon="9.5359683"><ele>21.0</ele><time>2026-04-07T14:00:14.328Z</time></trkpt><trkpt lat="41.1257746" lon="9.5358898"><ele>22.0</ele><time>2026-04-07T14:00:15.328Z</time></trkpt><trkpt lat="41.1258907" lon="9.535831"><ele>23.0</ele><time>2026-04-07T14:00:16.328Z</time></trkpt><trkpt lat="41.1260097" lon="9.5357877"><ele>24.0</ele><time>2026-04-07T14:00:17.327Z</time></trkpt><trkpt lat="41.1261302" lon="9.5357604"><ele>25.0</ele><time>2026-04-07T14:00:18.328Z</time></trkpt><trkpt lat="41.1262542" lon="9.5357415"><ele>25.0</ele><time>2026-04-07T14:00:19.327Z</time></trkpt><trkpt lat="41.126381" lon="9.5357279"><ele>25.0</ele><time>2026-04-07T14:00:20.328Z</time></trkpt><trkpt lat="41.1265115" lon="9.5357245"><ele>25.0</ele><time>2026-04-07T14:00:21.328Z</time></trkpt><trkpt lat="41.1266423" lon="9.5357159"><ele>25.0</ele><time>2026-04-07T14:00:22.327Z</time></trkpt><trkpt lat="41.1267763" lon="9.5357089"><ele>27.0</ele><time>2026-04-07T14:00:23.328Z</time></trkpt><trkpt lat="41.1269105" lon="9.5356958"><ele>29.0</ele><time>2026-04-07T14:00:24.328Z</time></trkpt><trkpt lat="41.1270431" lon="9.5356595"><ele>31.0</ele><time>2026-04-07T14:00:25.327Z</time></trkpt><trkpt lat="41.1271695" lon="9.5356003"><ele>33.0</ele><time>2026-04-07T14:00:26.328Z</time></trkpt><trkpt lat="41.1272951" lon="9.5355468"><ele>34.0</ele><time>2026-04-07T14:00:27.328Z</time></trkpt><trkpt lat="41.1274233" lon="9.5355177"><ele>35.0</ele><time>2026-04-07T14:00:28.327Z</time></trkpt><trkpt lat="41.1275503" lon="9.5355194"><ele>36.0</ele><time>2026-04-07T14:00:29.327Z</time></trkpt><trkpt lat="41.1276725" lon="9.5355445"><ele>37.0</ele><time>2026-04-07T14:00:30.327Z</time></trkpt><trkpt lat="41.1277793" lon="9.5355778"><ele>37.0</ele><time>2026-04-07T14:00:31.328Z</time></trkpt><trkpt lat="41.1278836" lon="9.5356164"><ele>37.0</ele><time>2026-04-07T14:00:32.327Z</time></trkpt><trkpt lat="41.1279865" lon="9.5356527"><ele>37.0</ele><time>2026-04-07T14:00:33.328Z</time></trkpt><trkpt lat="41.1280825" lon="9.5356753"><ele>37.0</ele><time>2026-04-07T14:00:34.328Z</time></trkpt><trkpt lat="41.1281775" lon="9.5357042"><ele>37.0</ele><time>2026-04-07T14:00:35.328Z</time></trkpt><trkpt lat="41.1282709" lon="9.53572"><ele>36.2</ele><time>2026-04-07T14:00:36.327Z</time></trkpt><trkpt lat="41.1283616" lon="9.5357322"><ele>35.400000000000006</ele><time>2026-04-07T14:00:37.328Z</time></trkpt><trkpt lat="41.128453" lon="9.5357439"><ele>34.599999999999994</ele><time>2026-04-07T14:00:38.328Z</time></trkpt><trkpt lat="41.1285428" lon="9.5357566"><ele>33.8</ele><time>2026-04-07T14:00:39.328Z</time></trkpt><trkpt lat="41.1286292" lon="9.535766"><ele>33.0</ele><time>2026-04-07T14:00:40.328Z</time></trkpt><trkpt lat="41.1287215" lon="9.535781"><ele>33.0</ele><time>2026-04-07T14:00:41.327Z</time></trkpt><trkpt lat="41.1288116" lon="9.5357969"><ele>33.0</ele><time>2026-04-07T14:00:42.327Z</time></trkpt><trkpt lat="41.1289115" lon="9.5358078"><ele>33.0</ele><time>2026-04-07T14:00:43.328Z</time></trkpt><trkpt lat="41.1290139" lon="9.535819"><ele>33.0</ele><time>2026-04-07T14:00:44.327Z</time></trkpt><trkpt lat="41.129125" lon="9.535819"><ele>33.0</ele><time>2026-04-07T14:00:45.327Z</time></trkpt><trkpt lat="41.1292367" lon="9.5358071"><ele>31.25</ele><time>2026-04-07T14:00:46.328Z</time></trkpt><trkpt lat="41.1293565" lon="9.535793"><ele>29.5</ele><time>2026-04-07T14:00:47.328Z</time></trkpt><trkpt lat="41.1294791" lon="9.5357851"><ele>27.75</ele><time>2026-04-07T14:00:48.328Z</time></trkpt><trkpt lat="41.1296026" lon="9.5357727"><ele>26.0</ele><time>2026-04-07T14:00:49.328Z</time></trkpt><trkpt lat="41.1297311" lon="9.5357582"><ele>26.0</ele><time>2026-04-07T14:00:50.327Z</time></trkpt><trkpt lat="41.1298578" lon="9.5357433"><ele>26.0</ele><time>2026-04-07T14:00:51.327Z</time></trkpt><trkpt lat="41.1299759" lon="9.5357294"><ele>26.0</ele><time>2026-04-07T14:00:52.328Z</time></trkpt><trkpt lat="41.1300975" lon="9.5357109"><ele>26.0</ele><time>2026-04-07T14:00:53.328Z</time></trkpt><trkpt lat="41.1302119" lon="9.5356993"><ele>24.833333333333332</ele><time>2026-04-07T14:00:54.327Z</time></trkpt><trkpt lat="41.1303099" lon="9.5356939"><ele>23.666666666666664</ele><time>2026-04-07T14:00:55.328Z</time></trkpt><trkpt lat="41.1304037" lon="9.5356876"><ele>22.5</ele><time>2026-04-07T14:00:56.327Z</time></trkpt><trkpt lat="41.1304882" lon="9.5356981"><ele>21.333333333333332</ele><time>2026-04-07T14:00:57.328Z</time></trkpt><trkpt lat="41.1305666" lon="9.5357209"><ele>20.166666666666664</ele><time>2026-04-07T14:00:58.328Z</time></trkpt><trkpt lat="41.1306363" lon="9.5357626"><ele>19.0</ele><time>2026-04-07T14:00:59.328Z</time></trkpt><trkpt lat="41.130699" lon="9.5358226"><ele>18.333333333333332</ele><time>2026-04-07T14:01:00.328Z</time></trkpt><trkpt lat="41.130781" lon="9.5359348"><ele>17.666666666666664</ele><time>2026-04-07T14:01:02.327Z</time></trkpt><trkpt lat="41.1308483" lon="9.5359947"><ele>17.0</ele><time>2026-04-07T14:01:04.328Z</time></trkpt><trkpt lat="41.1309242" lon="9.5359984"><ele>16.333333333333332</ele><time>2026-04-07T14:01:06.327Z</time></trkpt><trkpt lat="41.1310001" lon="9.5359606"><ele>15.666666666666666</ele><time>2026-04-07T14:01:08.328Z</time></trkpt><trkpt lat="41.1310687" lon="9.5358972"><ele>15.0</ele><time>2026-04-07T14:01:10.328Z</time></trkpt><trkpt lat="41.1311471" lon="9.5358268"><ele>15.0</ele><time>2026-04-07T14:01:12.327Z</time></trkpt><trkpt lat="41.1312432" lon="9.5357225"><ele>15.0</ele><time>2026-04-07T14:01:14.328Z</time></trkpt><trkpt lat="41.131301" lon="9.5356604"><ele>15.0</ele><time>2026-04-07T14:01:15.328Z</time></trkpt><trkpt lat="41.131356" lon="9.5356036"><ele>15.0</ele><time>2026-04-07T14:01:16.328Z</time></trkpt><trkpt lat="41.1314018" lon="9.5355443"><ele>15.0</ele><time>2026-04-07T14:01:17.328Z</time></trkpt><trkpt lat="41.1314818" lon="9.5354341"><ele>15.0</ele><time>2026-04-07T14:01:19.328Z</time></trkpt><trkpt lat="41.1315341" lon="9.535336"><ele>15.333333333333334</ele><time>2026-04-07T14:01:21.328Z</time></trkpt><trkpt lat="41.1315741" lon="9.5352619"><ele>15.666666666666668</ele><time>2026-04-07T14:01:23.328Z</time></trkpt><trkpt lat="41.1316194" lon="9.5351755"><ele>16.0</ele><time>2026-04-07T14:01:25.328Z</time></trkpt><trkpt lat="41.1316584" lon="9.5350879"><ele>16.333333333333336</ele><time>2026-04-07T14:01:27.327Z</time></trkpt><trkpt lat="41.1316992" lon="9.534992"><ele>16.666666666666668</ele><time>2026-04-07T14:01:29.328Z</time></trkpt><trkpt lat="41.1317384" lon="9.534902"><ele>17.0</ele><time>2026-04-07T14:01:31.328Z</time></trkpt><trkpt lat="41.1317766" lon="9.5348149"><ele>17.0</ele><time>2026-04-07T14:01:33.328Z</time></trkpt><trkpt lat="41.1318085" lon="9.5347175"><ele>17.0</ele><time>2026-04-07T14:01:35.328Z</time></trkpt><trkpt lat="41.1318327" lon="9.534618"><ele>17.0</ele><time>2026-04-07T14:01:37.328Z</time></trkpt><trkpt lat="41.1318539" lon="9.5345119"><ele>17.0</ele><time>2026-04-07T14:01:39.328Z</time></trkpt><trkpt lat="41.131868" lon="9.5343857"><ele>17.0</ele><time>2026-04-07T14:01:41.328Z</time></trkpt><trkpt lat="41.1318845" lon="9.5342687"><ele>17.0</ele><time>2026-04-07T14:01:43.327Z</time></trkpt><trkpt lat="41.1318987" lon="9.5341429"><ele>17.833333333333336</ele><time>2026-04-07T14:01:45.327Z</time></trkpt><trkpt lat="41.1319135" lon="9.5340207"><ele>18.666666666666668</ele><time>2026-04-07T14:01:47.328Z</time></trkpt><trkpt lat="41.1319291" lon="9.5339149"><ele>19.5</ele><time>2026-04-07T14:01:49.328Z</time></trkpt><trkpt lat="41.1319522" lon="9.5338082"><ele>20.333333333333332</ele><time>2026-04-07T14:01:51.328Z</time></trkpt><trkpt lat="41.1319851" lon="9.5336751"><ele>21.166666666666664</ele><time>2026-04-07T14:01:53.327Z</time></trkpt><trkpt lat="41.1320076" lon="9.533585"><ele>22.0</ele><time>2026-04-07T14:01:54.328Z</time></trkpt><trkpt lat="41.1320424" lon="9.5334858"><ele>23.6</ele><time>2026-04-07T14:01:55.328Z</time></trkpt><trkpt lat="41.1321011" lon="9.5333813"><ele>25.200000000000003</ele><time>2026-04-07T14:01:56.327Z</time></trkpt><trkpt lat="41.1321652" lon="9.5332638"><ele>26.8</ele><time>2026-04-07T14:01:57.328Z</time></trkpt><trkpt lat="41.1322239" lon="9.5331507"><ele>28.4</ele><time>2026-04-07T14:01:58.328Z</time></trkpt><trkpt lat="41.1322813" lon="9.5330338"><ele>30.0</ele><time>2026-04-07T14:01:59.327Z</time></trkpt><trkpt lat="41.1323297" lon="9.5329183"><ele>32.0</ele><time>2026-04-07T14:02:00.328Z</time></trkpt><trkpt lat="41.1323568" lon="9.5327988"><ele>34.0</ele><time>2026-04-07T14:02:01.328Z</time></trkpt><trkpt lat="41.132358" lon="9.5326625"><ele>36.0</ele><time>2026-04-07T14:02:02.328Z</time></trkpt><trkpt lat="41.1323396" lon="9.5325244"><ele>38.0</ele><time>2026-04-07T14:02:03.327Z</time></trkpt><trkpt lat="41.1323147" lon="9.5323899"><ele>40.0</ele><time>2026-04-07T14:02:04.327Z</time></trkpt><trkpt lat="41.1322854" lon="9.5322646"><ele>40.0</ele><time>2026-04-07T14:02:05.328Z</time></trkpt><trkpt lat="41.1322605" lon="9.5321654"><ele>40.0</ele><time>2026-04-07T14:02:06.327Z</time></trkpt><trkpt lat="41.13224" lon="9.5320766"><ele>40.0</ele><time>2026-04-07T14:02:07.327Z</time></trkpt><trkpt lat="41.1322195" lon="9.5319804"><ele>40.0</ele><time>2026-04-07T14:02:08.328Z</time></trkpt><trkpt lat="41.1322017" lon="9.53188"><ele>40.0</ele><time>2026-04-07T14:02:09.328Z</time></trkpt><trkpt lat="41.1322055" lon="9.5317704"><ele>40.0</ele><time>2026-04-07T14:02:10.328Z</time></trkpt><trkpt lat="41.1322362" lon="9.531665"><ele>40.6</ele><time>2026-04-07T14:02:11.328Z</time></trkpt><trkpt lat="41.1322971" lon="9.5315746"><ele>41.2</ele><time>2026-04-07T14:02:12.328Z</time></trkpt><trkpt lat="41.1323741" lon="9.5314892"><ele>41.8</ele><time>2026-04-07T14:02:13.328Z</time></trkpt><trkpt lat="41.1324519" lon="9.5313973"><ele>42.4</ele><time>2026-04-07T14:02:14.328Z</time></trkpt><trkpt lat="41.1325288" lon="9.5313029"><ele>43.0</ele><time>2026-04-07T14:02:15.328Z</time></trkpt><trkpt lat="41.1325999" lon="9.5312092"><ele>41.4</ele><time>2026-04-07T14:02:16.328Z</time></trkpt><trkpt lat="41.1326506" lon="9.5311031"><ele>39.8</ele><time>2026-04-07T14:02:17.328Z</time></trkpt><trkpt lat="41.1326842" lon="9.5309917"><ele>38.2</ele><time>2026-04-07T14:02:18.328Z</time></trkpt><trkpt lat="41.1327059" lon="9.5308965"><ele>36.6</ele><time>2026-04-07T14:02:19.328Z</time></trkpt><trkpt lat="41.1327181" lon="9.5308074"><ele>35.0</ele><time>2026-04-07T14:02:20.328Z</time></trkpt><trkpt lat="41.1327005" lon="9.5306457"><ele>35.0</ele><time>2026-04-07T14:02:22.327Z</time></trkpt><trkpt lat="41.1326257" lon="9.5305145"><ele>35.0</ele><time>2026-04-07T14:02:24.328Z</time></trkpt><trkpt lat="41.1325755" lon="9.5304464"><ele>35.0</ele><time>2026-04-07T14:02:25.328Z</time></trkpt><trkpt lat="41.132519" lon="9.5303704"><ele>35.0</ele><time>2026-04-07T14:02:26.328Z</time></trkpt><trkpt lat="41.1324629" lon="9.5302851"><ele>35.0</ele><time>2026-04-07T14:02:27.328Z</time></trkpt><trkpt lat="41.1324091" lon="9.5301963"><ele>35.0</ele><time>2026-04-07T14:02:28.328Z</time></trkpt><trkpt lat="41.1323648" lon="9.5300998"><ele>34.666666666666664</ele><time>2026-04-07T14:02:29.327Z</time></trkpt><trkpt lat="41.1323435" lon="9.5299921"><ele>34.33333333333333</ele><time>2026-04-07T14:02:30.328Z</time></trkpt><trkpt lat="41.1323553" lon="9.5298834"><ele>34.0</ele><time>2026-04-07T14:02:31.327Z</time></trkpt><trkpt lat="41.1323911" lon="9.5297838"><ele>33.666666666666664</ele><time>2026-04-07T14:02:32.328Z</time></trkpt><trkpt lat="41.1324319" lon="9.5296913"><ele>33.333333333333336</ele><time>2026-04-07T14:02:33.327Z</time></trkpt><trkpt lat="41.1324767" lon="9.5295964"><ele>33.0</ele><time>2026-04-07T14:02:34.327Z</time></trkpt><trkpt lat="41.1325255" lon="9.5294837"><ele>31.599999999999998</ele><time>2026-04-07T14:02:35.328Z</time></trkpt><trkpt lat="41.1325842" lon="9.5293824"><ele>30.199999999999996</ele><time>2026-04-07T14:02:36.328Z</time></trkpt><trkpt lat="41.1326474" lon="9.5292854"><ele>28.8</ele><time>2026-04-07T14:02:37.328Z</time></trkpt><trkpt lat="41.1327217" lon="9.5292069"><ele>27.4</ele><time>2026-04-07T14:02:38.328Z</time></trkpt><trkpt lat="41.1328021" lon="9.5291396"><ele>26.0</ele><time>2026-04-07T14:02:39.327Z</time></trkpt><trkpt lat="41.1328842" lon="9.5290871"><ele>25.999999999999996</ele><time>2026-04-07T14:02:40.328Z</time></trkpt><trkpt lat="41.1329604" lon="9.5290373"><ele>26.0</ele><time>2026-04-07T14:02:41.328Z</time></trkpt><trkpt lat="41.1330366" lon="9.5289943"><ele>26.0</ele><time>2026-04-07T14:02:42.327Z</time></trkpt><trkpt lat="41.1331028" lon="9.5289424"><ele>26.0</ele><time>2026-04-07T14:02:43.328Z</time></trkpt><trkpt lat="41.1331671" lon="9.5288668"><ele>25.999999999999996</ele><time>2026-04-07T14:02:44.328Z</time></trkpt><trkpt lat="41.1332179" lon="9.5287736"><ele>26.0</ele><time>2026-04-07T14:02:45.327Z</time></trkpt><trkpt lat="41.1332653" lon="9.5286662"><ele>23.2</ele><time>2026-04-07T14:02:46.328Z</time></trkpt><trkpt lat="41.1333106" lon="9.5285535"><ele>20.400000000000002</ele><time>2026-04-07T14:02:47.327Z</time></trkpt><trkpt lat="41.1333583" lon="9.528439"><ele>17.6</ele><time>2026-04-07T14:02:48.328Z</time></trkpt><trkpt lat="41.1334027" lon="9.5283267"><ele>14.8</ele><time>2026-04-07T14:02:49.328Z</time></trkpt><trkpt lat="41.133441" lon="9.5282074"><ele>12.0</ele><time>2026-04-07T14:02:50.328Z</time></trkpt><trkpt lat="41.1334561" lon="9.5280873"><ele>12.0</ele><time>2026-04-07T14:02:51.327Z</time></trkpt><trkpt lat="41.1334336" lon="9.527983"><ele>12.0</ele><time>2026-04-07T14:02:52.328Z</time></trkpt><trkpt lat="41.1333829" lon="9.5278966"><ele>12.0</ele><time>2026-04-07T14:02:53.328Z</time></trkpt><trkpt lat="41.1332991" lon="9.5278468"><ele>12.0</ele><time>2026-04-07T14:02:54.328Z</time></trkpt><trkpt lat="41.1331909" lon="9.5278264"><ele>12.0</ele><time>2026-04-07T14:02:55.328Z</time></trkpt><trkpt lat="41.1330681" lon="9.5278127"><ele>11.0</ele><time>2026-04-07T14:02:56.327Z</time></trkpt><trkpt lat="41.1329431" lon="9.5278024"><ele>10.0</ele><time>2026-04-07T14:02:57.327Z</time></trkpt><trkpt lat="41.1328219" lon="9.5277889"><ele>9.0</ele><time>2026-04-07T14:02:58.328Z</time></trkpt><trkpt lat="41.1327073" lon="9.5277657"><ele>8.0</ele><time>2026-04-07T14:02:59.327Z</time></trkpt><trkpt lat="41.1326301" lon="9.5277186"><ele>7.0</ele><time>2026-04-07T14:03:00.328Z</time></trkpt><trkpt lat="41.1325712" lon="9.5276667"><ele>7.0</ele><time>2026-04-07T14:03:01.328Z</time></trkpt><trkpt lat="41.1325241" lon="9.5276043"><ele>6.999999999999999</ele><time>2026-04-07T14:03:02.327Z</time></trkpt><trkpt lat="41.1324561" lon="9.5274906"><ele>6.999999999999999</ele><time>2026-04-07T14:03:04.328Z</time></trkpt><trkpt lat="41.1324051" lon="9.5273658"><ele>7.0</ele><time>2026-04-07T14:03:06.328Z</time></trkpt><trkpt lat="41.1324139" lon="9.5272263"><ele>7.0</ele><time>2026-04-07T14:03:08.328Z</time></trkpt><trkpt lat="41.1324453" lon="9.5271479"><ele>7.0</ele><time>2026-04-07T14:03:09.328Z</time></trkpt><trkpt lat="41.1324943" lon="9.5270635"><ele>6.999999999999999</ele><time>2026-04-07T14:03:10.328Z</time></trkpt><trkpt lat="41.1325534" lon="9.5269635"><ele>6.999999999999999</ele><time>2026-04-07T14:03:11.327Z</time></trkpt><trkpt lat="41.1326233" lon="9.5268551"><ele>7.0</ele><time>2026-04-07T14:03:12.328Z</time></trkpt><trkpt lat="41.1327026" lon="9.5267374"><ele>7.0</ele><time>2026-04-07T14:03:13.328Z</time></trkpt><trkpt lat="41.132783" lon="9.5266123"><ele>7.25</ele><time>2026-04-07T14:03:14.328Z</time></trkpt><trkpt lat="41.1328673" lon="9.526486"><ele>7.5</ele><time>2026-04-07T14:03:15.328Z</time></trkpt><trkpt lat="41.1329544" lon="9.5263593"><ele>7.75</ele><time>2026-04-07T14:03:16.328Z</time></trkpt><trkpt lat="41.1330401" lon="9.5262334"><ele>8.0</ele><time>2026-04-07T14:03:17.328Z</time></trkpt><trkpt lat="41.1331238" lon="9.5261067"><ele>8.75</ele><time>2026-04-07T14:03:18.327Z</time></trkpt><trkpt lat="41.1332034" lon="9.5259862"><ele>9.5</ele><time>2026-04-07T14:03:19.328Z</time></trkpt><trkpt lat="41.1332898" lon="9.5258646"><ele>10.25</ele><time>2026-04-07T14:03:20.328Z</time></trkpt><trkpt lat="41.133376" lon="9.5257493"><ele>11.0</ele><time>2026-04-07T14:03:21.328Z</time></trkpt><trkpt lat="41.1334647" lon="9.5256339"><ele>11.0</ele><time>2026-04-07T14:03:22.327Z</time></trkpt><trkpt lat="41.1335567" lon="9.5255307"><ele>11.0</ele><time>2026-04-07T14:03:23.328Z</time></trkpt><trkpt lat="41.1336518" lon="9.5254341"><ele>11.0</ele><time>2026-04-07T14:03:24.328Z</time></trkpt><trkpt lat="41.1337521" lon="9.5253443"><ele>11.0</ele><time>2026-04-07T14:03:25.328Z</time></trkpt><trkpt lat="41.1338527" lon="9.5252599"><ele>10.600000000000001</ele><time>2026-04-07T14:03:26.328Z</time></trkpt><trkpt lat="41.1339476" lon="9.5251834"><ele>10.200000000000001</ele><time>2026-04-07T14:03:27.328Z</time></trkpt><trkpt lat="41.1340303" lon="9.5251073"><ele>9.8</ele><time>2026-04-07T14:03:28.328Z</time></trkpt><trkpt lat="41.1341078" lon="9.5250375"><ele>9.4</ele><time>2026-04-07T14:03:29.328Z</time></trkpt><trkpt lat="41.1341965" lon="9.5249854"><ele>9.0</ele><time>2026-04-07T14:03:30.327Z</time></trkpt><trkpt lat="41.1342842" lon="9.5249537"><ele>9.0</ele><time>2026-04-07T14:03:31.328Z</time></trkpt><trkpt lat="41.1343749" lon="9.5249408"><ele>9.0</ele><time>2026-04-07T14:03:32.327Z</time></trkpt><trkpt lat="41.1344705" lon="9.5249515"><ele>9.0</ele><time>2026-04-07T14:03:33.328Z</time></trkpt><trkpt lat="41.1345611" lon="9.5249849"><ele>9.0</ele><time>2026-04-07T14:03:34.328Z</time></trkpt><trkpt lat="41.1346589" lon="9.5250299"><ele>9.0</ele><time>2026-04-07T14:03:35.328Z</time></trkpt><trkpt lat="41.1347485" lon="9.5250982"><ele>9.0</ele><time>2026-04-07T14:03:36.327Z</time></trkpt><trkpt lat="41.1348335" lon="9.5251849"><ele>9.0</ele><time>2026-04-07T14:03:37.328Z</time></trkpt><trkpt lat="41.1349082" lon="9.5252626"><ele>9.0</ele><time>2026-04-07T14:03:38.328Z</time></trkpt><trkpt lat="41.1349763" lon="9.5253203"><ele>9.0</ele><time>2026-04-07T14:03:39.327Z</time></trkpt><trkpt lat="41.1350533" lon="9.5253476"><ele>9.0</ele><time>2026-04-07T14:03:40.327Z</time></trkpt><trkpt lat="41.1351345" lon="9.5253253"><ele>9.0</ele><time>2026-04-07T14:03:41.328Z</time></trkpt><trkpt lat="41.1352149" lon="9.5252704"><ele>9.4</ele><time>2026-04-07T14:03:42.328Z</time></trkpt><trkpt lat="41.1352991" lon="9.5252014"><ele>9.8</ele><time>2026-04-07T14:03:43.327Z</time></trkpt><trkpt lat="41.1353873" lon="9.5251175"><ele>10.200000000000001</ele><time>2026-04-07T14:03:44.327Z</time></trkpt><trkpt lat="41.1354789" lon="9.5250542"><ele>10.600000000000001</ele><time>2026-04-07T14:03:45.328Z</time></trkpt><trkpt lat="41.1355705" lon="9.5250038"><ele>11.0</ele><time>2026-04-07T14:03:46.328Z</time></trkpt><trkpt lat="41.1356636" lon="9.5249641"><ele>10.75</ele><time>2026-04-07T14:03:47.328Z</time></trkpt><trkpt lat="41.1357611" lon="9.5249234"><ele>10.5</ele><time>2026-04-07T14:03:48.328Z</time></trkpt><trkpt lat="41.1358593" lon="9.524844"><ele>10.25</ele><time>2026-04-07T14:03:49.328Z</time></trkpt><trkpt lat="41.1359605" lon="9.5247526"><ele>10.0</ele><time>2026-04-07T14:03:50.327Z</time></trkpt><trkpt lat="41.1360652" lon="9.5246533"><ele>13.25</ele><time>2026-04-07T14:03:51.327Z</time></trkpt><trkpt lat="41.1361791" lon="9.5245562"><ele>16.5</ele><time>2026-04-07T14:03:52.328Z</time></trkpt><trkpt lat="41.1362914" lon="9.5244927"><ele>19.75</ele><time>2026-04-07T14:03:53.328Z</time></trkpt><trkpt lat="41.1364009" lon="9.524447"><ele>23.0</ele><time>2026-04-07T14:03:54.328Z</time></trkpt><trkpt lat="41.1364968" lon="9.5244189"><ele>21.666666666666668</ele><time>2026-04-07T14:03:55.327Z</time></trkpt><trkpt lat="41.1365814" lon="9.5244275"><ele>20.333333333333336</ele><time>2026-04-07T14:03:56.328Z</time></trkpt><trkpt lat="41.136652" lon="9.5244778"><ele>19.0</ele><time>2026-04-07T14:03:57.328Z</time></trkpt><trkpt lat="41.1367012" lon="9.5245636"><ele>17.666666666666668</ele><time>2026-04-07T14:03:58.328Z</time></trkpt><trkpt lat="41.1367512" lon="9.5246582"><ele>16.333333333333332</ele><time>2026-04-07T14:03:59.328Z</time></trkpt><trkpt lat="41.1368096" lon="9.5247498"><ele>15.0</ele><time>2026-04-07T14:04:00.328Z</time></trkpt><trkpt lat="41.1368755" lon="9.5248236"><ele>13.666666666666666</ele><time>2026-04-07T14:04:01.328Z</time></trkpt><trkpt lat="41.1369475" lon="9.5248776"><ele>12.333333333333334</ele><time>2026-04-07T14:04:02.328Z</time></trkpt><trkpt lat="41.1370245" lon="9.5249197"><ele>11.0</ele><time>2026-04-07T14:04:03.328Z</time></trkpt><trkpt lat="41.1371091" lon="9.5249474"><ele>9.666666666666668</ele><time>2026-04-07T14:04:04.328Z</time></trkpt><trkpt lat="41.1371956" lon="9.5249559"><ele>8.333333333333334</ele><time>2026-04-07T14:04:05.328Z</time></trkpt><trkpt lat="41.1372849" lon="9.5249354"><ele>7.0</ele><time>2026-04-07T14:04:06.327Z</time></trkpt><trkpt lat="41.137369" lon="9.5248851"><ele>7.166666666666667</ele><time>2026-04-07T14:04:07.328Z</time></trkpt><trkpt lat="41.1374388" lon="9.5248126"><ele>7.333333333333334</ele><time>2026-04-07T14:04:08.328Z</time></trkpt><trkpt lat="41.1375038" lon="9.5247275"><ele>7.5</ele><time>2026-04-07T14:04:09.328Z</time></trkpt><trkpt lat="41.1375646" lon="9.5246381"><ele>7.666666666666666</ele><time>2026-04-07T14:04:10.328Z</time></trkpt><trkpt lat="41.1376325" lon="9.5245638"><ele>7.833333333333333</ele><time>2026-04-07T14:04:11.328Z</time></trkpt><trkpt lat="41.1377124" lon="9.5245181"><ele>8.0</ele><time>2026-04-07T14:04:12.328Z</time></trkpt><trkpt lat="41.1377988" lon="9.5245067"><ele>8.333333333333332</ele><time>2026-04-07T14:04:13.328Z</time></trkpt><trkpt lat="41.1378775" lon="9.5245245"><ele>8.666666666666666</ele><time>2026-04-07T14:04:14.327Z</time></trkpt><trkpt lat="41.1379535" lon="9.5245432"><ele>9.0</ele><time>2026-04-07T14:04:15.328Z</time></trkpt><trkpt lat="41.1380283" lon="9.5245502"><ele>9.333333333333334</ele><time>2026-04-07T14:04:16.327Z</time></trkpt><trkpt lat="41.1380942" lon="9.5245469"><ele>9.666666666666668</ele><time>2026-04-07T14:04:17.327Z</time></trkpt><trkpt lat="41.1382018" lon="9.5245316"><ele>10.0</ele><time>2026-04-07T14:04:19.328Z</time></trkpt><trkpt lat="41.1382693" lon="9.5245949"><ele>10.0</ele><time>2026-04-07T14:04:21.327Z</time></trkpt><trkpt lat="41.1383309" lon="9.5246741"><ele>10.0</ele><time>2026-04-07T14:04:23.328Z</time></trkpt><trkpt lat="41.1384378" lon="9.5247237"><ele>10.0</ele><time>2026-04-07T14:04:25.328Z</time></trkpt><trkpt lat="41.1385054" lon="9.5247443"><ele>10.0</ele><time>2026-04-07T14:04:26.327Z</time></trkpt><trkpt lat="41.1385768" lon="9.5247678"><ele>10.0</ele><time>2026-04-07T14:04:27.328Z</time></trkpt><trkpt lat="41.1386507" lon="9.5247986"><ele>10.0</ele><time>2026-04-07T14:04:28.328Z</time></trkpt><trkpt lat="41.1387231" lon="9.5248617"><ele>10.0</ele><time>2026-04-07T14:04:29.328Z</time></trkpt><trkpt lat="41.1387924" lon="9.5249272"><ele>10.0</ele><time>2026-04-07T14:04:30.328Z</time></trkpt><trkpt lat="41.1388593" lon="9.5250052"><ele>10.0</ele><time>2026-04-07T14:04:31.328Z</time></trkpt><trkpt lat="41.1389181" lon="9.5250918"><ele>10.0</ele><time>2026-04-07T14:04:32.328Z</time></trkpt><trkpt lat="41.1389694" lon="9.5251837"><ele>10.0</ele><time>2026-04-07T14:04:33.327Z</time></trkpt><trkpt lat="41.13901" lon="9.5252873"><ele>10.0</ele><time>2026-04-07T14:04:34.328Z</time></trkpt><trkpt lat="41.1390401" lon="9.5253917"><ele>11.0</ele><time>2026-04-07T14:04:35.328Z</time></trkpt><trkpt lat="41.1390724" lon="9.5254937"><ele>12.0</ele><time>2026-04-07T14:04:36.328Z</time></trkpt><trkpt lat="41.1390975" lon="9.5255971"><ele>13.0</ele><time>2026-04-07T14:04:37.328Z</time></trkpt><trkpt lat="41.1391033" lon="9.5257046"><ele>14.0</ele><time>2026-04-07T14:04:38.328Z</time></trkpt><trkpt lat="41.1390858" lon="9.5258043"><ele>14.999999999999998</ele><time>2026-04-07T14:04:39.328Z</time></trkpt><trkpt lat="41.1390501" lon="9.5258952"><ele>16.0</ele><time>2026-04-07T14:04:40.328Z</time></trkpt><trkpt lat="41.1389967" lon="9.5259689"><ele>15.999999999999998</ele><time>2026-04-07T14:04:41.327Z</time></trkpt><trkpt lat="41.1389461" lon="9.5260468"><ele>16.0</ele><time>2026-04-07T14:04:42.328Z</time></trkpt><trkpt lat="41.1389147" lon="9.5261397"><ele>16.0</ele><time>2026-04-07T14:04:43.328Z</time></trkpt><trkpt lat="41.1389204" lon="9.5262492"><ele>16.0</ele><time>2026-04-07T14:04:44.328Z</time></trkpt><trkpt lat="41.138936" lon="9.5263438"><ele>15.999999999999998</ele><time>2026-04-07T14:04:45.328Z</time></trkpt><trkpt lat="41.1389635" lon="9.526499"><ele>16.0</ele><time>2026-04-07T14:04:47.328Z</time></trkpt><trkpt lat="41.1389923" lon="9.5266348"><ele>18.25</ele><time>2026-04-07T14:04:49.328Z</time></trkpt><trkpt lat="41.1390634" lon="9.5267945"><ele>20.5</ele><time>2026-04-07T14:04:51.327Z</time></trkpt><trkpt lat="41.1391291" lon="9.526879"><ele>22.75</ele><time>2026-04-07T14:04:52.328Z</time></trkpt><trkpt lat="41.1392116" lon="9.526979"><ele>25.0</ele><time>2026-04-07T14:04:53.327Z</time></trkpt><trkpt lat="41.1393072" lon="9.5270868"><ele>25.0</ele><time>2026-04-07T14:04:54.327Z</time></trkpt><trkpt lat="41.1394025" lon="9.5271906"><ele>25.0</ele><time>2026-04-07T14:04:55.327Z</time></trkpt><trkpt lat="41.1394908" lon="9.5273015"><ele>25.0</ele><time>2026-04-07T14:04:56.328Z</time></trkpt><trkpt lat="41.1395749" lon="9.5274116"><ele>25.0</ele><time>2026-04-07T14:04:57.328Z</time></trkpt><trkpt lat="41.1396476" lon="9.5275171"><ele>25.0</ele><time>2026-04-07T14:04:58.328Z</time></trkpt><trkpt lat="41.1397111" lon="9.5276231"><ele>25.0</ele><time>2026-04-07T14:04:59.328Z</time></trkpt><trkpt lat="41.139759" lon="9.5277384"><ele>25.0</ele><time>2026-04-07T14:05:00.328Z</time></trkpt><trkpt lat="41.1397957" lon="9.527856"><ele>25.0</ele><time>2026-04-07T14:05:01.327Z</time></trkpt><trkpt lat="41.1398265" lon="9.527979"><ele>25.0</ele><time>2026-04-07T14:05:02.327Z</time></trkpt><trkpt lat="41.1398495" lon="9.5281034"><ele>25.0</ele><time>2026-04-07T14:05:03.327Z</time></trkpt><trkpt lat="41.1398694" lon="9.5282328"><ele>25.0</ele><time>2026-04-07T14:05:04.328Z</time></trkpt><trkpt lat="41.1398879" lon="9.5283603"><ele>25.0</ele><time>2026-04-07T14:05:05.327Z</time></trkpt><trkpt lat="41.1399011" lon="9.5284933"><ele>25.0</ele><time>2026-04-07T14:05:06.328Z</time></trkpt><trkpt lat="41.1399076" lon="9.528632"><ele>25.0</ele><time>2026-04-07T14:05:07.328Z</time></trkpt><trkpt lat="41.1399054" lon="9.5287688"><ele>24.833333333333336</ele><time>2026-04-07T14:05:08.328Z</time></trkpt><trkpt lat="41.1398975" lon="9.528891"><ele>24.666666666666668</ele><time>2026-04-07T14:05:09.328Z</time></trkpt><trkpt lat="41.1398846" lon="9.5290016"><ele>24.5</ele><time>2026-04-07T14:05:10.328Z</time></trkpt><trkpt lat="41.1398653" lon="9.529112"><ele>24.333333333333336</ele><time>2026-04-07T14:05:11.328Z</time></trkpt><trkpt lat="41.1398389" lon="9.5292216"><ele>24.166666666666668</ele><time>2026-04-07T14:05:12.328Z</time></trkpt><trkpt lat="41.1398163" lon="9.5293326"><ele>24.0</ele><time>2026-04-07T14:05:13.327Z</time></trkpt><trkpt lat="41.1397926" lon="9.529452"><ele>22.4</ele><time>2026-04-07T14:05:14.328Z</time></trkpt><trkpt lat="41.139769" lon="9.5295712"><ele>20.799999999999997</ele><time>2026-04-07T14:05:15.328Z</time></trkpt><trkpt lat="41.1397509" lon="9.5296944"><ele>19.200000000000003</ele><time>2026-04-07T14:05:16.328Z</time></trkpt><trkpt lat="41.1397289" lon="9.5298191"><ele>17.6</ele><time>2026-04-07T14:05:17.327Z</time></trkpt><trkpt lat="41.1397086" lon="9.5299463"><ele>16.0</ele><time>2026-04-07T14:05:18.328Z</time></trkpt><trkpt lat="41.1396888" lon="9.5300745"><ele>16.0</ele><time>2026-04-07T14:05:19.328Z</time></trkpt><trkpt lat="41.1396625" lon="9.5302032"><ele>16.0</ele><time>2026-04-07T14:05:20.328Z</time></trkpt><trkpt lat="41.1396346" lon="9.5303342"><ele>16.0</ele><time>2026-04-07T14:05:21.327Z</time></trkpt><trkpt lat="41.1396041" lon="9.5304618"><ele>16.0</ele><time>2026-04-07T14:05:22.327Z</time></trkpt><trkpt lat="41.1395738" lon="9.5305893"><ele>16.0</ele><time>2026-04-07T14:05:23.327Z</time></trkpt><trkpt lat="41.1395342" lon="9.5307241"><ele>16.0</ele><time>2026-04-07T14:05:24.328Z</time></trkpt><trkpt lat="41.1394973" lon="9.5308636"><ele>16.0</ele><time>2026-04-07T14:05:25.328Z</time></trkpt><trkpt lat="41.139467" lon="9.5310093"><ele>16.0</ele><time>2026-04-07T14:05:26.328Z</time></trkpt><trkpt lat="41.139445" lon="9.531161"><ele>16.0</ele><time>2026-04-07T14:05:27.328Z</time></trkpt><trkpt lat="41.1394314" lon="9.5313165"><ele>16.25</ele><time>2026-04-07T14:05:28.328Z</time></trkpt><trkpt lat="41.1394245" lon="9.5314751"><ele>16.5</ele><time>2026-04-07T14:05:29.328Z</time></trkpt><trkpt lat="41.1394223" lon="9.5316345"><ele>16.75</ele><time>2026-04-07T14:05:30.328Z</time></trkpt><trkpt lat="41.1394252" lon="9.5317965"><ele>17.0</ele><time>2026-04-07T14:05:31.328Z</time></trkpt><trkpt lat="41.1394298" lon="9.5319595"><ele>17.5</ele><time>2026-04-07T14:05:32.328Z</time></trkpt><trkpt lat="41.13944" lon="9.5321205"><ele>18.0</ele><time>2026-04-07T14:05:33.327Z</time></trkpt><trkpt lat="41.1394606" lon="9.5322789"><ele>18.5</ele><time>2026-04-07T14:05:34.327Z</time></trkpt><trkpt lat="41.1394912" lon="9.5324339"><ele>19.0</ele><time>2026-04-07T14:05:35.327Z</time></trkpt><trkpt lat="41.1395344" lon="9.5325848"><ele>19.0</ele><time>2026-04-07T14:05:36.328Z</time></trkpt><trkpt lat="41.1395804" lon="9.5327369"><ele>19.0</ele><time>2026-04-07T14:05:37.327Z</time></trkpt><trkpt lat="41.1396289" lon="9.5328907"><ele>19.0</ele><time>2026-04-07T14:05:38.328Z</time></trkpt><trkpt lat="41.139679" lon="9.5330394"><ele>19.0</ele><time>2026-04-07T14:05:39.327Z</time></trkpt><trkpt lat="41.1397202" lon="9.5331812"><ele>18.599999999999998</ele><time>2026-04-07T14:05:40.328Z</time></trkpt><trkpt lat="41.1397426" lon="9.5333288"><ele>18.2</ele><time>2026-04-07T14:05:41.328Z</time></trkpt><trkpt lat="41.1397553" lon="9.5334761"><ele>17.799999999999997</ele><time>2026-04-07T14:05:42.328Z</time></trkpt><trkpt lat="41.1397604" lon="9.5336138"><ele>17.4</ele><time>2026-04-07T14:05:43.327Z</time></trkpt><trkpt lat="41.139767" lon="9.5337443"><ele>17.0</ele><time>2026-04-07T14:05:44.328Z</time></trkpt><trkpt lat="41.1397801" lon="9.5338664"><ele>16.166666666666668</ele><time>2026-04-07T14:05:45.328Z</time></trkpt><trkpt lat="41.1397934" lon="9.5339772"><ele>15.333333333333334</ele><time>2026-04-07T14:05:46.328Z</time></trkpt><trkpt lat="41.1398002" lon="9.534074"><ele>14.5</ele><time>2026-04-07T14:05:47.328Z</time></trkpt><trkpt lat="41.1398196" lon="9.5342161"><ele>13.666666666666668</ele><time>2026-04-07T14:05:49.328Z</time></trkpt><trkpt lat="41.1398582" lon="9.5342885"><ele>12.833333333333334</ele><time>2026-04-07T14:05:52.328Z</time></trkpt><trkpt lat="41.1398668" lon="9.5341854"><ele>12.0</ele><time>2026-04-07T14:05:56.327Z</time></trkpt><trkpt lat="41.1398277" lon="9.5340631"><ele>11.999999999999998</ele><time>2026-04-07T14:05:58.328Z</time></trkpt><trkpt lat="41.1398209" lon="9.5339789"><ele>12.0</ele><time>2026-04-07T14:05:59.328Z</time></trkpt><trkpt lat="41.139814" lon="9.5338942"><ele>12.0</ele><time>2026-04-07T14:06:00.328Z</time></trkpt><trkpt lat="41.1398066" lon="9.5338057"><ele>12.0</ele><time>2026-04-07T14:06:01.328Z</time></trkpt><trkpt lat="41.1398048" lon="9.5337141"><ele>12.0</ele><time>2026-04-07T14:06:02.328Z</time></trkpt><trkpt lat="41.139805" lon="9.5336178"><ele>11.999999999999998</ele><time>2026-04-07T14:06:03.328Z</time></trkpt><trkpt lat="41.1398041" lon="9.5335125"><ele>12.0</ele><time>2026-04-07T14:06:04.327Z</time></trkpt><trkpt lat="41.1398019" lon="9.5334112"><ele>12.833333333333334</ele><time>2026-04-07T14:06:05.327Z</time></trkpt><trkpt lat="41.1397904" lon="9.5333099"><ele>13.666666666666668</ele><time>2026-04-07T14:06:06.328Z</time></trkpt><trkpt lat="41.1397699" lon="9.5332117"><ele>14.5</ele><time>2026-04-07T14:06:07.328Z</time></trkpt><trkpt lat="41.1397412" lon="9.5331098"><ele>15.333333333333334</ele><time>2026-04-07T14:06:08.328Z</time></trkpt><trkpt lat="41.1397075" lon="9.5330183"><ele>16.166666666666668</ele><time>2026-04-07T14:06:09.328Z</time></trkpt><trkpt lat="41.1396739" lon="9.5329321"><ele>17.0</ele><time>2026-04-07T14:06:10.328Z</time></trkpt><trkpt lat="41.1396485" lon="9.5328519"><ele>17.333333333333336</ele><time>2026-04-07T14:06:11.328Z</time></trkpt><trkpt lat="41.1396201" lon="9.5327698"><ele>17.666666666666668</ele><time>2026-04-07T14:06:12.327Z</time></trkpt><trkpt lat="41.1395658" lon="9.5326239"><ele>18.0</ele><time>2026-04-07T14:06:14.327Z</time></trkpt><trkpt lat="41.1395398" lon="9.5325477"><ele>18.333333333333332</ele><time>2026-04-07T14:06:15.327Z</time></trkpt><trkpt lat="41.1395172" lon="9.5324563"><ele>18.666666666666664</ele><time>2026-04-07T14:06:16.327Z</time></trkpt><trkpt lat="41.1394983" lon="9.5323603"><ele>19.0</ele><time>2026-04-07T14:06:17.328Z</time></trkpt><trkpt lat="41.1394838" lon="9.5322548"><ele>19.0</ele><time>2026-04-07T14:06:18.328Z</time></trkpt><trkpt lat="41.1394686" lon="9.5321463"><ele>19.0</ele><time>2026-04-07T14:06:19.328Z</time></trkpt><trkpt lat="41.1394556" lon="9.5320354"><ele>19.0</ele><time>2026-04-07T14:06:20.328Z</time></trkpt><trkpt lat="41.1394561" lon="9.5319229"><ele>19.0</ele><time>2026-04-07T14:06:21.328Z</time></trkpt><trkpt lat="41.1394509" lon="9.5318067"><ele>19.0</ele><time>2026-04-07T14:06:22.328Z</time></trkpt><trkpt lat="41.1394472" lon="9.5316953"><ele>19.0</ele><time>2026-04-07T14:06:23.328Z</time></trkpt><trkpt lat="41.1394492" lon="9.5315811"><ele>18.666666666666664</ele><time>2026-04-07T14:06:24.328Z</time></trkpt><trkpt lat="41.1394531" lon="9.5314708"><ele>18.333333333333332</ele><time>2026-04-07T14:06:25.327Z</time></trkpt><trkpt lat="41.1394613" lon="9.5313605"><ele>18.0</ele><time>2026-04-07T14:06:26.328Z</time></trkpt><trkpt lat="41.1394699" lon="9.5312514"><ele>17.666666666666668</ele><time>2026-04-07T14:06:27.328Z</time></trkpt><trkpt lat="41.1394807" lon="9.5311473"><ele>17.333333333333336</ele><time>2026-04-07T14:06:28.327Z</time></trkpt><trkpt lat="41.1394961" lon="9.5310507"><ele>17.0</ele><time>2026-04-07T14:06:29.328Z</time></trkpt><trkpt lat="41.1395129" lon="9.5309581"><ele>16.833333333333336</ele><time>2026-04-07T14:06:30.327Z</time></trkpt><trkpt lat="41.1395302" lon="9.5308715"><ele>16.666666666666668</ele><time>2026-04-07T14:06:31.328Z</time></trkpt><trkpt lat="41.1395496" lon="9.5307784"><ele>16.5</ele><time>2026-04-07T14:06:32.328Z</time></trkpt><trkpt lat="41.1395749" lon="9.5306823"><ele>16.333333333333332</ele><time>2026-04-07T14:06:33.327Z</time></trkpt><trkpt lat="41.1396029" lon="9.5305862"><ele>16.166666666666664</ele><time>2026-04-07T14:06:34.328Z</time></trkpt><trkpt lat="41.1396428" lon="9.5304865"><ele>16.0</ele><time>2026-04-07T14:06:35.327Z</time></trkpt><trkpt lat="41.1396681" lon="9.5303742"><ele>16.0</ele><time>2026-04-07T14:06:36.328Z</time></trkpt><trkpt lat="41.1397136" lon="9.5301318"><ele>16.0</ele><time>2026-04-07T14:06:38.327Z</time></trkpt><trkpt lat="41.1397324" lon="9.530008"><ele>16.0</ele><time>2026-04-07T14:06:39.328Z</time></trkpt><trkpt lat="41.1397535" lon="9.529876"><ele>16.0</ele><time>2026-04-07T14:06:40.328Z</time></trkpt><trkpt lat="41.1397774" lon="9.5297488"><ele>16.0</ele><time>2026-04-07T14:06:41.328Z</time></trkpt><trkpt lat="41.1397977" lon="9.5296222"><ele>16.0</ele><time>2026-04-07T14:06:42.328Z</time></trkpt><trkpt lat="41.1398208" lon="9.5295029"><ele>16.0</ele><time>2026-04-07T14:06:43.328Z</time></trkpt><trkpt lat="41.1398414" lon="9.5293833"><ele>16.0</ele><time>2026-04-07T14:06:44.328Z</time></trkpt><trkpt lat="41.139869" lon="9.529267"><ele>16.0</ele><time>2026-04-07T14:06:45.328Z</time></trkpt><trkpt lat="41.1398976" lon="9.5291505"><ele>17.6</ele><time>2026-04-07T14:06:46.327Z</time></trkpt><trkpt lat="41.1399241" lon="9.5290304"><ele>19.200000000000003</ele><time>2026-04-07T14:06:47.327Z</time></trkpt><trkpt lat="41.1399481" lon="9.5289111"><ele>20.799999999999997</ele><time>2026-04-07T14:06:48.328Z</time></trkpt><trkpt lat="41.139957" lon="9.5287873"><ele>22.4</ele><time>2026-04-07T14:06:49.328Z</time></trkpt><trkpt lat="41.1399601" lon="9.5286603"><ele>24.0</ele><time>2026-04-07T14:06:50.327Z</time></trkpt><trkpt lat="41.1399532" lon="9.5285349"><ele>24.2</ele><time>2026-04-07T14:06:51.328Z</time></trkpt><trkpt lat="41.1399376" lon="9.5284091"><ele>24.4</ele><time>2026-04-07T14:06:52.328Z</time></trkpt><trkpt lat="41.1399202" lon="9.5282813"><ele>24.6</ele><time>2026-04-07T14:06:53.327Z</time></trkpt><trkpt lat="41.1399028" lon="9.5281558"><ele>24.8</ele><time>2026-04-07T14:06:54.327Z</time></trkpt><trkpt lat="41.1398814" lon="9.5280279"><ele>25.0</ele><time>2026-04-07T14:06:55.328Z</time></trkpt><trkpt lat="41.1398553" lon="9.5279101"><ele>25.000000000000004</ele><time>2026-04-07T14:06:56.328Z</time></trkpt><trkpt lat="41.1398242" lon="9.5277957"><ele>25.0</ele><time>2026-04-07T14:06:57.328Z</time></trkpt><trkpt lat="41.1397831" lon="9.5276894"><ele>25.0</ele><time>2026-04-07T14:06:58.328Z</time></trkpt><trkpt lat="41.1397356" lon="9.5275924"><ele>25.0</ele><time>2026-04-07T14:06:59.327Z</time></trkpt><trkpt lat="41.1396798" lon="9.5275013"><ele>25.000000000000004</ele><time>2026-04-07T14:07:00.328Z</time></trkpt><trkpt lat="41.1396224" lon="9.5274227"><ele>25.0</ele><time>2026-04-07T14:07:01.327Z</time></trkpt><trkpt lat="41.1395641" lon="9.527351"><ele>25.000000000000004</ele><time>2026-04-07T14:07:02.328Z</time></trkpt><trkpt lat="41.1395107" lon="9.5272724"><ele>25.0</ele><time>2026-04-07T14:07:03.327Z</time></trkpt><trkpt lat="41.1394568" lon="9.5272003"><ele>25.0</ele><time>2026-04-07T14:07:04.328Z</time></trkpt><trkpt lat="41.1393989" lon="9.5271272"><ele>25.0</ele><time>2026-04-07T14:07:05.328Z</time></trkpt><trkpt lat="41.1393418" lon="9.527051"><ele>25.000000000000004</ele><time>2026-04-07T14:07:06.328Z</time></trkpt><trkpt lat="41.1392807" lon="9.5269808"><ele>25.0</ele><time>2026-04-07T14:07:07.328Z</time></trkpt><trkpt lat="41.1392195" lon="9.5269178"><ele>25.142857142857146</ele><time>2026-04-07T14:07:08.327Z</time></trkpt><trkpt lat="41.1391615" lon="9.5268582"><ele>25.285714285714285</ele><time>2026-04-07T14:07:09.327Z</time></trkpt><trkpt lat="41.1391113" lon="9.526793"><ele>25.42857142857143</ele><time>2026-04-07T14:07:10.328Z</time></trkpt><trkpt lat="41.1390686" lon="9.5267239"><ele>25.571428571428573</ele><time>2026-04-07T14:07:11.328Z</time></trkpt><trkpt lat="41.1390356" lon="9.5266413"><ele>25.714285714285715</ele><time>2026-04-07T14:07:12.328Z</time></trkpt><trkpt lat="41.1390085" lon="9.5265574"><ele>25.857142857142858</ele><time>2026-04-07T14:07:13.328Z</time></trkpt><trkpt lat="41.1389825" lon="9.5264703"><ele>26.0</ele><time>2026-04-07T14:07:14.328Z</time></trkpt><trkpt lat="41.1389619" lon="9.5263853"><ele>25.666666666666664</ele><time>2026-04-07T14:07:15.328Z</time></trkpt><trkpt lat="41.1389411" lon="9.5262913"><ele>25.333333333333332</ele><time>2026-04-07T14:07:16.327Z</time></trkpt><trkpt lat="41.1389329" lon="9.5261935"><ele>25.0</ele><time>2026-04-07T14:07:17.328Z</time></trkpt><trkpt lat="41.1389495" lon="9.5261109"><ele>24.666666666666664</ele><time>2026-04-07T14:07:18.328Z</time></trkpt><trkpt lat="41.1390361" lon="9.5259826"><ele>24.333333333333332</ele><time>2026-04-07T14:07:20.328Z</time></trkpt><trkpt lat="41.1390823" lon="9.5259069"><ele>24.0</ele><time>2026-04-07T14:07:21.328Z</time></trkpt><trkpt lat="41.1391215" lon="9.5258175"><ele>24.0</ele><time>2026-04-07T14:07:22.327Z</time></trkpt><trkpt lat="41.1391353" lon="9.5257072"><ele>24.0</ele><time>2026-04-07T14:07:23.327Z</time></trkpt><trkpt lat="41.1391229" lon="9.5255892"><ele>24.0</ele><time>2026-04-07T14:07:24.328Z</time></trkpt><trkpt lat="41.1390933" lon="9.5254728"><ele>24.0</ele><time>2026-04-07T14:07:25.327Z</time></trkpt><trkpt lat="41.1390552" lon="9.5253493"><ele>24.0</ele><time>2026-04-07T14:07:26.327Z</time></trkpt><trkpt lat="41.1390097" lon="9.5252218"><ele>20.5</ele><time>2026-04-07T14:07:27.328Z</time></trkpt><trkpt lat="41.1389511" lon="9.5250925"><ele>17.0</ele><time>2026-04-07T14:07:28.327Z</time></trkpt><trkpt lat="41.1388747" lon="9.5249772"><ele>13.5</ele><time>2026-04-07T14:07:29.328Z</time></trkpt><trkpt lat="41.138783" lon="9.5248793"><ele>10.0</ele><time>2026-04-07T14:07:30.327Z</time></trkpt><trkpt lat="41.1386855" lon="9.5248065"><ele>10.0</ele><time>2026-04-07T14:07:31.328Z</time></trkpt><trkpt lat="41.1385915" lon="9.5247512"><ele>10.0</ele><time>2026-04-07T14:07:32.328Z</time></trkpt><trkpt lat="41.1385121" lon="9.5247131"><ele>10.0</ele><time>2026-04-07T14:07:33.328Z</time></trkpt><trkpt lat="41.1384458" lon="9.5246872"><ele>10.0</ele><time>2026-04-07T14:07:34.328Z</time></trkpt><trkpt lat="41.1383638" lon="9.5246456"><ele>10.0</ele><time>2026-04-07T14:07:36.327Z</time></trkpt><trkpt lat="41.1383135" lon="9.5245953"><ele>10.0</ele><time>2026-04-07T14:07:38.327Z</time></trkpt><trkpt lat="41.1382866" lon="9.5245196"><ele>9.833333333333334</ele><time>2026-04-07T14:07:40.327Z</time></trkpt><trkpt lat="41.1383095" lon="9.5243957"><ele>9.666666666666668</ele><time>2026-04-07T14:07:42.328Z</time></trkpt><trkpt lat="41.1383437" lon="9.5243217"><ele>9.5</ele><time>2026-04-07T14:07:43.328Z</time></trkpt><trkpt lat="41.1383885" lon="9.5242488"><ele>9.333333333333334</ele><time>2026-04-07T14:07:44.327Z</time></trkpt><trkpt lat="41.1384392" lon="9.5241745"><ele>9.166666666666666</ele><time>2026-04-07T14:07:45.328Z</time></trkpt><trkpt lat="41.1384882" lon="9.5240983"><ele>9.0</ele><time>2026-04-07T14:07:46.327Z</time></trkpt><trkpt lat="41.1385391" lon="9.524017"><ele>9.0</ele><time>2026-04-07T14:07:47.327Z</time></trkpt><trkpt lat="41.1385882" lon="9.5239295"><ele>9.0</ele><time>2026-04-07T14:07:48.328Z</time></trkpt><trkpt lat="41.1386377" lon="9.5238542"><ele>9.0</ele><time>2026-04-07T14:07:49.327Z</time></trkpt><trkpt lat="41.1386934" lon="9.5237832"><ele>9.0</ele><time>2026-04-07T14:07:50.328Z</time></trkpt><trkpt lat="41.1387616" lon="9.5237174"><ele>9.0</ele><time>2026-04-07T14:07:51.327Z</time></trkpt><trkpt lat="41.1388368" lon="9.5236619"><ele>9.0</ele><time>2026-04-07T14:07:52.328Z</time></trkpt><trkpt lat="41.138913" lon="9.5236097"><ele>9.000000000000002</ele><time>2026-04-07T14:07:53.327Z</time></trkpt><trkpt lat="41.1389862" lon="9.5235611"><ele>9.0</ele><time>2026-04-07T14:07:54.328Z</time></trkpt><trkpt lat="41.139054" lon="9.5235174"><ele>9.0</ele><time>2026-04-07T14:07:55.328Z</time></trkpt><trkpt lat="41.139114" lon="9.5234809"><ele>9.0</ele><time>2026-04-07T14:07:56.328Z</time></trkpt><trkpt lat="41.1391736" lon="9.523448"><ele>9.0</ele><time>2026-04-07T14:07:57.328Z</time></trkpt><trkpt lat="41.1392387" lon="9.5234202"><ele>9.000000000000002</ele><time>2026-04-07T14:07:58.328Z</time></trkpt><trkpt lat="41.1393113" lon="9.5233971"><ele>9.0</ele><time>2026-04-07T14:07:59.327Z</time></trkpt><trkpt lat="41.1393874" lon="9.523372"><ele>9.166666666666666</ele><time>2026-04-07T14:08:00.328Z</time></trkpt><trkpt lat="41.1394683" lon="9.5233543"><ele>9.333333333333334</ele><time>2026-04-07T14:08:01.328Z</time></trkpt><trkpt lat="41.139553" lon="9.5233437"><ele>9.5</ele><time>2026-04-07T14:08:02.328Z</time></trkpt><trkpt lat="41.1396358" lon="9.5233457"><ele>9.666666666666668</ele><time>2026-04-07T14:08:03.328Z</time></trkpt><trkpt lat="41.1397211" lon="9.5233722"><ele>9.833333333333334</ele><time>2026-04-07T14:08:04.327Z</time></trkpt><trkpt lat="41.1398067" lon="9.5234055"><ele>10.0</ele><time>2026-04-07T14:08:05.328Z</time></trkpt><trkpt lat="41.1398976" lon="9.52343"><ele>11.4</ele><time>2026-04-07T14:08:06.328Z</time></trkpt><trkpt lat="41.1399919" lon="9.5234641"><ele>12.8</ele><time>2026-04-07T14:08:07.328Z</time></trkpt><trkpt lat="41.1400859" lon="9.5235041"><ele>14.2</ele><time>2026-04-07T14:08:08.328Z</time></trkpt><trkpt lat="41.1401865" lon="9.523539"><ele>15.6</ele><time>2026-04-07T14:08:09.327Z</time></trkpt><trkpt lat="41.1402843" lon="9.5235832"><ele>17.0</ele><time>2026-04-07T14:08:10.328Z</time></trkpt><trkpt lat="41.14038" lon="9.5236258"><ele>17.0</ele><time>2026-04-07T14:08:11.328Z</time></trkpt><trkpt lat="41.1404704" lon="9.5236647"><ele>17.0</ele><time>2026-04-07T14:08:12.328Z</time></trkpt><trkpt lat="41.140566" lon="9.5237031"><ele>17.0</ele><time>2026-04-07T14:08:13.328Z</time></trkpt><trkpt lat="41.1406612" lon="9.5237441"><ele>17.0</ele><time>2026-04-07T14:08:14.328Z</time></trkpt><trkpt lat="41.1407558" lon="9.5237889"><ele>17.0</ele><time>2026-04-07T14:08:15.328Z</time></trkpt><trkpt lat="41.140851" lon="9.5238442"><ele>17.6</ele><time>2026-04-07T14:08:16.328Z</time></trkpt><trkpt lat="41.1409454" lon="9.5239034"><ele>18.2</ele><time>2026-04-07T14:08:17.328Z</time></trkpt><trkpt lat="41.1410402" lon="9.5239627"><ele>18.8</ele><time>2026-04-07T14:08:18.328Z</time></trkpt><trkpt lat="41.1411354" lon="9.5240265"><ele>19.4</ele><time>2026-04-07T14:08:19.328Z</time></trkpt><trkpt lat="41.1412238" lon="9.5240841"><ele>20.0</ele><time>2026-04-07T14:08:20.328Z</time></trkpt><trkpt lat="41.1413112" lon="9.5241366"><ele>20.0</ele><time>2026-04-07T14:08:21.327Z</time></trkpt><trkpt lat="41.141402" lon="9.5241842"><ele>20.0</ele><time>2026-04-07T14:08:22.328Z</time></trkpt><trkpt lat="41.1414958" lon="9.524225"><ele>20.0</ele><time>2026-04-07T14:08:23.328Z</time></trkpt><trkpt lat="41.141585" lon="9.5242696"><ele>20.0</ele><time>2026-04-07T14:08:24.327Z</time></trkpt><trkpt lat="41.1416703" lon="9.5243277"><ele>20.0</ele><time>2026-04-07T14:08:25.328Z</time></trkpt><trkpt lat="41.1417574" lon="9.5243969"><ele>20.0</ele><time>2026-04-07T14:08:26.328Z</time></trkpt><trkpt lat="41.141837" lon="9.5244736"><ele>20.0</ele><time>2026-04-07T14:08:27.328Z</time></trkpt><trkpt lat="41.141908" lon="9.5245697"><ele>20.0</ele><time>2026-04-07T14:08:28.327Z</time></trkpt><trkpt lat="41.1419802" lon="9.5246689"><ele>20.0</ele><time>2026-04-07T14:08:29.327Z</time></trkpt><trkpt lat="41.1420629" lon="9.5247591"><ele>20.0</ele><time>2026-04-07T14:08:30.328Z</time></trkpt><trkpt lat="41.1421547" lon="9.5248434"><ele>20.0</ele><time>2026-04-07T14:08:31.328Z</time></trkpt><trkpt lat="41.1422574" lon="9.5249217"><ele>20.0</ele><time>2026-04-07T14:08:32.328Z</time></trkpt><trkpt lat="41.1423658" lon="9.5250007"><ele>20.0</ele><time>2026-04-07T14:08:33.328Z</time></trkpt><trkpt lat="41.1424727" lon="9.5250837"><ele>20.0</ele><time>2026-04-07T14:08:34.328Z</time></trkpt><trkpt lat="41.1425852" lon="9.5251621"><ele>20.0</ele><time>2026-04-07T14:08:35.328Z</time></trkpt><trkpt lat="41.1427044" lon="9.5252396"><ele>20.0</ele><time>2026-04-07T14:08:36.327Z</time></trkpt><trkpt lat="41.1428306" lon="9.5253068"><ele>20.0</ele><time>2026-04-07T14:08:37.327Z</time></trkpt><trkpt lat="41.1429623" lon="9.5253679"><ele>20.0</ele><time>2026-04-07T14:08:38.327Z</time></trkpt><trkpt lat="41.1430979" lon="9.525426"><ele>20.25</ele><time>2026-04-07T14:08:39.328Z</time></trkpt><trkpt lat="41.1432312" lon="9.5254891"><ele>20.5</ele><time>2026-04-07T14:08:40.328Z</time></trkpt><trkpt lat="41.143368" lon="9.5255434"><ele>20.75</ele><time>2026-04-07T14:08:41.327Z</time></trkpt><trkpt lat="41.1435005" lon="9.5255728"><ele>21.0</ele><time>2026-04-07T14:08:42.328Z</time></trkpt><trkpt lat="41.1436274" lon="9.5255627"><ele>21.0</ele><time>2026-04-07T14:08:43.328Z</time></trkpt><trkpt lat="41.1437466" lon="9.5255109"><ele>21.0</ele><time>2026-04-07T14:08:44.328Z</time></trkpt><trkpt lat="41.1438546" lon="9.525425"><ele>21.0</ele><time>2026-04-07T14:08:45.328Z</time></trkpt><trkpt lat="41.143953" lon="9.5253138"><ele>21.0</ele><time>2026-04-07T14:08:46.328Z</time></trkpt><trkpt lat="41.1440377" lon="9.5251834"><ele>22.5</ele><time>2026-04-07T14:08:47.328Z</time></trkpt><trkpt lat="41.1441155" lon="9.5250326"><ele>24.0</ele><time>2026-04-07T14:08:48.328Z</time></trkpt><trkpt lat="41.1441839" lon="9.5248717"><ele>25.5</ele><time>2026-04-07T14:08:49.328Z</time></trkpt><trkpt lat="41.1442394" lon="9.5246945"><ele>27.0</ele><time>2026-04-07T14:08:50.327Z</time></trkpt><trkpt lat="41.1442726" lon="9.5245039"><ele>29.5</ele><time>2026-04-07T14:08:51.328Z</time></trkpt><trkpt lat="41.1442884" lon="9.5243093"><ele>32.0</ele><time>2026-04-07T14:08:52.328Z</time></trkpt><trkpt lat="41.144285" lon="9.5241136"><ele>34.5</ele><time>2026-04-07T14:08:53.328Z</time></trkpt><trkpt lat="41.1442725" lon="9.5239245"><ele>37.0</ele><time>2026-04-07T14:08:54.328Z</time></trkpt><trkpt lat="41.1442523" lon="9.523736"><ele>37.6</ele><time>2026-04-07T14:08:55.328Z</time></trkpt><trkpt lat="41.1442269" lon="9.5235722"><ele>38.2</ele><time>2026-04-07T14:08:56.327Z</time></trkpt><trkpt lat="41.1442043" lon="9.5234231"><ele>38.8</ele><time>2026-04-07T14:08:57.327Z</time></trkpt><trkpt lat="41.144185" lon="9.5232836"><ele>39.4</ele><time>2026-04-07T14:08:58.328Z</time></trkpt><trkpt lat="41.1441717" lon="9.5231522"><ele>40.0</ele><time>2026-04-07T14:08:59.328Z</time></trkpt><trkpt lat="41.1441704" lon="9.5230197"><ele>39.4</ele><time>2026-04-07T14:09:00.328Z</time></trkpt><trkpt lat="41.1441926" lon="9.5228915"><ele>38.8</ele><time>2026-04-07T14:09:01.328Z</time></trkpt><trkpt lat="41.1442366" lon="9.5227625"><ele>38.2</ele><time>2026-04-07T14:09:02.328Z</time></trkpt><trkpt lat="41.14429" lon="9.5226331"><ele>37.6</ele><time>2026-04-07T14:09:03.328Z</time></trkpt><trkpt lat="41.1443616" lon="9.5225256"><ele>37.0</ele><time>2026-04-07T14:09:04.328Z</time></trkpt><trkpt lat="41.1444389" lon="9.5224654"><ele>37.0</ele><time>2026-04-07T14:09:05.328Z</time></trkpt><trkpt lat="41.1445215" lon="9.5224523"><ele>37.0</ele><time>2026-04-07T14:09:06.328Z</time></trkpt><trkpt lat="41.1446021" lon="9.5224868"><ele>37.0</ele><time>2026-04-07T14:09:07.327Z</time></trkpt><trkpt lat="41.1446893" lon="9.5225236"><ele>37.0</ele><time>2026-04-07T14:09:08.327Z</time></trkpt><trkpt lat="41.1447861" lon="9.5225587"><ele>37.0</ele><time>2026-04-07T14:09:09.327Z</time></trkpt><trkpt lat="41.1448778" lon="9.5225702"><ele>36.800000000000004</ele><time>2026-04-07T14:09:10.327Z</time></trkpt><trkpt lat="41.1449672" lon="9.5225508"><ele>36.6</ele><time>2026-04-07T14:09:11.328Z</time></trkpt><trkpt lat="41.1450486" lon="9.522513"><ele>36.400000000000006</ele><time>2026-04-07T14:09:12.328Z</time></trkpt><trkpt lat="41.1451259" lon="9.5224481"><ele>36.2</ele><time>2026-04-07T14:09:13.328Z</time></trkpt><trkpt lat="41.1451959" lon="9.5223728"><ele>36.0</ele><time>2026-04-07T14:09:14.327Z</time></trkpt><trkpt lat="41.1453323" lon="9.5222121"><ele>36.0</ele><time>2026-04-07T14:09:16.328Z</time></trkpt><trkpt lat="41.1453902" lon="9.5221158"><ele>36.0</ele><time>2026-04-07T14:09:17.328Z</time></trkpt><trkpt lat="41.145431" lon="9.5220039"><ele>36.0</ele><time>2026-04-07T14:09:18.327Z</time></trkpt><trkpt lat="41.1454772" lon="9.5218852"><ele>36.0</ele><time>2026-04-07T14:09:19.328Z</time></trkpt><trkpt lat="41.1455459" lon="9.5217903"><ele>36.0</ele><time>2026-04-07T14:09:20.328Z</time></trkpt><trkpt lat="41.1456396" lon="9.5217292"><ele>33.8</ele><time>2026-04-07T14:09:21.328Z</time></trkpt><trkpt lat="41.1457364" lon="9.5216808"><ele>31.6</ele><time>2026-04-07T14:09:22.327Z</time></trkpt><trkpt lat="41.1458176" lon="9.5215977"><ele>29.4</ele><time>2026-04-07T14:09:23.328Z</time></trkpt><trkpt lat="41.1458804" lon="9.5215068"><ele>27.2</ele><time>2026-04-07T14:09:24.328Z</time></trkpt><trkpt lat="41.1459543" lon="9.521447"><ele>25.0</ele><time>2026-04-07T14:09:25.327Z</time></trkpt><trkpt lat="41.1460383" lon="9.5214203"><ele>25.0</ele><time>2026-04-07T14:09:26.328Z</time></trkpt><trkpt lat="41.1461268" lon="9.5214435"><ele>25.0</ele><time>2026-04-07T14:09:27.327Z</time></trkpt><trkpt lat="41.1462163" lon="9.5214902"><ele>25.0</ele><time>2026-04-07T14:09:28.328Z</time></trkpt><trkpt lat="41.1463165" lon="9.5215261"><ele>25.0</ele><time>2026-04-07T14:09:29.327Z</time></trkpt><trkpt lat="41.1464164" lon="9.5215848"><ele>25.0</ele><time>2026-04-07T14:09:30.328Z</time></trkpt><trkpt lat="41.1465086" lon="9.5216777"><ele>24.75</ele><time>2026-04-07T14:09:31.328Z</time></trkpt><trkpt lat="41.1465695" lon="9.5218004"><ele>24.5</ele><time>2026-04-07T14:09:32.328Z</time></trkpt><trkpt lat="41.1466067" lon="9.5219442"><ele>24.25</ele><time>2026-04-07T14:09:33.327Z</time></trkpt><trkpt lat="41.1466461" lon="9.5221009"><ele>24.0</ele><time>2026-04-07T14:09:34.327Z</time></trkpt><trkpt lat="41.1466955" lon="9.5222651"><ele>22.5</ele><time>2026-04-07T14:09:35.328Z</time></trkpt><trkpt lat="41.1467551" lon="9.5224361"><ele>21.0</ele><time>2026-04-07T14:09:36.327Z</time></trkpt><trkpt lat="41.1468147" lon="9.5225949"><ele>19.5</ele><time>2026-04-07T14:09:37.328Z</time></trkpt><trkpt lat="41.1468696" lon="9.5227391"><ele>18.0</ele><time>2026-04-07T14:09:38.328Z</time></trkpt><trkpt lat="41.1469173" lon="9.522868"><ele>16.25</ele><time>2026-04-07T14:09:39.328Z</time></trkpt><trkpt lat="41.1469679" lon="9.5229942"><ele>14.5</ele><time>2026-04-07T14:09:40.328Z</time></trkpt><trkpt lat="41.1470285" lon="9.5231243"><ele>12.75</ele><time>2026-04-07T14:09:41.328Z</time></trkpt><trkpt lat="41.1470948" lon="9.5232515"><ele>11.0</ele><time>2026-04-07T14:09:42.327Z</time></trkpt><trkpt lat="41.1471658" lon="9.5233848"><ele>11.0</ele><time>2026-04-07T14:09:43.328Z</time></trkpt><trkpt lat="41.1472414" lon="9.523503"><ele>11.0</ele><time>2026-04-07T14:09:44.328Z</time></trkpt><trkpt lat="41.1473138" lon="9.523602"><ele>11.0</ele><time>2026-04-07T14:09:45.327Z</time></trkpt><trkpt lat="41.1473875" lon="9.5236867"><ele>11.0</ele><time>2026-04-07T14:09:46.327Z</time></trkpt><trkpt lat="41.1474598" lon="9.5237614"><ele>11.0</ele><time>2026-04-07T14:09:47.327Z</time></trkpt><trkpt lat="41.1475225" lon="9.5238469"><ele>13.8</ele><time>2026-04-07T14:09:48.328Z</time></trkpt><trkpt lat="41.1475765" lon="9.5239447"><ele>16.6</ele><time>2026-04-07T14:09:49.328Z</time></trkpt><trkpt lat="41.1476222" lon="9.5240511"><ele>19.4</ele><time>2026-04-07T14:09:50.328Z</time></trkpt><trkpt lat="41.1476626" lon="9.5241643"><ele>22.2</ele><time>2026-04-07T14:09:51.327Z</time></trkpt><trkpt lat="41.1476959" lon="9.5242844"><ele>25.0</ele><time>2026-04-07T14:09:52.328Z</time></trkpt><trkpt lat="41.1477195" lon="9.5244148"><ele>25.0</ele><time>2026-04-07T14:09:53.328Z</time></trkpt><trkpt lat="41.1477241" lon="9.5245503"><ele>25.0</ele><time>2026-04-07T14:09:54.328Z</time></trkpt><trkpt lat="41.147724" lon="9.5246832"><ele>25.0</ele><time>2026-04-07T14:09:55.328Z</time></trkpt><trkpt lat="41.1477201" lon="9.5248168"><ele>25.0</ele><time>2026-04-07T14:09:56.328Z</time></trkpt><trkpt lat="41.1477302" lon="9.5249477"><ele>25.0</ele><time>2026-04-07T14:09:57.328Z</time></trkpt><trkpt lat="41.1477549" lon="9.5250594"><ele>24.6</ele><time>2026-04-07T14:09:58.328Z</time></trkpt><trkpt lat="41.1477884" lon="9.5251515"><ele>24.2</ele><time>2026-04-07T14:09:59.328Z</time></trkpt><trkpt lat="41.1478391" lon="9.5252413"><ele>23.799999999999997</ele><time>2026-04-07T14:10:00.328Z</time></trkpt><trkpt lat="41.1479081" lon="9.5253221"><ele>23.4</ele><time>2026-04-07T14:10:01.328Z</time></trkpt><trkpt lat="41.1479856" lon="9.525404"><ele>23.0</ele><time>2026-04-07T14:10:02.328Z</time></trkpt><trkpt lat="41.148072" lon="9.5254848"><ele>23.0</ele><time>2026-04-07T14:10:03.328Z</time></trkpt><trkpt lat="41.1481627" lon="9.525573"><ele>23.0</ele><time>2026-04-07T14:10:04.327Z</time></trkpt><trkpt lat="41.1482593" lon="9.5256497"><ele>23.0</ele><time>2026-04-07T14:10:05.328Z</time></trkpt><trkpt lat="41.1483594" lon="9.5257296"><ele>23.0</ele><time>2026-04-07T14:10:06.328Z</time></trkpt><trkpt lat="41.1484437" lon="9.5258"><ele>23.0</ele><time>2026-04-07T14:10:07.328Z</time></trkpt><trkpt lat="41.1485244" lon="9.5258713"><ele>24.333333333333336</ele><time>2026-04-07T14:10:08.328Z</time></trkpt><trkpt lat="41.1486015" lon="9.5259411"><ele>25.666666666666668</ele><time>2026-04-07T14:10:09.328Z</time></trkpt><trkpt lat="41.1486697" lon="9.5260012"><ele>27.0</ele><time>2026-04-07T14:10:10.327Z</time></trkpt><trkpt lat="41.1487283" lon="9.5260631"><ele>28.333333333333336</ele><time>2026-04-07T14:10:11.328Z</time></trkpt><trkpt lat="41.1487672" lon="9.5261491"><ele>29.666666666666668</ele><time>2026-04-07T14:10:12.327Z</time></trkpt><trkpt lat="41.1488008" lon="9.526243"><ele>31.0</ele><time>2026-04-07T14:10:13.328Z</time></trkpt><trkpt lat="41.1488487" lon="9.5263367"><ele>31.0</ele><time>2026-04-07T14:10:14.328Z</time></trkpt><trkpt lat="41.1489065" lon="9.526426"><ele>31.0</ele><time>2026-04-07T14:10:15.328Z</time></trkpt><trkpt lat="41.1489696" lon="9.5265125"><ele>31.0</ele><time>2026-04-07T14:10:16.328Z</time></trkpt><trkpt lat="41.1490386" lon="9.5265873"><ele>31.0</ele><time>2026-04-07T14:10:17.328Z</time></trkpt><trkpt lat="41.1491165" lon="9.5266518"><ele>31.0</ele><time>2026-04-07T14:10:18.328Z</time></trkpt><trkpt lat="41.1492005" lon="9.5266976"><ele>31.500000000000004</ele><time>2026-04-07T14:10:19.327Z</time></trkpt><trkpt lat="41.14929" lon="9.5267206"><ele>32.0</ele><time>2026-04-07T14:10:20.328Z</time></trkpt><trkpt lat="41.1493812" lon="9.5267268"><ele>32.5</ele><time>2026-04-07T14:10:21.328Z</time></trkpt><trkpt lat="41.1494623" lon="9.5267175"><ele>33.0</ele><time>2026-04-07T14:10:22.328Z</time></trkpt><trkpt lat="41.149534" lon="9.5267122"><ele>33.5</ele><time>2026-04-07T14:10:23.328Z</time></trkpt><trkpt lat="41.1496009" lon="9.5267004"><ele>34.0</ele><time>2026-04-07T14:10:24.328Z</time></trkpt><trkpt lat="41.1496637" lon="9.5266924"><ele>34.0</ele><time>2026-04-07T14:10:25.328Z</time></trkpt><trkpt lat="41.1497771" lon="9.5266697"><ele>34.0</ele><time>2026-04-07T14:10:27.328Z</time></trkpt><trkpt lat="41.1498884" lon="9.5266473"><ele>34.0</ele><time>2026-04-07T14:10:29.327Z</time></trkpt><trkpt lat="41.1499964" lon="9.5266021"><ele>34.0</ele><time>2026-04-07T14:10:31.328Z</time></trkpt><trkpt lat="41.1501076" lon="9.5265251"><ele>33.99999999999999</ele><time>2026-04-07T14:10:33.327Z</time></trkpt><trkpt lat="41.1501663" lon="9.5264776"><ele>34.0</ele><time>2026-04-07T14:10:34.328Z</time></trkpt><trkpt lat="41.1502214" lon="9.5264258"><ele>34.0</ele><time>2026-04-07T14:10:35.328Z</time></trkpt><trkpt lat="41.1502799" lon="9.5263673"><ele>34.0</ele><time>2026-04-07T14:10:36.328Z</time></trkpt><trkpt lat="41.1503395" lon="9.526314"><ele>34.0</ele><time>2026-04-07T14:10:37.328Z</time></trkpt><trkpt lat="41.1503962" lon="9.5262493"><ele>33.99999999999999</ele><time>2026-04-07T14:10:38.327Z</time></trkpt><trkpt lat="41.1504436" lon="9.5261783"><ele>34.0</ele><time>2026-04-07T14:10:39.328Z</time></trkpt><trkpt lat="41.1504858" lon="9.5260929"><ele>34.0</ele><time>2026-04-07T14:10:40.328Z</time></trkpt><trkpt lat="41.15056" lon="9.5259139"><ele>34.0</ele><time>2026-04-07T14:10:42.328Z</time></trkpt><trkpt lat="41.1505916" lon="9.5258315"><ele>34.0</ele><time>2026-04-07T14:10:43.328Z</time></trkpt><trkpt lat="41.1506273" lon="9.5257426"><ele>34.0</ele><time>2026-04-07T14:10:44.328Z</time></trkpt><trkpt lat="41.1506742" lon="9.525645"><ele>34.0</ele><time>2026-04-07T14:10:45.328Z</time></trkpt><trkpt lat="41.1507208" lon="9.5255408"><ele>34.0</ele><time>2026-04-07T14:10:46.327Z</time></trkpt><trkpt lat="41.1507722" lon="9.5254272"><ele>34.0</ele><time>2026-04-07T14:10:47.327Z</time></trkpt><trkpt lat="41.1508318" lon="9.52531"><ele>34.0</ele><time>2026-04-07T14:10:48.328Z</time></trkpt><trkpt lat="41.1508938" lon="9.5251891"><ele>34.0</ele><time>2026-04-07T14:10:49.328Z</time></trkpt><trkpt lat="41.1509621" lon="9.5250567"><ele>34.0</ele><time>2026-04-07T14:10:50.328Z</time></trkpt><trkpt lat="41.1510261" lon="9.524925"><ele>35.2</ele><time>2026-04-07T14:10:51.328Z</time></trkpt><trkpt lat="41.1510912" lon="9.5248022"><ele>36.4</ele><time>2026-04-07T14:10:52.328Z</time></trkpt><trkpt lat="41.1511503" lon="9.5246841"><ele>37.6</ele><time>2026-04-07T14:10:53.328Z</time></trkpt><trkpt lat="41.1512044" lon="9.5245722"><ele>38.8</ele><time>2026-04-07T14:10:54.328Z</time></trkpt><trkpt lat="41.1512593" lon="9.5244616"><ele>40.0</ele><time>2026-04-07T14:10:55.328Z</time></trkpt><trkpt lat="41.1513208" lon="9.5243429"><ele>40.5</ele><time>2026-04-07T14:10:56.328Z</time></trkpt><trkpt lat="41.1513804" lon="9.5242201"><ele>41.0</ele><time>2026-04-07T14:10:57.328Z</time></trkpt><trkpt lat="41.1514444" lon="9.5240937"><ele>41.5</ele><time>2026-04-07T14:10:58.328Z</time></trkpt><trkpt lat="41.1515141" lon="9.5239629"><ele>42.0</ele><time>2026-04-07T14:10:59.328Z</time></trkpt><trkpt lat="41.1515802" lon="9.5238307"><ele>41.4</ele><time>2026-04-07T14:11:00.328Z</time></trkpt><trkpt lat="41.1516481" lon="9.5237023"><ele>40.800000000000004</ele><time>2026-04-07T14:11:01.327Z</time></trkpt><trkpt lat="41.1517129" lon="9.5235841"><ele>40.2</ele><time>2026-04-07T14:11:02.328Z</time></trkpt><trkpt lat="41.1517762" lon="9.5235137"><ele>39.6</ele><time>2026-04-07T14:11:03.327Z</time></trkpt><trkpt lat="41.1518606" lon="9.5234819"><ele>39.0</ele><time>2026-04-07T14:11:04.328Z</time></trkpt><trkpt lat="41.1519587" lon="9.5234682"><ele>39.0</ele><time>2026-04-07T14:11:05.328Z</time></trkpt><trkpt lat="41.1520618" lon="9.5234648"><ele>39.0</ele><time>2026-04-07T14:11:06.327Z</time></trkpt><trkpt lat="41.1521699" lon="9.5234815"><ele>39.0</ele><time>2026-04-07T14:11:07.328Z</time></trkpt><trkpt lat="41.152279" lon="9.5235254"><ele>39.0</ele><time>2026-04-07T14:11:08.327Z</time></trkpt><trkpt lat="41.1523793" lon="9.5235687"><ele>39.0</ele><time>2026-04-07T14:11:09.328Z</time></trkpt><trkpt lat="41.1524768" lon="9.5236156"><ele>38.4</ele><time>2026-04-07T14:11:10.327Z</time></trkpt><trkpt lat="41.1525786" lon="9.523654"><ele>37.8</ele><time>2026-04-07T14:11:11.328Z</time></trkpt><trkpt lat="41.1526773" lon="9.5236738"><ele>37.2</ele><time>2026-04-07T14:11:12.327Z</time></trkpt><trkpt lat="41.1527742" lon="9.5236614"><ele>36.6</ele><time>2026-04-07T14:11:13.328Z</time></trkpt><trkpt lat="41.1528665" lon="9.5236211"><ele>36.0</ele><time>2026-04-07T14:11:14.328Z</time></trkpt><trkpt lat="41.1529525" lon="9.5235642"><ele>36.0</ele><time>2026-04-07T14:11:15.328Z</time></trkpt><trkpt lat="41.1530302" lon="9.523502"><ele>36.0</ele><time>2026-04-07T14:11:16.328Z</time></trkpt><trkpt lat="41.1531022" lon="9.523434"><ele>36.0</ele><time>2026-04-07T14:11:17.328Z</time></trkpt><trkpt lat="41.1531817" lon="9.5234014"><ele>36.0</ele><time>2026-04-07T14:11:18.328Z</time></trkpt><trkpt lat="41.1532597" lon="9.5234209"><ele>36.0</ele><time>2026-04-07T14:11:19.328Z</time></trkpt><trkpt lat="41.1533221" lon="9.5234706"><ele>36.0</ele><time>2026-04-07T14:11:20.328Z</time></trkpt><trkpt lat="41.1534023" lon="9.5235594"><ele>34.833333333333336</ele><time>2026-04-07T14:11:22.327Z</time></trkpt><trkpt lat="41.1534574" lon="9.5236214"><ele>33.666666666666664</ele><time>2026-04-07T14:11:25.328Z</time></trkpt><trkpt lat="41.1535243" lon="9.5236422"><ele>32.5</ele><time>2026-04-07T14:12:03.328Z</time></trkpt><trkpt lat="41.1535936" lon="9.5236074"><ele>31.333333333333332</ele><time>2026-04-07T14:12:05.328Z</time></trkpt><trkpt lat="41.1536473" lon="9.5235026"><ele>30.166666666666664</ele><time>2026-04-07T14:12:07.328Z</time></trkpt><trkpt lat="41.1536564" lon="9.5234155"><ele>29.0</ele><time>2026-04-07T14:12:08.327Z</time></trkpt><trkpt lat="41.1536352" lon="9.5232417"><ele>28.999999999999996</ele><time>2026-04-07T14:12:10.328Z</time></trkpt><trkpt lat="41.1536158" lon="9.5231481"><ele>29.0</ele><time>2026-04-07T14:12:11.328Z</time></trkpt><trkpt lat="41.1535929" lon="9.5230503"><ele>29.0</ele><time>2026-04-07T14:12:12.328Z</time></trkpt><trkpt lat="41.1535696" lon="9.5229495"><ele>29.0</ele><time>2026-04-07T14:12:13.327Z</time></trkpt><trkpt lat="41.1535429" lon="9.5228445"><ele>28.999999999999996</ele><time>2026-04-07T14:12:14.328Z</time></trkpt><trkpt lat="41.1535095" lon="9.5227319"><ele>29.0</ele><time>2026-04-07T14:12:15.327Z</time></trkpt><trkpt lat="41.1534665" lon="9.5226065"><ele>28.799999999999997</ele><time>2026-04-07T14:12:16.328Z</time></trkpt><trkpt lat="41.1534175" lon="9.522478"><ele>28.599999999999998</ele><time>2026-04-07T14:12:17.328Z</time></trkpt><trkpt lat="41.1533636" lon="9.5223552"><ele>28.4</ele><time>2026-04-07T14:12:18.328Z</time></trkpt><trkpt lat="41.1533056" lon="9.5222292"><ele>28.2</ele><time>2026-04-07T14:12:19.328Z</time></trkpt><trkpt lat="41.1532552" lon="9.5220986"><ele>28.0</ele><time>2026-04-07T14:12:20.328Z</time></trkpt><trkpt lat="41.153204" lon="9.5219645"><ele>28.75</ele><time>2026-04-07T14:12:21.327Z</time></trkpt><trkpt lat="41.1531536" lon="9.5218317"><ele>29.5</ele><time>2026-04-07T14:12:22.328Z</time></trkpt><trkpt lat="41.1531007" lon="9.5216998"><ele>30.25</ele><time>2026-04-07T14:12:23.327Z</time></trkpt><trkpt lat="41.1530463" lon="9.5215726"><ele>31.0</ele><time>2026-04-07T14:12:24.328Z</time></trkpt><trkpt lat="41.1529913" lon="9.5214341"><ele>31.0</ele><time>2026-04-07T14:12:25.328Z</time></trkpt><trkpt lat="41.1529351" lon="9.5212934"><ele>31.0</ele><time>2026-04-07T14:12:26.328Z</time></trkpt><trkpt lat="41.152874" lon="9.5211526"><ele>31.0</ele><time>2026-04-07T14:12:27.328Z</time></trkpt><trkpt lat="41.1528177" lon="9.5210132"><ele>31.0</ele><time>2026-04-07T14:12:28.328Z</time></trkpt><trkpt lat="41.1527636" lon="9.5208743"><ele>29.0</ele><time>2026-04-07T14:12:29.328Z</time></trkpt><trkpt lat="41.1527179" lon="9.520732"><ele>27.0</ele><time>2026-04-07T14:12:30.328Z</time></trkpt><trkpt lat="41.1526863" lon="9.5205921"><ele>25.0</ele><time>2026-04-07T14:12:31.328Z</time></trkpt><trkpt lat="41.1526662" lon="9.5204551"><ele>23.0</ele><time>2026-04-07T14:12:32.328Z</time></trkpt><trkpt lat="41.1526584" lon="9.520318"><ele>21.0</ele><time>2026-04-07T14:12:33.327Z</time></trkpt><trkpt lat="41.1526609" lon="9.5201898"><ele>19.8</ele><time>2026-04-07T14:12:34.327Z</time></trkpt><trkpt lat="41.152666" lon="9.520079"><ele>18.6</ele><time>2026-04-07T14:12:35.328Z</time></trkpt><trkpt lat="41.1526834" lon="9.5199747"><ele>17.4</ele><time>2026-04-07T14:12:36.328Z</time></trkpt><trkpt lat="41.1527028" lon="9.5198801"><ele>16.2</ele><time>2026-04-07T14:12:37.327Z</time></trkpt><trkpt lat="41.1526989" lon="9.5197197"><ele>15.0</ele><time>2026-04-07T14:12:39.327Z</time></trkpt><trkpt lat="41.1526867" lon="9.5195948"><ele>15.0</ele><time>2026-04-07T14:12:41.328Z</time></trkpt><trkpt lat="41.1526761" lon="9.5194934"><ele>15.0</ele><time>2026-04-07T14:12:48.328Z</time></trkpt><trkpt lat="41.1527382" lon="9.5194566"><ele>15.0</ele><time>2026-04-07T14:12:50.327Z</time></trkpt><trkpt lat="41.1527262" lon="9.5193531"><ele>15.0</ele><time>2026-04-07T14:12:53.327Z</time></trkpt><trkpt lat="41.1526881" lon="9.519448"><ele>15.0</ele><time>2026-04-07T14:12:55.327Z</time></trkpt><trkpt lat="41.1526894" lon="9.5196187"><ele>15.0</ele><time>2026-04-07T14:12:57.328Z</time></trkpt><trkpt lat="41.1527901" lon="9.5197186"><ele>15.0</ele><time>2026-04-07T14:12:59.327Z</time></trkpt><trkpt lat="41.1528596" lon="9.5196933"><ele>15.0</ele><time>2026-04-07T14:13:00.328Z</time></trkpt><trkpt lat="41.1529344" lon="9.519632"><ele>15.0</ele><time>2026-04-07T14:13:01.327Z</time></trkpt><trkpt lat="41.1530211" lon="9.5195486"><ele>15.0</ele><time>2026-04-07T14:13:02.328Z</time></trkpt><trkpt lat="41.1531118" lon="9.5194468"><ele>15.0</ele><time>2026-04-07T14:13:03.327Z</time></trkpt><trkpt lat="41.1532205" lon="9.5193306"><ele>15.0</ele><time>2026-04-07T14:13:04.328Z</time></trkpt><trkpt lat="41.1533294" lon="9.5192094"><ele>15.0</ele><time>2026-04-07T14:13:05.327Z</time></trkpt><trkpt lat="41.1534353" lon="9.5190848"><ele>15.0</ele><time>2026-04-07T14:13:06.327Z</time></trkpt><trkpt lat="41.1535373" lon="9.5189649"><ele>15.0</ele><time>2026-04-07T14:13:07.328Z</time></trkpt><trkpt lat="41.1536317" lon="9.5188495"><ele>14.0</ele><time>2026-04-07T14:13:08.327Z</time></trkpt><trkpt lat="41.1537156" lon="9.5187307"><ele>13.0</ele><time>2026-04-07T14:13:09.328Z</time></trkpt><trkpt lat="41.1537848" lon="9.5186107"><ele>12.0</ele><time>2026-04-07T14:13:10.328Z</time></trkpt><trkpt lat="41.1538385" lon="9.5184934"><ele>11.0</ele><time>2026-04-07T14:13:11.328Z</time></trkpt><trkpt lat="41.1538838" lon="9.5183806"><ele>10.0</ele><time>2026-04-07T14:13:12.328Z</time></trkpt><trkpt lat="41.153923" lon="9.5182651"><ele>10.0</ele><time>2026-04-07T14:13:13.327Z</time></trkpt><trkpt lat="41.1539572" lon="9.5181493"><ele>10.0</ele><time>2026-04-07T14:13:14.328Z</time></trkpt><trkpt lat="41.1540009" lon="9.5180558"><ele>10.0</ele><time>2026-04-07T14:13:15.328Z</time></trkpt><trkpt lat="41.1540583" lon="9.5179974"><ele>10.0</ele><time>2026-04-07T14:13:16.328Z</time></trkpt><trkpt lat="41.15412" lon="9.5179738"><ele>10.0</ele><time>2026-04-07T14:13:17.327Z</time></trkpt><trkpt lat="41.1542118" lon="9.5179663"><ele>10.0</ele><time>2026-04-07T14:13:19.328Z</time></trkpt><trkpt lat="41.1542924" lon="9.5180394"><ele>10.6</ele><time>2026-04-07T14:13:21.328Z</time></trkpt><trkpt lat="41.1543788" lon="9.5181113"><ele>11.2</ele><time>2026-04-07T14:13:23.328Z</time></trkpt><trkpt lat="41.1544543" lon="9.5181912"><ele>11.8</ele><time>2026-04-07T14:13:25.328Z</time></trkpt><trkpt lat="41.1545282" lon="9.5182398"><ele>12.4</ele><time>2026-04-07T14:13:27.328Z</time></trkpt><trkpt lat="41.1546113" lon="9.5182289"><ele>13.0</ele><time>2026-04-07T14:13:30.328Z</time></trkpt><trkpt lat="41.1546842" lon="9.5181588"><ele>12.999999999999998</ele><time>2026-04-07T14:13:33.328Z</time></trkpt><trkpt lat="41.1547114" lon="9.5180737"><ele>13.0</ele><time>2026-04-07T14:13:35.328Z</time></trkpt><trkpt lat="41.1547286" lon="9.5179813"><ele>13.0</ele><time>2026-04-07T14:13:37.328Z</time></trkpt><trkpt lat="41.1547512" lon="9.5178684"><ele>13.0</ele><time>2026-04-07T14:13:39.328Z</time></trkpt><trkpt lat="41.1547943" lon="9.5177529"><ele>12.999999999999998</ele><time>2026-04-07T14:13:41.328Z</time></trkpt><trkpt lat="41.1548485" lon="9.5176697"><ele>13.0</ele><time>2026-04-07T14:13:43.328Z</time></trkpt><trkpt lat="41.1548971" lon="9.5175684"><ele>12.999999999999998</ele><time>2026-04-07T14:13:45.328Z</time></trkpt><trkpt lat="41.1549633" lon="9.5174922"><ele>13.0</ele><time>2026-04-07T14:13:48.327Z</time></trkpt><trkpt lat="41.155035" lon="9.517433"><ele>13.0</ele><time>2026-04-07T14:13:51.328Z</time></trkpt><trkpt lat="41.1550891" lon="9.5173719"><ele>13.0</ele><time>2026-04-07T14:13:54.328Z</time></trkpt><trkpt lat="41.1551311" lon="9.5172974"><ele>12.999999999999998</ele><time>2026-04-07T14:13:58.327Z</time></trkpt><trkpt lat="41.1550822" lon="9.5173787"><ele>13.0</ele><time>2026-04-07T14:47:38.328Z</time></trkpt><trkpt lat="41.1550247" lon="9.5174368"><ele>12.999999999999998</ele><time>2026-04-07T14:47:40.328Z</time></trkpt><trkpt lat="41.1549604" lon="9.5174905"><ele>13.0</ele><time>2026-04-07T14:47:43.328Z</time></trkpt><trkpt lat="41.1549053" lon="9.5175445"><ele>13.0</ele><time>2026-04-07T14:47:46.328Z</time></trkpt><trkpt lat="41.1548631" lon="9.5176161"><ele>13.0</ele><time>2026-04-07T14:47:48.328Z</time></trkpt><trkpt lat="41.1548109" lon="9.5177181"><ele>12.999999999999998</ele><time>2026-04-07T14:47:51.328Z</time></trkpt><trkpt lat="41.1547642" lon="9.5177886"><ele>13.0</ele><time>2026-04-07T14:47:53.327Z</time></trkpt><trkpt lat="41.1547354" lon="9.5178809"><ele>12.999999999999998</ele><time>2026-04-07T14:47:55.327Z</time></trkpt><trkpt lat="41.1547195" lon="9.5179924"><ele>13.0</ele><time>2026-04-07T14:47:57.328Z</time></trkpt><trkpt lat="41.1547095" lon="9.5180857"><ele>13.0</ele><time>2026-04-07T14:47:59.327Z</time></trkpt><trkpt lat="41.15468" lon="9.5181741"><ele>13.0</ele><time>2026-04-07T14:48:01.328Z</time></trkpt><trkpt lat="41.1546062" lon="9.5182318"><ele>12.999999999999998</ele><time>2026-04-07T14:48:03.328Z</time></trkpt><trkpt lat="41.1545211" lon="9.5182178"><ele>13.0</ele><time>2026-04-07T14:48:05.328Z</time></trkpt><trkpt lat="41.1544478" lon="9.5181667"><ele>12.999999999999998</ele><time>2026-04-07T14:48:07.328Z</time></trkpt><trkpt lat="41.1544031" lon="9.5180999"><ele>13.0</ele><time>2026-04-07T14:48:09.327Z</time></trkpt><trkpt lat="41.1543338" lon="9.5180332"><ele>13.0</ele><time>2026-04-07T14:48:11.327Z</time></trkpt><trkpt lat="41.1542792" lon="9.5179643"><ele>13.0</ele><time>2026-04-07T14:48:13.327Z</time></trkpt><trkpt lat="41.1541965" lon="9.5179286"><ele>12.999999999999998</ele><time>2026-04-07T14:48:16.327Z</time></trkpt><trkpt lat="41.1541254" lon="9.5179456"><ele>13.0</ele><time>2026-04-07T14:48:18.327Z</time></trkpt><trkpt lat="41.1540541" lon="9.5179812"><ele>12.499999999999998</ele><time>2026-04-07T14:48:20.328Z</time></trkpt><trkpt lat="41.1540005" lon="9.5180516"><ele>12.0</ele><time>2026-04-07T14:48:22.327Z</time></trkpt><trkpt lat="41.1539593" lon="9.5181359"><ele>11.5</ele><time>2026-04-07T14:48:24.327Z</time></trkpt><trkpt lat="41.153924" lon="9.5182378"><ele>11.0</ele><time>2026-04-07T14:48:26.328Z</time></trkpt><trkpt lat="41.1538932" lon="9.5183527"><ele>10.5</ele><time>2026-04-07T14:48:28.327Z</time></trkpt><trkpt lat="41.1538549" lon="9.518463"><ele>10.0</ele><time>2026-04-07T14:48:30.328Z</time></trkpt><trkpt lat="41.1537996" lon="9.5185581"><ele>10.0</ele><time>2026-04-07T14:48:32.328Z</time></trkpt><trkpt lat="41.1537437" lon="9.5186509"><ele>10.0</ele><time>2026-04-07T14:48:34.328Z</time></trkpt><trkpt lat="41.1536395" lon="9.518791"><ele>10.0</ele><time>2026-04-07T14:48:37.328Z</time></trkpt><trkpt lat="41.1535594" lon="9.5188841"><ele>10.0</ele><time>2026-04-07T14:48:39.328Z</time></trkpt><trkpt lat="41.1534691" lon="9.518985"><ele>10.6</ele><time>2026-04-07T14:48:41.327Z</time></trkpt><trkpt lat="41.1533726" lon="9.5190844"><ele>11.2</ele><time>2026-04-07T14:48:43.328Z</time></trkpt><trkpt lat="41.1532839" lon="9.519189"><ele>11.8</ele><time>2026-04-07T14:48:45.327Z</time></trkpt><trkpt lat="41.153193" lon="9.5193068"><ele>12.4</ele><time>2026-04-07T14:48:47.328Z</time></trkpt><trkpt lat="41.1531432" lon="9.5193638"><ele>13.0</ele><time>2026-04-07T14:48:48.328Z</time></trkpt><trkpt lat="41.1530901" lon="9.519422"><ele>13.0</ele><time>2026-04-07T14:48:49.328Z</time></trkpt><trkpt lat="41.153006" lon="9.5195353"><ele>13.0</ele><time>2026-04-07T14:48:51.328Z</time></trkpt><trkpt lat="41.1529218" lon="9.5196293"><ele>13.0</ele><time>2026-04-07T14:48:53.327Z</time></trkpt><trkpt lat="41.1528286" lon="9.5197046"><ele>13.0</ele><time>2026-04-07T14:48:55.328Z</time></trkpt><trkpt lat="41.1527748" lon="9.5197587"><ele>13.0</ele><time>2026-04-07T14:48:56.328Z</time></trkpt><trkpt lat="41.1527296" lon="9.519828"><ele>13.4</ele><time>2026-04-07T14:48:57.328Z</time></trkpt><trkpt lat="41.1526952" lon="9.5199196"><ele>13.8</ele><time>2026-04-07T14:48:58.328Z</time></trkpt><trkpt lat="41.1526734" lon="9.5200374"><ele>14.2</ele><time>2026-04-07T14:48:59.328Z</time></trkpt><trkpt lat="41.1526561" lon="9.5201737"><ele>14.6</ele><time>2026-04-07T14:49:00.328Z</time></trkpt><trkpt lat="41.1526491" lon="9.5203247"><ele>15.0</ele><time>2026-04-07T14:49:01.327Z</time></trkpt><trkpt lat="41.1526546" lon="9.5204852"><ele>16.5</ele><time>2026-04-07T14:49:02.327Z</time></trkpt><trkpt lat="41.1526795" lon="9.5206445"><ele>18.0</ele><time>2026-04-07T14:49:03.327Z</time></trkpt><trkpt lat="41.1527241" lon="9.5208071"><ele>19.5</ele><time>2026-04-07T14:49:04.328Z</time></trkpt><trkpt lat="41.1527779" lon="9.5209692"><ele>21.0</ele><time>2026-04-07T14:49:05.328Z</time></trkpt><trkpt lat="41.1528362" lon="9.5211209"><ele>23.5</ele><time>2026-04-07T14:49:06.328Z</time></trkpt><trkpt lat="41.1528924" lon="9.5212523"><ele>26.0</ele><time>2026-04-07T14:49:07.327Z</time></trkpt><trkpt lat="41.1529485" lon="9.5213819"><ele>28.5</ele><time>2026-04-07T14:49:08.328Z</time></trkpt><trkpt lat="41.153007" lon="9.5215088"><ele>31.0</ele><time>2026-04-07T14:49:09.328Z</time></trkpt><trkpt lat="41.1530623" lon="9.5216429"><ele>31.0</ele><time>2026-04-07T14:49:10.328Z</time></trkpt><trkpt lat="41.1531118" lon="9.5217825"><ele>31.0</ele><time>2026-04-07T14:49:11.327Z</time></trkpt><trkpt lat="41.1531642" lon="9.5219235"><ele>31.0</ele><time>2026-04-07T14:49:12.328Z</time></trkpt><trkpt lat="41.1532189" lon="9.5220664"><ele>31.0</ele><time>2026-04-07T14:49:13.328Z</time></trkpt><trkpt lat="41.1532789" lon="9.5222024"><ele>30.25</ele><time>2026-04-07T14:49:14.327Z</time></trkpt><trkpt lat="41.1533402" lon="9.5223422"><ele>29.5</ele><time>2026-04-07T14:49:15.328Z</time></trkpt><trkpt lat="41.1534021" lon="9.5224819"><ele>28.75</ele><time>2026-04-07T14:49:16.328Z</time></trkpt><trkpt lat="41.1534613" lon="9.5226196"><ele>28.0</ele><time>2026-04-07T14:49:17.328Z</time></trkpt><trkpt lat="41.1535112" lon="9.522762"><ele>28.2</ele><time>2026-04-07T14:49:18.328Z</time></trkpt><trkpt lat="41.1535512" lon="9.5229076"><ele>28.4</ele><time>2026-04-07T14:49:19.328Z</time></trkpt><trkpt lat="41.1535842" lon="9.5230467"><ele>28.599999999999998</ele><time>2026-04-07T14:49:20.328Z</time></trkpt><trkpt lat="41.1536123" lon="9.5231606"><ele>28.799999999999997</ele><time>2026-04-07T14:49:21.327Z</time></trkpt><trkpt lat="41.153631" lon="9.5232639"><ele>29.0</ele><time>2026-04-07T14:49:22.328Z</time></trkpt><trkpt lat="41.1536412" lon="9.5233597"><ele>29.0</ele><time>2026-04-07T14:49:23.328Z</time></trkpt><trkpt lat="41.1536357" lon="9.5234506"><ele>29.0</ele><time>2026-04-07T14:49:24.327Z</time></trkpt><trkpt lat="41.1536064" lon="9.5235291"><ele>29.0</ele><time>2026-04-07T14:49:25.328Z</time></trkpt><trkpt lat="41.1535088" lon="9.5235695"><ele>29.0</ele><time>2026-04-07T14:49:27.328Z</time></trkpt><trkpt lat="41.1534211" lon="9.5234999"><ele>29.0</ele><time>2026-04-07T14:49:29.327Z</time></trkpt><trkpt lat="41.1533092" lon="9.5234127"><ele>28.999999999999996</ele><time>2026-04-07T14:49:31.327Z</time></trkpt><trkpt lat="41.1532419" lon="9.5233828"><ele>29.0</ele><time>2026-04-07T14:49:32.328Z</time></trkpt><trkpt lat="41.153169" lon="9.5233856"><ele>29.0</ele><time>2026-04-07T14:49:33.328Z</time></trkpt><trkpt lat="41.1531038" lon="9.5234287"><ele>29.0</ele><time>2026-04-07T14:49:34.328Z</time></trkpt><trkpt lat="41.1530377" lon="9.5234956"><ele>28.999999999999996</ele><time>2026-04-07T14:49:35.328Z</time></trkpt><trkpt lat="41.1529701" lon="9.52355"><ele>29.0</ele><time>2026-04-07T14:49:36.328Z</time></trkpt><trkpt lat="41.1529024" lon="9.5235996"><ele>30.166666666666664</ele><time>2026-04-07T14:49:37.328Z</time></trkpt><trkpt lat="41.1528241" lon="9.5236411"><ele>31.333333333333332</ele><time>2026-04-07T14:49:38.328Z</time></trkpt><trkpt lat="41.152745" lon="9.5236595"><ele>32.5</ele><time>2026-04-07T14:49:39.328Z</time></trkpt><trkpt lat="41.152666" lon="9.5236503"><ele>33.666666666666664</ele><time>2026-04-07T14:49:40.327Z</time></trkpt><trkpt lat="41.1525837" lon="9.5236268"><ele>34.833333333333336</ele><time>2026-04-07T14:49:41.328Z</time></trkpt><trkpt lat="41.1524979" lon="9.523593"><ele>36.0</ele><time>2026-04-07T14:49:42.327Z</time></trkpt><trkpt lat="41.1524163" lon="9.5235552"><ele>36.6</ele><time>2026-04-07T14:49:43.328Z</time></trkpt><trkpt lat="41.1523287" lon="9.5235114"><ele>37.2</ele><time>2026-04-07T14:49:44.328Z</time></trkpt><trkpt lat="41.1522325" lon="9.5234746"><ele>37.8</ele><time>2026-04-07T14:49:45.328Z</time></trkpt><trkpt lat="41.1521283" lon="9.5234582"><ele>38.4</ele><time>2026-04-07T14:49:46.328Z</time></trkpt><trkpt lat="41.1520234" lon="9.5234551"><ele>39.0</ele><time>2026-04-07T14:49:47.328Z</time></trkpt><trkpt lat="41.1519204" lon="9.5234574"><ele>39.0</ele><time>2026-04-07T14:49:48.328Z</time></trkpt><trkpt lat="41.1518237" lon="9.5234857"><ele>39.0</ele><time>2026-04-07T14:49:49.328Z</time></trkpt><trkpt lat="41.1517498" lon="9.5235378"><ele>39.0</ele><time>2026-04-07T14:49:50.327Z</time></trkpt><trkpt lat="41.1516984" lon="9.5236134"><ele>39.0</ele><time>2026-04-07T14:49:51.328Z</time></trkpt><trkpt lat="41.1516525" lon="9.5237014"><ele>39.0</ele><time>2026-04-07T14:49:52.327Z</time></trkpt><trkpt lat="41.1516048" lon="9.5237945"><ele>39.0</ele><time>2026-04-07T14:49:53.327Z</time></trkpt><trkpt lat="41.1515526" lon="9.5238914"><ele>39.6</ele><time>2026-04-07T14:49:54.327Z</time></trkpt><trkpt lat="41.151503" lon="9.5239924"><ele>40.2</ele><time>2026-04-07T14:49:55.327Z</time></trkpt><trkpt lat="41.1514525" lon="9.5240948"><ele>40.800000000000004</ele><time>2026-04-07T14:49:56.327Z</time></trkpt><trkpt lat="41.1513977" lon="9.5241976"><ele>41.4</ele><time>2026-04-07T14:49:57.328Z</time></trkpt><trkpt lat="41.1513464" lon="9.524303"><ele>42.0</ele><time>2026-04-07T14:49:58.328Z</time></trkpt><trkpt lat="41.1512906" lon="9.5244121"><ele>42.0</ele><time>2026-04-07T14:49:59.328Z</time></trkpt><trkpt lat="41.151235" lon="9.5245251"><ele>42.0</ele><time>2026-04-07T14:50:00.328Z</time></trkpt><trkpt lat="41.151173" lon="9.5246398"><ele>42.0</ele><time>2026-04-07T14:50:01.328Z</time></trkpt><trkpt lat="41.1511099" lon="9.5247615"><ele>42.0</ele><time>2026-04-07T14:50:02.327Z</time></trkpt><trkpt lat="41.1510422" lon="9.5248969"><ele>42.0</ele><time>2026-04-07T14:50:03.327Z</time></trkpt><trkpt lat="41.1509726" lon="9.5250301"><ele>41.5</ele><time>2026-04-07T14:50:04.328Z</time></trkpt><trkpt lat="41.150902" lon="9.5251716"><ele>41.0</ele><time>2026-04-07T14:50:05.328Z</time></trkpt><trkpt lat="41.1508312" lon="9.5253145"><ele>40.5</ele><time>2026-04-07T14:50:06.328Z</time></trkpt><trkpt lat="41.1507642" lon="9.5254631"><ele>40.0</ele><time>2026-04-07T14:50:07.327Z</time></trkpt><trkpt lat="41.1506976" lon="9.5256079"><ele>41.0</ele><time>2026-04-07T14:50:08.328Z</time></trkpt><trkpt lat="41.1506356" lon="9.5257505"><ele>42.0</ele><time>2026-04-07T14:50:09.327Z</time></trkpt><trkpt lat="41.1505689" lon="9.5258927"><ele>43.0</ele><time>2026-04-07T14:50:10.328Z</time></trkpt><trkpt lat="41.1505075" lon="9.5260281"><ele>44.0</ele><time>2026-04-07T14:50:11.327Z</time></trkpt><trkpt lat="41.1504462" lon="9.5261508"><ele>42.0</ele><time>2026-04-07T14:50:12.327Z</time></trkpt><trkpt lat="41.1503797" lon="9.526252"><ele>40.0</ele><time>2026-04-07T14:50:13.327Z</time></trkpt><trkpt lat="41.1502994" lon="9.5263328"><ele>38.0</ele><time>2026-04-07T14:50:14.328Z</time></trkpt><trkpt lat="41.1502119" lon="9.5264108"><ele>36.0</ele><time>2026-04-07T14:50:15.327Z</time></trkpt><trkpt lat="41.150124" lon="9.526486"><ele>34.0</ele><time>2026-04-07T14:50:16.328Z</time></trkpt><trkpt lat="41.1500335" lon="9.5265513"><ele>34.0</ele><time>2026-04-07T14:50:17.328Z</time></trkpt><trkpt lat="41.1499315" lon="9.5266065"><ele>34.0</ele><time>2026-04-07T14:50:18.328Z</time></trkpt><trkpt lat="41.1498222" lon="9.5266451"><ele>34.0</ele><time>2026-04-07T14:50:19.328Z</time></trkpt><trkpt lat="41.1497089" lon="9.5266706"><ele>34.0</ele><time>2026-04-07T14:50:20.328Z</time></trkpt><trkpt lat="41.1495962" lon="9.5266884"><ele>34.0</ele><time>2026-04-07T14:50:21.328Z</time></trkpt><trkpt lat="41.1494839" lon="9.5267006"><ele>34.0</ele><time>2026-04-07T14:50:22.328Z</time></trkpt><trkpt lat="41.1493732" lon="9.5267097"><ele>34.0</ele><time>2026-04-07T14:50:23.328Z</time></trkpt><trkpt lat="41.1492708" lon="9.5267056"><ele>34.0</ele><time>2026-04-07T14:50:24.327Z</time></trkpt><trkpt lat="41.1491827" lon="9.5266671"><ele>34.0</ele><time>2026-04-07T14:50:25.327Z</time></trkpt><trkpt lat="41.1491057" lon="9.5266028"><ele>34.2</ele><time>2026-04-07T14:50:26.328Z</time></trkpt><trkpt lat="41.1490328" lon="9.5265273"><ele>34.4</ele><time>2026-04-07T14:50:27.328Z</time></trkpt><trkpt lat="41.148961" lon="9.5264442"><ele>34.6</ele><time>2026-04-07T14:50:28.328Z</time></trkpt><trkpt lat="41.1488924" lon="9.5263569"><ele>34.8</ele><time>2026-04-07T14:50:29.328Z</time></trkpt><trkpt lat="41.1488382" lon="9.5262572"><ele>35.0</ele><time>2026-04-07T14:50:30.328Z</time></trkpt><trkpt lat="41.148801" lon="9.5261579"><ele>35.0</ele><time>2026-04-07T14:50:31.328Z</time></trkpt><trkpt lat="41.1487547" lon="9.5260629"><ele>35.0</ele><time>2026-04-07T14:50:32.328Z</time></trkpt><trkpt lat="41.1486862" lon="9.5259905"><ele>35.0</ele><time>2026-04-07T14:50:33.328Z</time></trkpt><trkpt lat="41.1486121" lon="9.5259274"><ele>35.0</ele><time>2026-04-07T14:50:34.328Z</time></trkpt><trkpt lat="41.1485366" lon="9.5258668"><ele>35.0</ele><time>2026-04-07T14:50:35.328Z</time></trkpt><trkpt lat="41.1484602" lon="9.5258023"><ele>35.0</ele><time>2026-04-07T14:50:36.328Z</time></trkpt><trkpt lat="41.1483851" lon="9.5257338"><ele>35.0</ele><time>2026-04-07T14:50:37.328Z</time></trkpt><trkpt lat="41.1483133" lon="9.525671"><ele>35.0</ele><time>2026-04-07T14:50:38.328Z</time></trkpt><trkpt lat="41.1482487" lon="9.5256142"><ele>35.0</ele><time>2026-04-07T14:50:39.328Z</time></trkpt><trkpt lat="41.1481862" lon="9.5255677"><ele>35.0</ele><time>2026-04-07T14:50:40.327Z</time></trkpt><trkpt lat="41.1481266" lon="9.5255179"><ele>35.0</ele><time>2026-04-07T14:50:41.328Z</time></trkpt><trkpt lat="41.1480733" lon="9.5254586"><ele>35.0</ele><time>2026-04-07T14:50:42.327Z</time></trkpt><trkpt lat="41.1480158" lon="9.5254008"><ele>35.0</ele><time>2026-04-07T14:50:43.328Z</time></trkpt><trkpt lat="41.1479582" lon="9.5253398"><ele>33.0</ele><time>2026-04-07T14:50:44.328Z</time></trkpt><trkpt lat="41.1479016" lon="9.5252771"><ele>31.0</ele><time>2026-04-07T14:50:45.328Z</time></trkpt><trkpt lat="41.1478499" lon="9.5251988"><ele>29.0</ele><time>2026-04-07T14:50:46.328Z</time></trkpt><trkpt lat="41.1478018" lon="9.5251005"><ele>27.0</ele><time>2026-04-07T14:50:47.328Z</time></trkpt><trkpt lat="41.1477682" lon="9.5249801"><ele>25.0</ele><time>2026-04-07T14:50:48.327Z</time></trkpt><trkpt lat="41.1477553" lon="9.5248483"><ele>23.0</ele><time>2026-04-07T14:50:49.328Z</time></trkpt><trkpt lat="41.1477547" lon="9.5247161"><ele>23.0</ele><time>2026-04-07T14:50:50.328Z</time></trkpt><trkpt lat="41.1477562" lon="9.5245802"><ele>23.0</ele><time>2026-04-07T14:50:51.327Z</time></trkpt><trkpt lat="41.1477533" lon="9.5244424"><ele>23.0</ele><time>2026-04-07T14:50:52.328Z</time></trkpt><trkpt lat="41.1477376" lon="9.5243111"><ele>23.0</ele><time>2026-04-07T14:50:53.328Z</time></trkpt><trkpt lat="41.1477097" lon="9.5241938"><ele>23.0</ele><time>2026-04-07T14:50:54.328Z</time></trkpt><trkpt lat="41.1476776" lon="9.5240916"><ele>23.333333333333336</ele><time>2026-04-07T14:50:55.328Z</time></trkpt><trkpt lat="41.1476408" lon="9.5240051"><ele>23.666666666666668</ele><time>2026-04-07T14:50:56.327Z</time></trkpt><trkpt lat="41.1476073" lon="9.5239298"><ele>24.0</ele><time>2026-04-07T14:50:57.327Z</time></trkpt><trkpt lat="41.1475651" lon="9.5238602"><ele>24.333333333333336</ele><time>2026-04-07T14:50:58.328Z</time></trkpt><trkpt lat="41.1475018" lon="9.5237885"><ele>24.666666666666668</ele><time>2026-04-07T14:50:59.328Z</time></trkpt><trkpt lat="41.1474301" lon="9.5237051"><ele>25.0</ele><time>2026-04-07T14:51:00.328Z</time></trkpt><trkpt lat="41.1473452" lon="9.5236028"><ele>21.5</ele><time>2026-04-07T14:51:01.328Z</time></trkpt><trkpt lat="41.1472619" lon="9.5234767"><ele>18.0</ele><time>2026-04-07T14:51:02.326Z</time></trkpt><trkpt lat="41.147185" lon="9.5233503"><ele>14.5</ele><time>2026-04-07T14:51:03.328Z</time></trkpt><trkpt lat="41.1471062" lon="9.5232171"><ele>11.0</ele><time>2026-04-07T14:51:04.327Z</time></trkpt><trkpt lat="41.1470313" lon="9.5230762"><ele>11.0</ele><time>2026-04-07T14:51:05.328Z</time></trkpt><trkpt lat="41.1469735" lon="9.5229367"><ele>11.0</ele><time>2026-04-07T14:51:06.328Z</time></trkpt><trkpt lat="41.1469286" lon="9.5228039"><ele>11.0</ele><time>2026-04-07T14:51:07.328Z</time></trkpt><trkpt lat="41.1468814" lon="9.5226745"><ele>11.0</ele><time>2026-04-07T14:51:08.327Z</time></trkpt><trkpt lat="41.1468362" lon="9.5225603"><ele>11.0</ele><time>2026-04-07T14:51:09.328Z</time></trkpt><trkpt lat="41.1467881" lon="9.5224425"><ele>12.4</ele><time>2026-04-07T14:51:10.328Z</time></trkpt><trkpt lat="41.1467437" lon="9.5223162"><ele>13.8</ele><time>2026-04-07T14:51:11.328Z</time></trkpt><trkpt lat="41.1467065" lon="9.5221836"><ele>15.200000000000001</ele><time>2026-04-07T14:51:12.327Z</time></trkpt><trkpt lat="41.1466782" lon="9.522051"><ele>16.6</ele><time>2026-04-07T14:51:13.328Z</time></trkpt><trkpt lat="41.1466559" lon="9.5219325"><ele>18.0</ele><time>2026-04-07T14:51:14.327Z</time></trkpt><trkpt lat="41.1466291" lon="9.5218226"><ele>19.0</ele><time>2026-04-07T14:51:15.327Z</time></trkpt><trkpt lat="41.1465901" lon="9.5217264"><ele>20.0</ele><time>2026-04-07T14:51:16.328Z</time></trkpt><trkpt lat="41.146537" lon="9.5216438"><ele>21.0</ele><time>2026-04-07T14:51:17.328Z</time></trkpt><trkpt lat="41.1464759" lon="9.5215757"><ele>22.0</ele><time>2026-04-07T14:51:18.328Z</time></trkpt><trkpt lat="41.1463994" lon="9.5215319"><ele>23.0</ele><time>2026-04-07T14:51:19.328Z</time></trkpt><trkpt lat="41.1463249" lon="9.5214919"><ele>24.0</ele><time>2026-04-07T14:51:20.327Z</time></trkpt><trkpt lat="41.1462554" lon="9.5214527"><ele>24.2</ele><time>2026-04-07T14:51:21.328Z</time></trkpt><trkpt lat="41.1461904" lon="9.5214208"><ele>24.4</ele><time>2026-04-07T14:51:22.327Z</time></trkpt><trkpt lat="41.1460821" lon="9.521373"><ele>24.6</ele><time>2026-04-07T14:51:24.328Z</time></trkpt><trkpt lat="41.1459693" lon="9.5214049"><ele>24.8</ele><time>2026-04-07T14:51:26.328Z</time></trkpt><trkpt lat="41.1458745" lon="9.5215002"><ele>25.0</ele><time>2026-04-07T14:51:28.328Z</time></trkpt><trkpt lat="41.1458232" lon="9.521554"><ele>25.000000000000004</ele><time>2026-04-07T14:51:29.327Z</time></trkpt><trkpt lat="41.1457605" lon="9.521606"><ele>25.0</ele><time>2026-04-07T14:51:30.328Z</time></trkpt><trkpt lat="41.1456839" lon="9.521652"><ele>25.0</ele><time>2026-04-07T14:51:31.328Z</time></trkpt><trkpt lat="41.1456062" lon="9.521693"><ele>25.0</ele><time>2026-04-07T14:51:32.328Z</time></trkpt><trkpt lat="41.1455433" lon="9.5217476"><ele>25.000000000000004</ele><time>2026-04-07T14:51:33.327Z</time></trkpt><trkpt lat="41.1454908" lon="9.5218201"><ele>25.0</ele><time>2026-04-07T14:51:34.328Z</time></trkpt><trkpt lat="41.1454493" lon="9.5219163"><ele>26.833333333333336</ele><time>2026-04-07T14:51:35.328Z</time></trkpt><trkpt lat="41.1454147" lon="9.5220097"><ele>28.666666666666668</ele><time>2026-04-07T14:51:36.327Z</time></trkpt><trkpt lat="41.1453762" lon="9.5220946"><ele>30.5</ele><time>2026-04-07T14:51:37.328Z</time></trkpt><trkpt lat="41.1453284" lon="9.5221747"><ele>32.333333333333336</ele><time>2026-04-07T14:51:38.328Z</time></trkpt><trkpt lat="41.1452708" lon="9.5222529"><ele>34.166666666666664</ele><time>2026-04-07T14:51:39.328Z</time></trkpt><trkpt lat="41.1452139" lon="9.5223219"><ele>36.0</ele><time>2026-04-07T14:51:40.327Z</time></trkpt><trkpt lat="41.1451568" lon="9.5223829"><ele>36.0</ele><time>2026-04-07T14:51:41.328Z</time></trkpt><trkpt lat="41.1450938" lon="9.5224457"><ele>36.0</ele><time>2026-04-07T14:51:42.328Z</time></trkpt><trkpt lat="41.1450272" lon="9.5225023"><ele>36.0</ele><time>2026-04-07T14:51:43.328Z</time></trkpt><trkpt lat="41.1449498" lon="9.5225321"><ele>36.0</ele><time>2026-04-07T14:51:44.327Z</time></trkpt><trkpt lat="41.1448744" lon="9.5225323"><ele>36.0</ele><time>2026-04-07T14:51:45.328Z</time></trkpt><trkpt lat="41.1447498" lon="9.522491"><ele>36.0</ele><time>2026-04-07T14:51:47.328Z</time></trkpt><trkpt lat="41.1446837" lon="9.5224647"><ele>36.142857142857146</ele><time>2026-04-07T14:51:48.327Z</time></trkpt><trkpt lat="41.1446234" lon="9.5224369"><ele>36.285714285714285</ele><time>2026-04-07T14:51:49.328Z</time></trkpt><trkpt lat="41.1445597" lon="9.5224143"><ele>36.42857142857143</ele><time>2026-04-07T14:51:50.328Z</time></trkpt><trkpt lat="41.1444947" lon="9.5224073"><ele>36.57142857142857</ele><time>2026-04-07T14:51:51.327Z</time></trkpt><trkpt lat="41.1444293" lon="9.5224283"><ele>36.714285714285715</ele><time>2026-04-07T14:51:52.328Z</time></trkpt><trkpt lat="41.144368" lon="9.5224856"><ele>36.85714285714286</ele><time>2026-04-07T14:51:53.328Z</time></trkpt><trkpt lat="41.1443125" lon="9.5225672"><ele>37.0</ele><time>2026-04-07T14:51:54.328Z</time></trkpt><trkpt lat="41.1442595" lon="9.5226615"><ele>37.0</ele><time>2026-04-07T14:51:55.328Z</time></trkpt><trkpt lat="41.1442171" lon="9.5227584"><ele>37.0</ele><time>2026-04-07T14:51:56.328Z</time></trkpt><trkpt lat="41.1441833" lon="9.5228591"><ele>37.0</ele><time>2026-04-07T14:51:57.328Z</time></trkpt><trkpt lat="41.144157" lon="9.5229678"><ele>37.0</ele><time>2026-04-07T14:51:58.328Z</time></trkpt><trkpt lat="41.1441483" lon="9.5230801"><ele>37.0</ele><time>2026-04-07T14:51:59.328Z</time></trkpt><trkpt lat="41.1441606" lon="9.5231857"><ele>37.0</ele><time>2026-04-07T14:52:00.328Z</time></trkpt><trkpt lat="41.1441734" lon="9.5232937"><ele>37.0</ele><time>2026-04-07T14:52:01.327Z</time></trkpt><trkpt lat="41.1441928" lon="9.5233987"><ele>37.0</ele><time>2026-04-07T14:52:02.328Z</time></trkpt><trkpt lat="41.1442085" lon="9.5234995"><ele>37.0</ele><time>2026-04-07T14:52:03.328Z</time></trkpt><trkpt lat="41.1442192" lon="9.52359"><ele>37.0</ele><time>2026-04-07T14:52:04.328Z</time></trkpt><trkpt lat="41.1442324" lon="9.5236776"><ele>37.0</ele><time>2026-04-07T14:52:05.328Z</time></trkpt><trkpt lat="41.1442412" lon="9.5237661"><ele>37.0</ele><time>2026-04-07T14:52:06.328Z</time></trkpt><trkpt lat="41.1442532" lon="9.5238638"><ele>37.0</ele><time>2026-04-07T14:52:07.327Z</time></trkpt><trkpt lat="41.1442675" lon="9.5239649"><ele>37.0</ele><time>2026-04-07T14:52:08.327Z</time></trkpt><trkpt lat="41.1442734" lon="9.5240658"><ele>37.0</ele><time>2026-04-07T14:52:09.327Z</time></trkpt><trkpt lat="41.1442807" lon="9.5241716"><ele>37.0</ele><time>2026-04-07T14:52:10.328Z</time></trkpt><trkpt lat="41.1442777" lon="9.5242809"><ele>37.0</ele><time>2026-04-07T14:52:11.328Z</time></trkpt><trkpt lat="41.144272" lon="9.524393"><ele>37.0</ele><time>2026-04-07T14:52:12.327Z</time></trkpt><trkpt lat="41.1442599" lon="9.5245173"><ele>37.0</ele><time>2026-04-07T14:52:13.327Z</time></trkpt><trkpt lat="41.1442374" lon="9.5246476"><ele>35.4</ele><time>2026-04-07T14:52:14.328Z</time></trkpt><trkpt lat="41.1442007" lon="9.5247731"><ele>33.800000000000004</ele><time>2026-04-07T14:52:15.328Z</time></trkpt><trkpt lat="41.1441553" lon="9.524906"><ele>32.2</ele><time>2026-04-07T14:52:16.328Z</time></trkpt><trkpt lat="41.1441018" lon="9.5250371"><ele>30.6</ele><time>2026-04-07T14:52:17.327Z</time></trkpt><trkpt lat="41.1440438" lon="9.5251593"><ele>29.0</ele><time>2026-04-07T14:52:18.327Z</time></trkpt><trkpt lat="41.143974" lon="9.5252717"><ele>29.0</ele><time>2026-04-07T14:52:19.328Z</time></trkpt><trkpt lat="41.1438971" lon="9.5253686"><ele>29.0</ele><time>2026-04-07T14:52:20.327Z</time></trkpt><trkpt lat="41.1438178" lon="9.5254488"><ele>29.0</ele><time>2026-04-07T14:52:21.328Z</time></trkpt><trkpt lat="41.1437357" lon="9.5255067"><ele>29.0</ele><time>2026-04-07T14:52:22.328Z</time></trkpt><trkpt lat="41.143646" lon="9.5255375"><ele>29.0</ele><time>2026-04-07T14:52:23.328Z</time></trkpt><trkpt lat="41.1435594" lon="9.5255471"><ele>27.4</ele><time>2026-04-07T14:52:24.328Z</time></trkpt><trkpt lat="41.1434668" lon="9.525534"><ele>25.799999999999997</ele><time>2026-04-07T14:52:25.327Z</time></trkpt><trkpt lat="41.1433772" lon="9.5255097"><ele>24.200000000000003</ele><time>2026-04-07T14:52:26.328Z</time></trkpt><trkpt lat="41.1432888" lon="9.5254764"><ele>22.6</ele><time>2026-04-07T14:52:27.327Z</time></trkpt><trkpt lat="41.1431972" lon="9.5254384"><ele>21.0</ele><time>2026-04-07T14:52:28.328Z</time></trkpt><trkpt lat="41.1431075" lon="9.5254034"><ele>21.0</ele><time>2026-04-07T14:52:29.327Z</time></trkpt><trkpt lat="41.1430171" lon="9.5253651"><ele>21.0</ele><time>2026-04-07T14:52:30.328Z</time></trkpt><trkpt lat="41.1429246" lon="9.5253263"><ele>21.0</ele><time>2026-04-07T14:52:31.327Z</time></trkpt><trkpt lat="41.1428328" lon="9.5252879"><ele>21.0</ele><time>2026-04-07T14:52:32.327Z</time></trkpt><trkpt lat="41.1427475" lon="9.5252496"><ele>21.0</ele><time>2026-04-07T14:52:33.327Z</time></trkpt><trkpt lat="41.1426666" lon="9.5251996"><ele>21.0</ele><time>2026-04-07T14:52:34.328Z</time></trkpt><trkpt lat="41.1425927" lon="9.5251423"><ele>21.0</ele><time>2026-04-07T14:52:35.328Z</time></trkpt><trkpt lat="41.1425134" lon="9.5250857"><ele>21.0</ele><time>2026-04-07T14:52:36.328Z</time></trkpt><trkpt lat="41.1424399" lon="9.5250281"><ele>21.0</ele><time>2026-04-07T14:52:37.328Z</time></trkpt><trkpt lat="41.1423631" lon="9.524972"><ele>21.0</ele><time>2026-04-07T14:52:38.328Z</time></trkpt><trkpt lat="41.1422908" lon="9.524911"><ele>21.0</ele><time>2026-04-07T14:52:39.327Z</time></trkpt><trkpt lat="41.1422139" lon="9.5248552"><ele>20.833333333333332</ele><time>2026-04-07T14:52:40.328Z</time></trkpt><trkpt lat="41.1421393" lon="9.5247967"><ele>20.666666666666668</ele><time>2026-04-07T14:52:41.327Z</time></trkpt><trkpt lat="41.1420765" lon="9.5247341"><ele>20.5</ele><time>2026-04-07T14:52:42.327Z</time></trkpt><trkpt lat="41.1420187" lon="9.5246652"><ele>20.333333333333336</ele><time>2026-04-07T14:52:43.328Z</time></trkpt><trkpt lat="41.1419702" lon="9.5245958"><ele>20.166666666666668</ele><time>2026-04-07T14:52:44.328Z</time></trkpt><trkpt lat="41.1419268" lon="9.5245229"><ele>20.0</ele><time>2026-04-07T14:52:45.327Z</time></trkpt><trkpt lat="41.1418775" lon="9.5244601"><ele>20.0</ele><time>2026-04-07T14:52:46.328Z</time></trkpt><trkpt lat="41.1418257" lon="9.524406"><ele>20.0</ele><time>2026-04-07T14:52:47.328Z</time></trkpt><trkpt lat="41.1417676" lon="9.5243574"><ele>20.0</ele><time>2026-04-07T14:52:48.328Z</time></trkpt><trkpt lat="41.1417044" lon="9.5243142"><ele>20.0</ele><time>2026-04-07T14:52:49.327Z</time></trkpt><trkpt lat="41.141635" lon="9.5242708"><ele>20.0</ele><time>2026-04-07T14:52:50.328Z</time></trkpt><trkpt lat="41.1415588" lon="9.5242258"><ele>20.0</ele><time>2026-04-07T14:52:51.327Z</time></trkpt><trkpt lat="41.14148" lon="9.5241837"><ele>20.0</ele><time>2026-04-07T14:52:52.328Z</time></trkpt><trkpt lat="41.1413922" lon="9.5241416"><ele>20.0</ele><time>2026-04-07T14:52:53.328Z</time></trkpt><trkpt lat="41.141302" lon="9.5240919"><ele>20.0</ele><time>2026-04-07T14:52:54.328Z</time></trkpt><trkpt lat="41.1412089" lon="9.5240327"><ele>20.0</ele><time>2026-04-07T14:52:55.328Z</time></trkpt><trkpt lat="41.1411171" lon="9.5239705"><ele>20.0</ele><time>2026-04-07T14:52:56.328Z</time></trkpt><trkpt lat="41.1410242" lon="9.5239058"><ele>20.0</ele><time>2026-04-07T14:52:57.328Z</time></trkpt><trkpt lat="41.1409335" lon="9.5238451"><ele>20.0</ele><time>2026-04-07T14:52:58.328Z</time></trkpt><trkpt lat="41.1408431" lon="9.5237865"><ele>20.0</ele><time>2026-04-07T14:52:59.328Z</time></trkpt><trkpt lat="41.1407597" lon="9.5237437"><ele>20.0</ele><time>2026-04-07T14:53:00.328Z</time></trkpt><trkpt lat="41.1406748" lon="9.523705"><ele>20.0</ele><time>2026-04-07T14:53:01.327Z</time></trkpt><trkpt lat="41.1405925" lon="9.5236751"><ele>19.5</ele><time>2026-04-07T14:53:02.328Z</time></trkpt><trkpt lat="41.1405119" lon="9.5236429"><ele>19.0</ele><time>2026-04-07T14:53:03.328Z</time></trkpt><trkpt lat="41.1404345" lon="9.5236099"><ele>18.5</ele><time>2026-04-07T14:53:04.328Z</time></trkpt><trkpt lat="41.1403551" lon="9.5235784"><ele>18.0</ele><time>2026-04-07T14:53:05.327Z</time></trkpt><trkpt lat="41.1402754" lon="9.5235471"><ele>17.5</ele><time>2026-04-07T14:53:06.327Z</time></trkpt><trkpt lat="41.1401935" lon="9.5235118"><ele>17.0</ele><time>2026-04-07T14:53:07.327Z</time></trkpt><trkpt lat="41.1401077" lon="9.5234798"><ele>17.0</ele><time>2026-04-07T14:53:08.328Z</time></trkpt><trkpt lat="41.1400159" lon="9.5234465"><ele>17.0</ele><time>2026-04-07T14:53:09.328Z</time></trkpt><trkpt lat="41.1399198" lon="9.5234083"><ele>17.0</ele><time>2026-04-07T14:53:10.327Z</time></trkpt><trkpt lat="41.1398183" lon="9.5233678"><ele>17.0</ele><time>2026-04-07T14:53:11.328Z</time></trkpt><trkpt lat="41.139709" lon="9.5233355"><ele>17.0</ele><time>2026-04-07T14:53:12.328Z</time></trkpt><trkpt lat="41.1395927" lon="9.5233201"><ele>15.6</ele><time>2026-04-07T14:53:13.327Z</time></trkpt><trkpt lat="41.1394714" lon="9.5233254"><ele>14.2</ele><time>2026-04-07T14:53:14.328Z</time></trkpt><trkpt lat="41.1393561" lon="9.5233509"><ele>12.8</ele><time>2026-04-07T14:53:15.328Z</time></trkpt><trkpt lat="41.1392538" lon="9.5233913"><ele>11.4</ele><time>2026-04-07T14:53:16.328Z</time></trkpt><trkpt lat="41.1391624" lon="9.5234326"><ele>10.0</ele><time>2026-04-07T14:53:17.327Z</time></trkpt><trkpt lat="41.1390831" lon="9.5234794"><ele>9.857142857142858</ele><time>2026-04-07T14:53:18.328Z</time></trkpt><trkpt lat="41.1390147" lon="9.5235272"><ele>9.714285714285715</ele><time>2026-04-07T14:53:19.328Z</time></trkpt><trkpt lat="41.1389515" lon="9.5235725"><ele>9.571428571428573</ele><time>2026-04-07T14:53:20.327Z</time></trkpt><trkpt lat="41.1388928" lon="9.5236167"><ele>9.428571428571429</ele><time>2026-04-07T14:53:21.328Z</time></trkpt><trkpt lat="41.1388314" lon="9.5236564"><ele>9.285714285714286</ele><time>2026-04-07T14:53:22.328Z</time></trkpt><trkpt lat="41.1387634" lon="9.5237007"><ele>9.142857142857144</ele><time>2026-04-07T14:53:23.327Z</time></trkpt><trkpt lat="41.1386948" lon="9.5237534"><ele>9.0</ele><time>2026-04-07T14:53:24.328Z</time></trkpt><trkpt lat="41.1386279" lon="9.5238256"><ele>9.0</ele><time>2026-04-07T14:53:25.328Z</time></trkpt><trkpt lat="41.1385696" lon="9.5239095"><ele>9.0</ele><time>2026-04-07T14:53:26.328Z</time></trkpt><trkpt lat="41.1385138" lon="9.5239893"><ele>9.0</ele><time>2026-04-07T14:53:27.328Z</time></trkpt><trkpt lat="41.138462" lon="9.5240769"><ele>9.0</ele><time>2026-04-07T14:53:28.328Z</time></trkpt><trkpt lat="41.1384107" lon="9.5241553"><ele>9.0</ele><time>2026-04-07T14:53:29.328Z</time></trkpt><trkpt lat="41.1383619" lon="9.5242295"><ele>9.0</ele><time>2026-04-07T14:53:30.328Z</time></trkpt><trkpt lat="41.1383025" lon="9.5243162"><ele>9.0</ele><time>2026-04-07T14:53:32.328Z</time></trkpt><trkpt lat="41.1382622" lon="9.5243848"><ele>9.0</ele><time>2026-04-07T14:53:34.328Z</time></trkpt><trkpt lat="41.1381932" lon="9.5244624"><ele>9.0</ele><time>2026-04-07T14:53:36.327Z</time></trkpt><trkpt lat="41.1380776" lon="9.5245244"><ele>9.0</ele><time>2026-04-07T14:53:38.328Z</time></trkpt><trkpt lat="41.1380056" lon="9.5245249"><ele>9.0</ele><time>2026-04-07T14:53:39.328Z</time></trkpt><trkpt lat="41.1379033" lon="9.524497"><ele>8.8</ele><time>2026-04-07T14:53:41.327Z</time></trkpt><trkpt lat="41.1377999" lon="9.5244778"><ele>8.600000000000001</ele><time>2026-04-07T14:53:43.328Z</time></trkpt><trkpt lat="41.1376863" lon="9.5244928"><ele>8.4</ele><time>2026-04-07T14:53:45.328Z</time></trkpt><trkpt lat="41.1375745" lon="9.5245767"><ele>8.200000000000001</ele><time>2026-04-07T14:53:47.328Z</time></trkpt><trkpt lat="41.1375251" lon="9.5246409"><ele>8.0</ele><time>2026-04-07T14:53:48.328Z</time></trkpt><trkpt lat="41.137477" lon="9.524706"><ele>8.0</ele><time>2026-04-07T14:53:49.328Z</time></trkpt><trkpt lat="41.1374312" lon="9.5247803"><ele>7.999999999999999</ele><time>2026-04-07T14:53:50.327Z</time></trkpt><trkpt lat="41.1373711" lon="9.5248358"><ele>8.0</ele><time>2026-04-07T14:53:51.328Z</time></trkpt><trkpt lat="41.1373053" lon="9.5248797"><ele>8.0</ele><time>2026-04-07T14:53:52.328Z</time></trkpt><trkpt lat="41.1372319" lon="9.5249066"><ele>7.999999999999999</ele><time>2026-04-07T14:53:53.328Z</time></trkpt><trkpt lat="41.1371583" lon="9.5249121"><ele>8.0</ele><time>2026-04-07T14:53:54.328Z</time></trkpt><trkpt lat="41.1370839" lon="9.5248982"><ele>8.0</ele><time>2026-04-07T14:53:55.328Z</time></trkpt><trkpt lat="41.1370104" lon="9.5248717"><ele>7.800000000000001</ele><time>2026-04-07T14:53:56.328Z</time></trkpt><trkpt lat="41.1369411" lon="9.524837"><ele>7.6000000000000005</ele><time>2026-04-07T14:53:57.328Z</time></trkpt><trkpt lat="41.1368414" lon="9.5247404"><ele>7.3999999999999995</ele><time>2026-04-07T14:53:59.327Z</time></trkpt><trkpt lat="41.1367948" lon="9.5246706"><ele>7.199999999999999</ele><time>2026-04-07T14:54:00.328Z</time></trkpt><trkpt lat="41.1367281" lon="9.5245337"><ele>7.0</ele><time>2026-04-07T14:54:02.328Z</time></trkpt><trkpt lat="41.1366574" lon="9.5244377"><ele>8.6</ele><time>2026-04-07T14:54:04.328Z</time></trkpt><trkpt lat="41.1365593" lon="9.5243903"><ele>10.2</ele><time>2026-04-07T14:54:06.328Z</time></trkpt><trkpt lat="41.1364253" lon="9.5244014"><ele>11.8</ele><time>2026-04-07T14:54:08.327Z</time></trkpt><trkpt lat="41.136339" lon="9.5244263"><ele>13.4</ele><time>2026-04-07T14:54:09.328Z</time></trkpt><trkpt lat="41.1362478" lon="9.5244651"><ele>15.0</ele><time>2026-04-07T14:54:10.328Z</time></trkpt><trkpt lat="41.1361603" lon="9.5245233"><ele>14.166666666666666</ele><time>2026-04-07T14:54:11.328Z</time></trkpt><trkpt lat="41.1360832" lon="9.5245883"><ele>13.333333333333334</ele><time>2026-04-07T14:54:12.327Z</time></trkpt><trkpt lat="41.1360133" lon="9.5246554"><ele>12.5</ele><time>2026-04-07T14:54:13.328Z</time></trkpt><trkpt lat="41.1359449" lon="9.5247244"><ele>11.666666666666668</ele><time>2026-04-07T14:54:14.327Z</time></trkpt><trkpt lat="41.1358812" lon="9.5247928"><ele>10.833333333333334</ele><time>2026-04-07T14:54:15.328Z</time></trkpt><trkpt lat="41.1358132" lon="9.524848"><ele>10.0</ele><time>2026-04-07T14:54:16.328Z</time></trkpt><trkpt lat="41.1357374" lon="9.5248901"><ele>10.166666666666668</ele><time>2026-04-07T14:54:17.327Z</time></trkpt><trkpt lat="41.1356618" lon="9.5249205"><ele>10.333333333333334</ele><time>2026-04-07T14:54:18.328Z</time></trkpt><trkpt lat="41.1355837" lon="9.5249555"><ele>10.5</ele><time>2026-04-07T14:54:19.328Z</time></trkpt><trkpt lat="41.1355064" lon="9.5249992"><ele>10.666666666666666</ele><time>2026-04-07T14:54:20.328Z</time></trkpt><trkpt lat="41.1354281" lon="9.5250526"><ele>10.833333333333332</ele><time>2026-04-07T14:54:21.327Z</time></trkpt><trkpt lat="41.1353528" lon="9.525117"><ele>11.0</ele><time>2026-04-07T14:54:22.327Z</time></trkpt><trkpt lat="41.1352819" lon="9.5251736"><ele>11.0</ele><time>2026-04-07T14:54:23.328Z</time></trkpt><trkpt lat="41.1352183" lon="9.5252342"><ele>11.0</ele><time>2026-04-07T14:54:24.328Z</time></trkpt><trkpt lat="41.1351558" lon="9.5252821"><ele>11.0</ele><time>2026-04-07T14:54:25.328Z</time></trkpt><trkpt lat="41.135096" lon="9.5253083"><ele>11.0</ele><time>2026-04-07T14:54:26.327Z</time></trkpt><trkpt lat="41.1350309" lon="9.5253037"><ele>11.0</ele><time>2026-04-07T14:54:27.327Z</time></trkpt><trkpt lat="41.1349241" lon="9.5252021"><ele>11.0</ele><time>2026-04-07T14:54:29.328Z</time></trkpt><trkpt lat="41.1348625" lon="9.5251379"><ele>10.666666666666666</ele><time>2026-04-07T14:54:30.327Z</time></trkpt><trkpt lat="41.1347895" lon="9.5250753"><ele>10.333333333333332</ele><time>2026-04-07T14:54:31.328Z</time></trkpt><trkpt lat="41.1347144" lon="9.5250173"><ele>10.0</ele><time>2026-04-07T14:54:32.328Z</time></trkpt><trkpt lat="41.134631" lon="9.5249671"><ele>9.666666666666666</ele><time>2026-04-07T14:54:33.327Z</time></trkpt><trkpt lat="41.1345531" lon="9.5249205"><ele>9.333333333333334</ele><time>2026-04-07T14:54:34.328Z</time></trkpt><trkpt lat="41.1344913" lon="9.5248823"><ele>9.0</ele><time>2026-04-07T14:54:35.327Z</time></trkpt><trkpt lat="41.1344137" lon="9.5248419"><ele>9.0</ele><time>2026-04-07T14:54:37.328Z</time></trkpt><trkpt lat="41.1343138" lon="9.5248036"><ele>9.0</ele><time>2026-04-07T14:54:40.328Z</time></trkpt><trkpt lat="41.1342536" lon="9.5248303"><ele>9.0</ele><time>2026-04-07T14:54:41.328Z</time></trkpt><trkpt lat="41.1341771" lon="9.5248926"><ele>9.0</ele><time>2026-04-07T14:54:42.328Z</time></trkpt><trkpt lat="41.1340978" lon="9.5249755"><ele>9.0</ele><time>2026-04-07T14:54:43.327Z</time></trkpt><trkpt lat="41.134012" lon="9.5250617"><ele>9.5</ele><time>2026-04-07T14:54:44.328Z</time></trkpt><trkpt lat="41.1339174" lon="9.5251473"><ele>10.0</ele><time>2026-04-07T14:54:45.328Z</time></trkpt><trkpt lat="41.1338164" lon="9.5252382"><ele>10.5</ele><time>2026-04-07T14:54:46.328Z</time></trkpt><trkpt lat="41.1337131" lon="9.5253395"><ele>11.0</ele><time>2026-04-07T14:54:47.327Z</time></trkpt><trkpt lat="41.1336033" lon="9.5254476"><ele>11.0</ele><time>2026-04-07T14:54:48.328Z</time></trkpt><trkpt lat="41.1334917" lon="9.525582"><ele>11.0</ele><time>2026-04-07T14:54:49.328Z</time></trkpt><trkpt lat="41.1333757" lon="9.5257444"><ele>11.0</ele><time>2026-04-07T14:54:50.328Z</time></trkpt><trkpt lat="41.1332489" lon="9.5259194"><ele>10.0</ele><time>2026-04-07T14:54:51.327Z</time></trkpt><trkpt lat="41.1331145" lon="9.526098"><ele>9.0</ele><time>2026-04-07T14:54:52.327Z</time></trkpt><trkpt lat="41.132974" lon="9.5262806"><ele>8.0</ele><time>2026-04-07T14:54:53.327Z</time></trkpt><trkpt lat="41.1328349" lon="9.5264629"><ele>8.0</ele><time>2026-04-07T14:54:54.327Z</time></trkpt><trkpt lat="41.1326989" lon="9.5266438"><ele>8.0</ele><time>2026-04-07T14:54:55.327Z</time></trkpt><trkpt lat="41.1325678" lon="9.5268227"><ele>8.0</ele><time>2026-04-07T14:54:56.328Z</time></trkpt><trkpt lat="41.1324416" lon="9.5269986"><ele>11.666666666666666</ele><time>2026-04-07T14:54:57.327Z</time></trkpt><trkpt lat="41.1323125" lon="9.5271769"><ele>15.333333333333332</ele><time>2026-04-07T14:54:58.327Z</time></trkpt><trkpt lat="41.1321856" lon="9.5273502"><ele>19.0</ele><time>2026-04-07T14:54:59.328Z</time></trkpt><trkpt lat="41.1320547" lon="9.5275216"><ele>19.0</ele><time>2026-04-07T14:55:00.328Z</time></trkpt><trkpt lat="41.1319175" lon="9.5276838"><ele>19.0</ele><time>2026-04-07T14:55:01.328Z</time></trkpt><trkpt lat="41.1316315" lon="9.5279821"><ele>22.333333333333332</ele><time>2026-04-07T14:55:03.328Z</time></trkpt><trkpt lat="41.1314838" lon="9.5281236"><ele>25.666666666666664</ele><time>2026-04-07T14:55:04.328Z</time></trkpt><trkpt lat="41.1313372" lon="9.5282656"><ele>29.0</ele><time>2026-04-07T14:55:05.327Z</time></trkpt><trkpt lat="41.1311929" lon="9.5284064"><ele>29.0</ele><time>2026-04-07T14:55:06.328Z</time></trkpt><trkpt lat="41.1310473" lon="9.528546"><ele>29.0</ele><time>2026-04-07T14:55:07.328Z</time></trkpt><trkpt lat="41.1309036" lon="9.5286834"><ele>29.0</ele><time>2026-04-07T14:55:08.328Z</time></trkpt><trkpt lat="41.1307531" lon="9.5288238"><ele>29.666666666666664</ele><time>2026-04-07T14:55:09.328Z</time></trkpt><trkpt lat="41.1305999" lon="9.5289627"><ele>30.333333333333336</ele><time>2026-04-07T14:55:10.328Z</time></trkpt><trkpt lat="41.1304433" lon="9.5291009"><ele>31.0</ele><time>2026-04-07T14:55:11.328Z</time></trkpt><trkpt lat="41.1302773" lon="9.5292397"><ele>31.0</ele><time>2026-04-07T14:55:12.327Z</time></trkpt><trkpt lat="41.1301065" lon="9.5293714"><ele>31.0</ele><time>2026-04-07T14:55:13.328Z</time></trkpt><trkpt lat="41.1299321" lon="9.5295044"><ele>31.0</ele><time>2026-04-07T14:55:14.328Z</time></trkpt><trkpt lat="41.1297525" lon="9.5296374"><ele>31.333333333333336</ele><time>2026-04-07T14:55:15.328Z</time></trkpt><trkpt lat="41.1295749" lon="9.529775"><ele>31.666666666666664</ele><time>2026-04-07T14:55:16.328Z</time></trkpt><trkpt lat="41.1293901" lon="9.5299164"><ele>32.0</ele><time>2026-04-07T14:55:17.328Z</time></trkpt><trkpt lat="41.1292" lon="9.5300631"><ele>34.0</ele><time>2026-04-07T14:55:18.327Z</time></trkpt><trkpt lat="41.1290111" lon="9.5302107"><ele>36.0</ele><time>2026-04-07T14:55:19.328Z</time></trkpt><trkpt lat="41.1288245" lon="9.5303716"><ele>38.0</ele><time>2026-04-07T14:55:20.328Z</time></trkpt><trkpt lat="41.1286383" lon="9.5305384"><ele>38.0</ele><time>2026-04-07T14:55:21.328Z</time></trkpt><trkpt lat="41.1284498" lon="9.5307063"><ele>38.0</ele><time>2026-04-07T14:55:22.328Z</time></trkpt><trkpt lat="41.1282579" lon="9.5308826"><ele>43.0</ele><time>2026-04-07T14:55:23.327Z</time></trkpt><trkpt lat="41.1280716" lon="9.5310597"><ele>48.0</ele><time>2026-04-07T14:55:24.328Z</time></trkpt><trkpt lat="41.127885" lon="9.5312377"><ele>48.0</ele><time>2026-04-07T14:55:25.328Z</time></trkpt><trkpt lat="41.1276971" lon="9.5314165"><ele>48.0</ele><time>2026-04-07T14:55:26.327Z</time></trkpt><trkpt lat="41.127507" lon="9.5315999"><ele>46.5</ele><time>2026-04-07T14:55:27.328Z</time></trkpt><trkpt lat="41.1273156" lon="9.5317783"><ele>45.0</ele><time>2026-04-07T14:55:28.328Z</time></trkpt><trkpt lat="41.1271362" lon="9.531945"><ele>42.666666666666664</ele><time>2026-04-07T14:55:29.328Z</time></trkpt><trkpt lat="41.1269639" lon="9.5321092"><ele>40.33333333333333</ele><time>2026-04-07T14:55:30.328Z</time></trkpt><trkpt lat="41.1267945" lon="9.5322712"><ele>38.0</ele><time>2026-04-07T14:55:31.328Z</time></trkpt><trkpt lat="41.1266314" lon="9.5324326"><ele>38.0</ele><time>2026-04-07T14:55:32.328Z</time></trkpt><trkpt lat="41.1264695" lon="9.5325946"><ele>38.0</ele><time>2026-04-07T14:55:33.327Z</time></trkpt><trkpt lat="41.1263073" lon="9.5327648"><ele>38.0</ele><time>2026-04-07T14:55:34.327Z</time></trkpt><trkpt lat="41.1261465" lon="9.5329461"><ele>35.666666666666664</ele><time>2026-04-07T14:55:35.328Z</time></trkpt><trkpt lat="41.1259826" lon="9.5331325"><ele>33.333333333333336</ele><time>2026-04-07T14:55:36.327Z</time></trkpt><trkpt lat="41.1258129" lon="9.5333233"><ele>31.0</ele><time>2026-04-07T14:55:37.327Z</time></trkpt><trkpt lat="41.1256413" lon="9.5335251"><ele>26.0</ele><time>2026-04-07T14:55:38.328Z</time></trkpt><trkpt lat="41.1254666" lon="9.5337275"><ele>21.0</ele><time>2026-04-07T14:55:39.327Z</time></trkpt><trkpt lat="41.1252873" lon="9.5339368"><ele>21.0</ele><time>2026-04-07T14:55:40.327Z</time></trkpt><trkpt lat="41.1251045" lon="9.5341486"><ele>21.0</ele><time>2026-04-07T14:55:41.328Z</time></trkpt><trkpt lat="41.1249094" lon="9.5343512"><ele>19.5</ele><time>2026-04-07T14:55:42.327Z</time></trkpt><trkpt lat="41.1246996" lon="9.5345353"><ele>18.0</ele><time>2026-04-07T14:55:43.328Z</time></trkpt><trkpt lat="41.1244811" lon="9.5347042"><ele>18.0</ele><time>2026-04-07T14:55:44.328Z</time></trkpt><trkpt lat="41.1242593" lon="9.5348581"><ele>18.0</ele><time>2026-04-07T14:55:45.328Z</time></trkpt><trkpt lat="41.1240481" lon="9.535"><ele>18.333333333333332</ele><time>2026-04-07T14:55:46.328Z</time></trkpt><trkpt lat="41.1238451" lon="9.5351339"><ele>18.666666666666664</ele><time>2026-04-07T14:55:47.327Z</time></trkpt><trkpt lat="41.1236514" lon="9.535265"><ele>19.0</ele><time>2026-04-07T14:55:48.328Z</time></trkpt><trkpt lat="41.1234626" lon="9.5353897"><ele>16.666666666666664</ele><time>2026-04-07T14:55:49.328Z</time></trkpt><trkpt lat="41.1232725" lon="9.5355174"><ele>14.333333333333332</ele><time>2026-04-07T14:55:50.327Z</time></trkpt><trkpt lat="41.1230851" lon="9.5356408"><ele>12.0</ele><time>2026-04-07T14:55:51.327Z</time></trkpt><trkpt lat="41.1228979" lon="9.5357603"><ele>12.0</ele><time>2026-04-07T14:55:52.327Z</time></trkpt><trkpt lat="41.1227099" lon="9.535859"><ele>12.0</ele><time>2026-04-07T14:55:53.328Z</time></trkpt><trkpt lat="41.1225156" lon="9.5359314"><ele>12.0</ele><time>2026-04-07T14:55:54.328Z</time></trkpt><trkpt lat="41.1223232" lon="9.53596"><ele>12.0</ele><time>2026-04-07T14:55:55.328Z</time></trkpt><trkpt lat="41.1221257" lon="9.5359506"><ele>12.0</ele><time>2026-04-07T14:55:56.328Z</time></trkpt><trkpt lat="41.1219243" lon="9.5359068"><ele>12.0</ele><time>2026-04-07T14:55:57.327Z</time></trkpt><trkpt lat="41.121723" lon="9.5358227"><ele>10.333333333333334</ele><time>2026-04-07T14:55:58.328Z</time></trkpt><trkpt lat="41.1215212" lon="9.5357303"><ele>8.666666666666668</ele><time>2026-04-07T14:55:59.327Z</time></trkpt><trkpt lat="41.121316" lon="9.5356338"><ele>7.0</ele><time>2026-04-07T14:56:00.328Z</time></trkpt><trkpt lat="41.1211102" lon="9.5355386"><ele>7.0</ele><time>2026-04-07T14:56:01.328Z</time></trkpt><trkpt lat="41.1209043" lon="9.5354391"><ele>7.0</ele><time>2026-04-07T14:56:02.328Z</time></trkpt><trkpt lat="41.1207031" lon="9.5353386"><ele>7.0</ele><time>2026-04-07T14:56:03.328Z</time></trkpt><trkpt lat="41.1204997" lon="9.5352348"><ele>9.333333333333334</ele><time>2026-04-07T14:56:04.328Z</time></trkpt><trkpt lat="41.1202977" lon="9.535133"><ele>11.666666666666668</ele><time>2026-04-07T14:56:05.328Z</time></trkpt><trkpt lat="41.1200981" lon="9.5350372"><ele>14.0</ele><time>2026-04-07T14:56:06.327Z</time></trkpt><trkpt lat="41.1199091" lon="9.5349439"><ele>18.666666666666668</ele><time>2026-04-07T14:56:07.328Z</time></trkpt><trkpt lat="41.119732" lon="9.5348538"><ele>23.333333333333336</ele><time>2026-04-07T14:56:08.327Z</time></trkpt><trkpt lat="41.1195608" lon="9.5347736"><ele>28.0</ele><time>2026-04-07T14:56:09.328Z</time></trkpt><trkpt lat="41.1194047" lon="9.5346959"><ele>28.0</ele><time>2026-04-07T14:56:10.328Z</time></trkpt><trkpt lat="41.1192541" lon="9.5346331"><ele>28.0</ele><time>2026-04-07T14:56:11.328Z</time></trkpt><trkpt lat="41.119105" lon="9.5346133"><ele>28.0</ele><time>2026-04-07T14:56:12.328Z</time></trkpt><trkpt lat="41.1189459" lon="9.5346328"><ele>28.666666666666668</ele><time>2026-04-07T14:56:13.328Z</time></trkpt><trkpt lat="41.1187874" lon="9.5346887"><ele>29.333333333333336</ele><time>2026-04-07T14:56:14.328Z</time></trkpt><trkpt lat="41.118636" lon="9.5347818"><ele>30.0</ele><time>2026-04-07T14:56:15.328Z</time></trkpt><trkpt lat="41.1184964" lon="9.534889"><ele>30.0</ele><time>2026-04-07T14:56:16.328Z</time></trkpt><trkpt lat="41.118361" lon="9.5349949"><ele>30.0</ele><time>2026-04-07T14:56:17.328Z</time></trkpt><trkpt lat="41.1182273" lon="9.5350905"><ele>30.0</ele><time>2026-04-07T14:56:18.328Z</time></trkpt><trkpt lat="41.1180993" lon="9.535187"><ele>31.25</ele><time>2026-04-07T14:56:19.328Z</time></trkpt><trkpt lat="41.1179788" lon="9.535281"><ele>32.5</ele><time>2026-04-07T14:56:20.327Z</time></trkpt><trkpt lat="41.1178569" lon="9.5353698"><ele>33.75</ele><time>2026-04-07T14:56:21.327Z</time></trkpt><trkpt lat="41.1177352" lon="9.5354549"><ele>35.0</ele><time>2026-04-07T14:56:22.328Z</time></trkpt><trkpt lat="41.1176051" lon="9.5355311"><ele>32.0</ele><time>2026-04-07T14:56:23.328Z</time></trkpt><trkpt lat="41.1174679" lon="9.5355913"><ele>29.0</ele><time>2026-04-07T14:56:24.328Z</time></trkpt><trkpt lat="41.1173252" lon="9.5356334"><ele>26.0</ele><time>2026-04-07T14:56:25.328Z</time></trkpt><trkpt lat="41.1171737" lon="9.5356525"><ele>23.0</ele><time>2026-04-07T14:56:26.328Z</time></trkpt><trkpt lat="41.117015" lon="9.535652"><ele>22.333333333333336</ele><time>2026-04-07T14:56:27.327Z</time></trkpt><trkpt lat="41.1168497" lon="9.5356373"><ele>21.666666666666668</ele><time>2026-04-07T14:56:28.328Z</time></trkpt><trkpt lat="41.1166879" lon="9.5356219"><ele>21.0</ele><time>2026-04-07T14:56:29.328Z</time></trkpt><trkpt lat="41.1165344" lon="9.5356059"><ele>22.333333333333336</ele><time>2026-04-07T14:56:30.327Z</time></trkpt><trkpt lat="41.116377" lon="9.5355827"><ele>23.666666666666668</ele><time>2026-04-07T14:56:31.328Z</time></trkpt><trkpt lat="41.1162167" lon="9.535559"><ele>25.0</ele><time>2026-04-07T14:56:32.328Z</time></trkpt><trkpt lat="41.1160568" lon="9.5355335"><ele>25.0</ele><time>2026-04-07T14:56:33.328Z</time></trkpt><trkpt lat="41.115889" lon="9.5355113"><ele>25.0</ele><time>2026-04-07T14:56:34.328Z</time></trkpt><trkpt lat="41.1157155" lon="9.5354903"><ele>25.0</ele><time>2026-04-07T14:56:35.327Z</time></trkpt><trkpt lat="41.1155384" lon="9.5354695"><ele>28.666666666666668</ele><time>2026-04-07T14:56:36.328Z</time></trkpt><trkpt lat="41.1153603" lon="9.5354466"><ele>32.333333333333336</ele><time>2026-04-07T14:56:37.327Z</time></trkpt><trkpt lat="41.1151806" lon="9.5354255"><ele>36.0</ele><time>2026-04-07T14:56:38.328Z</time></trkpt><trkpt lat="41.1149959" lon="9.5354025"><ele>38.333333333333336</ele><time>2026-04-07T14:56:39.328Z</time></trkpt><trkpt lat="41.1148157" lon="9.5353751"><ele>40.66666666666667</ele><time>2026-04-07T14:56:40.328Z</time></trkpt><trkpt lat="41.1146494" lon="9.5353433"><ele>43.0</ele><time>2026-04-07T14:56:41.328Z</time></trkpt><trkpt lat="41.1144949" lon="9.5353101"><ele>43.0</ele><time>2026-04-07T14:56:42.328Z</time></trkpt><trkpt lat="41.1143519" lon="9.5352711"><ele>43.0</ele><time>2026-04-07T14:56:43.327Z</time></trkpt><trkpt lat="41.1142229" lon="9.5352208"><ele>43.0</ele><time>2026-04-07T14:56:44.327Z</time></trkpt><trkpt lat="41.114097" lon="9.5351571"><ele>43.0</ele><time>2026-04-07T14:56:45.328Z</time></trkpt><trkpt lat="41.113966" lon="9.5350914"><ele>40.0</ele><time>2026-04-07T14:56:46.328Z</time></trkpt><trkpt lat="41.1138332" lon="9.535019"><ele>37.0</ele><time>2026-04-07T14:56:47.327Z</time></trkpt><trkpt lat="41.1136966" lon="9.5349484"><ele>34.0</ele><time>2026-04-07T14:56:48.327Z</time></trkpt><trkpt lat="41.1135567" lon="9.5348746"><ele>31.0</ele><time>2026-04-07T14:56:49.327Z</time></trkpt><trkpt lat="41.1134135" lon="9.5347955"><ele>31.0</ele><time>2026-04-07T14:56:50.328Z</time></trkpt><trkpt lat="41.1132779" lon="9.5347165"><ele>31.0</ele><time>2026-04-07T14:56:51.328Z</time></trkpt><trkpt lat="41.1131445" lon="9.5346398"><ele>31.0</ele><time>2026-04-07T14:56:52.327Z</time></trkpt><trkpt lat="41.1130189" lon="9.5345689"><ele>31.0</ele><time>2026-04-07T14:56:53.327Z</time></trkpt><trkpt lat="41.1128968" lon="9.5345033"><ele>31.5</ele><time>2026-04-07T14:56:54.327Z</time></trkpt><trkpt lat="41.1127779" lon="9.5344408"><ele>32.0</ele><time>2026-04-07T14:56:55.328Z</time></trkpt><trkpt lat="41.112666" lon="9.534377"><ele>32.5</ele><time>2026-04-07T14:56:56.327Z</time></trkpt><trkpt lat="41.1125515" lon="9.5343084"><ele>33.0</ele><time>2026-04-07T14:56:57.328Z</time></trkpt><trkpt lat="41.1124334" lon="9.5342385"><ele>31.75</ele><time>2026-04-07T14:56:58.328Z</time></trkpt><trkpt lat="41.1123106" lon="9.5341664"><ele>30.5</ele><time>2026-04-07T14:56:59.328Z</time></trkpt><trkpt lat="41.1121797" lon="9.5341"><ele>29.25</ele><time>2026-04-07T14:57:00.327Z</time></trkpt><trkpt lat="41.1120418" lon="9.5340433"><ele>28.0</ele><time>2026-04-07T14:57:01.328Z</time></trkpt><trkpt lat="41.1118904" lon="9.5340187"><ele>28.0</ele><time>2026-04-07T14:57:02.328Z</time></trkpt><trkpt lat="41.1117397" lon="9.5340192"><ele>28.0</ele><time>2026-04-07T14:57:03.328Z</time></trkpt><trkpt lat="41.111595" lon="9.5340467"><ele>28.0</ele><time>2026-04-07T14:57:04.328Z</time></trkpt><trkpt lat="41.1114608" lon="9.5340991"><ele>28.0</ele><time>2026-04-07T14:57:05.327Z</time></trkpt><trkpt lat="41.1113342" lon="9.53416"><ele>26.5</ele><time>2026-04-07T14:57:06.328Z</time></trkpt><trkpt lat="41.1112071" lon="9.5342154"><ele>25.0</ele><time>2026-04-07T14:57:07.327Z</time></trkpt><trkpt lat="41.1110725" lon="9.5342588"><ele>23.5</ele><time>2026-04-07T14:57:08.328Z</time></trkpt><trkpt lat="41.1109363" lon="9.5342921"><ele>22.0</ele><time>2026-04-07T14:57:09.327Z</time></trkpt><trkpt lat="41.1107935" lon="9.5343058"><ele>20.333333333333332</ele><time>2026-04-07T14:57:10.327Z</time></trkpt><trkpt lat="41.1106441" lon="9.5343055"><ele>18.666666666666668</ele><time>2026-04-07T14:57:11.328Z</time></trkpt><trkpt lat="41.1104869" lon="9.5342955"><ele>17.0</ele><time>2026-04-07T14:57:12.328Z</time></trkpt><trkpt lat="41.1103268" lon="9.5342758"><ele>17.0</ele><time>2026-04-07T14:57:13.328Z</time></trkpt><trkpt lat="41.1101672" lon="9.534239"><ele>17.0</ele><time>2026-04-07T14:57:14.328Z</time></trkpt><trkpt lat="41.110009" lon="9.5341783"><ele>17.0</ele><time>2026-04-07T14:57:15.328Z</time></trkpt><trkpt lat="41.1098621" lon="9.5340929"><ele>18.666666666666668</ele><time>2026-04-07T14:57:16.328Z</time></trkpt><trkpt lat="41.109725" lon="9.5340013"><ele>20.333333333333332</ele><time>2026-04-07T14:57:17.327Z</time></trkpt><trkpt lat="41.1095919" lon="9.5339072"><ele>22.0</ele><time>2026-04-07T14:57:18.327Z</time></trkpt><trkpt lat="41.1094617" lon="9.533816"><ele>22.0</ele><time>2026-04-07T14:57:19.327Z</time></trkpt><trkpt lat="41.1093312" lon="9.5337238"><ele>22.0</ele><time>2026-04-07T14:57:20.328Z</time></trkpt><trkpt lat="41.1092031" lon="9.5336382"><ele>22.0</ele><time>2026-04-07T14:57:21.328Z</time></trkpt><trkpt lat="41.1090764" lon="9.5335494"><ele>22.0</ele><time>2026-04-07T14:57:22.327Z</time></trkpt><trkpt lat="41.1089557" lon="9.5334626"><ele>22.25</ele><time>2026-04-07T14:57:23.328Z</time></trkpt><trkpt lat="41.1088435" lon="9.5333781"><ele>22.5</ele><time>2026-04-07T14:57:24.328Z</time></trkpt><trkpt lat="41.1087417" lon="9.5332918"><ele>22.75</ele><time>2026-04-07T14:57:25.328Z</time></trkpt><trkpt lat="41.1086478" lon="9.5332044"><ele>23.0</ele><time>2026-04-07T14:57:26.327Z</time></trkpt><trkpt lat="41.1085652" lon="9.5331232"><ele>23.0</ele><time>2026-04-07T14:57:27.328Z</time></trkpt><trkpt lat="41.1084858" lon="9.5330385"><ele>23.0</ele><time>2026-04-07T14:57:28.328Z</time></trkpt><trkpt lat="41.1084058" lon="9.532955"><ele>23.0</ele><time>2026-04-07T14:57:29.327Z</time></trkpt><trkpt lat="41.1083246" lon="9.532873"><ele>23.0</ele><time>2026-04-07T14:57:30.328Z</time></trkpt><trkpt lat="41.1082425" lon="9.532795"><ele>23.0</ele><time>2026-04-07T14:57:31.327Z</time></trkpt><trkpt lat="41.1081606" lon="9.5327181"><ele>24.4</ele><time>2026-04-07T14:57:32.328Z</time></trkpt><trkpt lat="41.1080761" lon="9.5326366"><ele>25.799999999999997</ele><time>2026-04-07T14:57:33.328Z</time></trkpt><trkpt lat="41.1079878" lon="9.5325527"><ele>27.2</ele><time>2026-04-07T14:57:34.328Z</time></trkpt><trkpt lat="41.1078944" lon="9.5324693"><ele>28.6</ele><time>2026-04-07T14:57:35.328Z</time></trkpt><trkpt lat="41.1077978" lon="9.532383"><ele>30.0</ele><time>2026-04-07T14:57:36.328Z</time></trkpt><trkpt lat="41.1076969" lon="9.532299"><ele>30.0</ele><time>2026-04-07T14:57:37.327Z</time></trkpt><trkpt lat="41.107596" lon="9.5322123"><ele>30.0</ele><time>2026-04-07T14:57:38.328Z</time></trkpt><trkpt lat="41.1074942" lon="9.5321209"><ele>30.0</ele><time>2026-04-07T14:57:39.328Z</time></trkpt><trkpt lat="41.1073929" lon="9.5320291"><ele>30.0</ele><time>2026-04-07T14:57:40.327Z</time></trkpt><trkpt lat="41.1072905" lon="9.5319338"><ele>31.25</ele><time>2026-04-07T14:57:41.328Z</time></trkpt><trkpt lat="41.1071874" lon="9.5318379"><ele>32.5</ele><time>2026-04-07T14:57:42.327Z</time></trkpt><trkpt lat="41.1070834" lon="9.5317391"><ele>33.75</ele><time>2026-04-07T14:57:43.327Z</time></trkpt><trkpt lat="41.1069823" lon="9.5316342"><ele>35.0</ele><time>2026-04-07T14:57:44.328Z</time></trkpt><trkpt lat="41.1068817" lon="9.5315271"><ele>35.0</ele><time>2026-04-07T14:57:45.328Z</time></trkpt><trkpt lat="41.1067774" lon="9.531415"><ele>35.0</ele><time>2026-04-07T14:57:46.328Z</time></trkpt><trkpt lat="41.1066736" lon="9.5312977"><ele>35.0</ele><time>2026-04-07T14:57:47.328Z</time></trkpt><trkpt lat="41.1065674" lon="9.5311797"><ele>35.0</ele><time>2026-04-07T14:57:48.327Z</time></trkpt><trkpt lat="41.1064574" lon="9.5310622"><ele>35.75</ele><time>2026-04-07T14:57:49.327Z</time></trkpt><trkpt lat="41.1063475" lon="9.5309405"><ele>36.5</ele><time>2026-04-07T14:57:50.328Z</time></trkpt><trkpt lat="41.1062362" lon="9.5308215"><ele>37.25</ele><time>2026-04-07T14:57:51.328Z</time></trkpt><trkpt lat="41.1061238" lon="9.5307011"><ele>38.0</ele><time>2026-04-07T14:57:52.328Z</time></trkpt><trkpt lat="41.1060174" lon="9.5305828"><ele>38.0</ele><time>2026-04-07T14:57:53.327Z</time></trkpt><trkpt lat="41.1059105" lon="9.5304594"><ele>38.0</ele><time>2026-04-07T14:57:54.328Z</time></trkpt><trkpt lat="41.1058067" lon="9.5303276"><ele>38.0</ele><time>2026-04-07T14:57:55.328Z</time></trkpt><trkpt lat="41.1057074" lon="9.5301954"><ele>38.0</ele><time>2026-04-07T14:57:56.328Z</time></trkpt><trkpt lat="41.1056115" lon="9.5300528"><ele>39.5</ele><time>2026-04-07T14:57:57.328Z</time></trkpt><trkpt lat="41.1055149" lon="9.5299028"><ele>41.0</ele><time>2026-04-07T14:57:58.328Z</time></trkpt><trkpt lat="41.1054191" lon="9.5297509"><ele>42.5</ele><time>2026-04-07T14:57:59.327Z</time></trkpt><trkpt lat="41.1053258" lon="9.529596"><ele>44.0</ele><time>2026-04-07T14:58:00.328Z</time></trkpt><trkpt lat="41.1052291" lon="9.5294423"><ele>45.666666666666664</ele><time>2026-04-07T14:58:01.328Z</time></trkpt><trkpt lat="41.1051339" lon="9.5292878"><ele>47.33333333333333</ele><time>2026-04-07T14:58:02.328Z</time></trkpt><trkpt lat="41.1050359" lon="9.5291336"><ele>49.0</ele><time>2026-04-07T14:58:03.328Z</time></trkpt><trkpt lat="41.1049409" lon="9.5289808"><ele>50.0</ele><time>2026-04-07T14:58:04.328Z</time></trkpt><trkpt lat="41.1048474" lon="9.5288268"><ele>51.0</ele><time>2026-04-07T14:58:05.328Z</time></trkpt><trkpt lat="41.1047544" lon="9.528669"><ele>52.0</ele><time>2026-04-07T14:58:06.327Z</time></trkpt><trkpt lat="41.1046579" lon="9.5285096"><ele>53.666666666666664</ele><time>2026-04-07T14:58:07.328Z</time></trkpt><trkpt lat="41.1045604" lon="9.5283484"><ele>55.33333333333333</ele><time>2026-04-07T14:58:08.328Z</time></trkpt><trkpt lat="41.1044598" lon="9.5281931"><ele>57.0</ele><time>2026-04-07T14:58:09.328Z</time></trkpt><trkpt lat="41.1043519" lon="9.528047"><ele>57.0</ele><time>2026-04-07T14:58:10.328Z</time></trkpt><trkpt lat="41.104237" lon="9.5279147"><ele>57.0</ele><time>2026-04-07T14:58:11.328Z</time></trkpt><trkpt lat="41.1041129" lon="9.5277911"><ele>57.0</ele><time>2026-04-07T14:58:12.328Z</time></trkpt><trkpt lat="41.1039848" lon="9.5276723"><ele>62.0</ele><time>2026-04-07T14:58:13.328Z</time></trkpt><trkpt lat="41.1038553" lon="9.5275621"><ele>67.0</ele><time>2026-04-07T14:58:14.328Z</time></trkpt><trkpt lat="41.1037266" lon="9.5274547"><ele>72.0</ele><time>2026-04-07T14:58:15.328Z</time></trkpt><trkpt lat="41.1036014" lon="9.5273514"><ele>72.0</ele><time>2026-04-07T14:58:16.328Z</time></trkpt><trkpt lat="41.1034836" lon="9.5272504"><ele>72.0</ele><time>2026-04-07T14:58:17.328Z</time></trkpt><trkpt lat="41.103366" lon="9.5271519"><ele>72.0</ele><time>2026-04-07T14:58:18.328Z</time></trkpt><trkpt lat="41.1032533" lon="9.5270556"><ele>72.0</ele><time>2026-04-07T14:58:19.328Z</time></trkpt><trkpt lat="41.1031425" lon="9.5269573"><ele>75.0</ele><time>2026-04-07T14:58:20.328Z</time></trkpt><trkpt lat="41.1030328" lon="9.5268633"><ele>78.0</ele><time>2026-04-07T14:58:21.327Z</time></trkpt><trkpt lat="41.1029266" lon="9.5267582"><ele>81.0</ele><time>2026-04-07T14:58:22.328Z</time></trkpt><trkpt lat="41.1028234" lon="9.5266443"><ele>84.0</ele><time>2026-04-07T14:58:23.327Z</time></trkpt><trkpt lat="41.1027246" lon="9.5265163"><ele>84.0</ele><time>2026-04-07T14:58:24.328Z</time></trkpt><trkpt lat="41.1026331" lon="9.5263884"><ele>84.0</ele><time>2026-04-07T14:58:25.328Z</time></trkpt><trkpt lat="41.1025515" lon="9.5262676"><ele>84.0</ele><time>2026-04-07T14:58:26.328Z</time></trkpt><trkpt lat="41.1024709" lon="9.5261447"><ele>84.0</ele><time>2026-04-07T14:58:27.327Z</time></trkpt><trkpt lat="41.1023937" lon="9.52602"><ele>87.2</ele><time>2026-04-07T14:58:28.327Z</time></trkpt><trkpt lat="41.10232" lon="9.5259055"><ele>90.4</ele><time>2026-04-07T14:58:29.328Z</time></trkpt><trkpt lat="41.1022557" lon="9.5258028"><ele>93.6</ele><time>2026-04-07T14:58:30.328Z</time></trkpt><trkpt lat="41.10219" lon="9.5256944"><ele>96.8</ele><time>2026-04-07T14:58:31.328Z</time></trkpt><trkpt lat="41.1021247" lon="9.5255885"><ele>100.0</ele><time>2026-04-07T14:58:32.328Z</time></trkpt><trkpt lat="41.1020533" lon="9.5254811"><ele>100.0</ele><time>2026-04-07T14:58:33.328Z</time></trkpt><trkpt lat="41.1019795" lon="9.5253712"><ele>100.0</ele><time>2026-04-07T14:58:34.327Z</time></trkpt><trkpt lat="41.1019055" lon="9.525259"><ele>100.0</ele><time>2026-04-07T14:58:35.328Z</time></trkpt><trkpt lat="41.1018322" lon="9.5251404"><ele>100.0</ele><time>2026-04-07T14:58:36.328Z</time></trkpt><trkpt lat="41.1017608" lon="9.5250235"><ele>100.0</ele><time>2026-04-07T14:58:37.327Z</time></trkpt><trkpt lat="41.1016871" lon="9.5249061"><ele>100.0</ele><time>2026-04-07T14:58:38.327Z</time></trkpt><trkpt lat="41.1016146" lon="9.5247868"><ele>100.0</ele><time>2026-04-07T14:58:39.327Z</time></trkpt><trkpt lat="41.1015397" lon="9.5246699"><ele>100.0</ele><time>2026-04-07T14:58:40.328Z</time></trkpt><trkpt lat="41.1014657" lon="9.5245541"><ele>101.2</ele><time>2026-04-07T14:58:41.327Z</time></trkpt><trkpt lat="41.1013902" lon="9.5244403"><ele>102.4</ele><time>2026-04-07T14:58:42.328Z</time></trkpt><trkpt lat="41.1013186" lon="9.5243308"><ele>103.6</ele><time>2026-04-07T14:58:43.328Z</time></trkpt><trkpt lat="41.101247" lon="9.5242213"><ele>104.8</ele><time>2026-04-07T14:58:44.328Z</time></trkpt><trkpt lat="41.1011769" lon="9.5241106"><ele>106.0</ele><time>2026-04-07T14:58:45.328Z</time></trkpt><trkpt lat="41.1011061" lon="9.5239984"><ele>106.0</ele><time>2026-04-07T14:58:46.328Z</time></trkpt><trkpt lat="41.1010409" lon="9.5238834"><ele>106.0</ele><time>2026-04-07T14:58:47.328Z</time></trkpt><trkpt lat="41.1009791" lon="9.5237634"><ele>106.0</ele><time>2026-04-07T14:58:48.327Z</time></trkpt><trkpt lat="41.1009152" lon="9.5236426"><ele>106.0</ele><time>2026-04-07T14:58:49.327Z</time></trkpt><trkpt lat="41.100849" lon="9.5235246"><ele>106.0</ele><time>2026-04-07T14:58:50.328Z</time></trkpt><trkpt lat="41.1007905" lon="9.5234034"><ele>106.4</ele><time>2026-04-07T14:58:51.327Z</time></trkpt><trkpt lat="41.1007313" lon="9.5232835"><ele>106.8</ele><time>2026-04-07T14:58:52.328Z</time></trkpt><trkpt lat="41.1006683" lon="9.5231658"><ele>107.20000000000002</ele><time>2026-04-07T14:58:53.327Z</time></trkpt><trkpt lat="41.100615" lon="9.5230561"><ele>107.60000000000001</ele><time>2026-04-07T14:58:54.328Z</time></trkpt><trkpt lat="41.1005756" lon="9.5229576"><ele>108.0</ele><time>2026-04-07T14:58:55.328Z</time></trkpt><trkpt lat="41.1005428" lon="9.5228687"><ele>108.0</ele><time>2026-04-07T14:58:56.328Z</time></trkpt><trkpt lat="41.1005127" lon="9.5227765"><ele>108.0</ele><time>2026-04-07T14:58:57.328Z</time></trkpt><trkpt lat="41.1004884" lon="9.5226841"><ele>108.0</ele><time>2026-04-07T14:58:58.328Z</time></trkpt><trkpt lat="41.1004689" lon="9.5225923"><ele>108.0</ele><time>2026-04-07T14:58:59.328Z</time></trkpt><trkpt lat="41.1004572" lon="9.5225031"><ele>108.0</ele><time>2026-04-07T14:59:00.328Z</time></trkpt><trkpt lat="41.1004574" lon="9.5223444"><ele>108.0</ele><time>2026-04-07T14:59:02.327Z</time></trkpt><trkpt lat="41.1004638" lon="9.5222503"><ele>108.0</ele><time>2026-04-07T14:59:03.327Z</time></trkpt><trkpt lat="41.1004661" lon="9.522144"><ele>108.0</ele><time>2026-04-07T14:59:04.327Z</time></trkpt><trkpt lat="41.1004512" lon="9.5220358"><ele>108.0</ele><time>2026-04-07T14:59:05.328Z</time></trkpt><trkpt lat="41.1004191" lon="9.5219395"><ele>108.0</ele><time>2026-04-07T14:59:06.328Z</time></trkpt><trkpt lat="41.100387" lon="9.5218605"><ele>108.0</ele><time>2026-04-07T14:59:07.328Z</time></trkpt><trkpt lat="41.1002982" lon="9.5217493"><ele>108.0</ele><time>2026-04-07T14:59:09.327Z</time></trkpt><trkpt lat="41.1002425" lon="9.5217071"><ele>108.25</ele><time>2026-04-07T14:59:10.328Z</time></trkpt><trkpt lat="41.1001343" lon="9.5216742"><ele>108.5</ele><time>2026-04-07T14:59:12.328Z</time></trkpt><trkpt lat="41.1000428" lon="9.5217195"><ele>108.75</ele><time>2026-04-07T14:59:14.327Z</time></trkpt><trkpt lat="41.0999669" lon="9.5218634"><ele>109.0</ele><time>2026-04-07T14:59:16.328Z</time></trkpt><trkpt lat="41.0999262" lon="9.5220052"><ele>108.66666666666667</ele><time>2026-04-07T14:59:17.328Z</time></trkpt><trkpt lat="41.0999086" lon="9.5221213"><ele>108.33333333333334</ele><time>2026-04-07T14:59:18.328Z</time></trkpt><trkpt lat="41.0998732" lon="9.5222373"><ele>108.0</ele><time>2026-04-07T14:59:19.328Z</time></trkpt><trkpt lat="41.0998305" lon="9.5223245"><ele>107.66666666666666</ele><time>2026-04-07T14:59:20.328Z</time></trkpt><trkpt lat="41.0997839" lon="9.5224"><ele>107.33333333333333</ele><time>2026-04-07T14:59:21.328Z</time></trkpt><trkpt lat="41.0997373" lon="9.5224727"><ele>107.0</ele><time>2026-04-07T14:59:22.328Z</time></trkpt><trkpt lat="41.0996853" lon="9.5225353"><ele>106.99999999999999</ele><time>2026-04-07T14:59:23.328Z</time></trkpt><trkpt lat="41.0996368" lon="9.5225971"><ele>107.0</ele><time>2026-04-07T14:59:24.327Z</time></trkpt><trkpt lat="41.0995832" lon="9.5226647"><ele>107.0</ele><time>2026-04-07T14:59:25.328Z</time></trkpt><trkpt lat="41.0995318" lon="9.522729"><ele>107.0</ele><time>2026-04-07T14:59:26.328Z</time></trkpt><trkpt lat="41.0994762" lon="9.5228025"><ele>106.99999999999999</ele><time>2026-04-07T14:59:27.328Z</time></trkpt><trkpt lat="41.0994193" lon="9.5228893"><ele>107.0</ele><time>2026-04-07T14:59:28.328Z</time></trkpt><trkpt lat="41.0993611" lon="9.5229812"><ele>107.19999999999999</ele><time>2026-04-07T14:59:29.327Z</time></trkpt><trkpt lat="41.0992968" lon="9.5230794"><ele>107.39999999999999</ele><time>2026-04-07T14:59:30.328Z</time></trkpt><trkpt lat="41.0992347" lon="9.5231862"><ele>107.60000000000001</ele><time>2026-04-07T14:59:31.328Z</time></trkpt><trkpt lat="41.0991713" lon="9.5233001"><ele>107.80000000000001</ele><time>2026-04-07T14:59:32.327Z</time></trkpt><trkpt lat="41.0991084" lon="9.5234213"><ele>108.0</ele><time>2026-04-07T14:59:33.327Z</time></trkpt><trkpt lat="41.0990435" lon="9.5235335"><ele>107.4</ele><time>2026-04-07T14:59:34.328Z</time></trkpt><trkpt lat="41.0989802" lon="9.5236475"><ele>106.80000000000001</ele><time>2026-04-07T14:59:35.327Z</time></trkpt><trkpt lat="41.0989137" lon="9.5237654"><ele>106.2</ele><time>2026-04-07T14:59:36.328Z</time></trkpt><trkpt lat="41.0988449" lon="9.5238834"><ele>105.6</ele><time>2026-04-07T14:59:37.328Z</time></trkpt><trkpt lat="41.0987745" lon="9.524005"><ele>105.0</ele><time>2026-04-07T14:59:38.328Z</time></trkpt><trkpt lat="41.0987061" lon="9.5241345"><ele>107.25</ele><time>2026-04-07T14:59:39.327Z</time></trkpt><trkpt lat="41.0986357" lon="9.5242626"><ele>109.5</ele><time>2026-04-07T14:59:40.328Z</time></trkpt><trkpt lat="41.0985626" lon="9.5243972"><ele>111.75</ele><time>2026-04-07T14:59:41.327Z</time></trkpt><trkpt lat="41.0984893" lon="9.5245305"><ele>114.0</ele><time>2026-04-07T14:59:42.327Z</time></trkpt><trkpt lat="41.0984213" lon="9.5246536"><ele>114.75</ele><time>2026-04-07T14:59:43.328Z</time></trkpt><trkpt lat="41.0983604" lon="9.5247787"><ele>115.5</ele><time>2026-04-07T14:59:44.328Z</time></trkpt><trkpt lat="41.0983062" lon="9.524909"><ele>116.25</ele><time>2026-04-07T14:59:45.327Z</time></trkpt><trkpt lat="41.0982541" lon="9.5250441"><ele>117.0</ele><time>2026-04-07T14:59:46.328Z</time></trkpt><trkpt lat="41.0982047" lon="9.5251814"><ele>117.25</ele><time>2026-04-07T14:59:47.328Z</time></trkpt><trkpt lat="41.0981566" lon="9.5253227"><ele>117.5</ele><time>2026-04-07T14:59:48.328Z</time></trkpt><trkpt lat="41.0981059" lon="9.5254646"><ele>117.75</ele><time>2026-04-07T14:59:49.328Z</time></trkpt><trkpt lat="41.0980565" lon="9.5256048"><ele>118.0</ele><time>2026-04-07T14:59:50.328Z</time></trkpt><trkpt lat="41.097997" lon="9.525738"><ele>118.25</ele><time>2026-04-07T14:59:51.327Z</time></trkpt><trkpt lat="41.0979332" lon="9.5258697"><ele>118.5</ele><time>2026-04-07T14:59:52.327Z</time></trkpt><trkpt lat="41.0978632" lon="9.5259977"><ele>118.75</ele><time>2026-04-07T14:59:53.328Z</time></trkpt><trkpt lat="41.0977933" lon="9.5261085"><ele>119.0</ele><time>2026-04-07T14:59:54.327Z</time></trkpt><trkpt lat="41.0977251" lon="9.5262132"><ele>119.4</ele><time>2026-04-07T14:59:55.328Z</time></trkpt><trkpt lat="41.0976489" lon="9.5263073"><ele>119.80000000000001</ele><time>2026-04-07T14:59:56.328Z</time></trkpt><trkpt lat="41.0975656" lon="9.5263886"><ele>120.19999999999999</ele><time>2026-04-07T14:59:57.328Z</time></trkpt><trkpt lat="41.0974737" lon="9.5264651"><ele>120.6</ele><time>2026-04-07T14:59:58.328Z</time></trkpt><trkpt lat="41.0973817" lon="9.5265254"><ele>121.0</ele><time>2026-04-07T14:59:59.328Z</time></trkpt><trkpt lat="41.097292" lon="9.5265858"><ele>119.0</ele><time>2026-04-07T15:00:00.328Z</time></trkpt><trkpt lat="41.0972007" lon="9.5266434"><ele>117.0</ele><time>2026-04-07T15:00:01.328Z</time></trkpt><trkpt lat="41.0971038" lon="9.5267"><ele>115.0</ele><time>2026-04-07T15:00:02.328Z</time></trkpt><trkpt lat="41.0970076" lon="9.5267578"><ele>113.0</ele><time>2026-04-07T15:00:03.328Z</time></trkpt><trkpt lat="41.0969098" lon="9.5268154"><ele>111.0</ele><time>2026-04-07T15:00:04.328Z</time></trkpt><trkpt lat="41.0968081" lon="9.5268783"><ele>111.0</ele><time>2026-04-07T15:00:05.328Z</time></trkpt><trkpt lat="41.0967038" lon="9.5269516"><ele>111.0</ele><time>2026-04-07T15:00:06.328Z</time></trkpt><trkpt lat="41.0965948" lon="9.5270606"><ele>111.0</ele><time>2026-04-07T15:00:07.328Z</time></trkpt><trkpt lat="41.0964908" lon="9.5272007"><ele>111.0</ele><time>2026-04-07T15:00:08.328Z</time></trkpt><trkpt lat="41.0964138" lon="9.5273582"><ele>109.0</ele><time>2026-04-07T15:00:09.328Z</time></trkpt><trkpt lat="41.0963498" lon="9.5275151"><ele>107.0</ele><time>2026-04-07T15:00:10.327Z</time></trkpt><trkpt lat="41.0962996" lon="9.5276682"><ele>105.0</ele><time>2026-04-07T15:00:11.327Z</time></trkpt><trkpt lat="41.0962517" lon="9.5278196"><ele>103.0</ele><time>2026-04-07T15:00:12.328Z</time></trkpt><trkpt lat="41.0962035" lon="9.5279691"><ele>101.60000000000001</ele><time>2026-04-07T15:00:13.328Z</time></trkpt><trkpt lat="41.0961507" lon="9.5281138"><ele>100.2</ele><time>2026-04-07T15:00:14.328Z</time></trkpt><trkpt lat="41.0960992" lon="9.5282471"><ele>98.8</ele><time>2026-04-07T15:00:15.327Z</time></trkpt><trkpt lat="41.0960469" lon="9.528369"><ele>97.4</ele><time>2026-04-07T15:00:16.328Z</time></trkpt><trkpt lat="41.0959842" lon="9.5284768"><ele>96.0</ele><time>2026-04-07T15:00:17.328Z</time></trkpt><trkpt lat="41.0959059" lon="9.5285694"><ele>96.0</ele><time>2026-04-07T15:00:18.328Z</time></trkpt><trkpt lat="41.0958134" lon="9.5286335"><ele>96.0</ele><time>2026-04-07T15:00:19.328Z</time></trkpt><trkpt lat="41.095707" lon="9.5286588"><ele>96.0</ele><time>2026-04-07T15:00:20.328Z</time></trkpt><trkpt lat="41.0955967" lon="9.5286605"><ele>96.0</ele><time>2026-04-07T15:00:21.328Z</time></trkpt><trkpt lat="41.0954888" lon="9.5286528"><ele>96.0</ele><time>2026-04-07T15:00:22.327Z</time></trkpt><trkpt lat="41.0953801" lon="9.5286574"><ele>94.0</ele><time>2026-04-07T15:00:23.327Z</time></trkpt><trkpt lat="41.0952786" lon="9.528679"><ele>92.0</ele><time>2026-04-07T15:00:24.328Z</time></trkpt><trkpt lat="41.0951808" lon="9.5287225"><ele>90.0</ele><time>2026-04-07T15:00:25.328Z</time></trkpt><trkpt lat="41.0950973" lon="9.5287838"><ele>88.0</ele><time>2026-04-07T15:00:26.328Z</time></trkpt><trkpt lat="41.0950264" lon="9.5288596"><ele>86.0</ele><time>2026-04-07T15:00:27.328Z</time></trkpt><trkpt lat="41.0949615" lon="9.5289334"><ele>83.66666666666667</ele><time>2026-04-07T15:00:28.328Z</time></trkpt><trkpt lat="41.0948906" lon="9.529004"><ele>81.33333333333334</ele><time>2026-04-07T15:00:29.328Z</time></trkpt><trkpt lat="41.0948094" lon="9.5290492"><ele>79.0</ele><time>2026-04-07T15:00:30.328Z</time></trkpt><trkpt lat="41.0947235" lon="9.5290396"><ele>76.66666666666667</ele><time>2026-04-07T15:00:31.328Z</time></trkpt><trkpt lat="41.0946589" lon="9.5289799"><ele>74.33333333333333</ele><time>2026-04-07T15:00:32.328Z</time></trkpt><trkpt lat="41.0946197" lon="9.5288946"><ele>72.0</ele><time>2026-04-07T15:00:33.328Z</time></trkpt><trkpt lat="41.0945853" lon="9.5288001"><ele>72.0</ele><time>2026-04-07T15:00:34.328Z</time></trkpt><trkpt lat="41.094534" lon="9.528712"><ele>72.0</ele><time>2026-04-07T15:00:35.328Z</time></trkpt><trkpt lat="41.094462" lon="9.5286572"><ele>72.0</ele><time>2026-04-07T15:00:36.327Z</time></trkpt><trkpt lat="41.0943841" lon="9.5286515"><ele>72.0</ele><time>2026-04-07T15:00:37.328Z</time></trkpt><trkpt lat="41.0943085" lon="9.5286875"><ele>72.0</ele><time>2026-04-07T15:00:38.327Z</time></trkpt><trkpt lat="41.094248" lon="9.5287578"><ele>72.0</ele><time>2026-04-07T15:00:39.328Z</time></trkpt><trkpt lat="41.0942166" lon="9.5288589"><ele>72.0</ele><time>2026-04-07T15:00:40.327Z</time></trkpt><trkpt lat="41.0942283" lon="9.5289644"><ele>72.0</ele><time>2026-04-07T15:00:41.328Z</time></trkpt><trkpt lat="41.0942701" lon="9.5290559"><ele>72.0</ele><time>2026-04-07T15:00:42.328Z</time></trkpt><trkpt lat="41.0943324" lon="9.5291159"><ele>72.0</ele><time>2026-04-07T15:00:43.328Z</time></trkpt><trkpt lat="41.0943973" lon="9.5291611"><ele>72.0</ele><time>2026-04-07T15:00:44.328Z</time></trkpt><trkpt lat="41.09446" lon="9.5292156"><ele>72.0</ele><time>2026-04-07T15:00:45.328Z</time></trkpt><trkpt lat="41.0945052" lon="9.5292893"><ele>72.0</ele><time>2026-04-07T15:00:46.328Z</time></trkpt><trkpt lat="41.0945202" lon="9.5293828"><ele>72.0</ele><time>2026-04-07T15:00:47.328Z</time></trkpt><trkpt lat="41.0945049" lon="9.5294951"><ele>72.0</ele><time>2026-04-07T15:00:48.328Z</time></trkpt><trkpt lat="41.0944634" lon="9.5296016"><ele>72.0</ele><time>2026-04-07T15:00:49.328Z</time></trkpt><trkpt lat="41.0944043" lon="9.5297059"><ele>72.0</ele><time>2026-04-07T15:00:50.327Z</time></trkpt><trkpt lat="41.0943272" lon="9.5297922"><ele>72.0</ele><time>2026-04-07T15:00:51.328Z</time></trkpt><trkpt lat="41.0942362" lon="9.5298428"><ele>71.0</ele><time>2026-04-07T15:00:52.328Z</time></trkpt><trkpt lat="41.0941422" lon="9.5298641"><ele>70.0</ele><time>2026-04-07T15:00:53.327Z</time></trkpt><trkpt lat="41.0940441" lon="9.529869"><ele>69.0</ele><time>2026-04-07T15:00:54.328Z</time></trkpt><trkpt lat="41.0939445" lon="9.5298634"><ele>68.0</ele><time>2026-04-07T15:00:55.328Z</time></trkpt><trkpt lat="41.0938418" lon="9.5298433"><ele>67.0</ele><time>2026-04-07T15:00:56.328Z</time></trkpt><trkpt lat="41.0937448" lon="9.5297959"><ele>65.4</ele><time>2026-04-07T15:00:57.328Z</time></trkpt><trkpt lat="41.0936592" lon="9.5297204"><ele>63.800000000000004</ele><time>2026-04-07T15:00:58.328Z</time></trkpt><trkpt lat="41.0935825" lon="9.5296225"><ele>62.2</ele><time>2026-04-07T15:00:59.328Z</time></trkpt><trkpt lat="41.0935103" lon="9.5295252"><ele>60.6</ele><time>2026-04-07T15:01:00.328Z</time></trkpt><trkpt lat="41.0934569" lon="9.5294233"><ele>59.0</ele><time>2026-04-07T15:01:01.327Z</time></trkpt><trkpt lat="41.0934152" lon="9.5293162"><ele>59.00000000000001</ele><time>2026-04-07T15:01:02.327Z</time></trkpt><trkpt lat="41.093385" lon="9.5292093"><ele>59.0</ele><time>2026-04-07T15:01:03.327Z</time></trkpt><trkpt lat="41.0933396" lon="9.5291128"><ele>59.0</ele><time>2026-04-07T15:01:04.328Z</time></trkpt><trkpt lat="41.093276" lon="9.5290398"><ele>59.0</ele><time>2026-04-07T15:01:05.328Z</time></trkpt><trkpt lat="41.0931945" lon="9.5290091"><ele>59.00000000000001</ele><time>2026-04-07T15:01:06.328Z</time></trkpt><trkpt lat="41.0931093" lon="9.5290312"><ele>59.0</ele><time>2026-04-07T15:01:07.327Z</time></trkpt><trkpt lat="41.0930465" lon="9.5291039"><ele>56.400000000000006</ele><time>2026-04-07T15:01:08.328Z</time></trkpt><trkpt lat="41.0930121" lon="9.5292093"><ele>53.800000000000004</ele><time>2026-04-07T15:01:09.328Z</time></trkpt><trkpt lat="41.093023" lon="9.5293244"><ele>51.2</ele><time>2026-04-07T15:01:10.328Z</time></trkpt><trkpt lat="41.0930642" lon="9.5294381"><ele>48.599999999999994</ele><time>2026-04-07T15:01:11.327Z</time></trkpt><trkpt lat="41.0931031" lon="9.5295569"><ele>46.0</ele><time>2026-04-07T15:01:12.328Z</time></trkpt><trkpt lat="41.093102" lon="9.5296927"><ele>45.8</ele><time>2026-04-07T15:01:13.328Z</time></trkpt><trkpt lat="41.093063" lon="9.5298119"><ele>45.599999999999994</ele><time>2026-04-07T15:01:14.328Z</time></trkpt><trkpt lat="41.0929963" lon="9.529912"><ele>45.4</ele><time>2026-04-07T15:01:15.327Z</time></trkpt><trkpt lat="41.0929216" lon="9.5300069"><ele>45.2</ele><time>2026-04-07T15:01:16.328Z</time></trkpt><trkpt lat="41.092839" lon="9.5300987"><ele>45.0</ele><time>2026-04-07T15:01:17.328Z</time></trkpt><trkpt lat="41.0927413" lon="9.5301862"><ele>45.0</ele><time>2026-04-07T15:01:18.328Z</time></trkpt><trkpt lat="41.0926281" lon="9.530251"><ele>45.0</ele><time>2026-04-07T15:01:19.328Z</time></trkpt><trkpt lat="41.0925091" lon="9.5303124"><ele>45.0</ele><time>2026-04-07T15:01:20.328Z</time></trkpt><trkpt lat="41.0923844" lon="9.5303758"><ele>45.0</ele><time>2026-04-07T15:01:21.328Z</time></trkpt><trkpt lat="41.0922569" lon="9.5304438"><ele>45.25</ele><time>2026-04-07T15:01:22.328Z</time></trkpt><trkpt lat="41.0921269" lon="9.5305145"><ele>45.5</ele><time>2026-04-07T15:01:23.328Z</time></trkpt><trkpt lat="41.0920043" lon="9.5305775"><ele>45.75</ele><time>2026-04-07T15:01:24.328Z</time></trkpt><trkpt lat="41.0918751" lon="9.5306277"><ele>46.0</ele><time>2026-04-07T15:01:25.328Z</time></trkpt><trkpt lat="41.0917521" lon="9.5306583"><ele>46.0</ele><time>2026-04-07T15:01:26.328Z</time></trkpt><trkpt lat="41.0916322" lon="9.5306755"><ele>46.0</ele><time>2026-04-07T15:01:27.328Z</time></trkpt><trkpt lat="41.0915063" lon="9.5306786"><ele>46.0</ele><time>2026-04-07T15:01:28.328Z</time></trkpt><trkpt lat="41.091372" lon="9.5306587"><ele>46.0</ele><time>2026-04-07T15:01:29.327Z</time></trkpt><trkpt lat="41.0912326" lon="9.5306185"><ele>46.0</ele><time>2026-04-07T15:01:30.327Z</time></trkpt><trkpt lat="41.0910788" lon="9.5305673"><ele>46.0</ele><time>2026-04-07T15:01:31.328Z</time></trkpt><trkpt lat="41.0909109" lon="9.530503"><ele>46.0</ele><time>2026-04-07T15:01:32.328Z</time></trkpt><trkpt lat="41.0907298" lon="9.530442"><ele>43.0</ele><time>2026-04-07T15:01:33.328Z</time></trkpt><trkpt lat="41.0905352" lon="9.5303726"><ele>40.0</ele><time>2026-04-07T15:01:34.328Z</time></trkpt><trkpt lat="41.0903332" lon="9.5303015"><ele>37.0</ele><time>2026-04-07T15:01:35.328Z</time></trkpt><trkpt lat="41.0901265" lon="9.5302314"><ele>37.333333333333336</ele><time>2026-04-07T15:01:36.327Z</time></trkpt><trkpt lat="41.0899203" lon="9.5301585"><ele>37.666666666666664</ele><time>2026-04-07T15:01:37.328Z</time></trkpt><trkpt lat="41.0897193" lon="9.5300862"><ele>38.0</ele><time>2026-04-07T15:01:38.328Z</time></trkpt><trkpt lat="41.0895225" lon="9.5300164"><ele>38.0</ele><time>2026-04-07T15:01:39.328Z</time></trkpt><trkpt lat="41.0893283" lon="9.5299453"><ele>38.0</ele><time>2026-04-07T15:01:40.328Z</time></trkpt><trkpt lat="41.089139" lon="9.5298754"><ele>38.0</ele><time>2026-04-07T15:01:41.328Z</time></trkpt><trkpt lat="41.0889488" lon="9.5298093"><ele>37.0</ele><time>2026-04-07T15:01:42.328Z</time></trkpt><trkpt lat="41.088759" lon="9.5297388"><ele>36.0</ele><time>2026-04-07T15:01:43.327Z</time></trkpt><trkpt lat="41.0885714" lon="9.5296709"><ele>35.0</ele><time>2026-04-07T15:01:44.327Z</time></trkpt><trkpt lat="41.0883828" lon="9.5295999"><ele>39.666666666666664</ele><time>2026-04-07T15:01:45.328Z</time></trkpt><trkpt lat="41.0881977" lon="9.5295189"><ele>44.33333333333333</ele><time>2026-04-07T15:01:46.327Z</time></trkpt><trkpt lat="41.0880159" lon="9.5294194"><ele>49.0</ele><time>2026-04-07T15:01:47.327Z</time></trkpt><trkpt lat="41.0878333" lon="9.5292958"><ele>49.0</ele><time>2026-04-07T15:01:48.328Z</time></trkpt><trkpt lat="41.0876512" lon="9.5291652"><ele>49.0</ele><time>2026-04-07T15:01:49.328Z</time></trkpt><trkpt lat="41.0874721" lon="9.5290269"><ele>49.0</ele><time>2026-04-07T15:01:50.328Z</time></trkpt><trkpt lat="41.0873039" lon="9.5288795"><ele>50.0</ele><time>2026-04-07T15:01:51.327Z</time></trkpt><trkpt lat="41.0871565" lon="9.5287091"><ele>51.0</ele><time>2026-04-07T15:01:52.328Z</time></trkpt><trkpt lat="41.0870312" lon="9.528507"><ele>52.0</ele><time>2026-04-07T15:01:53.328Z</time></trkpt><trkpt lat="41.0869327" lon="9.5282793"><ele>52.0</ele><time>2026-04-07T15:01:54.328Z</time></trkpt><trkpt lat="41.0868483" lon="9.5280448"><ele>52.0</ele><time>2026-04-07T15:01:55.328Z</time></trkpt><trkpt lat="41.0867562" lon="9.5278073"><ele>52.0</ele><time>2026-04-07T15:01:56.328Z</time></trkpt><trkpt lat="41.0866728" lon="9.5275641"><ele>52.0</ele><time>2026-04-07T15:01:57.327Z</time></trkpt><trkpt lat="41.0865915" lon="9.5273275"><ele>52.0</ele><time>2026-04-07T15:01:58.328Z</time></trkpt><trkpt lat="41.0865114" lon="9.5270967"><ele>52.0</ele><time>2026-04-07T15:01:59.327Z</time></trkpt><trkpt lat="41.0864324" lon="9.5268703"><ele>53.666666666666664</ele><time>2026-04-07T15:02:00.328Z</time></trkpt><trkpt lat="41.086356" lon="9.5266542"><ele>55.33333333333333</ele><time>2026-04-07T15:02:01.327Z</time></trkpt><trkpt lat="41.0862831" lon="9.5264426"><ele>57.0</ele><time>2026-04-07T15:02:02.327Z</time></trkpt><trkpt lat="41.0862056" lon="9.5262349"><ele>59.33333333333333</ele><time>2026-04-07T15:02:03.328Z</time></trkpt><trkpt lat="41.0861104" lon="9.5260469"><ele>61.666666666666664</ele><time>2026-04-07T15:02:04.327Z</time></trkpt><trkpt lat="41.0859985" lon="9.5258916"><ele>64.0</ele><time>2026-04-07T15:02:05.328Z</time></trkpt><trkpt lat="41.0858702" lon="9.5257683"><ele>65.0</ele><time>2026-04-07T15:02:06.327Z</time></trkpt><trkpt lat="41.0857382" lon="9.5256771"><ele>66.0</ele><time>2026-04-07T15:02:07.328Z</time></trkpt><trkpt lat="41.0855946" lon="9.5256134"><ele>67.0</ele><time>2026-04-07T15:02:08.328Z</time></trkpt><trkpt lat="41.0854499" lon="9.525565"><ele>68.0</ele><time>2026-04-07T15:02:09.328Z</time></trkpt><trkpt lat="41.0853001" lon="9.5255172"><ele>68.0</ele><time>2026-04-07T15:02:10.327Z</time></trkpt><trkpt lat="41.0851444" lon="9.5254632"><ele>68.0</ele><time>2026-04-07T15:02:11.328Z</time></trkpt><trkpt lat="41.0849852" lon="9.5254159"><ele>68.0</ele><time>2026-04-07T15:02:12.328Z</time></trkpt><trkpt lat="41.0848237" lon="9.5253745"><ele>69.5</ele><time>2026-04-07T15:02:13.327Z</time></trkpt><trkpt lat="41.0846723" lon="9.5253289"><ele>71.0</ele><time>2026-04-07T15:02:14.328Z</time></trkpt><trkpt lat="41.0845258" lon="9.5252872"><ele>72.5</ele><time>2026-04-07T15:02:15.328Z</time></trkpt><trkpt lat="41.0843867" lon="9.5252468"><ele>74.0</ele><time>2026-04-07T15:02:16.328Z</time></trkpt><trkpt lat="41.0842527" lon="9.5251959"><ele>74.0</ele><time>2026-04-07T15:02:17.328Z</time></trkpt><trkpt lat="41.0841183" lon="9.525128"><ele>74.0</ele><time>2026-04-07T15:02:18.327Z</time></trkpt><trkpt lat="41.0839905" lon="9.5250328"><ele>74.0</ele><time>2026-04-07T15:02:19.327Z</time></trkpt><trkpt lat="41.0838682" lon="9.5249068"><ele>74.0</ele><time>2026-04-07T15:02:20.327Z</time></trkpt><trkpt lat="41.0837524" lon="9.5247626"><ele>74.33333333333334</ele><time>2026-04-07T15:02:21.328Z</time></trkpt><trkpt lat="41.0836384" lon="9.5246043"><ele>74.66666666666667</ele><time>2026-04-07T15:02:22.328Z</time></trkpt><trkpt lat="41.0835224" lon="9.5244376"><ele>75.0</ele><time>2026-04-07T15:02:23.328Z</time></trkpt><trkpt lat="41.083405" lon="9.5242656"><ele>76.33333333333333</ele><time>2026-04-07T15:02:24.328Z</time></trkpt><trkpt lat="41.0832983" lon="9.5240855"><ele>77.66666666666666</ele><time>2026-04-07T15:02:25.328Z</time></trkpt><trkpt lat="41.0831965" lon="9.5238944"><ele>79.0</ele><time>2026-04-07T15:02:26.328Z</time></trkpt><trkpt lat="41.0831049" lon="9.5236937"><ele>80.66666666666666</ele><time>2026-04-07T15:02:27.327Z</time></trkpt><trkpt lat="41.0830145" lon="9.5234903"><ele>82.33333333333333</ele><time>2026-04-07T15:02:28.327Z</time></trkpt><trkpt lat="41.0829247" lon="9.523302"><ele>84.0</ele><time>2026-04-07T15:02:29.328Z</time></trkpt><trkpt lat="41.0828371" lon="9.523135"><ele>84.0</ele><time>2026-04-07T15:02:30.328Z</time></trkpt><trkpt lat="41.0827367" lon="9.5229903"><ele>84.0</ele><time>2026-04-07T15:02:31.328Z</time></trkpt><trkpt lat="41.0826165" lon="9.5228636"><ele>84.0</ele><time>2026-04-07T15:02:32.328Z</time></trkpt><trkpt lat="41.0824818" lon="9.5227498"><ele>85.33333333333333</ele><time>2026-04-07T15:02:33.328Z</time></trkpt><trkpt lat="41.0823369" lon="9.522645"><ele>86.66666666666666</ele><time>2026-04-07T15:02:34.328Z</time></trkpt><trkpt lat="41.0821856" lon="9.5225358"><ele>88.0</ele><time>2026-04-07T15:02:35.328Z</time></trkpt><trkpt lat="41.082028" lon="9.5224233"><ele>88.0</ele><time>2026-04-07T15:02:36.327Z</time></trkpt><trkpt lat="41.0818631" lon="9.5223173"><ele>88.0</ele><time>2026-04-07T15:02:37.327Z</time></trkpt><trkpt lat="41.0817035" lon="9.5222257"><ele>88.0</ele><time>2026-04-07T15:02:38.328Z</time></trkpt><trkpt lat="41.0815509" lon="9.522163"><ele>88.33333333333333</ele><time>2026-04-07T15:02:39.327Z</time></trkpt><trkpt lat="41.0813933" lon="9.5221101"><ele>88.66666666666667</ele><time>2026-04-07T15:02:40.328Z</time></trkpt><trkpt lat="41.0812353" lon="9.5220636"><ele>89.0</ele><time>2026-04-07T15:02:41.328Z</time></trkpt><trkpt lat="41.0810769" lon="9.5220112"><ele>90.66666666666667</ele><time>2026-04-07T15:02:42.328Z</time></trkpt><trkpt lat="41.0809238" lon="9.5219439"><ele>92.33333333333333</ele><time>2026-04-07T15:02:43.328Z</time></trkpt><trkpt lat="41.08078" lon="9.5218495"><ele>94.0</ele><time>2026-04-07T15:02:44.328Z</time></trkpt><trkpt lat="41.0806476" lon="9.5217297"><ele>94.0</ele><time>2026-04-07T15:02:45.328Z</time></trkpt><trkpt lat="41.0805242" lon="9.5215819"><ele>94.0</ele><time>2026-04-07T15:02:46.328Z</time></trkpt><trkpt lat="41.0804157" lon="9.5214132"><ele>94.0</ele><time>2026-04-07T15:02:47.327Z</time></trkpt><trkpt lat="41.0803205" lon="9.521229"><ele>97.0</ele><time>2026-04-07T15:02:48.328Z</time></trkpt><trkpt lat="41.080236" lon="9.5210546"><ele>100.0</ele><time>2026-04-07T15:02:49.328Z</time></trkpt><trkpt lat="41.0801473" lon="9.5208833"><ele>103.0</ele><time>2026-04-07T15:02:50.328Z</time></trkpt><trkpt lat="41.0800475" lon="9.5207132"><ele>103.0</ele><time>2026-04-07T15:02:51.328Z</time></trkpt><trkpt lat="41.0799357" lon="9.5205531"><ele>103.0</ele><time>2026-04-07T15:02:52.328Z</time></trkpt><trkpt lat="41.0798038" lon="9.5204112"><ele>103.0</ele><time>2026-04-07T15:02:53.328Z</time></trkpt><trkpt lat="41.0796515" lon="9.520292"><ele>104.0</ele><time>2026-04-07T15:02:54.327Z</time></trkpt><trkpt lat="41.0794795" lon="9.5201816"><ele>105.0</ele><time>2026-04-07T15:02:55.327Z</time></trkpt><trkpt lat="41.079288" lon="9.5200719"><ele>106.0</ele><time>2026-04-07T15:02:56.328Z</time></trkpt><trkpt lat="41.0790763" lon="9.5199523"><ele>106.0</ele><time>2026-04-07T15:02:57.328Z</time></trkpt><trkpt lat="41.0788498" lon="9.5198208"><ele>106.0</ele><time>2026-04-07T15:02:58.328Z</time></trkpt><trkpt lat="41.0786172" lon="9.5196818"><ele>105.5</ele><time>2026-04-07T15:02:59.328Z</time></trkpt><trkpt lat="41.0783771" lon="9.5195245"><ele>105.0</ele><time>2026-04-07T15:03:00.327Z</time></trkpt><trkpt lat="41.0781438" lon="9.5193702"><ele>105.0</ele><time>2026-04-07T15:03:01.328Z</time></trkpt><trkpt lat="41.0779161" lon="9.519233"><ele>105.0</ele><time>2026-04-07T15:03:02.328Z</time></trkpt><trkpt lat="41.0777032" lon="9.5191009"><ele>105.0</ele><time>2026-04-07T15:03:03.328Z</time></trkpt><trkpt lat="41.0774971" lon="9.5189804"><ele>105.0</ele><time>2026-04-07T15:03:04.328Z</time></trkpt><trkpt lat="41.0773045" lon="9.518864"><ele>105.0</ele><time>2026-04-07T15:03:05.328Z</time></trkpt><trkpt lat="41.0771207" lon="9.5187528"><ele>109.66666666666666</ele><time>2026-04-07T15:03:06.327Z</time></trkpt><trkpt lat="41.0769383" lon="9.5186428"><ele>114.33333333333333</ele><time>2026-04-07T15:03:07.328Z</time></trkpt><trkpt lat="41.076764" lon="9.5185343"><ele>119.0</ele><time>2026-04-07T15:03:08.328Z</time></trkpt><trkpt lat="41.0766048" lon="9.5184325"><ele>112.66666666666666</ele><time>2026-04-07T15:03:09.328Z</time></trkpt><trkpt lat="41.0764648" lon="9.5183254"><ele>106.33333333333334</ele><time>2026-04-07T15:03:10.328Z</time></trkpt><trkpt lat="41.0763407" lon="9.518207"><ele>100.0</ele><time>2026-04-07T15:03:11.328Z</time></trkpt><trkpt lat="41.0762417" lon="9.5180719"><ele>100.0</ele><time>2026-04-07T15:03:12.327Z</time></trkpt><trkpt lat="41.0761647" lon="9.517932"><ele>100.0</ele><time>2026-04-07T15:03:13.328Z</time></trkpt><trkpt lat="41.0761129" lon="9.5177911"><ele>100.0</ele><time>2026-04-07T15:03:14.327Z</time></trkpt><trkpt lat="41.0760695" lon="9.5176371"><ele>100.0</ele><time>2026-04-07T15:03:15.327Z</time></trkpt><trkpt lat="41.0760329" lon="9.5174789"><ele>105.0</ele><time>2026-04-07T15:03:16.327Z</time></trkpt><trkpt lat="41.075989" lon="9.5172971"><ele>110.0</ele><time>2026-04-07T15:03:17.328Z</time></trkpt><trkpt lat="41.075942" lon="9.5170993"><ele>115.0</ele><time>2026-04-07T15:03:18.327Z</time></trkpt><trkpt lat="41.0758958" lon="9.5168869"><ele>117.0</ele><time>2026-04-07T15:03:19.328Z</time></trkpt><trkpt lat="41.0758499" lon="9.5166664"><ele>119.0</ele><time>2026-04-07T15:03:20.327Z</time></trkpt><trkpt lat="41.0757997" lon="9.51644"><ele>121.0</ele><time>2026-04-07T15:03:21.328Z</time></trkpt><trkpt lat="41.075754" lon="9.5162085"><ele>112.33333333333334</ele><time>2026-04-07T15:03:22.328Z</time></trkpt><trkpt lat="41.0757216" lon="9.5159765"><ele>103.66666666666667</ele><time>2026-04-07T15:03:23.328Z</time></trkpt><trkpt lat="41.075698" lon="9.5157396"><ele>95.0</ele><time>2026-04-07T15:03:24.328Z</time></trkpt><trkpt lat="41.0756759" lon="9.5155076"><ele>95.33333333333334</ele><time>2026-04-07T15:03:25.328Z</time></trkpt><trkpt lat="41.0756498" lon="9.5152826"><ele>95.66666666666667</ele><time>2026-04-07T15:03:26.328Z</time></trkpt><trkpt lat="41.0756255" lon="9.5150514"><ele>96.0</ele><time>2026-04-07T15:03:27.328Z</time></trkpt><trkpt lat="41.0756099" lon="9.514814"><ele>96.0</ele><time>2026-04-07T15:03:28.328Z</time></trkpt><trkpt lat="41.0756113" lon="9.5145722"><ele>96.0</ele><time>2026-04-07T15:03:29.327Z</time></trkpt><trkpt lat="41.0756344" lon="9.5143233"><ele>96.0</ele><time>2026-04-07T15:03:30.327Z</time></trkpt><trkpt lat="41.0756687" lon="9.514073"><ele>95.0</ele><time>2026-04-07T15:03:31.328Z</time></trkpt><trkpt lat="41.0757019" lon="9.5138062"><ele>94.0</ele><time>2026-04-07T15:03:32.328Z</time></trkpt><trkpt lat="41.0757296" lon="9.5135371"><ele>93.0</ele><time>2026-04-07T15:03:33.328Z</time></trkpt><trkpt lat="41.0757613" lon="9.5132674"><ele>98.66666666666666</ele><time>2026-04-07T15:03:34.328Z</time></trkpt><trkpt lat="41.0757903" lon="9.5129921"><ele>104.33333333333333</ele><time>2026-04-07T15:03:35.328Z</time></trkpt><trkpt lat="41.0758202" lon="9.5127242"><ele>110.0</ele><time>2026-04-07T15:03:36.328Z</time></trkpt><trkpt lat="41.0758441" lon="9.5124661"><ele>110.0</ele><time>2026-04-07T15:03:37.328Z</time></trkpt><trkpt lat="41.0758593" lon="9.5122135"><ele>110.0</ele><time>2026-04-07T15:03:38.327Z</time></trkpt><trkpt lat="41.0758744" lon="9.511966"><ele>110.0</ele><time>2026-04-07T15:03:39.328Z</time></trkpt><trkpt lat="41.075889" lon="9.5117259"><ele>109.0</ele><time>2026-04-07T15:03:40.328Z</time></trkpt><trkpt lat="41.0759018" lon="9.5114951"><ele>108.0</ele><time>2026-04-07T15:03:41.328Z</time></trkpt><trkpt lat="41.0759158" lon="9.5112693"><ele>107.0</ele><time>2026-04-07T15:03:42.327Z</time></trkpt><trkpt lat="41.0759302" lon="9.5110399"><ele>105.66666666666666</ele><time>2026-04-07T15:03:43.328Z</time></trkpt><trkpt lat="41.0759411" lon="9.5108083"><ele>104.33333333333334</ele><time>2026-04-07T15:03:44.328Z</time></trkpt><trkpt lat="41.0759505" lon="9.5105796"><ele>103.0</ele><time>2026-04-07T15:03:45.327Z</time></trkpt><trkpt lat="41.0759445" lon="9.5103645"><ele>102.33333333333334</ele><time>2026-04-07T15:03:46.328Z</time></trkpt><trkpt lat="41.0759151" lon="9.5101571"><ele>101.66666666666666</ele><time>2026-04-07T15:03:47.328Z</time></trkpt><trkpt lat="41.0758629" lon="9.5099618"><ele>101.0</ele><time>2026-04-07T15:03:48.328Z</time></trkpt><trkpt lat="41.0757847" lon="9.5097879"><ele>101.33333333333333</ele><time>2026-04-07T15:03:49.328Z</time></trkpt><trkpt lat="41.0756865" lon="9.5096322"><ele>101.66666666666666</ele><time>2026-04-07T15:03:50.328Z</time></trkpt><trkpt lat="41.0755649" lon="9.5095003"><ele>102.0</ele><time>2026-04-07T15:03:51.328Z</time></trkpt><trkpt lat="41.0754234" lon="9.5093937"><ele>102.0</ele><time>2026-04-07T15:03:52.328Z</time></trkpt><trkpt lat="41.0752635" lon="9.5093225"><ele>102.0</ele><time>2026-04-07T15:03:53.328Z</time></trkpt><trkpt lat="41.0750883" lon="9.5092873"><ele>102.0</ele><time>2026-04-07T15:03:54.328Z</time></trkpt><trkpt lat="41.0748962" lon="9.5092864"><ele>102.0</ele><time>2026-04-07T15:03:55.328Z</time></trkpt><trkpt lat="41.0746978" lon="9.5093138"><ele>102.0</ele><time>2026-04-07T15:03:56.328Z</time></trkpt><trkpt lat="41.0744917" lon="9.5093555"><ele>102.0</ele><time>2026-04-07T15:03:57.328Z</time></trkpt><trkpt lat="41.0742879" lon="9.5093985"><ele>101.33333333333334</ele><time>2026-04-07T15:03:58.328Z</time></trkpt><trkpt lat="41.0740935" lon="9.5094437"><ele>100.66666666666667</ele><time>2026-04-07T15:03:59.328Z</time></trkpt><trkpt lat="41.0739038" lon="9.5094869"><ele>100.0</ele><time>2026-04-07T15:04:00.327Z</time></trkpt><trkpt lat="41.0737216" lon="9.5095322"><ele>100.0</ele><time>2026-04-07T15:04:01.328Z</time></trkpt><trkpt lat="41.0735502" lon="9.5095701"><ele>100.0</ele><time>2026-04-07T15:04:02.328Z</time></trkpt><trkpt lat="41.073383" lon="9.509586"><ele>100.0</ele><time>2026-04-07T15:04:03.327Z</time></trkpt><trkpt lat="41.0732201" lon="9.5095827"><ele>96.66666666666667</ele><time>2026-04-07T15:04:04.328Z</time></trkpt><trkpt lat="41.0730625" lon="9.5095328"><ele>93.33333333333334</ele><time>2026-04-07T15:04:05.327Z</time></trkpt><trkpt lat="41.0729177" lon="9.5094523"><ele>90.0</ele><time>2026-04-07T15:04:06.327Z</time></trkpt><trkpt lat="41.0727906" lon="9.5093467"><ele>90.0</ele><time>2026-04-07T15:04:07.328Z</time></trkpt><trkpt lat="41.0726853" lon="9.5092264"><ele>90.0</ele><time>2026-04-07T15:04:08.328Z</time></trkpt><trkpt lat="41.0726003" lon="9.5090992"><ele>90.0</ele><time>2026-04-07T15:04:09.328Z</time></trkpt><trkpt lat="41.072521" lon="9.5089655"><ele>90.0</ele><time>2026-04-07T15:04:10.327Z</time></trkpt><trkpt lat="41.0724463" lon="9.5088308"><ele>90.5</ele><time>2026-04-07T15:04:11.328Z</time></trkpt><trkpt lat="41.0723668" lon="9.5086901"><ele>91.0</ele><time>2026-04-07T15:04:12.328Z</time></trkpt><trkpt lat="41.0722761" lon="9.5085423"><ele>91.5</ele><time>2026-04-07T15:04:13.328Z</time></trkpt><trkpt lat="41.0721837" lon="9.5083854"><ele>92.0</ele><time>2026-04-07T15:04:14.328Z</time></trkpt><trkpt lat="41.0720928" lon="9.5082227"><ele>92.0</ele><time>2026-04-07T15:04:15.328Z</time></trkpt><trkpt lat="41.0719949" lon="9.508059"><ele>92.0</ele><time>2026-04-07T15:04:16.328Z</time></trkpt><trkpt lat="41.0718996" lon="9.507892"><ele>92.0</ele><time>2026-04-07T15:04:17.328Z</time></trkpt><trkpt lat="41.0718042" lon="9.5077211"><ele>92.33333333333334</ele><time>2026-04-07T15:04:18.327Z</time></trkpt><trkpt lat="41.0717015" lon="9.5075437"><ele>92.66666666666667</ele><time>2026-04-07T15:04:19.328Z</time></trkpt><trkpt lat="41.071593" lon="9.507361"><ele>93.0</ele><time>2026-04-07T15:04:20.327Z</time></trkpt><trkpt lat="41.0714711" lon="9.5071853"><ele>91.0</ele><time>2026-04-07T15:04:21.328Z</time></trkpt><trkpt lat="41.0713294" lon="9.5070299"><ele>89.0</ele><time>2026-04-07T15:04:22.328Z</time></trkpt><trkpt lat="41.0711642" lon="9.5069021"><ele>87.0</ele><time>2026-04-07T15:04:23.328Z</time></trkpt><trkpt lat="41.0709802" lon="9.5068094"><ele>87.0</ele><time>2026-04-07T15:04:24.327Z</time></trkpt><trkpt lat="41.0707828" lon="9.5067634"><ele>87.0</ele><time>2026-04-07T15:04:25.327Z</time></trkpt><trkpt lat="41.0705837" lon="9.5067751"><ele>87.0</ele><time>2026-04-07T15:04:26.328Z</time></trkpt><trkpt lat="41.0703777" lon="9.5068324"><ele>87.0</ele><time>2026-04-07T15:04:27.327Z</time></trkpt><trkpt lat="41.0701611" lon="9.506906"><ele>87.0</ele><time>2026-04-07T15:04:28.328Z</time></trkpt><trkpt lat="41.0699357" lon="9.5069847"><ele>87.0</ele><time>2026-04-07T15:04:29.328Z</time></trkpt><trkpt lat="41.0697107" lon="9.5070683"><ele>87.0</ele><time>2026-04-07T15:04:30.328Z</time></trkpt><trkpt lat="41.0694795" lon="9.5071518"><ele>90.0</ele><time>2026-04-07T15:04:31.328Z</time></trkpt><trkpt lat="41.0692442" lon="9.5072317"><ele>93.0</ele><time>2026-04-07T15:04:32.327Z</time></trkpt><trkpt lat="41.0690116" lon="9.5073196"><ele>93.0</ele><time>2026-04-07T15:04:33.327Z</time></trkpt><trkpt lat="41.0687755" lon="9.5074128"><ele>93.0</ele><time>2026-04-07T15:04:34.328Z</time></trkpt><trkpt lat="41.0685443" lon="9.5075085"><ele>93.0</ele><time>2026-04-07T15:04:35.328Z</time></trkpt><trkpt lat="41.0683304" lon="9.5075931"><ele>93.0</ele><time>2026-04-07T15:04:36.328Z</time></trkpt><trkpt lat="41.0681252" lon="9.5076599"><ele>93.0</ele><time>2026-04-07T15:04:37.328Z</time></trkpt><trkpt lat="41.0679343" lon="9.5077258"><ele>92.0</ele><time>2026-04-07T15:04:38.328Z</time></trkpt><trkpt lat="41.0677579" lon="9.5077928"><ele>91.0</ele><time>2026-04-07T15:04:39.327Z</time></trkpt><trkpt lat="41.0675895" lon="9.5078517"><ele>90.0</ele><time>2026-04-07T15:04:40.328Z</time></trkpt><trkpt lat="41.0674195" lon="9.507925"><ele>89.33333333333333</ele><time>2026-04-07T15:04:41.327Z</time></trkpt><trkpt lat="41.0672541" lon="9.5080274"><ele>88.66666666666666</ele><time>2026-04-07T15:04:42.328Z</time></trkpt><trkpt lat="41.067106" lon="9.5081674"><ele>88.0</ele><time>2026-04-07T15:04:43.328Z</time></trkpt><trkpt lat="41.0669819" lon="9.5083321"><ele>88.0</ele><time>2026-04-07T15:04:44.328Z</time></trkpt><trkpt lat="41.0668917" lon="9.5085086"><ele>88.0</ele><time>2026-04-07T15:04:45.328Z</time></trkpt><trkpt lat="41.0668291" lon="9.5087028"><ele>88.0</ele><time>2026-04-07T15:04:46.327Z</time></trkpt><trkpt lat="41.0667996" lon="9.5089274"><ele>87.33333333333333</ele><time>2026-04-07T15:04:47.328Z</time></trkpt><trkpt lat="41.0667919" lon="9.5091737"><ele>86.66666666666667</ele><time>2026-04-07T15:04:48.327Z</time></trkpt><trkpt lat="41.0667988" lon="9.509424"><ele>86.0</ele><time>2026-04-07T15:04:49.328Z</time></trkpt><trkpt lat="41.0668103" lon="9.5096774"><ele>83.66666666666667</ele><time>2026-04-07T15:04:50.328Z</time></trkpt><trkpt lat="41.0668171" lon="9.5099196"><ele>81.33333333333333</ele><time>2026-04-07T15:04:51.328Z</time></trkpt><trkpt lat="41.0668193" lon="9.5101494"><ele>79.0</ele><time>2026-04-07T15:04:52.327Z</time></trkpt><trkpt lat="41.0668047" lon="9.5103665"><ele>78.0</ele><time>2026-04-07T15:04:53.328Z</time></trkpt><trkpt lat="41.0667659" lon="9.5105791"><ele>77.0</ele><time>2026-04-07T15:04:54.328Z</time></trkpt><trkpt lat="41.0667005" lon="9.5107816"><ele>76.0</ele><time>2026-04-07T15:04:55.328Z</time></trkpt><trkpt lat="41.0666036" lon="9.5109752"><ele>76.0</ele><time>2026-04-07T15:04:56.327Z</time></trkpt><trkpt lat="41.0664787" lon="9.5111613"><ele>76.0</ele><time>2026-04-07T15:04:57.328Z</time></trkpt><trkpt lat="41.0663296" lon="9.511335"><ele>76.0</ele><time>2026-04-07T15:04:58.328Z</time></trkpt><trkpt lat="41.0661721" lon="9.5115068"><ele>75.0</ele><time>2026-04-07T15:04:59.327Z</time></trkpt><trkpt lat="41.0660211" lon="9.5116708"><ele>74.0</ele><time>2026-04-07T15:05:00.327Z</time></trkpt><trkpt lat="41.0658884" lon="9.5118483"><ele>73.0</ele><time>2026-04-07T15:05:01.327Z</time></trkpt><trkpt lat="41.0657799" lon="9.5120464"><ele>72.66666666666666</ele><time>2026-04-07T15:05:02.328Z</time></trkpt><trkpt lat="41.0656954" lon="9.5122557"><ele>72.33333333333333</ele><time>2026-04-07T15:05:03.328Z</time></trkpt><trkpt lat="41.0656094" lon="9.5124477"><ele>72.0</ele><time>2026-04-07T15:05:04.327Z</time></trkpt><trkpt lat="41.0654978" lon="9.5126137"><ele>72.0</ele><time>2026-04-07T15:05:05.328Z</time></trkpt><trkpt lat="41.0653658" lon="9.512748"><ele>72.0</ele><time>2026-04-07T15:05:06.328Z</time></trkpt><trkpt lat="41.0652292" lon="9.5128559"><ele>72.0</ele><time>2026-04-07T15:05:07.327Z</time></trkpt><trkpt lat="41.0650668" lon="9.5129311"><ele>67.0</ele><time>2026-04-07T15:05:08.327Z</time></trkpt><trkpt lat="41.0648653" lon="9.513003"><ele>62.0</ele><time>2026-04-07T15:05:09.328Z</time></trkpt><trkpt lat="41.0646321" lon="9.5130719"><ele>57.0</ele><time>2026-04-07T15:05:10.328Z</time></trkpt><trkpt lat="41.0643635" lon="9.5131274"><ele>55.5</ele><time>2026-04-07T15:05:11.328Z</time></trkpt><trkpt lat="41.0640613" lon="9.5131667"><ele>54.0</ele><time>2026-04-07T15:05:12.328Z</time></trkpt><trkpt lat="41.0637301" lon="9.5131879"><ele>54.0</ele><time>2026-04-07T15:05:13.327Z</time></trkpt><trkpt lat="41.0634229" lon="9.5132106"><ele>54.0</ele><time>2026-04-07T15:05:14.328Z</time></trkpt><trkpt lat="41.0631343" lon="9.5132337"><ele>48.5</ele><time>2026-04-07T15:05:15.328Z</time></trkpt><trkpt lat="41.062865" lon="9.5132548"><ele>43.0</ele><time>2026-04-07T15:05:16.328Z</time></trkpt><trkpt lat="41.0626188" lon="9.5132722"><ele>44.333333333333336</ele><time>2026-04-07T15:05:17.327Z</time></trkpt><trkpt lat="41.0623956" lon="9.5133007"><ele>45.666666666666664</ele><time>2026-04-07T15:05:18.328Z</time></trkpt><trkpt lat="41.0621941" lon="9.5133674"><ele>47.0</ele><time>2026-04-07T15:05:19.328Z</time></trkpt><trkpt lat="41.062006" lon="9.5134796"><ele>47.0</ele><time>2026-04-07T15:05:20.328Z</time></trkpt><trkpt lat="41.0618455" lon="9.5136333"><ele>47.0</ele><time>2026-04-07T15:05:21.328Z</time></trkpt><trkpt lat="41.0616988" lon="9.5138493"><ele>47.0</ele><time>2026-04-07T15:05:22.328Z</time></trkpt><trkpt lat="41.06157" lon="9.5141142"><ele>46.666666666666664</ele><time>2026-04-07T15:05:23.328Z</time></trkpt><trkpt lat="41.0614619" lon="9.5143813"><ele>46.333333333333336</ele><time>2026-04-07T15:05:24.328Z</time></trkpt><trkpt lat="41.0613555" lon="9.5146283"><ele>46.0</ele><time>2026-04-07T15:05:25.328Z</time></trkpt><trkpt lat="41.0612355" lon="9.5148553"><ele>43.0</ele><time>2026-04-07T15:05:26.328Z</time></trkpt><trkpt lat="41.0611013" lon="9.5150573"><ele>40.0</ele><time>2026-04-07T15:05:27.327Z</time></trkpt><trkpt lat="41.0609585" lon="9.5152313"><ele>37.0</ele><time>2026-04-07T15:05:28.328Z</time></trkpt><trkpt lat="41.0607981" lon="9.5153763"><ele>36.0</ele><time>2026-04-07T15:05:29.327Z</time></trkpt><trkpt lat="41.0606284" lon="9.5155111"><ele>35.0</ele><time>2026-04-07T15:05:30.328Z</time></trkpt><trkpt lat="41.0604505" lon="9.5156479"><ele>34.0</ele><time>2026-04-07T15:05:31.328Z</time></trkpt><trkpt lat="41.0602602" lon="9.5157994"><ele>34.0</ele><time>2026-04-07T15:05:32.328Z</time></trkpt><trkpt lat="41.060076" lon="9.5159444"><ele>34.0</ele><time>2026-04-07T15:05:33.328Z</time></trkpt><trkpt lat="41.0598997" lon="9.516067"><ele>34.0</ele><time>2026-04-07T15:05:34.328Z</time></trkpt><trkpt lat="41.0597403" lon="9.5161844"><ele>33.0</ele><time>2026-04-07T15:05:35.328Z</time></trkpt><trkpt lat="41.0595921" lon="9.5163067"><ele>32.0</ele><time>2026-04-07T15:05:36.327Z</time></trkpt><trkpt lat="41.0594114" lon="9.5164482"><ele>31.0</ele><time>2026-04-07T15:05:37.327Z</time></trkpt><trkpt lat="41.0592001" lon="9.5166109"><ele>32.0</ele><time>2026-04-07T15:05:38.327Z</time></trkpt><trkpt lat="41.0589937" lon="9.5167615"><ele>33.0</ele><time>2026-04-07T15:05:39.327Z</time></trkpt><trkpt lat="41.0588128" lon="9.5168859"><ele>34.0</ele><time>2026-04-07T15:05:40.328Z</time></trkpt><trkpt lat="41.0586481" lon="9.5169958"><ele>32.0</ele><time>2026-04-07T15:05:41.328Z</time></trkpt><trkpt lat="41.0585009" lon="9.5171103"><ele>30.0</ele><time>2026-04-07T15:05:42.327Z</time></trkpt><trkpt lat="41.0583613" lon="9.5172682"><ele>28.0</ele><time>2026-04-07T15:05:43.328Z</time></trkpt><trkpt lat="41.0582117" lon="9.5174774"><ele>28.0</ele><time>2026-04-07T15:05:44.327Z</time></trkpt><trkpt lat="41.0580613" lon="9.5176668"><ele>28.0</ele><time>2026-04-07T15:05:45.328Z</time></trkpt><trkpt lat="41.0578846" lon="9.5178934"><ele>26.666666666666668</ele><time>2026-04-07T15:05:46.328Z</time></trkpt><trkpt lat="41.0577258" lon="9.5180991"><ele>25.333333333333336</ele><time>2026-04-07T15:05:47.328Z</time></trkpt><trkpt lat="41.0575844" lon="9.5182733"><ele>24.0</ele><time>2026-04-07T15:05:48.328Z</time></trkpt><trkpt lat="41.0574452" lon="9.5184224"><ele>23.0</ele><time>2026-04-07T15:05:49.328Z</time></trkpt><trkpt lat="41.0572969" lon="9.518543"><ele>22.0</ele><time>2026-04-07T15:05:50.328Z</time></trkpt><trkpt lat="41.0571393" lon="9.5186322"><ele>21.0</ele><time>2026-04-07T15:05:51.328Z</time></trkpt><trkpt lat="41.0569761" lon="9.5186823"><ele>21.0</ele><time>2026-04-07T15:05:52.327Z</time></trkpt><trkpt lat="41.056806" lon="9.5186901"><ele>21.0</ele><time>2026-04-07T15:05:53.328Z</time></trkpt><trkpt lat="41.0566434" lon="9.5186728"><ele>21.0</ele><time>2026-04-07T15:05:54.328Z</time></trkpt><trkpt lat="41.0564735" lon="9.5186479"><ele>18.666666666666668</ele><time>2026-04-07T15:05:55.328Z</time></trkpt><trkpt lat="41.0563039" lon="9.5186168"><ele>16.333333333333336</ele><time>2026-04-07T15:05:56.328Z</time></trkpt><trkpt lat="41.0561456" lon="9.5185915"><ele>14.0</ele><time>2026-04-07T15:05:57.328Z</time></trkpt><trkpt lat="41.0559921" lon="9.5185602"><ele>14.0</ele><time>2026-04-07T15:05:58.328Z</time></trkpt><trkpt lat="41.0558379" lon="9.5185289"><ele>14.0</ele><time>2026-04-07T15:05:59.328Z</time></trkpt><trkpt lat="41.0556825" lon="9.5184929"><ele>14.0</ele><time>2026-04-07T15:06:00.328Z</time></trkpt><trkpt lat="41.0555295" lon="9.51845"><ele>13.666666666666668</ele><time>2026-04-07T15:06:01.327Z</time></trkpt><trkpt lat="41.0553777" lon="9.5183874"><ele>13.333333333333332</ele><time>2026-04-07T15:06:02.327Z</time></trkpt><trkpt lat="41.0552312" lon="9.5182979"><ele>13.0</ele><time>2026-04-07T15:06:03.327Z</time></trkpt><trkpt lat="41.0550972" lon="9.5181843"><ele>13.0</ele><time>2026-04-07T15:06:04.327Z</time></trkpt><trkpt lat="41.0549721" lon="9.5180546"><ele>13.0</ele><time>2026-04-07T15:06:05.328Z</time></trkpt><trkpt lat="41.0548498" lon="9.5179002"><ele>13.0</ele><time>2026-04-07T15:06:06.328Z</time></trkpt><trkpt lat="41.0547326" lon="9.5177435"><ele>13.333333333333332</ele><time>2026-04-07T15:06:07.327Z</time></trkpt><trkpt lat="41.0546213" lon="9.5175947"><ele>13.666666666666668</ele><time>2026-04-07T15:06:08.328Z</time></trkpt><trkpt lat="41.0545086" lon="9.5174473"><ele>14.0</ele><time>2026-04-07T15:06:09.327Z</time></trkpt><trkpt lat="41.0543895" lon="9.5172953"><ele>14.0</ele><time>2026-04-07T15:06:10.328Z</time></trkpt><trkpt lat="41.0542666" lon="9.5171376"><ele>14.0</ele><time>2026-04-07T15:06:11.327Z</time></trkpt><trkpt lat="41.0541427" lon="9.5169757"><ele>14.0</ele><time>2026-04-07T15:06:12.328Z</time></trkpt><trkpt lat="41.0540131" lon="9.5168206"><ele>16.0</ele><time>2026-04-07T15:06:13.327Z</time></trkpt><trkpt lat="41.0538719" lon="9.5166797"><ele>18.0</ele><time>2026-04-07T15:06:14.328Z</time></trkpt><trkpt lat="41.0537176" lon="9.5165594"><ele>20.0</ele><time>2026-04-07T15:06:15.328Z</time></trkpt><trkpt lat="41.053552" lon="9.5164587"><ele>20.0</ele><time>2026-04-07T15:06:16.327Z</time></trkpt><trkpt lat="41.0533837" lon="9.5163707"><ele>20.0</ele><time>2026-04-07T15:06:17.328Z</time></trkpt><trkpt lat="41.053216" lon="9.5162935"><ele>20.0</ele><time>2026-04-07T15:06:18.327Z</time></trkpt><trkpt lat="41.0530493" lon="9.5162181"><ele>22.0</ele><time>2026-04-07T15:06:19.328Z</time></trkpt><trkpt lat="41.0528829" lon="9.5161448"><ele>24.0</ele><time>2026-04-07T15:06:20.328Z</time></trkpt><trkpt lat="41.0527122" lon="9.5160855"><ele>26.0</ele><time>2026-04-07T15:06:21.327Z</time></trkpt><trkpt lat="41.0525404" lon="9.5160538"><ele>26.0</ele><time>2026-04-07T15:06:22.327Z</time></trkpt><trkpt lat="41.0523681" lon="9.5160441"><ele>26.0</ele><time>2026-04-07T15:06:23.327Z</time></trkpt><trkpt lat="41.0521916" lon="9.516062"><ele>26.0</ele><time>2026-04-07T15:06:24.328Z</time></trkpt><trkpt lat="41.052016" lon="9.5161023"><ele>26.0</ele><time>2026-04-07T15:06:25.328Z</time></trkpt><trkpt lat="41.0518452" lon="9.5161505"><ele>26.0</ele><time>2026-04-07T15:06:26.327Z</time></trkpt><trkpt lat="41.0516811" lon="9.5162027"><ele>26.0</ele><time>2026-04-07T15:06:27.328Z</time></trkpt><trkpt lat="41.0515246" lon="9.5162572"><ele>22.666666666666664</ele><time>2026-04-07T15:06:28.328Z</time></trkpt><trkpt lat="41.0513661" lon="9.5163153"><ele>19.333333333333332</ele><time>2026-04-07T15:06:29.327Z</time></trkpt><trkpt lat="41.051199" lon="9.516373"><ele>16.0</ele><time>2026-04-07T15:06:30.327Z</time></trkpt><trkpt lat="41.0510215" lon="9.5164292"><ele>16.0</ele><time>2026-04-07T15:06:31.328Z</time></trkpt><trkpt lat="41.0508387" lon="9.5164887"><ele>16.0</ele><time>2026-04-07T15:06:32.328Z</time></trkpt><trkpt lat="41.0506545" lon="9.5165536"><ele>16.0</ele><time>2026-04-07T15:06:33.327Z</time></trkpt><trkpt lat="41.0504726" lon="9.5166176"><ele>15.333333333333332</ele><time>2026-04-07T15:06:34.328Z</time></trkpt><trkpt lat="41.0502892" lon="9.5166765"><ele>14.666666666666668</ele><time>2026-04-07T15:06:35.328Z</time></trkpt><trkpt lat="41.0501078" lon="9.5167362"><ele>14.0</ele><time>2026-04-07T15:06:36.328Z</time></trkpt><trkpt lat="41.0499275" lon="9.5167954"><ele>14.0</ele><time>2026-04-07T15:06:37.328Z</time></trkpt><trkpt lat="41.0497486" lon="9.516856"><ele>14.0</ele><time>2026-04-07T15:06:38.328Z</time></trkpt><trkpt lat="41.049569" lon="9.5169206"><ele>14.0</ele><time>2026-04-07T15:06:39.327Z</time></trkpt><trkpt lat="41.0493908" lon="9.516984"><ele>14.0</ele><time>2026-04-07T15:06:40.328Z</time></trkpt><trkpt lat="41.0492163" lon="9.5170489"><ele>14.0</ele><time>2026-04-07T15:06:41.328Z</time></trkpt><trkpt lat="41.04904" lon="9.5171112"><ele>14.0</ele><time>2026-04-07T15:06:42.327Z</time></trkpt><trkpt lat="41.0488596" lon="9.5171774"><ele>14.666666666666668</ele><time>2026-04-07T15:06:43.328Z</time></trkpt><trkpt lat="41.0486765" lon="9.5172537"><ele>15.333333333333332</ele><time>2026-04-07T15:06:44.328Z</time></trkpt><trkpt lat="41.0485021" lon="9.5173363"><ele>16.0</ele><time>2026-04-07T15:06:45.327Z</time></trkpt><trkpt lat="41.0483377" lon="9.5174199"><ele>16.666666666666664</ele><time>2026-04-07T15:06:46.328Z</time></trkpt><trkpt lat="41.0481731" lon="9.5175072"><ele>17.333333333333332</ele><time>2026-04-07T15:06:47.327Z</time></trkpt><trkpt lat="41.048007" lon="9.5176001"><ele>18.0</ele><time>2026-04-07T15:06:48.327Z</time></trkpt><trkpt lat="41.0478374" lon="9.5176958"><ele>18.0</ele><time>2026-04-07T15:06:49.328Z</time></trkpt><trkpt lat="41.04766" lon="9.5177942"><ele>18.0</ele><time>2026-04-07T15:06:50.328Z</time></trkpt><trkpt lat="41.0474812" lon="9.5178947"><ele>18.0</ele><time>2026-04-07T15:06:51.328Z</time></trkpt><trkpt lat="41.0473064" lon="9.517987"><ele>16.0</ele><time>2026-04-07T15:06:52.328Z</time></trkpt><trkpt lat="41.047142" lon="9.5180686"><ele>14.0</ele><time>2026-04-07T15:06:53.328Z</time></trkpt><trkpt lat="41.0469754" lon="9.5181418"><ele>12.0</ele><time>2026-04-07T15:06:54.328Z</time></trkpt><trkpt lat="41.0467989" lon="9.518211"><ele>13.333333333333332</ele><time>2026-04-07T15:06:55.328Z</time></trkpt><trkpt lat="41.0466123" lon="9.5182769"><ele>14.666666666666666</ele><time>2026-04-07T15:06:56.328Z</time></trkpt><trkpt lat="41.0464222" lon="9.5183449"><ele>16.0</ele><time>2026-04-07T15:06:57.328Z</time></trkpt><trkpt lat="41.0462306" lon="9.5184082"><ele>16.0</ele><time>2026-04-07T15:06:58.328Z</time></trkpt><trkpt lat="41.0460404" lon="9.5184708"><ele>16.0</ele><time>2026-04-07T15:06:59.328Z</time></trkpt><trkpt lat="41.0458552" lon="9.5185302"><ele>16.0</ele><time>2026-04-07T15:07:00.327Z</time></trkpt><trkpt lat="41.0456742" lon="9.5185848"><ele>18.333333333333332</ele><time>2026-04-07T15:07:01.328Z</time></trkpt><trkpt lat="41.0455006" lon="9.5186323"><ele>20.666666666666668</ele><time>2026-04-07T15:07:02.328Z</time></trkpt><trkpt lat="41.0453371" lon="9.5186693"><ele>23.0</ele><time>2026-04-07T15:07:03.328Z</time></trkpt><trkpt lat="41.0451776" lon="9.5186918"><ele>23.0</ele><time>2026-04-07T15:07:04.327Z</time></trkpt><trkpt lat="41.0450193" lon="9.5186916"><ele>23.0</ele><time>2026-04-07T15:07:05.327Z</time></trkpt><trkpt lat="41.044861" lon="9.5186761"><ele>23.0</ele><time>2026-04-07T15:07:06.327Z</time></trkpt><trkpt lat="41.0447003" lon="9.5186517"><ele>24.333333333333336</ele><time>2026-04-07T15:07:07.328Z</time></trkpt><trkpt lat="41.0445366" lon="9.5186229"><ele>25.666666666666668</ele><time>2026-04-07T15:07:08.328Z</time></trkpt><trkpt lat="41.0443814" lon="9.5185944"><ele>27.0</ele><time>2026-04-07T15:07:09.328Z</time></trkpt><trkpt lat="41.0442347" lon="9.518567"><ele>28.0</ele><time>2026-04-07T15:07:10.328Z</time></trkpt><trkpt lat="41.0440927" lon="9.5185379"><ele>29.0</ele><time>2026-04-07T15:07:11.328Z</time></trkpt><trkpt lat="41.0439559" lon="9.518512"><ele>30.0</ele><time>2026-04-07T15:07:12.328Z</time></trkpt><trkpt lat="41.043815" lon="9.5184855"><ele>31.0</ele><time>2026-04-07T15:07:13.327Z</time></trkpt><trkpt lat="41.0436618" lon="9.5184565"><ele>31.0</ele><time>2026-04-07T15:07:14.327Z</time></trkpt><trkpt lat="41.0435016" lon="9.5184216"><ele>31.0</ele><time>2026-04-07T15:07:15.327Z</time></trkpt><trkpt lat="41.0433387" lon="9.5183866"><ele>31.0</ele><time>2026-04-07T15:07:16.327Z</time></trkpt><trkpt lat="41.0431762" lon="9.5183572"><ele>30.666666666666668</ele><time>2026-04-07T15:07:17.328Z</time></trkpt><trkpt lat="41.0430179" lon="9.5183284"><ele>30.333333333333336</ele><time>2026-04-07T15:07:18.327Z</time></trkpt><trkpt lat="41.0428628" lon="9.5183"><ele>30.0</ele><time>2026-04-07T15:07:19.328Z</time></trkpt><trkpt lat="41.042706" lon="9.5182772"><ele>30.0</ele><time>2026-04-07T15:07:20.328Z</time></trkpt><trkpt lat="41.0425412" lon="9.5182508"><ele>30.0</ele><time>2026-04-07T15:07:21.328Z</time></trkpt><trkpt lat="41.0423715" lon="9.5182201"><ele>30.0</ele><time>2026-04-07T15:07:22.328Z</time></trkpt><trkpt lat="41.042206" lon="9.51819"><ele>30.666666666666664</ele><time>2026-04-07T15:07:23.327Z</time></trkpt><trkpt lat="41.0420493" lon="9.518161"><ele>31.333333333333332</ele><time>2026-04-07T15:07:24.328Z</time></trkpt><trkpt lat="41.0418955" lon="9.5181269"><ele>32.0</ele><time>2026-04-07T15:07:25.327Z</time></trkpt><trkpt lat="41.0417444" lon="9.5180811"><ele>30.666666666666664</ele><time>2026-04-07T15:07:26.327Z</time></trkpt><trkpt lat="41.0415981" lon="9.5180156"><ele>29.333333333333336</ele><time>2026-04-07T15:07:27.328Z</time></trkpt><trkpt lat="41.041455" lon="9.5179228"><ele>28.0</ele><time>2026-04-07T15:07:28.328Z</time></trkpt><trkpt lat="41.0413122" lon="9.5178122"><ele>31.0</ele><time>2026-04-07T15:07:29.328Z</time></trkpt><trkpt lat="41.0411703" lon="9.517699"><ele>34.0</ele><time>2026-04-07T15:07:30.328Z</time></trkpt><trkpt lat="41.0410341" lon="9.517591"><ele>37.0</ele><time>2026-04-07T15:07:31.327Z</time></trkpt><trkpt lat="41.0408979" lon="9.5174815"><ele>37.333333333333336</ele><time>2026-04-07T15:07:32.328Z</time></trkpt><trkpt lat="41.0407603" lon="9.5173675"><ele>37.666666666666664</ele><time>2026-04-07T15:07:33.328Z</time></trkpt><trkpt lat="41.0406191" lon="9.5172536"><ele>38.0</ele><time>2026-04-07T15:07:34.328Z</time></trkpt><trkpt lat="41.0404723" lon="9.5171375"><ele>41.0</ele><time>2026-04-07T15:07:35.328Z</time></trkpt><trkpt lat="41.0403223" lon="9.517024"><ele>44.0</ele><time>2026-04-07T15:07:36.328Z</time></trkpt><trkpt lat="41.0401666" lon="9.5169199"><ele>47.0</ele><time>2026-04-07T15:07:37.327Z</time></trkpt><trkpt lat="41.0400076" lon="9.5168446"><ele>47.0</ele><time>2026-04-07T15:07:38.328Z</time></trkpt><trkpt lat="41.0398452" lon="9.516816"><ele>47.0</ele><time>2026-04-07T15:07:39.328Z</time></trkpt><trkpt lat="41.0396861" lon="9.516816"><ele>47.0</ele><time>2026-04-07T15:07:40.327Z</time></trkpt><trkpt lat="41.0395271" lon="9.5168332"><ele>47.0</ele><time>2026-04-07T15:07:41.328Z</time></trkpt><trkpt lat="41.0393762" lon="9.5168585"><ele>47.0</ele><time>2026-04-07T15:07:42.327Z</time></trkpt><trkpt lat="41.039228" lon="9.5168808"><ele>47.0</ele><time>2026-04-07T15:07:43.327Z</time></trkpt><trkpt lat="41.039078" lon="9.5169034"><ele>49.666666666666664</ele><time>2026-04-07T15:07:44.328Z</time></trkpt><trkpt lat="41.0389236" lon="9.5169192"><ele>52.33333333333333</ele><time>2026-04-07T15:07:45.328Z</time></trkpt><trkpt lat="41.0387753" lon="9.5169274"><ele>55.0</ele><time>2026-04-07T15:07:46.328Z</time></trkpt><trkpt lat="41.0386215" lon="9.5169189"><ele>55.0</ele><time>2026-04-07T15:07:47.328Z</time></trkpt><trkpt lat="41.038468" lon="9.5168865"><ele>55.0</ele><time>2026-04-07T15:07:48.328Z</time></trkpt><trkpt lat="41.0383166" lon="9.5168284"><ele>55.0</ele><time>2026-04-07T15:07:49.328Z</time></trkpt><trkpt lat="41.0381729" lon="9.516757"><ele>54.75</ele><time>2026-04-07T15:07:50.328Z</time></trkpt><trkpt lat="41.0380405" lon="9.5166765"><ele>54.5</ele><time>2026-04-07T15:07:51.328Z</time></trkpt><trkpt lat="41.0379131" lon="9.5166013"><ele>54.25</ele><time>2026-04-07T15:07:52.328Z</time></trkpt><trkpt lat="41.037789" lon="9.5165352"><ele>54.0</ele><time>2026-04-07T15:07:53.327Z</time></trkpt><trkpt lat="41.0376667" lon="9.5164818"><ele>54.0</ele><time>2026-04-07T15:07:54.328Z</time></trkpt><trkpt lat="41.0375438" lon="9.5164557"><ele>54.0</ele><time>2026-04-07T15:07:55.328Z</time></trkpt><trkpt lat="41.0374204" lon="9.5164661"><ele>54.0</ele><time>2026-04-07T15:07:56.327Z</time></trkpt><trkpt lat="41.0373119" lon="9.5165141"><ele>54.0</ele><time>2026-04-07T15:07:57.328Z</time></trkpt><trkpt lat="41.0372178" lon="9.5165871"><ele>56.800000000000004</ele><time>2026-04-07T15:07:58.328Z</time></trkpt><trkpt lat="41.0371298" lon="9.5166856"><ele>59.60000000000001</ele><time>2026-04-07T15:07:59.328Z</time></trkpt><trkpt lat="41.0370558" lon="9.5167767"><ele>62.4</ele><time>2026-04-07T15:08:00.327Z</time></trkpt><trkpt lat="41.0369746" lon="9.5168735"><ele>65.2</ele><time>2026-04-07T15:08:01.328Z</time></trkpt><trkpt lat="41.0368885" lon="9.5169409"><ele>68.0</ele><time>2026-04-07T15:08:02.328Z</time></trkpt><trkpt lat="41.036805" lon="9.5169873"><ele>68.0</ele><time>2026-04-07T15:08:03.328Z</time></trkpt><trkpt lat="41.0367196" lon="9.5170156"><ele>68.0</ele><time>2026-04-07T15:08:04.328Z</time></trkpt><trkpt lat="41.0366326" lon="9.5170241"><ele>68.0</ele><time>2026-04-07T15:08:05.328Z</time></trkpt><trkpt lat="41.0365435" lon="9.5170158"><ele>68.0</ele><time>2026-04-07T15:08:06.328Z</time></trkpt><trkpt lat="41.0364529" lon="9.5169859"><ele>68.0</ele><time>2026-04-07T15:08:07.328Z</time></trkpt><trkpt lat="41.0363673" lon="9.5169476"><ele>68.0</ele><time>2026-04-07T15:08:08.327Z</time></trkpt><trkpt lat="41.0362837" lon="9.5168995"><ele>68.0</ele><time>2026-04-07T15:08:09.328Z</time></trkpt><trkpt lat="41.0361972" lon="9.5168481"><ele>68.0</ele><time>2026-04-07T15:08:10.328Z</time></trkpt><trkpt lat="41.0361054" lon="9.5167958"><ele>68.0</ele><time>2026-04-07T15:08:11.328Z</time></trkpt><trkpt lat="41.0360125" lon="9.5167391"><ele>68.0</ele><time>2026-04-07T15:08:12.328Z</time></trkpt><trkpt lat="41.0359318" lon="9.5166824"><ele>68.0</ele><time>2026-04-07T15:08:13.327Z</time></trkpt><trkpt lat="41.0358675" lon="9.5166285"><ele>69.0</ele><time>2026-04-07T15:08:14.328Z</time></trkpt><trkpt lat="41.0358025" lon="9.5165598"><ele>70.0</ele><time>2026-04-07T15:08:16.328Z</time></trkpt><trkpt lat="41.0357419" lon="9.5164845"><ele>71.0</ele><time>2026-04-07T15:08:20.328Z</time></trkpt><trkpt lat="41.0356723" lon="9.5164382"><ele>72.0</ele><time>2026-04-07T15:08:22.328Z</time></trkpt><trkpt lat="41.0355941" lon="9.5164405"><ele>73.0</ele><time>2026-04-07T15:08:28.327Z</time></trkpt><trkpt lat="41.035536" lon="9.5164964"><ele>74.0</ele><time>2026-04-07T15:08:29.328Z</time></trkpt><trkpt lat="41.0354576" lon="9.5166147"><ele>74.0</ele><time>2026-04-07T15:08:30.328Z</time></trkpt><trkpt lat="41.0353782" lon="9.516779"><ele>74.0</ele><time>2026-04-07T15:08:31.328Z</time></trkpt><trkpt lat="41.0352986" lon="9.5169853"><ele>74.0</ele><time>2026-04-07T15:08:32.327Z</time></trkpt><trkpt lat="41.0352113" lon="9.5171836"><ele>71.66666666666667</ele><time>2026-04-07T15:08:33.328Z</time></trkpt><trkpt lat="41.0351163" lon="9.5173642"><ele>69.33333333333333</ele><time>2026-04-07T15:08:34.328Z</time></trkpt><trkpt lat="41.0350036" lon="9.5175186"><ele>67.0</ele><time>2026-04-07T15:08:35.328Z</time></trkpt><trkpt lat="41.0348858" lon="9.5176546"><ele>67.0</ele><time>2026-04-07T15:08:36.328Z</time></trkpt><trkpt lat="41.0347644" lon="9.5177839"><ele>67.0</ele><time>2026-04-07T15:08:37.328Z</time></trkpt><trkpt lat="41.0346306" lon="9.5179006"><ele>67.0</ele><time>2026-04-07T15:08:38.328Z</time></trkpt><trkpt lat="41.0344998" lon="9.5179936"><ele>65.25</ele><time>2026-04-07T15:08:39.328Z</time></trkpt><trkpt lat="41.0343691" lon="9.5180708"><ele>63.5</ele><time>2026-04-07T15:08:40.328Z</time></trkpt><trkpt lat="41.0342429" lon="9.5181518"><ele>61.75</ele><time>2026-04-07T15:08:41.327Z</time></trkpt><trkpt lat="41.0341221" lon="9.5182281"><ele>60.0</ele><time>2026-04-07T15:08:42.328Z</time></trkpt><trkpt lat="41.0340136" lon="9.5183141"><ele>60.0</ele><time>2026-04-07T15:08:43.328Z</time></trkpt><trkpt lat="41.0339158" lon="9.5184172"><ele>60.0</ele><time>2026-04-07T15:08:44.328Z</time></trkpt><trkpt lat="41.0338244" lon="9.5185319"><ele>60.0</ele><time>2026-04-07T15:08:45.328Z</time></trkpt><trkpt lat="41.0337399" lon="9.5186628"><ele>60.0</ele><time>2026-04-07T15:08:46.327Z</time></trkpt><trkpt lat="41.0336558" lon="9.518788"><ele>56.8</ele><time>2026-04-07T15:08:47.328Z</time></trkpt><trkpt lat="41.0335615" lon="9.5188822"><ele>53.6</ele><time>2026-04-07T15:08:48.328Z</time></trkpt><trkpt lat="41.0334598" lon="9.5189283"><ele>50.400000000000006</ele><time>2026-04-07T15:08:49.327Z</time></trkpt><trkpt lat="41.0333573" lon="9.5189329"><ele>47.2</ele><time>2026-04-07T15:08:50.328Z</time></trkpt><trkpt lat="41.0332627" lon="9.5189244"><ele>44.0</ele><time>2026-04-07T15:08:51.327Z</time></trkpt><trkpt lat="41.0331706" lon="9.5189133"><ele>43.2</ele><time>2026-04-07T15:08:52.328Z</time></trkpt><trkpt lat="41.033076" lon="9.5189045"><ele>42.400000000000006</ele><time>2026-04-07T15:08:53.328Z</time></trkpt><trkpt lat="41.0329794" lon="9.518905"><ele>41.6</ele><time>2026-04-07T15:08:54.328Z</time></trkpt><trkpt lat="41.0328814" lon="9.5189149"><ele>40.8</ele><time>2026-04-07T15:08:55.328Z</time></trkpt><trkpt lat="41.0327811" lon="9.5189443"><ele>40.0</ele><time>2026-04-07T15:08:56.327Z</time></trkpt><trkpt lat="41.0326741" lon="9.5189967"><ele>40.0</ele><time>2026-04-07T15:08:57.328Z</time></trkpt><trkpt lat="41.0325542" lon="9.5190594"><ele>40.0</ele><time>2026-04-07T15:08:58.327Z</time></trkpt><trkpt lat="41.0324104" lon="9.5191248"><ele>40.0</ele><time>2026-04-07T15:08:59.328Z</time></trkpt><trkpt lat="41.0322648" lon="9.5191734"><ele>40.0</ele><time>2026-04-07T15:09:00.328Z</time></trkpt><trkpt lat="41.0321226" lon="9.5192034"><ele>39.75</ele><time>2026-04-07T15:09:01.328Z</time></trkpt><trkpt lat="41.0319854" lon="9.5192153"><ele>39.5</ele><time>2026-04-07T15:09:02.328Z</time></trkpt><trkpt lat="41.0318536" lon="9.5192345"><ele>39.25</ele><time>2026-04-07T15:09:03.328Z</time></trkpt><trkpt lat="41.0317273" lon="9.5192648"><ele>39.0</ele><time>2026-04-07T15:09:04.328Z</time></trkpt><trkpt lat="41.0316067" lon="9.5192994"><ele>38.25</ele><time>2026-04-07T15:09:05.328Z</time></trkpt><trkpt lat="41.031487" lon="9.5193393"><ele>37.5</ele><time>2026-04-07T15:09:06.327Z</time></trkpt><trkpt lat="41.0313721" lon="9.5193857"><ele>36.75</ele><time>2026-04-07T15:09:07.328Z</time></trkpt><trkpt lat="41.0312589" lon="9.5194329"><ele>36.0</ele><time>2026-04-07T15:09:08.328Z</time></trkpt><trkpt lat="41.0311516" lon="9.5194833"><ele>36.0</ele><time>2026-04-07T15:09:09.328Z</time></trkpt><trkpt lat="41.0310387" lon="9.5195328"><ele>36.0</ele><time>2026-04-07T15:09:10.328Z</time></trkpt><trkpt lat="41.0309242" lon="9.5195813"><ele>36.0</ele><time>2026-04-07T15:09:11.328Z</time></trkpt><trkpt lat="41.0308065" lon="9.5196249"><ele>36.0</ele><time>2026-04-07T15:09:12.327Z</time></trkpt><trkpt lat="41.0306823" lon="9.5196489"><ele>33.0</ele><time>2026-04-07T15:09:13.327Z</time></trkpt><trkpt lat="41.0305606" lon="9.5196557"><ele>30.0</ele><time>2026-04-07T15:09:14.328Z</time></trkpt><trkpt lat="41.0304468" lon="9.5196544"><ele>27.0</ele><time>2026-04-07T15:09:15.328Z</time></trkpt><trkpt lat="41.0303394" lon="9.519632"><ele>24.0</ele><time>2026-04-07T15:09:16.328Z</time></trkpt><trkpt lat="41.0302417" lon="9.5195952"><ele>21.0</ele><time>2026-04-07T15:09:17.328Z</time></trkpt><trkpt lat="41.0301565" lon="9.5195338"><ele>21.0</ele><time>2026-04-07T15:09:18.327Z</time></trkpt><trkpt lat="41.0300733" lon="9.5194411"><ele>21.0</ele><time>2026-04-07T15:09:19.328Z</time></trkpt><trkpt lat="41.0300071" lon="9.519319"><ele>21.0</ele><time>2026-04-07T15:09:20.328Z</time></trkpt><trkpt lat="41.0299569" lon="9.519176"><ele>21.0</ele><time>2026-04-07T15:09:21.328Z</time></trkpt><trkpt lat="41.0299098" lon="9.5190271"><ele>19.5</ele><time>2026-04-07T15:09:22.327Z</time></trkpt><trkpt lat="41.029854" lon="9.5188724"><ele>18.0</ele><time>2026-04-07T15:09:23.328Z</time></trkpt><trkpt lat="41.0297807" lon="9.5187271"><ele>16.5</ele><time>2026-04-07T15:09:24.328Z</time></trkpt><trkpt lat="41.0296949" lon="9.5185924"><ele>15.0</ele><time>2026-04-07T15:09:25.328Z</time></trkpt><trkpt lat="41.0295902" lon="9.5184702"><ele>15.0</ele><time>2026-04-07T15:09:26.328Z</time></trkpt><trkpt lat="41.0294763" lon="9.5183599"><ele>15.0</ele><time>2026-04-07T15:09:27.328Z</time></trkpt><trkpt lat="41.0293665" lon="9.5182591"><ele>15.0</ele><time>2026-04-07T15:09:28.327Z</time></trkpt><trkpt lat="41.0292539" lon="9.5181594"><ele>15.0</ele><time>2026-04-07T15:09:29.328Z</time></trkpt><trkpt lat="41.0291293" lon="9.5180831"><ele>13.25</ele><time>2026-04-07T15:09:30.328Z</time></trkpt><trkpt lat="41.0289909" lon="9.5180386"><ele>11.5</ele><time>2026-04-07T15:09:31.328Z</time></trkpt><trkpt lat="41.0288497" lon="9.5180172"><ele>9.75</ele><time>2026-04-07T15:09:32.328Z</time></trkpt><trkpt lat="41.0287086" lon="9.5180145"><ele>8.0</ele><time>2026-04-07T15:09:33.328Z</time></trkpt><trkpt lat="41.0285767" lon="9.5180199"><ele>8.0</ele><time>2026-04-07T15:09:34.328Z</time></trkpt><trkpt lat="41.0284441" lon="9.5180287"><ele>8.0</ele><time>2026-04-07T15:09:35.327Z</time></trkpt><trkpt lat="41.0283059" lon="9.5180383"><ele>8.0</ele><time>2026-04-07T15:09:36.327Z</time></trkpt><trkpt lat="41.0281607" lon="9.5180446"><ele>8.0</ele><time>2026-04-07T15:09:37.327Z</time></trkpt><trkpt lat="41.0280128" lon="9.5180393"><ele>8.5</ele><time>2026-04-07T15:09:38.328Z</time></trkpt><trkpt lat="41.0278622" lon="9.518018"><ele>9.0</ele><time>2026-04-07T15:09:39.328Z</time></trkpt><trkpt lat="41.0277168" lon="9.5179776"><ele>9.5</ele><time>2026-04-07T15:09:40.328Z</time></trkpt><trkpt lat="41.0275782" lon="9.5179248"><ele>10.0</ele><time>2026-04-07T15:09:41.328Z</time></trkpt><trkpt lat="41.0274448" lon="9.5178829"><ele>10.0</ele><time>2026-04-07T15:09:42.328Z</time></trkpt><trkpt lat="41.0273098" lon="9.5178479"><ele>10.0</ele><time>2026-04-07T15:09:43.328Z</time></trkpt><trkpt lat="41.0271724" lon="9.5178398"><ele>10.0</ele><time>2026-04-07T15:09:44.328Z</time></trkpt><trkpt lat="41.0270318" lon="9.5178623"><ele>10.0</ele><time>2026-04-07T15:09:45.327Z</time></trkpt><trkpt lat="41.0268943" lon="9.5179027"><ele>8.5</ele><time>2026-04-07T15:09:46.327Z</time></trkpt><trkpt lat="41.0267633" lon="9.5179514"><ele>7.0</ele><time>2026-04-07T15:09:47.327Z</time></trkpt><trkpt lat="41.0266348" lon="9.5179979"><ele>5.5</ele><time>2026-04-07T15:09:48.327Z</time></trkpt><trkpt lat="41.0265083" lon="9.5180393"><ele>4.0</ele><time>2026-04-07T15:09:49.327Z</time></trkpt><trkpt lat="41.0263843" lon="9.5180747"><ele>3.5</ele><time>2026-04-07T15:09:50.328Z</time></trkpt><trkpt lat="41.0262571" lon="9.518091"><ele>3.0</ele><time>2026-04-07T15:09:51.328Z</time></trkpt><trkpt lat="41.0261288" lon="9.5180853"><ele>2.5</ele><time>2026-04-07T15:09:52.328Z</time></trkpt><trkpt lat="41.026004" lon="9.5180565"><ele>2.0</ele><time>2026-04-07T15:09:53.328Z</time></trkpt><trkpt lat="41.0258674" lon="9.5180046"><ele>1.6666666666666665</ele><time>2026-04-07T15:09:54.328Z</time></trkpt><trkpt lat="41.0257062" lon="9.5179183"><ele>1.3333333333333333</ele><time>2026-04-07T15:09:55.328Z</time></trkpt><trkpt lat="41.025523" lon="9.5178125"><ele>1.0</ele><time>2026-04-07T15:09:56.328Z</time></trkpt><trkpt lat="41.0253126" lon="9.5176906"><ele>0.5</ele><time>2026-04-07T15:09:57.328Z</time></trkpt><trkpt lat="41.0250812" lon="9.5175479"><ele>0.0</ele><time>2026-04-07T15:09:58.327Z</time></trkpt><trkpt lat="41.0248404" lon="9.517381"><ele>0.0</ele><time>2026-04-07T15:09:59.328Z</time></trkpt><trkpt lat="41.024598" lon="9.5171988"><ele>0.0</ele><time>2026-04-07T15:10:00.328Z</time></trkpt><trkpt lat="41.0243653" lon="9.5170431"><ele>3.0</ele><time>2026-04-07T15:10:01.328Z</time></trkpt><trkpt lat="41.0241294" lon="9.5169134"><ele>6.0</ele><time>2026-04-07T15:10:02.327Z</time></trkpt><trkpt lat="41.0239" lon="9.5168036"><ele>6.0</ele><time>2026-04-07T15:10:03.328Z</time></trkpt><trkpt lat="41.0236768" lon="9.5167128"><ele>6.0</ele><time>2026-04-07T15:10:04.328Z</time></trkpt><trkpt lat="41.0234639" lon="9.516622"><ele>4.666666666666667</ele><time>2026-04-07T15:10:05.328Z</time></trkpt><trkpt lat="41.02326" lon="9.5165367"><ele>3.333333333333333</ele><time>2026-04-07T15:10:06.328Z</time></trkpt><trkpt lat="41.0230675" lon="9.5164559"><ele>2.0</ele><time>2026-04-07T15:10:07.327Z</time></trkpt><trkpt lat="41.0228794" lon="9.5163454"><ele>2.0</ele><time>2026-04-07T15:10:08.327Z</time></trkpt><trkpt lat="41.0227001" lon="9.5162059"><ele>2.0</ele><time>2026-04-07T15:10:09.327Z</time></trkpt><trkpt lat="41.0225216" lon="9.5160563"><ele>2.0</ele><time>2026-04-07T15:10:10.328Z</time></trkpt><trkpt lat="41.0223337" lon="9.5158981"><ele>2.0</ele><time>2026-04-07T15:10:11.328Z</time></trkpt><trkpt lat="41.022143" lon="9.5157352"><ele>2.0</ele><time>2026-04-07T15:10:12.328Z</time></trkpt><trkpt lat="41.021945" lon="9.5155667"><ele>3.0</ele><time>2026-04-07T15:10:13.328Z</time></trkpt><trkpt lat="41.0217415" lon="9.5153938"><ele>4.0</ele><time>2026-04-07T15:10:14.327Z</time></trkpt><trkpt lat="41.0215369" lon="9.5152163"><ele>4.0</ele><time>2026-04-07T15:10:15.327Z</time></trkpt><trkpt lat="41.0213287" lon="9.5150406"><ele>4.0</ele><time>2026-04-07T15:10:16.327Z</time></trkpt><trkpt lat="41.0211299" lon="9.514874"><ele>4.0</ele><time>2026-04-07T15:10:17.328Z</time></trkpt><trkpt lat="41.0209371" lon="9.5147025"><ele>4.0</ele><time>2026-04-07T15:10:18.327Z</time></trkpt><trkpt lat="41.0207512" lon="9.5145244"><ele>4.5</ele><time>2026-04-07T15:10:19.328Z</time></trkpt><trkpt lat="41.020568" lon="9.5143392"><ele>5.0</ele><time>2026-04-07T15:10:20.328Z</time></trkpt><trkpt lat="41.0203918" lon="9.5141516"><ele>5.0</ele><time>2026-04-07T15:10:21.328Z</time></trkpt><trkpt lat="41.0202216" lon="9.5139723"><ele>5.0</ele><time>2026-04-07T15:10:22.327Z</time></trkpt><trkpt lat="41.0200501" lon="9.5137941"><ele>5.0</ele><time>2026-04-07T15:10:23.328Z</time></trkpt><trkpt lat="41.0198981" lon="9.513633"><ele>4.333333333333334</ele><time>2026-04-07T15:10:24.328Z</time></trkpt><trkpt lat="41.0197477" lon="9.5134602"><ele>3.666666666666667</ele><time>2026-04-07T15:10:25.327Z</time></trkpt><trkpt lat="41.0196142" lon="9.5132693"><ele>3.0</ele><time>2026-04-07T15:10:26.327Z</time></trkpt><trkpt lat="41.0194914" lon="9.5130525"><ele>3.666666666666667</ele><time>2026-04-07T15:10:27.328Z</time></trkpt><trkpt lat="41.0193802" lon="9.5128226"><ele>4.333333333333334</ele><time>2026-04-07T15:10:28.328Z</time></trkpt><trkpt lat="41.0192723" lon="9.5125849"><ele>5.0</ele><time>2026-04-07T15:10:29.328Z</time></trkpt><trkpt lat="41.0191579" lon="9.512345"><ele>5.0</ele><time>2026-04-07T15:10:30.328Z</time></trkpt><trkpt lat="41.0190429" lon="9.5121"><ele>5.0</ele><time>2026-04-07T15:10:31.328Z</time></trkpt><trkpt lat="41.0189167" lon="9.51185"><ele>5.0</ele><time>2026-04-07T15:10:32.328Z</time></trkpt><trkpt lat="41.0187761" lon="9.5116066"><ele>5.0</ele><time>2026-04-07T15:10:33.328Z</time></trkpt><trkpt lat="41.018629" lon="9.5113593"><ele>5.0</ele><time>2026-04-07T15:10:34.328Z</time></trkpt><trkpt lat="41.0184708" lon="9.5111138"><ele>3.5</ele><time>2026-04-07T15:10:35.328Z</time></trkpt><trkpt lat="41.0183073" lon="9.5108644"><ele>2.0</ele><time>2026-04-07T15:10:36.328Z</time></trkpt><trkpt lat="41.01814" lon="9.5106036"><ele>3.0</ele><time>2026-04-07T15:10:37.327Z</time></trkpt><trkpt lat="41.0179677" lon="9.5103369"><ele>4.0</ele><time>2026-04-07T15:10:38.328Z</time></trkpt><trkpt lat="41.0177894" lon="9.510066"><ele>4.0</ele><time>2026-04-07T15:10:39.328Z</time></trkpt><trkpt lat="41.0176072" lon="9.5097895"><ele>4.0</ele><time>2026-04-07T15:10:40.328Z</time></trkpt><trkpt lat="41.0174206" lon="9.5095058"><ele>3.0</ele><time>2026-04-07T15:10:41.328Z</time></trkpt><trkpt lat="41.0172263" lon="9.5092203"><ele>2.0</ele><time>2026-04-07T15:10:42.328Z</time></trkpt><trkpt lat="41.0170297" lon="9.5089346"><ele>1.5</ele><time>2026-04-07T15:10:43.327Z</time></trkpt><trkpt lat="41.016833" lon="9.5086497"><ele>1.0</ele><time>2026-04-07T15:10:44.328Z</time></trkpt><trkpt lat="41.0166238" lon="9.5083768"><ele>1.0</ele><time>2026-04-07T15:10:45.328Z</time></trkpt><trkpt lat="41.0164074" lon="9.5081129"><ele>1.0</ele><time>2026-04-07T15:10:46.328Z</time></trkpt><trkpt lat="41.0161807" lon="9.5078533"><ele>0.5</ele><time>2026-04-07T15:10:47.328Z</time></trkpt><trkpt lat="41.0159516" lon="9.5075886"><ele>0.0</ele><time>2026-04-07T15:10:48.328Z</time></trkpt><trkpt lat="41.0157259" lon="9.5073299"><ele>0.0</ele><time>2026-04-07T15:10:49.327Z</time></trkpt><trkpt lat="41.0155113" lon="9.5070815"><ele>0.0</ele><time>2026-04-07T15:10:50.328Z</time></trkpt><trkpt lat="41.0153007" lon="9.5068407"><ele>0.5</ele><time>2026-04-07T15:10:51.327Z</time></trkpt><trkpt lat="41.0150942" lon="9.5066048"><ele>1.0</ele><time>2026-04-07T15:10:52.327Z</time></trkpt><trkpt lat="41.0148909" lon="9.5063743"><ele>2.5</ele><time>2026-04-07T15:10:53.328Z</time></trkpt><trkpt lat="41.0146953" lon="9.5061472"><ele>4.0</ele><time>2026-04-07T15:10:54.328Z</time></trkpt><trkpt lat="41.0145084" lon="9.505933"><ele>4.0</ele><time>2026-04-07T15:10:55.328Z</time></trkpt><trkpt lat="41.0143283" lon="9.5057288"><ele>4.0</ele><time>2026-04-07T15:10:56.328Z</time></trkpt><trkpt lat="41.0141568" lon="9.5055346"><ele>4.5</ele><time>2026-04-07T15:10:57.328Z</time></trkpt><trkpt lat="41.0139822" lon="9.5053395"><ele>5.0</ele><time>2026-04-07T15:10:58.328Z</time></trkpt><trkpt lat="41.0137952" lon="9.5051529"><ele>5.0</ele><time>2026-04-07T15:10:59.327Z</time></trkpt><trkpt lat="41.0135962" lon="9.5049747"><ele>5.0</ele><time>2026-04-07T15:11:00.328Z</time></trkpt><trkpt lat="41.0134021" lon="9.5048056"><ele>4.5</ele><time>2026-04-07T15:11:01.328Z</time></trkpt><trkpt lat="41.0132115" lon="9.5046352"><ele>4.0</ele><time>2026-04-07T15:11:02.328Z</time></trkpt><trkpt lat="41.0130205" lon="9.5044688"><ele>4.0</ele><time>2026-04-07T15:11:03.328Z</time></trkpt><trkpt lat="41.0128321" lon="9.5042926"><ele>4.0</ele><time>2026-04-07T15:11:04.327Z</time></trkpt><trkpt lat="41.012646" lon="9.504105"><ele>3.0</ele><time>2026-04-07T15:11:05.328Z</time></trkpt><trkpt lat="41.0124649" lon="9.5039058"><ele>2.0</ele><time>2026-04-07T15:11:06.328Z</time></trkpt><trkpt lat="41.01229" lon="9.5037079"><ele>2.0</ele><time>2026-04-07T15:11:07.327Z</time></trkpt><trkpt lat="41.0121184" lon="9.5035121"><ele>2.0</ele><time>2026-04-07T15:11:08.328Z</time></trkpt><trkpt lat="41.0119453" lon="9.5033263"><ele>2.0</ele><time>2026-04-07T15:11:09.328Z</time></trkpt><trkpt lat="41.0117795" lon="9.5031486"><ele>1.6666666666666665</ele><time>2026-04-07T15:11:10.327Z</time></trkpt><trkpt lat="41.0116255" lon="9.5029731"><ele>1.3333333333333333</ele><time>2026-04-07T15:11:11.327Z</time></trkpt><trkpt lat="41.0114825" lon="9.5027968"><ele>1.0</ele><time>2026-04-07T15:11:12.327Z</time></trkpt><trkpt lat="41.0113601" lon="9.5025959"><ele>1.0</ele><time>2026-04-07T15:11:13.328Z</time></trkpt><trkpt lat="41.011261" lon="9.5023757"><ele>1.0</ele><time>2026-04-07T15:11:14.328Z</time></trkpt><trkpt lat="41.0111767" lon="9.5021398"><ele>1.0</ele><time>2026-04-07T15:11:15.327Z</time></trkpt><trkpt lat="41.0111042" lon="9.501916"><ele>1.0</ele><time>2026-04-07T15:11:16.328Z</time></trkpt><trkpt lat="41.0110258" lon="9.5017052"><ele>1.0</ele><time>2026-04-07T15:11:17.328Z</time></trkpt><trkpt lat="41.0109378" lon="9.5015134"><ele>1.0</ele><time>2026-04-07T15:11:18.328Z</time></trkpt><trkpt lat="41.0108258" lon="9.5013616"><ele>1.0</ele><time>2026-04-07T15:11:19.328Z</time></trkpt><trkpt lat="41.010688" lon="9.5012544"><ele>1.0</ele><time>2026-04-07T15:11:20.327Z</time></trkpt><trkpt lat="41.0105344" lon="9.5011962"><ele>1.0</ele><time>2026-04-07T15:11:21.327Z</time></trkpt><trkpt lat="41.0103759" lon="9.5011852"><ele>1.0</ele><time>2026-04-07T15:11:22.327Z</time></trkpt><trkpt lat="41.0102213" lon="9.5012394"><ele>1.0</ele><time>2026-04-07T15:11:23.328Z</time></trkpt><trkpt lat="41.010063" lon="9.5013503"><ele>1.0</ele><time>2026-04-07T15:11:24.328Z</time></trkpt><trkpt lat="41.0098994" lon="9.5014871"><ele>2.3333333333333335</ele><time>2026-04-07T15:11:25.327Z</time></trkpt><trkpt lat="41.0097322" lon="9.5016398"><ele>3.666666666666667</ele><time>2026-04-07T15:11:26.328Z</time></trkpt><trkpt lat="41.0095552" lon="9.5017997"><ele>5.0</ele><time>2026-04-07T15:11:27.328Z</time></trkpt><trkpt lat="41.0093719" lon="9.5019663"><ele>4.0</ele><time>2026-04-07T15:11:28.328Z</time></trkpt><trkpt lat="41.0091856" lon="9.5021385"><ele>3.0</ele><time>2026-04-07T15:11:29.328Z</time></trkpt><trkpt lat="41.0089943" lon="9.5023135"><ele>3.0</ele><time>2026-04-07T15:11:30.327Z</time></trkpt><trkpt lat="41.0088038" lon="9.502491"><ele>3.0</ele><time>2026-04-07T15:11:31.328Z</time></trkpt><trkpt lat="41.0086239" lon="9.502658"><ele>3.0</ele><time>2026-04-07T15:11:32.328Z</time></trkpt><trkpt lat="41.0084495" lon="9.5028166"><ele>3.0</ele><time>2026-04-07T15:11:33.328Z</time></trkpt><trkpt lat="41.0082824" lon="9.502966"><ele>3.0</ele><time>2026-04-07T15:11:34.328Z</time></trkpt><trkpt lat="41.0081229" lon="9.5031168"><ele>2.6666666666666665</ele><time>2026-04-07T15:11:35.328Z</time></trkpt><trkpt lat="41.0079571" lon="9.5032713"><ele>2.333333333333333</ele><time>2026-04-07T15:11:36.328Z</time></trkpt><trkpt lat="41.0077753" lon="9.5034167"><ele>2.0</ele><time>2026-04-07T15:11:37.328Z</time></trkpt><trkpt lat="41.0075701" lon="9.5035439"><ele>2.0</ele><time>2026-04-07T15:11:38.328Z</time></trkpt><trkpt lat="41.0073525" lon="9.503656"><ele>2.0</ele><time>2026-04-07T15:11:39.328Z</time></trkpt><trkpt lat="41.0071271" lon="9.503763"><ele>2.0</ele><time>2026-04-07T15:11:40.327Z</time></trkpt><trkpt lat="41.0068995" lon="9.5038692"><ele>2.0</ele><time>2026-04-07T15:11:41.328Z</time></trkpt><trkpt lat="41.0066776" lon="9.5039623"><ele>2.333333333333333</ele><time>2026-04-07T15:11:42.328Z</time></trkpt><trkpt lat="41.006471" lon="9.5040514"><ele>2.6666666666666665</ele><time>2026-04-07T15:11:43.328Z</time></trkpt><trkpt lat="41.0062756" lon="9.5041353"><ele>3.0</ele><time>2026-04-07T15:11:44.327Z</time></trkpt><trkpt lat="41.0060967" lon="9.5042177"><ele>3.0</ele><time>2026-04-07T15:11:45.328Z</time></trkpt><trkpt lat="41.0059294" lon="9.5042989"><ele>3.0</ele><time>2026-04-07T15:11:46.328Z</time></trkpt><trkpt lat="41.0057679" lon="9.5043726"><ele>3.0</ele><time>2026-04-07T15:11:47.328Z</time></trkpt><trkpt lat="41.0055987" lon="9.5044423"><ele>3.0</ele><time>2026-04-07T15:11:48.327Z</time></trkpt><trkpt lat="41.0054236" lon="9.504503"><ele>3.0</ele><time>2026-04-07T15:11:49.328Z</time></trkpt><trkpt lat="41.0052425" lon="9.5045434"><ele>3.0</ele><time>2026-04-07T15:11:50.328Z</time></trkpt><trkpt lat="41.0050577" lon="9.5045572"><ele>3.666666666666667</ele><time>2026-04-07T15:11:51.328Z</time></trkpt><trkpt lat="41.004873" lon="9.5045551"><ele>4.333333333333334</ele><time>2026-04-07T15:11:52.328Z</time></trkpt><trkpt lat="41.0046891" lon="9.504561"><ele>5.0</ele><time>2026-04-07T15:11:53.327Z</time></trkpt><trkpt lat="41.0045009" lon="9.5045656"><ele>5.0</ele><time>2026-04-07T15:11:54.327Z</time></trkpt><trkpt lat="41.0043111" lon="9.5045647"><ele>5.0</ele><time>2026-04-07T15:11:55.328Z</time></trkpt><trkpt lat="41.0041226" lon="9.5045608"><ele>5.0</ele><time>2026-04-07T15:11:56.328Z</time></trkpt><trkpt lat="41.0039436" lon="9.5045647"><ele>5.0</ele><time>2026-04-07T15:11:57.328Z</time></trkpt><trkpt lat="41.0037652" lon="9.5045671"><ele>5.0</ele><time>2026-04-07T15:11:58.328Z</time></trkpt><trkpt lat="41.0035857" lon="9.5045699"><ele>5.0</ele><time>2026-04-07T15:11:59.327Z</time></trkpt><trkpt lat="41.0034084" lon="9.504573"><ele>5.0</ele><time>2026-04-07T15:12:00.328Z</time></trkpt><trkpt lat="41.0032356" lon="9.5045749"><ele>5.0</ele><time>2026-04-07T15:12:01.327Z</time></trkpt><trkpt lat="41.0030643" lon="9.5045805"><ele>5.0</ele><time>2026-04-07T15:12:02.327Z</time></trkpt><trkpt lat="41.0028885" lon="9.5045938"><ele>4.666666666666667</ele><time>2026-04-07T15:12:03.328Z</time></trkpt><trkpt lat="41.0026955" lon="9.5046221"><ele>4.333333333333333</ele><time>2026-04-07T15:12:04.328Z</time></trkpt><trkpt lat="41.0024825" lon="9.5046649"><ele>4.0</ele><time>2026-04-07T15:12:05.328Z</time></trkpt><trkpt lat="41.0022456" lon="9.5047164"><ele>4.0</ele><time>2026-04-07T15:12:06.327Z</time></trkpt><trkpt lat="41.0019898" lon="9.5047648"><ele>4.0</ele><time>2026-04-07T15:12:07.328Z</time></trkpt><trkpt lat="41.0017318" lon="9.5048034"><ele>4.0</ele><time>2026-04-07T15:12:08.328Z</time></trkpt><trkpt lat="41.0014903" lon="9.5048298"><ele>4.0</ele><time>2026-04-07T15:12:09.328Z</time></trkpt><trkpt lat="41.001259" lon="9.5048584"><ele>4.0</ele><time>2026-04-07T15:12:10.328Z</time></trkpt><trkpt lat="41.0010384" lon="9.5048927"><ele>4.0</ele><time>2026-04-07T15:12:11.327Z</time></trkpt><trkpt lat="41.000832" lon="9.5049274"><ele>4.0</ele><time>2026-04-07T15:12:12.328Z</time></trkpt><trkpt lat="41.0006337" lon="9.5049615"><ele>3.6666666666666665</ele><time>2026-04-07T15:12:13.327Z</time></trkpt><trkpt lat="41.0004382" lon="9.504998"><ele>3.333333333333333</ele><time>2026-04-07T15:12:14.328Z</time></trkpt><trkpt lat="41.0002495" lon="9.5050312"><ele>3.0</ele><time>2026-04-07T15:12:15.328Z</time></trkpt><trkpt lat="41.0000698" lon="9.5050576"><ele>3.0</ele><time>2026-04-07T15:12:16.328Z</time></trkpt><trkpt lat="40.9999016" lon="9.505086"><ele>3.0</ele><time>2026-04-07T15:12:17.328Z</time></trkpt><trkpt lat="40.9997414" lon="9.5051113"><ele>3.0</ele><time>2026-04-07T15:12:18.328Z</time></trkpt><trkpt lat="40.9995856" lon="9.5051386"><ele>3.0</ele><time>2026-04-07T15:12:19.328Z</time></trkpt><trkpt lat="40.9994307" lon="9.5051653"><ele>3.0</ele><time>2026-04-07T15:12:20.328Z</time></trkpt><trkpt lat="40.9992694" lon="9.5051893"><ele>3.0</ele><time>2026-04-07T15:12:21.327Z</time></trkpt><trkpt lat="40.9991156" lon="9.5052125"><ele>4.666666666666666</ele><time>2026-04-07T15:12:22.328Z</time></trkpt><trkpt lat="40.9989628" lon="9.5052371"><ele>6.333333333333333</ele><time>2026-04-07T15:12:23.328Z</time></trkpt><trkpt lat="40.9988129" lon="9.5052444"><ele>8.0</ele><time>2026-04-07T15:12:24.328Z</time></trkpt><trkpt lat="40.9986598" lon="9.5052179"><ele>8.0</ele><time>2026-04-07T15:12:25.328Z</time></trkpt><trkpt lat="40.9985053" lon="9.5051661"><ele>8.0</ele><time>2026-04-07T15:12:26.328Z</time></trkpt><trkpt lat="40.998355" lon="9.5050847"><ele>8.0</ele><time>2026-04-07T15:12:27.328Z</time></trkpt><trkpt lat="40.9982077" lon="9.5049838"><ele>8.0</ele><time>2026-04-07T15:12:28.327Z</time></trkpt><trkpt lat="40.9980538" lon="9.5048677"><ele>8.0</ele><time>2026-04-07T15:12:29.328Z</time></trkpt><trkpt lat="40.9979048" lon="9.5047494"><ele>8.0</ele><time>2026-04-07T15:12:30.328Z</time></trkpt><trkpt lat="40.9977331" lon="9.5046266"><ele>8.0</ele><time>2026-04-07T15:12:31.328Z</time></trkpt><trkpt lat="40.9975428" lon="9.5044764"><ele>8.0</ele><time>2026-04-07T15:12:32.328Z</time></trkpt><trkpt lat="40.9973544" lon="9.5043093"><ele>8.0</ele><time>2026-04-07T15:12:33.328Z</time></trkpt><trkpt lat="40.9971562" lon="9.5041521"><ele>8.0</ele><time>2026-04-07T15:12:34.328Z</time></trkpt><trkpt lat="40.9969537" lon="9.5040176"><ele>8.0</ele><time>2026-04-07T15:12:35.328Z</time></trkpt><trkpt lat="40.996767" lon="9.5038946"><ele>8.0</ele><time>2026-04-07T15:12:36.328Z</time></trkpt><trkpt lat="40.9965891" lon="9.5037807"><ele>8.333333333333332</ele><time>2026-04-07T15:12:37.328Z</time></trkpt><trkpt lat="40.9964175" lon="9.5036743"><ele>8.666666666666666</ele><time>2026-04-07T15:12:38.328Z</time></trkpt><trkpt lat="40.9962493" lon="9.5035714"><ele>9.0</ele><time>2026-04-07T15:12:39.328Z</time></trkpt><trkpt lat="40.9960846" lon="9.5034706"><ele>9.0</ele><time>2026-04-07T15:12:40.328Z</time></trkpt><trkpt lat="40.9959197" lon="9.5033683"><ele>9.0</ele><time>2026-04-07T15:12:41.328Z</time></trkpt><trkpt lat="40.9957597" lon="9.503265"><ele>9.0</ele><time>2026-04-07T15:12:42.327Z</time></trkpt><trkpt lat="40.9956115" lon="9.5031727"><ele>9.666666666666666</ele><time>2026-04-07T15:12:43.328Z</time></trkpt><trkpt lat="40.9954606" lon="9.5030791"><ele>10.333333333333332</ele><time>2026-04-07T15:12:44.328Z</time></trkpt><trkpt lat="40.9953165" lon="9.5029959"><ele>11.0</ele><time>2026-04-07T15:12:45.328Z</time></trkpt><trkpt lat="40.9951716" lon="9.5029123"><ele>11.333333333333332</ele><time>2026-04-07T15:12:46.328Z</time></trkpt><trkpt lat="40.9950312" lon="9.5028244"><ele>11.666666666666666</ele><time>2026-04-07T15:12:47.328Z</time></trkpt><trkpt lat="40.9948869" lon="9.5027272"><ele>12.0</ele><time>2026-04-07T15:12:48.328Z</time></trkpt><trkpt lat="40.9947397" lon="9.5026165"><ele>12.0</ele><time>2026-04-07T15:12:49.327Z</time></trkpt><trkpt lat="40.9945902" lon="9.5024829"><ele>12.0</ele><time>2026-04-07T15:12:50.328Z</time></trkpt><trkpt lat="40.994444" lon="9.5023251"><ele>12.0</ele><time>2026-04-07T15:12:51.327Z</time></trkpt><trkpt lat="40.9943044" lon="9.5021613"><ele>12.0</ele><time>2026-04-07T15:12:52.328Z</time></trkpt><trkpt lat="40.9941746" lon="9.5019982"><ele>12.0</ele><time>2026-04-07T15:12:53.327Z</time></trkpt><trkpt lat="40.9940488" lon="9.5018398"><ele>12.0</ele><time>2026-04-07T15:12:54.328Z</time></trkpt><trkpt lat="40.9939305" lon="9.5016883"><ele>12.0</ele><time>2026-04-07T15:12:55.327Z</time></trkpt><trkpt lat="40.9938216" lon="9.5015359"><ele>12.0</ele><time>2026-04-07T15:12:56.328Z</time></trkpt><trkpt lat="40.9937284" lon="9.5013869"><ele>12.0</ele><time>2026-04-07T15:12:57.327Z</time></trkpt><trkpt lat="40.9936398" lon="9.5012247"><ele>12.5</ele><time>2026-04-07T15:12:58.328Z</time></trkpt><trkpt lat="40.9935574" lon="9.5010634"><ele>13.0</ele><time>2026-04-07T15:12:59.328Z</time></trkpt><trkpt lat="40.9934784" lon="9.5009109"><ele>13.5</ele><time>2026-04-07T15:13:00.328Z</time></trkpt><trkpt lat="40.9933884" lon="9.5007661"><ele>14.0</ele><time>2026-04-07T15:13:01.327Z</time></trkpt><trkpt lat="40.9932909" lon="9.500639"><ele>14.0</ele><time>2026-04-07T15:13:02.328Z</time></trkpt><trkpt lat="40.9931789" lon="9.5005324"><ele>14.0</ele><time>2026-04-07T15:13:03.328Z</time></trkpt><trkpt lat="40.9930548" lon="9.5004533"><ele>14.0</ele><time>2026-04-07T15:13:04.328Z</time></trkpt><trkpt lat="40.9929279" lon="9.5003948"><ele>14.0</ele><time>2026-04-07T15:13:05.328Z</time></trkpt><trkpt lat="40.9927907" lon="9.5003624"><ele>14.25</ele><time>2026-04-07T15:13:06.328Z</time></trkpt><trkpt lat="40.9926503" lon="9.5003484"><ele>14.5</ele><time>2026-04-07T15:13:07.327Z</time></trkpt><trkpt lat="40.9925113" lon="9.5003521"><ele>14.75</ele><time>2026-04-07T15:13:08.327Z</time></trkpt><trkpt lat="40.9923716" lon="9.5003666"><ele>15.0</ele><time>2026-04-07T15:13:09.328Z</time></trkpt><trkpt lat="40.9922336" lon="9.5003797"><ele>15.25</ele><time>2026-04-07T15:13:10.328Z</time></trkpt><trkpt lat="40.9920988" lon="9.5003956"><ele>15.5</ele><time>2026-04-07T15:13:11.327Z</time></trkpt><trkpt lat="40.9919702" lon="9.5004112"><ele>15.75</ele><time>2026-04-07T15:13:12.328Z</time></trkpt><trkpt lat="40.9918496" lon="9.5004205"><ele>16.0</ele><time>2026-04-07T15:13:13.328Z</time></trkpt><trkpt lat="40.9917384" lon="9.5004237"><ele>16.0</ele><time>2026-04-07T15:13:14.328Z</time></trkpt><trkpt lat="40.9916379" lon="9.5004255"><ele>16.0</ele><time>2026-04-07T15:13:15.328Z</time></trkpt><trkpt lat="40.9915488" lon="9.5004323"><ele>16.0</ele><time>2026-04-07T15:13:16.328Z</time></trkpt><trkpt lat="40.9914776" lon="9.5004293"><ele>16.0</ele><time>2026-04-07T15:13:17.328Z</time></trkpt><trkpt lat="40.9913918" lon="9.5004131"><ele>16.0</ele><time>2026-04-07T15:13:19.328Z</time></trkpt><trkpt lat="40.9912746" lon="9.500445"><ele>15.4</ele><time>2026-04-07T15:13:28.328Z</time></trkpt><trkpt lat="40.9912055" lon="9.5005121"><ele>14.8</ele><time>2026-04-07T15:13:29.328Z</time></trkpt><trkpt lat="40.9911563" lon="9.5006166"><ele>14.200000000000001</ele><time>2026-04-07T15:13:30.328Z</time></trkpt><trkpt lat="40.9911358" lon="9.5007608"><ele>13.600000000000001</ele><time>2026-04-07T15:13:31.327Z</time></trkpt><trkpt lat="40.9911467" lon="9.5009223"><ele>13.0</ele><time>2026-04-07T15:13:32.327Z</time></trkpt><trkpt lat="40.9911628" lon="9.5011098"><ele>13.0</ele><time>2026-04-07T15:13:33.328Z</time></trkpt><trkpt lat="40.9911644" lon="9.5013251"><ele>13.0</ele><time>2026-04-07T15:13:34.328Z</time></trkpt><trkpt lat="40.9911624" lon="9.5015599"><ele>13.0</ele><time>2026-04-07T15:13:35.328Z</time></trkpt><trkpt lat="40.9911618" lon="9.5017923"><ele>13.0</ele><time>2026-04-07T15:13:36.328Z</time></trkpt><trkpt lat="40.9911598" lon="9.5020456"><ele>13.0</ele><time>2026-04-07T15:13:37.328Z</time></trkpt><trkpt lat="40.9911549" lon="9.5023128"><ele>13.0</ele><time>2026-04-07T15:13:38.327Z</time></trkpt><trkpt lat="40.9911513" lon="9.5025931"><ele>13.666666666666666</ele><time>2026-04-07T15:13:39.328Z</time></trkpt><trkpt lat="40.9911479" lon="9.5028838"><ele>14.333333333333332</ele><time>2026-04-07T15:13:40.328Z</time></trkpt><trkpt lat="40.9911442" lon="9.5031581"><ele>15.0</ele><time>2026-04-07T15:13:41.328Z</time></trkpt><trkpt lat="40.99114" lon="9.5034402"><ele>15.666666666666668</ele><time>2026-04-07T15:13:42.328Z</time></trkpt><trkpt lat="40.9911333" lon="9.5037303"><ele>16.333333333333336</ele><time>2026-04-07T15:13:43.327Z</time></trkpt><trkpt lat="40.9911231" lon="9.5040309"><ele>17.0</ele><time>2026-04-07T15:13:44.327Z</time></trkpt><trkpt lat="40.9911182" lon="9.5043412"><ele>21.0</ele><time>2026-04-07T15:13:45.328Z</time></trkpt><trkpt lat="40.9911119" lon="9.5046631"><ele>25.0</ele><time>2026-04-07T15:13:46.328Z</time></trkpt><trkpt lat="40.9911051" lon="9.5049906"><ele>25.0</ele><time>2026-04-07T15:13:47.327Z</time></trkpt><trkpt lat="40.9910989" lon="9.5053046"><ele>25.0</ele><time>2026-04-07T15:13:48.327Z</time></trkpt><trkpt lat="40.9910947" lon="9.5056182"><ele>26.0</ele><time>2026-04-07T15:13:49.328Z</time></trkpt><trkpt lat="40.9910947" lon="9.5059319"><ele>27.0</ele><time>2026-04-07T15:13:50.328Z</time></trkpt><trkpt lat="40.9910974" lon="9.5062418"><ele>27.5</ele><time>2026-04-07T15:13:51.328Z</time></trkpt><trkpt lat="40.9911131" lon="9.5065508"><ele>28.0</ele><time>2026-04-07T15:13:52.327Z</time></trkpt><trkpt lat="40.9911495" lon="9.5068602"><ele>29.5</ele><time>2026-04-07T15:13:53.328Z</time></trkpt><trkpt lat="40.9912087" lon="9.5071673"><ele>31.0</ele><time>2026-04-07T15:13:54.327Z</time></trkpt><trkpt lat="40.9912894" lon="9.5074663"><ele>31.0</ele><time>2026-04-07T15:13:55.328Z</time></trkpt><trkpt lat="40.9913928" lon="9.507759"><ele>31.0</ele><time>2026-04-07T15:13:56.328Z</time></trkpt><trkpt lat="40.9915181" lon="9.5080353"><ele>32.0</ele><time>2026-04-07T15:13:57.328Z</time></trkpt><trkpt lat="40.9916636" lon="9.5082935"><ele>33.0</ele><time>2026-04-07T15:13:58.328Z</time></trkpt><trkpt lat="40.9918272" lon="9.5085458"><ele>36.5</ele><time>2026-04-07T15:13:59.328Z</time></trkpt><trkpt lat="40.9919998" lon="9.5087896"><ele>40.0</ele><time>2026-04-07T15:14:00.328Z</time></trkpt><trkpt lat="40.9921727" lon="9.5090279"><ele>40.0</ele><time>2026-04-07T15:14:01.328Z</time></trkpt><trkpt lat="40.9923463" lon="9.509268"><ele>40.0</ele><time>2026-04-07T15:14:02.328Z</time></trkpt><trkpt lat="40.9925222" lon="9.5095083"><ele>44.5</ele><time>2026-04-07T15:14:03.328Z</time></trkpt><trkpt lat="40.9926966" lon="9.5097478"><ele>49.0</ele><time>2026-04-07T15:14:04.328Z</time></trkpt><trkpt lat="40.9928703" lon="9.5099873"><ele>49.0</ele><time>2026-04-07T15:14:05.327Z</time></trkpt><trkpt lat="40.9930411" lon="9.5102232"><ele>49.0</ele><time>2026-04-07T15:14:06.328Z</time></trkpt><trkpt lat="40.9932081" lon="9.5104671"><ele>50.5</ele><time>2026-04-07T15:14:07.328Z</time></trkpt><trkpt lat="40.9933686" lon="9.510715"><ele>52.0</ele><time>2026-04-07T15:14:08.328Z</time></trkpt><trkpt lat="40.9935185" lon="9.5109798"><ele>54.0</ele><time>2026-04-07T15:14:09.328Z</time></trkpt><trkpt lat="40.9936503" lon="9.51127"><ele>56.0</ele><time>2026-04-07T15:14:10.328Z</time></trkpt><trkpt lat="40.9937658" lon="9.5115733"><ele>56.0</ele><time>2026-04-07T15:14:11.328Z</time></trkpt><trkpt lat="40.9938724" lon="9.5118881"><ele>56.0</ele><time>2026-04-07T15:14:12.327Z</time></trkpt><trkpt lat="40.9939759" lon="9.5122045"><ele>57.5</ele><time>2026-04-07T15:14:13.328Z</time></trkpt><trkpt lat="40.9940803" lon="9.5125286"><ele>59.0</ele><time>2026-04-07T15:14:14.328Z</time></trkpt><trkpt lat="40.9941901" lon="9.5128503"><ele>65.5</ele><time>2026-04-07T15:14:15.327Z</time></trkpt><trkpt lat="40.9942997" lon="9.5131719"><ele>72.0</ele><time>2026-04-07T15:14:16.328Z</time></trkpt><trkpt lat="40.9944083" lon="9.5134964"><ele>71.0</ele><time>2026-04-07T15:14:17.328Z</time></trkpt><trkpt lat="40.9945199" lon="9.5138172"><ele>70.0</ele><time>2026-04-07T15:14:18.328Z</time></trkpt><trkpt lat="40.9946279" lon="9.5141416"><ele>70.0</ele><time>2026-04-07T15:14:19.327Z</time></trkpt><trkpt lat="40.9947358" lon="9.5144651"><ele>70.0</ele><time>2026-04-07T15:14:20.328Z</time></trkpt><trkpt lat="40.9948381" lon="9.5147913"><ele>71.0</ele><time>2026-04-07T15:14:21.328Z</time></trkpt><trkpt lat="40.994945" lon="9.5151173"><ele>72.0</ele><time>2026-04-07T15:14:22.328Z</time></trkpt><trkpt lat="40.9950549" lon="9.5154399"><ele>72.0</ele><time>2026-04-07T15:14:23.328Z</time></trkpt><trkpt lat="40.995165" lon="9.5157616"><ele>72.0</ele><time>2026-04-07T15:14:24.327Z</time></trkpt><trkpt lat="40.9952765" lon="9.5160848"><ele>73.5</ele><time>2026-04-07T15:14:25.327Z</time></trkpt><trkpt lat="40.9953799" lon="9.5163932"><ele>75.0</ele><time>2026-04-07T15:14:26.327Z</time></trkpt><trkpt lat="40.9954761" lon="9.5166874"><ele>75.0</ele><time>2026-04-07T15:14:27.328Z</time></trkpt><trkpt lat="40.9955735" lon="9.5169792"><ele>75.0</ele><time>2026-04-07T15:14:28.328Z</time></trkpt><trkpt lat="40.9956689" lon="9.5172749"><ele>76.5</ele><time>2026-04-07T15:14:29.328Z</time></trkpt><trkpt lat="40.9957541" lon="9.5175758"><ele>78.0</ele><time>2026-04-07T15:14:30.327Z</time></trkpt><trkpt lat="40.9958367" lon="9.5178799"><ele>80.5</ele><time>2026-04-07T15:14:31.328Z</time></trkpt><trkpt lat="40.9959195" lon="9.5181957"><ele>83.0</ele><time>2026-04-07T15:14:32.328Z</time></trkpt><trkpt lat="40.9959988" lon="9.5185248"><ele>82.0</ele><time>2026-04-07T15:14:33.328Z</time></trkpt><trkpt lat="40.9960789" lon="9.5188643"><ele>81.0</ele><time>2026-04-07T15:14:34.328Z</time></trkpt><trkpt lat="40.9961603" lon="9.5192139"><ele>78.0</ele><time>2026-04-07T15:14:35.328Z</time></trkpt><trkpt lat="40.9962453" lon="9.519572"><ele>75.0</ele><time>2026-04-07T15:14:36.328Z</time></trkpt><trkpt lat="40.9963277" lon="9.5199285"><ele>75.0</ele><time>2026-04-07T15:14:37.327Z</time></trkpt><trkpt lat="40.9964047" lon="9.5202665"><ele>75.0</ele><time>2026-04-07T15:14:38.328Z</time></trkpt><trkpt lat="40.9964795" lon="9.5205903"><ele>76.5</ele><time>2026-04-07T15:14:39.328Z</time></trkpt><trkpt lat="40.9965492" lon="9.5208985"><ele>78.0</ele><time>2026-04-07T15:14:40.328Z</time></trkpt><trkpt lat="40.9966173" lon="9.5211969"><ele>76.0</ele><time>2026-04-07T15:14:41.328Z</time></trkpt><trkpt lat="40.9966892" lon="9.5214938"><ele>74.0</ele><time>2026-04-07T15:14:42.328Z</time></trkpt><trkpt lat="40.996758" lon="9.5217933"><ele>74.33333333333334</ele><time>2026-04-07T15:14:43.327Z</time></trkpt><trkpt lat="40.9968266" lon="9.5220855"><ele>74.66666666666667</ele><time>2026-04-07T15:14:44.327Z</time></trkpt><trkpt lat="40.9969011" lon="9.5223563"><ele>75.0</ele><time>2026-04-07T15:14:45.328Z</time></trkpt><trkpt lat="40.9969831" lon="9.5226009"><ele>75.0</ele><time>2026-04-07T15:14:46.328Z</time></trkpt><trkpt lat="40.9970687" lon="9.5228305"><ele>75.0</ele><time>2026-04-07T15:14:47.327Z</time></trkpt><trkpt lat="40.9971564" lon="9.5230573"><ele>75.0</ele><time>2026-04-07T15:14:48.328Z</time></trkpt><trkpt lat="40.9972468" lon="9.5232818"><ele>74.0</ele><time>2026-04-07T15:14:49.328Z</time></trkpt><trkpt lat="40.9973346" lon="9.5235054"><ele>73.0</ele><time>2026-04-07T15:14:50.327Z</time></trkpt><trkpt lat="40.9974231" lon="9.5237274"><ele>72.0</ele><time>2026-04-07T15:14:51.328Z</time></trkpt><trkpt lat="40.9975114" lon="9.5239452"><ele>71.33333333333333</ele><time>2026-04-07T15:14:52.327Z</time></trkpt><trkpt lat="40.9976019" lon="9.5241571"><ele>70.66666666666666</ele><time>2026-04-07T15:14:53.328Z</time></trkpt><trkpt lat="40.9976873" lon="9.5243669"><ele>70.0</ele><time>2026-04-07T15:14:54.328Z</time></trkpt><trkpt lat="40.9977702" lon="9.524569"><ele>67.66666666666666</ele><time>2026-04-07T15:14:55.328Z</time></trkpt><trkpt lat="40.9978446" lon="9.5247671"><ele>65.33333333333333</ele><time>2026-04-07T15:14:56.327Z</time></trkpt><trkpt lat="40.997922" lon="9.5249696"><ele>63.0</ele><time>2026-04-07T15:14:57.328Z</time></trkpt><trkpt lat="40.9980038" lon="9.5251723"><ele>63.0</ele><time>2026-04-07T15:14:58.328Z</time></trkpt><trkpt lat="40.9980826" lon="9.5253683"><ele>63.0</ele><time>2026-04-07T15:14:59.328Z</time></trkpt><trkpt lat="40.9981615" lon="9.5255624"><ele>63.0</ele><time>2026-04-07T15:15:00.327Z</time></trkpt><trkpt lat="40.9982381" lon="9.525755"><ele>62.66666666666667</ele><time>2026-04-07T15:15:01.328Z</time></trkpt><trkpt lat="40.9983086" lon="9.5259489"><ele>62.333333333333336</ele><time>2026-04-07T15:15:02.328Z</time></trkpt><trkpt lat="40.9983796" lon="9.526149"><ele>62.0</ele><time>2026-04-07T15:15:03.327Z</time></trkpt><trkpt lat="40.9984357" lon="9.5263544"><ele>61.0</ele><time>2026-04-07T15:15:04.328Z</time></trkpt><trkpt lat="40.9984863" lon="9.5265712"><ele>60.0</ele><time>2026-04-07T15:15:05.328Z</time></trkpt><trkpt lat="40.998533" lon="9.5267965"><ele>59.0</ele><time>2026-04-07T15:15:06.328Z</time></trkpt><trkpt lat="40.998578" lon="9.5270325"><ele>56.333333333333336</ele><time>2026-04-07T15:15:07.327Z</time></trkpt><trkpt lat="40.9986189" lon="9.5272673"><ele>53.66666666666667</ele><time>2026-04-07T15:15:08.328Z</time></trkpt><trkpt lat="40.9986616" lon="9.5275078"><ele>51.0</ele><time>2026-04-07T15:15:09.328Z</time></trkpt><trkpt lat="40.9987049" lon="9.5277494"><ele>50.33333333333333</ele><time>2026-04-07T15:15:10.328Z</time></trkpt><trkpt lat="40.9987473" lon="9.528"><ele>49.666666666666664</ele><time>2026-04-07T15:15:11.328Z</time></trkpt><trkpt lat="40.9987949" lon="9.5282532"><ele>49.0</ele><time>2026-04-07T15:15:12.327Z</time></trkpt><trkpt lat="40.9988426" lon="9.5285314"><ele>49.0</ele><time>2026-04-07T15:15:13.327Z</time></trkpt><trkpt lat="40.9989046" lon="9.5288342"><ele>49.0</ele><time>2026-04-07T15:15:14.328Z</time></trkpt><trkpt lat="40.9989639" lon="9.529162"><ele>49.0</ele><time>2026-04-07T15:15:15.328Z</time></trkpt><trkpt lat="40.9990172" lon="9.5295001"><ele>49.0</ele><time>2026-04-07T15:15:16.328Z</time></trkpt><trkpt lat="40.9990634" lon="9.5298253"><ele>48.5</ele><time>2026-04-07T15:15:17.328Z</time></trkpt><trkpt lat="40.9991145" lon="9.5301338"><ele>48.0</ele><time>2026-04-07T15:15:18.328Z</time></trkpt><trkpt lat="40.9991533" lon="9.5304302"><ele>49.0</ele><time>2026-04-07T15:15:19.328Z</time></trkpt><trkpt lat="40.9991745" lon="9.5307213"><ele>50.0</ele><time>2026-04-07T15:15:20.328Z</time></trkpt><trkpt lat="40.9991766" lon="9.5310043"><ele>51.0</ele><time>2026-04-07T15:15:21.328Z</time></trkpt><trkpt lat="40.9991655" lon="9.5312531"><ele>51.0</ele><time>2026-04-07T15:15:22.328Z</time></trkpt><trkpt lat="40.9991416" lon="9.531479"><ele>51.0</ele><time>2026-04-07T15:15:23.328Z</time></trkpt><trkpt lat="40.9991026" lon="9.5316818"><ele>51.0</ele><time>2026-04-07T15:15:24.327Z</time></trkpt><trkpt lat="40.9990656" lon="9.5318598"><ele>51.0</ele><time>2026-04-07T15:15:25.328Z</time></trkpt><trkpt lat="40.9990229" lon="9.5320249"><ele>51.0</ele><time>2026-04-07T15:15:26.327Z</time></trkpt><trkpt lat="40.9989709" lon="9.532156"><ele>51.0</ele><time>2026-04-07T15:15:27.328Z</time></trkpt><trkpt lat="40.9989016" lon="9.5322492"><ele>51.0</ele><time>2026-04-07T15:15:28.328Z</time></trkpt><trkpt lat="40.9988341" lon="9.5323354"><ele>51.0</ele><time>2026-04-07T15:15:29.328Z</time></trkpt><trkpt lat="40.9987904" lon="9.5324432"><ele>51.25</ele><time>2026-04-07T15:15:30.328Z</time></trkpt><trkpt lat="40.9987783" lon="9.5325661"><ele>51.5</ele><time>2026-04-07T15:15:31.328Z</time></trkpt><trkpt lat="40.998787" lon="9.5327135"><ele>51.75</ele><time>2026-04-07T15:15:32.328Z</time></trkpt><trkpt lat="40.9987762" lon="9.532878"><ele>52.0</ele><time>2026-04-07T15:15:33.328Z</time></trkpt><trkpt lat="40.9987372" lon="9.5330548"><ele>52.0</ele><time>2026-04-07T15:15:34.328Z</time></trkpt><trkpt lat="40.9986783" lon="9.5332469"><ele>52.0</ele><time>2026-04-07T15:15:35.328Z</time></trkpt><trkpt lat="40.9986267" lon="9.533454"><ele>52.0</ele><time>2026-04-07T15:15:36.327Z</time></trkpt><trkpt lat="40.9985674" lon="9.5336773"><ele>51.666666666666664</ele><time>2026-04-07T15:15:37.328Z</time></trkpt><trkpt lat="40.998504" lon="9.5339124"><ele>51.33333333333333</ele><time>2026-04-07T15:15:38.327Z</time></trkpt><trkpt lat="40.9984412" lon="9.5341512"><ele>51.0</ele><time>2026-04-07T15:15:39.327Z</time></trkpt><trkpt lat="40.9983753" lon="9.5343868"><ele>52.0</ele><time>2026-04-07T15:15:40.328Z</time></trkpt><trkpt lat="40.9983094" lon="9.5346245"><ele>53.0</ele><time>2026-04-07T15:15:41.327Z</time></trkpt><trkpt lat="40.9982432" lon="9.534863"><ele>54.0</ele><time>2026-04-07T15:15:42.327Z</time></trkpt><trkpt lat="40.998177" lon="9.5351077"><ele>54.0</ele><time>2026-04-07T15:15:43.328Z</time></trkpt><trkpt lat="40.9981079" lon="9.5353572"><ele>54.0</ele><time>2026-04-07T15:15:44.328Z</time></trkpt><trkpt lat="40.9980326" lon="9.535612"><ele>54.0</ele><time>2026-04-07T15:15:45.327Z</time></trkpt><trkpt lat="40.9979567" lon="9.5358719"><ele>54.0</ele><time>2026-04-07T15:15:46.327Z</time></trkpt><trkpt lat="40.9978808" lon="9.5361318"><ele>54.0</ele><time>2026-04-07T15:15:47.328Z</time></trkpt><trkpt lat="40.9978089" lon="9.5363955"><ele>54.0</ele><time>2026-04-07T15:15:48.327Z</time></trkpt><trkpt lat="40.9977349" lon="9.53666"><ele>54.0</ele><time>2026-04-07T15:15:49.328Z</time></trkpt><trkpt lat="40.9976581" lon="9.5369308"><ele>54.0</ele><time>2026-04-07T15:15:50.328Z</time></trkpt><trkpt lat="40.9975753" lon="9.5372051"><ele>54.0</ele><time>2026-04-07T15:15:51.327Z</time></trkpt><trkpt lat="40.9974956" lon="9.5374856"><ele>53.5</ele><time>2026-04-07T15:15:52.328Z</time></trkpt><trkpt lat="40.9974106" lon="9.5377675"><ele>53.0</ele><time>2026-04-07T15:15:53.328Z</time></trkpt><trkpt lat="40.9973267" lon="9.538048"><ele>52.66666666666667</ele><time>2026-04-07T15:15:54.327Z</time></trkpt><trkpt lat="40.9972475" lon="9.5383251"><ele>52.33333333333333</ele><time>2026-04-07T15:15:55.327Z</time></trkpt><trkpt lat="40.9971727" lon="9.5385904"><ele>52.0</ele><time>2026-04-07T15:15:56.327Z</time></trkpt><trkpt lat="40.9971091" lon="9.5388604"><ele>52.0</ele><time>2026-04-07T15:15:57.327Z</time></trkpt><trkpt lat="40.9970587" lon="9.5391349"><ele>52.0</ele><time>2026-04-07T15:15:58.328Z</time></trkpt><trkpt lat="40.9970351" lon="9.5394048"><ele>52.0</ele><time>2026-04-07T15:15:59.328Z</time></trkpt><trkpt lat="40.9970272" lon="9.5396735"><ele>52.0</ele><time>2026-04-07T15:16:00.328Z</time></trkpt><trkpt lat="40.9970332" lon="9.5399472"><ele>52.0</ele><time>2026-04-07T15:16:01.328Z</time></trkpt><trkpt lat="40.9970589" lon="9.5402125"><ele>52.0</ele><time>2026-04-07T15:16:02.328Z</time></trkpt><trkpt lat="40.9970987" lon="9.5404686"><ele>51.0</ele><time>2026-04-07T15:16:03.328Z</time></trkpt><trkpt lat="40.9971514" lon="9.540724"><ele>50.0</ele><time>2026-04-07T15:16:04.328Z</time></trkpt><trkpt lat="40.9972165" lon="9.5409762"><ele>49.0</ele><time>2026-04-07T15:16:05.328Z</time></trkpt><trkpt lat="40.9972765" lon="9.5412279"><ele>47.33333333333333</ele><time>2026-04-07T15:16:06.328Z</time></trkpt><trkpt lat="40.99734" lon="9.541488"><ele>45.666666666666664</ele><time>2026-04-07T15:16:07.328Z</time></trkpt><trkpt lat="40.9974008" lon="9.5417453"><ele>44.0</ele><time>2026-04-07T15:16:08.328Z</time></trkpt><trkpt lat="40.9974585" lon="9.5419943"><ele>42.75</ele><time>2026-04-07T15:16:09.328Z</time></trkpt><trkpt lat="40.9975023" lon="9.5421951"><ele>41.5</ele><time>2026-04-07T15:16:10.328Z</time></trkpt><trkpt lat="40.9975399" lon="9.5423545"><ele>40.25</ele><time>2026-04-07T15:16:11.327Z</time></trkpt><trkpt lat="40.9975781" lon="9.542497"><ele>39.0</ele><time>2026-04-07T15:16:12.328Z</time></trkpt><trkpt lat="40.9976105" lon="9.5426166"><ele>39.0</ele><time>2026-04-07T15:16:13.327Z</time></trkpt><trkpt lat="40.9976432" lon="9.5427127"><ele>39.0</ele><time>2026-04-07T15:16:14.328Z</time></trkpt><trkpt lat="40.997693" lon="9.5427847"><ele>39.0</ele><time>2026-04-07T15:16:15.327Z</time></trkpt><trkpt lat="40.9977595" lon="9.5428306"><ele>39.0</ele><time>2026-04-07T15:16:16.328Z</time></trkpt><trkpt lat="40.9978423" lon="9.5428689"><ele>39.0</ele><time>2026-04-07T15:16:17.327Z</time></trkpt><trkpt lat="40.9979408" lon="9.542925"><ele>39.0</ele><time>2026-04-07T15:16:18.328Z</time></trkpt><trkpt lat="40.998042" lon="9.5429972"><ele>38.0</ele><time>2026-04-07T15:16:19.327Z</time></trkpt><trkpt lat="40.9981419" lon="9.5430835"><ele>37.0</ele><time>2026-04-07T15:16:20.328Z</time></trkpt><trkpt lat="40.9982285" lon="9.5431738"><ele>36.0</ele><time>2026-04-07T15:16:21.328Z</time></trkpt><trkpt lat="40.9982902" lon="9.5432947"><ele>35.0</ele><time>2026-04-07T15:16:22.328Z</time></trkpt><trkpt lat="40.9983238" lon="9.5434455"><ele>35.0</ele><time>2026-04-07T15:16:23.328Z</time></trkpt><trkpt lat="40.9983221" lon="9.543614"><ele>35.0</ele><time>2026-04-07T15:16:24.327Z</time></trkpt><trkpt lat="40.9983062" lon="9.5437924"><ele>35.0</ele><time>2026-04-07T15:16:25.328Z</time></trkpt><trkpt lat="40.9982896" lon="9.5439798"><ele>35.0</ele><time>2026-04-07T15:16:26.328Z</time></trkpt><trkpt lat="40.9982838" lon="9.5441765"><ele>33.666666666666664</ele><time>2026-04-07T15:16:27.327Z</time></trkpt><trkpt lat="40.9982947" lon="9.5443771"><ele>32.333333333333336</ele><time>2026-04-07T15:16:28.328Z</time></trkpt><trkpt lat="40.9983095" lon="9.544585"><ele>31.0</ele><time>2026-04-07T15:16:29.327Z</time></trkpt><trkpt lat="40.9983269" lon="9.5448022"><ele>34.333333333333336</ele><time>2026-04-07T15:16:30.328Z</time></trkpt><trkpt lat="40.9983477" lon="9.5450119"><ele>37.666666666666664</ele><time>2026-04-07T15:16:31.328Z</time></trkpt><trkpt lat="40.9983737" lon="9.5452208"><ele>41.0</ele><time>2026-04-07T15:16:32.327Z</time></trkpt><trkpt lat="40.9984073" lon="9.5454313"><ele>41.0</ele><time>2026-04-07T15:16:33.327Z</time></trkpt><trkpt lat="40.9984505" lon="9.5456494"><ele>41.0</ele><time>2026-04-07T15:16:34.328Z</time></trkpt><trkpt lat="40.9985048" lon="9.545871"><ele>41.0</ele><time>2026-04-07T15:16:35.327Z</time></trkpt><trkpt lat="40.9985607" lon="9.5460921"><ele>38.0</ele><time>2026-04-07T15:16:36.328Z</time></trkpt><trkpt lat="40.9986244" lon="9.5463185"><ele>35.0</ele><time>2026-04-07T15:16:37.328Z</time></trkpt><trkpt lat="40.9986927" lon="9.5465497"><ele>32.0</ele><time>2026-04-07T15:16:38.328Z</time></trkpt><trkpt lat="40.9987666" lon="9.5467827"><ele>32.0</ele><time>2026-04-07T15:16:39.328Z</time></trkpt><trkpt lat="40.9988448" lon="9.5470106"><ele>32.0</ele><time>2026-04-07T15:16:40.328Z</time></trkpt><trkpt lat="40.9989261" lon="9.5472266"><ele>32.0</ele><time>2026-04-07T15:16:41.328Z</time></trkpt><trkpt lat="40.9989996" lon="9.547432"><ele>29.666666666666664</ele><time>2026-04-07T15:16:42.328Z</time></trkpt><trkpt lat="40.9990704" lon="9.547635"><ele>27.333333333333336</ele><time>2026-04-07T15:16:43.328Z</time></trkpt><trkpt lat="40.9991412" lon="9.5478445"><ele>25.0</ele><time>2026-04-07T15:16:44.328Z</time></trkpt><trkpt lat="40.9992155" lon="9.5480565"><ele>23.666666666666668</ele><time>2026-04-07T15:16:45.328Z</time></trkpt><trkpt lat="40.9992876" lon="9.5482551"><ele>22.333333333333336</ele><time>2026-04-07T15:16:46.328Z</time></trkpt><trkpt lat="40.9993621" lon="9.5484557"><ele>21.0</ele><time>2026-04-07T15:16:47.328Z</time></trkpt><trkpt lat="40.9994278" lon="9.5486515"><ele>19.0</ele><time>2026-04-07T15:16:48.327Z</time></trkpt><trkpt lat="40.9994804" lon="9.5488471"><ele>17.0</ele><time>2026-04-07T15:16:49.328Z</time></trkpt><trkpt lat="40.9995238" lon="9.5490503"><ele>15.0</ele><time>2026-04-07T15:16:50.328Z</time></trkpt><trkpt lat="40.9995556" lon="9.5492581"><ele>15.0</ele><time>2026-04-07T15:16:51.327Z</time></trkpt><trkpt lat="40.9995807" lon="9.5494593"><ele>15.0</ele><time>2026-04-07T15:16:52.328Z</time></trkpt><trkpt lat="40.9996039" lon="9.549654"><ele>15.0</ele><time>2026-04-07T15:16:53.328Z</time></trkpt><trkpt lat="40.9996217" lon="9.5498457"><ele>15.0</ele><time>2026-04-07T15:16:54.328Z</time></trkpt><trkpt lat="40.9996316" lon="9.5500367"><ele>14.25</ele><time>2026-04-07T15:16:55.328Z</time></trkpt><trkpt lat="40.9996294" lon="9.5502261"><ele>13.5</ele><time>2026-04-07T15:16:56.328Z</time></trkpt><trkpt lat="40.9996208" lon="9.5504178"><ele>12.75</ele><time>2026-04-07T15:16:57.328Z</time></trkpt><trkpt lat="40.9996146" lon="9.5506103"><ele>12.0</ele><time>2026-04-07T15:16:58.328Z</time></trkpt><trkpt lat="40.9996036" lon="9.5508005"><ele>11.25</ele><time>2026-04-07T15:16:59.328Z</time></trkpt><trkpt lat="40.9995915" lon="9.5509782"><ele>10.5</ele><time>2026-04-07T15:17:00.328Z</time></trkpt><trkpt lat="40.999583" lon="9.5511485"><ele>9.75</ele><time>2026-04-07T15:17:01.328Z</time></trkpt><trkpt lat="40.9995757" lon="9.5513014"><ele>9.0</ele><time>2026-04-07T15:17:02.327Z</time></trkpt><trkpt lat="40.9995719" lon="9.5514282"><ele>8.6</ele><time>2026-04-07T15:17:03.328Z</time></trkpt><trkpt lat="40.9995613" lon="9.55155"><ele>8.2</ele><time>2026-04-07T15:17:04.328Z</time></trkpt><trkpt lat="40.9995574" lon="9.5516611"><ele>7.799999999999999</ele><time>2026-04-07T15:17:05.328Z</time></trkpt><trkpt lat="40.9995491" lon="9.5517635"><ele>7.3999999999999995</ele><time>2026-04-07T15:17:06.328Z</time></trkpt><trkpt lat="40.9995793" lon="9.5519011"><ele>7.0</ele><time>2026-04-07T15:17:08.328Z</time></trkpt><trkpt lat="40.9996378" lon="9.5519918"><ele>7.000000000000001</ele><time>2026-04-07T15:17:10.328Z</time></trkpt><trkpt lat="40.9996813" lon="9.5520551"><ele>7.0</ele><time>2026-04-07T15:17:12.328Z</time></trkpt><trkpt lat="40.9997294" lon="9.5521107"><ele>7.0</ele><time>2026-04-07T15:17:14.327Z</time></trkpt><trkpt lat="40.9997801" lon="9.552163"><ele>7.0</ele><time>2026-04-07T15:17:16.327Z</time></trkpt><trkpt lat="40.9998724" lon="9.5522318"><ele>7.000000000000001</ele><time>2026-04-07T15:17:18.328Z</time></trkpt><trkpt lat="40.999981" lon="9.5523167"><ele>7.0</ele><time>2026-04-07T15:17:20.327Z</time></trkpt><trkpt lat="41.0000389" lon="9.5523645"><ele>7.0</ele><time>2026-04-07T15:17:21.328Z</time></trkpt><trkpt lat="41.0000879" lon="9.552417"><ele>7.0</ele><time>2026-04-07T15:17:22.328Z</time></trkpt><trkpt lat="41.0001331" lon="9.5524807"><ele>7.0</ele><time>2026-04-07T15:17:23.327Z</time></trkpt><trkpt lat="41.0001779" lon="9.5525449"><ele>7.0</ele><time>2026-04-07T15:17:24.327Z</time></trkpt><trkpt lat="41.0002245" lon="9.5526105"><ele>7.0</ele><time>2026-04-07T15:17:25.327Z</time></trkpt><trkpt lat="41.0002713" lon="9.5526809"><ele>7.0</ele><time>2026-04-07T15:17:26.327Z</time></trkpt><trkpt lat="41.0003123" lon="9.5527501"><ele>7.0</ele><time>2026-04-07T15:17:27.327Z</time></trkpt><trkpt lat="41.000369" lon="9.5528398"><ele>7.000000000000001</ele><time>2026-04-07T15:17:29.328Z</time></trkpt><trkpt lat="41.000381" lon="9.5527551"><ele>7.0</ele><time>2026-04-07T15:17:33.328Z</time></trkpt><trkpt lat="41.0003309" lon="9.5526927"><ele>7.0</ele><time>2026-04-07T15:17:35.328Z</time></trkpt><trkpt lat="41.0002624" lon="9.5526152"><ele>7.0</ele><time>2026-04-07T15:17:38.327Z</time></trkpt><trkpt lat="41.0002059" lon="9.5525439"><ele>7.000000000000001</ele><time>2026-04-07T15:17:40.327Z</time></trkpt><trkpt lat="41.0001289" lon="9.5524551"><ele>7.0</ele><time>2026-04-07T15:17:42.328Z</time></trkpt><trkpt lat="41.0000353" lon="9.5523567"><ele>7.000000000000001</ele><time>2026-04-07T15:17:44.328Z</time></trkpt><trkpt lat="40.9999803" lon="9.5523099"><ele>7.0</ele><time>2026-04-07T15:17:45.327Z</time></trkpt><trkpt lat="40.9999251" lon="9.5522632"><ele>7.0</ele><time>2026-04-07T15:17:46.327Z</time></trkpt><trkpt lat="40.9998728" lon="9.5522139"><ele>7.0</ele><time>2026-04-07T15:17:47.328Z</time></trkpt><trkpt lat="40.9997752" lon="9.5521206"><ele>7.000000000000001</ele><time>2026-04-07T15:17:49.328Z</time></trkpt><trkpt lat="40.9997099" lon="9.5520288"><ele>7.0</ele><time>2026-04-07T15:17:51.328Z</time></trkpt><trkpt lat="40.9997014" lon="9.5519243"><ele>7.000000000000001</ele><time>2026-04-07T15:17:53.328Z</time></trkpt><trkpt lat="40.9997378" lon="9.5517955"><ele>7.0</ele><time>2026-04-07T15:17:55.328Z</time></trkpt><trkpt lat="40.9997929" lon="9.5517534"><ele>7.0</ele><time>2026-04-07T15:17:56.328Z</time></trkpt><trkpt lat="40.9998575" lon="9.551724"><ele>7.0</ele><time>2026-04-07T15:17:57.327Z</time></trkpt><trkpt lat="40.999926" lon="9.5516861"><ele>7.000000000000001</ele><time>2026-04-07T15:17:58.328Z</time></trkpt><trkpt lat="41.0000053" lon="9.5516548"><ele>7.0</ele><time>2026-04-07T15:17:59.328Z</time></trkpt><trkpt lat="41.0000866" lon="9.5516249"><ele>7.0</ele><time>2026-04-07T15:18:00.328Z</time></trkpt><trkpt lat="41.0001582" lon="9.5515943"><ele>6.999999999999999</ele><time>2026-04-07T15:18:01.327Z</time></trkpt><trkpt lat="41.0002535" lon="9.5515516"><ele>6.999999999999999</ele><time>2026-04-07T15:18:03.327Z</time></trkpt><trkpt lat="41.000347" lon="9.5514999"><ele>7.0</ele><time>2026-04-07T15:18:05.328Z</time></trkpt><trkpt lat="41.0004605" lon="9.5514303"><ele>7.0</ele><time>2026-04-07T15:18:07.327Z</time></trkpt><trkpt lat="41.0005237" lon="9.5513881"><ele>7.0</ele><time>2026-04-07T15:18:08.327Z</time></trkpt><trkpt lat="41.0006021" lon="9.551331"><ele>6.999999999999999</ele><time>2026-04-07T15:18:09.328Z</time></trkpt><trkpt lat="41.0006842" lon="9.551253"><ele>6.999999999999999</ele><time>2026-04-07T15:18:10.328Z</time></trkpt><trkpt lat="41.0007757" lon="9.5511554"><ele>7.0</ele><time>2026-04-07T15:18:11.327Z</time></trkpt><trkpt lat="41.0008777" lon="9.5510539"><ele>7.0</ele><time>2026-04-07T15:18:12.328Z</time></trkpt><trkpt lat="41.0009845" lon="9.5509426"><ele>7.5</ele><time>2026-04-07T15:18:13.328Z</time></trkpt><trkpt lat="41.0010959" lon="9.5508232"><ele>8.0</ele><time>2026-04-07T15:18:14.328Z</time></trkpt><trkpt lat="41.0012141" lon="9.5506986"><ele>8.5</ele><time>2026-04-07T15:18:15.327Z</time></trkpt><trkpt lat="41.0013172" lon="9.5505895"><ele>9.0</ele><time>2026-04-07T15:18:16.327Z</time></trkpt><trkpt lat="41.0014129" lon="9.5504932"><ele>9.0</ele><time>2026-04-07T15:18:17.328Z</time></trkpt><trkpt lat="41.001498" lon="9.5504071"><ele>9.0</ele><time>2026-04-07T15:18:18.328Z</time></trkpt><trkpt lat="41.0015734" lon="9.5503332"><ele>9.0</ele><time>2026-04-07T15:18:19.328Z</time></trkpt><trkpt lat="41.0016344" lon="9.5502748"><ele>9.0</ele><time>2026-04-07T15:18:20.328Z</time></trkpt><trkpt lat="41.0017368" lon="9.5502256"><ele>9.0</ele><time>2026-04-07T15:18:22.327Z</time></trkpt><trkpt lat="41.0018303" lon="9.5502556"><ele>9.0</ele><time>2026-04-07T15:18:24.328Z</time></trkpt><trkpt lat="41.0019282" lon="9.5503584"><ele>9.0</ele><time>2026-04-07T15:18:26.327Z</time></trkpt><trkpt lat="41.0019732" lon="9.5504329"><ele>9.0</ele><time>2026-04-07T15:18:27.327Z</time></trkpt><trkpt lat="41.0020237" lon="9.5505109"><ele>9.0</ele><time>2026-04-07T15:18:28.328Z</time></trkpt><trkpt lat="41.0020698" lon="9.5505979"><ele>9.0</ele><time>2026-04-07T15:18:29.328Z</time></trkpt><trkpt lat="41.0021039" lon="9.5506848"><ele>9.0</ele><time>2026-04-07T15:18:30.328Z</time></trkpt><trkpt lat="41.002121" lon="9.5507807"><ele>9.0</ele><time>2026-04-07T15:18:31.327Z</time></trkpt><trkpt lat="41.0021265" lon="9.5508775"><ele>9.0</ele><time>2026-04-07T15:18:32.328Z</time></trkpt><trkpt lat="41.0021265" lon="9.550966"><ele>9.0</ele><time>2026-04-07T15:18:33.328Z</time></trkpt><trkpt lat="41.002121" lon="9.5511278"><ele>9.0</ele><time>2026-04-07T15:18:35.328Z</time></trkpt><trkpt lat="41.0021157" lon="9.5512144"><ele>9.0</ele><time>2026-04-07T15:18:36.328Z</time></trkpt><trkpt lat="41.0021133" lon="9.5513048"><ele>9.0</ele><time>2026-04-07T15:18:37.328Z</time></trkpt><trkpt lat="41.0021141" lon="9.5513938"><ele>8.8</ele><time>2026-04-07T15:18:38.328Z</time></trkpt><trkpt lat="41.0021429" lon="9.5515278"><ele>8.600000000000001</ele><time>2026-04-07T15:18:40.327Z</time></trkpt><trkpt lat="41.0022408" lon="9.5515835"><ele>8.4</ele><time>2026-04-07T15:18:42.328Z</time></trkpt><trkpt lat="41.002308" lon="9.5515943"><ele>8.200000000000001</ele><time>2026-04-07T15:18:43.328Z</time></trkpt><trkpt lat="41.0024588" lon="9.5516238"><ele>8.0</ele><time>2026-04-07T15:18:46.327Z</time></trkpt><trkpt lat="41.0025433" lon="9.5516389"><ele>7.666666666666666</ele><time>2026-04-07T15:18:48.328Z</time></trkpt><trkpt lat="41.0026273" lon="9.5516349"><ele>7.333333333333333</ele><time>2026-04-07T15:18:50.328Z</time></trkpt><trkpt lat="41.0026915" lon="9.5516426"><ele>7.0</ele><time>2026-04-07T15:18:51.327Z</time></trkpt><trkpt lat="41.0028025" lon="9.5516644"><ele>6.666666666666666</ele><time>2026-04-07T15:18:53.328Z</time></trkpt><trkpt lat="41.0029202" lon="9.5516855"><ele>6.333333333333333</ele><time>2026-04-07T15:18:55.327Z</time></trkpt><trkpt lat="41.0029831" lon="9.5516977"><ele>6.0</ele><time>2026-04-07T15:18:56.328Z</time></trkpt><trkpt lat="41.0030911" lon="9.5517241"><ele>6.0</ele><time>2026-04-07T15:18:58.328Z</time></trkpt><trkpt lat="41.0032079" lon="9.5517586"><ele>6.0</ele><time>2026-04-07T15:19:00.327Z</time></trkpt><trkpt lat="41.0033232" lon="9.5517814"><ele>6.0</ele><time>2026-04-07T15:19:02.327Z</time></trkpt><trkpt lat="41.003431" lon="9.5517895"><ele>6.0</ele><time>2026-04-07T15:19:04.328Z</time></trkpt><trkpt lat="41.0035266" lon="9.5518036"><ele>6.0</ele><time>2026-04-07T15:19:06.328Z</time></trkpt><trkpt lat="41.0036132" lon="9.5518306"><ele>5.666666666666667</ele><time>2026-04-07T15:19:08.328Z</time></trkpt><trkpt lat="41.003697" lon="9.5518723"><ele>5.333333333333333</ele><time>2026-04-07T15:19:10.327Z</time></trkpt><trkpt lat="41.0037749" lon="9.5519244"><ele>5.0</ele><time>2026-04-07T15:19:12.328Z</time></trkpt><trkpt lat="41.003836" lon="9.5519702"><ele>4.666666666666666</ele><time>2026-04-07T15:19:14.328Z</time></trkpt><trkpt lat="41.0038776" lon="9.5520524"><ele>4.333333333333333</ele><time>2026-04-07T15:19:16.327Z</time></trkpt><trkpt lat="41.0039155" lon="9.5521549"><ele>4.0</ele><time>2026-04-07T15:19:18.327Z</time></trkpt><trkpt lat="41.0039308" lon="9.5522817"><ele>3.6666666666666665</ele><time>2026-04-07T15:19:20.327Z</time></trkpt><trkpt lat="41.0039502" lon="9.5523932"><ele>3.333333333333333</ele><time>2026-04-07T15:19:22.328Z</time></trkpt><trkpt lat="41.0039508" lon="9.5525098"><ele>3.0</ele><time>2026-04-07T15:19:24.328Z</time></trkpt><trkpt lat="41.0039561" lon="9.5526138"><ele>2.6666666666666665</ele><time>2026-04-07T15:19:26.328Z</time></trkpt><trkpt lat="41.00398" lon="9.5527058"><ele>2.333333333333333</ele><time>2026-04-07T15:19:28.328Z</time></trkpt><trkpt lat="41.0040214" lon="9.5527797"><ele>2.0</ele><time>2026-04-07T15:19:30.328Z</time></trkpt><trkpt lat="41.0040887" lon="9.5528524"><ele>1.5714285714285714</ele><time>2026-04-07T15:19:33.328Z</time></trkpt><trkpt lat="41.0041805" lon="9.5528889"><ele>1.1428571428571428</ele><time>2026-04-07T15:19:36.328Z</time></trkpt><trkpt lat="41.0042342" lon="9.5529481"><ele>0.7142857142857142</ele><time>2026-04-07T15:19:38.328Z</time></trkpt><trkpt lat="41.0042893" lon="9.5530292"><ele>0.2857142857142857</ele><time>2026-04-07T15:19:41.327Z</time></trkpt><trkpt lat="41.0043346" lon="9.5530987"><ele>-0.1428571428571428</ele><time>2026-04-07T15:19:44.327Z</time></trkpt><trkpt lat="41.0043877" lon="9.553154"><ele>-0.5714285714285714</ele><time>2026-04-07T15:19:48.328Z</time></trkpt><trkpt lat="41.0044388" lon="9.5532056"><ele>-1.0</ele><time>2026-04-07T15:19:50.327Z</time></trkpt><trkpt lat="41.0044783" lon="9.5532829"><ele>-0.9999999999999999</ele><time>2026-04-07T15:19:53.327Z</time></trkpt><trkpt lat="41.0044141" lon="9.5531904"><ele>-1.0</ele><time>2026-04-07T15:21:04.327Z</time></trkpt><trkpt lat="41.0043643" lon="9.5531361"><ele>-1.0</ele><time>2026-04-07T15:21:07.328Z</time></trkpt><trkpt lat="41.0043133" lon="9.5530696"><ele>-1.0</ele><time>2026-04-07T15:21:17.327Z</time></trkpt><trkpt lat="41.0042608" lon="9.5529923"><ele>-0.9999999999999999</ele><time>2026-04-07T15:21:21.328Z</time></trkpt><trkpt lat="41.0042019" lon="9.5529173"><ele>-1.0</ele><time>2026-04-07T15:21:23.328Z</time></trkpt><trkpt lat="41.0041444" lon="9.5528598"><ele>-0.4</ele><time>2026-04-07T15:21:25.328Z</time></trkpt><trkpt lat="41.0040825" lon="9.5527937"><ele>0.19999999999999996</ele><time>2026-04-07T15:21:28.328Z</time></trkpt><trkpt lat="41.0040421" lon="9.5526782"><ele>0.8000000000000002</ele><time>2026-04-07T15:21:31.327Z</time></trkpt><trkpt lat="41.0040163" lon="9.5525724"><ele>1.4000000000000001</ele><time>2026-04-07T15:21:33.328Z</time></trkpt><trkpt lat="41.0039732" lon="9.5524336"><ele>2.0</ele><time>2026-04-07T15:21:35.328Z</time></trkpt><trkpt lat="41.0039588" lon="9.5522806"><ele>2.0</ele><time>2026-04-07T15:21:37.327Z</time></trkpt><trkpt lat="41.0039087" lon="9.5521435"><ele>2.0</ele><time>2026-04-07T15:21:39.328Z</time></trkpt><trkpt lat="41.0038599" lon="9.5520339"><ele>2.0</ele><time>2026-04-07T15:21:41.328Z</time></trkpt><trkpt lat="41.0037916" lon="9.5519555"><ele>2.0</ele><time>2026-04-07T15:21:43.328Z</time></trkpt><trkpt lat="41.0036477" lon="9.5518718"><ele>2.4000000000000004</ele><time>2026-04-07T15:21:46.328Z</time></trkpt><trkpt lat="41.0034873" lon="9.5518288"><ele>2.8000000000000003</ele><time>2026-04-07T15:21:49.328Z</time></trkpt><trkpt lat="41.0033969" lon="9.5518478"><ele>3.2</ele><time>2026-04-07T15:21:51.327Z</time></trkpt><trkpt lat="41.0033266" lon="9.5518297"><ele>3.6</ele><time>2026-04-07T15:21:53.327Z</time></trkpt><trkpt lat="41.0032364" lon="9.5518006"><ele>4.0</ele><time>2026-04-07T15:21:55.328Z</time></trkpt><trkpt lat="41.0031455" lon="9.5517871"><ele>4.333333333333333</ele><time>2026-04-07T15:21:57.327Z</time></trkpt><trkpt lat="41.003059" lon="9.5517828"><ele>4.666666666666666</ele><time>2026-04-07T15:21:59.328Z</time></trkpt><trkpt lat="41.002949" lon="9.5517691"><ele>5.0</ele><time>2026-04-07T15:22:02.328Z</time></trkpt><trkpt lat="41.0028829" lon="9.551763"><ele>5.333333333333333</ele><time>2026-04-07T15:22:04.328Z</time></trkpt><trkpt lat="41.0028148" lon="9.5517629"><ele>5.666666666666667</ele><time>2026-04-07T15:22:06.328Z</time></trkpt><trkpt lat="41.0027532" lon="9.5517281"><ele>6.0</ele><time>2026-04-07T15:22:08.328Z</time></trkpt><trkpt lat="41.002676" lon="9.5516602"><ele>6.0</ele><time>2026-04-07T15:22:10.328Z</time></trkpt><trkpt lat="41.0025484" lon="9.5516149"><ele>6.0</ele><time>2026-04-07T15:22:13.328Z</time></trkpt><trkpt lat="41.0024791" lon="9.5516215"><ele>6.0</ele><time>2026-04-07T15:22:15.328Z</time></trkpt><trkpt lat="41.0023049" lon="9.551593"><ele>6.0</ele><time>2026-04-07T15:22:18.327Z</time></trkpt><trkpt lat="41.0021915" lon="9.5515586"><ele>6.333333333333333</ele><time>2026-04-07T15:22:20.328Z</time></trkpt><trkpt lat="41.0021465" lon="9.5515002"><ele>6.666666666666666</ele><time>2026-04-07T15:22:22.327Z</time></trkpt><trkpt lat="41.0021126" lon="9.5514046"><ele>7.0</ele><time>2026-04-07T15:22:24.328Z</time></trkpt><trkpt lat="41.0021051" lon="9.5513028"><ele>7.333333333333333</ele><time>2026-04-07T15:22:26.328Z</time></trkpt><trkpt lat="41.0021136" lon="9.5511272"><ele>7.666666666666666</ele><time>2026-04-07T15:22:29.328Z</time></trkpt><trkpt lat="41.0021223" lon="9.5510187"><ele>8.0</ele><time>2026-04-07T15:22:31.327Z</time></trkpt><trkpt lat="41.0021298" lon="9.550907"><ele>8.200000000000001</ele><time>2026-04-07T15:22:33.328Z</time></trkpt><trkpt lat="41.0021332" lon="9.5507952"><ele>8.4</ele><time>2026-04-07T15:22:35.328Z</time></trkpt><trkpt lat="41.00212" lon="9.5506849"><ele>8.600000000000001</ele><time>2026-04-07T15:22:37.327Z</time></trkpt><trkpt lat="41.0020417" lon="9.5505402"><ele>8.8</ele><time>2026-04-07T15:22:40.328Z</time></trkpt><trkpt lat="41.0019729" lon="9.5504233"><ele>9.0</ele><time>2026-04-07T15:22:42.328Z</time></trkpt><trkpt lat="41.0019317" lon="9.550359"><ele>9.333333333333334</ele><time>2026-04-07T15:22:43.327Z</time></trkpt><trkpt lat="41.0018586" lon="9.5502662"><ele>9.666666666666666</ele><time>2026-04-07T15:22:45.328Z</time></trkpt><trkpt lat="41.0018059" lon="9.5501918"><ele>10.0</ele><time>2026-04-07T15:22:47.328Z</time></trkpt><trkpt lat="41.0017559" lon="9.5501147"><ele>10.333333333333332</ele><time>2026-04-07T15:22:49.327Z</time></trkpt><trkpt lat="41.0016933" lon="9.5500975"><ele>10.666666666666666</ele><time>2026-04-07T15:22:51.328Z</time></trkpt><trkpt lat="41.0017091" lon="9.550203"><ele>11.0</ele><time>2026-04-07T15:22:54.328Z</time></trkpt><trkpt lat="41.0017908" lon="9.5502358"><ele>11.0</ele><time>2026-04-07T15:22:56.328Z</time></trkpt><trkpt lat="41.0018635" lon="9.5503098"><ele>11.0</ele><time>2026-04-07T15:22:58.328Z</time></trkpt><trkpt lat="41.0019231" lon="9.5503747"><ele>11.0</ele><time>2026-04-07T15:23:21.327Z</time></trkpt><trkpt lat="41.0019882" lon="9.5504634"><ele>11.0</ele><time>2026-04-07T15:23:23.327Z</time></trkpt><trkpt lat="41.002093" lon="9.5506599"><ele>11.0</ele><time>2026-04-07T15:23:26.328Z</time></trkpt><trkpt lat="41.0021178" lon="9.5507409"><ele>10.600000000000001</ele><time>2026-04-07T15:23:27.328Z</time></trkpt><trkpt lat="41.0021324" lon="9.5508873"><ele>10.200000000000001</ele><time>2026-04-07T15:23:29.328Z</time></trkpt><trkpt lat="41.0021288" lon="9.5510141"><ele>9.8</ele><time>2026-04-07T15:23:31.328Z</time></trkpt><trkpt lat="41.002111" lon="9.5511564"><ele>9.4</ele><time>2026-04-07T15:23:33.328Z</time></trkpt><trkpt lat="41.0021059" lon="9.5512968"><ele>9.0</ele><time>2026-04-07T15:23:35.328Z</time></trkpt><trkpt lat="41.002109" lon="9.5514397"><ele>8.8</ele><time>2026-04-07T15:23:37.328Z</time></trkpt><trkpt lat="41.0021587" lon="9.5515505"><ele>8.600000000000001</ele><time>2026-04-07T15:23:39.328Z</time></trkpt><trkpt lat="41.0022615" lon="9.5515955"><ele>8.4</ele><time>2026-04-07T15:23:41.328Z</time></trkpt><trkpt lat="41.0023816" lon="9.551621"><ele>8.200000000000001</ele><time>2026-04-07T15:23:43.328Z</time></trkpt><trkpt lat="41.0024907" lon="9.551642"><ele>8.0</ele><time>2026-04-07T15:23:45.328Z</time></trkpt><trkpt lat="41.0025556" lon="9.5516516"><ele>7.666666666666666</ele><time>2026-04-07T15:23:47.328Z</time></trkpt><trkpt lat="41.0026612" lon="9.5516441"><ele>7.333333333333333</ele><time>2026-04-07T15:23:50.328Z</time></trkpt><trkpt lat="41.0027402" lon="9.5516781"><ele>7.0</ele><time>2026-04-07T15:23:52.328Z</time></trkpt><trkpt lat="41.0028" lon="9.5517389"><ele>6.666666666666666</ele><time>2026-04-07T15:23:54.327Z</time></trkpt><trkpt lat="41.002875" lon="9.551758"><ele>6.333333333333333</ele><time>2026-04-07T15:23:56.328Z</time></trkpt><trkpt lat="41.0029542" lon="9.5517705"><ele>6.0</ele><time>2026-04-07T15:23:58.328Z</time></trkpt><trkpt lat="41.0030412" lon="9.5518195"><ele>6.0</ele><time>2026-04-07T15:24:00.327Z</time></trkpt><trkpt lat="41.0031324" lon="9.5518559"><ele>6.0</ele><time>2026-04-07T15:24:02.328Z</time></trkpt><trkpt lat="41.0032305" lon="9.5518799"><ele>6.0</ele><time>2026-04-07T15:24:04.327Z</time></trkpt><trkpt lat="41.0033173" lon="9.5519056"><ele>6.0</ele><time>2026-04-07T15:24:06.327Z</time></trkpt><trkpt lat="41.0033939" lon="9.5519541"><ele>6.0</ele><time>2026-04-07T15:24:08.327Z</time></trkpt><trkpt lat="41.003478" lon="9.5519998"><ele>5.6</ele><time>2026-04-07T15:24:10.328Z</time></trkpt><trkpt lat="41.003572" lon="9.5520253"><ele>5.199999999999999</ele><time>2026-04-07T15:24:12.328Z</time></trkpt><trkpt lat="41.0036638" lon="9.5520528"><ele>4.800000000000001</ele><time>2026-04-07T15:24:14.328Z</time></trkpt><trkpt lat="41.003763" lon="9.5521008"><ele>4.4</ele><time>2026-04-07T15:24:16.328Z</time></trkpt><trkpt lat="41.0038464" lon="9.5521937"><ele>4.0</ele><time>2026-04-07T15:24:18.328Z</time></trkpt><trkpt lat="41.0038857" lon="9.5522893"><ele>3.6666666666666665</ele><time>2026-04-07T15:24:20.328Z</time></trkpt><trkpt lat="41.0039258" lon="9.5524032"><ele>3.333333333333333</ele><time>2026-04-07T15:24:22.328Z</time></trkpt><trkpt lat="41.0039506" lon="9.5525288"><ele>3.0</ele><time>2026-04-07T15:24:24.328Z</time></trkpt><trkpt lat="41.0039628" lon="9.5526471"><ele>2.6666666666666665</ele><time>2026-04-07T15:24:26.328Z</time></trkpt><trkpt lat="41.0039919" lon="9.5527337"><ele>2.333333333333333</ele><time>2026-04-07T15:24:28.328Z</time></trkpt><trkpt lat="41.0040307" lon="9.5528016"><ele>2.0</ele><time>2026-04-07T15:24:30.328Z</time></trkpt><trkpt lat="41.0040802" lon="9.5528561"><ele>1.9999999999999998</ele><time>2026-04-07T15:54:20.328Z</time></trkpt><trkpt lat="41.0041017" lon="9.552772"><ele>2.0</ele><time>2026-04-07T15:54:25.327Z</time></trkpt><trkpt lat="41.0040357" lon="9.5527353"><ele>2.0</ele><time>2026-04-07T15:54:27.327Z</time></trkpt><trkpt lat="41.0039695" lon="9.5526938"><ele>2.0</ele><time>2026-04-07T15:54:29.327Z</time></trkpt><trkpt lat="41.0039596" lon="9.5525784"><ele>1.9999999999999998</ele><time>2026-04-07T15:54:31.328Z</time></trkpt><trkpt lat="41.0039494" lon="9.5524781"><ele>2.0</ele><time>2026-04-07T15:54:33.328Z</time></trkpt><trkpt lat="41.0039377" lon="9.5523656"><ele>1.9999999999999998</ele><time>2026-04-07T15:54:35.328Z</time></trkpt><trkpt lat="41.0039017" lon="9.5522612"><ele>2.0</ele><time>2026-04-07T15:54:37.328Z</time></trkpt><trkpt lat="41.0038495" lon="9.5521465"><ele>2.0</ele><time>2026-04-07T15:54:39.328Z</time></trkpt><trkpt lat="41.003799" lon="9.5520698"><ele>2.0</ele><time>2026-04-07T15:54:41.328Z</time></trkpt><trkpt lat="41.0037322" lon="9.5519787"><ele>1.9999999999999998</ele><time>2026-04-07T15:54:43.328Z</time></trkpt><trkpt lat="41.0036834" lon="9.551904"><ele>2.0</ele><time>2026-04-07T15:54:45.328Z</time></trkpt><trkpt lat="41.0036096" lon="9.5518443"><ele>2.333333333333333</ele><time>2026-04-07T15:54:47.328Z</time></trkpt><trkpt lat="41.0035401" lon="9.5518214"><ele>2.6666666666666665</ele><time>2026-04-07T15:54:49.328Z</time></trkpt><trkpt lat="41.0034477" lon="9.5517957"><ele>3.0</ele><time>2026-04-07T15:54:51.328Z</time></trkpt><trkpt lat="41.0033533" lon="9.5517769"><ele>3.333333333333333</ele><time>2026-04-07T15:54:53.328Z</time></trkpt><trkpt lat="41.0032695" lon="9.5517628"><ele>3.6666666666666665</ele><time>2026-04-07T15:54:55.328Z</time></trkpt><trkpt lat="41.0031909" lon="9.5517442"><ele>4.0</ele><time>2026-04-07T15:54:57.327Z</time></trkpt><trkpt lat="41.0031149" lon="9.5517242"><ele>4.333333333333333</ele><time>2026-04-07T15:54:59.328Z</time></trkpt><trkpt lat="41.0030467" lon="9.5517091"><ele>4.666666666666666</ele><time>2026-04-07T15:55:01.328Z</time></trkpt><trkpt lat="41.0029737" lon="9.5516929"><ele>5.0</ele><time>2026-04-07T15:55:03.328Z</time></trkpt><trkpt lat="41.0028951" lon="9.5516748"><ele>5.333333333333333</ele><time>2026-04-07T15:55:05.328Z</time></trkpt><trkpt lat="41.0028085" lon="9.5516576"><ele>5.666666666666667</ele><time>2026-04-07T15:55:07.328Z</time></trkpt><trkpt lat="41.002714" lon="9.5516397"><ele>6.0</ele><time>2026-04-07T15:55:09.328Z</time></trkpt><trkpt lat="41.0026158" lon="9.5516536"><ele>6.0</ele><time>2026-04-07T15:55:11.327Z</time></trkpt><trkpt lat="41.0025484" lon="9.5516343"><ele>6.0</ele><time>2026-04-07T15:55:13.327Z</time></trkpt><trkpt lat="41.0024847" lon="9.5516114"><ele>6.0</ele><time>2026-04-07T15:55:15.328Z</time></trkpt><trkpt lat="41.0023789" lon="9.5515884"><ele>6.0</ele><time>2026-04-07T15:55:17.328Z</time></trkpt><trkpt lat="41.0023163" lon="9.5515777"><ele>6.0</ele><time>2026-04-07T15:55:18.328Z</time></trkpt><trkpt lat="41.0022508" lon="9.5515655"><ele>6.0</ele><time>2026-04-07T15:55:19.327Z</time></trkpt><trkpt lat="41.0021474" lon="9.5515138"><ele>6.333333333333333</ele><time>2026-04-07T15:55:21.327Z</time></trkpt><trkpt lat="41.0021162" lon="9.5513981"><ele>6.666666666666666</ele><time>2026-04-07T15:55:23.328Z</time></trkpt><trkpt lat="41.0021094" lon="9.5512331"><ele>7.0</ele><time>2026-04-07T15:55:25.327Z</time></trkpt><trkpt lat="41.002114" lon="9.5511411"><ele>7.333333333333333</ele><time>2026-04-07T15:55:26.328Z</time></trkpt><trkpt lat="41.0021185" lon="9.5510477"><ele>7.666666666666666</ele><time>2026-04-07T15:55:27.328Z</time></trkpt><trkpt lat="41.0021235" lon="9.550947"><ele>8.0</ele><time>2026-04-07T15:55:28.328Z</time></trkpt><trkpt lat="41.0021282" lon="9.5508462"><ele>8.166666666666666</ele><time>2026-04-07T15:55:29.328Z</time></trkpt><trkpt lat="41.0021228" lon="9.550756"><ele>8.333333333333332</ele><time>2026-04-07T15:55:30.328Z</time></trkpt><trkpt lat="41.0021144" lon="9.5506717"><ele>8.5</ele><time>2026-04-07T15:55:31.328Z</time></trkpt><trkpt lat="41.0020704" lon="9.5505881"><ele>8.666666666666666</ele><time>2026-04-07T15:55:32.328Z</time></trkpt><trkpt lat="41.0020262" lon="9.550505"><ele>8.833333333333334</ele><time>2026-04-07T15:55:33.328Z</time></trkpt><trkpt lat="41.0019736" lon="9.5504219"><ele>9.0</ele><time>2026-04-07T15:55:34.328Z</time></trkpt><trkpt lat="41.001921" lon="9.5503381"><ele>9.2</ele><time>2026-04-07T15:55:35.328Z</time></trkpt><trkpt lat="41.0018696" lon="9.5502593"><ele>9.4</ele><time>2026-04-07T15:55:36.328Z</time></trkpt><trkpt lat="41.001787" lon="9.5501502"><ele>9.6</ele><time>2026-04-07T15:55:38.327Z</time></trkpt><trkpt lat="41.0017005" lon="9.5500973"><ele>9.8</ele><time>2026-04-07T15:55:40.327Z</time></trkpt><trkpt lat="41.0015977" lon="9.5502021"><ele>10.0</ele><time>2026-04-07T15:55:42.327Z</time></trkpt><trkpt lat="41.0015298" lon="9.5502874"><ele>10.0</ele><time>2026-04-07T15:55:43.328Z</time></trkpt><trkpt lat="41.0014643" lon="9.5503666"><ele>10.0</ele><time>2026-04-07T15:55:44.328Z</time></trkpt><trkpt lat="41.0013994" lon="9.5504391"><ele>10.0</ele><time>2026-04-07T15:55:45.327Z</time></trkpt><trkpt lat="41.001344" lon="9.5505025"><ele>10.0</ele><time>2026-04-07T15:55:46.328Z</time></trkpt><trkpt lat="41.0012936" lon="9.5505602"><ele>10.0</ele><time>2026-04-07T15:55:47.327Z</time></trkpt><trkpt lat="41.0012425" lon="9.5506146"><ele>10.0</ele><time>2026-04-07T15:55:48.328Z</time></trkpt><trkpt lat="41.001192" lon="9.550667"><ele>10.0</ele><time>2026-04-07T15:55:49.327Z</time></trkpt><trkpt lat="41.0011356" lon="9.5507251"><ele>9.833333333333334</ele><time>2026-04-07T15:55:50.328Z</time></trkpt><trkpt lat="41.0010786" lon="9.5507853"><ele>9.666666666666668</ele><time>2026-04-07T15:55:51.328Z</time></trkpt><trkpt lat="41.0010227" lon="9.5508487"><ele>9.5</ele><time>2026-04-07T15:55:52.328Z</time></trkpt><trkpt lat="41.000965" lon="9.5509157"><ele>9.333333333333334</ele><time>2026-04-07T15:55:53.328Z</time></trkpt><trkpt lat="41.0009066" lon="9.5509801"><ele>9.166666666666666</ele><time>2026-04-07T15:55:54.327Z</time></trkpt><trkpt lat="41.0008461" lon="9.5510438"><ele>9.0</ele><time>2026-04-07T15:55:55.328Z</time></trkpt><trkpt lat="41.000786" lon="9.551108"><ele>9.0</ele><time>2026-04-07T15:55:56.328Z</time></trkpt><trkpt lat="41.0007223" lon="9.5511698"><ele>9.0</ele><time>2026-04-07T15:55:57.328Z</time></trkpt><trkpt lat="41.0006605" lon="9.5512316"><ele>9.0</ele><time>2026-04-07T15:55:58.327Z</time></trkpt><trkpt lat="41.0005969" lon="9.5512889"><ele>9.0</ele><time>2026-04-07T15:55:59.328Z</time></trkpt><trkpt lat="41.0005302" lon="9.5513464"><ele>9.0</ele><time>2026-04-07T15:56:00.328Z</time></trkpt><trkpt lat="41.0004626" lon="9.5513973"><ele>9.0</ele><time>2026-04-07T15:56:01.328Z</time></trkpt><trkpt lat="41.0003905" lon="9.5514416"><ele>8.666666666666666</ele><time>2026-04-07T15:56:02.328Z</time></trkpt><trkpt lat="41.0003173" lon="9.5514797"><ele>8.333333333333334</ele><time>2026-04-07T15:56:03.328Z</time></trkpt><trkpt lat="41.0002448" lon="9.5515174"><ele>8.0</ele><time>2026-04-07T15:56:04.328Z</time></trkpt><trkpt lat="41.0001716" lon="9.5515485"><ele>7.666666666666667</ele><time>2026-04-07T15:56:05.328Z</time></trkpt><trkpt lat="41.0000993" lon="9.55158"><ele>7.333333333333334</ele><time>2026-04-07T15:56:06.327Z</time></trkpt><trkpt lat="41.0000311" lon="9.5516109"><ele>7.0</ele><time>2026-04-07T15:56:07.328Z</time></trkpt><trkpt lat="40.9999575" lon="9.5516401"><ele>7.0</ele><time>2026-04-07T15:56:08.328Z</time></trkpt><trkpt lat="40.9998869" lon="9.5516614"><ele>7.0</ele><time>2026-04-07T15:56:09.327Z</time></trkpt><trkpt lat="40.9998161" lon="9.5516749"><ele>7.0</ele><time>2026-04-07T15:56:10.327Z</time></trkpt><trkpt lat="40.9997437" lon="9.551672"><ele>7.0</ele><time>2026-04-07T15:56:11.328Z</time></trkpt><trkpt lat="40.999681" lon="9.5516317"><ele>7.0</ele><time>2026-04-07T15:56:12.328Z</time></trkpt><trkpt lat="40.9996344" lon="9.5515596"><ele>7.0</ele><time>2026-04-07T15:56:13.328Z</time></trkpt><trkpt lat="40.9996125" lon="9.5514604"><ele>7.0</ele><time>2026-04-07T15:56:14.327Z</time></trkpt><trkpt lat="40.9996009" lon="9.5513461"><ele>7.0</ele><time>2026-04-07T15:56:15.328Z</time></trkpt><trkpt lat="40.9995953" lon="9.5512212"><ele>6.999999999999999</ele><time>2026-04-07T15:56:16.328Z</time></trkpt><trkpt lat="40.9995985" lon="9.5510856"><ele>6.999999999999999</ele><time>2026-04-07T15:56:17.328Z</time></trkpt><trkpt lat="40.9996006" lon="9.5509605"><ele>7.0</ele><time>2026-04-07T15:56:18.328Z</time></trkpt><trkpt lat="40.9996072" lon="9.5508429"><ele>7.0</ele><time>2026-04-07T15:56:19.328Z</time></trkpt><trkpt lat="40.999614" lon="9.5507214"><ele>7.3999999999999995</ele><time>2026-04-07T15:56:20.327Z</time></trkpt><trkpt lat="40.99962" lon="9.5505979"><ele>7.799999999999999</ele><time>2026-04-07T15:56:21.328Z</time></trkpt><trkpt lat="40.9996283" lon="9.5504655"><ele>8.2</ele><time>2026-04-07T15:56:22.328Z</time></trkpt><trkpt lat="40.999636" lon="9.5503249"><ele>8.6</ele><time>2026-04-07T15:56:23.328Z</time></trkpt><trkpt lat="40.9996407" lon="9.5501771"><ele>9.0</ele><time>2026-04-07T15:56:24.328Z</time></trkpt><trkpt lat="40.9996408" lon="9.5500216"><ele>9.75</ele><time>2026-04-07T15:56:25.328Z</time></trkpt><trkpt lat="40.9996346" lon="9.5498538"><ele>10.5</ele><time>2026-04-07T15:56:26.328Z</time></trkpt><trkpt lat="40.9996227" lon="9.5496873"><ele>11.25</ele><time>2026-04-07T15:56:27.328Z</time></trkpt><trkpt lat="40.9996053" lon="9.5495196"><ele>12.0</ele><time>2026-04-07T15:56:28.327Z</time></trkpt><trkpt lat="40.9995857" lon="9.5493592"><ele>12.75</ele><time>2026-04-07T15:56:29.327Z</time></trkpt><trkpt lat="40.9995667" lon="9.5491906"><ele>13.5</ele><time>2026-04-07T15:56:30.327Z</time></trkpt><trkpt lat="40.999539" lon="9.5490213"><ele>14.25</ele><time>2026-04-07T15:56:31.328Z</time></trkpt><trkpt lat="40.9995034" lon="9.5488556"><ele>15.0</ele><time>2026-04-07T15:56:32.328Z</time></trkpt><trkpt lat="40.9994611" lon="9.5486968"><ele>16.5</ele><time>2026-04-07T15:56:33.328Z</time></trkpt><trkpt lat="40.9994151" lon="9.5485464"><ele>18.0</ele><time>2026-04-07T15:56:34.328Z</time></trkpt><trkpt lat="40.9993645" lon="9.5483958"><ele>19.5</ele><time>2026-04-07T15:56:35.328Z</time></trkpt><trkpt lat="40.9993092" lon="9.5482467"><ele>21.0</ele><time>2026-04-07T15:56:36.328Z</time></trkpt><trkpt lat="40.9992553" lon="9.5480953"><ele>21.0</ele><time>2026-04-07T15:56:37.328Z</time></trkpt><trkpt lat="40.9992012" lon="9.5479496"><ele>21.0</ele><time>2026-04-07T15:56:38.328Z</time></trkpt><trkpt lat="40.9991529" lon="9.547802"><ele>21.0</ele><time>2026-04-07T15:56:39.328Z</time></trkpt><trkpt lat="40.9991034" lon="9.5476562"><ele>21.0</ele><time>2026-04-07T15:56:40.327Z</time></trkpt><trkpt lat="40.9990499" lon="9.54751"><ele>22.0</ele><time>2026-04-07T15:56:41.328Z</time></trkpt><trkpt lat="40.9989969" lon="9.54736"><ele>23.0</ele><time>2026-04-07T15:56:42.327Z</time></trkpt><trkpt lat="40.9989424" lon="9.5472139"><ele>24.0</ele><time>2026-04-07T15:56:43.328Z</time></trkpt><trkpt lat="40.9988855" lon="9.5470661"><ele>25.0</ele><time>2026-04-07T15:56:44.328Z</time></trkpt><trkpt lat="40.998831" lon="9.5469157"><ele>26.75</ele><time>2026-04-07T15:56:45.328Z</time></trkpt><trkpt lat="40.9987759" lon="9.546766"><ele>28.5</ele><time>2026-04-07T15:56:46.327Z</time></trkpt><trkpt lat="40.9987265" lon="9.5466134"><ele>30.25</ele><time>2026-04-07T15:56:47.328Z</time></trkpt><trkpt lat="40.9986807" lon="9.5464627"><ele>32.0</ele><time>2026-04-07T15:56:48.327Z</time></trkpt><trkpt lat="40.9986372" lon="9.5463112"><ele>34.25</ele><time>2026-04-07T15:56:49.327Z</time></trkpt><trkpt lat="40.9986003" lon="9.54616"><ele>36.5</ele><time>2026-04-07T15:56:50.328Z</time></trkpt><trkpt lat="40.9985636" lon="9.5460094"><ele>38.75</ele><time>2026-04-07T15:56:51.328Z</time></trkpt><trkpt lat="40.9985244" lon="9.5458546"><ele>41.0</ele><time>2026-04-07T15:56:52.327Z</time></trkpt><trkpt lat="40.9984861" lon="9.5457042"><ele>41.0</ele><time>2026-04-07T15:56:53.327Z</time></trkpt><trkpt lat="40.9984506" lon="9.5455476"><ele>41.0</ele><time>2026-04-07T15:56:54.328Z</time></trkpt><trkpt lat="40.9984208" lon="9.5453918"><ele>41.0</ele><time>2026-04-07T15:56:55.327Z</time></trkpt><trkpt lat="40.9983969" lon="9.545234"><ele>41.0</ele><time>2026-04-07T15:56:56.328Z</time></trkpt><trkpt lat="40.9983761" lon="9.5450737"><ele>42.5</ele><time>2026-04-07T15:56:57.327Z</time></trkpt><trkpt lat="40.9983586" lon="9.5449126"><ele>44.0</ele><time>2026-04-07T15:56:58.328Z</time></trkpt><trkpt lat="40.9983392" lon="9.544752"><ele>45.5</ele><time>2026-04-07T15:56:59.328Z</time></trkpt><trkpt lat="40.9983234" lon="9.5445929"><ele>47.0</ele><time>2026-04-07T15:57:00.328Z</time></trkpt><trkpt lat="40.9983103" lon="9.5444361"><ele>43.0</ele><time>2026-04-07T15:57:01.328Z</time></trkpt><trkpt lat="40.998301" lon="9.5442764"><ele>39.0</ele><time>2026-04-07T15:57:02.328Z</time></trkpt><trkpt lat="40.998301" lon="9.5441146"><ele>35.0</ele><time>2026-04-07T15:57:03.328Z</time></trkpt><trkpt lat="40.9983108" lon="9.5439532"><ele>31.0</ele><time>2026-04-07T15:57:04.328Z</time></trkpt><trkpt lat="40.9983282" lon="9.5437949"><ele>32.0</ele><time>2026-04-07T15:57:05.328Z</time></trkpt><trkpt lat="40.9983413" lon="9.5436368"><ele>33.0</ele><time>2026-04-07T15:57:06.327Z</time></trkpt><trkpt lat="40.9983446" lon="9.5434803"><ele>34.0</ele><time>2026-04-07T15:57:07.328Z</time></trkpt><trkpt lat="40.9983265" lon="9.5433336"><ele>35.0</ele><time>2026-04-07T15:57:08.328Z</time></trkpt><trkpt lat="40.9982849" lon="9.5432068"><ele>35.0</ele><time>2026-04-07T15:57:09.328Z</time></trkpt><trkpt lat="40.9982154" lon="9.5430986"><ele>35.0</ele><time>2026-04-07T15:57:10.328Z</time></trkpt><trkpt lat="40.9981274" lon="9.5430207"><ele>35.0</ele><time>2026-04-07T15:57:11.328Z</time></trkpt><trkpt lat="40.9980377" lon="9.5429505"><ele>35.0</ele><time>2026-04-07T15:57:12.328Z</time></trkpt><trkpt lat="40.9979598" lon="9.542888"><ele>35.0</ele><time>2026-04-07T15:57:13.328Z</time></trkpt><trkpt lat="40.9978896" lon="9.5428323"><ele>35.0</ele><time>2026-04-07T15:57:14.327Z</time></trkpt><trkpt lat="40.9978304" lon="9.5427825"><ele>35.0</ele><time>2026-04-07T15:57:15.328Z</time></trkpt><trkpt lat="40.997753" lon="9.5427242"><ele>35.0</ele><time>2026-04-07T15:57:17.328Z</time></trkpt><trkpt lat="40.9976782" lon="9.5427236"><ele>35.0</ele><time>2026-04-07T15:57:27.328Z</time></trkpt><trkpt lat="40.9976558" lon="9.5428598"><ele>35.0</ele><time>2026-04-07T15:57:29.328Z</time></trkpt><trkpt lat="40.9976644" lon="9.5429594"><ele>35.0</ele><time>2026-04-07T15:57:30.328Z</time></trkpt><trkpt lat="40.9976757" lon="9.5430674"><ele>35.0</ele><time>2026-04-07T15:57:31.327Z</time></trkpt><trkpt lat="40.9976843" lon="9.5431917"><ele>35.0</ele><time>2026-04-07T15:57:32.327Z</time></trkpt><trkpt lat="40.9976866" lon="9.5433244"><ele>35.0</ele><time>2026-04-07T15:57:33.328Z</time></trkpt><trkpt lat="40.9976895" lon="9.5434697"><ele>35.0</ele><time>2026-04-07T15:57:34.327Z</time></trkpt><trkpt lat="40.9976849" lon="9.5436195"><ele>35.0</ele><time>2026-04-07T15:57:35.328Z</time></trkpt><trkpt lat="40.9976762" lon="9.5437778"><ele>34.0</ele><time>2026-04-07T15:57:36.328Z</time></trkpt><trkpt lat="40.9976625" lon="9.5439303"><ele>33.0</ele><time>2026-04-07T15:57:37.328Z</time></trkpt><trkpt lat="40.997641" lon="9.5440834"><ele>32.0</ele><time>2026-04-07T15:57:38.327Z</time></trkpt><trkpt lat="40.9976151" lon="9.5442428"><ele>31.0</ele><time>2026-04-07T15:57:39.328Z</time></trkpt><trkpt lat="40.997577" lon="9.5444075"><ele>31.0</ele><time>2026-04-07T15:57:40.327Z</time></trkpt><trkpt lat="40.9975341" lon="9.5445726"><ele>31.0</ele><time>2026-04-07T15:57:41.327Z</time></trkpt><trkpt lat="40.997481" lon="9.5447407"><ele>31.0</ele><time>2026-04-07T15:57:42.328Z</time></trkpt><trkpt lat="40.9974201" lon="9.5449096"><ele>31.0</ele><time>2026-04-07T15:57:43.328Z</time></trkpt><trkpt lat="40.9973515" lon="9.5450735"><ele>30.0</ele><time>2026-04-07T15:57:44.328Z</time></trkpt><trkpt lat="40.9972785" lon="9.5452312"><ele>29.0</ele><time>2026-04-07T15:57:45.328Z</time></trkpt><trkpt lat="40.9972055" lon="9.5453878"><ele>28.0</ele><time>2026-04-07T15:57:46.327Z</time></trkpt><trkpt lat="40.9971336" lon="9.545537"><ele>27.0</ele><time>2026-04-07T15:57:47.328Z</time></trkpt><trkpt lat="40.9970656" lon="9.5456776"><ele>26.200000000000003</ele><time>2026-04-07T15:57:48.327Z</time></trkpt><trkpt lat="40.9970024" lon="9.5458108"><ele>25.400000000000002</ele><time>2026-04-07T15:57:49.328Z</time></trkpt><trkpt lat="40.9969408" lon="9.5459349"><ele>24.6</ele><time>2026-04-07T15:57:50.328Z</time></trkpt><trkpt lat="40.9968724" lon="9.5460348"><ele>23.799999999999997</ele><time>2026-04-07T15:57:51.327Z</time></trkpt><trkpt lat="40.9967986" lon="9.5461189"><ele>23.0</ele><time>2026-04-07T15:57:52.328Z</time></trkpt><trkpt lat="40.996718" lon="9.5461856"><ele>23.799999999999997</ele><time>2026-04-07T15:57:53.327Z</time></trkpt><trkpt lat="40.9966345" lon="9.5462206"><ele>24.6</ele><time>2026-04-07T15:57:54.328Z</time></trkpt><trkpt lat="40.9965538" lon="9.5462277"><ele>25.400000000000002</ele><time>2026-04-07T15:57:55.328Z</time></trkpt><trkpt lat="40.9964621" lon="9.5462081"><ele>26.200000000000003</ele><time>2026-04-07T15:57:56.327Z</time></trkpt><trkpt lat="40.9963659" lon="9.5461621"><ele>27.0</ele><time>2026-04-07T15:57:57.328Z</time></trkpt><trkpt lat="40.996265" lon="9.5460993"><ele>27.25</ele><time>2026-04-07T15:57:58.328Z</time></trkpt><trkpt lat="40.9961619" lon="9.5459777"><ele>27.5</ele><time>2026-04-07T15:57:59.327Z</time></trkpt><trkpt lat="40.9960615" lon="9.5458517"><ele>27.75</ele><time>2026-04-07T15:58:00.328Z</time></trkpt><trkpt lat="40.9959576" lon="9.5457245"><ele>28.0</ele><time>2026-04-07T15:58:01.327Z</time></trkpt><trkpt lat="40.9958555" lon="9.5455926"><ele>28.0</ele><time>2026-04-07T15:58:02.328Z</time></trkpt><trkpt lat="40.9957503" lon="9.5454603"><ele>28.0</ele><time>2026-04-07T15:58:03.328Z</time></trkpt><trkpt lat="40.9956467" lon="9.5453278"><ele>28.0</ele><time>2026-04-07T15:58:04.327Z</time></trkpt><trkpt lat="40.9955385" lon="9.5451956"><ele>28.0</ele><time>2026-04-07T15:58:05.327Z</time></trkpt><trkpt lat="40.9953162" lon="9.5449277"><ele>28.0</ele><time>2026-04-07T15:58:07.328Z</time></trkpt><trkpt lat="40.9952087" lon="9.5447891"><ele>28.0</ele><time>2026-04-07T15:58:08.328Z</time></trkpt><trkpt lat="40.995099" lon="9.5446553"><ele>28.0</ele><time>2026-04-07T15:58:09.327Z</time></trkpt><trkpt lat="40.9949884" lon="9.5445234"><ele>28.0</ele><time>2026-04-07T15:58:10.327Z</time></trkpt><trkpt lat="40.9948771" lon="9.5443883"><ele>29.0</ele><time>2026-04-07T15:58:11.328Z</time></trkpt><trkpt lat="40.9947667" lon="9.5442538"><ele>30.0</ele><time>2026-04-07T15:58:12.328Z</time></trkpt><trkpt lat="40.9946564" lon="9.544116"><ele>31.0</ele><time>2026-04-07T15:58:13.328Z</time></trkpt><trkpt lat="40.9945425" lon="9.5439758"><ele>31.0</ele><time>2026-04-07T15:58:14.328Z</time></trkpt><trkpt lat="40.9944304" lon="9.5438347"><ele>31.0</ele><time>2026-04-07T15:58:15.328Z</time></trkpt><trkpt lat="40.9943193" lon="9.5436965"><ele>31.0</ele><time>2026-04-07T15:58:16.328Z</time></trkpt><trkpt lat="40.9942078" lon="9.543556"><ele>31.666666666666668</ele><time>2026-04-07T15:58:17.328Z</time></trkpt><trkpt lat="40.9940936" lon="9.5434182"><ele>32.333333333333336</ele><time>2026-04-07T15:58:18.327Z</time></trkpt><trkpt lat="40.9939774" lon="9.543272"><ele>33.0</ele><time>2026-04-07T15:58:19.327Z</time></trkpt><trkpt lat="40.9938585" lon="9.5431253"><ele>33.0</ele><time>2026-04-07T15:58:20.327Z</time></trkpt><trkpt lat="40.9937375" lon="9.5429733"><ele>33.0</ele><time>2026-04-07T15:58:21.327Z</time></trkpt><trkpt lat="40.9936138" lon="9.5428185"><ele>33.0</ele><time>2026-04-07T15:58:22.328Z</time></trkpt><trkpt lat="40.9934907" lon="9.5426665"><ele>33.666666666666664</ele><time>2026-04-07T15:58:23.328Z</time></trkpt><trkpt lat="40.9933688" lon="9.5425161"><ele>34.33333333333333</ele><time>2026-04-07T15:58:24.328Z</time></trkpt><trkpt lat="40.9932496" lon="9.542369"><ele>35.0</ele><time>2026-04-07T15:58:25.328Z</time></trkpt><trkpt lat="40.9931321" lon="9.5422171"><ele>35.0</ele><time>2026-04-07T15:58:26.328Z</time></trkpt><trkpt lat="40.9930308" lon="9.5420539"><ele>35.0</ele><time>2026-04-07T15:58:27.327Z</time></trkpt><trkpt lat="40.9929492" lon="9.5418774"><ele>35.0</ele><time>2026-04-07T15:58:28.328Z</time></trkpt><trkpt lat="40.9928849" lon="9.5416756"><ele>36.0</ele><time>2026-04-07T15:58:29.328Z</time></trkpt><trkpt lat="40.9928419" lon="9.5414569"><ele>37.0</ele><time>2026-04-07T15:58:30.328Z</time></trkpt><trkpt lat="40.9928065" lon="9.5412261"><ele>38.0</ele><time>2026-04-07T15:58:31.328Z</time></trkpt><trkpt lat="40.9927699" lon="9.5409878"><ele>39.33333333333333</ele><time>2026-04-07T15:58:32.328Z</time></trkpt><trkpt lat="40.9927315" lon="9.5407388"><ele>40.666666666666664</ele><time>2026-04-07T15:58:33.328Z</time></trkpt><trkpt lat="40.9926924" lon="9.5404848"><ele>42.0</ele><time>2026-04-07T15:58:34.328Z</time></trkpt><trkpt lat="40.9926541" lon="9.5402278"><ele>42.333333333333336</ele><time>2026-04-07T15:58:35.327Z</time></trkpt><trkpt lat="40.9926134" lon="9.5399675"><ele>42.66666666666667</ele><time>2026-04-07T15:58:36.328Z</time></trkpt><trkpt lat="40.9925741" lon="9.5397044"><ele>43.0</ele><time>2026-04-07T15:58:37.328Z</time></trkpt><trkpt lat="40.9925355" lon="9.5394394"><ele>43.66666666666667</ele><time>2026-04-07T15:58:38.328Z</time></trkpt><trkpt lat="40.992496" lon="9.5391742"><ele>44.333333333333336</ele><time>2026-04-07T15:58:39.328Z</time></trkpt><trkpt lat="40.9924596" lon="9.5389272"><ele>45.0</ele><time>2026-04-07T15:58:40.327Z</time></trkpt><trkpt lat="40.9924254" lon="9.5387096"><ele>46.0</ele><time>2026-04-07T15:58:41.327Z</time></trkpt><trkpt lat="40.9923961" lon="9.5385062"><ele>47.0</ele><time>2026-04-07T15:58:42.328Z</time></trkpt><trkpt lat="40.9923865" lon="9.5383448"><ele>48.0</ele><time>2026-04-07T15:58:43.328Z</time></trkpt><trkpt lat="40.9923804" lon="9.5381583"><ele>49.0</ele><time>2026-04-07T15:58:44.327Z</time></trkpt><trkpt lat="40.9923876" lon="9.5379687"><ele>49.666666666666664</ele><time>2026-04-07T15:58:45.328Z</time></trkpt><trkpt lat="40.9924087" lon="9.5377626"><ele>50.33333333333333</ele><time>2026-04-07T15:58:46.327Z</time></trkpt><trkpt lat="40.9924327" lon="9.5375478"><ele>51.0</ele><time>2026-04-07T15:58:47.328Z</time></trkpt><trkpt lat="40.9924633" lon="9.5373232"><ele>51.0</ele><time>2026-04-07T15:58:48.328Z</time></trkpt><trkpt lat="40.9924951" lon="9.5370865"><ele>51.0</ele><time>2026-04-07T15:58:49.327Z</time></trkpt><trkpt lat="40.9925296" lon="9.5368355"><ele>51.0</ele><time>2026-04-07T15:58:50.328Z</time></trkpt><trkpt lat="40.9925661" lon="9.5365808"><ele>52.33333333333333</ele><time>2026-04-07T15:58:51.327Z</time></trkpt><trkpt lat="40.9926057" lon="9.5363169"><ele>53.666666666666664</ele><time>2026-04-07T15:58:52.328Z</time></trkpt><trkpt lat="40.9926417" lon="9.5360457"><ele>55.0</ele><time>2026-04-07T15:58:53.327Z</time></trkpt><trkpt lat="40.9926815" lon="9.5357764"><ele>55.0</ele><time>2026-04-07T15:58:54.328Z</time></trkpt><trkpt lat="40.9927167" lon="9.5355097"><ele>55.0</ele><time>2026-04-07T15:58:55.327Z</time></trkpt><trkpt lat="40.9927499" lon="9.5352657"><ele>55.0</ele><time>2026-04-07T15:58:56.327Z</time></trkpt><trkpt lat="40.9927717" lon="9.5350243"><ele>55.0</ele><time>2026-04-07T15:58:57.328Z</time></trkpt><trkpt lat="40.9927693" lon="9.5347784"><ele>55.0</ele><time>2026-04-07T15:58:58.328Z</time></trkpt><trkpt lat="40.992744" lon="9.5345331"><ele>55.0</ele><time>2026-04-07T15:58:59.327Z</time></trkpt><trkpt lat="40.9927171" lon="9.5342913"><ele>56.0</ele><time>2026-04-07T15:59:00.327Z</time></trkpt><trkpt lat="40.9926895" lon="9.5340517"><ele>57.0</ele><time>2026-04-07T15:59:01.328Z</time></trkpt><trkpt lat="40.9926568" lon="9.5338137"><ele>58.0</ele><time>2026-04-07T15:59:02.327Z</time></trkpt><trkpt lat="40.992627" lon="9.5335763"><ele>58.33333333333333</ele><time>2026-04-07T15:59:03.327Z</time></trkpt><trkpt lat="40.9925996" lon="9.5333368"><ele>58.66666666666667</ele><time>2026-04-07T15:59:04.328Z</time></trkpt><trkpt lat="40.9925719" lon="9.5330936"><ele>59.0</ele><time>2026-04-07T15:59:05.327Z</time></trkpt><trkpt lat="40.9925415" lon="9.5328475"><ele>59.333333333333336</ele><time>2026-04-07T15:59:06.328Z</time></trkpt><trkpt lat="40.9925085" lon="9.5325979"><ele>59.66666666666667</ele><time>2026-04-07T15:59:07.328Z</time></trkpt><trkpt lat="40.9924738" lon="9.5323492"><ele>60.0</ele><time>2026-04-07T15:59:08.328Z</time></trkpt><trkpt lat="40.9924408" lon="9.5320949"><ele>61.66666666666667</ele><time>2026-04-07T15:59:09.327Z</time></trkpt><trkpt lat="40.992408" lon="9.5318378"><ele>63.333333333333336</ele><time>2026-04-07T15:59:10.327Z</time></trkpt><trkpt lat="40.9923757" lon="9.5315833"><ele>65.0</ele><time>2026-04-07T15:59:11.328Z</time></trkpt><trkpt lat="40.9923472" lon="9.531327"><ele>65.33333333333334</ele><time>2026-04-07T15:59:12.328Z</time></trkpt><trkpt lat="40.9923162" lon="9.5310668"><ele>65.66666666666667</ele><time>2026-04-07T15:59:13.327Z</time></trkpt><trkpt lat="40.9922816" lon="9.5308061"><ele>66.0</ele><time>2026-04-07T15:59:14.328Z</time></trkpt><trkpt lat="40.9922476" lon="9.5305423"><ele>66.33333333333333</ele><time>2026-04-07T15:59:15.328Z</time></trkpt><trkpt lat="40.9922121" lon="9.530284"><ele>66.66666666666666</ele><time>2026-04-07T15:59:16.328Z</time></trkpt><trkpt lat="40.9921771" lon="9.5300236"><ele>67.0</ele><time>2026-04-07T15:59:17.328Z</time></trkpt><trkpt lat="40.9921394" lon="9.5297723"><ele>66.66666666666666</ele><time>2026-04-07T15:59:18.327Z</time></trkpt><trkpt lat="40.992098" lon="9.5295237"><ele>66.33333333333333</ele><time>2026-04-07T15:59:19.328Z</time></trkpt><trkpt lat="40.9920522" lon="9.529281"><ele>66.0</ele><time>2026-04-07T15:59:20.328Z</time></trkpt><trkpt lat="40.9920038" lon="9.5290398"><ele>66.0</ele><time>2026-04-07T15:59:21.328Z</time></trkpt><trkpt lat="40.9919564" lon="9.5287996"><ele>66.0</ele><time>2026-04-07T15:59:22.327Z</time></trkpt><trkpt lat="40.9919121" lon="9.5285736"><ele>66.0</ele><time>2026-04-07T15:59:23.328Z</time></trkpt><trkpt lat="40.9918607" lon="9.5283552"><ele>63.66666666666667</ele><time>2026-04-07T15:59:24.328Z</time></trkpt><trkpt lat="40.9917928" lon="9.5281499"><ele>61.333333333333336</ele><time>2026-04-07T15:59:25.327Z</time></trkpt><trkpt lat="40.9917061" lon="9.527952"><ele>59.0</ele><time>2026-04-07T15:59:26.327Z</time></trkpt><trkpt lat="40.9916138" lon="9.5277545"><ele>64.33333333333334</ele><time>2026-04-07T15:59:27.328Z</time></trkpt><trkpt lat="40.9915181" lon="9.5275522"><ele>69.66666666666667</ele><time>2026-04-07T15:59:28.328Z</time></trkpt><trkpt lat="40.9914209" lon="9.5273444"><ele>75.0</ele><time>2026-04-07T15:59:29.328Z</time></trkpt><trkpt lat="40.9913183" lon="9.5271364"><ele>72.33333333333333</ele><time>2026-04-07T15:59:30.327Z</time></trkpt><trkpt lat="40.9912162" lon="9.5269249"><ele>69.66666666666666</ele><time>2026-04-07T15:59:31.328Z</time></trkpt><trkpt lat="40.9911049" lon="9.5267155"><ele>67.0</ele><time>2026-04-07T15:59:32.328Z</time></trkpt><trkpt lat="40.9909873" lon="9.5265092"><ele>67.0</ele><time>2026-04-07T15:59:33.327Z</time></trkpt><trkpt lat="40.9908697" lon="9.5263087"><ele>67.0</ele><time>2026-04-07T15:59:34.328Z</time></trkpt><trkpt lat="40.9907571" lon="9.5261187"><ele>67.0</ele><time>2026-04-07T15:59:35.328Z</time></trkpt><trkpt lat="40.9905429" lon="9.5257768"><ele>70.33333333333333</ele><time>2026-04-07T15:59:37.328Z</time></trkpt><trkpt lat="40.9904175" lon="9.52564"><ele>73.66666666666667</ele><time>2026-04-07T15:59:38.328Z</time></trkpt><trkpt lat="40.9902867" lon="9.5255299"><ele>77.0</ele><time>2026-04-07T15:59:39.327Z</time></trkpt><trkpt lat="40.9901554" lon="9.5254361"><ele>77.0</ele><time>2026-04-07T15:59:40.328Z</time></trkpt><trkpt lat="40.9900239" lon="9.5253511"><ele>77.0</ele><time>2026-04-07T15:59:41.328Z</time></trkpt><trkpt lat="40.9898926" lon="9.5252654"><ele>77.0</ele><time>2026-04-07T15:59:42.328Z</time></trkpt><trkpt lat="40.9897501" lon="9.5252084"><ele>77.0</ele><time>2026-04-07T15:59:43.328Z</time></trkpt><trkpt lat="40.9895885" lon="9.5251944"><ele>77.33333333333334</ele><time>2026-04-07T15:59:44.327Z</time></trkpt><trkpt lat="40.9894271" lon="9.5252068"><ele>77.66666666666667</ele><time>2026-04-07T15:59:45.328Z</time></trkpt><trkpt lat="40.9892678" lon="9.5252332"><ele>78.0</ele><time>2026-04-07T15:59:46.328Z</time></trkpt><trkpt lat="40.9891099" lon="9.5252616"><ele>78.0</ele><time>2026-04-07T15:59:47.328Z</time></trkpt><trkpt lat="40.9889543" lon="9.5252865"><ele>78.0</ele><time>2026-04-07T15:59:48.328Z</time></trkpt><trkpt lat="40.9887973" lon="9.5253167"><ele>78.0</ele><time>2026-04-07T15:59:49.327Z</time></trkpt><trkpt lat="40.9886389" lon="9.5253596"><ele>79.33333333333333</ele><time>2026-04-07T15:59:50.327Z</time></trkpt><trkpt lat="40.9884764" lon="9.5254151"><ele>80.66666666666666</ele><time>2026-04-07T15:59:51.328Z</time></trkpt><trkpt lat="40.9883079" lon="9.5254783"><ele>82.0</ele><time>2026-04-07T15:59:52.327Z</time></trkpt><trkpt lat="40.9881369" lon="9.5255401"><ele>82.0</ele><time>2026-04-07T15:59:53.328Z</time></trkpt><trkpt lat="40.9879671" lon="9.525608"><ele>82.0</ele><time>2026-04-07T15:59:54.328Z</time></trkpt><trkpt lat="40.9877994" lon="9.5256725"><ele>82.0</ele><time>2026-04-07T15:59:55.328Z</time></trkpt><trkpt lat="40.9876324" lon="9.5257339"><ele>81.0</ele><time>2026-04-07T15:59:56.328Z</time></trkpt><trkpt lat="40.9874779" lon="9.5257724"><ele>80.0</ele><time>2026-04-07T15:59:57.328Z</time></trkpt><trkpt lat="40.9873319" lon="9.5257671"><ele>79.0</ele><time>2026-04-07T15:59:58.328Z</time></trkpt><trkpt lat="40.9871956" lon="9.5257175"><ele>78.0</ele><time>2026-04-07T15:59:59.328Z</time></trkpt><trkpt lat="40.9870715" lon="9.52564"><ele>78.0</ele><time>2026-04-07T16:00:00.328Z</time></trkpt><trkpt lat="40.9869489" lon="9.525534"><ele>78.0</ele><time>2026-04-07T16:00:01.328Z</time></trkpt><trkpt lat="40.9868305" lon="9.5254009"><ele>78.0</ele><time>2026-04-07T16:00:02.328Z</time></trkpt><trkpt lat="40.9867087" lon="9.5252577"><ele>76.66666666666667</ele><time>2026-04-07T16:00:03.327Z</time></trkpt><trkpt lat="40.986586" lon="9.5251175"><ele>75.33333333333334</ele><time>2026-04-07T16:00:04.327Z</time></trkpt><trkpt lat="40.9864601" lon="9.5249793"><ele>74.0</ele><time>2026-04-07T16:00:05.328Z</time></trkpt><trkpt lat="40.9863309" lon="9.5248391"><ele>74.0</ele><time>2026-04-07T16:00:06.327Z</time></trkpt><trkpt lat="40.9861971" lon="9.5246988"><ele>74.0</ele><time>2026-04-07T16:00:07.328Z</time></trkpt><trkpt lat="40.9860625" lon="9.5245693"><ele>74.0</ele><time>2026-04-07T16:00:08.328Z</time></trkpt><trkpt lat="40.9859275" lon="9.5244519"><ele>72.66666666666667</ele><time>2026-04-07T16:00:09.327Z</time></trkpt><trkpt lat="40.985803" lon="9.5243293"><ele>71.33333333333333</ele><time>2026-04-07T16:00:10.328Z</time></trkpt><trkpt lat="40.9857022" lon="9.5241904"><ele>70.0</ele><time>2026-04-07T16:00:11.328Z</time></trkpt><trkpt lat="40.9855354" lon="9.5238583"><ele>73.0</ele><time>2026-04-07T16:00:13.327Z</time></trkpt><trkpt lat="40.9854593" lon="9.5236904"><ele>76.0</ele><time>2026-04-07T16:00:14.327Z</time></trkpt><trkpt lat="40.9853765" lon="9.5235161"><ele>79.0</ele><time>2026-04-07T16:00:15.328Z</time></trkpt><trkpt lat="40.9852868" lon="9.5233409"><ele>79.0</ele><time>2026-04-07T16:00:16.327Z</time></trkpt><trkpt lat="40.9851854" lon="9.5231679"><ele>79.0</ele><time>2026-04-07T16:00:17.327Z</time></trkpt><trkpt lat="40.9850841" lon="9.5229965"><ele>79.0</ele><time>2026-04-07T16:00:18.328Z</time></trkpt><trkpt lat="40.9849792" lon="9.5228282"><ele>74.66666666666666</ele><time>2026-04-07T16:00:19.328Z</time></trkpt><trkpt lat="40.9848778" lon="9.5226633"><ele>70.33333333333333</ele><time>2026-04-07T16:00:20.328Z</time></trkpt><trkpt lat="40.9847778" lon="9.5225055"><ele>66.0</ele><time>2026-04-07T16:00:21.328Z</time></trkpt><trkpt lat="40.9846782" lon="9.5223476"><ele>66.0</ele><time>2026-04-07T16:00:22.328Z</time></trkpt><trkpt lat="40.9845759" lon="9.522194"><ele>66.0</ele><time>2026-04-07T16:00:23.328Z</time></trkpt><trkpt lat="40.9844715" lon="9.5220462"><ele>66.0</ele><time>2026-04-07T16:00:24.328Z</time></trkpt><trkpt lat="40.9843536" lon="9.5219056"><ele>68.33333333333333</ele><time>2026-04-07T16:00:25.328Z</time></trkpt><trkpt lat="40.9842257" lon="9.5217766"><ele>70.66666666666666</ele><time>2026-04-07T16:00:26.328Z</time></trkpt><trkpt lat="40.9840886" lon="9.5216539"><ele>73.0</ele><time>2026-04-07T16:00:27.328Z</time></trkpt><trkpt lat="40.9839527" lon="9.5215403"><ele>69.66666666666666</ele><time>2026-04-07T16:00:28.328Z</time></trkpt><trkpt lat="40.9838155" lon="9.5214307"><ele>66.33333333333333</ele><time>2026-04-07T16:00:29.328Z</time></trkpt><trkpt lat="40.9836825" lon="9.521323"><ele>63.0</ele><time>2026-04-07T16:00:30.327Z</time></trkpt><trkpt lat="40.9835623" lon="9.5212122"><ele>63.0</ele><time>2026-04-07T16:00:31.328Z</time></trkpt><trkpt lat="40.983457" lon="9.5210804"><ele>63.0</ele><time>2026-04-07T16:00:32.328Z</time></trkpt><trkpt lat="40.9833749" lon="9.5209204"><ele>63.0</ele><time>2026-04-07T16:00:33.328Z</time></trkpt><trkpt lat="40.9833021" lon="9.5207452"><ele>63.0</ele><time>2026-04-07T16:00:34.328Z</time></trkpt><trkpt lat="40.9832174" lon="9.5205621"><ele>59.33333333333333</ele><time>2026-04-07T16:00:35.328Z</time></trkpt><trkpt lat="40.9831338" lon="9.5203835"><ele>55.666666666666664</ele><time>2026-04-07T16:00:36.328Z</time></trkpt><trkpt lat="40.983045" lon="9.5202044"><ele>52.0</ele><time>2026-04-07T16:00:37.328Z</time></trkpt><trkpt lat="40.9829503" lon="9.5200255"><ele>52.0</ele><time>2026-04-07T16:00:38.327Z</time></trkpt><trkpt lat="40.9828502" lon="9.5198456"><ele>52.0</ele><time>2026-04-07T16:00:39.327Z</time></trkpt><trkpt lat="40.9827505" lon="9.5196687"><ele>52.0</ele><time>2026-04-07T16:00:40.327Z</time></trkpt><trkpt lat="40.98265" lon="9.5194893"><ele>54.0</ele><time>2026-04-07T16:00:41.328Z</time></trkpt><trkpt lat="40.9825489" lon="9.5193081"><ele>56.0</ele><time>2026-04-07T16:00:42.328Z</time></trkpt><trkpt lat="40.9824517" lon="9.5191199"><ele>58.0</ele><time>2026-04-07T16:00:43.327Z</time></trkpt><trkpt lat="40.9823594" lon="9.5189246"><ele>55.0</ele><time>2026-04-07T16:00:44.327Z</time></trkpt><trkpt lat="40.9822756" lon="9.5187192"><ele>52.0</ele><time>2026-04-07T16:00:45.327Z</time></trkpt><trkpt lat="40.9821971" lon="9.5185066"><ele>49.0</ele><time>2026-04-07T16:00:46.327Z</time></trkpt><trkpt lat="40.9821121" lon="9.5182894"><ele>49.0</ele><time>2026-04-07T16:00:47.328Z</time></trkpt><trkpt lat="40.9819464" lon="9.5178257"><ele>49.0</ele><time>2026-04-07T16:00:49.327Z</time></trkpt><trkpt lat="40.9818565" lon="9.5175866"><ele>49.0</ele><time>2026-04-07T16:00:50.328Z</time></trkpt><trkpt lat="40.9817738" lon="9.5173543"><ele>49.0</ele><time>2026-04-07T16:00:51.328Z</time></trkpt><trkpt lat="40.9816898" lon="9.5171284"><ele>49.0</ele><time>2026-04-07T16:00:52.327Z</time></trkpt><trkpt lat="40.9816048" lon="9.5169073"><ele>45.33333333333333</ele><time>2026-04-07T16:00:53.328Z</time></trkpt><trkpt lat="40.98152" lon="9.5166839"><ele>41.666666666666664</ele><time>2026-04-07T16:00:54.328Z</time></trkpt><trkpt lat="40.9814357" lon="9.516454"><ele>38.0</ele><time>2026-04-07T16:00:55.328Z</time></trkpt><trkpt lat="40.9813484" lon="9.5162213"><ele>37.33333333333333</ele><time>2026-04-07T16:00:56.327Z</time></trkpt><trkpt lat="40.9812628" lon="9.515981"><ele>36.666666666666664</ele><time>2026-04-07T16:00:57.327Z</time></trkpt><trkpt lat="40.9811708" lon="9.5157369"><ele>36.0</ele><time>2026-04-07T16:00:58.328Z</time></trkpt><trkpt lat="40.9810756" lon="9.5154837"><ele>35.666666666666664</ele><time>2026-04-07T16:00:59.327Z</time></trkpt><trkpt lat="40.9809806" lon="9.515234"><ele>35.33333333333333</ele><time>2026-04-07T16:01:00.328Z</time></trkpt><trkpt lat="40.9808875" lon="9.5149858"><ele>35.0</ele><time>2026-04-07T16:01:01.328Z</time></trkpt><trkpt lat="40.9807939" lon="9.5147408"><ele>34.0</ele><time>2026-04-07T16:01:02.328Z</time></trkpt><trkpt lat="40.9807056" lon="9.5144977"><ele>33.0</ele><time>2026-04-07T16:01:03.327Z</time></trkpt><trkpt lat="40.9806174" lon="9.5142626"><ele>32.0</ele><time>2026-04-07T16:01:04.328Z</time></trkpt><trkpt lat="40.9805292" lon="9.514033"><ele>32.0</ele><time>2026-04-07T16:01:05.327Z</time></trkpt><trkpt lat="40.9804429" lon="9.5138047"><ele>32.0</ele><time>2026-04-07T16:01:06.327Z</time></trkpt><trkpt lat="40.9803595" lon="9.5135818"><ele>32.0</ele><time>2026-04-07T16:01:07.327Z</time></trkpt><trkpt lat="40.9802743" lon="9.5133631"><ele>32.0</ele><time>2026-04-07T16:01:08.327Z</time></trkpt><trkpt lat="40.9801898" lon="9.5131421"><ele>32.0</ele><time>2026-04-07T16:01:09.328Z</time></trkpt><trkpt lat="40.9801056" lon="9.5129246"><ele>32.0</ele><time>2026-04-07T16:01:10.328Z</time></trkpt><trkpt lat="40.9800241" lon="9.5127063"><ele>34.0</ele><time>2026-04-07T16:01:11.327Z</time></trkpt><trkpt lat="40.9799406" lon="9.5124926"><ele>36.0</ele><time>2026-04-07T16:01:12.327Z</time></trkpt><trkpt lat="40.9798622" lon="9.5122754"><ele>38.0</ele><time>2026-04-07T16:01:13.328Z</time></trkpt><trkpt lat="40.9797805" lon="9.5120674"><ele>38.33333333333333</ele><time>2026-04-07T16:01:14.328Z</time></trkpt><trkpt lat="40.9797082" lon="9.5118633"><ele>38.666666666666664</ele><time>2026-04-07T16:01:15.327Z</time></trkpt><trkpt lat="40.9796454" lon="9.5116622"><ele>39.0</ele><time>2026-04-07T16:01:16.328Z</time></trkpt><trkpt lat="40.9796073" lon="9.5114551"><ele>38.333333333333336</ele><time>2026-04-07T16:01:17.328Z</time></trkpt><trkpt lat="40.9795954" lon="9.5112355"><ele>37.66666666666667</ele><time>2026-04-07T16:01:18.328Z</time></trkpt><trkpt lat="40.9795911" lon="9.5110162"><ele>37.0</ele><time>2026-04-07T16:01:19.327Z</time></trkpt><trkpt lat="40.9795867" lon="9.5107961"><ele>37.0</ele><time>2026-04-07T16:01:20.328Z</time></trkpt><trkpt lat="40.9795849" lon="9.5105737"><ele>37.0</ele><time>2026-04-07T16:01:21.327Z</time></trkpt><trkpt lat="40.9795825" lon="9.5103477"><ele>37.0</ele><time>2026-04-07T16:01:22.327Z</time></trkpt><trkpt lat="40.9795818" lon="9.510124"><ele>37.5</ele><time>2026-04-07T16:01:23.328Z</time></trkpt><trkpt lat="40.9795794" lon="9.5096722"><ele>38.0</ele><time>2026-04-07T16:01:25.328Z</time></trkpt><trkpt lat="40.9795745" lon="9.5094449"><ele>37.33333333333333</ele><time>2026-04-07T16:01:26.328Z</time></trkpt><trkpt lat="40.9795702" lon="9.5092189"><ele>36.666666666666664</ele><time>2026-04-07T16:01:27.328Z</time></trkpt><trkpt lat="40.9795679" lon="9.5089852"><ele>36.0</ele><time>2026-04-07T16:01:28.328Z</time></trkpt><trkpt lat="40.979563" lon="9.5087509"><ele>35.333333333333336</ele><time>2026-04-07T16:01:29.327Z</time></trkpt><trkpt lat="40.9795619" lon="9.5085154"><ele>34.66666666666667</ele><time>2026-04-07T16:01:30.327Z</time></trkpt><trkpt lat="40.9795598" lon="9.5082827"><ele>34.0</ele><time>2026-04-07T16:01:31.328Z</time></trkpt><trkpt lat="40.9795575" lon="9.5080537"><ele>33.333333333333336</ele><time>2026-04-07T16:01:32.328Z</time></trkpt><trkpt lat="40.979553" lon="9.5078264"><ele>32.666666666666664</ele><time>2026-04-07T16:01:33.327Z</time></trkpt><trkpt lat="40.9795436" lon="9.5076049"><ele>32.0</ele><time>2026-04-07T16:01:34.328Z</time></trkpt><trkpt lat="40.9795363" lon="9.5073841"><ele>32.0</ele><time>2026-04-07T16:01:35.328Z</time></trkpt><trkpt lat="40.979513" lon="9.5071624"><ele>32.0</ele><time>2026-04-07T16:01:36.327Z</time></trkpt><trkpt lat="40.9794695" lon="9.5069446"><ele>32.0</ele><time>2026-04-07T16:01:37.328Z</time></trkpt><trkpt lat="40.9794168" lon="9.5067288"><ele>31.333333333333332</ele><time>2026-04-07T16:01:38.328Z</time></trkpt><trkpt lat="40.9793581" lon="9.5065176"><ele>30.666666666666664</ele><time>2026-04-07T16:01:39.327Z</time></trkpt><trkpt lat="40.9792968" lon="9.506303"><ele>30.0</ele><time>2026-04-07T16:01:40.328Z</time></trkpt><trkpt lat="40.9792303" lon="9.5060888"><ele>30.666666666666664</ele><time>2026-04-07T16:01:41.328Z</time></trkpt><trkpt lat="40.9791673" lon="9.5058709"><ele>31.333333333333332</ele><time>2026-04-07T16:01:42.328Z</time></trkpt><trkpt lat="40.9791045" lon="9.5056524"><ele>32.0</ele><time>2026-04-07T16:01:43.327Z</time></trkpt><trkpt lat="40.9790375" lon="9.5054283"><ele>31.333333333333332</ele><time>2026-04-07T16:01:44.328Z</time></trkpt><trkpt lat="40.9789708" lon="9.505202"><ele>30.666666666666664</ele><time>2026-04-07T16:01:45.328Z</time></trkpt><trkpt lat="40.9789049" lon="9.5049777"><ele>30.0</ele><time>2026-04-07T16:01:46.328Z</time></trkpt><trkpt lat="40.9788418" lon="9.5047576"><ele>29.333333333333336</ele><time>2026-04-07T16:01:47.328Z</time></trkpt><trkpt lat="40.9787776" lon="9.5045365"><ele>28.666666666666668</ele><time>2026-04-07T16:01:48.328Z</time></trkpt><trkpt lat="40.9787107" lon="9.5043176"><ele>28.0</ele><time>2026-04-07T16:01:49.328Z</time></trkpt><trkpt lat="40.9786451" lon="9.5040933"><ele>28.0</ele><time>2026-04-07T16:01:50.328Z</time></trkpt><trkpt lat="40.9785785" lon="9.5038681"><ele>28.0</ele><time>2026-04-07T16:01:51.327Z</time></trkpt><trkpt lat="40.9785072" lon="9.5036394"><ele>28.0</ele><time>2026-04-07T16:01:52.328Z</time></trkpt><trkpt lat="40.9784414" lon="9.5034065"><ele>28.0</ele><time>2026-04-07T16:01:53.328Z</time></trkpt><trkpt lat="40.9783725" lon="9.5031695"><ele>28.0</ele><time>2026-04-07T16:01:54.328Z</time></trkpt><trkpt lat="40.9783019" lon="9.5029323"><ele>28.0</ele><time>2026-04-07T16:01:55.328Z</time></trkpt><trkpt lat="40.9782349" lon="9.5026983"><ele>27.666666666666668</ele><time>2026-04-07T16:01:56.328Z</time></trkpt><trkpt lat="40.9781694" lon="9.502469"><ele>27.333333333333336</ele><time>2026-04-07T16:01:57.328Z</time></trkpt><trkpt lat="40.9781046" lon="9.5022383"><ele>27.0</ele><time>2026-04-07T16:01:58.328Z</time></trkpt><trkpt lat="40.9780381" lon="9.5020109"><ele>27.0</ele><time>2026-04-07T16:01:59.327Z</time></trkpt><trkpt lat="40.9779023" lon="9.50155"><ele>27.0</ele><time>2026-04-07T16:02:01.328Z</time></trkpt><trkpt lat="40.9778327" lon="9.5013158"><ele>27.666666666666664</ele><time>2026-04-07T16:02:02.328Z</time></trkpt><trkpt lat="40.9777636" lon="9.5010831"><ele>28.333333333333332</ele><time>2026-04-07T16:02:03.328Z</time></trkpt><trkpt lat="40.9776958" lon="9.5008522"><ele>29.0</ele><time>2026-04-07T16:02:04.328Z</time></trkpt><trkpt lat="40.9776307" lon="9.5006262"><ele>29.333333333333332</ele><time>2026-04-07T16:02:05.328Z</time></trkpt><trkpt lat="40.9775647" lon="9.5004035"><ele>29.666666666666664</ele><time>2026-04-07T16:02:06.328Z</time></trkpt><trkpt lat="40.9774978" lon="9.5001845"><ele>30.0</ele><time>2026-04-07T16:02:07.328Z</time></trkpt><trkpt lat="40.9774248" lon="9.4999795"><ele>30.666666666666664</ele><time>2026-04-07T16:02:08.328Z</time></trkpt><trkpt lat="40.977327" lon="9.4997967"><ele>31.333333333333332</ele><time>2026-04-07T16:02:09.328Z</time></trkpt><trkpt lat="40.9772039" lon="9.4996322"><ele>32.0</ele><time>2026-04-07T16:02:10.328Z</time></trkpt><trkpt lat="40.9770658" lon="9.4994808"><ele>32.33333333333333</ele><time>2026-04-07T16:02:11.328Z</time></trkpt><trkpt lat="40.9769194" lon="9.4993296"><ele>32.666666666666664</ele><time>2026-04-07T16:02:12.328Z</time></trkpt><trkpt lat="40.9767708" lon="9.499176"><ele>33.0</ele><time>2026-04-07T16:02:13.328Z</time></trkpt><trkpt lat="40.9766247" lon="9.499022"><ele>33.666666666666664</ele><time>2026-04-07T16:02:14.328Z</time></trkpt><trkpt lat="40.9764761" lon="9.4988697"><ele>34.33333333333333</ele><time>2026-04-07T16:02:15.327Z</time></trkpt><trkpt lat="40.976325" lon="9.4987181"><ele>35.0</ele><time>2026-04-07T16:02:16.328Z</time></trkpt><trkpt lat="40.9761715" lon="9.4985583"><ele>35.666666666666664</ele><time>2026-04-07T16:02:17.328Z</time></trkpt><trkpt lat="40.9760178" lon="9.4983949"><ele>36.333333333333336</ele><time>2026-04-07T16:02:18.328Z</time></trkpt><trkpt lat="40.9758634" lon="9.4982305"><ele>37.0</ele><time>2026-04-07T16:02:19.328Z</time></trkpt><trkpt lat="40.9757063" lon="9.4980695"><ele>38.333333333333336</ele><time>2026-04-07T16:02:20.327Z</time></trkpt><trkpt lat="40.9755469" lon="9.4979078"><ele>39.666666666666664</ele><time>2026-04-07T16:02:21.328Z</time></trkpt><trkpt lat="40.9753874" lon="9.4977413"><ele>41.0</ele><time>2026-04-07T16:02:22.328Z</time></trkpt><trkpt lat="40.9752264" lon="9.4975774"><ele>41.0</ele><time>2026-04-07T16:02:23.328Z</time></trkpt><trkpt lat="40.9750695" lon="9.497413"><ele>41.0</ele><time>2026-04-07T16:02:24.327Z</time></trkpt><trkpt lat="40.9749139" lon="9.4972522"><ele>41.0</ele><time>2026-04-07T16:02:25.327Z</time></trkpt><trkpt lat="40.9747626" lon="9.4970925"><ele>41.0</ele><time>2026-04-07T16:02:26.328Z</time></trkpt><trkpt lat="40.9746136" lon="9.4969314"><ele>41.0</ele><time>2026-04-07T16:02:27.327Z</time></trkpt><trkpt lat="40.9744605" lon="9.4967742"><ele>41.0</ele><time>2026-04-07T16:02:28.328Z</time></trkpt><trkpt lat="40.9743044" lon="9.4966136"><ele>41.33333333333333</ele><time>2026-04-07T16:02:29.328Z</time></trkpt><trkpt lat="40.974146" lon="9.4964465"><ele>41.666666666666664</ele><time>2026-04-07T16:02:30.328Z</time></trkpt><trkpt lat="40.9739837" lon="9.4962782"><ele>42.0</ele><time>2026-04-07T16:02:31.328Z</time></trkpt><trkpt lat="40.9738177" lon="9.496111"><ele>42.333333333333336</ele><time>2026-04-07T16:02:32.328Z</time></trkpt><trkpt lat="40.9736501" lon="9.4959413"><ele>42.66666666666667</ele><time>2026-04-07T16:02:33.328Z</time></trkpt><trkpt lat="40.9734845" lon="9.4957641"><ele>43.0</ele><time>2026-04-07T16:02:34.328Z</time></trkpt><trkpt lat="40.9733209" lon="9.4955765"><ele>43.333333333333336</ele><time>2026-04-07T16:02:35.328Z</time></trkpt><trkpt lat="40.9731614" lon="9.4953868"><ele>43.666666666666664</ele><time>2026-04-07T16:02:36.328Z</time></trkpt><trkpt lat="40.9730041" lon="9.4951928"><ele>44.0</ele><time>2026-04-07T16:02:37.328Z</time></trkpt><trkpt lat="40.9728508" lon="9.4950018"><ele>44.0</ele><time>2026-04-07T16:02:38.327Z</time></trkpt><trkpt lat="40.9726997" lon="9.4948118"><ele>44.0</ele><time>2026-04-07T16:02:39.328Z</time></trkpt><trkpt lat="40.9725479" lon="9.4946229"><ele>44.0</ele><time>2026-04-07T16:02:40.328Z</time></trkpt><trkpt lat="40.9724021" lon="9.4944456"><ele>44.666666666666664</ele><time>2026-04-07T16:02:41.328Z</time></trkpt><trkpt lat="40.9722572" lon="9.4942693"><ele>45.333333333333336</ele><time>2026-04-07T16:02:42.327Z</time></trkpt><trkpt lat="40.972116" lon="9.494096"><ele>46.0</ele><time>2026-04-07T16:02:43.328Z</time></trkpt><trkpt lat="40.9719801" lon="9.4939222"><ele>46.66666666666667</ele><time>2026-04-07T16:02:44.328Z</time></trkpt><trkpt lat="40.9718441" lon="9.4937533"><ele>47.333333333333336</ele><time>2026-04-07T16:02:45.328Z</time></trkpt><trkpt lat="40.9717089" lon="9.4935833"><ele>48.0</ele><time>2026-04-07T16:02:46.327Z</time></trkpt><trkpt lat="40.9715745" lon="9.4934135"><ele>48.33333333333333</ele><time>2026-04-07T16:02:47.328Z</time></trkpt><trkpt lat="40.971446" lon="9.4932552"><ele>48.666666666666664</ele><time>2026-04-07T16:02:48.327Z</time></trkpt><trkpt lat="40.9713191" lon="9.4931066"><ele>49.0</ele><time>2026-04-07T16:02:49.327Z</time></trkpt><trkpt lat="40.971193" lon="9.4929669"><ele>49.666666666666664</ele><time>2026-04-07T16:02:50.328Z</time></trkpt><trkpt lat="40.9710621" lon="9.492834"><ele>50.33333333333333</ele><time>2026-04-07T16:02:51.327Z</time></trkpt><trkpt lat="40.9709297" lon="9.4926986"><ele>51.0</ele><time>2026-04-07T16:02:52.327Z</time></trkpt><trkpt lat="40.9707957" lon="9.4925645"><ele>51.33333333333333</ele><time>2026-04-07T16:02:53.328Z</time></trkpt><trkpt lat="40.9706667" lon="9.4924411"><ele>51.666666666666664</ele><time>2026-04-07T16:02:54.328Z</time></trkpt><trkpt lat="40.9705428" lon="9.492324"><ele>52.0</ele><time>2026-04-07T16:02:55.327Z</time></trkpt><trkpt lat="40.9704265" lon="9.4922151"><ele>52.0</ele><time>2026-04-07T16:02:56.327Z</time></trkpt><trkpt lat="40.9703215" lon="9.492116"><ele>52.0</ele><time>2026-04-07T16:02:57.327Z</time></trkpt><trkpt lat="40.9702299" lon="9.4920197"><ele>52.0</ele><time>2026-04-07T16:02:58.328Z</time></trkpt><trkpt lat="40.9701472" lon="9.4919346"><ele>52.0</ele><time>2026-04-07T16:02:59.328Z</time></trkpt><trkpt lat="40.9700783" lon="9.4918421"><ele>52.0</ele><time>2026-04-07T16:03:00.328Z</time></trkpt><trkpt lat="40.9700252" lon="9.4917513"><ele>52.400000000000006</ele><time>2026-04-07T16:03:01.328Z</time></trkpt><trkpt lat="40.9699846" lon="9.4916605"><ele>52.800000000000004</ele><time>2026-04-07T16:03:02.327Z</time></trkpt><trkpt lat="40.9699589" lon="9.491574"><ele>53.2</ele><time>2026-04-07T16:03:03.328Z</time></trkpt><trkpt lat="40.9699176" lon="9.4914562"><ele>53.6</ele><time>2026-04-07T16:03:05.328Z</time></trkpt><trkpt lat="40.9697781" lon="9.4913377"><ele>54.0</ele><time>2026-04-07T16:03:15.328Z</time></trkpt><trkpt lat="40.969683" lon="9.4913271"><ele>54.0</ele><time>2026-04-07T16:03:16.327Z</time></trkpt><trkpt lat="40.9695671" lon="9.4913268"><ele>54.0</ele><time>2026-04-07T16:03:17.327Z</time></trkpt><trkpt lat="40.9694368" lon="9.4913231"><ele>54.0</ele><time>2026-04-07T16:03:18.327Z</time></trkpt><trkpt lat="40.9692918" lon="9.4913101"><ele>54.0</ele><time>2026-04-07T16:03:19.328Z</time></trkpt><trkpt lat="40.9691422" lon="9.4912751"><ele>55.0</ele><time>2026-04-07T16:03:20.328Z</time></trkpt><trkpt lat="40.9689839" lon="9.4912365"><ele>56.0</ele><time>2026-04-07T16:03:21.328Z</time></trkpt><trkpt lat="40.9688337" lon="9.4911968"><ele>57.0</ele><time>2026-04-07T16:03:22.328Z</time></trkpt><trkpt lat="40.9686898" lon="9.491162"><ele>57.0</ele><time>2026-04-07T16:03:23.328Z</time></trkpt><trkpt lat="40.9685498" lon="9.4911281"><ele>57.0</ele><time>2026-04-07T16:03:24.328Z</time></trkpt><trkpt lat="40.9684042" lon="9.4910987"><ele>57.0</ele><time>2026-04-07T16:03:25.327Z</time></trkpt><trkpt lat="40.9682577" lon="9.4910651"><ele>57.0</ele><time>2026-04-07T16:03:26.328Z</time></trkpt><trkpt lat="40.9681069" lon="9.491032"><ele>57.0</ele><time>2026-04-07T16:03:27.327Z</time></trkpt><trkpt lat="40.9679561" lon="9.4909946"><ele>57.0</ele><time>2026-04-07T16:03:28.328Z</time></trkpt><trkpt lat="40.9678032" lon="9.4909631"><ele>57.0</ele><time>2026-04-07T16:03:29.327Z</time></trkpt><trkpt lat="40.9676513" lon="9.4909309"><ele>58.0</ele><time>2026-04-07T16:03:30.328Z</time></trkpt><trkpt lat="40.9675011" lon="9.490906"><ele>59.0</ele><time>2026-04-07T16:03:31.327Z</time></trkpt><trkpt lat="40.967358" lon="9.4908807"><ele>60.0</ele><time>2026-04-07T16:03:32.328Z</time></trkpt><trkpt lat="40.9672189" lon="9.4908634"><ele>61.0</ele><time>2026-04-07T16:03:33.328Z</time></trkpt><trkpt lat="40.9670788" lon="9.4908505"><ele>61.0</ele><time>2026-04-07T16:03:34.327Z</time></trkpt><trkpt lat="40.9669375" lon="9.4908394"><ele>61.0</ele><time>2026-04-07T16:03:35.328Z</time></trkpt><trkpt lat="40.9667928" lon="9.4908356"><ele>61.0</ele><time>2026-04-07T16:03:36.328Z</time></trkpt><trkpt lat="40.9666457" lon="9.4908369"><ele>61.0</ele><time>2026-04-07T16:03:37.328Z</time></trkpt><trkpt lat="40.9664977" lon="9.49084"><ele>61.0</ele><time>2026-04-07T16:03:38.327Z</time></trkpt><trkpt lat="40.966345" lon="9.4908554"><ele>61.0</ele><time>2026-04-07T16:03:39.328Z</time></trkpt><trkpt lat="40.9661886" lon="9.4908751"><ele>61.0</ele><time>2026-04-07T16:03:40.328Z</time></trkpt><trkpt lat="40.9660326" lon="9.4909004"><ele>61.0</ele><time>2026-04-07T16:03:41.328Z</time></trkpt><trkpt lat="40.9658728" lon="9.4909338"><ele>61.0</ele><time>2026-04-07T16:03:42.328Z</time></trkpt><trkpt lat="40.9657156" lon="9.4909725"><ele>61.0</ele><time>2026-04-07T16:03:43.328Z</time></trkpt><trkpt lat="40.9655548" lon="9.4910157"><ele>61.666666666666664</ele><time>2026-04-07T16:03:44.328Z</time></trkpt><trkpt lat="40.965393" lon="9.491069"><ele>62.33333333333333</ele><time>2026-04-07T16:03:45.328Z</time></trkpt><trkpt lat="40.9652259" lon="9.4911326"><ele>63.0</ele><time>2026-04-07T16:03:46.328Z</time></trkpt><trkpt lat="40.965059" lon="9.4912003"><ele>64.33333333333333</ele><time>2026-04-07T16:03:47.328Z</time></trkpt><trkpt lat="40.9648879" lon="9.4912808"><ele>65.66666666666666</ele><time>2026-04-07T16:03:48.327Z</time></trkpt><trkpt lat="40.9647144" lon="9.4913673"><ele>67.0</ele><time>2026-04-07T16:03:49.328Z</time></trkpt><trkpt lat="40.9645444" lon="9.4914607"><ele>67.0</ele><time>2026-04-07T16:03:50.328Z</time></trkpt><trkpt lat="40.9643713" lon="9.4915693"><ele>67.0</ele><time>2026-04-07T16:03:51.328Z</time></trkpt><trkpt lat="40.9641939" lon="9.4916912"><ele>67.0</ele><time>2026-04-07T16:03:52.327Z</time></trkpt><trkpt lat="40.9640182" lon="9.4918234"><ele>67.66666666666666</ele><time>2026-04-07T16:03:53.328Z</time></trkpt><trkpt lat="40.96385" lon="9.4919546"><ele>68.33333333333333</ele><time>2026-04-07T16:03:54.328Z</time></trkpt><trkpt lat="40.9636874" lon="9.4920901"><ele>69.0</ele><time>2026-04-07T16:03:55.327Z</time></trkpt><trkpt lat="40.9635313" lon="9.4922311"><ele>69.0</ele><time>2026-04-07T16:03:56.328Z</time></trkpt><trkpt lat="40.9633811" lon="9.492375"><ele>69.0</ele><time>2026-04-07T16:03:57.327Z</time></trkpt><trkpt lat="40.9632351" lon="9.4925279"><ele>69.0</ele><time>2026-04-07T16:03:58.328Z</time></trkpt><trkpt lat="40.9630847" lon="9.4926838"><ele>67.66666666666667</ele><time>2026-04-07T16:03:59.327Z</time></trkpt><trkpt lat="40.96293" lon="9.4928412"><ele>66.33333333333334</ele><time>2026-04-07T16:04:00.327Z</time></trkpt><trkpt lat="40.9627727" lon="9.4930059"><ele>65.0</ele><time>2026-04-07T16:04:01.327Z</time></trkpt><trkpt lat="40.962612" lon="9.4931784"><ele>63.66666666666667</ele><time>2026-04-07T16:04:02.328Z</time></trkpt><trkpt lat="40.9624481" lon="9.4933504"><ele>62.33333333333333</ele><time>2026-04-07T16:04:03.327Z</time></trkpt><trkpt lat="40.9622826" lon="9.493519"><ele>61.0</ele><time>2026-04-07T16:04:04.328Z</time></trkpt><trkpt lat="40.9619586" lon="9.4938609"><ele>61.0</ele><time>2026-04-07T16:04:06.328Z</time></trkpt><trkpt lat="40.9617963" lon="9.4940317"><ele>61.0</ele><time>2026-04-07T16:04:07.328Z</time></trkpt><trkpt lat="40.9616335" lon="9.4942024"><ele>61.0</ele><time>2026-04-07T16:04:08.328Z</time></trkpt><trkpt lat="40.9614698" lon="9.494376"><ele>60.0</ele><time>2026-04-07T16:04:09.328Z</time></trkpt><trkpt lat="40.9613115" lon="9.4945453"><ele>59.0</ele><time>2026-04-07T16:04:10.327Z</time></trkpt><trkpt lat="40.9611529" lon="9.4947112"><ele>58.0</ele><time>2026-04-07T16:04:11.328Z</time></trkpt><trkpt lat="40.9609972" lon="9.4948766"><ele>56.666666666666664</ele><time>2026-04-07T16:04:12.328Z</time></trkpt><trkpt lat="40.9608436" lon="9.495035"><ele>55.33333333333333</ele><time>2026-04-07T16:04:13.327Z</time></trkpt><trkpt lat="40.9607007" lon="9.495184"><ele>54.0</ele><time>2026-04-07T16:04:14.327Z</time></trkpt><trkpt lat="40.960559" lon="9.4953309"><ele>54.66666666666667</ele><time>2026-04-07T16:04:15.328Z</time></trkpt><trkpt lat="40.960422" lon="9.4954745"><ele>55.333333333333336</ele><time>2026-04-07T16:04:16.328Z</time></trkpt><trkpt lat="40.9602871" lon="9.4956128"><ele>56.0</ele><time>2026-04-07T16:04:17.327Z</time></trkpt><trkpt lat="40.9601588" lon="9.4957415"><ele>55.333333333333336</ele><time>2026-04-07T16:04:18.328Z</time></trkpt><trkpt lat="40.9600253" lon="9.4958802"><ele>54.66666666666667</ele><time>2026-04-07T16:04:19.328Z</time></trkpt><trkpt lat="40.9598885" lon="9.4960164"><ele>54.0</ele><time>2026-04-07T16:04:20.328Z</time></trkpt><trkpt lat="40.9597555" lon="9.4961535"><ele>54.0</ele><time>2026-04-07T16:04:21.328Z</time></trkpt><trkpt lat="40.9596271" lon="9.4962829"><ele>54.0</ele><time>2026-04-07T16:04:22.328Z</time></trkpt><trkpt lat="40.9594992" lon="9.4964117"><ele>54.0</ele><time>2026-04-07T16:04:23.328Z</time></trkpt><trkpt lat="40.959377" lon="9.4965345"><ele>54.0</ele><time>2026-04-07T16:04:24.328Z</time></trkpt><trkpt lat="40.9592595" lon="9.4966513"><ele>54.0</ele><time>2026-04-07T16:04:25.328Z</time></trkpt><trkpt lat="40.959145" lon="9.4967645"><ele>54.0</ele><time>2026-04-07T16:04:26.328Z</time></trkpt><trkpt lat="40.959033" lon="9.4968704"><ele>54.0</ele><time>2026-04-07T16:04:27.328Z</time></trkpt><trkpt lat="40.9589114" lon="9.4969907"><ele>54.5</ele><time>2026-04-07T16:04:28.328Z</time></trkpt><trkpt lat="40.9587901" lon="9.4970989"><ele>55.0</ele><time>2026-04-07T16:04:29.327Z</time></trkpt><trkpt lat="40.9586762" lon="9.4971968"><ele>55.5</ele><time>2026-04-07T16:04:30.328Z</time></trkpt><trkpt lat="40.9585613" lon="9.4972894"><ele>56.0</ele><time>2026-04-07T16:04:31.328Z</time></trkpt><trkpt lat="40.9584409" lon="9.49739"><ele>55.75</ele><time>2026-04-07T16:04:32.328Z</time></trkpt><trkpt lat="40.9583201" lon="9.4974916"><ele>55.5</ele><time>2026-04-07T16:04:33.328Z</time></trkpt><trkpt lat="40.9581914" lon="9.4975954"><ele>55.25</ele><time>2026-04-07T16:04:34.328Z</time></trkpt><trkpt lat="40.9580564" lon="9.4976949"><ele>55.0</ele><time>2026-04-07T16:04:35.328Z</time></trkpt><trkpt lat="40.9579157" lon="9.4977955"><ele>55.0</ele><time>2026-04-07T16:04:36.328Z</time></trkpt><trkpt lat="40.9577816" lon="9.4978858"><ele>55.0</ele><time>2026-04-07T16:04:37.328Z</time></trkpt><trkpt lat="40.9576539" lon="9.4979718"><ele>55.0</ele><time>2026-04-07T16:04:38.328Z</time></trkpt><trkpt lat="40.9575298" lon="9.4980494"><ele>55.0</ele><time>2026-04-07T16:04:39.328Z</time></trkpt><trkpt lat="40.9574114" lon="9.4981223"><ele>54.0</ele><time>2026-04-07T16:04:40.328Z</time></trkpt><trkpt lat="40.9571835" lon="9.4982506"><ele>53.0</ele><time>2026-04-07T16:04:42.328Z</time></trkpt><trkpt lat="40.9570713" lon="9.498309"><ele>52.0</ele><time>2026-04-07T16:04:43.328Z</time></trkpt><trkpt lat="40.9569619" lon="9.4983699"><ele>52.0</ele><time>2026-04-07T16:04:44.328Z</time></trkpt><trkpt lat="40.9568513" lon="9.4984282"><ele>52.0</ele><time>2026-04-07T16:04:45.327Z</time></trkpt><trkpt lat="40.9567381" lon="9.4984817"><ele>52.0</ele><time>2026-04-07T16:04:46.328Z</time></trkpt><trkpt lat="40.9566257" lon="9.4985337"><ele>52.0</ele><time>2026-04-07T16:04:47.327Z</time></trkpt><trkpt lat="40.9565137" lon="9.4985844"><ele>52.5</ele><time>2026-04-07T16:04:48.328Z</time></trkpt><trkpt lat="40.9563974" lon="9.4986286"><ele>53.0</ele><time>2026-04-07T16:04:49.327Z</time></trkpt><trkpt lat="40.9562824" lon="9.4986713"><ele>53.5</ele><time>2026-04-07T16:04:50.328Z</time></trkpt><trkpt lat="40.9561657" lon="9.4987148"><ele>54.0</ele><time>2026-04-07T16:04:51.327Z</time></trkpt><trkpt lat="40.9560492" lon="9.4987568"><ele>55.25</ele><time>2026-04-07T16:04:52.328Z</time></trkpt><trkpt lat="40.9559401" lon="9.4987974"><ele>56.5</ele><time>2026-04-07T16:04:53.328Z</time></trkpt><trkpt lat="40.9558322" lon="9.4988403"><ele>57.75</ele><time>2026-04-07T16:04:54.328Z</time></trkpt><trkpt lat="40.9557206" lon="9.4988821"><ele>59.0</ele><time>2026-04-07T16:04:55.328Z</time></trkpt><trkpt lat="40.9556082" lon="9.4989189"><ele>59.0</ele><time>2026-04-07T16:04:56.328Z</time></trkpt><trkpt lat="40.9554996" lon="9.4989559"><ele>59.0</ele><time>2026-04-07T16:04:57.328Z</time></trkpt><trkpt lat="40.9553864" lon="9.4989927"><ele>59.0</ele><time>2026-04-07T16:04:58.328Z</time></trkpt><trkpt lat="40.9552743" lon="9.4990296"><ele>59.0</ele><time>2026-04-07T16:04:59.328Z</time></trkpt><trkpt lat="40.9551627" lon="9.4990651"><ele>59.0</ele><time>2026-04-07T16:05:00.328Z</time></trkpt><trkpt lat="40.9550508" lon="9.4990997"><ele>59.0</ele><time>2026-04-07T16:05:01.328Z</time></trkpt><trkpt lat="40.9549372" lon="9.4991356"><ele>59.0</ele><time>2026-04-07T16:05:02.328Z</time></trkpt><trkpt lat="40.9548183" lon="9.4991704"><ele>59.0</ele><time>2026-04-07T16:05:03.328Z</time></trkpt><trkpt lat="40.9546957" lon="9.4992095"><ele>57.25</ele><time>2026-04-07T16:05:04.327Z</time></trkpt><trkpt lat="40.954573" lon="9.4992467"><ele>55.5</ele><time>2026-04-07T16:05:05.328Z</time></trkpt><trkpt lat="40.9544473" lon="9.4992912"><ele>53.75</ele><time>2026-04-07T16:05:06.327Z</time></trkpt><trkpt lat="40.954315" lon="9.4993366"><ele>52.0</ele><time>2026-04-07T16:05:07.328Z</time></trkpt><trkpt lat="40.9541803" lon="9.4993731"><ele>51.5</ele><time>2026-04-07T16:05:08.328Z</time></trkpt><trkpt lat="40.9540438" lon="9.4994148"><ele>51.0</ele><time>2026-04-07T16:05:09.327Z</time></trkpt><trkpt lat="40.9539046" lon="9.4994587"><ele>50.5</ele><time>2026-04-07T16:05:10.328Z</time></trkpt><trkpt lat="40.9537616" lon="9.4994987"><ele>50.0</ele><time>2026-04-07T16:05:11.328Z</time></trkpt><trkpt lat="40.953618" lon="9.4995466"><ele>49.66666666666667</ele><time>2026-04-07T16:05:12.328Z</time></trkpt><trkpt lat="40.9534725" lon="9.4995933"><ele>49.33333333333333</ele><time>2026-04-07T16:05:13.328Z</time></trkpt><trkpt lat="40.9533279" lon="9.4996431"><ele>49.0</ele><time>2026-04-07T16:05:14.327Z</time></trkpt><trkpt lat="40.9531809" lon="9.4996897"><ele>45.5</ele><time>2026-04-07T16:05:15.328Z</time></trkpt><trkpt lat="40.9530316" lon="9.4997412"><ele>42.0</ele><time>2026-04-07T16:05:16.328Z</time></trkpt><trkpt lat="40.9527312" lon="9.4998403"><ele>42.0</ele><time>2026-04-07T16:05:18.328Z</time></trkpt><trkpt lat="40.9525782" lon="9.4998929"><ele>42.0</ele><time>2026-04-07T16:05:19.328Z</time></trkpt><trkpt lat="40.9524331" lon="9.4999446"><ele>42.0</ele><time>2026-04-07T16:05:20.328Z</time></trkpt><trkpt lat="40.9522897" lon="9.5000023"><ele>41.25</ele><time>2026-04-07T16:05:21.328Z</time></trkpt><trkpt lat="40.9521493" lon="9.5000605"><ele>40.5</ele><time>2026-04-07T16:05:22.328Z</time></trkpt><trkpt lat="40.9520074" lon="9.5001129"><ele>39.75</ele><time>2026-04-07T16:05:23.328Z</time></trkpt><trkpt lat="40.9518661" lon="9.5001674"><ele>39.0</ele><time>2026-04-07T16:05:24.328Z</time></trkpt><trkpt lat="40.9517229" lon="9.5002253"><ele>38.666666666666664</ele><time>2026-04-07T16:05:25.328Z</time></trkpt><trkpt lat="40.9515692" lon="9.5002851"><ele>38.33333333333333</ele><time>2026-04-07T16:05:26.328Z</time></trkpt><trkpt lat="40.951412" lon="9.5003478"><ele>38.0</ele><time>2026-04-07T16:05:27.328Z</time></trkpt><trkpt lat="40.9512491" lon="9.5004156"><ele>38.0</ele><time>2026-04-07T16:05:28.327Z</time></trkpt><trkpt lat="40.9510814" lon="9.5004891"><ele>38.0</ele><time>2026-04-07T16:05:29.327Z</time></trkpt><trkpt lat="40.9509085" lon="9.500568"><ele>38.0</ele><time>2026-04-07T16:05:30.328Z</time></trkpt><trkpt lat="40.9507289" lon="9.5006462"><ele>37.666666666666664</ele><time>2026-04-07T16:05:31.327Z</time></trkpt><trkpt lat="40.9505485" lon="9.5007275"><ele>37.333333333333336</ele><time>2026-04-07T16:05:32.328Z</time></trkpt><trkpt lat="40.9503748" lon="9.5008063"><ele>37.0</ele><time>2026-04-07T16:05:33.328Z</time></trkpt><trkpt lat="40.9501942" lon="9.5008931"><ele>36.0</ele><time>2026-04-07T16:05:34.328Z</time></trkpt><trkpt lat="40.9500221" lon="9.5009747"><ele>35.0</ele><time>2026-04-07T16:05:35.328Z</time></trkpt><trkpt lat="40.9498556" lon="9.5010549"><ele>34.0</ele><time>2026-04-07T16:05:36.327Z</time></trkpt><trkpt lat="40.9496884" lon="9.5011388"><ele>34.0</ele><time>2026-04-07T16:05:37.328Z</time></trkpt><trkpt lat="40.9495358" lon="9.5012168"><ele>34.0</ele><time>2026-04-07T16:05:38.328Z</time></trkpt><trkpt lat="40.949383" lon="9.5012943"><ele>34.0</ele><time>2026-04-07T16:05:39.328Z</time></trkpt><trkpt lat="40.9492311" lon="9.501372"><ele>33.333333333333336</ele><time>2026-04-07T16:05:40.327Z</time></trkpt><trkpt lat="40.9490807" lon="9.5014467"><ele>32.666666666666664</ele><time>2026-04-07T16:05:41.328Z</time></trkpt><trkpt lat="40.9489364" lon="9.5015202"><ele>32.0</ele><time>2026-04-07T16:05:42.328Z</time></trkpt><trkpt lat="40.9488004" lon="9.5015852"><ele>32.0</ele><time>2026-04-07T16:05:43.327Z</time></trkpt><trkpt lat="40.9486616" lon="9.5016524"><ele>32.0</ele><time>2026-04-07T16:05:44.328Z</time></trkpt><trkpt lat="40.9485427" lon="9.501713"><ele>32.0</ele><time>2026-04-07T16:05:45.328Z</time></trkpt><trkpt lat="40.9484172" lon="9.5017793"><ele>32.0</ele><time>2026-04-07T16:05:46.328Z</time></trkpt><trkpt lat="40.9482944" lon="9.5018448"><ele>32.0</ele><time>2026-04-07T16:05:47.328Z</time></trkpt><trkpt lat="40.9481661" lon="9.5019089"><ele>32.0</ele><time>2026-04-07T16:05:48.328Z</time></trkpt><trkpt lat="40.9480394" lon="9.5019766"><ele>32.0</ele><time>2026-04-07T16:05:49.328Z</time></trkpt><trkpt lat="40.9479082" lon="9.5020423"><ele>32.0</ele><time>2026-04-07T16:05:50.327Z</time></trkpt><trkpt lat="40.9477774" lon="9.5021098"><ele>32.0</ele><time>2026-04-07T16:05:51.328Z</time></trkpt><trkpt lat="40.9476478" lon="9.5021768"><ele>32.0</ele><time>2026-04-07T16:05:52.327Z</time></trkpt><trkpt lat="40.947409" lon="9.5022999"><ele>32.0</ele><time>2026-04-07T16:05:54.328Z</time></trkpt><trkpt lat="40.9472938" lon="9.5023627"><ele>30.75</ele><time>2026-04-07T16:05:55.328Z</time></trkpt><trkpt lat="40.9471805" lon="9.5024223"><ele>29.5</ele><time>2026-04-07T16:05:56.327Z</time></trkpt><trkpt lat="40.9470683" lon="9.5024793"><ele>28.25</ele><time>2026-04-07T16:05:57.327Z</time></trkpt><trkpt lat="40.9469582" lon="9.5025368"><ele>27.0</ele><time>2026-04-07T16:05:58.328Z</time></trkpt><trkpt lat="40.946851" lon="9.5025941"><ele>27.0</ele><time>2026-04-07T16:05:59.327Z</time></trkpt><trkpt lat="40.9467454" lon="9.5026489"><ele>27.0</ele><time>2026-04-07T16:06:00.327Z</time></trkpt><trkpt lat="40.9466407" lon="9.5027031"><ele>27.0</ele><time>2026-04-07T16:06:01.328Z</time></trkpt><trkpt lat="40.9465324" lon="9.5027614"><ele>27.0</ele><time>2026-04-07T16:06:02.328Z</time></trkpt><trkpt lat="40.9464225" lon="9.5028146"><ele>26.25</ele><time>2026-04-07T16:06:03.328Z</time></trkpt><trkpt lat="40.9463148" lon="9.5028672"><ele>25.5</ele><time>2026-04-07T16:06:04.328Z</time></trkpt><trkpt lat="40.9462071" lon="9.5029221"><ele>24.75</ele><time>2026-04-07T16:06:05.328Z</time></trkpt><trkpt lat="40.9461007" lon="9.502981"><ele>24.0</ele><time>2026-04-07T16:06:06.327Z</time></trkpt><trkpt lat="40.9459919" lon="9.5030385"><ele>24.0</ele><time>2026-04-07T16:06:07.328Z</time></trkpt><trkpt lat="40.9458752" lon="9.503093"><ele>24.0</ele><time>2026-04-07T16:06:08.328Z</time></trkpt><trkpt lat="40.9457647" lon="9.5031486"><ele>24.0</ele><time>2026-04-07T16:06:09.328Z</time></trkpt><trkpt lat="40.9456583" lon="9.5032002"><ele>24.0</ele><time>2026-04-07T16:06:10.328Z</time></trkpt><trkpt lat="40.9455534" lon="9.5032447"><ele>24.0</ele><time>2026-04-07T16:06:11.328Z</time></trkpt><trkpt lat="40.9454518" lon="9.5032852"><ele>24.0</ele><time>2026-04-07T16:06:12.328Z</time></trkpt><trkpt lat="40.9453516" lon="9.5033221"><ele>24.0</ele><time>2026-04-07T16:06:13.327Z</time></trkpt><trkpt lat="40.9452455" lon="9.5033462"><ele>24.0</ele><time>2026-04-07T16:06:14.327Z</time></trkpt><trkpt lat="40.9451473" lon="9.5033537"><ele>24.0</ele><time>2026-04-07T16:06:15.328Z</time></trkpt><trkpt lat="40.9450549" lon="9.5033439"><ele>24.4</ele><time>2026-04-07T16:06:16.328Z</time></trkpt><trkpt lat="40.9449588" lon="9.5033395"><ele>24.799999999999997</ele><time>2026-04-07T16:06:17.328Z</time></trkpt><trkpt lat="40.9448591" lon="9.5033762"><ele>25.200000000000003</ele><time>2026-04-07T16:06:18.327Z</time></trkpt><trkpt lat="40.9447676" lon="9.5034464"><ele>25.6</ele><time>2026-04-07T16:06:19.328Z</time></trkpt><trkpt lat="40.9446947" lon="9.5035352"><ele>26.0</ele><time>2026-04-07T16:06:20.327Z</time></trkpt><trkpt lat="40.9446251" lon="9.5036299"><ele>26.0</ele><time>2026-04-07T16:06:21.328Z</time></trkpt><trkpt lat="40.9445454" lon="9.5037191"><ele>26.0</ele><time>2026-04-07T16:06:22.327Z</time></trkpt><trkpt lat="40.9444536" lon="9.5038011"><ele>26.0</ele><time>2026-04-07T16:06:23.328Z</time></trkpt><trkpt lat="40.9443524" lon="9.5038751"><ele>26.0</ele><time>2026-04-07T16:06:24.328Z</time></trkpt><trkpt lat="40.9442402" lon="9.5039396"><ele>24.5</ele><time>2026-04-07T16:06:25.328Z</time></trkpt><trkpt lat="40.9441218" lon="9.5040037"><ele>23.0</ele><time>2026-04-07T16:06:26.327Z</time></trkpt><trkpt lat="40.943997" lon="9.5040677"><ele>21.5</ele><time>2026-04-07T16:06:27.327Z</time></trkpt><trkpt lat="40.9438627" lon="9.504134"><ele>20.0</ele><time>2026-04-07T16:06:28.328Z</time></trkpt><trkpt lat="40.9437263" lon="9.5042007"><ele>20.0</ele><time>2026-04-07T16:06:29.328Z</time></trkpt><trkpt lat="40.9434317" lon="9.5043459"><ele>20.0</ele><time>2026-04-07T16:06:31.327Z</time></trkpt><trkpt lat="40.9432723" lon="9.5044246"><ele>19.666666666666668</ele><time>2026-04-07T16:06:32.327Z</time></trkpt><trkpt lat="40.943101" lon="9.5045154"><ele>19.333333333333332</ele><time>2026-04-07T16:06:33.328Z</time></trkpt><trkpt lat="40.9429233" lon="9.5046055"><ele>19.0</ele><time>2026-04-07T16:06:34.327Z</time></trkpt><trkpt lat="40.9427539" lon="9.5046954"><ele>19.0</ele><time>2026-04-07T16:06:35.328Z</time></trkpt><trkpt lat="40.942596" lon="9.5047758"><ele>19.0</ele><time>2026-04-07T16:06:36.327Z</time></trkpt><trkpt lat="40.9424395" lon="9.5048582"><ele>19.0</ele><time>2026-04-07T16:06:37.327Z</time></trkpt><trkpt lat="40.9422848" lon="9.5049377"><ele>19.333333333333332</ele><time>2026-04-07T16:06:38.328Z</time></trkpt><trkpt lat="40.9421285" lon="9.5050235"><ele>19.666666666666668</ele><time>2026-04-07T16:06:39.328Z</time></trkpt><trkpt lat="40.9419713" lon="9.5051071"><ele>20.0</ele><time>2026-04-07T16:06:40.328Z</time></trkpt><trkpt lat="40.9418098" lon="9.5051876"><ele>20.333333333333336</ele><time>2026-04-07T16:06:41.328Z</time></trkpt><trkpt lat="40.9416442" lon="9.5052712"><ele>20.666666666666668</ele><time>2026-04-07T16:06:42.328Z</time></trkpt><trkpt lat="40.9414827" lon="9.5053543"><ele>21.0</ele><time>2026-04-07T16:06:43.327Z</time></trkpt><trkpt lat="40.9413264" lon="9.505435"><ele>19.666666666666668</ele><time>2026-04-07T16:06:44.328Z</time></trkpt><trkpt lat="40.9411676" lon="9.5055223"><ele>18.333333333333336</ele><time>2026-04-07T16:06:45.328Z</time></trkpt><trkpt lat="40.941002" lon="9.5056089"><ele>17.0</ele><time>2026-04-07T16:06:46.328Z</time></trkpt><trkpt lat="40.9408323" lon="9.5056932"><ele>16.0</ele><time>2026-04-07T16:06:47.328Z</time></trkpt><trkpt lat="40.9406559" lon="9.5057846"><ele>15.0</ele><time>2026-04-07T16:06:48.328Z</time></trkpt><trkpt lat="40.9404766" lon="9.5058794"><ele>14.0</ele><time>2026-04-07T16:06:49.328Z</time></trkpt><trkpt lat="40.9402919" lon="9.5059757"><ele>14.0</ele><time>2026-04-07T16:06:50.328Z</time></trkpt><trkpt lat="40.9401105" lon="9.5060693"><ele>14.0</ele><time>2026-04-07T16:06:51.328Z</time></trkpt><trkpt lat="40.9399236" lon="9.5061605"><ele>14.0</ele><time>2026-04-07T16:06:52.328Z</time></trkpt><trkpt lat="40.9397373" lon="9.5062537"><ele>13.333333333333334</ele><time>2026-04-07T16:06:53.328Z</time></trkpt><trkpt lat="40.9395519" lon="9.5063483"><ele>12.666666666666668</ele><time>2026-04-07T16:06:54.328Z</time></trkpt><trkpt lat="40.9393676" lon="9.5064405"><ele>12.0</ele><time>2026-04-07T16:06:55.328Z</time></trkpt><trkpt lat="40.9391845" lon="9.5065352"><ele>12.0</ele><time>2026-04-07T16:06:56.328Z</time></trkpt><trkpt lat="40.9390049" lon="9.5066264"><ele>12.0</ele><time>2026-04-07T16:06:57.327Z</time></trkpt><trkpt lat="40.9388302" lon="9.506716"><ele>12.0</ele><time>2026-04-07T16:06:58.328Z</time></trkpt><trkpt lat="40.9386562" lon="9.5068028"><ele>12.0</ele><time>2026-04-07T16:06:59.328Z</time></trkpt><trkpt lat="40.9384799" lon="9.50689"><ele>12.0</ele><time>2026-04-07T16:07:00.328Z</time></trkpt><trkpt lat="40.9383001" lon="9.506981"><ele>12.0</ele><time>2026-04-07T16:07:01.328Z</time></trkpt><trkpt lat="40.938117" lon="9.5070705"><ele>12.0</ele><time>2026-04-07T16:07:02.328Z</time></trkpt><trkpt lat="40.9379379" lon="9.507154"><ele>12.0</ele><time>2026-04-07T16:07:03.328Z</time></trkpt><trkpt lat="40.9377557" lon="9.5072393"><ele>12.0</ele><time>2026-04-07T16:07:04.327Z</time></trkpt><trkpt lat="40.937571" lon="9.5073227"><ele>11.5</ele><time>2026-04-07T16:07:05.327Z</time></trkpt><trkpt lat="40.9371895" lon="9.5074915"><ele>11.0</ele><time>2026-04-07T16:07:07.328Z</time></trkpt><trkpt lat="40.9369925" lon="9.5075687"><ele>11.0</ele><time>2026-04-07T16:07:08.328Z</time></trkpt><trkpt lat="40.9367952" lon="9.5076485"><ele>11.0</ele><time>2026-04-07T16:07:09.328Z</time></trkpt><trkpt lat="40.9366029" lon="9.5077242"><ele>11.0</ele><time>2026-04-07T16:07:10.327Z</time></trkpt><trkpt lat="40.9364039" lon="9.5077976"><ele>10.666666666666666</ele><time>2026-04-07T16:07:11.328Z</time></trkpt><trkpt lat="40.9362036" lon="9.5078691"><ele>10.333333333333334</ele><time>2026-04-07T16:07:12.328Z</time></trkpt><trkpt lat="40.935999" lon="9.5079396"><ele>10.0</ele><time>2026-04-07T16:07:13.327Z</time></trkpt><trkpt lat="40.9357924" lon="9.5080073"><ele>9.0</ele><time>2026-04-07T16:07:14.328Z</time></trkpt><trkpt lat="40.9355896" lon="9.5080691"><ele>8.0</ele><time>2026-04-07T16:07:15.328Z</time></trkpt><trkpt lat="40.9353902" lon="9.5081231"><ele>7.0</ele><time>2026-04-07T16:07:16.328Z</time></trkpt><trkpt lat="40.9351953" lon="9.5081745"><ele>6.333333333333334</ele><time>2026-04-07T16:07:17.327Z</time></trkpt><trkpt lat="40.9350013" lon="9.508221"><ele>5.666666666666667</ele><time>2026-04-07T16:07:18.327Z</time></trkpt><trkpt lat="40.9348076" lon="9.508265"><ele>5.0</ele><time>2026-04-07T16:07:19.328Z</time></trkpt><trkpt lat="40.934611" lon="9.5083074"><ele>5.0</ele><time>2026-04-07T16:07:20.328Z</time></trkpt><trkpt lat="40.934415" lon="9.5083413"><ele>5.0</ele><time>2026-04-07T16:07:21.328Z</time></trkpt><trkpt lat="40.9342186" lon="9.5083754"><ele>5.0</ele><time>2026-04-07T16:07:22.327Z</time></trkpt><trkpt lat="40.9340293" lon="9.5084059"><ele>5.0</ele><time>2026-04-07T16:07:23.328Z</time></trkpt><trkpt lat="40.9338445" lon="9.508438"><ele>5.0</ele><time>2026-04-07T16:07:24.327Z</time></trkpt><trkpt lat="40.9336656" lon="9.5084599"><ele>5.0</ele><time>2026-04-07T16:07:25.328Z</time></trkpt><trkpt lat="40.9334915" lon="9.5084781"><ele>4.666666666666667</ele><time>2026-04-07T16:07:26.327Z</time></trkpt><trkpt lat="40.9333264" lon="9.5084962"><ele>4.333333333333333</ele><time>2026-04-07T16:07:27.327Z</time></trkpt><trkpt lat="40.933169" lon="9.5085087"><ele>4.0</ele><time>2026-04-07T16:07:28.328Z</time></trkpt><trkpt lat="40.9330202" lon="9.5085213"><ele>4.0</ele><time>2026-04-07T16:07:29.328Z</time></trkpt><trkpt lat="40.93288" lon="9.5085318"><ele>4.0</ele><time>2026-04-07T16:07:30.327Z</time></trkpt><trkpt lat="40.9327453" lon="9.5085432"><ele>4.0</ele><time>2026-04-07T16:07:31.327Z</time></trkpt><trkpt lat="40.9326216" lon="9.5085506"><ele>4.0</ele><time>2026-04-07T16:07:32.328Z</time></trkpt><trkpt lat="40.9325066" lon="9.5085553"><ele>4.4</ele><time>2026-04-07T16:07:33.328Z</time></trkpt><trkpt lat="40.9324014" lon="9.5085573"><ele>4.800000000000001</ele><time>2026-04-07T16:07:34.328Z</time></trkpt><trkpt lat="40.9322978" lon="9.5085658"><ele>5.199999999999999</ele><time>2026-04-07T16:07:35.328Z</time></trkpt><trkpt lat="40.9322045" lon="9.5085708"><ele>5.6</ele><time>2026-04-07T16:07:36.328Z</time></trkpt><trkpt lat="40.932115" lon="9.5085774"><ele>6.0</ele><time>2026-04-07T16:07:37.328Z</time></trkpt><trkpt lat="40.9320286" lon="9.5085878"><ele>6.0</ele><time>2026-04-07T16:07:38.328Z</time></trkpt><trkpt lat="40.9319571" lon="9.5085902"><ele>6.0</ele><time>2026-04-07T16:07:39.328Z</time></trkpt><trkpt lat="40.9318493" lon="9.50859"><ele>6.0</ele><time>2026-04-07T16:07:41.328Z</time></trkpt><trkpt lat="40.9317645" lon="9.50859"><ele>6.0</ele><time>2026-04-07T16:07:43.327Z</time></trkpt><trkpt lat="40.9316944" lon="9.5085968"><ele>6.0</ele><time>2026-04-07T16:07:44.327Z</time></trkpt><trkpt lat="40.9316061" lon="9.5086019"><ele>6.0</ele><time>2026-04-07T16:07:45.328Z</time></trkpt><trkpt lat="40.9315086" lon="9.5085961"><ele>5.6</ele><time>2026-04-07T16:07:46.328Z</time></trkpt><trkpt lat="40.9314019" lon="9.5085864"><ele>5.199999999999999</ele><time>2026-04-07T16:07:47.328Z</time></trkpt><trkpt lat="40.9312983" lon="9.5085745"><ele>4.800000000000001</ele><time>2026-04-07T16:07:48.328Z</time></trkpt><trkpt lat="40.931188" lon="9.5085636"><ele>4.4</ele><time>2026-04-07T16:07:49.328Z</time></trkpt><trkpt lat="40.9310624" lon="9.5085524"><ele>4.0</ele><time>2026-04-07T16:07:50.327Z</time></trkpt><trkpt lat="40.9309278" lon="9.508535"><ele>3.5</ele><time>2026-04-07T16:07:51.328Z</time></trkpt><trkpt lat="40.9307861" lon="9.5085153"><ele>3.0</ele><time>2026-04-07T16:07:52.327Z</time></trkpt><trkpt lat="40.9306568" lon="9.5084889"><ele>2.5</ele><time>2026-04-07T16:07:53.328Z</time></trkpt><trkpt lat="40.9305277" lon="9.5084616"><ele>2.0</ele><time>2026-04-07T16:07:54.328Z</time></trkpt><trkpt lat="40.9303971" lon="9.5084364"><ele>2.0</ele><time>2026-04-07T16:07:55.327Z</time></trkpt><trkpt lat="40.9302708" lon="9.5084075"><ele>2.0</ele><time>2026-04-07T16:07:56.328Z</time></trkpt><trkpt lat="40.9301592" lon="9.508382"><ele>2.0</ele><time>2026-04-07T16:07:57.328Z</time></trkpt><trkpt lat="40.9300567" lon="9.5083556"><ele>2.0</ele><time>2026-04-07T16:07:58.328Z</time></trkpt><trkpt lat="40.9299633" lon="9.5083329"><ele>2.0</ele><time>2026-04-07T16:07:59.327Z</time></trkpt><trkpt lat="40.9298602" lon="9.5083038"><ele>1.5</ele><time>2026-04-07T16:08:00.327Z</time></trkpt><trkpt lat="40.9297472" lon="9.5082727"><ele>1.0</ele><time>2026-04-07T16:08:01.328Z</time></trkpt><trkpt lat="40.9296254" lon="9.5082436"><ele>0.5</ele><time>2026-04-07T16:08:02.327Z</time></trkpt><trkpt lat="40.9294929" lon="9.5082126"><ele>0.0</ele><time>2026-04-07T16:08:03.328Z</time></trkpt><trkpt lat="40.9293547" lon="9.5081754"><ele>1.0</ele><time>2026-04-07T16:08:04.328Z</time></trkpt><trkpt lat="40.9292065" lon="9.5081388"><ele>2.0</ele><time>2026-04-07T16:08:05.328Z</time></trkpt><trkpt lat="40.9290524" lon="9.5080941"><ele>3.0</ele><time>2026-04-07T16:08:06.328Z</time></trkpt><trkpt lat="40.9289033" lon="9.5080493"><ele>3.0</ele><time>2026-04-07T16:08:07.328Z</time></trkpt><trkpt lat="40.9287668" lon="9.5080145"><ele>3.0</ele><time>2026-04-07T16:08:08.328Z</time></trkpt><trkpt lat="40.9286439" lon="9.5079787"><ele>3.0</ele><time>2026-04-07T16:08:09.328Z</time></trkpt><trkpt lat="40.9285323" lon="9.5079456"><ele>3.0</ele><time>2026-04-07T16:08:10.328Z</time></trkpt><trkpt lat="40.9284218" lon="9.5079122"><ele>2.4</ele><time>2026-04-07T16:08:11.327Z</time></trkpt><trkpt lat="40.9283125" lon="9.5078801"><ele>1.7999999999999998</ele><time>2026-04-07T16:08:12.328Z</time></trkpt><trkpt lat="40.9282068" lon="9.5078487"><ele>1.2</ele><time>2026-04-07T16:08:13.328Z</time></trkpt><trkpt lat="40.9281064" lon="9.5078207"><ele>0.6</ele><time>2026-04-07T16:08:14.328Z</time></trkpt><trkpt lat="40.9280081" lon="9.5077961"><ele>0.0</ele><time>2026-04-07T16:08:15.328Z</time></trkpt><trkpt lat="40.9279118" lon="9.5077702"><ele>0.0</ele><time>2026-04-07T16:08:16.328Z</time></trkpt><trkpt lat="40.927814" lon="9.5077464"><ele>0.0</ele><time>2026-04-07T16:08:17.327Z</time></trkpt><trkpt lat="40.9277133" lon="9.5077168"><ele>0.0</ele><time>2026-04-07T16:08:18.328Z</time></trkpt><trkpt lat="40.927611" lon="9.5076877"><ele>0.0</ele><time>2026-04-07T16:08:19.327Z</time></trkpt><trkpt lat="40.9275054" lon="9.5076553"><ele>0.0</ele><time>2026-04-07T16:08:20.328Z</time></trkpt><trkpt lat="40.9273991" lon="9.507621"><ele>0.0</ele><time>2026-04-07T16:08:21.328Z</time></trkpt><trkpt lat="40.9272938" lon="9.507574"><ele>0.0</ele><time>2026-04-07T16:08:22.328Z</time></trkpt><trkpt lat="40.927188" lon="9.5075226"><ele>0.0</ele><time>2026-04-07T16:08:23.327Z</time></trkpt><trkpt lat="40.9270767" lon="9.5074717"><ele>0.0</ele><time>2026-04-07T16:08:24.327Z</time></trkpt><trkpt lat="40.9269629" lon="9.5074136"><ele>0.0</ele><time>2026-04-07T16:08:25.328Z</time></trkpt><trkpt lat="40.9268448" lon="9.5073548"><ele>0.0</ele><time>2026-04-07T16:08:26.328Z</time></trkpt><trkpt lat="40.9267314" lon="9.5073057"><ele>0.0</ele><time>2026-04-07T16:08:27.327Z</time></trkpt><trkpt lat="40.9266224" lon="9.5072628"><ele>0.0</ele><time>2026-04-07T16:08:28.327Z</time></trkpt><trkpt lat="40.9265106" lon="9.5072308"><ele>0.25</ele><time>2026-04-07T16:08:29.328Z</time></trkpt><trkpt lat="40.9263937" lon="9.5071982"><ele>0.5</ele><time>2026-04-07T16:08:30.328Z</time></trkpt><trkpt lat="40.9262771" lon="9.5071465"><ele>0.75</ele><time>2026-04-07T16:08:31.328Z</time></trkpt><trkpt lat="40.9261616" lon="9.5070905"><ele>1.0</ele><time>2026-04-07T16:08:32.328Z</time></trkpt><trkpt lat="40.9260491" lon="9.5070485"><ele>1.0</ele><time>2026-04-07T16:08:33.327Z</time></trkpt><trkpt lat="40.9259428" lon="9.5070203"><ele>1.0</ele><time>2026-04-07T16:08:34.327Z</time></trkpt><trkpt lat="40.9258466" lon="9.5070008"><ele>1.0</ele><time>2026-04-07T16:08:35.328Z</time></trkpt><trkpt lat="40.9257614" lon="9.5069849"><ele>1.0</ele><time>2026-04-07T16:08:36.328Z</time></trkpt><trkpt lat="40.9256909" lon="9.5069787"><ele>1.0</ele><time>2026-04-07T16:08:37.327Z</time></trkpt><trkpt lat="40.9256016" lon="9.5069652"><ele>1.5</ele><time>2026-04-07T16:08:39.328Z</time></trkpt><trkpt lat="40.925506" lon="9.5069423"><ele>2.0</ele><time>2026-04-07T16:08:42.328Z</time></trkpt><trkpt lat="40.9254131" lon="9.5069189"><ele>2.5</ele><time>2026-04-07T16:08:45.328Z</time></trkpt><trkpt lat="40.9253358" lon="9.5068903"><ele>3.0</ele><time>2026-04-07T16:08:47.328Z</time></trkpt><trkpt lat="40.92526" lon="9.5068754"><ele>3.4999999999999996</ele><time>2026-04-07T16:08:52.328Z</time></trkpt><trkpt lat="40.9251893" lon="9.506864"><ele>4.0</ele><time>2026-04-07T16:08:55.328Z</time></trkpt><trkpt lat="40.9251215" lon="9.5068474"><ele>3.6666666666666665</ele><time>2026-04-07T16:08:57.327Z</time></trkpt><trkpt lat="40.9250533" lon="9.5068331"><ele>3.333333333333333</ele><time>2026-04-07T16:08:59.327Z</time></trkpt><trkpt lat="40.9249767" lon="9.5067947"><ele>3.0</ele><time>2026-04-07T16:09:01.328Z</time></trkpt><trkpt lat="40.9249104" lon="9.5067572"><ele>2.6666666666666665</ele><time>2026-04-07T16:09:04.328Z</time></trkpt><trkpt lat="40.9248252" lon="9.5067227"><ele>2.333333333333333</ele><time>2026-04-07T16:09:08.327Z</time></trkpt><trkpt lat="40.9247329" lon="9.5066757"><ele>2.0</ele><time>2026-04-07T16:09:11.327Z</time></trkpt><trkpt lat="40.9246751" lon="9.5066286"><ele>2.0</ele><time>2026-04-07T16:09:13.328Z</time></trkpt><trkpt lat="40.9246028" lon="9.506577"><ele>2.0</ele><time>2026-04-07T16:09:23.328Z</time></trkpt><trkpt lat="40.9245296" lon="9.5065094"><ele>2.0</ele><time>2026-04-07T16:09:25.328Z</time></trkpt><trkpt lat="40.9244319" lon="9.5064242"><ele>2.0</ele><time>2026-04-07T16:09:27.327Z</time></trkpt><trkpt lat="40.9243452" lon="9.5063412"><ele>2.0</ele><time>2026-04-07T16:09:29.328Z</time></trkpt><trkpt lat="40.9242663" lon="9.5062689"><ele>2.4000000000000004</ele><time>2026-04-07T16:09:31.328Z</time></trkpt><trkpt lat="40.9241535" lon="9.5061663"><ele>2.8000000000000003</ele><time>2026-04-07T16:09:33.328Z</time></trkpt><trkpt lat="40.9240803" lon="9.5060985"><ele>3.2</ele><time>2026-04-07T16:09:34.328Z</time></trkpt><trkpt lat="40.9240011" lon="9.5060311"><ele>3.6</ele><time>2026-04-07T16:09:35.328Z</time></trkpt><trkpt lat="40.9239275" lon="9.5059616"><ele>4.0</ele><time>2026-04-07T16:09:36.327Z</time></trkpt><trkpt lat="40.9238549" lon="9.5058901"><ele>3.9999999999999996</ele><time>2026-04-07T16:09:37.327Z</time></trkpt><trkpt lat="40.9237818" lon="9.505825"><ele>4.0</ele><time>2026-04-07T16:09:38.328Z</time></trkpt><trkpt lat="40.9237193" lon="9.5057667"><ele>4.0</ele><time>2026-04-07T16:09:39.328Z</time></trkpt><trkpt lat="40.923658" lon="9.5057123"><ele>4.0</ele><time>2026-04-07T16:09:40.328Z</time></trkpt><trkpt lat="40.9236013" lon="9.505663"><ele>3.9999999999999996</ele><time>2026-04-07T16:09:41.327Z</time></trkpt><trkpt lat="40.9235276" lon="9.50559"><ele>4.0</ele><time>2026-04-07T16:09:43.328Z</time></trkpt><trkpt lat="40.9234717" lon="9.505489"><ele>3.9999999999999996</ele><time>2026-04-07T16:09:46.328Z</time></trkpt><trkpt lat="40.923403" lon="9.5054311"><ele>4.0</ele><time>2026-04-07T16:09:49.328Z</time></trkpt><trkpt lat="40.923348" lon="9.5053775"><ele>4.0</ele><time>2026-04-07T16:09:52.327Z</time></trkpt><trkpt lat="40.9232696" lon="9.505309"><ele>4.0</ele><time>2026-04-07T16:09:55.328Z</time></trkpt><trkpt lat="40.9232112" lon="9.5052532"><ele>3.9999999999999996</ele><time>2026-04-07T16:09:57.328Z</time></trkpt><trkpt lat="40.9231545" lon="9.5051976"><ele>4.0</ele><time>2026-04-07T16:09:59.328Z</time></trkpt><trkpt lat="40.9230983" lon="9.5051473"><ele>3.9999999999999996</ele><time>2026-04-07T16:10:01.327Z</time></trkpt><trkpt lat="40.9230356" lon="9.5050909"><ele>4.0</ele><time>2026-04-07T16:10:03.327Z</time></trkpt><trkpt lat="40.9229775" lon="9.5050354"><ele>4.0</ele><time>2026-04-07T16:10:05.328Z</time></trkpt><trkpt lat="40.9229061" lon="9.504967"><ele>4.0</ele><time>2026-04-07T16:10:07.328Z</time></trkpt><trkpt lat="40.922866" lon="9.5049006"><ele>3.9999999999999996</ele><time>2026-04-07T16:10:09.328Z</time></trkpt><trkpt lat="40.9228774" lon="9.504781"><ele>4.0</ele><time>2026-04-07T16:10:12.327Z</time></trkpt><trkpt lat="40.9228791" lon="9.5046877"><ele>4.0</ele><time>2026-04-07T16:10:15.328Z</time></trkpt><trkpt lat="40.922868" lon="9.5046008"><ele>3.9999999999999996</ele><time>2026-04-07T16:10:18.327Z</time></trkpt><trkpt lat="40.9228545" lon="9.5046843"><ele>4.0</ele><time>2026-04-07T16:10:32.328Z</time></trkpt><trkpt lat="40.9227872" lon="9.5046981"><ele>4.0</ele><time>2026-04-07T16:13:33.328Z</time></trkpt><trkpt lat="40.922725" lon="9.5047213"><ele>3.9999999999999996</ele><time>2026-04-07T16:13:58.327Z</time></trkpt><trkpt lat="40.9227443" lon="9.5046073"><ele>4.0</ele><time>2026-04-07T17:07:42.343Z</time></trkpt><trkpt lat="40.9227534" lon="9.5047021"><ele>4.0</ele><time>2026-04-07T17:07:55.342Z</time></trkpt><trkpt lat="40.9228001" lon="9.5047582"><ele>4.0</ele><time>2026-04-07T17:08:04.343Z</time></trkpt><trkpt lat="40.9228644" lon="9.5047546"><ele>3.9999999999999996</ele><time>2026-04-07T17:08:13.343Z</time></trkpt><trkpt lat="40.9228605" lon="9.504666"><ele>4.0</ele><time>2026-04-07T17:08:18.343Z</time></trkpt><trkpt lat="40.9228747" lon="9.5047682"><ele>4.0</ele><time>2026-04-07T17:12:15.343Z</time></trkpt><trkpt lat="40.9228736" lon="9.5046814"><ele>3.9999999999999996</ele><time>2026-04-07T17:12:18.343Z</time></trkpt><trkpt lat="40.9228813" lon="9.5045903"><ele>4.0</ele><time>2026-04-07T17:12:21.343Z</time></trkpt><trkpt lat="40.9229" lon="9.5044697"><ele>4.0</ele><time>2026-04-07T17:12:24.343Z</time></trkpt><trkpt lat="40.9229164" lon="9.504346"><ele>4.800000000000001</ele><time>2026-04-07T17:12:26.342Z</time></trkpt><trkpt lat="40.9229441" lon="9.5042194"><ele>5.6000000000000005</ele><time>2026-04-07T17:12:28.342Z</time></trkpt><trkpt lat="40.9229634" lon="9.5041105"><ele>6.4</ele><time>2026-04-07T17:12:30.343Z</time></trkpt><trkpt lat="40.9229751" lon="9.5040024"><ele>7.2</ele><time>2026-04-07T17:12:32.343Z</time></trkpt><trkpt lat="40.922988" lon="9.5038892"><ele>8.0</ele><time>2026-04-07T17:12:34.343Z</time></trkpt><trkpt lat="40.9229981" lon="9.5037613"><ele>8.333333333333332</ele><time>2026-04-07T17:12:36.342Z</time></trkpt><trkpt lat="40.9230117" lon="9.5036291"><ele>8.666666666666666</ele><time>2026-04-07T17:12:38.343Z</time></trkpt><trkpt lat="40.9230286" lon="9.5035101"><ele>9.0</ele><time>2026-04-07T17:12:40.342Z</time></trkpt><trkpt lat="40.9230328" lon="9.5034115"><ele>9.333333333333334</ele><time>2026-04-07T17:12:42.343Z</time></trkpt><trkpt lat="40.922998" lon="9.5033348"><ele>9.666666666666668</ele><time>2026-04-07T17:12:44.343Z</time></trkpt><trkpt lat="40.922898" lon="9.5033075"><ele>10.0</ele><time>2026-04-07T17:12:46.343Z</time></trkpt><trkpt lat="40.9227827" lon="9.5032985"><ele>10.0</ele><time>2026-04-07T17:12:48.343Z</time></trkpt><trkpt lat="40.9226936" lon="9.50328"><ele>10.0</ele><time>2026-04-07T17:12:50.343Z</time></trkpt><trkpt lat="40.9225897" lon="9.5032609"><ele>10.0</ele><time>2026-04-07T17:12:52.342Z</time></trkpt><trkpt lat="40.9224901" lon="9.50325"><ele>10.0</ele><time>2026-04-07T17:12:54.343Z</time></trkpt><trkpt lat="40.9223817" lon="9.5032332"><ele>10.0</ele><time>2026-04-07T17:12:56.342Z</time></trkpt><trkpt lat="40.9222749" lon="9.5032089"><ele>9.333333333333334</ele><time>2026-04-07T17:12:58.342Z</time></trkpt><trkpt lat="40.9221698" lon="9.5031835"><ele>8.666666666666668</ele><time>2026-04-07T17:13:00.342Z</time></trkpt><trkpt lat="40.9220848" lon="9.5031592"><ele>8.0</ele><time>2026-04-07T17:13:02.343Z</time></trkpt><trkpt lat="40.9220046" lon="9.503131"><ele>7.333333333333334</ele><time>2026-04-07T17:13:04.343Z</time></trkpt><trkpt lat="40.9219344" lon="9.5031016"><ele>6.666666666666667</ele><time>2026-04-07T17:13:06.342Z</time></trkpt><trkpt lat="40.9218659" lon="9.5030749"><ele>6.0</ele><time>2026-04-07T17:13:08.343Z</time></trkpt><trkpt lat="40.9217827" lon="9.5030112"><ele>6.333333333333333</ele><time>2026-04-07T17:13:11.343Z</time></trkpt><trkpt lat="40.9217339" lon="9.5029009"><ele>6.666666666666666</ele><time>2026-04-07T17:13:13.343Z</time></trkpt><trkpt lat="40.9217036" lon="9.5027971"><ele>7.0</ele><time>2026-04-07T17:13:15.342Z</time></trkpt><trkpt lat="40.9216727" lon="9.5026983"><ele>7.333333333333333</ele><time>2026-04-07T17:13:17.343Z</time></trkpt><trkpt lat="40.9216443" lon="9.502615"><ele>7.666666666666666</ele><time>2026-04-07T17:13:20.342Z</time></trkpt><trkpt lat="40.9216022" lon="9.5025494"><ele>8.0</ele><time>2026-04-07T17:13:45.343Z</time></trkpt><trkpt lat="40.9216445" lon="9.5024812"><ele>8.0</ele><time>2026-04-07T17:13:52.342Z</time></trkpt><trkpt lat="40.9215902" lon="9.5025293"><ele>7.999999999999999</ele><time>2026-04-07T17:18:06.342Z</time></trkpt><trkpt lat="40.9215501" lon="9.5025966"><ele>8.0</ele><time>2026-04-07T17:18:16.342Z</time></trkpt><trkpt lat="40.9215883" lon="9.5024975"><ele>8.0</ele><time>2026-04-07T17:18:21.342Z</time></trkpt><trkpt lat="40.9216185" lon="9.5024211"><ele>7.999999999999999</ele><time>2026-04-07T17:18:28.343Z</time></trkpt><trkpt lat="40.9216546" lon="9.5024942"><ele>8.0</ele><time>2026-04-07T17:21:12.343Z</time></trkpt><trkpt lat="40.9216337" lon="9.5025771"><ele>8.0</ele><time>2026-04-07T17:21:18.342Z</time></trkpt><trkpt lat="40.9216414" lon="9.5026693"><ele>8.0</ele><time>2026-04-07T17:21:25.343Z</time></trkpt><trkpt lat="40.9216157" lon="9.5025856"><ele>8.0</ele><time>2026-04-07T17:23:13.343Z</time></trkpt><trkpt lat="40.9214788" lon="9.5024904"><ele>8.0</ele><time>2026-04-07T17:23:16.342Z</time></trkpt><trkpt lat="40.9214007" lon="9.5024576"><ele>8.0</ele><time>2026-04-07T17:23:17.342Z</time></trkpt><trkpt lat="40.9213304" lon="9.5023976"><ele>8.0</ele><time>2026-04-07T17:23:18.343Z</time></trkpt><trkpt lat="40.9212735" lon="9.5023369"><ele>8.0</ele><time>2026-04-07T17:23:19.343Z</time></trkpt><trkpt lat="40.9212156" lon="9.5022805"><ele>8.0</ele><time>2026-04-07T17:23:20.342Z</time></trkpt><trkpt lat="40.9211361" lon="9.5022057"><ele>8.0</ele><time>2026-04-07T17:23:21.342Z</time></trkpt><trkpt lat="40.9210179" lon="9.5021063"><ele>8.0</ele><time>2026-04-07T17:23:22.343Z</time></trkpt><trkpt lat="40.920875" lon="9.501987"><ele>6.666666666666666</ele><time>2026-04-07T17:23:23.343Z</time></trkpt><trkpt lat="40.9207438" lon="9.5018783"><ele>5.333333333333333</ele><time>2026-04-07T17:23:24.343Z</time></trkpt><trkpt lat="40.9206096" lon="9.5017791"><ele>4.0</ele><time>2026-04-07T17:23:25.342Z</time></trkpt><trkpt lat="40.9204746" lon="9.5016927"><ele>4.0</ele><time>2026-04-07T17:23:26.342Z</time></trkpt><trkpt lat="40.9203371" lon="9.5016224"><ele>4.0</ele><time>2026-04-07T17:23:27.342Z</time></trkpt><trkpt lat="40.9201981" lon="9.5015557"><ele>4.0</ele><time>2026-04-07T17:23:28.343Z</time></trkpt><trkpt lat="40.920052" lon="9.5015011"><ele>4.0</ele><time>2026-04-07T17:23:29.343Z</time></trkpt><trkpt lat="40.9198995" lon="9.5014511"><ele>3.0</ele><time>2026-04-07T17:23:30.342Z</time></trkpt><trkpt lat="40.9197457" lon="9.5014145"><ele>2.0</ele><time>2026-04-07T17:23:31.342Z</time></trkpt><trkpt lat="40.9195983" lon="9.5013915"><ele>1.0</ele><time>2026-04-07T17:23:32.343Z</time></trkpt><trkpt lat="40.9194669" lon="9.5013766"><ele>0.0</ele><time>2026-04-07T17:23:33.343Z</time></trkpt><trkpt lat="40.9193448" lon="9.5013739"><ele>0.0</ele><time>2026-04-07T17:23:34.343Z</time></trkpt><trkpt lat="40.919216" lon="9.5013761"><ele>0.0</ele><time>2026-04-07T17:23:35.343Z</time></trkpt><trkpt lat="40.9190789" lon="9.5013842"><ele>0.0</ele><time>2026-04-07T17:23:36.343Z</time></trkpt><trkpt lat="40.9187912" lon="9.5013976"><ele>0.0</ele><time>2026-04-07T17:23:38.343Z</time></trkpt><trkpt lat="40.9186414" lon="9.5014075"><ele>0.0</ele><time>2026-04-07T17:23:39.343Z</time></trkpt><trkpt lat="40.9184888" lon="9.5014153"><ele>0.0</ele><time>2026-04-07T17:23:40.343Z</time></trkpt><trkpt lat="40.9183378" lon="9.5014252"><ele>0.0</ele><time>2026-04-07T17:23:41.343Z</time></trkpt><trkpt lat="40.9181998" lon="9.5014312"><ele>0.0</ele><time>2026-04-07T17:23:42.343Z</time></trkpt><trkpt lat="40.9180746" lon="9.5014348"><ele>0.0</ele><time>2026-04-07T17:23:43.343Z</time></trkpt><trkpt lat="40.917953" lon="9.5014401"><ele>0.0</ele><time>2026-04-07T17:23:44.343Z</time></trkpt><trkpt lat="40.9178237" lon="9.5014469"><ele>0.0</ele><time>2026-04-07T17:23:45.343Z</time></trkpt><trkpt lat="40.917687" lon="9.5014513"><ele>0.0</ele><time>2026-04-07T17:23:46.343Z</time></trkpt><trkpt lat="40.9175431" lon="9.5014594"><ele>0.0</ele><time>2026-04-07T17:23:47.343Z</time></trkpt><trkpt lat="40.9173921" lon="9.5014662"><ele>0.0</ele><time>2026-04-07T17:23:48.343Z</time></trkpt><trkpt lat="40.9172325" lon="9.501476"><ele>0.0</ele><time>2026-04-07T17:23:49.342Z</time></trkpt><trkpt lat="40.917067" lon="9.5014828"><ele>0.0</ele><time>2026-04-07T17:23:50.343Z</time></trkpt><trkpt lat="40.9168945" lon="9.5014917"><ele>0.0</ele><time>2026-04-07T17:23:51.342Z</time></trkpt><trkpt lat="40.9167196" lon="9.5014993"><ele>0.3333333333333333</ele><time>2026-04-07T17:23:52.343Z</time></trkpt><trkpt lat="40.9165407" lon="9.5015086"><ele>0.6666666666666666</ele><time>2026-04-07T17:23:53.343Z</time></trkpt><trkpt lat="40.9163548" lon="9.5015183"><ele>1.0</ele><time>2026-04-07T17:23:54.343Z</time></trkpt><trkpt lat="40.9161638" lon="9.5015274"><ele>1.0</ele><time>2026-04-07T17:23:55.343Z</time></trkpt><trkpt lat="40.9159696" lon="9.5015383"><ele>1.0</ele><time>2026-04-07T17:23:56.343Z</time></trkpt><trkpt lat="40.9157734" lon="9.5015522"><ele>1.0</ele><time>2026-04-07T17:23:57.343Z</time></trkpt><trkpt lat="40.915571" lon="9.5015635"><ele>1.0</ele><time>2026-04-07T17:23:58.343Z</time></trkpt><trkpt lat="40.9153728" lon="9.5015719"><ele>1.0</ele><time>2026-04-07T17:23:59.343Z</time></trkpt><trkpt lat="40.915184" lon="9.5015795"><ele>1.0</ele><time>2026-04-07T17:24:00.343Z</time></trkpt><trkpt lat="40.9149915" lon="9.5015717"><ele>2.0</ele><time>2026-04-07T17:24:01.342Z</time></trkpt><trkpt lat="40.914809" lon="9.5015877"><ele>3.0</ele><time>2026-04-07T17:24:02.343Z</time></trkpt><trkpt lat="40.9146275" lon="9.5016005"><ele>4.0</ele><time>2026-04-07T17:24:03.343Z</time></trkpt><trkpt lat="40.9144507" lon="9.5016102"><ele>4.0</ele><time>2026-04-07T17:24:04.342Z</time></trkpt><trkpt lat="40.9142791" lon="9.5016306"><ele>4.0</ele><time>2026-04-07T17:24:05.343Z</time></trkpt><trkpt lat="40.914106" lon="9.5016562"><ele>4.0</ele><time>2026-04-07T17:24:06.342Z</time></trkpt><trkpt lat="40.9139336" lon="9.5016909"><ele>4.333333333333333</ele><time>2026-04-07T17:24:07.343Z</time></trkpt><trkpt lat="40.9137652" lon="9.5017371"><ele>4.666666666666667</ele><time>2026-04-07T17:24:08.343Z</time></trkpt><trkpt lat="40.9135979" lon="9.5017883"><ele>5.0</ele><time>2026-04-07T17:24:09.343Z</time></trkpt><trkpt lat="40.9134376" lon="9.5018453"><ele>3.666666666666667</ele><time>2026-04-07T17:24:10.343Z</time></trkpt><trkpt lat="40.9132875" lon="9.501905"><ele>2.3333333333333335</ele><time>2026-04-07T17:24:11.343Z</time></trkpt><trkpt lat="40.9131377" lon="9.5019684"><ele>1.0</ele><time>2026-04-07T17:24:12.342Z</time></trkpt><trkpt lat="40.9129904" lon="9.5020386"><ele>0.6666666666666666</ele><time>2026-04-07T17:24:13.343Z</time></trkpt><trkpt lat="40.9128461" lon="9.5021152"><ele>0.3333333333333333</ele><time>2026-04-07T17:24:14.343Z</time></trkpt><trkpt lat="40.9127041" lon="9.5022002"><ele>0.0</ele><time>2026-04-07T17:24:15.342Z</time></trkpt><trkpt lat="40.9125618" lon="9.5022918"><ele>0.6666666666666666</ele><time>2026-04-07T17:24:16.343Z</time></trkpt><trkpt lat="40.9124191" lon="9.5023943"><ele>1.3333333333333333</ele><time>2026-04-07T17:24:17.343Z</time></trkpt><trkpt lat="40.9122763" lon="9.5025052"><ele>2.0</ele><time>2026-04-07T17:24:18.343Z</time></trkpt><trkpt lat="40.9121337" lon="9.5026252"><ele>2.0</ele><time>2026-04-07T17:24:19.343Z</time></trkpt><trkpt lat="40.9119907" lon="9.5027511"><ele>2.0</ele><time>2026-04-07T17:24:20.343Z</time></trkpt><trkpt lat="40.9118453" lon="9.5028853"><ele>2.0</ele><time>2026-04-07T17:24:21.342Z</time></trkpt><trkpt lat="40.9116971" lon="9.5030312"><ele>3.0</ele><time>2026-04-07T17:24:22.343Z</time></trkpt><trkpt lat="40.9115592" lon="9.503184"><ele>4.0</ele><time>2026-04-07T17:24:23.343Z</time></trkpt><trkpt lat="40.9114373" lon="9.5033355"><ele>5.0</ele><time>2026-04-07T17:24:24.343Z</time></trkpt><trkpt lat="40.9113252" lon="9.5034869"><ele>5.0</ele><time>2026-04-07T17:24:25.343Z</time></trkpt><trkpt lat="40.9112161" lon="9.5036418"><ele>5.0</ele><time>2026-04-07T17:24:26.342Z</time></trkpt><trkpt lat="40.9111081" lon="9.5038022"><ele>5.0</ele><time>2026-04-07T17:24:27.342Z</time></trkpt><trkpt lat="40.9110052" lon="9.5039661"><ele>4.666666666666667</ele><time>2026-04-07T17:24:28.343Z</time></trkpt><trkpt lat="40.9109051" lon="9.504132"><ele>4.333333333333333</ele><time>2026-04-07T17:24:29.343Z</time></trkpt><trkpt lat="40.9108077" lon="9.504303"><ele>4.0</ele><time>2026-04-07T17:24:30.342Z</time></trkpt><trkpt lat="40.9107123" lon="9.5044775"><ele>4.333333333333333</ele><time>2026-04-07T17:24:31.343Z</time></trkpt><trkpt lat="40.9106229" lon="9.5046592"><ele>4.666666666666667</ele><time>2026-04-07T17:24:32.343Z</time></trkpt><trkpt lat="40.9105387" lon="9.5048468"><ele>5.0</ele><time>2026-04-07T17:24:33.343Z</time></trkpt><trkpt lat="40.9103889" lon="9.5052442"><ele>5.0</ele><time>2026-04-07T17:24:35.343Z</time></trkpt><trkpt lat="40.9103187" lon="9.5054499"><ele>5.0</ele><time>2026-04-07T17:24:36.343Z</time></trkpt><trkpt lat="40.9102557" lon="9.5056569"><ele>5.0</ele><time>2026-04-07T17:24:37.343Z</time></trkpt><trkpt lat="40.9101986" lon="9.5058684"><ele>5.0</ele><time>2026-04-07T17:24:38.343Z</time></trkpt><trkpt lat="40.910149" lon="9.5060785"><ele>5.0</ele><time>2026-04-07T17:24:39.343Z</time></trkpt><trkpt lat="40.9101062" lon="9.5062753"><ele>5.0</ele><time>2026-04-07T17:24:40.343Z</time></trkpt><trkpt lat="40.9100692" lon="9.5064655"><ele>5.25</ele><time>2026-04-07T17:24:41.343Z</time></trkpt><trkpt lat="40.9100371" lon="9.5066509"><ele>5.5</ele><time>2026-04-07T17:24:42.342Z</time></trkpt><trkpt lat="40.9100103" lon="9.5068335"><ele>5.75</ele><time>2026-04-07T17:24:43.343Z</time></trkpt><trkpt lat="40.9099854" lon="9.5070122"><ele>6.0</ele><time>2026-04-07T17:24:44.342Z</time></trkpt><trkpt lat="40.9099642" lon="9.5071844"><ele>6.8</ele><time>2026-04-07T17:24:45.343Z</time></trkpt><trkpt lat="40.9099457" lon="9.5073382"><ele>7.6</ele><time>2026-04-07T17:24:46.343Z</time></trkpt><trkpt lat="40.909925" lon="9.5074847"><ele>8.4</ele><time>2026-04-07T17:24:47.342Z</time></trkpt><trkpt lat="40.9099045" lon="9.5076276"><ele>9.2</ele><time>2026-04-07T17:24:48.343Z</time></trkpt><trkpt lat="40.9098868" lon="9.5077652"><ele>10.0</ele><time>2026-04-07T17:24:49.343Z</time></trkpt><trkpt lat="40.9098627" lon="9.5078923"><ele>11.0</ele><time>2026-04-07T17:24:50.343Z</time></trkpt><trkpt lat="40.9098317" lon="9.508006"><ele>12.0</ele><time>2026-04-07T17:24:51.343Z</time></trkpt><trkpt lat="40.9097798" lon="9.5081016"><ele>13.0</ele><time>2026-04-07T17:24:52.342Z</time></trkpt><trkpt lat="40.9097051" lon="9.5081719"><ele>14.0</ele><time>2026-04-07T17:24:53.343Z</time></trkpt><trkpt lat="40.9096156" lon="9.5082192"><ele>15.0</ele><time>2026-04-07T17:24:54.343Z</time></trkpt><trkpt lat="40.9095214" lon="9.508265"><ele>15.0</ele><time>2026-04-07T17:24:55.342Z</time></trkpt><trkpt lat="40.9094348" lon="9.50834"><ele>15.0</ele><time>2026-04-07T17:24:56.343Z</time></trkpt><trkpt lat="40.9093628" lon="9.5084379"><ele>15.0</ele><time>2026-04-07T17:24:57.343Z</time></trkpt><trkpt lat="40.9093091" lon="9.5085647"><ele>15.0</ele><time>2026-04-07T17:24:58.342Z</time></trkpt><trkpt lat="40.9092815" lon="9.5087039"><ele>15.0</ele><time>2026-04-07T17:24:59.343Z</time></trkpt><trkpt lat="40.9092792" lon="9.5088426"><ele>15.0</ele><time>2026-04-07T17:25:00.343Z</time></trkpt><trkpt lat="40.9093039" lon="9.5089813"><ele>15.0</ele><time>2026-04-07T17:25:01.343Z</time></trkpt><trkpt lat="40.9093548" lon="9.5091139"><ele>15.0</ele><time>2026-04-07T17:25:02.343Z</time></trkpt><trkpt lat="40.909423" lon="9.5092406"><ele>15.0</ele><time>2026-04-07T17:25:03.343Z</time></trkpt><trkpt lat="40.9094921" lon="9.509369"><ele>15.0</ele><time>2026-04-07T17:25:04.342Z</time></trkpt><trkpt lat="40.9095538" lon="9.5095116"><ele>15.0</ele><time>2026-04-07T17:25:05.343Z</time></trkpt><trkpt lat="40.9096011" lon="9.5096613"><ele>15.0</ele><time>2026-04-07T17:25:06.342Z</time></trkpt><trkpt lat="40.9096246" lon="9.5098207"><ele>15.0</ele><time>2026-04-07T17:25:07.343Z</time></trkpt><trkpt lat="40.9096274" lon="9.5099819"><ele>15.5</ele><time>2026-04-07T17:25:08.342Z</time></trkpt><trkpt lat="40.909621" lon="9.5101432"><ele>16.0</ele><time>2026-04-07T17:25:09.343Z</time></trkpt><trkpt lat="40.9096085" lon="9.5102996"><ele>16.5</ele><time>2026-04-07T17:25:10.343Z</time></trkpt><trkpt lat="40.909588" lon="9.5104525"><ele>17.0</ele><time>2026-04-07T17:25:11.343Z</time></trkpt><trkpt lat="40.9095674" lon="9.5106074"><ele>17.0</ele><time>2026-04-07T17:25:12.342Z</time></trkpt><trkpt lat="40.9095471" lon="9.5107596"><ele>17.0</ele><time>2026-04-07T17:25:13.342Z</time></trkpt><trkpt lat="40.909521" lon="9.5109145"><ele>17.0</ele><time>2026-04-07T17:25:14.343Z</time></trkpt><trkpt lat="40.9095061" lon="9.5110591"><ele>17.0</ele><time>2026-04-07T17:25:15.343Z</time></trkpt><trkpt lat="40.9094897" lon="9.5111964"><ele>17.0</ele><time>2026-04-07T17:25:16.343Z</time></trkpt><trkpt lat="40.9094758" lon="9.5113166"><ele>17.0</ele><time>2026-04-07T17:25:17.342Z</time></trkpt><trkpt lat="40.9094634" lon="9.5114327"><ele>17.0</ele><time>2026-04-07T17:25:18.343Z</time></trkpt><trkpt lat="40.9094506" lon="9.5115494"><ele>17.0</ele><time>2026-04-07T17:25:19.343Z</time></trkpt><trkpt lat="40.9094335" lon="9.5116614"><ele>17.0</ele><time>2026-04-07T17:25:20.343Z</time></trkpt><trkpt lat="40.9094092" lon="9.5117736"><ele>17.0</ele><time>2026-04-07T17:25:21.343Z</time></trkpt><trkpt lat="40.9093744" lon="9.5118807"><ele>17.0</ele><time>2026-04-07T17:25:22.343Z</time></trkpt><trkpt lat="40.9093339" lon="9.5119882"><ele>17.0</ele><time>2026-04-07T17:25:23.342Z</time></trkpt><trkpt lat="40.909304" lon="9.5121097"><ele>17.0</ele><time>2026-04-07T17:25:24.343Z</time></trkpt><trkpt lat="40.9092887" lon="9.5122412"><ele>17.0</ele><time>2026-04-07T17:25:25.342Z</time></trkpt><trkpt lat="40.9092835" lon="9.5123804"><ele>17.0</ele><time>2026-04-07T17:25:26.343Z</time></trkpt><trkpt lat="40.9092805" lon="9.5125215"><ele>17.25</ele><time>2026-04-07T17:25:27.342Z</time></trkpt><trkpt lat="40.9092722" lon="9.5126675"><ele>17.5</ele><time>2026-04-07T17:25:28.342Z</time></trkpt><trkpt lat="40.9092584" lon="9.5128168"><ele>17.75</ele><time>2026-04-07T17:25:29.343Z</time></trkpt><trkpt lat="40.9092356" lon="9.5129714"><ele>18.0</ele><time>2026-04-07T17:25:30.343Z</time></trkpt><trkpt lat="40.9092135" lon="9.5131231"><ele>17.4</ele><time>2026-04-07T17:25:31.342Z</time></trkpt><trkpt lat="40.9091944" lon="9.5132694"><ele>16.8</ele><time>2026-04-07T17:25:32.343Z</time></trkpt><trkpt lat="40.9091791" lon="9.5134036"><ele>16.2</ele><time>2026-04-07T17:25:33.343Z</time></trkpt><trkpt lat="40.9091589" lon="9.5135151"><ele>15.6</ele><time>2026-04-07T17:25:34.343Z</time></trkpt><trkpt lat="40.9091359" lon="9.5136167"><ele>15.0</ele><time>2026-04-07T17:25:35.343Z</time></trkpt><trkpt lat="40.9091109" lon="9.5137003"><ele>15.333333333333334</ele><time>2026-04-07T17:25:36.343Z</time></trkpt><trkpt lat="40.9090386" lon="9.5137896"><ele>15.666666666666668</ele><time>2026-04-07T17:25:38.343Z</time></trkpt><trkpt lat="40.9089376" lon="9.5138392"><ele>16.0</ele><time>2026-04-07T17:25:40.343Z</time></trkpt><trkpt lat="40.9088781" lon="9.5138742"><ele>16.333333333333336</ele><time>2026-04-07T17:25:41.343Z</time></trkpt><trkpt lat="40.9088223" lon="9.5139239"><ele>16.666666666666668</ele><time>2026-04-07T17:25:42.343Z</time></trkpt><trkpt lat="40.9087754" lon="9.5139968"><ele>17.0</ele><time>2026-04-07T17:25:43.343Z</time></trkpt><trkpt lat="40.9087438" lon="9.5140831"><ele>17.0</ele><time>2026-04-07T17:25:44.343Z</time></trkpt><trkpt lat="40.9087317" lon="9.5141866"><ele>17.0</ele><time>2026-04-07T17:25:45.342Z</time></trkpt><trkpt lat="40.9087461" lon="9.5142955"><ele>17.0</ele><time>2026-04-07T17:25:46.343Z</time></trkpt><trkpt lat="40.9087758" lon="9.5143954"><ele>17.0</ele><time>2026-04-07T17:25:47.342Z</time></trkpt><trkpt lat="40.9088072" lon="9.5144974"><ele>17.0</ele><time>2026-04-07T17:25:48.343Z</time></trkpt><trkpt lat="40.9088318" lon="9.5145992"><ele>17.0</ele><time>2026-04-07T17:25:49.343Z</time></trkpt><trkpt lat="40.9088352" lon="9.5147005"><ele>17.0</ele><time>2026-04-07T17:25:50.342Z</time></trkpt><trkpt lat="40.9088139" lon="9.5148063"><ele>17.0</ele><time>2026-04-07T17:25:51.342Z</time></trkpt><trkpt lat="40.9088031" lon="9.5149319"><ele>17.0</ele><time>2026-04-07T17:25:52.343Z</time></trkpt><trkpt lat="40.9087927" lon="9.5150816"><ele>17.0</ele><time>2026-04-07T17:25:53.343Z</time></trkpt><trkpt lat="40.9087752" lon="9.5152544"><ele>17.0</ele><time>2026-04-07T17:25:54.343Z</time></trkpt><trkpt lat="40.908758" lon="9.515441"><ele>17.0</ele><time>2026-04-07T17:25:55.343Z</time></trkpt><trkpt lat="40.9087395" lon="9.5156456"><ele>17.0</ele><time>2026-04-07T17:25:56.342Z</time></trkpt><trkpt lat="40.9087226" lon="9.5158416"><ele>17.0</ele><time>2026-04-07T17:25:57.342Z</time></trkpt><trkpt lat="40.9087062" lon="9.5160305"><ele>17.0</ele><time>2026-04-07T17:25:58.342Z</time></trkpt><trkpt lat="40.9086867" lon="9.5162161"><ele>16.25</ele><time>2026-04-07T17:25:59.343Z</time></trkpt><trkpt lat="40.9086671" lon="9.5163872"><ele>15.5</ele><time>2026-04-07T17:26:00.343Z</time></trkpt><trkpt lat="40.9086521" lon="9.5165465"><ele>14.75</ele><time>2026-04-07T17:26:01.343Z</time></trkpt><trkpt lat="40.9086455" lon="9.5166912"><ele>14.0</ele><time>2026-04-07T17:26:02.343Z</time></trkpt><trkpt lat="40.9086435" lon="9.5168229"><ele>14.000000000000002</ele><time>2026-04-07T17:26:03.343Z</time></trkpt><trkpt lat="40.9086382" lon="9.5169433"><ele>14.0</ele><time>2026-04-07T17:26:04.343Z</time></trkpt><trkpt lat="40.9086017" lon="9.5170424"><ele>14.0</ele><time>2026-04-07T17:26:05.342Z</time></trkpt><trkpt lat="40.9085618" lon="9.5171371"><ele>14.0</ele><time>2026-04-07T17:26:06.343Z</time></trkpt><trkpt lat="40.9085202" lon="9.5172271"><ele>14.000000000000002</ele><time>2026-04-07T17:26:07.343Z</time></trkpt><trkpt lat="40.9085037" lon="9.5173264"><ele>14.0</ele><time>2026-04-07T17:26:08.342Z</time></trkpt><trkpt lat="40.9085008" lon="9.5174294"><ele>13.833333333333334</ele><time>2026-04-07T17:26:09.343Z</time></trkpt><trkpt lat="40.9085478" lon="9.5175161"><ele>13.666666666666668</ele><time>2026-04-07T17:26:10.343Z</time></trkpt><trkpt lat="40.908604" lon="9.5175935"><ele>13.5</ele><time>2026-04-07T17:26:11.343Z</time></trkpt><trkpt lat="40.9086588" lon="9.5176727"><ele>13.333333333333332</ele><time>2026-04-07T17:26:12.343Z</time></trkpt><trkpt lat="40.9087042" lon="9.517763"><ele>13.166666666666666</ele><time>2026-04-07T17:26:13.343Z</time></trkpt><trkpt lat="40.9087341" lon="9.5178723"><ele>13.0</ele><time>2026-04-07T17:26:14.342Z</time></trkpt><trkpt lat="40.9087468" lon="9.5179926"><ele>12.0</ele><time>2026-04-07T17:26:15.343Z</time></trkpt><trkpt lat="40.9087405" lon="9.5181357"><ele>11.0</ele><time>2026-04-07T17:26:16.343Z</time></trkpt><trkpt lat="40.9087339" lon="9.5182907"><ele>10.0</ele><time>2026-04-07T17:26:17.342Z</time></trkpt><trkpt lat="40.9087192" lon="9.518449"><ele>9.0</ele><time>2026-04-07T17:26:18.343Z</time></trkpt><trkpt lat="40.9087065" lon="9.5186171"><ele>8.75</ele><time>2026-04-07T17:26:19.342Z</time></trkpt><trkpt lat="40.9086942" lon="9.5187839"><ele>8.5</ele><time>2026-04-07T17:26:20.343Z</time></trkpt><trkpt lat="40.9086751" lon="9.5189558"><ele>8.25</ele><time>2026-04-07T17:26:21.343Z</time></trkpt><trkpt lat="40.9086542" lon="9.519132"><ele>8.0</ele><time>2026-04-07T17:26:22.342Z</time></trkpt><trkpt lat="40.9086365" lon="9.5193101"><ele>8.0</ele><time>2026-04-07T17:26:23.343Z</time></trkpt><trkpt lat="40.9086147" lon="9.5195013"><ele>8.0</ele><time>2026-04-07T17:26:24.342Z</time></trkpt><trkpt lat="40.9085963" lon="9.5196838"><ele>8.0</ele><time>2026-04-07T17:26:25.343Z</time></trkpt><trkpt lat="40.9085762" lon="9.5198677"><ele>8.0</ele><time>2026-04-07T17:26:26.343Z</time></trkpt><trkpt lat="40.9085567" lon="9.5200507"><ele>8.0</ele><time>2026-04-07T17:26:27.343Z</time></trkpt><trkpt lat="40.9085374" lon="9.5202317"><ele>8.0</ele><time>2026-04-07T17:26:28.343Z</time></trkpt><trkpt lat="40.9085197" lon="9.5204124"><ele>8.0</ele><time>2026-04-07T17:26:29.343Z</time></trkpt><trkpt lat="40.908497" lon="9.5205926"><ele>8.0</ele><time>2026-04-07T17:26:30.342Z</time></trkpt><trkpt lat="40.908474" lon="9.5207684"><ele>8.0</ele><time>2026-04-07T17:26:31.343Z</time></trkpt><trkpt lat="40.9084484" lon="9.5209389"><ele>8.0</ele><time>2026-04-07T17:26:32.342Z</time></trkpt><trkpt lat="40.9084166" lon="9.5210962"><ele>8.0</ele><time>2026-04-07T17:26:33.342Z</time></trkpt><trkpt lat="40.908365" lon="9.5212339"><ele>8.0</ele><time>2026-04-07T17:26:34.342Z</time></trkpt><trkpt lat="40.9083034" lon="9.5213457"><ele>8.0</ele><time>2026-04-07T17:26:35.343Z</time></trkpt><trkpt lat="40.9082457" lon="9.52146"><ele>8.0</ele><time>2026-04-07T17:26:36.343Z</time></trkpt><trkpt lat="40.9081987" lon="9.5215853"><ele>8.0</ele><time>2026-04-07T17:26:37.343Z</time></trkpt><trkpt lat="40.9081771" lon="9.5217235"><ele>8.0</ele><time>2026-04-07T17:26:38.343Z</time></trkpt><trkpt lat="40.90818" lon="9.5218731"><ele>8.0</ele><time>2026-04-07T17:26:39.343Z</time></trkpt><trkpt lat="40.9082045" lon="9.5220212"><ele>8.0</ele><time>2026-04-07T17:26:40.343Z</time></trkpt><trkpt lat="40.9082462" lon="9.5221839"><ele>8.0</ele><time>2026-04-07T17:26:41.343Z</time></trkpt><trkpt lat="40.9082733" lon="9.5223639"><ele>8.0</ele><time>2026-04-07T17:26:42.343Z</time></trkpt><trkpt lat="40.9082882" lon="9.5225575"><ele>8.0</ele><time>2026-04-07T17:26:43.343Z</time></trkpt><trkpt lat="40.9082837" lon="9.522757"><ele>8.666666666666666</ele><time>2026-04-07T17:26:44.343Z</time></trkpt><trkpt lat="40.9082667" lon="9.5229554"><ele>9.333333333333334</ele><time>2026-04-07T17:26:45.343Z</time></trkpt><trkpt lat="40.9082459" lon="9.5231615"><ele>10.0</ele><time>2026-04-07T17:26:46.343Z</time></trkpt><trkpt lat="40.9082228" lon="9.5233656"><ele>10.0</ele><time>2026-04-07T17:26:47.343Z</time></trkpt><trkpt lat="40.9082006" lon="9.5235666"><ele>10.0</ele><time>2026-04-07T17:26:48.342Z</time></trkpt><trkpt lat="40.9081783" lon="9.5237661"><ele>10.0</ele><time>2026-04-07T17:26:49.343Z</time></trkpt><trkpt lat="40.9081598" lon="9.5239617"><ele>10.75</ele><time>2026-04-07T17:26:50.343Z</time></trkpt><trkpt lat="40.908142" lon="9.5241524"><ele>11.5</ele><time>2026-04-07T17:26:51.343Z</time></trkpt><trkpt lat="40.9081221" lon="9.5243459"><ele>12.25</ele><time>2026-04-07T17:26:52.343Z</time></trkpt><trkpt lat="40.9081013" lon="9.524537"><ele>13.0</ele><time>2026-04-07T17:26:53.343Z</time></trkpt><trkpt lat="40.9080809" lon="9.5247284"><ele>13.0</ele><time>2026-04-07T17:26:54.343Z</time></trkpt><trkpt lat="40.9080594" lon="9.5249089"><ele>13.0</ele><time>2026-04-07T17:26:55.343Z</time></trkpt><trkpt lat="40.9080423" lon="9.5250766"><ele>13.0</ele><time>2026-04-07T17:26:56.342Z</time></trkpt><trkpt lat="40.9080234" lon="9.5252288"><ele>13.0</ele><time>2026-04-07T17:26:57.343Z</time></trkpt><trkpt lat="40.9080109" lon="9.5253697"><ele>12.999999999999998</ele><time>2026-04-07T17:26:58.342Z</time></trkpt><trkpt lat="40.9080025" lon="9.5254975"><ele>13.0</ele><time>2026-04-07T17:26:59.343Z</time></trkpt><trkpt lat="40.9079939" lon="9.5256206"><ele>13.0</ele><time>2026-04-07T17:27:00.343Z</time></trkpt><trkpt lat="40.9079859" lon="9.5257259"><ele>13.0</ele><time>2026-04-07T17:27:01.343Z</time></trkpt><trkpt lat="40.9079778" lon="9.5258183"><ele>12.999999999999998</ele><time>2026-04-07T17:27:02.342Z</time></trkpt><trkpt lat="40.9079699" lon="9.5259015"><ele>13.0</ele><time>2026-04-07T17:27:03.343Z</time></trkpt><trkpt lat="40.9079573" lon="9.5260057"><ele>12.999999999999998</ele><time>2026-04-07T17:27:05.342Z</time></trkpt><trkpt lat="40.9079509" lon="9.5260977"><ele>13.0</ele><time>2026-04-07T17:27:09.342Z</time></trkpt><trkpt lat="40.9079665" lon="9.526208"><ele>13.0</ele><time>2026-04-07T17:27:15.343Z</time></trkpt><trkpt lat="40.9080372" lon="9.5262527"><ele>13.0</ele><time>2026-04-07T17:27:33.342Z</time></trkpt><trkpt lat="40.9081007" lon="9.5262729"><ele>12.999999999999998</ele><time>2026-04-07T17:27:36.343Z</time></trkpt><trkpt lat="40.9081767" lon="9.5263116"><ele>13.0</ele><time>2026-04-07T17:27:39.342Z</time></trkpt><trkpt lat="40.9082248" lon="9.5263851"><ele>12.999999999999998</ele><time>2026-04-07T17:27:43.343Z</time></trkpt><trkpt lat="40.9081796" lon="9.5264451"><ele>13.0</ele><time>2026-04-07T17:28:01.343Z</time></trkpt><trkpt lat="40.908203" lon="9.5263501"><ele>13.0</ele><time>2026-04-07T17:29:05.343Z</time></trkpt><trkpt lat="40.9082438" lon="9.5264729"><ele>13.0</ele><time>2026-04-07T17:29:49.342Z</time></trkpt><trkpt lat="40.9082071" lon="9.5264015"><ele>12.999999999999998</ele><time>2026-04-07T17:31:07.343Z</time></trkpt><trkpt lat="40.9082054" lon="9.5265039"><ele>13.0</ele><time>2026-04-07T17:31:28.343Z</time></trkpt><trkpt lat="40.9082151" lon="9.5265999"><ele>13.0</ele><time>2026-04-07T17:31:31.342Z</time></trkpt><trkpt lat="40.9082861" lon="9.5266413"><ele>13.0</ele><time>2026-04-07T17:31:34.343Z</time></trkpt><trkpt lat="40.9083275" lon="9.5265726"><ele>13.0</ele><time>2026-04-07T17:31:37.343Z</time></trkpt><trkpt lat="40.9083391" lon="9.526489"><ele>13.0</ele><time>2026-04-07T17:32:27.343Z</time></trkpt><trkpt lat="40.9083818" lon="9.5264014"><ele>13.0</ele><time>2026-04-07T17:32:30.342Z</time></trkpt><trkpt lat="40.9084081" lon="9.5263256"><ele>13.0</ele><time>2026-04-07T17:32:32.343Z</time></trkpt><trkpt lat="40.9083504" lon="9.5262677"><ele>13.0</ele><time>2026-04-07T17:32:35.343Z</time></trkpt><trkpt lat="40.9082836" lon="9.5262407"><ele>13.0</ele><time>2026-04-07T17:32:38.343Z</time></trkpt><trkpt lat="40.908211" lon="9.5262171"><ele>13.0</ele><time>2026-04-07T17:32:41.342Z</time></trkpt><trkpt lat="40.9081387" lon="9.5261632"><ele>13.0</ele><time>2026-04-07T17:32:45.343Z</time></trkpt><trkpt lat="40.908077" lon="9.5261227"><ele>13.0</ele><time>2026-04-07T17:32:49.343Z</time></trkpt></trkseg></trk></gpx>